<?xml version='1.0' encoding='UTF-8'?><gpx version="1.1" creator="JPX - https://github.com/jenetics/jpx" xmlns="http://www.topografix.com/GPX/1/1"><trk><trkseg><trkpt lat="41.06148642569368" lon="14.572273026123817"><ele>256.0</ele><time>2026-04-04T11:11:14Z</time></trkpt><trkpt lat="41.06156324171068" lon="14.572147615509412"><ele>256.0</ele><time>2026-04-04T11:11:16Z</time></trkpt><trkpt lat="41.06158250723203" lon="14.572042004352022"><ele>256.0</ele><time>2026-04-04T11:11:17Z</time></trkpt><trkpt lat="41.06163937513354" lon="14.571940710152951"><ele>256.0</ele><time>2026-04-04T11:11:18Z</time></trkpt><trkpt lat="41.0616987776355" lon="14.571827521191404"><ele>256.0</ele><time>2026-04-04T11:11:19Z</time></trkpt><trkpt lat="41.0617567473349" lon="14.571715075738224"><ele>255.0</ele><time>2026-04-04T11:11:20Z</time></trkpt><trkpt lat="41.061815915596334" lon="14.571587667575665"><ele>254.0</ele><time>2026-04-04T11:11:21Z</time></trkpt><trkpt lat="41.06187609555866" lon="14.571458473338426"><ele>253.0</ele><time>2026-04-04T11:11:22Z</time></trkpt><trkpt lat="41.06192817243357" lon="14.571323098315789"><ele>252.0</ele><time>2026-04-04T11:11:23Z</time></trkpt><trkpt lat="41.061972529179094" lon="14.57117099368943"><ele>251.5</ele><time>2026-04-04T11:11:23.999Z</time></trkpt><trkpt lat="41.062010356600524" lon="14.571005224361516"><ele>251.0</ele><time>2026-04-04T11:11:24.999Z</time></trkpt><trkpt lat="41.06204164901558" lon="14.570832315441498"><ele>250.5</ele><time>2026-04-04T11:11:25.999Z</time></trkpt><trkpt lat="41.06206421094761" lon="14.570652999176577"><ele>250.0</ele><time>2026-04-04T11:11:26.999Z</time></trkpt><trkpt lat="41.0620752069764" lon="14.570468228921778"><ele>249.75</ele><time>2026-04-04T11:11:27.999Z</time></trkpt><trkpt lat="41.06209406851553" lon="14.57027782654584"><ele>249.5</ele><time>2026-04-04T11:11:28.999Z</time></trkpt><trkpt lat="41.06211097389772" lon="14.57008224232238"><ele>249.25</ele><time>2026-04-04T11:11:29.999Z</time></trkpt><trkpt lat="41.062126859678884" lon="14.569878265249589"><ele>249.0</ele><time>2026-04-04T11:11:30.999Z</time></trkpt><trkpt lat="41.06214546528346" lon="14.569663589883772"><ele>248.0</ele><time>2026-04-04T11:11:31.999Z</time></trkpt><trkpt lat="41.06216236889195" lon="14.56944455510945"><ele>247.0</ele><time>2026-04-04T11:11:32.999Z</time></trkpt><trkpt lat="41.06217114404769" lon="14.569226260707959"><ele>246.0</ele><time>2026-04-04T11:11:33.999Z</time></trkpt><trkpt lat="41.06219140496222" lon="14.569004717610433"><ele>246.0</ele><time>2026-04-04T11:11:34.999Z</time></trkpt><trkpt lat="41.06220691002964" lon="14.568800402037478"><ele>246.0</ele><time>2026-04-04T11:11:35.999Z</time></trkpt><trkpt lat="41.062243669971004" lon="14.568516839812911"><ele>246.0</ele><time>2026-04-04T11:11:36.999Z</time></trkpt><trkpt lat="41.06224725462835" lon="14.568326809117469"><ele>246.0</ele><time>2026-04-04T11:11:37.999Z</time></trkpt><trkpt lat="41.06226581456293" lon="14.568102118003202"><ele>246.0</ele><time>2026-04-04T11:11:38.999Z</time></trkpt><trkpt lat="41.06228742279894" lon="14.567884042876706"><ele>246.0</ele><time>2026-04-04T11:11:39.999Z</time></trkpt><trkpt lat="41.062309458882474" lon="14.567666519898381"><ele>247.0</ele><time>2026-04-04T11:11:40.999Z</time></trkpt><trkpt lat="41.062331157137265" lon="14.567448328336095"><ele>248.0</ele><time>2026-04-04T11:11:41.999Z</time></trkpt><trkpt lat="41.06236117475908" lon="14.567227780776522"><ele>249.0</ele><time>2026-04-04T11:11:42.999Z</time></trkpt><trkpt lat="41.062433446773674" lon="14.567030624489037"><ele>249.33333333333331</ele><time>2026-04-04T11:11:43.999Z</time></trkpt><trkpt lat="41.062500171215866" lon="14.566828808494337"><ele>249.66666666666666</ele><time>2026-04-04T11:11:44.999Z</time></trkpt><trkpt lat="41.06257293775382" lon="14.566631006281778"><ele>250.0</ele><time>2026-04-04T11:11:45.999Z</time></trkpt><trkpt lat="41.062650087436616" lon="14.566427095231544"><ele>250.0</ele><time>2026-04-04T11:11:46.999Z</time></trkpt><trkpt lat="41.062729976443265" lon="14.566216096666881"><ele>250.0</ele><time>2026-04-04T11:11:47.999Z</time></trkpt><trkpt lat="41.06281155552232" lon="14.566000628771818"><ele>250.0</ele><time>2026-04-04T11:11:48.999Z</time></trkpt><trkpt lat="41.06289170468966" lon="14.565787936099618"><ele>250.66666666666666</ele><time>2026-04-04T11:11:49.999Z</time></trkpt><trkpt lat="41.06295912550118" lon="14.565565823799338"><ele>251.33333333333331</ele><time>2026-04-04T11:11:50.999Z</time></trkpt><trkpt lat="41.063042563987224" lon="14.565350945225752"><ele>252.0</ele><time>2026-04-04T11:11:51.999Z</time></trkpt><trkpt lat="41.06313274364416" lon="14.565146569050087"><ele>252.66666666666669</ele><time>2026-04-04T11:11:52.999Z</time></trkpt><trkpt lat="41.06320181175493" lon="14.56494334994423"><ele>253.33333333333334</ele><time>2026-04-04T11:11:53.999Z</time></trkpt><trkpt lat="41.06327267776005" lon="14.564760099812224"><ele>254.0</ele><time>2026-04-04T11:11:54.999Z</time></trkpt><trkpt lat="41.06333929325086" lon="14.564576278697668"><ele>255.0</ele><time>2026-04-04T11:11:55.999Z</time></trkpt><trkpt lat="41.063385167737906" lon="14.564430701187767"><ele>255.99999999999997</ele><time>2026-04-04T11:11:56.999Z</time></trkpt><trkpt lat="41.063428217948584" lon="14.564286129013242"><ele>257.0</ele><time>2026-04-04T11:11:57.999Z</time></trkpt><trkpt lat="41.06347930626793" lon="14.564163697727922"><ele>258.0</ele><time>2026-04-04T11:11:58.999Z</time></trkpt><trkpt lat="41.06353958781593" lon="14.564071794645937"><ele>259.0</ele><time>2026-04-04T11:11:59.999Z</time></trkpt><trkpt lat="41.063595581033304" lon="14.564005895511869"><ele>259.0</ele><time>2026-04-04T11:12:00.999Z</time></trkpt><trkpt lat="41.06364116718729" lon="14.563930513875114"><ele>259.0</ele><time>2026-04-04T11:12:01.999Z</time></trkpt><trkpt lat="41.06362317113809" lon="14.563798257804722"><ele>259.0</ele><time>2026-04-04T11:12:02.999Z</time></trkpt><trkpt lat="41.063557644672194" lon="14.563669055110259"><ele>259.0</ele><time>2026-04-04T11:12:03.998Z</time></trkpt><trkpt lat="41.063526532726506" lon="14.563528111255295"><ele>259.0</ele><time>2026-04-04T11:12:04.998Z</time></trkpt><trkpt lat="41.06350765383031" lon="14.563357992679494"><ele>259.0</ele><time>2026-04-04T11:12:05.998Z</time></trkpt><trkpt lat="41.063496042538084" lon="14.563189619296997"><ele>259.0</ele><time>2026-04-04T11:12:06.998Z</time></trkpt><trkpt lat="41.06348418569389" lon="14.563010963079426"><ele>259.0</ele><time>2026-04-04T11:12:07.998Z</time></trkpt><trkpt lat="41.063479286949175" lon="14.562851452081242"><ele>259.0</ele><time>2026-04-04T11:12:08.998Z</time></trkpt><trkpt lat="41.06347339159678" lon="14.562717091428034"><ele>259.2</ele><time>2026-04-04T11:12:09.998Z</time></trkpt><trkpt lat="41.06345701599143" lon="14.562595217796822"><ele>259.4</ele><time>2026-04-04T11:12:10.998Z</time></trkpt><trkpt lat="41.063424013716606" lon="14.56246241708306"><ele>259.6</ele><time>2026-04-04T11:12:11.998Z</time></trkpt><trkpt lat="41.063392988332346" lon="14.562321936773664"><ele>259.8</ele><time>2026-04-04T11:12:12.998Z</time></trkpt><trkpt lat="41.06336566213351" lon="14.562171748607655"><ele>260.0</ele><time>2026-04-04T11:12:13.998Z</time></trkpt><trkpt lat="41.06333487838591" lon="14.56201931726792"><ele>260.1666666666667</ele><time>2026-04-04T11:12:14.998Z</time></trkpt><trkpt lat="41.063299520417736" lon="14.561881340272532"><ele>260.33333333333337</ele><time>2026-04-04T11:12:15.998Z</time></trkpt><trkpt lat="41.06325439961068" lon="14.561762393644337"><ele>260.5</ele><time>2026-04-04T11:12:16.998Z</time></trkpt><trkpt lat="41.06322120578181" lon="14.561657007364015"><ele>260.6666666666667</ele><time>2026-04-04T11:12:17.998Z</time></trkpt><trkpt lat="41.06319343227473" lon="14.561559395135417"><ele>260.8333333333333</ele><time>2026-04-04T11:12:18.998Z</time></trkpt><trkpt lat="41.06316668034964" lon="14.561468751449786"><ele>261.0</ele><time>2026-04-04T11:12:19.998Z</time></trkpt><trkpt lat="41.06311991289255" lon="14.561339916155385"><ele>261.2</ele><time>2026-04-04T11:12:21.998Z</time></trkpt><trkpt lat="41.0630788867055" lon="14.561206939577822"><ele>261.40000000000003</ele><time>2026-04-04T11:12:23.998Z</time></trkpt><trkpt lat="41.063052284135445" lon="14.561090276818346"><ele>261.6</ele><time>2026-04-04T11:12:25.998Z</time></trkpt><trkpt lat="41.062996760137736" lon="14.560945124463705"><ele>261.8</ele><time>2026-04-04T11:12:27.998Z</time></trkpt><trkpt lat="41.06296341507276" lon="14.560854141534808"><ele>262.0</ele><time>2026-04-04T11:12:28.998Z</time></trkpt><trkpt lat="41.06294675115435" lon="14.560768177317838"><ele>262.0</ele><time>2026-04-04T11:12:29.998Z</time></trkpt><trkpt lat="41.0628779094297" lon="14.560626432127629"><ele>262.0</ele><time>2026-04-04T11:12:31.998Z</time></trkpt><trkpt lat="41.06284869218165" lon="14.560550443459332"><ele>262.0</ele><time>2026-04-04T11:12:32.998Z</time></trkpt><trkpt lat="41.06281198908808" lon="14.560460953382446"><ele>262.0</ele><time>2026-04-04T11:12:33.998Z</time></trkpt><trkpt lat="41.062746844400735" lon="14.560312345514745"><ele>262.0</ele><time>2026-04-04T11:12:35.998Z</time></trkpt><trkpt lat="41.06268766239497" lon="14.560168676639714"><ele>262.2</ele><time>2026-04-04T11:12:37.998Z</time></trkpt><trkpt lat="41.06261360046803" lon="14.560029331177939"><ele>262.4</ele><time>2026-04-04T11:12:39.998Z</time></trkpt><trkpt lat="41.06258963242315" lon="14.55992817819477"><ele>262.6</ele><time>2026-04-04T11:12:40.998Z</time></trkpt><trkpt lat="41.06254397790038" lon="14.55982083771677"><ele>262.8</ele><time>2026-04-04T11:12:41.998Z</time></trkpt><trkpt lat="41.062495468947795" lon="14.559719406842264"><ele>263.0</ele><time>2026-04-04T11:12:42.998Z</time></trkpt><trkpt lat="41.06245429574042" lon="14.559628518949085"><ele>263.0</ele><time>2026-04-04T11:12:43.998Z</time></trkpt><trkpt lat="41.062418548054225" lon="14.559553764859654"><ele>263.0</ele><time>2026-04-04T11:12:44.997Z</time></trkpt><trkpt lat="41.06236268483008" lon="14.559449761683403"><ele>263.0</ele><time>2026-04-04T11:12:46.997Z</time></trkpt><trkpt lat="41.06231939785764" lon="14.559381213508354"><ele>263.0</ele><time>2026-04-04T11:13:03Z</time></trkpt><trkpt lat="41.06228581904051" lon="14.559292126097368"><ele>263.0</ele><time>2026-04-04T11:13:06Z</time></trkpt><trkpt lat="41.06225432214407" lon="14.55919470506882"><ele>263.0</ele><time>2026-04-04T11:13:09Z</time></trkpt><trkpt lat="41.06230707185146" lon="14.559105593960718"><ele>263.0</ele><time>2026-04-04T11:13:11Z</time></trkpt><trkpt lat="41.06239248801731" lon="14.55907337604939"><ele>263.0</ele><time>2026-04-04T11:13:12Z</time></trkpt><trkpt lat="41.06246706588615" lon="14.559027797097144"><ele>263.0</ele><time>2026-04-04T11:13:13Z</time></trkpt><trkpt lat="41.062540167026626" lon="14.55898363363518"><ele>263.0</ele><time>2026-04-04T11:13:14Z</time></trkpt><trkpt lat="41.062616260739894" lon="14.558929514163015"><ele>263.0</ele><time>2026-04-04T11:13:15.999Z</time></trkpt><trkpt lat="41.06269155111936" lon="14.558868841493947"><ele>263.0</ele><time>2026-04-04T11:13:26.999Z</time></trkpt><trkpt lat="41.06278523530001" lon="14.558816253710713"><ele>263.5</ele><time>2026-04-04T11:13:27.999Z</time></trkpt><trkpt lat="41.06287439430338" lon="14.558759330945517"><ele>264.0</ele><time>2026-04-04T11:13:28.999Z</time></trkpt><trkpt lat="41.062972548483025" lon="14.55869452873367"><ele>264.5</ele><time>2026-04-04T11:13:29.999Z</time></trkpt><trkpt lat="41.06308185909725" lon="14.558617470857591"><ele>265.0</ele><time>2026-04-04T11:13:30.999Z</time></trkpt><trkpt lat="41.06320239641462" lon="14.558536374409337"><ele>265.0</ele><time>2026-04-04T11:13:31.999Z</time></trkpt><trkpt lat="41.06332687187422" lon="14.558450916275856"><ele>265.0</ele><time>2026-04-04T11:13:32.999Z</time></trkpt><trkpt lat="41.06345941159877" lon="14.558358175620599"><ele>265.0</ele><time>2026-04-04T11:13:33.999Z</time></trkpt><trkpt lat="41.06358045228472" lon="14.558265494024246"><ele>265.0</ele><time>2026-04-04T11:13:34.999Z</time></trkpt><trkpt lat="41.06370233043025" lon="14.558173689984272"><ele>265.0</ele><time>2026-04-04T11:13:35.999Z</time></trkpt><trkpt lat="41.06383176249391" lon="14.55808045239147"><ele>265.0</ele><time>2026-04-04T11:13:36.999Z</time></trkpt><trkpt lat="41.06397034201942" lon="14.558003514578228"><ele>265.0</ele><time>2026-04-04T11:13:37.999Z</time></trkpt><trkpt lat="41.064099008061774" lon="14.557952349504728"><ele>265.0</ele><time>2026-04-04T11:13:38.999Z</time></trkpt><trkpt lat="41.064222009902394" lon="14.557952839877899"><ele>265.25</ele><time>2026-04-04T11:13:39.999Z</time></trkpt><trkpt lat="41.06434734312937" lon="14.557996552243306"><ele>265.5</ele><time>2026-04-04T11:13:40.999Z</time></trkpt><trkpt lat="41.064506952498064" lon="14.558068254236835"><ele>265.75</ele><time>2026-04-04T11:13:41.999Z</time></trkpt><trkpt lat="41.06463693257954" lon="14.558157726405256"><ele>266.0</ele><time>2026-04-04T11:13:42.999Z</time></trkpt><trkpt lat="41.0647603497493" lon="14.558193007461826"><ele>266.0</ele><time>2026-04-04T11:13:43.999Z</time></trkpt><trkpt lat="41.0648842070527" lon="14.558213013242455"><ele>266.0</ele><time>2026-04-04T11:13:44.999Z</time></trkpt><trkpt lat="41.064999894911935" lon="14.558189219653896"><ele>266.0</ele><time>2026-04-04T11:13:45.999Z</time></trkpt><trkpt lat="41.06510520367742" lon="14.558133041326652"><ele>266.0</ele><time>2026-04-04T11:13:46.999Z</time></trkpt><trkpt lat="41.06519442092321" lon="14.558071760523262"><ele>266.5</ele><time>2026-04-04T11:13:47.999Z</time></trkpt><trkpt lat="41.065267180586424" lon="14.558033897741462"><ele>267.0</ele><time>2026-04-04T11:13:48.999Z</time></trkpt><trkpt lat="41.06537393540282" lon="14.558222636907928"><ele>267.5</ele><time>2026-04-04T11:13:51.999Z</time></trkpt><trkpt lat="41.06545628272523" lon="14.558360942729951"><ele>268.0</ele><time>2026-04-04T11:13:52.999Z</time></trkpt><trkpt lat="41.065520187584276" lon="14.558539587844727"><ele>268.0</ele><time>2026-04-04T11:13:53.999Z</time></trkpt><trkpt lat="41.06560758115191" lon="14.558672720779974"><ele>268.0</ele><time>2026-04-04T11:13:54.999Z</time></trkpt><trkpt lat="41.06567877302296" lon="14.558796353633559"><ele>268.0</ele><time>2026-04-04T11:13:55.999Z</time></trkpt><trkpt lat="41.06576102525861" lon="14.55895752375585"><ele>268.0</ele><time>2026-04-04T11:13:56.999Z</time></trkpt><trkpt lat="41.06584656940203" lon="14.559073544958757"><ele>267.6</ele><time>2026-04-04T11:13:57.999Z</time></trkpt><trkpt lat="41.06590158913704" lon="14.559221677358192"><ele>267.20000000000005</ele><time>2026-04-04T11:13:58.999Z</time></trkpt><trkpt lat="41.065968625007606" lon="14.559339720950819"><ele>266.8</ele><time>2026-04-04T11:13:59.999Z</time></trkpt><trkpt lat="41.066044651711664" lon="14.559464878470042"><ele>266.40000000000003</ele><time>2026-04-04T11:14:00.999Z</time></trkpt><trkpt lat="41.06609503078742" lon="14.559559561813211"><ele>266.0</ele><time>2026-04-04T11:14:01.998Z</time></trkpt><trkpt lat="41.066141200604214" lon="14.559719400330085"><ele>266.0</ele><time>2026-04-04T11:14:02.998Z</time></trkpt><trkpt lat="41.066168167629044" lon="14.55986616308772"><ele>266.0</ele><time>2026-04-04T11:14:03.998Z</time></trkpt><trkpt lat="41.06620149155955" lon="14.560001961925893"><ele>266.0</ele><time>2026-04-04T11:14:04.998Z</time></trkpt><trkpt lat="41.066275460126924" lon="14.560103769052825"><ele>266.0</ele><time>2026-04-04T11:14:05.998Z</time></trkpt><trkpt lat="41.066374231331416" lon="14.560171051618862"><ele>266.0</ele><time>2026-04-04T11:14:06.998Z</time></trkpt><trkpt lat="41.06645679880986" lon="14.560266287283776"><ele>266.25</ele><time>2026-04-04T11:14:07.998Z</time></trkpt><trkpt lat="41.066520840239725" lon="14.560400245765079"><ele>266.5</ele><time>2026-04-04T11:14:08.998Z</time></trkpt><trkpt lat="41.06659208241512" lon="14.56055380225916"><ele>266.75</ele><time>2026-04-04T11:14:09.998Z</time></trkpt><trkpt lat="41.066668567441006" lon="14.56069963510853"><ele>267.0</ele><time>2026-04-04T11:14:10.998Z</time></trkpt><trkpt lat="41.06675138490253" lon="14.560852602441068"><ele>266.0</ele><time>2026-04-04T11:14:11.998Z</time></trkpt><trkpt lat="41.06683426944287" lon="14.561027899749861"><ele>265.0</ele><time>2026-04-04T11:14:12.998Z</time></trkpt><trkpt lat="41.06692220069775" lon="14.56120301422967"><ele>264.0</ele><time>2026-04-04T11:14:13.998Z</time></trkpt><trkpt lat="41.06701771861585" lon="14.56138412312361"><ele>264.0</ele><time>2026-04-04T11:14:14.998Z</time></trkpt><trkpt lat="41.067109749758096" lon="14.561562610937571"><ele>264.0</ele><time>2026-04-04T11:14:15.998Z</time></trkpt><trkpt lat="41.06718993441451" lon="14.56172939718089"><ele>264.0</ele><time>2026-04-04T11:14:16.998Z</time></trkpt><trkpt lat="41.06727964880658" lon="14.561902804876578"><ele>264.3333333333333</ele><time>2026-04-04T11:14:17.998Z</time></trkpt><trkpt lat="41.06736958830557" lon="14.562074002685671"><ele>264.66666666666663</ele><time>2026-04-04T11:14:18.998Z</time></trkpt><trkpt lat="41.06746211752751" lon="14.56224752218719"><ele>265.0</ele><time>2026-04-04T11:14:19.998Z</time></trkpt><trkpt lat="41.067554877257386" lon="14.562433397293956"><ele>263.0</ele><time>2026-04-04T11:14:20.998Z</time></trkpt><trkpt lat="41.06764528684601" lon="14.562629298293965"><ele>261.0</ele><time>2026-04-04T11:14:21.998Z</time></trkpt><trkpt lat="41.06773104941254" lon="14.56282444364414"><ele>259.0</ele><time>2026-04-04T11:14:22.998Z</time></trkpt><trkpt lat="41.06783633843991" lon="14.563019619360649"><ele>258.3333333333333</ele><time>2026-04-04T11:14:23.998Z</time></trkpt><trkpt lat="41.06793502596212" lon="14.563218078435334"><ele>257.6666666666667</ele><time>2026-04-04T11:14:24.998Z</time></trkpt><trkpt lat="41.06801414855748" lon="14.563411297474005"><ele>257.0</ele><time>2026-04-04T11:14:25.998Z</time></trkpt><trkpt lat="41.06812708781622" lon="14.563626900924138"><ele>257.0</ele><time>2026-04-04T11:14:26.998Z</time></trkpt><trkpt lat="41.06823450602593" lon="14.563846219741096"><ele>257.0</ele><time>2026-04-04T11:14:27.998Z</time></trkpt><trkpt lat="41.06833624103843" lon="14.564059933668288"><ele>257.0</ele><time>2026-04-04T11:14:28.998Z</time></trkpt><trkpt lat="41.068437705770414" lon="14.564272927416887"><ele>255.0</ele><time>2026-04-04T11:14:29.998Z</time></trkpt><trkpt lat="41.06853719816681" lon="14.564471727242413"><ele>253.0</ele><time>2026-04-04T11:14:30.998Z</time></trkpt><trkpt lat="41.068628763659255" lon="14.564653186091299"><ele>251.0</ele><time>2026-04-04T11:14:31.998Z</time></trkpt><trkpt lat="41.06871614718282" lon="14.564833184129531"><ele>250.66666666666669</ele><time>2026-04-04T11:14:32.998Z</time></trkpt><trkpt lat="41.06880198282024" lon="14.565004780988602"><ele>250.33333333333331</ele><time>2026-04-04T11:14:33.998Z</time></trkpt><trkpt lat="41.06889106706013" lon="14.565175307882253"><ele>250.0</ele><time>2026-04-04T11:14:34.998Z</time></trkpt><trkpt lat="41.068987004036025" lon="14.565339120821914"><ele>251.33333333333331</ele><time>2026-04-04T11:14:35.998Z</time></trkpt><trkpt lat="41.0690810667785" lon="14.565542737746682"><ele>252.66666666666669</ele><time>2026-04-04T11:14:36.998Z</time></trkpt><trkpt lat="41.069190480256864" lon="14.565733550641186"><ele>254.0</ele><time>2026-04-04T11:14:37.998Z</time></trkpt><trkpt lat="41.0692747051636" lon="14.565925378933903"><ele>252.75</ele><time>2026-04-04T11:14:38.998Z</time></trkpt><trkpt lat="41.06935240791044" lon="14.566093181654292"><ele>251.5</ele><time>2026-04-04T11:14:39.998Z</time></trkpt><trkpt lat="41.069431195729294" lon="14.566249331722874"><ele>250.25</ele><time>2026-04-04T11:14:40.998Z</time></trkpt><trkpt lat="41.069516778362924" lon="14.566410562374159"><ele>249.0</ele><time>2026-04-04T11:14:41.998Z</time></trkpt><trkpt lat="41.06959643454404" lon="14.566566648449802"><ele>249.0</ele><time>2026-04-04T11:14:42.998Z</time></trkpt><trkpt lat="41.06967608747821" lon="14.566723818196728"><ele>249.0</ele><time>2026-04-04T11:14:43.998Z</time></trkpt><trkpt lat="41.069760572055934" lon="14.566879159884936"><ele>249.0</ele><time>2026-04-04T11:14:44.997Z</time></trkpt><trkpt lat="41.06984375042996" lon="14.56703722660727"><ele>249.0</ele><time>2026-04-04T11:14:45.997Z</time></trkpt><trkpt lat="41.06993042341427" lon="14.567205946946274"><ele>247.66666666666669</ele><time>2026-04-04T11:14:46.997Z</time></trkpt><trkpt lat="41.07001775006538" lon="14.567390082386533"><ele>246.33333333333334</ele><time>2026-04-04T11:14:47.997Z</time></trkpt><trkpt lat="41.0701026813128" lon="14.567576439695841"><ele>245.0</ele><time>2026-04-04T11:14:48.997Z</time></trkpt><trkpt lat="41.07018770091029" lon="14.567765315435851"><ele>246.0</ele><time>2026-04-04T11:14:49.997Z</time></trkpt><trkpt lat="41.07028807519005" lon="14.567945981482753"><ele>247.0</ele><time>2026-04-04T11:14:50.997Z</time></trkpt><trkpt lat="41.07040752522875" lon="14.568175056109364"><ele>248.0</ele><time>2026-04-04T11:14:51.997Z</time></trkpt><trkpt lat="41.070515465068986" lon="14.56844060243742"><ele>248.0</ele><time>2026-04-04T11:14:52.997Z</time></trkpt><trkpt lat="41.070595238653226" lon="14.5686708012747"><ele>248.0</ele><time>2026-04-04T11:14:53.997Z</time></trkpt><trkpt lat="41.070660689563695" lon="14.568849122583638"><ele>248.0</ele><time>2026-04-04T11:14:54.997Z</time></trkpt><trkpt lat="41.0707115795102" lon="14.568980534915413"><ele>249.2</ele><time>2026-04-04T11:14:55.997Z</time></trkpt><trkpt lat="41.07076676495217" lon="14.569061123530892"><ele>250.4</ele><time>2026-04-04T11:14:56.997Z</time></trkpt><trkpt lat="41.07084651052402" lon="14.569093971258205"><ele>251.59999999999997</ele><time>2026-04-04T11:14:57.997Z</time></trkpt><trkpt lat="41.07095870268149" lon="14.569073996251506"><ele>252.79999999999998</ele><time>2026-04-04T11:14:58.997Z</time></trkpt><trkpt lat="41.07108894296152" lon="14.569022013541339"><ele>254.0</ele><time>2026-04-04T11:14:59.997Z</time></trkpt><trkpt lat="41.07122358555546" lon="14.568999001176776"><ele>250.33333333333334</ele><time>2026-04-04T11:15:00.997Z</time></trkpt><trkpt lat="41.071361043032375" lon="14.569051911120953"><ele>246.66666666666669</ele><time>2026-04-04T11:15:01.999Z</time></trkpt><trkpt lat="41.07146710400049" lon="14.56921180921416"><ele>243.0</ele><time>2026-04-04T11:15:02.999Z</time></trkpt><trkpt lat="41.0716148014261" lon="14.569377612057473"><ele>243.0</ele><time>2026-04-04T11:15:03.999Z</time></trkpt><trkpt lat="41.071756517620365" lon="14.569572963594622"><ele>243.0</ele><time>2026-04-04T11:15:04.999Z</time></trkpt><trkpt lat="41.07191063694808" lon="14.569767624309632"><ele>243.0</ele><time>2026-04-04T11:15:05.999Z</time></trkpt><trkpt lat="41.072059315735906" lon="14.569946067006837"><ele>243.0</ele><time>2026-04-04T11:15:06.999Z</time></trkpt><trkpt lat="41.072190815629966" lon="14.570102731517624"><ele>243.0</ele><time>2026-04-04T11:15:07.999Z</time></trkpt><trkpt lat="41.07233697237604" lon="14.570224030612131"><ele>243.0</ele><time>2026-04-04T11:15:08.999Z</time></trkpt><trkpt lat="41.07250592255539" lon="14.570281701384085"><ele>243.66666666666669</ele><time>2026-04-04T11:15:09.999Z</time></trkpt><trkpt lat="41.07268934209764" lon="14.570276514867363"><ele>244.33333333333334</ele><time>2026-04-04T11:15:10.999Z</time></trkpt><trkpt lat="41.07287739191441" lon="14.570240156858066"><ele>245.0</ele><time>2026-04-04T11:15:11.999Z</time></trkpt><trkpt lat="41.0730654108343" lon="14.570229176493712"><ele>245.0</ele><time>2026-04-04T11:15:12.999Z</time></trkpt><trkpt lat="41.07325082966821" lon="14.570268546005137"><ele>245.0</ele><time>2026-04-04T11:15:13.999Z</time></trkpt><trkpt lat="41.073426807732965" lon="14.57034413336661"><ele>245.0</ele><time>2026-04-04T11:15:14.999Z</time></trkpt><trkpt lat="41.07356776461964" lon="14.5704460637077"><ele>245.33333333333334</ele><time>2026-04-04T11:15:15.999Z</time></trkpt><trkpt lat="41.07368324254245" lon="14.57054376588245"><ele>245.66666666666669</ele><time>2026-04-04T11:15:16.999Z</time></trkpt><trkpt lat="41.07379280250163" lon="14.570635152767975"><ele>246.0</ele><time>2026-04-04T11:15:17.999Z</time></trkpt><trkpt lat="41.073988677454565" lon="14.570786035984975"><ele>246.0</ele><time>2026-04-04T11:15:19.999Z</time></trkpt><trkpt lat="41.07409208565923" lon="14.570864007619395"><ele>246.0</ele><time>2026-04-04T11:15:20.999Z</time></trkpt><trkpt lat="41.07418250414067" lon="14.570952763280395"><ele>246.0</ele><time>2026-04-04T11:15:21.999Z</time></trkpt><trkpt lat="41.07426353341564" lon="14.5710601813351"><ele>246.0</ele><time>2026-04-04T11:15:22.999Z</time></trkpt><trkpt lat="41.074333143562185" lon="14.571187180334803"><ele>247.0</ele><time>2026-04-04T11:15:23.999Z</time></trkpt><trkpt lat="41.07439616096286" lon="14.571320782827236"><ele>248.0</ele><time>2026-04-04T11:15:24.999Z</time></trkpt><trkpt lat="41.07445792841583" lon="14.571452186947175"><ele>249.0</ele><time>2026-04-04T11:15:25.999Z</time></trkpt><trkpt lat="41.074516213326596" lon="14.57159332878616"><ele>250.0</ele><time>2026-04-04T11:15:26.999Z</time></trkpt><trkpt lat="41.0745684375532" lon="14.571730501331963"><ele>250.0</ele><time>2026-04-04T11:15:27.999Z</time></trkpt><trkpt lat="41.074607079630965" lon="14.571877525718948"><ele>250.0</ele><time>2026-04-04T11:15:28.999Z</time></trkpt><trkpt lat="41.07463249442369" lon="14.572035445551704"><ele>250.0</ele><time>2026-04-04T11:15:29.999Z</time></trkpt><trkpt lat="41.074644821382165" lon="14.572199132968654"><ele>250.0</ele><time>2026-04-04T11:15:30.999Z</time></trkpt><trkpt lat="41.074643974260816" lon="14.57235468149523"><ele>250.4</ele><time>2026-04-04T11:15:31.999Z</time></trkpt><trkpt lat="41.07464327673663" lon="14.572498977888943"><ele>250.8</ele><time>2026-04-04T11:15:32.999Z</time></trkpt><trkpt lat="41.07464056733537" lon="14.572636377753565"><ele>251.2</ele><time>2026-04-04T11:15:33.999Z</time></trkpt><trkpt lat="41.0746483659777" lon="14.572770282996041"><ele>251.6</ele><time>2026-04-04T11:15:34.999Z</time></trkpt><trkpt lat="41.07468822239672" lon="14.572892092161833"><ele>252.0</ele><time>2026-04-04T11:15:35.999Z</time></trkpt><trkpt lat="41.074756645156896" lon="14.5729879646789"><ele>252.39999999999998</ele><time>2026-04-04T11:15:36.999Z</time></trkpt><trkpt lat="41.07484232506651" lon="14.573053890109055"><ele>252.79999999999998</ele><time>2026-04-04T11:15:37.999Z</time></trkpt><trkpt lat="41.07492724700406" lon="14.573114618355355"><ele>253.2</ele><time>2026-04-04T11:15:38.999Z</time></trkpt><trkpt lat="41.07499476875911" lon="14.573169419151322"><ele>253.6</ele><time>2026-04-04T11:15:39.999Z</time></trkpt><trkpt lat="41.075066724506854" lon="14.573238959336487"><ele>254.0</ele><time>2026-04-04T11:15:40.999Z</time></trkpt><trkpt lat="41.0751275231227" lon="14.57332550858203"><ele>254.83333333333334</ele><time>2026-04-04T11:15:41.999Z</time></trkpt><trkpt lat="41.07517092116273" lon="14.573402569194236"><ele>255.66666666666669</ele><time>2026-04-04T11:15:42.999Z</time></trkpt><trkpt lat="41.075188296313875" lon="14.57350404806696"><ele>256.5</ele><time>2026-04-04T11:15:43.999Z</time></trkpt><trkpt lat="41.07521193410152" lon="14.573607728009534"><ele>257.3333333333333</ele><time>2026-04-04T11:15:44.999Z</time></trkpt><trkpt lat="41.07524003068657" lon="14.573703481052224"><ele>258.16666666666663</ele><time>2026-04-04T11:15:45.999Z</time></trkpt><trkpt lat="41.075256802289836" lon="14.573793524364401"><ele>259.0</ele><time>2026-04-04T11:15:46.999Z</time></trkpt><trkpt lat="41.075292150272006" lon="14.573912924464898"><ele>259.75</ele><time>2026-04-04T11:15:48.999Z</time></trkpt><trkpt lat="41.07530751332618" lon="14.574028040251438"><ele>260.5</ele><time>2026-04-04T11:15:50.999Z</time></trkpt><trkpt lat="41.07537613097991" lon="14.574128432639649"><ele>261.25</ele><time>2026-04-04T11:15:52.999Z</time></trkpt><trkpt lat="41.075304823119225" lon="14.574391957508158"><ele>262.0</ele><time>2026-04-04T11:15:54.999Z</time></trkpt><trkpt lat="41.07523634670115" lon="14.574495719900856"><ele>262.5</ele><time>2026-04-04T11:15:55.999Z</time></trkpt><trkpt lat="41.075164264839266" lon="14.574653654086928"><ele>263.0</ele><time>2026-04-04T11:15:56.999Z</time></trkpt><trkpt lat="41.07508393936839" lon="14.57479430684835"><ele>263.5</ele><time>2026-04-04T11:15:57.999Z</time></trkpt><trkpt lat="41.07499437134103" lon="14.574942317299536"><ele>264.0</ele><time>2026-04-04T11:15:58.999Z</time></trkpt><trkpt lat="41.07491127797096" lon="14.575094276313465"><ele>264.0</ele><time>2026-04-04T11:15:59.999Z</time></trkpt><trkpt lat="41.07483973814403" lon="14.575253552505183"><ele>264.0</ele><time>2026-04-04T11:16:00.999Z</time></trkpt><trkpt lat="41.074769051841" lon="14.575420007737037"><ele>264.0</ele><time>2026-04-04T11:16:01.999Z</time></trkpt><trkpt lat="41.074700288076485" lon="14.575599072408666"><ele>264.0</ele><time>2026-04-04T11:16:02.999Z</time></trkpt><trkpt lat="41.0746265973905" lon="14.575795453651676"><ele>264.0</ele><time>2026-04-04T11:16:03.999Z</time></trkpt><trkpt lat="41.07453921389607" lon="14.57600589466935"><ele>264.0</ele><time>2026-04-04T11:16:04.998Z</time></trkpt><trkpt lat="41.07442995068719" lon="14.576226634346957"><ele>264.0</ele><time>2026-04-04T11:16:05.998Z</time></trkpt><trkpt lat="41.07431193699905" lon="14.576453625860127"><ele>264.3333333333333</ele><time>2026-04-04T11:16:06.998Z</time></trkpt><trkpt lat="41.07421116588745" lon="14.576646569763962"><ele>264.66666666666663</ele><time>2026-04-04T11:16:07.998Z</time></trkpt><trkpt lat="41.07411737456871" lon="14.576822815382183"><ele>265.0</ele><time>2026-04-04T11:16:08.998Z</time></trkpt><trkpt lat="41.07403155508631" lon="14.576988505030464"><ele>264.5</ele><time>2026-04-04T11:16:09.998Z</time></trkpt><trkpt lat="41.07395016946187" lon="14.577139794225308"><ele>264.0</ele><time>2026-04-04T11:16:10.998Z</time></trkpt><trkpt lat="41.0738633299639" lon="14.577298634357598"><ele>263.5</ele><time>2026-04-04T11:16:11.998Z</time></trkpt><trkpt lat="41.07378220082985" lon="14.577457379345608"><ele>263.0</ele><time>2026-04-04T11:16:12.998Z</time></trkpt><trkpt lat="41.07370429996253" lon="14.577607998935688"><ele>263.0</ele><time>2026-04-04T11:16:13.998Z</time></trkpt><trkpt lat="41.07362048102885" lon="14.577759898771259"><ele>263.0</ele><time>2026-04-04T11:16:14.998Z</time></trkpt><trkpt lat="41.073535453269834" lon="14.577922568681386"><ele>263.0</ele><time>2026-04-04T11:16:15.998Z</time></trkpt><trkpt lat="41.073464358109334" lon="14.578097844837346"><ele>263.0</ele><time>2026-04-04T11:16:16.998Z</time></trkpt><trkpt lat="41.07340980361947" lon="14.578289416507873"><ele>263.6666666666667</ele><time>2026-04-04T11:16:17.998Z</time></trkpt><trkpt lat="41.07337524066464" lon="14.578514137893961"><ele>264.3333333333333</ele><time>2026-04-04T11:16:18.998Z</time></trkpt><trkpt lat="41.07333842935018" lon="14.578773879387434"><ele>265.0</ele><time>2026-04-04T11:16:19.998Z</time></trkpt><trkpt lat="41.0732814995834" lon="14.579055038541819"><ele>263.5</ele><time>2026-04-04T11:16:20.998Z</time></trkpt><trkpt lat="41.0732096170737" lon="14.579342160211736"><ele>262.0</ele><time>2026-04-04T11:16:21.998Z</time></trkpt><trkpt lat="41.073143735545784" lon="14.579624154708883"><ele>262.0</ele><time>2026-04-04T11:16:22.998Z</time></trkpt><trkpt lat="41.07308499523033" lon="14.579925595680141"><ele>262.0</ele><time>2026-04-04T11:16:23.998Z</time></trkpt><trkpt lat="41.07303437073056" lon="14.580239260219304"><ele>262.5</ele><time>2026-04-04T11:16:24.998Z</time></trkpt><trkpt lat="41.07298724374173" lon="14.580557028983439"><ele>263.0</ele><time>2026-04-04T11:16:25.998Z</time></trkpt><trkpt lat="41.07292775974362" lon="14.580869228092656"><ele>263.0</ele><time>2026-04-04T11:16:26.998Z</time></trkpt><trkpt lat="41.0728404675081" lon="14.58117862295976"><ele>263.0</ele><time>2026-04-04T11:16:27.998Z</time></trkpt><trkpt lat="41.0727312344025" lon="14.581456164468683"><ele>263.0</ele><time>2026-04-04T11:16:28.998Z</time></trkpt><trkpt lat="41.072624590243024" lon="14.581702744309881"><ele>263.0</ele><time>2026-04-04T11:16:29.998Z</time></trkpt><trkpt lat="41.0725388743627" lon="14.58195348081618"><ele>263.0</ele><time>2026-04-04T11:16:30.998Z</time></trkpt><trkpt lat="41.07247777438099" lon="14.58222604210801"><ele>259.5</ele><time>2026-04-04T11:16:31.998Z</time></trkpt><trkpt lat="41.07242380965966" lon="14.582518642178119"><ele>256.0</ele><time>2026-04-04T11:16:32.998Z</time></trkpt><trkpt lat="41.07239391193033" lon="14.582820395225275"><ele>256.0</ele><time>2026-04-04T11:16:33.998Z</time></trkpt><trkpt lat="41.07239203477904" lon="14.58312238445566"><ele>256.0</ele><time>2026-04-04T11:16:34.998Z</time></trkpt><trkpt lat="41.07242810599057" lon="14.58339992989429"><ele>256.0</ele><time>2026-04-04T11:16:35.998Z</time></trkpt><trkpt lat="41.07245124029501" lon="14.583657007399523"><ele>258.3333333333333</ele><time>2026-04-04T11:16:36.998Z</time></trkpt><trkpt lat="41.07247319113621" lon="14.583910952262949"><ele>260.6666666666667</ele><time>2026-04-04T11:16:37.998Z</time></trkpt><trkpt lat="41.072510873901365" lon="14.584149990253765"><ele>263.0</ele><time>2026-04-04T11:16:38.998Z</time></trkpt><trkpt lat="41.072570752120704" lon="14.584404455095417"><ele>261.5</ele><time>2026-04-04T11:16:39.998Z</time></trkpt><trkpt lat="41.0726211414962" lon="14.584712640804838"><ele>260.0</ele><time>2026-04-04T11:16:40.998Z</time></trkpt><trkpt lat="41.072691056971664" lon="14.585046253558815"><ele>258.5</ele><time>2026-04-04T11:16:41.998Z</time></trkpt><trkpt lat="41.072759806596146" lon="14.58538481586883"><ele>257.0</ele><time>2026-04-04T11:16:42.998Z</time></trkpt><trkpt lat="41.07281760662333" lon="14.585714161750944"><ele>257.0</ele><time>2026-04-04T11:16:43.998Z</time></trkpt><trkpt lat="41.072884669341214" lon="14.586016555624026"><ele>257.0</ele><time>2026-04-04T11:16:44.998Z</time></trkpt><trkpt lat="41.07295988127111" lon="14.58630645348989"><ele>256.5</ele><time>2026-04-04T11:16:45.998Z</time></trkpt><trkpt lat="41.07304600643597" lon="14.586588859011256"><ele>256.0</ele><time>2026-04-04T11:16:46.998Z</time></trkpt><trkpt lat="41.073156214870224" lon="14.58686240575291"><ele>255.0</ele><time>2026-04-04T11:16:47.998Z</time></trkpt><trkpt lat="41.07326488304357" lon="14.58714314457895"><ele>254.0</ele><time>2026-04-04T11:16:48.998Z</time></trkpt><trkpt lat="41.0733539683381" lon="14.587434875095735"><ele>256.0</ele><time>2026-04-04T11:16:49.998Z</time></trkpt><trkpt lat="41.073393732375685" lon="14.587722652275186"><ele>258.0</ele><time>2026-04-04T11:16:50.998Z</time></trkpt><trkpt lat="41.07341025528233" lon="14.588017895193905"><ele>260.0</ele><time>2026-04-04T11:16:51.998Z</time></trkpt><trkpt lat="41.07340309834912" lon="14.588306282867146"><ele>260.0</ele><time>2026-04-04T11:16:52.997Z</time></trkpt><trkpt lat="41.073373292628034" lon="14.588584096504398"><ele>260.0</ele><time>2026-04-04T11:16:53.997Z</time></trkpt><trkpt lat="41.07331706206014" lon="14.588848418001557"><ele>260.0</ele><time>2026-04-04T11:16:54.997Z</time></trkpt><trkpt lat="41.073240094510744" lon="14.589118489934542"><ele>259.0</ele><time>2026-04-04T11:16:55.997Z</time></trkpt><trkpt lat="41.073152019123" lon="14.58937670717206"><ele>258.0</ele><time>2026-04-04T11:16:56.997Z</time></trkpt><trkpt lat="41.07306087586087" lon="14.589649231818246"><ele>257.0</ele><time>2026-04-04T11:16:57.997Z</time></trkpt><trkpt lat="41.07297300400321" lon="14.589915112069376"><ele>257.0</ele><time>2026-04-04T11:16:58.997Z</time></trkpt><trkpt lat="41.07286325770731" lon="14.590180581732273"><ele>257.0</ele><time>2026-04-04T11:16:59.997Z</time></trkpt><trkpt lat="41.07276154629922" lon="14.590428988484662"><ele>257.0</ele><time>2026-04-04T11:17:00.997Z</time></trkpt><trkpt lat="41.072667528028404" lon="14.590645956086373"><ele>256.5</ele><time>2026-04-04T11:17:01.997Z</time></trkpt><trkpt lat="41.07258069177803" lon="14.590827486409774"><ele>256.0</ele><time>2026-04-04T11:17:02.997Z</time></trkpt><trkpt lat="41.072525281856656" lon="14.590960886248084"><ele>255.5</ele><time>2026-04-04T11:17:03.997Z</time></trkpt><trkpt lat="41.0724531339191" lon="14.59112074190855"><ele>255.0</ele><time>2026-04-04T11:17:04.997Z</time></trkpt><trkpt lat="41.072397270609585" lon="14.59125558660552"><ele>255.0</ele><time>2026-04-04T11:17:05.997Z</time></trkpt><trkpt lat="41.07235016737534" lon="14.59136012290526"><ele>255.0</ele><time>2026-04-04T11:17:06.997Z</time></trkpt><trkpt lat="41.07231056657688" lon="14.591449603507785"><ele>255.0</ele><time>2026-04-04T11:17:08.999Z</time></trkpt><trkpt lat="41.072440159202344" lon="14.591592252920043"><ele>255.0</ele><time>2026-04-04T11:17:10.999Z</time></trkpt><trkpt lat="41.072494383945134" lon="14.591655205704688"><ele>255.0</ele><time>2026-04-04T11:17:11.999Z</time></trkpt><trkpt lat="41.07255783189483" lon="14.59174094783179"><ele>256.4</ele><time>2026-04-04T11:17:12.999Z</time></trkpt><trkpt lat="41.07262713193982" lon="14.591830376499518"><ele>257.8</ele><time>2026-04-04T11:17:13.999Z</time></trkpt><trkpt lat="41.07262013036137" lon="14.59195024419178"><ele>259.2</ele><time>2026-04-04T11:17:14.999Z</time></trkpt><trkpt lat="41.072623519031595" lon="14.592119692774915"><ele>260.6</ele><time>2026-04-04T11:17:15.999Z</time></trkpt><trkpt lat="41.07264722805991" lon="14.592270211012442"><ele>262.0</ele><time>2026-04-04T11:17:16.999Z</time></trkpt><trkpt lat="41.07265135887104" lon="14.592433581725167"><ele>263.25</ele><time>2026-04-04T11:17:17.999Z</time></trkpt><trkpt lat="41.072620963594375" lon="14.592587051647538"><ele>264.5</ele><time>2026-04-04T11:17:18.999Z</time></trkpt><trkpt lat="41.07259441414983" lon="14.592812374287387"><ele>265.75</ele><time>2026-04-04T11:17:19.999Z</time></trkpt><trkpt lat="41.0725844711115" lon="14.593021094026831"><ele>267.0</ele><time>2026-04-04T11:17:20.999Z</time></trkpt><trkpt lat="41.072549357012896" lon="14.593213424177538"><ele>267.5</ele><time>2026-04-04T11:17:21.999Z</time></trkpt><trkpt lat="41.072514262612636" lon="14.593397651257188"><ele>268.0</ele><time>2026-04-04T11:17:22.999Z</time></trkpt><trkpt lat="41.07248260852153" lon="14.5935711978241"><ele>268.5</ele><time>2026-04-04T11:17:23.999Z</time></trkpt><trkpt lat="41.072454635327084" lon="14.593739122367868"><ele>269.0</ele><time>2026-04-04T11:17:24.999Z</time></trkpt><trkpt lat="41.072432897575816" lon="14.593910708247575"><ele>269.0</ele><time>2026-04-04T11:17:25.999Z</time></trkpt><trkpt lat="41.072425031818156" lon="14.594058039229962"><ele>269.0</ele><time>2026-04-04T11:17:26.999Z</time></trkpt><trkpt lat="41.07242562376987" lon="14.594164242980565"><ele>269.0</ele><time>2026-04-04T11:17:27.999Z</time></trkpt><trkpt lat="41.072422085181394" lon="14.594253235683423"><ele>269.0</ele><time>2026-04-04T11:17:30.999Z</time></trkpt><trkpt lat="41.0724406628163" lon="14.59434332954412"><ele>269.0</ele><time>2026-04-04T11:17:34.999Z</time></trkpt><trkpt lat="41.07271846729041" lon="14.594394610007626"><ele>270.59999999999997</ele><time>2026-04-04T11:17:37.999Z</time></trkpt><trkpt lat="41.072832983749386" lon="14.594389359119248"><ele>272.2</ele><time>2026-04-04T11:17:40.999Z</time></trkpt><trkpt lat="41.07292748079134" lon="14.594394833814464"><ele>273.79999999999995</ele><time>2026-04-04T11:17:41.999Z</time></trkpt><trkpt lat="41.07302784407021" lon="14.594396614675787"><ele>275.4</ele><time>2026-04-04T11:17:42.999Z</time></trkpt><trkpt lat="41.07312758468967" lon="14.594411040073288"><ele>277.0</ele><time>2026-04-04T11:17:43.999Z</time></trkpt><trkpt lat="41.073215271862885" lon="14.59444523892952"><ele>278.66666666666663</ele><time>2026-04-04T11:17:44.999Z</time></trkpt><trkpt lat="41.07328977345581" lon="14.594486493776214"><ele>280.3333333333333</ele><time>2026-04-04T11:17:45.999Z</time></trkpt><trkpt lat="41.073367269464335" lon="14.594540806543483"><ele>282.0</ele><time>2026-04-04T11:17:46.999Z</time></trkpt><trkpt lat="41.073430533613625" lon="14.594589713165298"><ele>283.6666666666667</ele><time>2026-04-04T11:17:47.999Z</time></trkpt><trkpt lat="41.0734852633296" lon="14.59464130931978"><ele>285.33333333333337</ele><time>2026-04-04T11:17:48.999Z</time></trkpt><trkpt lat="41.073592892182965" lon="14.594673111373885"><ele>287.0</ele><time>2026-04-04T11:17:50.999Z</time></trkpt><trkpt lat="41.07360542278097" lon="14.594757708451658"><ele>287.6</ele><time>2026-04-04T11:17:53.999Z</time></trkpt><trkpt lat="41.07354547738264" lon="14.594713597344194"><ele>288.2</ele><time>2026-04-04T11:17:55.999Z</time></trkpt><trkpt lat="41.07350939621656" lon="14.594630339031438"><ele>288.8</ele><time>2026-04-04T11:17:58.999Z</time></trkpt><trkpt lat="41.07341682640445" lon="14.59459865319902"><ele>289.4</ele><time>2026-04-04T11:18:00.999Z</time></trkpt><trkpt lat="41.07332460290105" lon="14.59451734119069"><ele>290.0</ele><time>2026-04-04T11:18:02.999Z</time></trkpt><trkpt lat="41.073211317870026" lon="14.594449742835062"><ele>288.14285714285717</ele><time>2026-04-04T11:18:04.999Z</time></trkpt><trkpt lat="41.07313718533237" lon="14.59442243900583"><ele>286.28571428571433</ele><time>2026-04-04T11:18:05.999Z</time></trkpt><trkpt lat="41.07307015843576" lon="14.594397058436668"><ele>284.42857142857144</ele><time>2026-04-04T11:18:06.999Z</time></trkpt><trkpt lat="41.0730011895591" lon="14.594382836930235"><ele>282.57142857142856</ele><time>2026-04-04T11:18:07.999Z</time></trkpt><trkpt lat="41.07292100448616" lon="14.594379038929857"><ele>280.71428571428567</ele><time>2026-04-04T11:18:08.999Z</time></trkpt><trkpt lat="41.07284954522645" lon="14.594381132142091"><ele>278.85714285714283</ele><time>2026-04-04T11:18:09.999Z</time></trkpt><trkpt lat="41.07278199571548" lon="14.594378986116677"><ele>277.0</ele><time>2026-04-04T11:18:10.999Z</time></trkpt><trkpt lat="41.07268183339135" lon="14.594366676522109"><ele>277.0</ele><time>2026-04-04T11:18:12.999Z</time></trkpt><trkpt lat="41.07259650469014" lon="14.59431097401276"><ele>277.0</ele><time>2026-04-04T11:18:14.999Z</time></trkpt><trkpt lat="41.072538398648916" lon="14.594263746005355"><ele>277.0</ele><time>2026-04-04T11:18:15.999Z</time></trkpt><trkpt lat="41.072487694096814" lon="14.594322542323432"><ele>277.0</ele><time>2026-04-04T11:18:21.999Z</time></trkpt><trkpt lat="41.07252337729686" lon="14.594394324697113"><ele>277.0</ele><time>2026-04-04T11:18:22.998Z</time></trkpt><trkpt lat="41.07257745699931" lon="14.594471187093566"><ele>277.0</ele><time>2026-04-04T11:18:23.998Z</time></trkpt><trkpt lat="41.072620122524306" lon="14.594558926609865"><ele>277.8333333333333</ele><time>2026-04-04T11:18:24.998Z</time></trkpt><trkpt lat="41.072664681841054" lon="14.594672922686858"><ele>278.66666666666663</ele><time>2026-04-04T11:18:25.998Z</time></trkpt><trkpt lat="41.07271304214757" lon="14.594772463173394"><ele>279.5</ele><time>2026-04-04T11:18:26.998Z</time></trkpt><trkpt lat="41.072769996513614" lon="14.594849922189828"><ele>280.3333333333333</ele><time>2026-04-04T11:18:27.998Z</time></trkpt><trkpt lat="41.07282526406831" lon="14.594918395262967"><ele>281.1666666666667</ele><time>2026-04-04T11:18:28.998Z</time></trkpt><trkpt lat="41.07289512891151" lon="14.594995364916533"><ele>282.0</ele><time>2026-04-04T11:18:29.998Z</time></trkpt><trkpt lat="41.07295994003885" lon="14.595069653805762"><ele>282.0</ele><time>2026-04-04T11:18:30.998Z</time></trkpt><trkpt lat="41.073029180477846" lon="14.595138261365786"><ele>282.0</ele><time>2026-04-04T11:18:31.998Z</time></trkpt><trkpt lat="41.07309903940346" lon="14.595203420714158"><ele>282.0</ele><time>2026-04-04T11:18:32.998Z</time></trkpt><trkpt lat="41.07316409674453" lon="14.595260082825886"><ele>282.0</ele><time>2026-04-04T11:18:33.998Z</time></trkpt><trkpt lat="41.07324756026245" lon="14.59532739766379"><ele>282.0</ele><time>2026-04-04T11:18:34.998Z</time></trkpt><trkpt lat="41.07331852317697" lon="14.595378430714302"><ele>282.0</ele><time>2026-04-04T11:18:35.998Z</time></trkpt><trkpt lat="41.07338735616613" lon="14.595434970789446"><ele>284.0</ele><time>2026-04-04T11:18:36.998Z</time></trkpt><trkpt lat="41.0734424741348" lon="14.595500511145394"><ele>286.0</ele><time>2026-04-04T11:18:37.998Z</time></trkpt><trkpt lat="41.07349843583939" lon="14.59558708063822"><ele>288.0</ele><time>2026-04-04T11:18:38.998Z</time></trkpt><trkpt lat="41.073537192680604" lon="14.595668856983595"><ele>290.0</ele><time>2026-04-04T11:18:39.998Z</time></trkpt><trkpt lat="41.0736050181883" lon="14.595758814242144"><ele>292.0</ele><time>2026-04-04T11:18:40.998Z</time></trkpt><trkpt lat="41.073658453713826" lon="14.595853613687689"><ele>294.0</ele><time>2026-04-04T11:18:41.998Z</time></trkpt><trkpt lat="41.073695067888075" lon="14.595926904090629"><ele>294.0</ele><time>2026-04-04T11:18:42.998Z</time></trkpt><trkpt lat="41.07373892336079" lon="14.596011086374643"><ele>294.0</ele><time>2026-04-04T11:18:43.998Z</time></trkpt><trkpt lat="41.07378989681237" lon="14.596093073242173"><ele>294.0</ele><time>2026-04-04T11:18:44.998Z</time></trkpt><trkpt lat="41.07383402327818" lon="14.596160588522814"><ele>294.0</ele><time>2026-04-04T11:18:45.998Z</time></trkpt><trkpt lat="41.07389149314307" lon="14.596206595250248"><ele>294.0</ele><time>2026-04-04T11:18:46.998Z</time></trkpt><trkpt lat="41.073961952459925" lon="14.596253122981981"><ele>294.0</ele><time>2026-04-04T11:18:47.998Z</time></trkpt><trkpt lat="41.0740420482149" lon="14.596307181914558"><ele>296.3333333333333</ele><time>2026-04-04T11:18:48.998Z</time></trkpt><trkpt lat="41.0741193237009" lon="14.596359937882426"><ele>298.6666666666667</ele><time>2026-04-04T11:18:49.998Z</time></trkpt><trkpt lat="41.074188302429995" lon="14.596395288237167"><ele>301.0</ele><time>2026-04-04T11:18:50.998Z</time></trkpt><trkpt lat="41.07425942918449" lon="14.596424532583573"><ele>303.33333333333337</ele><time>2026-04-04T11:18:51.998Z</time></trkpt><trkpt lat="41.07433345030636" lon="14.596443554679832"><ele>305.6666666666667</ele><time>2026-04-04T11:18:52.998Z</time></trkpt><trkpt lat="41.07439790052448" lon="14.59644438865129"><ele>308.0</ele><time>2026-04-04T11:18:53.998Z</time></trkpt><trkpt lat="41.07448027054742" lon="14.596425190894907"><ele>308.0</ele><time>2026-04-04T11:18:54.998Z</time></trkpt><trkpt lat="41.074575720609616" lon="14.596411088958476"><ele>308.0</ele><time>2026-04-04T11:18:55.998Z</time></trkpt><trkpt lat="41.07465196343437" lon="14.59642178536128"><ele>308.0</ele><time>2026-04-04T11:18:56.998Z</time></trkpt><trkpt lat="41.07477867269792" lon="14.596473067555337"><ele>308.0</ele><time>2026-04-04T11:18:58.998Z</time></trkpt><trkpt lat="41.074843735035955" lon="14.5965151083693"><ele>308.0</ele><time>2026-04-04T11:18:59.998Z</time></trkpt><trkpt lat="41.07491772929221" lon="14.596560233930106"><ele>310.5</ele><time>2026-04-04T11:19:00.998Z</time></trkpt><trkpt lat="41.07498983031771" lon="14.596592818203623"><ele>313.0</ele><time>2026-04-04T11:19:01.998Z</time></trkpt><trkpt lat="41.075067687535224" lon="14.596602241505497"><ele>315.5</ele><time>2026-04-04T11:19:02.998Z</time></trkpt><trkpt lat="41.07513823132801" lon="14.59659112961241"><ele>318.0</ele><time>2026-04-04T11:19:03.998Z</time></trkpt><trkpt lat="41.075269376221414" lon="14.596527368988234"><ele>320.5</ele><time>2026-04-04T11:19:05.998Z</time></trkpt><trkpt lat="41.075338851639025" lon="14.596536806527508"><ele>323.0</ele><time>2026-04-04T11:19:07.998Z</time></trkpt><trkpt lat="41.07541030794002" lon="14.596658283869154"><ele>323.0</ele><time>2026-04-04T11:19:09.998Z</time></trkpt><trkpt lat="41.07542177948819" lon="14.596762582056003"><ele>323.0</ele><time>2026-04-04T11:19:12.998Z</time></trkpt><trkpt lat="41.07536927573717" lon="14.596873225374223"><ele>323.0</ele><time>2026-04-04T11:19:14.999Z</time></trkpt><trkpt lat="41.075326319242805" lon="14.596945259717984"><ele>323.0</ele><time>2026-04-04T11:19:15.999Z</time></trkpt><trkpt lat="41.07528775393756" lon="14.597046680554126"><ele>323.0</ele><time>2026-04-04T11:19:16.999Z</time></trkpt><trkpt lat="41.07523567996952" lon="14.597182991953446"><ele>323.0</ele><time>2026-04-04T11:19:17.999Z</time></trkpt><trkpt lat="41.07519417387406" lon="14.597290701161324"><ele>323.6666666666667</ele><time>2026-04-04T11:19:18.999Z</time></trkpt><trkpt lat="41.075168823502466" lon="14.597391595538237"><ele>324.33333333333337</ele><time>2026-04-04T11:19:19.999Z</time></trkpt><trkpt lat="41.07513773836904" lon="14.597501366404858"><ele>325.0</ele><time>2026-04-04T11:19:20.999Z</time></trkpt><trkpt lat="41.075094682633676" lon="14.597599990716441"><ele>325.6666666666667</ele><time>2026-04-04T11:19:21.999Z</time></trkpt><trkpt lat="41.07505663152062" lon="14.597702742332242"><ele>326.3333333333333</ele><time>2026-04-04T11:19:22.999Z</time></trkpt><trkpt lat="41.07503791153782" lon="14.59780422478153"><ele>327.0</ele><time>2026-04-04T11:19:24.999Z</time></trkpt><trkpt lat="41.075028537939886" lon="14.598012624922747"><ele>327.8333333333333</ele><time>2026-04-04T11:19:26.999Z</time></trkpt><trkpt lat="41.07502365138471" lon="14.59813088208333"><ele>328.6666666666667</ele><time>2026-04-04T11:19:27.999Z</time></trkpt><trkpt lat="41.07500389292037" lon="14.598229741435318"><ele>329.5</ele><time>2026-04-04T11:19:28.999Z</time></trkpt><trkpt lat="41.07498599150937" lon="14.598314872648189"><ele>330.33333333333337</ele><time>2026-04-04T11:19:29.999Z</time></trkpt><trkpt lat="41.07494933118615" lon="14.598465873940151"><ele>331.1666666666667</ele><time>2026-04-04T11:19:31.999Z</time></trkpt><trkpt lat="41.07492882684053" lon="14.598555371914065"><ele>332.0</ele><time>2026-04-04T11:19:32.999Z</time></trkpt><trkpt lat="41.074935335826275" lon="14.598649215614467"><ele>329.0</ele><time>2026-04-04T11:19:33.999Z</time></trkpt><trkpt lat="41.07491946087299" lon="14.598763499197158"><ele>326.0</ele><time>2026-04-04T11:19:35.999Z</time></trkpt><trkpt lat="41.07490673627478" lon="14.59895483305204"><ele>323.0</ele><time>2026-04-04T11:19:37.999Z</time></trkpt><trkpt lat="41.07487812834817" lon="14.599046200833449"><ele>320.0</ele><time>2026-04-04T11:19:38.999Z</time></trkpt><trkpt lat="41.07485289564172" lon="14.599134322451583"><ele>317.0</ele><time>2026-04-04T11:19:39.999Z</time></trkpt><trkpt lat="41.07485315093253" lon="14.599258351136672"><ele>317.0</ele><time>2026-04-04T11:19:40.999Z</time></trkpt><trkpt lat="41.07482357411474" lon="14.599386976492887"><ele>317.0</ele><time>2026-04-04T11:19:41.999Z</time></trkpt><trkpt lat="41.07477115408457" lon="14.599508915105789"><ele>317.0</ele><time>2026-04-04T11:19:42.999Z</time></trkpt><trkpt lat="41.074719189081776" lon="14.599638442166187"><ele>317.0</ele><time>2026-04-04T11:19:43.999Z</time></trkpt><trkpt lat="41.07466089809758" lon="14.599756767820766"><ele>317.0</ele><time>2026-04-04T11:19:44.999Z</time></trkpt><trkpt lat="41.074615266520766" lon="14.599880532486592"><ele>317.5</ele><time>2026-04-04T11:19:45.999Z</time></trkpt><trkpt lat="41.07456590892185" lon="14.600013037796604"><ele>318.0</ele><time>2026-04-04T11:19:46.999Z</time></trkpt><trkpt lat="41.07451929544158" lon="14.60015089786068"><ele>318.5</ele><time>2026-04-04T11:19:47.999Z</time></trkpt><trkpt lat="41.074479160122436" lon="14.60029426898992"><ele>319.0</ele><time>2026-04-04T11:19:48.999Z</time></trkpt><trkpt lat="41.074440165827006" lon="14.60044811342034"><ele>319.2</ele><time>2026-04-04T11:19:49.999Z</time></trkpt><trkpt lat="41.074401802154625" lon="14.600567900678524"><ele>319.4</ele><time>2026-04-04T11:19:50.999Z</time></trkpt><trkpt lat="41.07435785684217" lon="14.600674475285414"><ele>319.6</ele><time>2026-04-04T11:19:51.999Z</time></trkpt><trkpt lat="41.07432558447072" lon="14.600797737409154"><ele>319.8</ele><time>2026-04-04T11:19:52.999Z</time></trkpt><trkpt lat="41.074296816977224" lon="14.600952057972663"><ele>320.0</ele><time>2026-04-04T11:19:53.999Z</time></trkpt><trkpt lat="41.07428563369467" lon="14.601115831236422"><ele>320.75</ele><time>2026-04-04T11:19:54.999Z</time></trkpt><trkpt lat="41.07427878097296" lon="14.60126462825376"><ele>321.5</ele><time>2026-04-04T11:19:55.999Z</time></trkpt><trkpt lat="41.07427773559625" lon="14.601412095087078"><ele>322.25</ele><time>2026-04-04T11:19:56.999Z</time></trkpt><trkpt lat="41.07426593464435" lon="14.60156307115478"><ele>323.0</ele><time>2026-04-04T11:19:57.999Z</time></trkpt><trkpt lat="41.07425907233218" lon="14.60172770905042"><ele>323.0</ele><time>2026-04-04T11:19:58.999Z</time></trkpt><trkpt lat="41.074262965828105" lon="14.60188655535001"><ele>323.0</ele><time>2026-04-04T11:19:59.999Z</time></trkpt><trkpt lat="41.07425830535646" lon="14.60204176351993"><ele>323.0</ele><time>2026-04-04T11:20:00.999Z</time></trkpt><trkpt lat="41.07423669327959" lon="14.60221402192549"><ele>323.0</ele><time>2026-04-04T11:20:01.999Z</time></trkpt><trkpt lat="41.07421197010068" lon="14.60237487774734"><ele>323.2</ele><time>2026-04-04T11:20:02.999Z</time></trkpt><trkpt lat="41.074200780368486" lon="14.602505217982436"><ele>323.4</ele><time>2026-04-04T11:20:03.999Z</time></trkpt><trkpt lat="41.074185414198894" lon="14.602628043114551"><ele>323.59999999999997</ele><time>2026-04-04T11:20:04.999Z</time></trkpt><trkpt lat="41.074162659339486" lon="14.602737324607784"><ele>323.79999999999995</ele><time>2026-04-04T11:20:05.999Z</time></trkpt><trkpt lat="41.07412271531184" lon="14.602861724328307"><ele>324.0</ele><time>2026-04-04T11:20:06.999Z</time></trkpt><trkpt lat="41.074095776174346" lon="14.602983854185938"><ele>320.8</ele><time>2026-04-04T11:20:07.999Z</time></trkpt><trkpt lat="41.07408963790723" lon="14.603096711911949"><ele>317.59999999999997</ele><time>2026-04-04T11:20:08.999Z</time></trkpt><trkpt lat="41.07409519613861" lon="14.603184770353872"><ele>314.4</ele><time>2026-04-04T11:20:09.999Z</time></trkpt><trkpt lat="41.07406961726931" lon="14.603325574532848"><ele>311.2</ele><time>2026-04-04T11:20:11.999Z</time></trkpt><trkpt lat="41.0740688980187" lon="14.60346319501446"><ele>308.0</ele><time>2026-04-04T11:20:13.999Z</time></trkpt><trkpt lat="41.074056574242775" lon="14.60358655861416"><ele>308.6</ele><time>2026-04-04T11:20:15.999Z</time></trkpt><trkpt lat="41.07403151669746" lon="14.603693336715631"><ele>309.20000000000005</ele><time>2026-04-04T11:20:16.999Z</time></trkpt><trkpt lat="41.074013386226945" lon="14.603829363858091"><ele>309.8</ele><time>2026-04-04T11:20:17.999Z</time></trkpt><trkpt lat="41.0739944009018" lon="14.603980250210075"><ele>310.40000000000003</ele><time>2026-04-04T11:20:18.999Z</time></trkpt><trkpt lat="41.0739873492281" lon="14.604102972241684"><ele>311.0</ele><time>2026-04-04T11:20:19.999Z</time></trkpt><trkpt lat="41.073985441371256" lon="14.604235362849028"><ele>311.0</ele><time>2026-04-04T11:20:20.999Z</time></trkpt><trkpt lat="41.073982677742556" lon="14.604347885488778"><ele>311.0</ele><time>2026-04-04T11:20:21.999Z</time></trkpt><trkpt lat="41.07396980720178" lon="14.604435792498315"><ele>311.0</ele><time>2026-04-04T11:20:22.999Z</time></trkpt><trkpt lat="41.07394430380595" lon="14.60451826154338"><ele>311.0</ele><time>2026-04-04T11:20:23.999Z</time></trkpt><trkpt lat="41.073880962942994" lon="14.60463072711989"><ele>311.0</ele><time>2026-04-04T11:20:25.999Z</time></trkpt><trkpt lat="41.07386716739569" lon="14.604728214162717"><ele>311.0</ele><time>2026-04-04T11:20:27.999Z</time></trkpt><trkpt lat="41.073861995355074" lon="14.604827054055987"><ele>312.25</ele><time>2026-04-04T11:20:28.999Z</time></trkpt><trkpt lat="41.0738745442676" lon="14.604970388878314"><ele>313.5</ele><time>2026-04-04T11:20:29.999Z</time></trkpt><trkpt lat="41.073881789236644" lon="14.605126584167955"><ele>314.75</ele><time>2026-04-04T11:20:30.999Z</time></trkpt><trkpt lat="41.07386664790146" lon="14.605326919921845"><ele>316.0</ele><time>2026-04-04T11:20:31.999Z</time></trkpt><trkpt lat="41.073861526004464" lon="14.605541804544906"><ele>317.0</ele><time>2026-04-04T11:20:32.999Z</time></trkpt><trkpt lat="41.07385161658408" lon="14.605796289047994"><ele>318.0</ele><time>2026-04-04T11:20:33.999Z</time></trkpt><trkpt lat="41.07385000601788" lon="14.606075419708183"><ele>319.0</ele><time>2026-04-04T11:20:34.999Z</time></trkpt><trkpt lat="41.07384702084918" lon="14.60636289321891"><ele>320.0</ele><time>2026-04-04T11:20:35.999Z</time></trkpt><trkpt lat="41.07385422452227" lon="14.606603417105365"><ele>321.0</ele><time>2026-04-04T11:20:36.999Z</time></trkpt><trkpt lat="41.07385530535022" lon="14.606812669509038"><ele>322.0</ele><time>2026-04-04T11:20:37.999Z</time></trkpt><trkpt lat="41.07388838644147" lon="14.607039039028276"><ele>322.66666666666663</ele><time>2026-04-04T11:20:38.999Z</time></trkpt><trkpt lat="41.07393112006329" lon="14.607291991051438"><ele>323.3333333333333</ele><time>2026-04-04T11:20:39.998Z</time></trkpt><trkpt lat="41.073961851377256" lon="14.607552752229566"><ele>324.0</ele><time>2026-04-04T11:20:40.998Z</time></trkpt><trkpt lat="41.073973052030105" lon="14.60779433572903"><ele>323.5</ele><time>2026-04-04T11:20:41.998Z</time></trkpt><trkpt lat="41.073979009321526" lon="14.608059963884974"><ele>323.0</ele><time>2026-04-04T11:20:42.998Z</time></trkpt><trkpt lat="41.073948842917886" lon="14.608396734701918"><ele>324.0</ele><time>2026-04-04T11:20:43.998Z</time></trkpt><trkpt lat="41.073947984871715" lon="14.608702692170462"><ele>325.0</ele><time>2026-04-04T11:20:44.998Z</time></trkpt><trkpt lat="41.07393544281448" lon="14.608979043113557"><ele>326.0</ele><time>2026-04-04T11:20:45.998Z</time></trkpt><trkpt lat="41.07394540076479" lon="14.609322471086292"><ele>326.6666666666667</ele><time>2026-04-04T11:20:46.998Z</time></trkpt><trkpt lat="41.073951963668584" lon="14.609585971849812"><ele>327.3333333333333</ele><time>2026-04-04T11:20:47.998Z</time></trkpt><trkpt lat="41.07395414962252" lon="14.609826334831695"><ele>328.0</ele><time>2026-04-04T11:20:48.998Z</time></trkpt><trkpt lat="41.07395237648537" lon="14.610025036419069"><ele>328.0</ele><time>2026-04-04T11:20:49.998Z</time></trkpt><trkpt lat="41.073932223316" lon="14.61017522970045"><ele>328.0</ele><time>2026-04-04T11:20:50.998Z</time></trkpt><trkpt lat="41.07391961343317" lon="14.610301529309366"><ele>328.0</ele><time>2026-04-04T11:20:51.998Z</time></trkpt><trkpt lat="41.07393875174245" lon="14.610418791112133"><ele>328.0</ele><time>2026-04-04T11:20:52.998Z</time></trkpt><trkpt lat="41.07398919342019" lon="14.610540785785538"><ele>328.0</ele><time>2026-04-04T11:20:53.998Z</time></trkpt><trkpt lat="41.07404844153536" lon="14.610656153374098"><ele>327.59999999999997</ele><time>2026-04-04T11:20:54.998Z</time></trkpt><trkpt lat="41.0740987562471" lon="14.610772818507265"><ele>327.2</ele><time>2026-04-04T11:20:55.998Z</time></trkpt><trkpt lat="41.0741480891276" lon="14.610886536614464"><ele>326.8</ele><time>2026-04-04T11:20:56.998Z</time></trkpt><trkpt lat="41.074202846638116" lon="14.611015314204948"><ele>326.4</ele><time>2026-04-04T11:20:57.998Z</time></trkpt><trkpt lat="41.074262083539715" lon="14.611145776685765"><ele>326.0</ele><time>2026-04-04T11:20:58.998Z</time></trkpt><trkpt lat="41.074289842308964" lon="14.611287670198932"><ele>329.25</ele><time>2026-04-04T11:20:59.998Z</time></trkpt><trkpt lat="41.074274041089254" lon="14.61143137684781"><ele>332.5</ele><time>2026-04-04T11:21:00.998Z</time></trkpt><trkpt lat="41.074355971072904" lon="14.611549906585717"><ele>335.75</ele><time>2026-04-04T11:21:01.998Z</time></trkpt><trkpt lat="41.07444175845226" lon="14.611652907750214"><ele>339.0</ele><time>2026-04-04T11:21:02.998Z</time></trkpt><trkpt lat="41.074562821773036" lon="14.611770606074286"><ele>339.0</ele><time>2026-04-04T11:21:03.998Z</time></trkpt><trkpt lat="41.07466139867021" lon="14.611892723562582"><ele>339.0</ele><time>2026-04-04T11:21:04.998Z</time></trkpt><trkpt lat="41.074736391179115" lon="14.612037275400064"><ele>339.0</ele><time>2026-04-04T11:21:05.998Z</time></trkpt><trkpt lat="41.07477580838602" lon="14.61220421832627"><ele>339.0</ele><time>2026-04-04T11:21:06.998Z</time></trkpt><trkpt lat="41.07482731443966" lon="14.61237080001033"><ele>338.0</ele><time>2026-04-04T11:21:07.998Z</time></trkpt><trkpt lat="41.07489999617142" lon="14.612592176518875"><ele>337.0</ele><time>2026-04-04T11:21:08.998Z</time></trkpt><trkpt lat="41.07495526445242" lon="14.61281175070981"><ele>336.0</ele><time>2026-04-04T11:21:09.998Z</time></trkpt><trkpt lat="41.07501753278056" lon="14.61301081751886"><ele>339.0</ele><time>2026-04-04T11:21:10.998Z</time></trkpt><trkpt lat="41.07507749688767" lon="14.613184816414952"><ele>342.0</ele><time>2026-04-04T11:21:11.998Z</time></trkpt><trkpt lat="41.0751218745478" lon="14.61334834520055"><ele>345.0</ele><time>2026-04-04T11:21:12.998Z</time></trkpt><trkpt lat="41.075145894076236" lon="14.613507366890065"><ele>348.0</ele><time>2026-04-04T11:21:13.998Z</time></trkpt><trkpt lat="41.07517378252999" lon="14.613652880865885"><ele>346.79999999999995</ele><time>2026-04-04T11:21:14.998Z</time></trkpt><trkpt lat="41.07520341464502" lon="14.613788006441522"><ele>345.6</ele><time>2026-04-04T11:21:15.998Z</time></trkpt><trkpt lat="41.075231915477744" lon="14.613906589996333"><ele>344.4</ele><time>2026-04-04T11:21:16.998Z</time></trkpt><trkpt lat="41.07524879708376" lon="14.614005905333494"><ele>343.20000000000005</ele><time>2026-04-04T11:21:17.998Z</time></trkpt><trkpt lat="41.075257365420065" lon="14.614123308329136"><ele>342.0</ele><time>2026-04-04T11:21:19.999Z</time></trkpt><trkpt lat="41.07532852208518" lon="14.614198603687266"><ele>342.0</ele><time>2026-04-04T11:21:20.999Z</time></trkpt><trkpt lat="41.07535640713763" lon="14.61428755705345"><ele>342.0</ele><time>2026-04-04T11:21:21.999Z</time></trkpt><trkpt lat="41.07539791958997" lon="14.614398483083388"><ele>342.0</ele><time>2026-04-04T11:21:22.999Z</time></trkpt><trkpt lat="41.07542824099248" lon="14.614528333112407"><ele>342.0</ele><time>2026-04-04T11:21:23.999Z</time></trkpt><trkpt lat="41.075443816256964" lon="14.61462553935381"><ele>342.0</ele><time>2026-04-04T11:21:24.999Z</time></trkpt><trkpt lat="41.07547542351623" lon="14.614768026614675"><ele>341.6666666666667</ele><time>2026-04-04T11:21:26.999Z</time></trkpt><trkpt lat="41.07548737664167" lon="14.614938530603222"><ele>341.3333333333333</ele><time>2026-04-04T11:21:29Z</time></trkpt><trkpt lat="41.075497801924854" lon="14.615044590465779"><ele>341.0</ele><time>2026-04-04T11:21:30Z</time></trkpt><trkpt lat="41.075522323807704" lon="14.615135655771093"><ele>340.66666666666663</ele><time>2026-04-04T11:21:31Z</time></trkpt><trkpt lat="41.07554552535505" lon="14.615217169494663"><ele>340.3333333333333</ele><time>2026-04-04T11:21:32Z</time></trkpt><trkpt lat="41.07555617630457" lon="14.615324158530663"><ele>340.0</ele><time>2026-04-04T11:21:33Z</time></trkpt><trkpt lat="41.07556676054471" lon="14.6154354263266"><ele>339.4</ele><time>2026-04-04T11:21:34Z</time></trkpt><trkpt lat="41.07557003415272" lon="14.61554887492817"><ele>338.8</ele><time>2026-04-04T11:21:35Z</time></trkpt><trkpt lat="41.075583143585526" lon="14.615632495622922"><ele>338.20000000000005</ele><time>2026-04-04T11:21:36Z</time></trkpt><trkpt lat="41.07558430840858" lon="14.61574762981395"><ele>337.6</ele><time>2026-04-04T11:21:37Z</time></trkpt><trkpt lat="41.07560253010723" lon="14.615917655080523"><ele>337.0</ele><time>2026-04-04T11:21:39Z</time></trkpt><trkpt lat="41.07562232405806" lon="14.616033243615224"><ele>337.0</ele><time>2026-04-04T11:21:41Z</time></trkpt><trkpt lat="41.075739265942794" lon="14.61603954407963"><ele>337.0</ele><time>2026-04-04T11:21:43.999Z</time></trkpt><trkpt lat="41.075824863030185" lon="14.616007480115197"><ele>337.0</ele><time>2026-04-04T11:21:44.999Z</time></trkpt><trkpt lat="41.07592162215595" lon="14.615982159703968"><ele>337.0</ele><time>2026-04-04T11:21:45.999Z</time></trkpt><trkpt lat="41.076012178452" lon="14.615973251926068"><ele>337.0</ele><time>2026-04-04T11:21:46.999Z</time></trkpt><trkpt lat="41.07611188096861" lon="14.615958356592039"><ele>340.0</ele><time>2026-04-04T11:21:47.999Z</time></trkpt><trkpt lat="41.0762050183583" lon="14.615971421198145"><ele>343.0</ele><time>2026-04-04T11:21:48.999Z</time></trkpt><trkpt lat="41.07629383118498" lon="14.616009044309132"><ele>346.0</ele><time>2026-04-04T11:21:49.999Z</time></trkpt><trkpt lat="41.076372384625444" lon="14.616075295039026"><ele>349.0</ele><time>2026-04-04T11:21:50.999Z</time></trkpt><trkpt lat="41.07645437621144" lon="14.616133382092764"><ele>352.0</ele><time>2026-04-04T11:21:51.999Z</time></trkpt><trkpt lat="41.0765541348796" lon="14.616213721940444"><ele>356.0</ele><time>2026-04-04T11:21:52.999Z</time></trkpt><trkpt lat="41.07666403759006" lon="14.61630238425384"><ele>360.0</ele><time>2026-04-04T11:21:53.999Z</time></trkpt><trkpt lat="41.07677021083918" lon="14.616412139314868"><ele>364.0</ele><time>2026-04-04T11:21:54.999Z</time></trkpt><trkpt lat="41.07688280328755" lon="14.616574444895678"><ele>368.0</ele><time>2026-04-04T11:21:55.999Z</time></trkpt><trkpt lat="41.07698202628664" lon="14.616751830320453"><ele>368.0</ele><time>2026-04-04T11:21:56.999Z</time></trkpt><trkpt lat="41.07706835154656" lon="14.616905979385644"><ele>368.0</ele><time>2026-04-04T11:21:57.999Z</time></trkpt><trkpt lat="41.077164116241775" lon="14.617028343401513"><ele>368.0</ele><time>2026-04-04T11:21:58.999Z</time></trkpt><trkpt lat="41.07727088578405" lon="14.61714316896201"><ele>368.0</ele><time>2026-04-04T11:21:59.999Z</time></trkpt><trkpt lat="41.077377575911726" lon="14.61724143107013"><ele>371.4</ele><time>2026-04-04T11:22:00.999Z</time></trkpt><trkpt lat="41.07747368887224" lon="14.617326182519623"><ele>374.79999999999995</ele><time>2026-04-04T11:22:01.999Z</time></trkpt><trkpt lat="41.07754874664116" lon="14.617431435305269"><ele>378.2</ele><time>2026-04-04T11:22:02.999Z</time></trkpt><trkpt lat="41.07758928781981" lon="14.61754904618818"><ele>381.6</ele><time>2026-04-04T11:22:03.999Z</time></trkpt><trkpt lat="41.07760742214963" lon="14.617713958992928"><ele>385.0</ele><time>2026-04-04T11:22:04.999Z</time></trkpt><trkpt lat="41.07762237986237" lon="14.617912460835473"><ele>385.0</ele><time>2026-04-04T11:22:05.999Z</time></trkpt><trkpt lat="41.07764203482631" lon="14.618117865343999"><ele>385.0</ele><time>2026-04-04T11:22:06.999Z</time></trkpt><trkpt lat="41.07768154646771" lon="14.618313720142043"><ele>385.0</ele><time>2026-04-04T11:22:07.999Z</time></trkpt><trkpt lat="41.07774142240912" lon="14.61850441847415"><ele>384.0</ele><time>2026-04-04T11:22:08.999Z</time></trkpt><trkpt lat="41.07779744410063" lon="14.618692637718004"><ele>383.0</ele><time>2026-04-04T11:22:09.999Z</time></trkpt><trkpt lat="41.07783886075821" lon="14.618895521683015"><ele>382.0</ele><time>2026-04-04T11:22:10.999Z</time></trkpt><trkpt lat="41.077854436250036" lon="14.619116395898274"><ele>382.0</ele><time>2026-04-04T11:22:11.999Z</time></trkpt><trkpt lat="41.07790522125391" lon="14.619323961710288"><ele>382.0</ele><time>2026-04-04T11:22:12.999Z</time></trkpt><trkpt lat="41.077948023177626" lon="14.619539565053147"><ele>382.0</ele><time>2026-04-04T11:22:13.999Z</time></trkpt><trkpt lat="41.07800079736002" lon="14.619742925052423"><ele>382.25</ele><time>2026-04-04T11:22:14.999Z</time></trkpt><trkpt lat="41.07804194342904" lon="14.619935563540023"><ele>382.5</ele><time>2026-04-04T11:22:15.999Z</time></trkpt><trkpt lat="41.07806942355197" lon="14.620116403506971"><ele>382.75</ele><time>2026-04-04T11:22:16.999Z</time></trkpt><trkpt lat="41.078092358919264" lon="14.62031708292763"><ele>383.0</ele><time>2026-04-04T11:22:17.999Z</time></trkpt><trkpt lat="41.07811092124205" lon="14.62053573599514"><ele>381.0</ele><time>2026-04-04T11:22:18.999Z</time></trkpt><trkpt lat="41.07813315158718" lon="14.620759060758406"><ele>379.0</ele><time>2026-04-04T11:22:19.999Z</time></trkpt><trkpt lat="41.07816182876377" lon="14.620991871492201"><ele>377.0</ele><time>2026-04-04T11:22:20.999Z</time></trkpt><trkpt lat="41.07818917565783" lon="14.621206691148378"><ele>376.5</ele><time>2026-04-04T11:22:21.999Z</time></trkpt><trkpt lat="41.07821766558048" lon="14.62138504385719"><ele>376.0</ele><time>2026-04-04T11:22:22.999Z</time></trkpt><trkpt lat="41.07823295339006" lon="14.621544202396064"><ele>375.5</ele><time>2026-04-04T11:22:23.999Z</time></trkpt><trkpt lat="41.078251791074194" lon="14.621683209990437"><ele>375.0</ele><time>2026-04-04T11:22:24.999Z</time></trkpt><trkpt lat="41.0782697354848" lon="14.621793023036997"><ele>375.0</ele><time>2026-04-04T11:22:25.999Z</time></trkpt><trkpt lat="41.07826186087626" lon="14.621890606536084"><ele>375.0</ele><time>2026-04-04T11:22:27.999Z</time></trkpt><trkpt lat="41.07830940971643" lon="14.622075948709403"><ele>375.0</ele><time>2026-04-04T11:22:29.999Z</time></trkpt><trkpt lat="41.07839304005503" lon="14.622243543633195"><ele>375.0</ele><time>2026-04-04T11:22:30.999Z</time></trkpt><trkpt lat="41.078476753756135" lon="14.62239352930542"><ele>379.0</ele><time>2026-04-04T11:22:31.999Z</time></trkpt><trkpt lat="41.07857687326737" lon="14.622574919233978"><ele>383.0</ele><time>2026-04-04T11:22:32.999Z</time></trkpt><trkpt lat="41.078688887407104" lon="14.622759335172399"><ele>387.0</ele><time>2026-04-04T11:22:33.999Z</time></trkpt><trkpt lat="41.07879426287607" lon="14.622938975906731"><ele>387.0</ele><time>2026-04-04T11:22:34.999Z</time></trkpt><trkpt lat="41.078858108219706" lon="14.623139200069925"><ele>387.0</ele><time>2026-04-04T11:22:35.999Z</time></trkpt><trkpt lat="41.07890535126826" lon="14.623336261637789"><ele>387.0</ele><time>2026-04-04T11:22:36.999Z</time></trkpt><trkpt lat="41.07895104997902" lon="14.62354403584787"><ele>386.33333333333337</ele><time>2026-04-04T11:22:37.999Z</time></trkpt><trkpt lat="41.07900566639613" lon="14.623759087919497"><ele>385.6666666666667</ele><time>2026-04-04T11:22:38.999Z</time></trkpt><trkpt lat="41.07903094898652" lon="14.623978113996102"><ele>385.0</ele><time>2026-04-04T11:22:39.999Z</time></trkpt><trkpt lat="41.07905255044792" lon="14.62418271992367"><ele>385.0</ele><time>2026-04-04T11:22:40.999Z</time></trkpt><trkpt lat="41.07904862645932" lon="14.624361327113009"><ele>385.0</ele><time>2026-04-04T11:22:41.999Z</time></trkpt><trkpt lat="41.07904425948776" lon="14.624522567782783"><ele>385.0</ele><time>2026-04-04T11:22:42.999Z</time></trkpt><trkpt lat="41.07905322464513" lon="14.624642577155882"><ele>385.0</ele><time>2026-04-04T11:22:43.999Z</time></trkpt><trkpt lat="41.079099700971305" lon="14.624743359004624"><ele>385.0</ele><time>2026-04-04T11:22:44.999Z</time></trkpt><trkpt lat="41.07918888537199" lon="14.624840837495237"><ele>389.0</ele><time>2026-04-04T11:22:45.999Z</time></trkpt><trkpt lat="41.079307810812196" lon="14.62496485328638"><ele>393.0</ele><time>2026-04-04T11:22:46.999Z</time></trkpt><trkpt lat="41.0794073744127" lon="14.625112248951545"><ele>397.0</ele><time>2026-04-04T11:22:47.999Z</time></trkpt><trkpt lat="41.07944749671375" lon="14.625282790274968"><ele>401.0</ele><time>2026-04-04T11:22:48.999Z</time></trkpt><trkpt lat="41.07948305949241" lon="14.625454130642924"><ele>401.0</ele><time>2026-04-04T11:22:49.999Z</time></trkpt><trkpt lat="41.07952378288876" lon="14.625678680286292"><ele>401.0</ele><time>2026-04-04T11:22:50.999Z</time></trkpt><trkpt lat="41.079581929855344" lon="14.625926735892943"><ele>401.0</ele><time>2026-04-04T11:22:51.999Z</time></trkpt><trkpt lat="41.07962456053525" lon="14.626192426546176"><ele>403.0</ele><time>2026-04-04T11:22:52.999Z</time></trkpt><trkpt lat="41.07966753560557" lon="14.626424640018703"><ele>405.0</ele><time>2026-04-04T11:22:53.999Z</time></trkpt><trkpt lat="41.079708594298424" lon="14.626648712435953"><ele>407.0</ele><time>2026-04-04T11:22:54.999Z</time></trkpt><trkpt lat="41.079754549487305" lon="14.626847986281973"><ele>407.25</ele><time>2026-04-04T11:22:55.999Z</time></trkpt><trkpt lat="41.07980289446952" lon="14.627014178932036"><ele>407.5</ele><time>2026-04-04T11:22:56.999Z</time></trkpt><trkpt lat="41.07986047776537" lon="14.627157418841866"><ele>407.75</ele><time>2026-04-04T11:22:57.998Z</time></trkpt><trkpt lat="41.07991456426874" lon="14.627273755024893"><ele>408.0</ele><time>2026-04-04T11:22:58.998Z</time></trkpt><trkpt lat="41.07998087750275" lon="14.627376240106713"><ele>408.75</ele><time>2026-04-04T11:22:59.998Z</time></trkpt><trkpt lat="41.08003846252339" lon="14.62748947479104"><ele>409.5</ele><time>2026-04-04T11:23:00.998Z</time></trkpt><trkpt lat="41.080102084125215" lon="14.6276112210362"><ele>410.25</ele><time>2026-04-04T11:23:01.998Z</time></trkpt><trkpt lat="41.08016874517018" lon="14.627752833931558"><ele>411.0</ele><time>2026-04-04T11:23:02.998Z</time></trkpt><trkpt lat="41.08024031192112" lon="14.6278851310778"><ele>411.0</ele><time>2026-04-04T11:23:03.998Z</time></trkpt><trkpt lat="41.080298653017394" lon="14.628016623180265"><ele>411.0</ele><time>2026-04-04T11:23:04.998Z</time></trkpt><trkpt lat="41.08034753355758" lon="14.628126102521911"><ele>411.0</ele><time>2026-04-04T11:23:05.998Z</time></trkpt><trkpt lat="41.080404544647976" lon="14.628235473223874"><ele>411.0</ele><time>2026-04-04T11:23:06.998Z</time></trkpt><trkpt lat="41.08048833682431" lon="14.62832077130146"><ele>411.0</ele><time>2026-04-04T11:23:07.998Z</time></trkpt><trkpt lat="41.0805466019925" lon="14.628409806669929"><ele>411.0</ele><time>2026-04-04T11:23:08.998Z</time></trkpt><trkpt lat="41.080615810337775" lon="14.628556417666928"><ele>411.0</ele><time>2026-04-04T11:23:10.998Z</time></trkpt><trkpt lat="41.08058531512244" lon="14.628668296749838"><ele>411.0</ele><time>2026-04-04T11:23:11.998Z</time></trkpt><trkpt lat="41.08052756948354" lon="14.628793797983311"><ele>411.0</ele><time>2026-04-04T11:23:12.998Z</time></trkpt><trkpt lat="41.08046851948" lon="14.628930758571803"><ele>412.0</ele><time>2026-04-04T11:23:13.998Z</time></trkpt><trkpt lat="41.080438111875175" lon="14.629078673353488"><ele>413.0</ele><time>2026-04-04T11:23:14.998Z</time></trkpt><trkpt lat="41.080438126075705" lon="14.629230757504896"><ele>414.0</ele><time>2026-04-04T11:23:15.998Z</time></trkpt><trkpt lat="41.080453790787836" lon="14.629386375010156"><ele>415.0</ele><time>2026-04-04T11:23:16.998Z</time></trkpt><trkpt lat="41.080500101321704" lon="14.629521930349917"><ele>415.6</ele><time>2026-04-04T11:23:17.998Z</time></trkpt><trkpt lat="41.08056310274223" lon="14.629645374161418"><ele>416.2</ele><time>2026-04-04T11:23:18.998Z</time></trkpt><trkpt lat="41.08062395810197" lon="14.62972619879861"><ele>416.79999999999995</ele><time>2026-04-04T11:23:19.998Z</time></trkpt><trkpt lat="41.08066089117606" lon="14.629808180449801"><ele>417.4</ele><time>2026-04-04T11:23:20.998Z</time></trkpt><trkpt lat="41.08068391696356" lon="14.629958603300985"><ele>418.0</ele><time>2026-04-04T11:23:22.998Z</time></trkpt><trkpt lat="41.08064769921912" lon="14.630093249797216"><ele>418.00000000000006</ele><time>2026-04-04T11:23:24.998Z</time></trkpt><trkpt lat="41.0806051962588" lon="14.630175031887118"><ele>418.0</ele><time>2026-04-04T11:23:26Z</time></trkpt><trkpt lat="41.08053490551524" lon="14.630293628305333"><ele>418.0</ele><time>2026-04-04T11:23:27Z</time></trkpt><trkpt lat="41.08046432100103" lon="14.630374389480426"><ele>418.0</ele><time>2026-04-04T11:23:28Z</time></trkpt><trkpt lat="41.08039238842168" lon="14.630438581914277"><ele>418.00000000000006</ele><time>2026-04-04T11:23:29Z</time></trkpt><trkpt lat="41.08033164412822" lon="14.630490401136804"><ele>418.0</ele><time>2026-04-04T11:23:30Z</time></trkpt><trkpt lat="41.08027625103587" lon="14.630551984588301"><ele>418.00000000000006</ele><time>2026-04-04T11:23:31Z</time></trkpt><trkpt lat="41.08021836434143" lon="14.630625475591012"><ele>418.0</ele><time>2026-04-04T11:23:32Z</time></trkpt><trkpt lat="41.08016247411634" lon="14.630703570167297"><ele>418.0</ele><time>2026-04-04T11:23:33Z</time></trkpt><trkpt lat="41.08010730914556" lon="14.630770938692192"><ele>418.0</ele><time>2026-04-04T11:23:34Z</time></trkpt><trkpt lat="41.08006491713463" lon="14.630834427306906"><ele>418.00000000000006</ele><time>2026-04-04T11:23:35Z</time></trkpt><trkpt lat="41.08002007936628" lon="14.630913929430637"><ele>418.0</ele><time>2026-04-04T11:23:36Z</time></trkpt><trkpt lat="41.07997364650389" lon="14.631058614903727"><ele>416.2</ele><time>2026-04-04T11:23:38Z</time></trkpt><trkpt lat="41.0799936981272" lon="14.6311684497007"><ele>414.4</ele><time>2026-04-04T11:23:39Z</time></trkpt><trkpt lat="41.0800132117888" lon="14.631293224259684"><ele>412.59999999999997</ele><time>2026-04-04T11:23:40Z</time></trkpt><trkpt lat="41.080040304793194" lon="14.63143757137524"><ele>410.79999999999995</ele><time>2026-04-04T11:23:41Z</time></trkpt><trkpt lat="41.08005596351033" lon="14.631569265180131"><ele>409.0</ele><time>2026-04-04T11:23:42Z</time></trkpt><trkpt lat="41.08007350987822" lon="14.63169979866219"><ele>409.0</ele><time>2026-04-04T11:23:43Z</time></trkpt><trkpt lat="41.08011083854167" lon="14.631824511134353"><ele>409.0</ele><time>2026-04-04T11:23:44Z</time></trkpt><trkpt lat="41.080157935127076" lon="14.631938033230446"><ele>409.0</ele><time>2026-04-04T11:23:45Z</time></trkpt><trkpt lat="41.080207077594636" lon="14.632047819209584"><ele>409.0</ele><time>2026-04-04T11:23:46Z</time></trkpt><trkpt lat="41.080256495015476" lon="14.632165969992387"><ele>409.0</ele><time>2026-04-04T11:23:47Z</time></trkpt><trkpt lat="41.080304181241964" lon="14.63229136305062"><ele>407.0</ele><time>2026-04-04T11:23:48Z</time></trkpt><trkpt lat="41.08035587702703" lon="14.632418283152868"><ele>405.0</ele><time>2026-04-04T11:23:49Z</time></trkpt><trkpt lat="41.08040548406656" lon="14.632542706853963"><ele>403.0</ele><time>2026-04-04T11:23:50Z</time></trkpt><trkpt lat="41.08046261626364" lon="14.632662707532605"><ele>401.0</ele><time>2026-04-04T11:23:51Z</time></trkpt><trkpt lat="41.080510669700196" lon="14.632775525474973"><ele>399.0</ele><time>2026-04-04T11:23:52Z</time></trkpt><trkpt lat="41.080549248847795" lon="14.632894435957539"><ele>398.79999999999995</ele><time>2026-04-04T11:23:53Z</time></trkpt><trkpt lat="41.080595481514486" lon="14.633016851845678"><ele>398.59999999999997</ele><time>2026-04-04T11:23:54Z</time></trkpt><trkpt lat="41.080651832638736" lon="14.633150323788815"><ele>398.4</ele><time>2026-04-04T11:23:55Z</time></trkpt><trkpt lat="41.080705784662456" lon="14.633290539244705"><ele>398.2</ele><time>2026-04-04T11:23:56Z</time></trkpt><trkpt lat="41.08077162724963" lon="14.633408151777836"><ele>398.0</ele><time>2026-04-04T11:23:57Z</time></trkpt><trkpt lat="41.08083945814548" lon="14.633521302090836"><ele>398.0</ele><time>2026-04-04T11:23:58Z</time></trkpt><trkpt lat="41.0809039010708" lon="14.63362168603667"><ele>398.0</ele><time>2026-04-04T11:23:59Z</time></trkpt><trkpt lat="41.08094216930214" lon="14.633722434588027"><ele>398.0</ele><time>2026-04-04T11:24:00Z</time></trkpt><trkpt lat="41.08099017534473" lon="14.63381546646327"><ele>398.0</ele><time>2026-04-04T11:24:01Z</time></trkpt><trkpt lat="41.08103691703631" lon="14.633912514207113"><ele>398.0</ele><time>2026-04-04T11:24:01.999Z</time></trkpt><trkpt lat="41.0810998621435" lon="14.634025615222694"><ele>395.79999999999995</ele><time>2026-04-04T11:24:02.999Z</time></trkpt><trkpt lat="41.081124541839586" lon="14.63415287899005"><ele>393.6</ele><time>2026-04-04T11:24:03.999Z</time></trkpt><trkpt lat="41.081156071960145" lon="14.63428380187476"><ele>391.4</ele><time>2026-04-04T11:24:04.999Z</time></trkpt><trkpt lat="41.08118319767409" lon="14.634406836579597"><ele>389.20000000000005</ele><time>2026-04-04T11:24:05.999Z</time></trkpt><trkpt lat="41.08120431207096" lon="14.634532009467566"><ele>387.0</ele><time>2026-04-04T11:24:06.999Z</time></trkpt><trkpt lat="41.08120363575224" lon="14.634642911508873"><ele>385.5</ele><time>2026-04-04T11:24:07.999Z</time></trkpt><trkpt lat="41.0812056432563" lon="14.634748195777524"><ele>384.0</ele><time>2026-04-04T11:24:08.999Z</time></trkpt><trkpt lat="41.08121980235245" lon="14.634830546765674"><ele>382.5</ele><time>2026-04-04T11:24:09.999Z</time></trkpt><trkpt lat="41.081226338242374" lon="14.634915373553426"><ele>381.0</ele><time>2026-04-04T11:24:10.999Z</time></trkpt><trkpt lat="41.08123799511177" lon="14.634998081597427"><ele>379.5</ele><time>2026-04-04T11:24:11.999Z</time></trkpt><trkpt lat="41.081310854396676" lon="14.635119357560828"><ele>378.0</ele><time>2026-04-04T11:24:13.999Z</time></trkpt><trkpt lat="41.081382731040904" lon="14.63517000774306"><ele>378.0</ele><time>2026-04-04T11:24:14.999Z</time></trkpt><trkpt lat="41.081411957885535" lon="14.635272514279576"><ele>378.0</ele><time>2026-04-04T11:24:16.999Z</time></trkpt><trkpt lat="41.08132819858323" lon="14.635403539113792"><ele>378.0</ele><time>2026-04-04T11:24:18.999Z</time></trkpt><trkpt lat="41.08126931675022" lon="14.635524550637951"><ele>378.0</ele><time>2026-04-04T11:24:19.999Z</time></trkpt><trkpt lat="41.0812206661468" lon="14.635585010530534"><ele>378.0</ele><time>2026-04-04T11:24:20.999Z</time></trkpt><trkpt lat="41.08119454388548" lon="14.635740464992836"><ele>378.75</ele><time>2026-04-04T11:24:22.999Z</time></trkpt><trkpt lat="41.0811448487247" lon="14.635856549829064"><ele>379.5</ele><time>2026-04-04T11:24:24.999Z</time></trkpt><trkpt lat="41.081361945087245" lon="14.635820252448605"><ele>380.25</ele><time>2026-04-04T11:24:35.999Z</time></trkpt><trkpt lat="41.08147442853048" lon="14.635782216777097"><ele>381.0</ele><time>2026-04-04T11:24:36.999Z</time></trkpt><trkpt lat="41.0815722062456" lon="14.635759539482379"><ele>382.4</ele><time>2026-04-04T11:24:37.999Z</time></trkpt><trkpt lat="41.08166560845934" lon="14.63577271024301"><ele>383.8</ele><time>2026-04-04T11:24:38.999Z</time></trkpt><trkpt lat="41.08172702674738" lon="14.635818224005078"><ele>385.2</ele><time>2026-04-04T11:24:39.999Z</time></trkpt><trkpt lat="41.08177349676197" lon="14.635930896831528"><ele>386.59999999999997</ele><time>2026-04-04T11:24:40.999Z</time></trkpt><trkpt lat="41.081793025294935" lon="14.63606748871189"><ele>388.0</ele><time>2026-04-04T11:24:41.999Z</time></trkpt><trkpt lat="41.08183608362223" lon="14.636200342373238"><ele>389.5</ele><time>2026-04-04T11:24:42.999Z</time></trkpt><trkpt lat="41.08190800214335" lon="14.636341464732684"><ele>391.0</ele><time>2026-04-04T11:24:43.999Z</time></trkpt><trkpt lat="41.08199206217413" lon="14.63647934242092"><ele>392.5</ele><time>2026-04-04T11:24:44.999Z</time></trkpt><trkpt lat="41.08206402844402" lon="14.636629516976928"><ele>394.0</ele><time>2026-04-04T11:24:45.999Z</time></trkpt><trkpt lat="41.08215228210648" lon="14.636752408791851"><ele>394.0</ele><time>2026-04-04T11:24:46.999Z</time></trkpt><trkpt lat="41.08227877834129" lon="14.636879921418997"><ele>394.0</ele><time>2026-04-04T11:24:47.999Z</time></trkpt><trkpt lat="41.08244271089771" lon="14.637000019031428"><ele>394.0</ele><time>2026-04-04T11:24:48.999Z</time></trkpt><trkpt lat="41.08257185323108" lon="14.637116843891437"><ele>396.75</ele><time>2026-04-04T11:24:49.999Z</time></trkpt><trkpt lat="41.08264754548407" lon="14.637235232931873"><ele>399.5</ele><time>2026-04-04T11:24:50.999Z</time></trkpt><trkpt lat="41.082656443022415" lon="14.63738611166659"><ele>402.25</ele><time>2026-04-04T11:24:51.999Z</time></trkpt><trkpt lat="41.082719079171426" lon="14.637511291474658"><ele>405.0</ele><time>2026-04-04T11:24:52.999Z</time></trkpt><trkpt lat="41.08280312381196" lon="14.637627601274062"><ele>405.0</ele><time>2026-04-04T11:24:53.999Z</time></trkpt><trkpt lat="41.08292871401499" lon="14.637717938528036"><ele>405.0</ele><time>2026-04-04T11:24:54.999Z</time></trkpt><trkpt lat="41.083073436019" lon="14.6378316519695"><ele>405.0</ele><time>2026-04-04T11:24:55.999Z</time></trkpt><trkpt lat="41.083204998700346" lon="14.637973051293526"><ele>407.6</ele><time>2026-04-04T11:24:56.999Z</time></trkpt><trkpt lat="41.08332198564064" lon="14.638097618747862"><ele>410.2</ele><time>2026-04-04T11:24:57.999Z</time></trkpt><trkpt lat="41.08341690478978" lon="14.638202735909111"><ele>412.79999999999995</ele><time>2026-04-04T11:24:58.999Z</time></trkpt><trkpt lat="41.08347344684927" lon="14.638305386390593"><ele>415.4</ele><time>2026-04-04T11:24:59.999Z</time></trkpt><trkpt lat="41.08349445680483" lon="14.638397578432452"><ele>418.0</ele><time>2026-04-04T11:25:00.999Z</time></trkpt><trkpt lat="41.08350917342893" lon="14.638518219723169"><ele>418.0</ele><time>2026-04-04T11:25:02.999Z</time></trkpt><trkpt lat="41.083699498642744" lon="14.638577682528306"><ele>418.0</ele><time>2026-04-04T11:25:03.999Z</time></trkpt><trkpt lat="41.08381104011862" lon="14.638667346849767"><ele>418.0</ele><time>2026-04-04T11:25:04.999Z</time></trkpt><trkpt lat="41.08388898814163" lon="14.638768756741205"><ele>418.0</ele><time>2026-04-04T11:25:05.999Z</time></trkpt><trkpt lat="41.08395270871489" lon="14.638885862351732"><ele>418.0</ele><time>2026-04-04T11:25:06.999Z</time></trkpt><trkpt lat="41.08401362693128" lon="14.63902125736564"><ele>418.0</ele><time>2026-04-04T11:25:07.999Z</time></trkpt><trkpt lat="41.0840679046823" lon="14.639161974787093"><ele>418.0</ele><time>2026-04-04T11:25:08.999Z</time></trkpt><trkpt lat="41.08412590588494" lon="14.639303451707812"><ele>418.0</ele><time>2026-04-04T11:25:09.999Z</time></trkpt><trkpt lat="41.0841843031266" lon="14.639458818887753"><ele>418.75</ele><time>2026-04-04T11:25:10.999Z</time></trkpt><trkpt lat="41.08427038429595" lon="14.639589759513518"><ele>419.5</ele><time>2026-04-04T11:25:11.999Z</time></trkpt><trkpt lat="41.08435409216777" lon="14.63972107578977"><ele>420.25</ele><time>2026-04-04T11:25:12.999Z</time></trkpt><trkpt lat="41.08444108315799" lon="14.639849121708412"><ele>421.0</ele><time>2026-04-04T11:25:13.999Z</time></trkpt><trkpt lat="41.08454361048399" lon="14.63996455129836"><ele>421.0</ele><time>2026-04-04T11:25:14.999Z</time></trkpt><trkpt lat="41.08465549287319" lon="14.6400763767978"><ele>421.0</ele><time>2026-04-04T11:25:15.998Z</time></trkpt><trkpt lat="41.08477352415207" lon="14.640194191814796"><ele>421.0</ele><time>2026-04-04T11:25:16.998Z</time></trkpt><trkpt lat="41.08488550049572" lon="14.640294482554056"><ele>421.0</ele><time>2026-04-04T11:25:17.998Z</time></trkpt><trkpt lat="41.08499352837836" lon="14.640355475318408"><ele>423.0</ele><time>2026-04-04T11:25:18.998Z</time></trkpt><trkpt lat="41.08509392428848" lon="14.640409741841465"><ele>425.0</ele><time>2026-04-04T11:25:19.998Z</time></trkpt><trkpt lat="41.085178283633994" lon="14.640483450607713"><ele>427.0</ele><time>2026-04-04T11:25:20.998Z</time></trkpt><trkpt lat="41.08524604812385" lon="14.64058857321901"><ele>429.0</ele><time>2026-04-04T11:25:21.998Z</time></trkpt><trkpt lat="41.085305638282385" lon="14.640725274678633"><ele>431.0</ele><time>2026-04-04T11:25:22.998Z</time></trkpt><trkpt lat="41.085371833813035" lon="14.640874101399834"><ele>431.0</ele><time>2026-04-04T11:25:23.998Z</time></trkpt><trkpt lat="41.08546843210131" lon="14.64100843516545"><ele>431.0</ele><time>2026-04-04T11:25:24.998Z</time></trkpt><trkpt lat="41.08560987810984" lon="14.641134849657348"><ele>431.0</ele><time>2026-04-04T11:25:25.998Z</time></trkpt><trkpt lat="41.08576900163254" lon="14.641258702852163"><ele>432.5</ele><time>2026-04-04T11:25:26.998Z</time></trkpt><trkpt lat="41.0858807472345" lon="14.641357234202488"><ele>434.0</ele><time>2026-04-04T11:25:27.998Z</time></trkpt><trkpt lat="41.0859538320219" lon="14.641488095185332"><ele>435.5</ele><time>2026-04-04T11:25:28.998Z</time></trkpt><trkpt lat="41.086039619226746" lon="14.641607633946663"><ele>437.0</ele><time>2026-04-04T11:25:29.998Z</time></trkpt><trkpt lat="41.08611706353941" lon="14.641748723453556"><ele>437.0</ele><time>2026-04-04T11:25:30.998Z</time></trkpt><trkpt lat="41.08620004805792" lon="14.641886574882253"><ele>437.0</ele><time>2026-04-04T11:25:32Z</time></trkpt><trkpt lat="41.08628576258175" lon="14.64200595297572"><ele>437.0</ele><time>2026-04-04T11:25:33Z</time></trkpt><trkpt lat="41.086391292427564" lon="14.64209396921954"><ele>437.0</ele><time>2026-04-04T11:25:34Z</time></trkpt><trkpt lat="41.08650234703123" lon="14.642188026035619"><ele>437.5</ele><time>2026-04-04T11:25:35Z</time></trkpt><trkpt lat="41.08659124489654" lon="14.642339500950223"><ele>438.0</ele><time>2026-04-04T11:25:36Z</time></trkpt><trkpt lat="41.086694884533564" lon="14.64249984005495"><ele>438.5</ele><time>2026-04-04T11:25:37Z</time></trkpt><trkpt lat="41.08677843708674" lon="14.642623932207345"><ele>439.0</ele><time>2026-04-04T11:25:38Z</time></trkpt><trkpt lat="41.08686049491703" lon="14.64273213414826"><ele>442.0</ele><time>2026-04-04T11:25:39Z</time></trkpt><trkpt lat="41.08694063918587" lon="14.642848764430083"><ele>445.0</ele><time>2026-04-04T11:25:40Z</time></trkpt><trkpt lat="41.087001477798054" lon="14.642985012442933"><ele>448.0</ele><time>2026-04-04T11:25:41Z</time></trkpt><trkpt lat="41.087059396917866" lon="14.643118175853196"><ele>451.0</ele><time>2026-04-04T11:25:42Z</time></trkpt><trkpt lat="41.087112831333044" lon="14.643245013825556"><ele>451.00000000000006</ele><time>2026-04-04T11:25:43Z</time></trkpt><trkpt lat="41.08715810903359" lon="14.643359656653104"><ele>451.0</ele><time>2026-04-04T11:25:44Z</time></trkpt><trkpt lat="41.087186320274384" lon="14.643455569775288"><ele>451.0</ele><time>2026-04-04T11:25:45Z</time></trkpt><trkpt lat="41.08718969891812" lon="14.643606588324038"><ele>451.0</ele><time>2026-04-04T11:25:47Z</time></trkpt><trkpt lat="41.087204966163604" lon="14.643687914166014"><ele>451.00000000000006</ele><time>2026-04-04T11:25:48Z</time></trkpt><trkpt lat="41.08718788055525" lon="14.643792654984653"><ele>451.0</ele><time>2026-04-04T11:25:49Z</time></trkpt><trkpt lat="41.0871636380136" lon="14.643912438308382"><ele>453.0</ele><time>2026-04-04T11:25:50Z</time></trkpt><trkpt lat="41.08712935323429" lon="14.644032459771443"><ele>455.0</ele><time>2026-04-04T11:25:51Z</time></trkpt><trkpt lat="41.087093835168695" lon="14.644146134370992"><ele>457.0</ele><time>2026-04-04T11:25:52Z</time></trkpt><trkpt lat="41.087083686250274" lon="14.644304748335948"><ele>459.0</ele><time>2026-04-04T11:25:53Z</time></trkpt><trkpt lat="41.08710278352142" lon="14.644465950035785"><ele>461.0</ele><time>2026-04-04T11:25:54Z</time></trkpt><trkpt lat="41.087136804861245" lon="14.644628103655597"><ele>464.5</ele><time>2026-04-04T11:25:55Z</time></trkpt><trkpt lat="41.08720000612076" lon="14.644784244392582"><ele>468.0</ele><time>2026-04-04T11:25:56Z</time></trkpt><trkpt lat="41.087235326569065" lon="14.644969136435135"><ele>471.5</ele><time>2026-04-04T11:25:57Z</time></trkpt><trkpt lat="41.08729281907549" lon="14.645155833404797"><ele>475.0</ele><time>2026-04-04T11:25:58Z</time></trkpt><trkpt lat="41.08731785631115" lon="14.645363798990035"><ele>477.6666666666667</ele><time>2026-04-04T11:25:59Z</time></trkpt><trkpt lat="41.087340959084045" lon="14.645556415489235"><ele>480.33333333333337</ele><time>2026-04-04T11:26:00Z</time></trkpt><trkpt lat="41.087352101758675" lon="14.645764587819635"><ele>483.0</ele><time>2026-04-04T11:26:01Z</time></trkpt><trkpt lat="41.087339274991805" lon="14.645971433017914"><ele>481.33333333333337</ele><time>2026-04-04T11:26:02Z</time></trkpt><trkpt lat="41.08730947492267" lon="14.646161785576266"><ele>479.6666666666667</ele><time>2026-04-04T11:26:03Z</time></trkpt><trkpt lat="41.087274902341356" lon="14.646373296075321"><ele>478.0</ele><time>2026-04-04T11:26:04Z</time></trkpt><trkpt lat="41.087226169375285" lon="14.64660352498921"><ele>478.0</ele><time>2026-04-04T11:26:05Z</time></trkpt><trkpt lat="41.08721037543757" lon="14.646828344985591"><ele>478.0</ele><time>2026-04-04T11:26:06Z</time></trkpt><trkpt lat="41.08718793324104" lon="14.647036386418863"><ele>478.0</ele><time>2026-04-04T11:26:07Z</time></trkpt><trkpt lat="41.0871669155144" lon="14.64723056773992"><ele>478.5</ele><time>2026-04-04T11:26:08Z</time></trkpt><trkpt lat="41.08714121087891" lon="14.647422618112484"><ele>479.0</ele><time>2026-04-04T11:26:09Z</time></trkpt><trkpt lat="41.087126280273374" lon="14.647613315623282"><ele>479.5</ele><time>2026-04-04T11:26:10Z</time></trkpt><trkpt lat="41.08713020818855" lon="14.64779618546293"><ele>480.0</ele><time>2026-04-04T11:26:11Z</time></trkpt><trkpt lat="41.08715631728732" lon="14.647997614425488"><ele>482.0</ele><time>2026-04-04T11:26:12Z</time></trkpt><trkpt lat="41.087158419714825" lon="14.648202493853725"><ele>484.0</ele><time>2026-04-04T11:26:13Z</time></trkpt><trkpt lat="41.08716003077168" lon="14.648408256072349"><ele>486.0</ele><time>2026-04-04T11:26:14Z</time></trkpt><trkpt lat="41.08717854258609" lon="14.648591313519526"><ele>488.0</ele><time>2026-04-04T11:26:15Z</time></trkpt><trkpt lat="41.08722739993031" lon="14.648776967587482"><ele>490.0</ele><time>2026-04-04T11:26:16Z</time></trkpt><trkpt lat="41.087280023293474" lon="14.64893520766718"><ele>491.99999999999994</ele><time>2026-04-04T11:26:17Z</time></trkpt><trkpt lat="41.08731658291619" lon="14.649071604285414"><ele>493.99999999999994</ele><time>2026-04-04T11:26:18Z</time></trkpt><trkpt lat="41.08734145435427" lon="14.649186015965133"><ele>496.0</ele><time>2026-04-04T11:26:18.999Z</time></trkpt><trkpt lat="41.087344461244065" lon="14.649310898655601"><ele>498.0</ele><time>2026-04-04T11:26:19.999Z</time></trkpt><trkpt lat="41.08732653317938" lon="14.64944833163772"><ele>501.25</ele><time>2026-04-04T11:26:20.999Z</time></trkpt><trkpt lat="41.08730198924109" lon="14.649593743199043"><ele>504.5</ele><time>2026-04-04T11:26:21.999Z</time></trkpt><trkpt lat="41.087267391556516" lon="14.649747062658482"><ele>507.75</ele><time>2026-04-04T11:26:22.999Z</time></trkpt><trkpt lat="41.087238187710376" lon="14.649895567380778"><ele>511.0</ele><time>2026-04-04T11:26:23.999Z</time></trkpt><trkpt lat="41.0872302962446" lon="14.650049237089615"><ele>511.0</ele><time>2026-04-04T11:26:24.999Z</time></trkpt><trkpt lat="41.0872240308685" lon="14.650192258528746"><ele>511.0</ele><time>2026-04-04T11:26:25.999Z</time></trkpt><trkpt lat="41.08721433564879" lon="14.650342343728866"><ele>511.0</ele><time>2026-04-04T11:26:26.999Z</time></trkpt><trkpt lat="41.087207693079705" lon="14.650465855762375"><ele>511.0</ele><time>2026-04-04T11:26:27.999Z</time></trkpt><trkpt lat="41.08720983353533" lon="14.65055552660206"><ele>511.0</ele><time>2026-04-04T11:26:28.999Z</time></trkpt><trkpt lat="41.08720759788507" lon="14.650677842711197"><ele>513.0</ele><time>2026-04-04T11:26:30.999Z</time></trkpt><trkpt lat="41.08716207475027" lon="14.650774307646886"><ele>515.0</ele><time>2026-04-04T11:26:32.999Z</time></trkpt><trkpt lat="41.0871000389566" lon="14.650817263539045"><ele>517.0</ele><time>2026-04-04T11:26:33.999Z</time></trkpt><trkpt lat="41.08701348863654" lon="14.650839229650552"><ele>519.0</ele><time>2026-04-04T11:26:34.999Z</time></trkpt><trkpt lat="41.08691838379897" lon="14.650863654692225"><ele>521.0</ele><time>2026-04-04T11:26:35.999Z</time></trkpt><trkpt lat="41.086825410719584" lon="14.650926745072223"><ele>523.0</ele><time>2026-04-04T11:26:36.999Z</time></trkpt><trkpt lat="41.086713604984986" lon="14.651033835546892"><ele>523.0</ele><time>2026-04-04T11:26:37.999Z</time></trkpt><trkpt lat="41.08661534499485" lon="14.65112362528698"><ele>523.0</ele><time>2026-04-04T11:26:38.999Z</time></trkpt><trkpt lat="41.0865286221653" lon="14.65119340396644"><ele>523.0</ele><time>2026-04-04T11:26:39.999Z</time></trkpt><trkpt lat="41.08646502616864" lon="14.651269933160428"><ele>523.0</ele><time>2026-04-04T11:26:40.999Z</time></trkpt><trkpt lat="41.086419571764274" lon="14.651367900434371"><ele>523.0</ele><time>2026-04-04T11:26:41.999Z</time></trkpt><trkpt lat="41.08637897646892" lon="14.651502018321452"><ele>523.25</ele><time>2026-04-04T11:26:42.999Z</time></trkpt><trkpt lat="41.086345802144486" lon="14.651648701703749"><ele>523.5</ele><time>2026-04-04T11:26:43.999Z</time></trkpt><trkpt lat="41.08633044558912" lon="14.651809979589908"><ele>523.75</ele><time>2026-04-04T11:26:44.999Z</time></trkpt><trkpt lat="41.08634114329042" lon="14.651975832748294"><ele>524.0</ele><time>2026-04-04T11:26:45.999Z</time></trkpt><trkpt lat="41.086354932933645" lon="14.652143729129437"><ele>524.0</ele><time>2026-04-04T11:26:46.999Z</time></trkpt><trkpt lat="41.086384520710766" lon="14.652320760080917"><ele>524.0</ele><time>2026-04-04T11:26:47.999Z</time></trkpt><trkpt lat="41.086428531788144" lon="14.65250349840346"><ele>524.0</ele><time>2026-04-04T11:26:48.999Z</time></trkpt><trkpt lat="41.0864962851622" lon="14.652624813874853"><ele>524.0</ele><time>2026-04-04T11:26:49.999Z</time></trkpt><trkpt lat="41.086593155196674" lon="14.65272199001056"><ele>528.0</ele><time>2026-04-04T11:26:50.999Z</time></trkpt><trkpt lat="41.08672089305055" lon="14.652826479758904"><ele>532.0</ele><time>2026-04-04T11:26:51.999Z</time></trkpt><trkpt lat="41.08681081207431" lon="14.652942947870818"><ele>536.0</ele><time>2026-04-04T11:26:52.999Z</time></trkpt><trkpt lat="41.086880445942796" lon="14.653067758904434"><ele>540.0</ele><time>2026-04-04T11:26:53.999Z</time></trkpt><trkpt lat="41.08694213852559" lon="14.65317636942122"><ele>540.0</ele><time>2026-04-04T11:26:54.999Z</time></trkpt><trkpt lat="41.08701383112562" lon="14.653263169765303"><ele>540.0</ele><time>2026-04-04T11:26:55.999Z</time></trkpt><trkpt lat="41.08709742318839" lon="14.653325260624765"><ele>540.0</ele><time>2026-04-04T11:26:56.999Z</time></trkpt><trkpt lat="41.08715236054863" lon="14.653378600328065"><ele>540.0</ele><time>2026-04-04T11:26:57.999Z</time></trkpt><trkpt lat="41.087207733772495" lon="14.65342222618147"><ele>540.0</ele><time>2026-04-04T11:26:58.999Z</time></trkpt><trkpt lat="41.08725105265233" lon="14.653503283483548"><ele>540.0</ele><time>2026-04-04T11:27:00.999Z</time></trkpt><trkpt lat="41.087200627497204" lon="14.653587355139331"><ele>541.5</ele><time>2026-04-04T11:27:02.999Z</time></trkpt><trkpt lat="41.08713243874058" lon="14.653711129484964"><ele>543.0</ele><time>2026-04-04T11:27:03.999Z</time></trkpt><trkpt lat="41.0870456770204" lon="14.653836079072798"><ele>544.5</ele><time>2026-04-04T11:27:04.999Z</time></trkpt><trkpt lat="41.08694491837416" lon="14.653987360629346"><ele>546.0</ele><time>2026-04-04T11:27:05.999Z</time></trkpt><trkpt lat="41.086844246696174" lon="14.654135450131122"><ele>546.0</ele><time>2026-04-04T11:27:06.999Z</time></trkpt><trkpt lat="41.08672840914881" lon="14.654306774094586"><ele>546.0</ele><time>2026-04-04T11:27:07.999Z</time></trkpt><trkpt lat="41.086621351429635" lon="14.654456944213969"><ele>546.0</ele><time>2026-04-04T11:27:08.999Z</time></trkpt><trkpt lat="41.08651106198779" lon="14.654602623617478"><ele>545.75</ele><time>2026-04-04T11:27:09.999Z</time></trkpt><trkpt lat="41.08639938571016" lon="14.654733807112645"><ele>545.5</ele><time>2026-04-04T11:27:10.999Z</time></trkpt><trkpt lat="41.08629486431594" lon="14.654864627083581"><ele>545.25</ele><time>2026-04-04T11:27:11.999Z</time></trkpt><trkpt lat="41.08619536712183" lon="14.654985789726778"><ele>545.0</ele><time>2026-04-04T11:27:12.999Z</time></trkpt><trkpt lat="41.08609851306622" lon="14.655102561471955"><ele>545.0</ele><time>2026-04-04T11:27:13.999Z</time></trkpt><trkpt lat="41.086008743982994" lon="14.655190094930523"><ele>545.0</ele><time>2026-04-04T11:27:14.999Z</time></trkpt><trkpt lat="41.085921535502244" lon="14.655255343774071"><ele>545.0</ele><time>2026-04-04T11:27:15.999Z</time></trkpt><trkpt lat="41.08584221220724" lon="14.655306239483503"><ele>545.0</ele><time>2026-04-04T11:27:16.999Z</time></trkpt><trkpt lat="41.085780997378215" lon="14.655337214093295"><ele>545.0</ele><time>2026-04-04T11:27:17.999Z</time></trkpt><trkpt lat="41.08571329176201" lon="14.655366378918108"><ele>545.0</ele><time>2026-04-04T11:27:19.999Z</time></trkpt><trkpt lat="41.08581088518083" lon="14.655650892701875"><ele>545.75</ele><time>2026-04-04T11:27:22.999Z</time></trkpt><trkpt lat="41.08588925995246" lon="14.655720582419466"><ele>546.5</ele><time>2026-04-04T11:27:23.999Z</time></trkpt><trkpt lat="41.08599431199636" lon="14.655755312769275"><ele>547.25</ele><time>2026-04-04T11:27:24.999Z</time></trkpt><trkpt lat="41.086106865336966" lon="14.655821689625006"><ele>548.0</ele><time>2026-04-04T11:27:25.999Z</time></trkpt><trkpt lat="41.086226896446874" lon="14.655879948094727"><ele>548.0</ele><time>2026-04-04T11:27:26.999Z</time></trkpt><trkpt lat="41.08635924472609" lon="14.655958411380876"><ele>548.0</ele><time>2026-04-04T11:27:27.999Z</time></trkpt><trkpt lat="41.08649936438006" lon="14.656038183541519"><ele>548.0</ele><time>2026-04-04T11:27:28.999Z</time></trkpt><trkpt lat="41.08664760570388" lon="14.656117939947825"><ele>549.6666666666666</ele><time>2026-04-04T11:27:29.999Z</time></trkpt><trkpt lat="41.08680331631781" lon="14.65619949985014"><ele>551.3333333333334</ele><time>2026-04-04T11:27:30.999Z</time></trkpt><trkpt lat="41.08695782681248" lon="14.65628376392858"><ele>553.0</ele><time>2026-04-04T11:27:31.999Z</time></trkpt><trkpt lat="41.08710948466384" lon="14.656349308215505"><ele>553.0</ele><time>2026-04-04T11:27:32.998Z</time></trkpt><trkpt lat="41.08727080781145" lon="14.656393427647034"><ele>553.0</ele><time>2026-04-04T11:27:33.998Z</time></trkpt><trkpt lat="41.08744353409359" lon="14.656394645414235"><ele>553.0</ele><time>2026-04-04T11:27:34.998Z</time></trkpt><trkpt lat="41.08763351080926" lon="14.656397359130056"><ele>555.6666666666667</ele><time>2026-04-04T11:27:35.998Z</time></trkpt><trkpt lat="41.08782290071812" lon="14.65639545456544"><ele>558.3333333333334</ele><time>2026-04-04T11:27:36.998Z</time></trkpt><trkpt lat="41.0880165678179" lon="14.656397045687088"><ele>561.0</ele><time>2026-04-04T11:27:38Z</time></trkpt><trkpt lat="41.088212607061" lon="14.656403940109595"><ele>563.6666666666666</ele><time>2026-04-04T11:27:39Z</time></trkpt><trkpt lat="41.08840505199637" lon="14.656413569607663"><ele>566.3333333333333</ele><time>2026-04-04T11:27:40Z</time></trkpt><trkpt lat="41.08859478731631" lon="14.656415280967858"><ele>569.0</ele><time>2026-04-04T11:27:41Z</time></trkpt><trkpt lat="41.08878819714914" lon="14.656421399725668"><ele>569.0</ele><time>2026-04-04T11:27:42Z</time></trkpt><trkpt lat="41.08895167453308" lon="14.656420892682197"><ele>569.0</ele><time>2026-04-04T11:27:43Z</time></trkpt><trkpt lat="41.08909468631593" lon="14.656425779196198"><ele>569.0</ele><time>2026-04-04T11:27:44Z</time></trkpt><trkpt lat="41.08923944443647" lon="14.656441385411044"><ele>572.5</ele><time>2026-04-04T11:27:45Z</time></trkpt><trkpt lat="41.08935705703821" lon="14.656460295670083"><ele>576.0</ele><time>2026-04-04T11:27:46Z</time></trkpt><trkpt lat="41.089469164160704" lon="14.656541050723838"><ele>579.5</ele><time>2026-04-04T11:27:47Z</time></trkpt><trkpt lat="41.08955426378198" lon="14.656681570430143"><ele>583.0</ele><time>2026-04-04T11:27:48Z</time></trkpt><trkpt lat="41.08962822146663" lon="14.656871329608663"><ele>581.3333333333334</ele><time>2026-04-04T11:27:49Z</time></trkpt><trkpt lat="41.089690561154114" lon="14.657097186765807"><ele>579.6666666666666</ele><time>2026-04-04T11:27:50Z</time></trkpt><trkpt lat="41.08973987714429" lon="14.657341359205127"><ele>578.0</ele><time>2026-04-04T11:27:51Z</time></trkpt><trkpt lat="41.08979748576487" lon="14.657548990232376"><ele>580.0</ele><time>2026-04-04T11:27:52Z</time></trkpt><trkpt lat="41.08988703092882" lon="14.6578202423529"><ele>582.0</ele><time>2026-04-04T11:27:53Z</time></trkpt><trkpt lat="41.0899833305245" lon="14.658083595662239"><ele>584.0</ele><time>2026-04-04T11:27:54Z</time></trkpt><trkpt lat="41.09009144257286" lon="14.658354330189491"><ele>591.0</ele><time>2026-04-04T11:27:55Z</time></trkpt><trkpt lat="41.090204568334016" lon="14.65860775483104"><ele>598.0</ele><time>2026-04-04T11:27:56Z</time></trkpt><trkpt lat="41.09033799585766" lon="14.658861930573579"><ele>600.0</ele><time>2026-04-04T11:27:57Z</time></trkpt><trkpt lat="41.09044804196239" lon="14.659134948209248"><ele>602.0</ele><time>2026-04-04T11:27:58Z</time></trkpt><trkpt lat="41.09057278623793" lon="14.659405086950661"><ele>602.5</ele><time>2026-04-04T11:27:59Z</time></trkpt><trkpt lat="41.09071170844102" lon="14.659663894713212"><ele>603.0</ele><time>2026-04-04T11:28:00Z</time></trkpt><trkpt lat="41.09085891259698" lon="14.659952639958105"><ele>603.0</ele><time>2026-04-04T11:28:01Z</time></trkpt><trkpt lat="41.091028515824156" lon="14.660246592699316"><ele>603.0</ele><time>2026-04-04T11:28:02Z</time></trkpt><trkpt lat="41.09119601588902" lon="14.660541535683189"><ele>600.5</ele><time>2026-04-04T11:28:03Z</time></trkpt><trkpt lat="41.09134916473366" lon="14.660856967512395"><ele>598.0</ele><time>2026-04-04T11:28:04Z</time></trkpt><trkpt lat="41.09149853979402" lon="14.66113382536243"><ele>603.5</ele><time>2026-04-04T11:28:05Z</time></trkpt><trkpt lat="41.091633333246556" lon="14.661382490883026"><ele>609.0</ele><time>2026-04-04T11:28:06Z</time></trkpt><trkpt lat="41.09176584175308" lon="14.66161801159461"><ele>609.0</ele><time>2026-04-04T11:28:07Z</time></trkpt><trkpt lat="41.09184938990349" lon="14.661866732448676"><ele>609.0</ele><time>2026-04-04T11:28:08Z</time></trkpt><trkpt lat="41.09191597672623" lon="14.662120145089984"><ele>609.0</ele><time>2026-04-04T11:28:09Z</time></trkpt><trkpt lat="41.09195275948519" lon="14.662394112590203"><ele>608.5</ele><time>2026-04-04T11:28:10Z</time></trkpt><trkpt lat="41.09197208943586" lon="14.662704271073151"><ele>608.0</ele><time>2026-04-04T11:28:11Z</time></trkpt><trkpt lat="41.09198657292565" lon="14.663051128117122"><ele>609.5</ele><time>2026-04-04T11:28:12Z</time></trkpt><trkpt lat="41.09199915547075" lon="14.663397674057286"><ele>611.0</ele><time>2026-04-04T11:28:13Z</time></trkpt><trkpt lat="41.09201538697846" lon="14.663760711953593"><ele>611.5</ele><time>2026-04-04T11:28:14Z</time></trkpt><trkpt lat="41.092027389162865" lon="14.66413013008517"><ele>612.0</ele><time>2026-04-04T11:28:15Z</time></trkpt><trkpt lat="41.092057721970384" lon="14.664446514168326"><ele>613.6666666666666</ele><time>2026-04-04T11:28:16Z</time></trkpt><trkpt lat="41.09207004995887" lon="14.664714008118244"><ele>615.3333333333333</ele><time>2026-04-04T11:28:17Z</time></trkpt><trkpt lat="41.092076391179226" lon="14.66498169304955"><ele>617.0</ele><time>2026-04-04T11:28:18Z</time></trkpt><trkpt lat="41.092075746486394" lon="14.665223625042845"><ele>621.3333333333333</ele><time>2026-04-04T11:28:19Z</time></trkpt><trkpt lat="41.09206812089502" lon="14.66544086339793"><ele>625.6666666666666</ele><time>2026-04-04T11:28:20Z</time></trkpt><trkpt lat="41.092050580616984" lon="14.665637750173856"><ele>630.0</ele><time>2026-04-04T11:28:21Z</time></trkpt><trkpt lat="41.09201436102682" lon="14.665827874139616"><ele>630.0</ele><time>2026-04-04T11:28:22Z</time></trkpt><trkpt lat="41.09193897616815" lon="14.666036306375569"><ele>630.0</ele><time>2026-04-04T11:28:23Z</time></trkpt><trkpt lat="41.09184688666376" lon="14.666231831704641"><ele>630.0</ele><time>2026-04-04T11:28:24Z</time></trkpt><trkpt lat="41.09177717530593" lon="14.666408244221234"><ele>628.5</ele><time>2026-04-04T11:28:25Z</time></trkpt><trkpt lat="41.09174126412703" lon="14.666582635761"><ele>627.0</ele><time>2026-04-04T11:28:26Z</time></trkpt><trkpt lat="41.09176161349719" lon="14.666766125943518"><ele>625.5</ele><time>2026-04-04T11:28:27Z</time></trkpt><trkpt lat="41.09183063885871" lon="14.666947525092294"><ele>624.0</ele><time>2026-04-04T11:28:28Z</time></trkpt><trkpt lat="41.09192211031197" lon="14.667121300123409"><ele>622.75</ele><time>2026-04-04T11:28:29Z</time></trkpt><trkpt lat="41.091999131002744" lon="14.667275281018577"><ele>621.5</ele><time>2026-04-04T11:28:30Z</time></trkpt><trkpt lat="41.09206163325092" lon="14.66742598762035"><ele>620.25</ele><time>2026-04-04T11:28:31Z</time></trkpt><trkpt lat="41.09211060630134" lon="14.66758050047556"><ele>619.0</ele><time>2026-04-04T11:28:32Z</time></trkpt><trkpt lat="41.09213112481936" lon="14.667739823943927"><ele>614.0</ele><time>2026-04-04T11:28:32.999Z</time></trkpt><trkpt lat="41.09217049946811" lon="14.667841105031187"><ele>609.0</ele><time>2026-04-04T11:28:33.999Z</time></trkpt><trkpt lat="41.09198159465507" lon="14.668014543006802"><ele>604.0</ele><time>2026-04-04T11:28:34.999Z</time></trkpt><trkpt lat="41.09181922222919" lon="14.668103439945178"><ele>604.0</ele><time>2026-04-04T11:28:35.999Z</time></trkpt><trkpt lat="41.091644121667784" lon="14.66818624068048"><ele>604.0</ele><time>2026-04-04T11:28:36.999Z</time></trkpt><trkpt lat="41.091459951655445" lon="14.668283685708769"><ele>604.0</ele><time>2026-04-04T11:28:37.999Z</time></trkpt><trkpt lat="41.0912960881513" lon="14.668371070680582"><ele>604.6666666666667</ele><time>2026-04-04T11:28:38.999Z</time></trkpt><trkpt lat="41.09114315937018" lon="14.668450101705718"><ele>605.3333333333334</ele><time>2026-04-04T11:28:39.999Z</time></trkpt><trkpt lat="41.090996528500035" lon="14.668531896205627"><ele>606.0</ele><time>2026-04-04T11:28:40.999Z</time></trkpt><trkpt lat="41.09087647495687" lon="14.668607033330755"><ele>602.6</ele><time>2026-04-04T11:28:41.999Z</time></trkpt><trkpt lat="41.0907844639457" lon="14.668675288007327"><ele>599.2</ele><time>2026-04-04T11:28:42.999Z</time></trkpt><trkpt lat="41.09073133496516" lon="14.668763237772799"><ele>595.8</ele><time>2026-04-04T11:28:43.999Z</time></trkpt><trkpt lat="41.09070416853714" lon="14.66886461171061"><ele>592.4</ele><time>2026-04-04T11:28:44.999Z</time></trkpt><trkpt lat="41.090703656862004" lon="14.668968443083683"><ele>589.0</ele><time>2026-04-04T11:28:45.999Z</time></trkpt><trkpt lat="41.09078232364259" lon="14.669073674423432"><ele>589.0</ele><time>2026-04-04T11:28:46.999Z</time></trkpt><trkpt lat="41.09087907371411" lon="14.669129924431711"><ele>589.0</ele><time>2026-04-04T11:28:47.999Z</time></trkpt><trkpt lat="41.09099854365295" lon="14.66914494400521"><ele>589.0</ele><time>2026-04-04T11:28:48.999Z</time></trkpt><trkpt lat="41.09114049145807" lon="14.669143564690645"><ele>589.0</ele><time>2026-04-04T11:28:49.999Z</time></trkpt><trkpt lat="41.091306766670044" lon="14.66913640977652"><ele>589.0</ele><time>2026-04-04T11:28:50.999Z</time></trkpt><trkpt lat="41.091459975618626" lon="14.669133270962924"><ele>589.0</ele><time>2026-04-04T11:28:51.999Z</time></trkpt><trkpt lat="41.091581595958786" lon="14.669178059089507"><ele>589.0</ele><time>2026-04-04T11:28:52.999Z</time></trkpt><trkpt lat="41.091669272457416" lon="14.669236387713923"><ele>589.0</ele><time>2026-04-04T11:28:53.999Z</time></trkpt><trkpt lat="41.091730092778576" lon="14.669319340808356"><ele>589.5</ele><time>2026-04-04T11:28:54.999Z</time></trkpt><trkpt lat="41.09177315922413" lon="14.669441169378894"><ele>590.0</ele><time>2026-04-04T11:28:55.999Z</time></trkpt><trkpt lat="41.091804359089274" lon="14.669583877843438"><ele>590.5</ele><time>2026-04-04T11:28:56.999Z</time></trkpt><trkpt lat="41.091774054663205" lon="14.669759657320855"><ele>591.0</ele><time>2026-04-04T11:28:57.999Z</time></trkpt><trkpt lat="41.0917039335942" lon="14.669884709242485"><ele>587.75</ele><time>2026-04-04T11:28:58.999Z</time></trkpt><trkpt lat="41.09161343254" lon="14.669981721608242"><ele>584.5</ele><time>2026-04-04T11:28:59.999Z</time></trkpt><trkpt lat="41.09150168575474" lon="14.670056714246611"><ele>581.25</ele><time>2026-04-04T11:29:00.999Z</time></trkpt><trkpt lat="41.09138781375424" lon="14.67011650129627"><ele>578.0</ele><time>2026-04-04T11:29:01.999Z</time></trkpt><trkpt lat="41.09127261940953" lon="14.670152563773671"><ele>577.25</ele><time>2026-04-04T11:29:02.999Z</time></trkpt><trkpt lat="41.09114604198295" lon="14.670185293887595"><ele>576.5</ele><time>2026-04-04T11:29:03.999Z</time></trkpt><trkpt lat="41.09100526778686" lon="14.67017134791274"><ele>575.75</ele><time>2026-04-04T11:29:04.999Z</time></trkpt><trkpt lat="41.09085568332752" lon="14.670138658606582"><ele>575.0</ele><time>2026-04-04T11:29:05.999Z</time></trkpt><trkpt lat="41.090708755914065" lon="14.670102524515796"><ele>575.0</ele><time>2026-04-04T11:29:06.999Z</time></trkpt><trkpt lat="41.09057203954889" lon="14.6700608909523"><ele>575.0</ele><time>2026-04-04T11:29:07.999Z</time></trkpt><trkpt lat="41.090447961213414" lon="14.670020029126073"><ele>575.0</ele><time>2026-04-04T11:29:08.999Z</time></trkpt><trkpt lat="41.090343429658226" lon="14.67000079135734"><ele>575.0</ele><time>2026-04-04T11:29:09.999Z</time></trkpt><trkpt lat="41.09024140379058" lon="14.670000533551534"><ele>575.0</ele><time>2026-04-04T11:29:10.999Z</time></trkpt><trkpt lat="41.09015147435726" lon="14.670028340474499"><ele>575.0</ele><time>2026-04-04T11:29:11.999Z</time></trkpt><trkpt lat="41.090066379092846" lon="14.670095117639185"><ele>575.0</ele><time>2026-04-04T11:29:12.999Z</time></trkpt><trkpt lat="41.09000175802243" lon="14.67021346858607"><ele>575.0</ele><time>2026-04-04T11:29:13.999Z</time></trkpt><trkpt lat="41.08996816411513" lon="14.670351818445885"><ele>575.0</ele><time>2026-04-04T11:29:14.999Z</time></trkpt><trkpt lat="41.08997871620811" lon="14.670492316065575"><ele>572.25</ele><time>2026-04-04T11:29:15.999Z</time></trkpt><trkpt lat="41.09002757236135" lon="14.670630312237105"><ele>569.5</ele><time>2026-04-04T11:29:16.999Z</time></trkpt><trkpt lat="41.09011006911381" lon="14.67075505982476"><ele>566.75</ele><time>2026-04-04T11:29:17.999Z</time></trkpt><trkpt lat="41.09017761055395" lon="14.6708923189049"><ele>564.0</ele><time>2026-04-04T11:29:18.999Z</time></trkpt><trkpt lat="41.0902627254813" lon="14.671012940161965"><ele>561.0</ele><time>2026-04-04T11:29:19.999Z</time></trkpt><trkpt lat="41.09033039113279" lon="14.671148348844406"><ele>558.0</ele><time>2026-04-04T11:29:20.999Z</time></trkpt><trkpt lat="41.09041767291176" lon="14.671264313640867"><ele>555.0</ele><time>2026-04-04T11:29:21.999Z</time></trkpt><trkpt lat="41.09050273181423" lon="14.671386573252843"><ele>552.0</ele><time>2026-04-04T11:29:22.999Z</time></trkpt><trkpt lat="41.09058546704546" lon="14.671467385567206"><ele>552.0</ele><time>2026-04-04T11:29:23.999Z</time></trkpt><trkpt lat="41.09068753853873" lon="14.671537073505089"><ele>552.0</ele><time>2026-04-04T11:29:24.999Z</time></trkpt><trkpt lat="41.09078250443763" lon="14.671616843994821"><ele>552.0</ele><time>2026-04-04T11:29:25.999Z</time></trkpt><trkpt lat="41.09088549201923" lon="14.671686431502842"><ele>552.0</ele><time>2026-04-04T11:29:26.999Z</time></trkpt><trkpt lat="41.09099054909887" lon="14.671744437413569"><ele>552.0</ele><time>2026-04-04T11:29:27.999Z</time></trkpt><trkpt lat="41.09108015754345" lon="14.671804211028364"><ele>552.0</ele><time>2026-04-04T11:29:28.999Z</time></trkpt><trkpt lat="41.091151683749075" lon="14.671862141167209"><ele>552.0</ele><time>2026-04-04T11:29:29.999Z</time></trkpt><trkpt lat="41.091184574255294" lon="14.671938327738573"><ele>552.0</ele><time>2026-04-04T11:29:30.999Z</time></trkpt><trkpt lat="41.091164849563384" lon="14.67222043055401"><ele>549.25</ele><time>2026-04-04T11:29:32.999Z</time></trkpt><trkpt lat="41.091143596857364" lon="14.67244012947215"><ele>546.5</ele><time>2026-04-04T11:29:33.999Z</time></trkpt><trkpt lat="41.091145320116084" lon="14.672634973651109"><ele>543.75</ele><time>2026-04-04T11:29:34.999Z</time></trkpt><trkpt lat="41.09112975888417" lon="14.672807559558835"><ele>541.0</ele><time>2026-04-04T11:29:35.999Z</time></trkpt><trkpt lat="41.091135861544046" lon="14.672956153390379"><ele>539.2</ele><time>2026-04-04T11:29:36.999Z</time></trkpt><trkpt lat="41.09114689627846" lon="14.673072547889522"><ele>537.4000000000001</ele><time>2026-04-04T11:29:37.999Z</time></trkpt><trkpt lat="41.09116749997969" lon="14.673180121487501"><ele>535.6</ele><time>2026-04-04T11:29:38.999Z</time></trkpt><trkpt lat="41.09121128124833" lon="14.673269341132103"><ele>533.8000000000001</ele><time>2026-04-04T11:29:39.999Z</time></trkpt><trkpt lat="41.09126471599585" lon="14.673423210432974"><ele>532.0</ele><time>2026-04-04T11:29:40.999Z</time></trkpt><trkpt lat="41.091287160836444" lon="14.673581330515045"><ele>531.5</ele><time>2026-04-04T11:29:41.999Z</time></trkpt><trkpt lat="41.09134841326287" lon="14.674010644535532"><ele>531.0</ele><time>2026-04-04T11:29:42.998Z</time></trkpt><trkpt lat="41.091142084233866" lon="14.67415751492667"><ele>531.0</ele><time>2026-04-04T11:29:44Z</time></trkpt><trkpt lat="41.091057612878785" lon="14.674312379298728"><ele>531.0</ele><time>2026-04-04T11:29:45Z</time></trkpt><trkpt lat="41.09096820513558" lon="14.674476293751557"><ele>531.0</ele><time>2026-04-04T11:29:46Z</time></trkpt><trkpt lat="41.09054511464962" lon="14.674290430078683"><ele>527.5</ele><time>2026-04-04T11:29:47Z</time></trkpt><trkpt lat="41.09045427880052" lon="14.67439641259973"><ele>524.0</ele><time>2026-04-04T11:29:48Z</time></trkpt><trkpt lat="41.09038829666344" lon="14.674508983644213"><ele>520.5</ele><time>2026-04-04T11:29:49Z</time></trkpt><trkpt lat="41.09034261237455" lon="14.674639522310754"><ele>517.0</ele><time>2026-04-04T11:29:50Z</time></trkpt><trkpt lat="41.09031751809385" lon="14.674791914963947"><ele>515.25</ele><time>2026-04-04T11:29:51Z</time></trkpt><trkpt lat="41.09030495759717" lon="14.674940702969046"><ele>513.5</ele><time>2026-04-04T11:29:52Z</time></trkpt><trkpt lat="41.09032862410645" lon="14.675110842933444"><ele>511.75</ele><time>2026-04-04T11:29:53Z</time></trkpt><trkpt lat="41.09034727969858" lon="14.67526855189334"><ele>510.0</ele><time>2026-04-04T11:29:54Z</time></trkpt><trkpt lat="41.09035593078448" lon="14.675420035817082"><ele>508.0</ele><time>2026-04-04T11:29:55Z</time></trkpt><trkpt lat="41.0903680659716" lon="14.675576814671555"><ele>506.0</ele><time>2026-04-04T11:29:56Z</time></trkpt><trkpt lat="41.09039043002545" lon="14.67573614160422"><ele>504.0</ele><time>2026-04-04T11:29:57Z</time></trkpt><trkpt lat="41.09040015607813" lon="14.67589834855354"><ele>502.0</ele><time>2026-04-04T11:29:58Z</time></trkpt><trkpt lat="41.09041737286238" lon="14.676060995165326"><ele>499.75</ele><time>2026-04-04T11:29:59Z</time></trkpt><trkpt lat="41.09042532615574" lon="14.676229127029732"><ele>497.5</ele><time>2026-04-04T11:30:00Z</time></trkpt><trkpt lat="41.09041808546938" lon="14.676386606655951"><ele>495.25</ele><time>2026-04-04T11:30:01Z</time></trkpt><trkpt lat="41.090409553770925" lon="14.676545582707766"><ele>493.0</ele><time>2026-04-04T11:30:02Z</time></trkpt><trkpt lat="41.09041852582471" lon="14.676700820494528"><ele>493.0</ele><time>2026-04-04T11:30:03Z</time></trkpt><trkpt lat="41.09042501949945" lon="14.676826497334723"><ele>492.99999999999994</ele><time>2026-04-04T11:30:04Z</time></trkpt><trkpt lat="41.09045899065811" lon="14.676924890529275"><ele>492.99999999999994</ele><time>2026-04-04T11:30:05Z</time></trkpt><trkpt lat="41.09042875664386" lon="14.677063868201007"><ele>493.0</ele><time>2026-04-04T11:30:07Z</time></trkpt><trkpt lat="41.09039287577669" lon="14.677198300588026"><ele>493.0</ele><time>2026-04-04T11:30:08Z</time></trkpt><trkpt lat="41.09033006580525" lon="14.67736548422913"><ele>490.6666666666667</ele><time>2026-04-04T11:30:09Z</time></trkpt><trkpt lat="41.090255079052035" lon="14.677533722865196"><ele>488.33333333333337</ele><time>2026-04-04T11:30:10Z</time></trkpt><trkpt lat="41.090155422238254" lon="14.677697982168153"><ele>486.0</ele><time>2026-04-04T11:30:11Z</time></trkpt><trkpt lat="41.0900241745194" lon="14.677839625958216"><ele>480.33333333333337</ele><time>2026-04-04T11:30:12Z</time></trkpt><trkpt lat="41.08989641046039" lon="14.677968374164287"><ele>474.6666666666667</ele><time>2026-04-04T11:30:13Z</time></trkpt><trkpt lat="41.08978714073737" lon="14.678103578250255"><ele>469.0</ele><time>2026-04-04T11:30:14Z</time></trkpt><trkpt lat="41.0897014314432" lon="14.678267681736564"><ele>469.0</ele><time>2026-04-04T11:30:15Z</time></trkpt><trkpt lat="41.08964699043497" lon="14.678459470573129"><ele>469.0</ele><time>2026-04-04T11:30:16Z</time></trkpt><trkpt lat="41.08961942343652" lon="14.678648452065357"><ele>469.0</ele><time>2026-04-04T11:30:17Z</time></trkpt><trkpt lat="41.089643123584715" lon="14.678839381428773"><ele>469.0</ele><time>2026-04-04T11:30:18Z</time></trkpt><trkpt lat="41.089703774886054" lon="14.679043174867052"><ele>468.33333333333337</ele><time>2026-04-04T11:30:19Z</time></trkpt><trkpt lat="41.0898126589174" lon="14.679258565899477"><ele>467.66666666666663</ele><time>2026-04-04T11:30:20Z</time></trkpt><trkpt lat="41.089911274202066" lon="14.679486668079614"><ele>467.0</ele><time>2026-04-04T11:30:21Z</time></trkpt><trkpt lat="41.08999125133974" lon="14.679721033660872"><ele>467.0</ele><time>2026-04-04T11:30:22Z</time></trkpt><trkpt lat="41.090050304805864" lon="14.679953183347097"><ele>467.0</ele><time>2026-04-04T11:30:23Z</time></trkpt><trkpt lat="41.09009295350486" lon="14.680180864777684"><ele>467.0</ele><time>2026-04-04T11:30:24Z</time></trkpt><trkpt lat="41.09011788075783" lon="14.680403884578984"><ele>465.0</ele><time>2026-04-04T11:30:25Z</time></trkpt><trkpt lat="41.09012173687966" lon="14.680626630958422"><ele>463.0</ele><time>2026-04-04T11:30:26Z</time></trkpt><trkpt lat="41.090084869427486" lon="14.680850926256177"><ele>461.0</ele><time>2026-04-04T11:30:27Z</time></trkpt><trkpt lat="41.090007290938054" lon="14.681088067709252"><ele>457.0</ele><time>2026-04-04T11:30:28Z</time></trkpt><trkpt lat="41.08990460095751" lon="14.68133855726077"><ele>453.0</ele><time>2026-04-04T11:30:29Z</time></trkpt><trkpt lat="41.089796684520664" lon="14.681599836922635"><ele>449.0</ele><time>2026-04-04T11:30:30Z</time></trkpt><trkpt lat="41.08969637286647" lon="14.681859918132965"><ele>449.3333333333333</ele><time>2026-04-04T11:30:31Z</time></trkpt><trkpt lat="41.089595032010166" lon="14.68211748298149"><ele>449.66666666666663</ele><time>2026-04-04T11:30:32Z</time></trkpt><trkpt lat="41.089499960377424" lon="14.682355972630681"><ele>450.0</ele><time>2026-04-04T11:30:33Z</time></trkpt><trkpt lat="41.089407409850935" lon="14.682580681156544"><ele>452.33333333333337</ele><time>2026-04-04T11:30:34Z</time></trkpt><trkpt lat="41.08931698811033" lon="14.682792984050565"><ele>454.6666666666667</ele><time>2026-04-04T11:30:35Z</time></trkpt><trkpt lat="41.08922651517034" lon="14.683004171369642"><ele>457.0</ele><time>2026-04-04T11:30:36Z</time></trkpt><trkpt lat="41.08912877612888" lon="14.68320361525331"><ele>456.33333333333337</ele><time>2026-04-04T11:30:37Z</time></trkpt><trkpt lat="41.08900376132161" lon="14.683382608838372"><ele>455.66666666666663</ele><time>2026-04-04T11:30:38Z</time></trkpt><trkpt lat="41.088860165612125" lon="14.683542697334172"><ele>455.0</ele><time>2026-04-04T11:30:39Z</time></trkpt><trkpt lat="41.088710014645194" lon="14.683704407491831"><ele>455.0</ele><time>2026-04-04T11:30:40Z</time></trkpt><trkpt lat="41.08857021233377" lon="14.683842864585554"><ele>455.0</ele><time>2026-04-04T11:30:41Z</time></trkpt><trkpt lat="41.08843734920863" lon="14.683973737580633"><ele>455.0</ele><time>2026-04-04T11:30:42Z</time></trkpt><trkpt lat="41.08831666207433" lon="14.68410203107553"><ele>451.25</ele><time>2026-04-04T11:30:43Z</time></trkpt><trkpt lat="41.08821867631941" lon="14.6842413297061"><ele>447.5</ele><time>2026-04-04T11:30:44Z</time></trkpt><trkpt lat="41.08815762213125" lon="14.684396752424629"><ele>443.75</ele><time>2026-04-04T11:30:45Z</time></trkpt><trkpt lat="41.08814524544498" lon="14.684571502628424"><ele>440.0</ele><time>2026-04-04T11:30:46Z</time></trkpt><trkpt lat="41.088175331306246" lon="14.684768191916064"><ele>438.3333333333333</ele><time>2026-04-04T11:30:46.999Z</time></trkpt><trkpt lat="41.08825527658071" lon="14.68496943605047"><ele>436.66666666666663</ele><time>2026-04-04T11:30:47.999Z</time></trkpt><trkpt lat="41.08835392203695" lon="14.685181519612838"><ele>435.0</ele><time>2026-04-04T11:30:48.999Z</time></trkpt><trkpt lat="41.08847291421222" lon="14.685382105447731"><ele>435.0</ele><time>2026-04-04T11:30:49.999Z</time></trkpt><trkpt lat="41.088577018169154" lon="14.685584293283025"><ele>435.0</ele><time>2026-04-04T11:30:50.999Z</time></trkpt><trkpt lat="41.088663705353575" lon="14.685803995842267"><ele>435.0</ele><time>2026-04-04T11:30:51.999Z</time></trkpt><trkpt lat="41.08875505818558" lon="14.686007885187742"><ele>431.66666666666663</ele><time>2026-04-04T11:30:52.999Z</time></trkpt><trkpt lat="41.08883956538695" lon="14.686205195911825"><ele>428.3333333333333</ele><time>2026-04-04T11:30:53.999Z</time></trkpt><trkpt lat="41.08890879475121" lon="14.686398120814248"><ele>425.0</ele><time>2026-04-04T11:30:54.999Z</time></trkpt><trkpt lat="41.08895891612931" lon="14.686616603851842"><ele>425.0</ele><time>2026-04-04T11:30:55.999Z</time></trkpt><trkpt lat="41.0889630187214" lon="14.686886316529538"><ele>425.0</ele><time>2026-04-04T11:30:56.999Z</time></trkpt><trkpt lat="41.08893224658318" lon="14.687161999933913"><ele>425.0</ele><time>2026-04-04T11:30:57.999Z</time></trkpt><trkpt lat="41.08888923577218" lon="14.68742738307274"><ele>426.0</ele><time>2026-04-04T11:30:58.999Z</time></trkpt><trkpt lat="41.088846543276226" lon="14.6876698801289"><ele>427.0</ele><time>2026-04-04T11:30:59.999Z</time></trkpt><trkpt lat="41.08879172479322" lon="14.687889475371703"><ele>428.0</ele><time>2026-04-04T11:31:00.999Z</time></trkpt><trkpt lat="41.08872263045512" lon="14.68809877835893"><ele>428.66666666666663</ele><time>2026-04-04T11:31:01.999Z</time></trkpt><trkpt lat="41.08863454982709" lon="14.688307049220493"><ele>429.33333333333337</ele><time>2026-04-04T11:31:02.999Z</time></trkpt><trkpt lat="41.08854733681391" lon="14.688505144649316"><ele>430.0</ele><time>2026-04-04T11:31:03.999Z</time></trkpt><trkpt lat="41.08847676984794" lon="14.688702675914643"><ele>430.0</ele><time>2026-04-04T11:31:04.999Z</time></trkpt><trkpt lat="41.088402252346704" lon="14.688938093249917"><ele>430.0</ele><time>2026-04-04T11:31:05.999Z</time></trkpt><trkpt lat="41.0883778200738" lon="14.689186124401523"><ele>430.0</ele><time>2026-04-04T11:31:06.999Z</time></trkpt><trkpt lat="41.08837135094006" lon="14.689442971437295"><ele>431.33333333333337</ele><time>2026-04-04T11:31:07.999Z</time></trkpt><trkpt lat="41.088372583383574" lon="14.68973316962013"><ele>432.66666666666663</ele><time>2026-04-04T11:31:08.999Z</time></trkpt><trkpt lat="41.08838290280628" lon="14.68999281187105"><ele>434.0</ele><time>2026-04-04T11:31:09.999Z</time></trkpt><trkpt lat="41.08839457656671" lon="14.690225814249853"><ele>436.0</ele><time>2026-04-04T11:31:10.999Z</time></trkpt><trkpt lat="41.08841656362109" lon="14.690476636752829"><ele>438.0</ele><time>2026-04-04T11:31:11.999Z</time></trkpt><trkpt lat="41.08847567638885" lon="14.69073380693778"><ele>440.0</ele><time>2026-04-04T11:31:12.999Z</time></trkpt><trkpt lat="41.08857360740107" lon="14.691014839203609"><ele>445.5</ele><time>2026-04-04T11:31:13.999Z</time></trkpt><trkpt lat="41.08868586653647" lon="14.691292391238875"><ele>451.0</ele><time>2026-04-04T11:31:14.999Z</time></trkpt><trkpt lat="41.08880437717498" lon="14.691582705853754"><ele>451.0</ele><time>2026-04-04T11:31:15.999Z</time></trkpt><trkpt lat="41.088918129252974" lon="14.691861804509184"><ele>451.0</ele><time>2026-04-04T11:31:16.999Z</time></trkpt><trkpt lat="41.08901969293282" lon="14.69211155615606"><ele>450.33333333333337</ele><time>2026-04-04T11:31:17.999Z</time></trkpt><trkpt lat="41.089116570025524" lon="14.692347978604447"><ele>449.66666666666663</ele><time>2026-04-04T11:31:18.999Z</time></trkpt><trkpt lat="41.08920541255421" lon="14.692561378859939"><ele>449.0</ele><time>2026-04-04T11:31:19.999Z</time></trkpt><trkpt lat="41.08931741799719" lon="14.692748997933203"><ele>448.0</ele><time>2026-04-04T11:31:20.999Z</time></trkpt><trkpt lat="41.08943174362652" lon="14.692946403335306"><ele>447.0</ele><time>2026-04-04T11:31:21.999Z</time></trkpt><trkpt lat="41.089533993392" lon="14.693146039929694"><ele>446.0</ele><time>2026-04-04T11:31:22.999Z</time></trkpt><trkpt lat="41.08964203011319" lon="14.693321017258365"><ele>446.0</ele><time>2026-04-04T11:31:23.999Z</time></trkpt><trkpt lat="41.08976124175759" lon="14.693485226171738"><ele>446.0</ele><time>2026-04-04T11:31:24.999Z</time></trkpt><trkpt lat="41.08986107478905" lon="14.693681964604778"><ele>446.0</ele><time>2026-04-04T11:31:25.999Z</time></trkpt><trkpt lat="41.08995006915047" lon="14.693878370933012"><ele>446.3333333333333</ele><time>2026-04-04T11:31:26.999Z</time></trkpt><trkpt lat="41.09002453843031" lon="14.694090662162791"><ele>446.66666666666663</ele><time>2026-04-04T11:31:27.999Z</time></trkpt><trkpt lat="41.090058428331105" lon="14.694336403104046"><ele>447.0</ele><time>2026-04-04T11:31:28.999Z</time></trkpt><trkpt lat="41.09011308642069" lon="14.69459546374618"><ele>444.0</ele><time>2026-04-04T11:31:29.999Z</time></trkpt><trkpt lat="41.09016755698827" lon="14.694857037685914"><ele>441.0</ele><time>2026-04-04T11:31:30.999Z</time></trkpt><trkpt lat="41.0902148604304" lon="14.695091484533119"><ele>438.0</ele><time>2026-04-04T11:31:31.999Z</time></trkpt><trkpt lat="41.09025141296877" lon="14.695319303860847"><ele>436.0</ele><time>2026-04-04T11:31:32.999Z</time></trkpt><trkpt lat="41.090265305285634" lon="14.695574053899104"><ele>434.0</ele><time>2026-04-04T11:31:33.999Z</time></trkpt><trkpt lat="41.090212114789246" lon="14.695806158519812"><ele>432.0</ele><time>2026-04-04T11:31:34.999Z</time></trkpt><trkpt lat="41.09013506629133" lon="14.695955472688121"><ele>432.25</ele><time>2026-04-04T11:31:35.999Z</time></trkpt><trkpt lat="41.090068674270285" lon="14.696136943286417"><ele>432.5</ele><time>2026-04-04T11:31:36.999Z</time></trkpt><trkpt lat="41.09001872734856" lon="14.696290582668977"><ele>432.75</ele><time>2026-04-04T11:31:37.999Z</time></trkpt><trkpt lat="41.089993155377535" lon="14.696450265560198"><ele>433.0</ele><time>2026-04-04T11:31:38.999Z</time></trkpt><trkpt lat="41.090010272371416" lon="14.696602778767122"><ele>433.0</ele><time>2026-04-04T11:31:39.999Z</time></trkpt><trkpt lat="41.09006161635517" lon="14.696752465624712"><ele>433.0</ele><time>2026-04-04T11:31:40.999Z</time></trkpt><trkpt lat="41.09014192759637" lon="14.696867149848305"><ele>433.0</ele><time>2026-04-04T11:31:41.999Z</time></trkpt><trkpt lat="41.090229843868855" lon="14.696964200335742"><ele>433.0</ele><time>2026-04-04T11:31:42.999Z</time></trkpt><trkpt lat="41.09033534081033" lon="14.697004160928767"><ele>430.75</ele><time>2026-04-04T11:31:43.999Z</time></trkpt><trkpt lat="41.09044110475587" lon="14.697054699972963"><ele>428.5</ele><time>2026-04-04T11:31:44.999Z</time></trkpt><trkpt lat="41.09052017461585" lon="14.697125609366104"><ele>426.25</ele><time>2026-04-04T11:31:45.999Z</time></trkpt><trkpt lat="41.09064709616934" lon="14.69724432904062"><ele>424.0</ele><time>2026-04-04T11:31:46.999Z</time></trkpt><trkpt lat="41.09074810896663" lon="14.697343772360878"><ele>424.75</ele><time>2026-04-04T11:31:47.999Z</time></trkpt><trkpt lat="41.09084942312326" lon="14.697436870273693"><ele>425.5</ele><time>2026-04-04T11:31:48.999Z</time></trkpt><trkpt lat="41.09095141366751" lon="14.697506459157665"><ele>426.25</ele><time>2026-04-04T11:31:50.001Z</time></trkpt><trkpt lat="41.091044381935895" lon="14.697598309058948"><ele>427.0</ele><time>2026-04-04T11:31:51.001Z</time></trkpt><trkpt lat="41.091138031586766" lon="14.697673135948817"><ele>423.6</ele><time>2026-04-04T11:31:52.001Z</time></trkpt><trkpt lat="41.09121999517176" lon="14.697758990556592"><ele>420.20000000000005</ele><time>2026-04-04T11:31:53.001Z</time></trkpt><trkpt lat="41.091301961682866" lon="14.697830075274673"><ele>416.8</ele><time>2026-04-04T11:31:54.001Z</time></trkpt><trkpt lat="41.091394838623536" lon="14.697894228805536"><ele>413.4</ele><time>2026-04-04T11:31:55.001Z</time></trkpt><trkpt lat="41.09148521892547" lon="14.69797499136253"><ele>410.0</ele><time>2026-04-04T11:31:56.001Z</time></trkpt><trkpt lat="41.09156460642712" lon="14.698055004469113"><ele>411.8</ele><time>2026-04-04T11:31:57.001Z</time></trkpt><trkpt lat="41.091642653721216" lon="14.698121272501451"><ele>413.6</ele><time>2026-04-04T11:31:58Z</time></trkpt><trkpt lat="41.09172294408115" lon="14.69818560514898"><ele>415.4</ele><time>2026-04-04T11:31:59Z</time></trkpt><trkpt lat="41.09180057656585" lon="14.698225919240402"><ele>417.2</ele><time>2026-04-04T11:32:00Z</time></trkpt><trkpt lat="41.091885035604456" lon="14.698264920664354"><ele>419.0</ele><time>2026-04-04T11:32:01Z</time></trkpt><trkpt lat="41.09197728160485" lon="14.698260669730777"><ele>418.99999999999994</ele><time>2026-04-04T11:32:02Z</time></trkpt><trkpt lat="41.09205133898255" lon="14.698273425152983"><ele>419.0</ele><time>2026-04-04T11:32:03Z</time></trkpt><trkpt lat="41.0921284794515" lon="14.6982921389991"><ele>419.0</ele><time>2026-04-04T11:32:04Z</time></trkpt><trkpt lat="41.092193780605285" lon="14.698288747497031"><ele>419.0</ele><time>2026-04-04T11:32:05Z</time></trkpt><trkpt lat="41.09227514405828" lon="14.69833284804205"><ele>419.0</ele><time>2026-04-04T11:32:06Z</time></trkpt><trkpt lat="41.092345089636034" lon="14.698357121405158"><ele>418.99999999999994</ele><time>2026-04-04T11:32:07Z</time></trkpt><trkpt lat="41.092411895176404" lon="14.6983830057005"><ele>419.0</ele><time>2026-04-04T11:32:08Z</time></trkpt><trkpt lat="41.09252049889498" lon="14.698425788189278"><ele>419.49999999999994</ele><time>2026-04-04T11:32:10Z</time></trkpt><trkpt lat="41.09261228356395" lon="14.698465872900062"><ele>420.0</ele><time>2026-04-04T11:32:12Z</time></trkpt><trkpt lat="41.09267901381135" lon="14.698492563456673"><ele>420.5</ele><time>2026-04-04T11:32:13Z</time></trkpt><trkpt lat="41.092753318578026" lon="14.69852395850108"><ele>421.0</ele><time>2026-04-04T11:32:14Z</time></trkpt><trkpt lat="41.09282253215419" lon="14.698592816810496"><ele>421.49999999999994</ele><time>2026-04-04T11:32:15Z</time></trkpt><trkpt lat="41.09288213447473" lon="14.698703454277608"><ele>422.0</ele><time>2026-04-04T11:32:16Z</time></trkpt><trkpt lat="41.09296110375512" lon="14.69879680512223"><ele>420.25</ele><time>2026-04-04T11:32:17Z</time></trkpt><trkpt lat="41.093037481562" lon="14.69891142512996"><ele>418.5</ele><time>2026-04-04T11:32:18Z</time></trkpt><trkpt lat="41.09311485934604" lon="14.699040285790135"><ele>416.75</ele><time>2026-04-04T11:32:19Z</time></trkpt><trkpt lat="41.09319410626264" lon="14.699153913952854"><ele>415.0</ele><time>2026-04-04T11:32:20Z</time></trkpt><trkpt lat="41.09327494114841" lon="14.699276742286434"><ele>415.0</ele><time>2026-04-04T11:32:21Z</time></trkpt><trkpt lat="41.093355942358855" lon="14.699401633642273"><ele>415.0</ele><time>2026-04-04T11:32:22Z</time></trkpt><trkpt lat="41.09342563135228" lon="14.699538063681473"><ele>415.0</ele><time>2026-04-04T11:32:23Z</time></trkpt><trkpt lat="41.09347785377662" lon="14.699683282929207"><ele>415.0</ele><time>2026-04-04T11:32:24Z</time></trkpt><trkpt lat="41.093494471944005" lon="14.699829040603534"><ele>415.75</ele><time>2026-04-04T11:32:25Z</time></trkpt><trkpt lat="41.09348527061575" lon="14.699978489103025"><ele>416.5</ele><time>2026-04-04T11:32:26Z</time></trkpt><trkpt lat="41.09347187495051" lon="14.700127516044272"><ele>417.25</ele><time>2026-04-04T11:32:27Z</time></trkpt><trkpt lat="41.09345257986453" lon="14.70028063716778"><ele>418.0</ele><time>2026-04-04T11:32:28Z</time></trkpt><trkpt lat="41.09343136635128" lon="14.70042490591674"><ele>418.5</ele><time>2026-04-04T11:32:29Z</time></trkpt><trkpt lat="41.09340877826538" lon="14.700566931299852"><ele>419.0</ele><time>2026-04-04T11:32:30Z</time></trkpt><trkpt lat="41.0933914044077" lon="14.700716953870762"><ele>419.5</ele><time>2026-04-04T11:32:31Z</time></trkpt><trkpt lat="41.093375618467384" lon="14.700876270934128"><ele>420.0</ele><time>2026-04-04T11:32:32Z</time></trkpt><trkpt lat="41.09336565372202" lon="14.701041078108442"><ele>419.5</ele><time>2026-04-04T11:32:33Z</time></trkpt><trkpt lat="41.093356528209014" lon="14.701191123204683"><ele>419.0</ele><time>2026-04-04T11:32:34Z</time></trkpt><trkpt lat="41.09334836762918" lon="14.701341808819723"><ele>418.5</ele><time>2026-04-04T11:32:35Z</time></trkpt><trkpt lat="41.09332056378758" lon="14.701501226042685"><ele>418.0</ele><time>2026-04-04T11:32:36Z</time></trkpt><trkpt lat="41.09330780745016" lon="14.701648889644733"><ele>418.0</ele><time>2026-04-04T11:32:37Z</time></trkpt><trkpt lat="41.09329864277857" lon="14.701799890994387"><ele>418.0</ele><time>2026-04-04T11:32:38Z</time></trkpt><trkpt lat="41.0933307904343" lon="14.701957376710766"><ele>418.0</ele><time>2026-04-04T11:32:39Z</time></trkpt><trkpt lat="41.09335738575952" lon="14.702131704774681"><ele>418.0</ele><time>2026-04-04T11:32:40Z</time></trkpt><trkpt lat="41.09337155426782" lon="14.702319073050981"><ele>416.75</ele><time>2026-04-04T11:32:41Z</time></trkpt><trkpt lat="41.09340280729603" lon="14.70250153759896"><ele>415.5</ele><time>2026-04-04T11:32:42Z</time></trkpt><trkpt lat="41.09343710970867" lon="14.702687901459711"><ele>414.25</ele><time>2026-04-04T11:32:43Z</time></trkpt><trkpt lat="41.09346239135912" lon="14.702884205392769"><ele>413.0</ele><time>2026-04-04T11:32:44Z</time></trkpt><trkpt lat="41.09349418170812" lon="14.70306613787272"><ele>411.25</ele><time>2026-04-04T11:32:45Z</time></trkpt><trkpt lat="41.09354810647141" lon="14.70322854183072"><ele>409.5</ele><time>2026-04-04T11:32:46Z</time></trkpt><trkpt lat="41.09358045025598" lon="14.70337451810778"><ele>407.75</ele><time>2026-04-04T11:32:47Z</time></trkpt><trkpt lat="41.09361342428693" lon="14.703525007375417"><ele>406.0</ele><time>2026-04-04T11:32:48Z</time></trkpt><trkpt lat="41.09365716470871" lon="14.703685277276827"><ele>405.0</ele><time>2026-04-04T11:32:49Z</time></trkpt><trkpt lat="41.09370048760895" lon="14.703849663242243"><ele>404.0</ele><time>2026-04-04T11:32:49.999Z</time></trkpt><trkpt lat="41.09374405770924" lon="14.704017638151775"><ele>403.0</ele><time>2026-04-04T11:32:50.999Z</time></trkpt><trkpt lat="41.09378909614071" lon="14.70419363514393"><ele>402.0</ele><time>2026-04-04T11:32:51.999Z</time></trkpt><trkpt lat="41.093835026406474" lon="14.704373881846385"><ele>401.5</ele><time>2026-04-04T11:32:52.999Z</time></trkpt><trkpt lat="41.093881739203425" lon="14.704557199506933"><ele>401.0</ele><time>2026-04-04T11:32:53.999Z</time></trkpt><trkpt lat="41.09392878233659" lon="14.704740491351926"><ele>400.5</ele><time>2026-04-04T11:32:54.999Z</time></trkpt><trkpt lat="41.093972472168225" lon="14.704910791975056"><ele>400.0</ele><time>2026-04-04T11:32:55.999Z</time></trkpt><trkpt lat="41.094012317411114" lon="14.705066106608472"><ele>400.0</ele><time>2026-04-04T11:32:56.999Z</time></trkpt><trkpt lat="41.09404485527846" lon="14.705194513901237"><ele>400.0</ele><time>2026-04-04T11:32:57.999Z</time></trkpt><trkpt lat="41.09407553058188" lon="14.705322898599894"><ele>400.0</ele><time>2026-04-04T11:32:58.999Z</time></trkpt><trkpt lat="41.09409993001661" lon="14.70543323246484"><ele>400.0</ele><time>2026-04-04T11:32:59.999Z</time></trkpt><trkpt lat="41.09412476481739" lon="14.705546763107964"><ele>400.0</ele><time>2026-04-04T11:33:00.999Z</time></trkpt><trkpt lat="41.09413796907135" lon="14.705692712598587"><ele>401.25</ele><time>2026-04-04T11:33:01.999Z</time></trkpt><trkpt lat="41.09415344291873" lon="14.705882259242816"><ele>402.5</ele><time>2026-04-04T11:33:02.999Z</time></trkpt><trkpt lat="41.094168467109334" lon="14.706065661080077"><ele>403.75</ele><time>2026-04-04T11:33:03.999Z</time></trkpt><trkpt lat="41.094177480235864" lon="14.706265025875002"><ele>405.0</ele><time>2026-04-04T11:33:04.999Z</time></trkpt><trkpt lat="41.09417978423996" lon="14.706475935544884"><ele>405.0</ele><time>2026-04-04T11:33:05.999Z</time></trkpt><trkpt lat="41.09416730805414" lon="14.706678393041678"><ele>405.0</ele><time>2026-04-04T11:33:06.999Z</time></trkpt><trkpt lat="41.09418061931884" lon="14.706864652012984"><ele>405.0</ele><time>2026-04-04T11:33:07.999Z</time></trkpt><trkpt lat="41.09417928509243" lon="14.707043012473923"><ele>405.0</ele><time>2026-04-04T11:33:08.999Z</time></trkpt><trkpt lat="41.094175211362646" lon="14.707219956509789"><ele>404.2</ele><time>2026-04-04T11:33:09.999Z</time></trkpt><trkpt lat="41.09415725572388" lon="14.707383938317534"><ele>403.4</ele><time>2026-04-04T11:33:10.999Z</time></trkpt><trkpt lat="41.0941169839833" lon="14.707498528101198"><ele>402.6</ele><time>2026-04-04T11:33:11.999Z</time></trkpt><trkpt lat="41.094059821056604" lon="14.707594940462288"><ele>401.8</ele><time>2026-04-04T11:33:12.999Z</time></trkpt><trkpt lat="41.094069639225374" lon="14.707724138567428"><ele>401.0</ele><time>2026-04-04T11:33:13.999Z</time></trkpt><trkpt lat="41.09408314444918" lon="14.707844829528739"><ele>398.3333333333333</ele><time>2026-04-04T11:33:14.999Z</time></trkpt><trkpt lat="41.0940781022008" lon="14.707963068392937"><ele>395.66666666666663</ele><time>2026-04-04T11:33:15.999Z</time></trkpt><trkpt lat="41.09404776729968" lon="14.708070947693368"><ele>393.0</ele><time>2026-04-04T11:33:16.999Z</time></trkpt><trkpt lat="41.09400160222709" lon="14.708163386267392"><ele>390.33333333333337</ele><time>2026-04-04T11:33:17.999Z</time></trkpt><trkpt lat="41.093954991834536" lon="14.70824680982914"><ele>387.6666666666667</ele><time>2026-04-04T11:33:18.999Z</time></trkpt><trkpt lat="41.09391020461307" lon="14.708339300432788"><ele>385.0</ele><time>2026-04-04T11:33:19.999Z</time></trkpt><trkpt lat="41.09386928598263" lon="14.70844664552441"><ele>385.0</ele><time>2026-04-04T11:33:20.999Z</time></trkpt><trkpt lat="41.09383892560144" lon="14.708564448949682"><ele>385.0</ele><time>2026-04-04T11:33:21.999Z</time></trkpt><trkpt lat="41.09382132004752" lon="14.70869956090661"><ele>385.0</ele><time>2026-04-04T11:33:22.999Z</time></trkpt><trkpt lat="41.09383437830981" lon="14.7088532696736"><ele>385.0</ele><time>2026-04-04T11:33:23.999Z</time></trkpt><trkpt lat="41.093889096347" lon="14.709045190811032"><ele>384.0</ele><time>2026-04-04T11:33:24.999Z</time></trkpt><trkpt lat="41.093984444085514" lon="14.709283962096539"><ele>383.0</ele><time>2026-04-04T11:33:25.999Z</time></trkpt><trkpt lat="41.094114702126106" lon="14.70951905569139"><ele>382.0</ele><time>2026-04-04T11:33:26.999Z</time></trkpt><trkpt lat="41.0942657196987" lon="14.709745651186674"><ele>382.0</ele><time>2026-04-04T11:33:27.999Z</time></trkpt><trkpt lat="41.094399110303215" lon="14.709951690969984"><ele>382.0</ele><time>2026-04-04T11:33:28.999Z</time></trkpt><trkpt lat="41.09452990679425" lon="14.710155862109174"><ele>382.0</ele><time>2026-04-04T11:33:29.999Z</time></trkpt><trkpt lat="41.09464693195668" lon="14.710345529314335"><ele>379.66666666666663</ele><time>2026-04-04T11:33:30.999Z</time></trkpt><trkpt lat="41.09476724496571" lon="14.710533251158626"><ele>377.3333333333333</ele><time>2026-04-04T11:33:31.999Z</time></trkpt><trkpt lat="41.0948850416866" lon="14.710713417265987"><ele>375.0</ele><time>2026-04-04T11:33:32.999Z</time></trkpt><trkpt lat="41.094995937653884" lon="14.710881935360607"><ele>374.5</ele><time>2026-04-04T11:33:33.999Z</time></trkpt><trkpt lat="41.09508988846005" lon="14.711026734419928"><ele>374.0</ele><time>2026-04-04T11:33:34.999Z</time></trkpt><trkpt lat="41.09514599363929" lon="14.711162276403442"><ele>373.5</ele><time>2026-04-04T11:33:35.999Z</time></trkpt><trkpt lat="41.095195998682655" lon="14.711281430828977"><ele>373.0</ele><time>2026-04-04T11:33:36.999Z</time></trkpt><trkpt lat="41.09515237340819" lon="14.711409869096569"><ele>370.5</ele><time>2026-04-04T11:33:37.999Z</time></trkpt><trkpt lat="41.09504680447551" lon="14.711491029306858"><ele>368.0</ele><time>2026-04-04T11:33:38.999Z</time></trkpt><trkpt lat="41.09493153964659" lon="14.711478189688046"><ele>365.5</ele><time>2026-04-04T11:33:39.999Z</time></trkpt><trkpt lat="41.09478000955803" lon="14.711427102023857"><ele>363.0</ele><time>2026-04-04T11:33:40.999Z</time></trkpt><trkpt lat="41.09461908629319" lon="14.711376812693402"><ele>362.0</ele><time>2026-04-04T11:33:41.999Z</time></trkpt><trkpt lat="41.09445427637021" lon="14.711370191139363"><ele>361.0</ele><time>2026-04-04T11:33:42.999Z</time></trkpt><trkpt lat="41.09429425660649" lon="14.711402236630658"><ele>360.0</ele><time>2026-04-04T11:33:43.999Z</time></trkpt><trkpt lat="41.09412073021017" lon="14.711456970322427"><ele>360.0</ele><time>2026-04-04T11:33:44.999Z</time></trkpt><trkpt lat="41.093978507116525" lon="14.711555340584411"><ele>360.0</ele><time>2026-04-04T11:33:45.999Z</time></trkpt><trkpt lat="41.09383820903175" lon="14.711694477857232"><ele>360.0</ele><time>2026-04-04T11:33:46.999Z</time></trkpt><trkpt lat="41.09372221146623" lon="14.711860703449572"><ele>357.0</ele><time>2026-04-04T11:33:47.999Z</time></trkpt><trkpt lat="41.093629818875776" lon="14.712047067686898"><ele>354.0</ele><time>2026-04-04T11:33:48.999Z</time></trkpt><trkpt lat="41.09356671524717" lon="14.712268134619677"><ele>351.0</ele><time>2026-04-04T11:33:49.998Z</time></trkpt><trkpt lat="41.093501675982054" lon="14.712534403492038"><ele>348.0</ele><time>2026-04-04T11:33:50.998Z</time></trkpt><trkpt lat="41.09342628381882" lon="14.712799816486074"><ele>345.0</ele><time>2026-04-04T11:33:51.998Z</time></trkpt><trkpt lat="41.09334769900311" lon="14.713037752125752"><ele>342.0</ele><time>2026-04-04T11:33:52.998Z</time></trkpt><trkpt lat="41.09326623490676" lon="14.713265618919612"><ele>339.0</ele><time>2026-04-04T11:33:53.998Z</time></trkpt><trkpt lat="41.09317915128931" lon="14.713483284409982"><ele>336.0</ele><time>2026-04-04T11:33:54.998Z</time></trkpt><trkpt lat="41.09308891881618" lon="14.713689535298242"><ele>333.0</ele><time>2026-04-04T11:33:56.001Z</time></trkpt><trkpt lat="41.09298651936184" lon="14.713889343559957"><ele>331.6666666666667</ele><time>2026-04-04T11:33:57.001Z</time></trkpt><trkpt lat="41.09289131037872" lon="14.714102910735363"><ele>330.33333333333337</ele><time>2026-04-04T11:33:58.001Z</time></trkpt><trkpt lat="41.09281744422891" lon="14.714337888833647"><ele>329.0</ele><time>2026-04-04T11:33:59.001Z</time></trkpt><trkpt lat="41.09275478320201" lon="14.714582288379875"><ele>328.6666666666667</ele><time>2026-04-04T11:34:00.001Z</time></trkpt><trkpt lat="41.09269768846714" lon="14.714824542403385"><ele>328.3333333333333</ele><time>2026-04-04T11:34:01.001Z</time></trkpt><trkpt lat="41.0926234387835" lon="14.715072614649065"><ele>328.0</ele><time>2026-04-04T11:34:02.001Z</time></trkpt><trkpt lat="41.092537200057926" lon="14.715316238048587"><ele>327.0</ele><time>2026-04-04T11:34:03.001Z</time></trkpt><trkpt lat="41.092448789970724" lon="14.715548674143212"><ele>326.0</ele><time>2026-04-04T11:34:04.001Z</time></trkpt><trkpt lat="41.092364027454316" lon="14.71577181437912"><ele>325.0</ele><time>2026-04-04T11:34:05.001Z</time></trkpt><trkpt lat="41.09227907101319" lon="14.715994125640428"><ele>321.3333333333333</ele><time>2026-04-04T11:34:06.001Z</time></trkpt><trkpt lat="41.09219632770164" lon="14.716201900504828"><ele>317.6666666666667</ele><time>2026-04-04T11:34:07Z</time></trkpt><trkpt lat="41.09211246925176" lon="14.716418096992786"><ele>314.0</ele><time>2026-04-04T11:34:08Z</time></trkpt><trkpt lat="41.09203152237182" lon="14.716632933093967"><ele>314.0</ele><time>2026-04-04T11:34:09Z</time></trkpt><trkpt lat="41.09194576513967" lon="14.716842646741258"><ele>314.0</ele><time>2026-04-04T11:34:10Z</time></trkpt><trkpt lat="41.091864928766185" lon="14.717042736482155"><ele>314.0</ele><time>2026-04-04T11:34:11Z</time></trkpt><trkpt lat="41.091781729083344" lon="14.717248899735422"><ele>314.6666666666667</ele><time>2026-04-04T11:34:12Z</time></trkpt><trkpt lat="41.091697795447864" lon="14.717441543166052"><ele>315.3333333333333</ele><time>2026-04-04T11:34:13Z</time></trkpt><trkpt lat="41.09163382301036" lon="14.717599482433567"><ele>316.0</ele><time>2026-04-04T11:34:14Z</time></trkpt><trkpt lat="41.09156282310706" lon="14.717794639030878"><ele>314.66666666666663</ele><time>2026-04-04T11:34:15Z</time></trkpt><trkpt lat="41.09151385489771" lon="14.718006944289161"><ele>313.3333333333333</ele><time>2026-04-04T11:34:16Z</time></trkpt><trkpt lat="41.09146710238162" lon="14.718193456269088"><ele>312.0</ele><time>2026-04-04T11:34:17Z</time></trkpt><trkpt lat="41.09143709737528" lon="14.71838344744603"><ele>313.25</ele><time>2026-04-04T11:34:18Z</time></trkpt><trkpt lat="41.091413936177005" lon="14.7185682289389"><ele>314.5</ele><time>2026-04-04T11:34:19Z</time></trkpt><trkpt lat="41.091384055044564" lon="14.718759956842202"><ele>315.75</ele><time>2026-04-04T11:34:20Z</time></trkpt><trkpt lat="41.091359400368425" lon="14.718933822660833"><ele>317.0</ele><time>2026-04-04T11:34:21Z</time></trkpt><trkpt lat="41.09133767656905" lon="14.719108265390721"><ele>317.0</ele><time>2026-04-04T11:34:22Z</time></trkpt><trkpt lat="41.09130230384696" lon="14.719286651592151"><ele>317.0</ele><time>2026-04-04T11:34:23Z</time></trkpt><trkpt lat="41.0912484417303" lon="14.7194454050347"><ele>317.0</ele><time>2026-04-04T11:34:24Z</time></trkpt><trkpt lat="41.09121144648048" lon="14.719597486970734"><ele>317.0</ele><time>2026-04-04T11:34:25Z</time></trkpt><trkpt lat="41.091179980717314" lon="14.719747871629183"><ele>317.4</ele><time>2026-04-04T11:34:26Z</time></trkpt><trkpt lat="41.091168550084355" lon="14.71989457445017"><ele>317.79999999999995</ele><time>2026-04-04T11:34:27Z</time></trkpt><trkpt lat="41.09114363908749" lon="14.720033559486454"><ele>318.2</ele><time>2026-04-04T11:34:28Z</time></trkpt><trkpt lat="41.09112829227986" lon="14.720169676889512"><ele>318.59999999999997</ele><time>2026-04-04T11:34:29Z</time></trkpt><trkpt lat="41.091137427460126" lon="14.720312320104355"><ele>319.0</ele><time>2026-04-04T11:34:30Z</time></trkpt><trkpt lat="41.09117711479825" lon="14.72044498883203"><ele>318.2</ele><time>2026-04-04T11:34:31Z</time></trkpt><trkpt lat="41.09122761361563" lon="14.720578338516491"><ele>317.4</ele><time>2026-04-04T11:34:32Z</time></trkpt><trkpt lat="41.09128711638943" lon="14.720707767427035"><ele>316.6</ele><time>2026-04-04T11:34:33Z</time></trkpt><trkpt lat="41.09132671738443" lon="14.720832691647166"><ele>315.8</ele><time>2026-04-04T11:34:34Z</time></trkpt><trkpt lat="41.09139732840917" lon="14.720924730620357"><ele>315.0</ele><time>2026-04-04T11:34:35Z</time></trkpt><trkpt lat="41.09142689504143" lon="14.721030347441442"><ele>314.6</ele><time>2026-04-04T11:34:36Z</time></trkpt><trkpt lat="41.091452728854016" lon="14.721137855702104"><ele>314.2</ele><time>2026-04-04T11:34:37Z</time></trkpt><trkpt lat="41.09145206041226" lon="14.721245936233093"><ele>313.8</ele><time>2026-04-04T11:34:38Z</time></trkpt><trkpt lat="41.09146071148411" lon="14.721355665822898"><ele>313.4</ele><time>2026-04-04T11:34:39Z</time></trkpt><trkpt lat="41.09145741022373" lon="14.721461832079175"><ele>313.0</ele><time>2026-04-04T11:34:40Z</time></trkpt><trkpt lat="41.09135659915889" lon="14.721594876313194"><ele>313.0</ele><time>2026-04-04T11:34:41Z</time></trkpt><trkpt lat="41.09125143275965" lon="14.72171733179916"><ele>313.0</ele><time>2026-04-04T11:34:42Z</time></trkpt><trkpt lat="41.091154226845745" lon="14.721877231008822"><ele>313.0</ele><time>2026-04-04T11:34:43Z</time></trkpt><trkpt lat="41.09104065997904" lon="14.722032321870879"><ele>313.66666666666663</ele><time>2026-04-04T11:34:44Z</time></trkpt><trkpt lat="41.09091851925367" lon="14.722187117256176"><ele>314.3333333333333</ele><time>2026-04-04T11:34:45Z</time></trkpt><trkpt lat="41.09078305578411" lon="14.722280931184283"><ele>315.0</ele><time>2026-04-04T11:34:46Z</time></trkpt><trkpt lat="41.09065175557226" lon="14.722360775961322"><ele>313.25</ele><time>2026-04-04T11:34:47Z</time></trkpt><trkpt lat="41.09052677426017" lon="14.722457679872212"><ele>311.5</ele><time>2026-04-04T11:34:48Z</time></trkpt><trkpt lat="41.090402818341246" lon="14.72253825522794"><ele>309.75</ele><time>2026-04-04T11:34:49Z</time></trkpt><trkpt lat="41.09029687340766" lon="14.722601001350993"><ele>308.0</ele><time>2026-04-04T11:34:50Z</time></trkpt><trkpt lat="41.090182828198856" lon="14.722629228525415"><ele>308.0</ele><time>2026-04-04T11:34:51Z</time></trkpt><trkpt lat="41.09004590259915" lon="14.72261349523163"><ele>308.0</ele><time>2026-04-04T11:34:52Z</time></trkpt><trkpt lat="41.08992133540091" lon="14.722582692168817"><ele>308.0</ele><time>2026-04-04T11:34:53Z</time></trkpt><trkpt lat="41.08982179618457" lon="14.722536074051929"><ele>308.0</ele><time>2026-04-04T11:34:54Z</time></trkpt><trkpt lat="41.08973177211498" lon="14.722491867439853"><ele>306.6</ele><time>2026-04-04T11:34:55Z</time></trkpt><trkpt lat="41.0896333868738" lon="14.722476350273924"><ele>305.20000000000005</ele><time>2026-04-04T11:34:55.999Z</time></trkpt><trkpt lat="41.089539432651634" lon="14.72250028913575"><ele>303.8</ele><time>2026-04-04T11:34:56.999Z</time></trkpt><trkpt lat="41.08943956498497" lon="14.722556088949728"><ele>302.40000000000003</ele><time>2026-04-04T11:34:57.999Z</time></trkpt><trkpt lat="41.08934936198067" lon="14.722600026226626"><ele>301.0</ele><time>2026-04-04T11:34:58.999Z</time></trkpt><trkpt lat="41.08925737536528" lon="14.72262797883177"><ele>301.0</ele><time>2026-04-04T11:34:59.999Z</time></trkpt><trkpt lat="41.08916558820981" lon="14.72264949672628"><ele>301.0</ele><time>2026-04-04T11:35:00.999Z</time></trkpt><trkpt lat="41.08907301167157" lon="14.72266551862481"><ele>301.0</ele><time>2026-04-04T11:35:01.999Z</time></trkpt><trkpt lat="41.08897228177064" lon="14.722654573257138"><ele>301.0</ele><time>2026-04-04T11:35:02.999Z</time></trkpt><trkpt lat="41.08888268254629" lon="14.722618115373606"><ele>301.0</ele><time>2026-04-04T11:35:03.999Z</time></trkpt><trkpt lat="41.088801070252586" lon="14.722578139910581"><ele>299.40000000000003</ele><time>2026-04-04T11:35:04.999Z</time></trkpt><trkpt lat="41.088730212763785" lon="14.722549708729465"><ele>297.8</ele><time>2026-04-04T11:35:05.999Z</time></trkpt><trkpt lat="41.08866558279294" lon="14.722533045463107"><ele>296.20000000000005</ele><time>2026-04-04T11:35:06.999Z</time></trkpt><trkpt lat="41.088582759528556" lon="14.722554825442671"><ele>294.6</ele><time>2026-04-04T11:35:09.999Z</time></trkpt><trkpt lat="41.088698679760085" lon="14.72264063234874"><ele>293.0</ele><time>2026-04-04T11:35:13.999Z</time></trkpt><trkpt lat="41.0887980292572" lon="14.722622546775357"><ele>293.0</ele><time>2026-04-04T11:35:14.999Z</time></trkpt><trkpt lat="41.088899503661075" lon="14.7226466454075"><ele>293.0</ele><time>2026-04-04T11:35:15.999Z</time></trkpt><trkpt lat="41.08900024174764" lon="14.722691524322913"><ele>293.0</ele><time>2026-04-04T11:35:16.999Z</time></trkpt><trkpt lat="41.08911878441361" lon="14.722701119829942"><ele>293.0</ele><time>2026-04-04T11:35:17.999Z</time></trkpt><trkpt lat="41.08928042704904" lon="14.722660562588814"><ele>295.6666666666667</ele><time>2026-04-04T11:35:18.999Z</time></trkpt><trkpt lat="41.08946218303765" lon="14.722586214073308"><ele>298.3333333333333</ele><time>2026-04-04T11:35:19.999Z</time></trkpt><trkpt lat="41.08963421462785" lon="14.722524455254941"><ele>301.0</ele><time>2026-04-04T11:35:20.999Z</time></trkpt><trkpt lat="41.08977595437243" lon="14.722538578669626"><ele>301.0</ele><time>2026-04-04T11:35:21.999Z</time></trkpt><trkpt lat="41.08991328943287" lon="14.722604128615643"><ele>301.0</ele><time>2026-04-04T11:35:22.999Z</time></trkpt><trkpt lat="41.090070195483385" lon="14.722643022912937"><ele>301.0</ele><time>2026-04-04T11:35:23.999Z</time></trkpt><trkpt lat="41.090223881890196" lon="14.722641722557336"><ele>303.3333333333333</ele><time>2026-04-04T11:35:24.999Z</time></trkpt><trkpt lat="41.090365984769186" lon="14.72261121430658"><ele>305.6666666666667</ele><time>2026-04-04T11:35:25.999Z</time></trkpt><trkpt lat="41.09050493543192" lon="14.722524764019264"><ele>308.0</ele><time>2026-04-04T11:35:26.999Z</time></trkpt><trkpt lat="41.090652390062765" lon="14.722401869243196"><ele>310.33333333333337</ele><time>2026-04-04T11:35:27.999Z</time></trkpt><trkpt lat="41.090791667030906" lon="14.722300869444998"><ele>312.6666666666667</ele><time>2026-04-04T11:35:28.999Z</time></trkpt><trkpt lat="41.0909283106558" lon="14.722208345481551"><ele>315.0</ele><time>2026-04-04T11:35:29.999Z</time></trkpt><trkpt lat="41.09105632314753" lon="14.722078242726134"><ele>315.0</ele><time>2026-04-04T11:35:30.999Z</time></trkpt><trkpt lat="41.09114287791154" lon="14.721941457213482"><ele>315.0</ele><time>2026-04-04T11:35:31.999Z</time></trkpt><trkpt lat="41.09120592254673" lon="14.721824405537072"><ele>315.0</ele><time>2026-04-04T11:35:32.999Z</time></trkpt><trkpt lat="41.09127327365442" lon="14.721734282065803"><ele>315.0</ele><time>2026-04-04T11:35:33.999Z</time></trkpt><trkpt lat="41.09133789015124" lon="14.721657281749186"><ele>315.0</ele><time>2026-04-04T11:35:34.999Z</time></trkpt><trkpt lat="41.09139838188209" lon="14.721611308091935"><ele>315.0</ele><time>2026-04-04T11:35:35.999Z</time></trkpt><trkpt lat="41.09147336367303" lon="14.721571510216252"><ele>315.0</ele><time>2026-04-04T11:35:37.999Z</time></trkpt><trkpt lat="41.09153488804368" lon="14.721745099946137"><ele>315.0</ele><time>2026-04-04T11:35:38.999Z</time></trkpt><trkpt lat="41.09152368728314" lon="14.721858487522113"><ele>315.0</ele><time>2026-04-04T11:35:39.999Z</time></trkpt><trkpt lat="41.09150011422023" lon="14.721995273601193"><ele>315.0</ele><time>2026-04-04T11:35:40.999Z</time></trkpt><trkpt lat="41.09147022215577" lon="14.722175694529637"><ele>315.0</ele><time>2026-04-04T11:35:41.999Z</time></trkpt><trkpt lat="41.09144029656071" lon="14.722361284763785"><ele>315.0</ele><time>2026-04-04T11:35:42.999Z</time></trkpt><trkpt lat="41.09141268991675" lon="14.722573661746594"><ele>315.0</ele><time>2026-04-04T11:35:43.999Z</time></trkpt><trkpt lat="41.09138235891929" lon="14.722805351464263"><ele>316.3333333333333</ele><time>2026-04-04T11:35:44.999Z</time></trkpt><trkpt lat="41.09135264096497" lon="14.723053263252833"><ele>317.66666666666663</ele><time>2026-04-04T11:35:45.999Z</time></trkpt><trkpt lat="41.09132441188846" lon="14.723306764652781"><ele>319.0</ele><time>2026-04-04T11:35:46.999Z</time></trkpt><trkpt lat="41.09129302971238" lon="14.723537201386947"><ele>319.0</ele><time>2026-04-04T11:35:47.999Z</time></trkpt><trkpt lat="41.09125695801019" lon="14.723764201639973"><ele>319.0</ele><time>2026-04-04T11:35:48.999Z</time></trkpt><trkpt lat="41.09121053907541" lon="14.723998350652412"><ele>319.0</ele><time>2026-04-04T11:35:49.999Z</time></trkpt><trkpt lat="41.091152771223854" lon="14.724232636170516"><ele>318.0</ele><time>2026-04-04T11:35:50.999Z</time></trkpt><trkpt lat="41.09110212768447" lon="14.724455926391132"><ele>317.0</ele><time>2026-04-04T11:35:51.998Z</time></trkpt><trkpt lat="41.091057436140225" lon="14.724693945488427"><ele>316.0</ele><time>2026-04-04T11:35:52.998Z</time></trkpt><trkpt lat="41.09102416659143" lon="14.724929479919311"><ele>316.0</ele><time>2026-04-04T11:35:53.998Z</time></trkpt><trkpt lat="41.09100099415229" lon="14.72520053571637"><ele>316.0</ele><time>2026-04-04T11:35:54.998Z</time></trkpt><trkpt lat="41.091000739156954" lon="14.72547308041415"><ele>316.0</ele><time>2026-04-04T11:35:55.998Z</time></trkpt><trkpt lat="41.09101288348511" lon="14.725750943737584"><ele>314.66666666666663</ele><time>2026-04-04T11:35:56.998Z</time></trkpt><trkpt lat="41.09103086987301" lon="14.726014239672201"><ele>313.3333333333333</ele><time>2026-04-04T11:35:57.998Z</time></trkpt><trkpt lat="41.09105324810976" lon="14.72626422105871"><ele>312.0</ele><time>2026-04-04T11:35:58.998Z</time></trkpt><trkpt lat="41.09107994842839" lon="14.72650943979299"><ele>311.3333333333333</ele><time>2026-04-04T11:35:59.998Z</time></trkpt><trkpt lat="41.09111286600237" lon="14.72674322744621"><ele>310.66666666666663</ele><time>2026-04-04T11:36:00.998Z</time></trkpt><trkpt lat="41.09115392688916" lon="14.726956434296268"><ele>310.0</ele><time>2026-04-04T11:36:02Z</time></trkpt><trkpt lat="41.09119786065337" lon="14.727164416323117"><ele>309.0</ele><time>2026-04-04T11:36:03Z</time></trkpt><trkpt lat="41.091180835423785" lon="14.727366797791719"><ele>308.0</ele><time>2026-04-04T11:36:04Z</time></trkpt><trkpt lat="41.09114830520511" lon="14.72759149115005"><ele>307.0</ele><time>2026-04-04T11:36:05Z</time></trkpt><trkpt lat="41.0911211093647" lon="14.727832083912059"><ele>305.3333333333333</ele><time>2026-04-04T11:36:06Z</time></trkpt><trkpt lat="41.09109859709212" lon="14.728071195059535"><ele>303.6666666666667</ele><time>2026-04-04T11:36:07Z</time></trkpt><trkpt lat="41.09109882406441" lon="14.728295099932994"><ele>302.0</ele><time>2026-04-04T11:36:08Z</time></trkpt><trkpt lat="41.09107538704064" lon="14.7285108158729"><ele>298.0</ele><time>2026-04-04T11:36:09Z</time></trkpt><trkpt lat="41.09104255170503" lon="14.728706748547905"><ele>294.0</ele><time>2026-04-04T11:36:10Z</time></trkpt><trkpt lat="41.09099895531103" lon="14.728903800874988"><ele>290.0</ele><time>2026-04-04T11:36:11Z</time></trkpt><trkpt lat="41.09091841289757" lon="14.72908798581999"><ele>290.0</ele><time>2026-04-04T11:36:12Z</time></trkpt><trkpt lat="41.090835272445254" lon="14.729289001248793"><ele>290.0</ele><time>2026-04-04T11:36:13Z</time></trkpt><trkpt lat="41.090747659070395" lon="14.729491339629531"><ele>290.0</ele><time>2026-04-04T11:36:14Z</time></trkpt><trkpt lat="41.09065926718178" lon="14.729693483918494"><ele>285.0</ele><time>2026-04-04T11:36:15Z</time></trkpt><trkpt lat="41.090567035488796" lon="14.729898893852218"><ele>280.0</ele><time>2026-04-04T11:36:16Z</time></trkpt><trkpt lat="41.09047279338839" lon="14.730098350310772"><ele>275.0</ele><time>2026-04-04T11:36:17Z</time></trkpt><trkpt lat="41.09038746862016" lon="14.730308062761859"><ele>273.6666666666667</ele><time>2026-04-04T11:36:18Z</time></trkpt><trkpt lat="41.09029116468984" lon="14.730498187361682"><ele>272.3333333333333</ele><time>2026-04-04T11:36:19Z</time></trkpt><trkpt lat="41.09018933213298" lon="14.730671664719004"><ele>271.0</ele><time>2026-04-04T11:36:20Z</time></trkpt><trkpt lat="41.09007641017321" lon="14.730855971824427"><ele>271.0</ele><time>2026-04-04T11:36:21Z</time></trkpt><trkpt lat="41.08997149938872" lon="14.73103317266934"><ele>271.0</ele><time>2026-04-04T11:36:22Z</time></trkpt><trkpt lat="41.089864244861054" lon="14.731201496071636"><ele>271.0</ele><time>2026-04-04T11:36:23Z</time></trkpt><trkpt lat="41.089754785739615" lon="14.73135829963158"><ele>268.0</ele><time>2026-04-04T11:36:24Z</time></trkpt><trkpt lat="41.08963439890339" lon="14.731526318697268"><ele>265.0</ele><time>2026-04-04T11:36:25Z</time></trkpt><trkpt lat="41.08955756310352" lon="14.731676797863313"><ele>262.0</ele><time>2026-04-04T11:36:26Z</time></trkpt><trkpt lat="41.08945609073704" lon="14.73182998006138"><ele>260.75</ele><time>2026-04-04T11:36:27Z</time></trkpt><trkpt lat="41.08940666111899" lon="14.73201505687098"><ele>259.5</ele><time>2026-04-04T11:36:28Z</time></trkpt><trkpt lat="41.089346039243594" lon="14.732196099062097"><ele>258.25</ele><time>2026-04-04T11:36:29Z</time></trkpt><trkpt lat="41.08931789457402" lon="14.73237819266461"><ele>257.0</ele><time>2026-04-04T11:36:30Z</time></trkpt><trkpt lat="41.089263651944805" lon="14.732535924631707"><ele>257.0</ele><time>2026-04-04T11:36:31Z</time></trkpt><trkpt lat="41.08923050253327" lon="14.732689817868867"><ele>257.0</ele><time>2026-04-04T11:36:32Z</time></trkpt><trkpt lat="41.08919988976687" lon="14.73284022957807"><ele>257.0</ele><time>2026-04-04T11:36:33Z</time></trkpt><trkpt lat="41.08917336914301" lon="14.732997719627422"><ele>257.0</ele><time>2026-04-04T11:36:34Z</time></trkpt><trkpt lat="41.089152789995694" lon="14.733154582803895"><ele>253.66666666666669</ele><time>2026-04-04T11:36:35Z</time></trkpt><trkpt lat="41.089131983394964" lon="14.733324868655195"><ele>250.33333333333331</ele><time>2026-04-04T11:36:36Z</time></trkpt><trkpt lat="41.089110327870074" lon="14.733530774563695"><ele>247.0</ele><time>2026-04-04T11:36:37Z</time></trkpt><trkpt lat="41.089079017064726" lon="14.733781590087565"><ele>241.66666666666666</ele><time>2026-04-04T11:36:38Z</time></trkpt><trkpt lat="41.08903417483789" lon="14.73402940742555"><ele>236.33333333333331</ele><time>2026-04-04T11:36:39Z</time></trkpt><trkpt lat="41.08900471340903" lon="14.734267778495322"><ele>231.0</ele><time>2026-04-04T11:36:40Z</time></trkpt><trkpt lat="41.08896112965785" lon="14.734489375169638"><ele>228.0</ele><time>2026-04-04T11:36:41Z</time></trkpt><trkpt lat="41.08893326201981" lon="14.734694863930361"><ele>225.0</ele><time>2026-04-04T11:36:42Z</time></trkpt><trkpt lat="41.08887978849527" lon="14.734899795496872"><ele>222.0</ele><time>2026-04-04T11:36:43Z</time></trkpt><trkpt lat="41.08882873856855" lon="14.735093270503658"><ele>220.33333333333331</ele><time>2026-04-04T11:36:44Z</time></trkpt><trkpt lat="41.088744031219164" lon="14.735263647626274"><ele>218.66666666666666</ele><time>2026-04-04T11:36:45Z</time></trkpt><trkpt lat="41.08861283688818" lon="14.73542980044418"><ele>217.0</ele><time>2026-04-04T11:36:46Z</time></trkpt><trkpt lat="41.08841116983497" lon="14.735587910513114"><ele>213.5</ele><time>2026-04-04T11:36:46.999Z</time></trkpt><trkpt lat="41.088200406442375" lon="14.735759448787615"><ele>210.0</ele><time>2026-04-04T11:36:47.999Z</time></trkpt><trkpt lat="41.08800217549001" lon="14.735901943834389"><ele>210.0</ele><time>2026-04-04T11:36:48.999Z</time></trkpt><trkpt lat="41.08779735094848" lon="14.735999718073218"><ele>210.0</ele><time>2026-04-04T11:36:49.999Z</time></trkpt><trkpt lat="41.087616223089526" lon="14.736123931854864"><ele>210.0</ele><time>2026-04-04T11:36:50.999Z</time></trkpt><trkpt lat="41.08743570553776" lon="14.736205570066407"><ele>205.66666666666669</ele><time>2026-04-04T11:36:51.999Z</time></trkpt><trkpt lat="41.087275829921154" lon="14.736253851214746"><ele>201.33333333333334</ele><time>2026-04-04T11:36:52.999Z</time></trkpt><trkpt lat="41.08711745613855" lon="14.736286418798521"><ele>197.0</ele><time>2026-04-04T11:36:53.999Z</time></trkpt><trkpt lat="41.086968697736836" lon="14.736314902412623"><ele>197.0</ele><time>2026-04-04T11:36:54.999Z</time></trkpt><trkpt lat="41.08683299064826" lon="14.736371383252155"><ele>197.0</ele><time>2026-04-04T11:36:55.999Z</time></trkpt><trkpt lat="41.08671412359133" lon="14.736450819794628"><ele>197.0</ele><time>2026-04-04T11:36:56.999Z</time></trkpt><trkpt lat="41.08661764836494" lon="14.736533020413956"><ele>197.0</ele><time>2026-04-04T11:36:57.999Z</time></trkpt><trkpt lat="41.08653560364967" lon="14.736597610932833"><ele>195.2</ele><time>2026-04-04T11:36:58.999Z</time></trkpt><trkpt lat="41.08647431335518" lon="14.736630242458233"><ele>193.39999999999998</ele><time>2026-04-04T11:36:59.999Z</time></trkpt><trkpt lat="41.086402621520236" lon="14.736658689263974"><ele>191.60000000000002</ele><time>2026-04-04T11:37:01.999Z</time></trkpt><trkpt lat="41.08638347713987" lon="14.736854853472154"><ele>189.8</ele><time>2026-04-04T11:37:04.999Z</time></trkpt><trkpt lat="41.08640595528457" lon="14.737024303351465"><ele>188.0</ele><time>2026-04-04T11:37:05.999Z</time></trkpt><trkpt lat="41.086442777032794" lon="14.737217120199725"><ele>188.0</ele><time>2026-04-04T11:37:06.999Z</time></trkpt><trkpt lat="41.08648960186033" lon="14.737434216397796"><ele>188.0</ele><time>2026-04-04T11:37:07.999Z</time></trkpt><trkpt lat="41.08654126141965" lon="14.737679272945108"><ele>188.0</ele><time>2026-04-04T11:37:08.999Z</time></trkpt><trkpt lat="41.08661712704167" lon="14.737934174323462"><ele>188.0</ele><time>2026-04-04T11:37:09.999Z</time></trkpt><trkpt lat="41.08673642141411" lon="14.738181465736396"><ele>188.0</ele><time>2026-04-04T11:37:10.999Z</time></trkpt><trkpt lat="41.08688594733043" lon="14.738429434808474"><ele>183.5</ele><time>2026-04-04T11:37:11.999Z</time></trkpt><trkpt lat="41.087056135399756" lon="14.738665344451274"><ele>179.0</ele><time>2026-04-04T11:37:12.999Z</time></trkpt><trkpt lat="41.0872516818569" lon="14.73887928339419"><ele>181.0</ele><time>2026-04-04T11:37:13.999Z</time></trkpt><trkpt lat="41.08743839343434" lon="14.739055689883203"><ele>183.0</ele><time>2026-04-04T11:37:14.999Z</time></trkpt><trkpt lat="41.08761058424606" lon="14.73922762292581"><ele>185.0</ele><time>2026-04-04T11:37:15.999Z</time></trkpt><trkpt lat="41.08778087240744" lon="14.739379687900277"><ele>182.0</ele><time>2026-04-04T11:37:16.999Z</time></trkpt><trkpt lat="41.087976470990455" lon="14.739518680754575"><ele>179.0</ele><time>2026-04-04T11:37:17.999Z</time></trkpt><trkpt lat="41.08818188197605" lon="14.739633202394188"><ele>176.0</ele><time>2026-04-04T11:37:18.999Z</time></trkpt><trkpt lat="41.08837768121516" lon="14.739721578512963"><ele>176.0</ele><time>2026-04-04T11:37:19.999Z</time></trkpt><trkpt lat="41.08856735561058" lon="14.739780381604898"><ele>176.0</ele><time>2026-04-04T11:37:20.999Z</time></trkpt><trkpt lat="41.08878058830436" lon="14.7398081175554"><ele>176.0</ele><time>2026-04-04T11:37:21.999Z</time></trkpt><trkpt lat="41.08901589137033" lon="14.739807424725466"><ele>174.5</ele><time>2026-04-04T11:37:22.999Z</time></trkpt><trkpt lat="41.089270894200595" lon="14.739821720092387"><ele>173.0</ele><time>2026-04-04T11:37:23.999Z</time></trkpt><trkpt lat="41.089515927893345" lon="14.739855089174782"><ele>173.0</ele><time>2026-04-04T11:37:24.999Z</time></trkpt><trkpt lat="41.08976105637742" lon="14.739847690304769"><ele>173.0</ele><time>2026-04-04T11:37:25.999Z</time></trkpt><trkpt lat="41.089990163032674" lon="14.739885184945177"><ele>171.66666666666666</ele><time>2026-04-04T11:37:26.999Z</time></trkpt><trkpt lat="41.090211976393654" lon="14.739882028579215"><ele>170.33333333333334</ele><time>2026-04-04T11:37:27.999Z</time></trkpt><trkpt lat="41.090438828139064" lon="14.739901088639497"><ele>169.0</ele><time>2026-04-04T11:37:28.999Z</time></trkpt><trkpt lat="41.09065344390596" lon="14.739923034901047"><ele>167.0</ele><time>2026-04-04T11:37:29.999Z</time></trkpt><trkpt lat="41.09086797941356" lon="14.739988276373126"><ele>165.0</ele><time>2026-04-04T11:37:30.999Z</time></trkpt><trkpt lat="41.0910971939227" lon="14.74004298789657"><ele>165.0</ele><time>2026-04-04T11:37:31.999Z</time></trkpt><trkpt lat="41.091335867553674" lon="14.740104346204976"><ele>165.0</ele><time>2026-04-04T11:37:32.999Z</time></trkpt><trkpt lat="41.091580915840794" lon="14.740144379789703"><ele>165.66666666666666</ele><time>2026-04-04T11:37:33.999Z</time></trkpt><trkpt lat="41.09179832158217" lon="14.740205093517435"><ele>166.33333333333331</ele><time>2026-04-04T11:37:34.999Z</time></trkpt><trkpt lat="41.091993109931245" lon="14.740298122872451"><ele>167.0</ele><time>2026-04-04T11:37:35.999Z</time></trkpt><trkpt lat="41.092181094316445" lon="14.740359352676684"><ele>164.0</ele><time>2026-04-04T11:37:36.999Z</time></trkpt><trkpt lat="41.09235644813882" lon="14.740437903328397"><ele>161.0</ele><time>2026-04-04T11:37:37.999Z</time></trkpt><trkpt lat="41.09252496394739" lon="14.740504209464637"><ele>158.0</ele><time>2026-04-04T11:37:38.998Z</time></trkpt><trkpt lat="41.0926776983108" lon="14.740586799208758"><ele>158.0</ele><time>2026-04-04T11:37:39.998Z</time></trkpt><trkpt lat="41.09282637495658" lon="14.740644138413337"><ele>158.0</ele><time>2026-04-04T11:37:40.998Z</time></trkpt><trkpt lat="41.09308998999403" lon="14.740755449398698"><ele>158.0</ele><time>2026-04-04T11:37:42.998Z</time></trkpt><trkpt lat="41.093224740774396" lon="14.740841350052467"><ele>158.33333333333331</ele><time>2026-04-04T11:37:43.998Z</time></trkpt><trkpt lat="41.09338763561691" lon="14.7409130128597"><ele>158.66666666666666</ele><time>2026-04-04T11:37:44.998Z</time></trkpt><trkpt lat="41.093575815766016" lon="14.740964902056465"><ele>159.0</ele><time>2026-04-04T11:37:45.998Z</time></trkpt><trkpt lat="41.093763154026675" lon="14.74100762152284"><ele>159.0</ele><time>2026-04-04T11:37:46.998Z</time></trkpt><trkpt lat="41.09393010936888" lon="14.741031020018749"><ele>159.0</ele><time>2026-04-04T11:37:47.998Z</time></trkpt><trkpt lat="41.09408831073971" lon="14.74103078588325"><ele>159.0</ele><time>2026-04-04T11:37:48.998Z</time></trkpt><trkpt lat="41.09423724539347" lon="14.741016039058556"><ele>158.25</ele><time>2026-04-04T11:37:49.998Z</time></trkpt><trkpt lat="41.09438254171076" lon="14.740998465754698"><ele>157.5</ele><time>2026-04-04T11:37:50.998Z</time></trkpt><trkpt lat="41.09452215275979" lon="14.740974374243377"><ele>156.75</ele><time>2026-04-04T11:37:51.998Z</time></trkpt><trkpt lat="41.094657947208965" lon="14.740976021311962"><ele>156.0</ele><time>2026-04-04T11:37:52.998Z</time></trkpt><trkpt lat="41.09478556390405" lon="14.740941460574074"><ele>156.0</ele><time>2026-04-04T11:37:53.998Z</time></trkpt><trkpt lat="41.0948962901759" lon="14.740912458590126"><ele>156.0</ele><time>2026-04-04T11:37:54.998Z</time></trkpt><trkpt lat="41.094990122423496" lon="14.740896611005205"><ele>156.0</ele><time>2026-04-04T11:37:55.998Z</time></trkpt><trkpt lat="41.0950594692059" lon="14.740890443212352"><ele>156.0</ele><time>2026-04-04T11:37:56.998Z</time></trkpt><trkpt lat="41.09514362287762" lon="14.740910371991506"><ele>156.0</ele><time>2026-04-04T11:37:59.998Z</time></trkpt><trkpt lat="41.09528957586114" lon="14.74101229502925"><ele>154.33333333333334</ele><time>2026-04-04T11:38:24Z</time></trkpt><trkpt lat="41.09540724876746" lon="14.741016923299963"><ele>152.66666666666669</ele><time>2026-04-04T11:38:25Z</time></trkpt><trkpt lat="41.09557087975888" lon="14.7409792187856"><ele>151.0</ele><time>2026-04-04T11:38:26Z</time></trkpt><trkpt lat="41.0957607520907" lon="14.74090558950568"><ele>148.5</ele><time>2026-04-04T11:38:27Z</time></trkpt><trkpt lat="41.09599191721348" lon="14.740835771212382"><ele>146.0</ele><time>2026-04-04T11:38:28Z</time></trkpt><trkpt lat="41.0962399059328" lon="14.740761142706265"><ele>146.0</ele><time>2026-04-04T11:38:29Z</time></trkpt><trkpt lat="41.096528329833994" lon="14.740652960875037"><ele>146.0</ele><time>2026-04-04T11:38:30Z</time></trkpt><trkpt lat="41.096840308579075" lon="14.74054364613211"><ele>145.5</ele><time>2026-04-04T11:38:31Z</time></trkpt><trkpt lat="41.09719740626842" lon="14.740423401893638"><ele>145.0</ele><time>2026-04-04T11:38:32Z</time></trkpt><trkpt lat="41.09730707196886" lon="14.740420595152745"><ele>143.5</ele><time>2026-04-04T11:38:33Z</time></trkpt><trkpt lat="41.097565441508884" lon="14.740334739299625"><ele>142.0</ele><time>2026-04-04T11:38:34Z</time></trkpt><trkpt lat="41.09780755393923" lon="14.740256396847403"><ele>142.5</ele><time>2026-04-04T11:38:35Z</time></trkpt><trkpt lat="41.09803213341719" lon="14.74018681717608"><ele>143.0</ele><time>2026-04-04T11:38:36Z</time></trkpt><trkpt lat="41.098256859015066" lon="14.740135686874064"><ele>143.0</ele><time>2026-04-04T11:38:37Z</time></trkpt><trkpt lat="41.09847645742723" lon="14.740131107355376"><ele>143.0</ele><time>2026-04-04T11:38:38Z</time></trkpt><trkpt lat="41.098708524994535" lon="14.740188129158765"><ele>141.5</ele><time>2026-04-04T11:38:39Z</time></trkpt><trkpt lat="41.09893432130933" lon="14.740296062181853"><ele>140.0</ele><time>2026-04-04T11:38:40Z</time></trkpt><trkpt lat="41.09915217204279" lon="14.740433465900404"><ele>140.0</ele><time>2026-04-04T11:38:41Z</time></trkpt><trkpt lat="41.099398629663504" lon="14.740608427603265"><ele>140.0</ele><time>2026-04-04T11:38:42Z</time></trkpt><trkpt lat="41.09965540437606" lon="14.740808509657452"><ele>140.0</ele><time>2026-04-04T11:38:43Z</time></trkpt><trkpt lat="41.099905015318996" lon="14.741006725413422"><ele>140.0</ele><time>2026-04-04T11:38:44Z</time></trkpt><trkpt lat="41.10016584772783" lon="14.741211689082366"><ele>138.5</ele><time>2026-04-04T11:38:45Z</time></trkpt><trkpt lat="41.10039811455375" lon="14.741388102134698"><ele>137.0</ele><time>2026-04-04T11:38:46Z</time></trkpt><trkpt lat="41.10063534947613" lon="14.741563773328004"><ele>137.0</ele><time>2026-04-04T11:38:47Z</time></trkpt><trkpt lat="41.10087020401128" lon="14.741739940918174"><ele>137.0</ele><time>2026-04-04T11:38:48Z</time></trkpt><trkpt lat="41.101101054464124" lon="14.741913700754498"><ele>135.5</ele><time>2026-04-04T11:38:48.999Z</time></trkpt><trkpt lat="41.101326703806656" lon="14.742077049047003"><ele>134.0</ele><time>2026-04-04T11:38:49.999Z</time></trkpt><trkpt lat="41.10155696659362" lon="14.742247409980678"><ele>134.5</ele><time>2026-04-04T11:38:50.999Z</time></trkpt><trkpt lat="41.10178885707328" lon="14.742410604482501"><ele>135.0</ele><time>2026-04-04T11:38:51.999Z</time></trkpt><trkpt lat="41.10199801644391" lon="14.74257515910025"><ele>133.5</ele><time>2026-04-04T11:38:52.999Z</time></trkpt><trkpt lat="41.10220146405941" lon="14.742732211392708"><ele>132.0</ele><time>2026-04-04T11:38:53.999Z</time></trkpt><trkpt lat="41.102408728713435" lon="14.742895333670655"><ele>133.5</ele><time>2026-04-04T11:38:54.999Z</time></trkpt><trkpt lat="41.10261365960507" lon="14.743057776483019"><ele>135.0</ele><time>2026-04-04T11:38:55.999Z</time></trkpt><trkpt lat="41.10281059424547" lon="14.743213500713521"><ele>135.0</ele><time>2026-04-04T11:38:56.999Z</time></trkpt><trkpt lat="41.10301084946793" lon="14.743366204727321"><ele>135.0</ele><time>2026-04-04T11:38:57.999Z</time></trkpt><trkpt lat="41.10321038437082" lon="14.743516176965219"><ele>135.33333333333334</ele><time>2026-04-04T11:38:58.999Z</time></trkpt><trkpt lat="41.103400699032804" lon="14.743660213933312"><ele>135.66666666666669</ele><time>2026-04-04T11:38:59.999Z</time></trkpt><trkpt lat="41.10357877439832" lon="14.743794507396968"><ele>136.0</ele><time>2026-04-04T11:39:00.999Z</time></trkpt><trkpt lat="41.10373908998933" lon="14.743917883340378"><ele>136.0</ele><time>2026-04-04T11:39:01.999Z</time></trkpt><trkpt lat="41.10389373479902" lon="14.744034528263994"><ele>136.0</ele><time>2026-04-04T11:39:02.999Z</time></trkpt><trkpt lat="41.10403627039748" lon="14.74414132283776"><ele>136.0</ele><time>2026-04-04T11:39:03.999Z</time></trkpt><trkpt lat="41.10416558334868" lon="14.744239397775926"><ele>136.33333333333334</ele><time>2026-04-04T11:39:04.999Z</time></trkpt><trkpt lat="41.10429300749675" lon="14.744344893847243"><ele>136.66666666666666</ele><time>2026-04-04T11:39:05.999Z</time></trkpt><trkpt lat="41.10442293560197" lon="14.744446047108498"><ele>137.0</ele><time>2026-04-04T11:39:06.999Z</time></trkpt><trkpt lat="41.104551902292535" lon="14.744545042014682"><ele>136.33333333333331</ele><time>2026-04-04T11:39:07.999Z</time></trkpt><trkpt lat="41.10467218808422" lon="14.744672888916016"><ele>135.66666666666666</ele><time>2026-04-04T11:39:08.999Z</time></trkpt><trkpt lat="41.1048244567031" lon="14.744813023028168"><ele>135.0</ele><time>2026-04-04T11:39:09.999Z</time></trkpt><trkpt lat="41.1050084244068" lon="14.744962902864565"><ele>135.0</ele><time>2026-04-04T11:39:10.999Z</time></trkpt><trkpt lat="41.10517915639828" lon="14.745148879190653"><ele>135.0</ele><time>2026-04-04T11:39:11.999Z</time></trkpt><trkpt lat="41.10535413524169" lon="14.74534265597896"><ele>135.0</ele><time>2026-04-04T11:39:12.999Z</time></trkpt><trkpt lat="41.10552933421619" lon="14.745529430914484"><ele>133.5</ele><time>2026-04-04T11:39:13.999Z</time></trkpt><trkpt lat="41.10570152735328" lon="14.745713794422466"><ele>132.0</ele><time>2026-04-04T11:39:14.999Z</time></trkpt><trkpt lat="41.10588359065315" lon="14.745904868227097"><ele>131.0</ele><time>2026-04-04T11:39:15.999Z</time></trkpt><trkpt lat="41.106062853128215" lon="14.746101528788753"><ele>130.0</ele><time>2026-04-04T11:39:16.999Z</time></trkpt><trkpt lat="41.106238423813174" lon="14.746296159449615"><ele>130.0</ele><time>2026-04-04T11:39:17.999Z</time></trkpt><trkpt lat="41.10640798670321" lon="14.746483032366664"><ele>130.0</ele><time>2026-04-04T11:39:18.999Z</time></trkpt><trkpt lat="41.106572706868626" lon="14.74666778725627"><ele>130.0</ele><time>2026-04-04T11:39:19.999Z</time></trkpt><trkpt lat="41.10672922431829" lon="14.746847563407428"><ele>130.33333333333334</ele><time>2026-04-04T11:39:20.999Z</time></trkpt><trkpt lat="41.10688287228802" lon="14.74703264065801"><ele>130.66666666666666</ele><time>2026-04-04T11:39:21.999Z</time></trkpt><trkpt lat="41.10703439330316" lon="14.747213658537053"><ele>131.0</ele><time>2026-04-04T11:39:22.999Z</time></trkpt><trkpt lat="41.10718499769803" lon="14.747390276242436"><ele>131.0</ele><time>2026-04-04T11:39:23.999Z</time></trkpt><trkpt lat="41.10733380549229" lon="14.747562191146756"><ele>131.0</ele><time>2026-04-04T11:39:24.999Z</time></trkpt><trkpt lat="41.10748227128909" lon="14.74772779556584"><ele>131.0</ele><time>2026-04-04T11:39:25.999Z</time></trkpt><trkpt lat="41.10762712717477" lon="14.747891796290723"><ele>130.0</ele><time>2026-04-04T11:39:26.999Z</time></trkpt><trkpt lat="41.10777034584903" lon="14.748053940051765"><ele>129.0</ele><time>2026-04-04T11:39:27.999Z</time></trkpt><trkpt lat="41.107903200940406" lon="14.748209882362618"><ele>128.0</ele><time>2026-04-04T11:39:28.999Z</time></trkpt><trkpt lat="41.1080165573548" lon="14.748334737011437"><ele>127.99999999999999</ele><time>2026-04-04T11:39:29.999Z</time></trkpt><trkpt lat="41.10811257300034" lon="14.748432218586004"><ele>128.0</ele><time>2026-04-04T11:39:30.999Z</time></trkpt><trkpt lat="41.10818268125918" lon="14.748489268901904"><ele>128.0</ele><time>2026-04-04T11:39:31.999Z</time></trkpt><trkpt lat="41.10824248830584" lon="14.748542268381444"><ele>128.0</ele><time>2026-04-04T11:39:32.999Z</time></trkpt><trkpt lat="41.1083083015058" lon="14.748599085497002"><ele>127.99999999999999</ele><time>2026-04-04T11:39:33.999Z</time></trkpt><trkpt lat="41.1083897567177" lon="14.748655587495637"><ele>128.0</ele><time>2026-04-04T11:39:34.999Z</time></trkpt><trkpt lat="41.10847332945214" lon="14.748702317882755"><ele>127.25</ele><time>2026-04-04T11:39:35.999Z</time></trkpt><trkpt lat="41.10856771257549" lon="14.748780799535046"><ele>126.5</ele><time>2026-04-04T11:39:36.999Z</time></trkpt><trkpt lat="41.10869631599348" lon="14.748872421675422"><ele>125.75</ele><time>2026-04-04T11:39:37.999Z</time></trkpt><trkpt lat="41.10883940897595" lon="14.748964442041839"><ele>125.0</ele><time>2026-04-04T11:39:38.999Z</time></trkpt><trkpt lat="41.109002225670835" lon="14.74906377672623"><ele>125.33333333333333</ele><time>2026-04-04T11:39:39.999Z</time></trkpt><trkpt lat="41.1091787537302" lon="14.749145876595056"><ele>125.66666666666666</ele><time>2026-04-04T11:39:40.999Z</time></trkpt><trkpt lat="41.109350932750814" lon="14.749267975941908"><ele>126.0</ele><time>2026-04-04T11:39:41.999Z</time></trkpt><trkpt lat="41.10952497347973" lon="14.749380923084967"><ele>126.66666666666666</ele><time>2026-04-04T11:39:42.998Z</time></trkpt><trkpt lat="41.109690379975994" lon="14.74947793546094"><ele>127.33333333333333</ele><time>2026-04-04T11:39:43.998Z</time></trkpt><trkpt lat="41.1098588106119" lon="14.749585659545046"><ele>128.0</ele><time>2026-04-04T11:39:44.998Z</time></trkpt><trkpt lat="41.110024434748354" lon="14.749694707852711"><ele>129.0</ele><time>2026-04-04T11:39:45.998Z</time></trkpt><trkpt lat="41.110191211957016" lon="14.749806668739488"><ele>130.0</ele><time>2026-04-04T11:39:46.998Z</time></trkpt><trkpt lat="41.11035239770153" lon="14.749924741438315"><ele>131.0</ele><time>2026-04-04T11:39:47.998Z</time></trkpt><trkpt lat="41.110506318026424" lon="14.750040852092111"><ele>131.0</ele><time>2026-04-04T11:39:48.998Z</time></trkpt><trkpt lat="41.11064099259344" lon="14.750156527001892"><ele>131.0</ele><time>2026-04-04T11:39:49.998Z</time></trkpt><trkpt lat="41.11076039941604" lon="14.750275699085297"><ele>131.0</ele><time>2026-04-04T11:39:50.998Z</time></trkpt><trkpt lat="41.11088147734772" lon="14.75041314345562"><ele>131.33333333333331</ele><time>2026-04-04T11:39:51.998Z</time></trkpt><trkpt lat="41.110997768955954" lon="14.750545855602985"><ele>131.66666666666666</ele><time>2026-04-04T11:39:52.998Z</time></trkpt><trkpt lat="41.11112711029921" lon="14.750681446960396"><ele>132.0</ele><time>2026-04-04T11:39:53.998Z</time></trkpt><trkpt lat="41.11126055513397" lon="14.750817163074263"><ele>132.0</ele><time>2026-04-04T11:39:54.998Z</time></trkpt><trkpt lat="41.111391685260635" lon="14.75094352415415"><ele>132.0</ele><time>2026-04-04T11:39:55.998Z</time></trkpt><trkpt lat="41.11151046242298" lon="14.751056713541166"><ele>132.0</ele><time>2026-04-04T11:39:56.998Z</time></trkpt><trkpt lat="41.11163137827771" lon="14.751171712640353"><ele>132.66666666666666</ele><time>2026-04-04T11:39:57.998Z</time></trkpt><trkpt lat="41.11175497364663" lon="14.751295121445434"><ele>133.33333333333331</ele><time>2026-04-04T11:39:58.998Z</time></trkpt><trkpt lat="41.111869518362475" lon="14.751408356112"><ele>134.0</ele><time>2026-04-04T11:39:59.998Z</time></trkpt><trkpt lat="41.11199350276004" lon="14.7515273748559"><ele>134.0</ele><time>2026-04-04T11:40:00.998Z</time></trkpt><trkpt lat="41.11213729056288" lon="14.751671515287411"><ele>134.0</ele><time>2026-04-04T11:40:01.998Z</time></trkpt><trkpt lat="41.112306095314324" lon="14.751850396060927"><ele>134.0</ele><time>2026-04-04T11:40:02.998Z</time></trkpt><trkpt lat="41.11245988744429" lon="14.752021032538709"><ele>137.0</ele><time>2026-04-04T11:40:03.998Z</time></trkpt><trkpt lat="41.11260081233145" lon="14.752167956395079"><ele>140.0</ele><time>2026-04-04T11:40:04.998Z</time></trkpt><trkpt lat="41.1127228726147" lon="14.752286003751633"><ele>143.0</ele><time>2026-04-04T11:40:05.998Z</time></trkpt><trkpt lat="41.112834654789836" lon="14.752393869773746"><ele>143.0</ele><time>2026-04-04T11:40:06.998Z</time></trkpt><trkpt lat="41.11294777706817" lon="14.752498749941251"><ele>143.0</ele><time>2026-04-04T11:40:07.998Z</time></trkpt><trkpt lat="41.11306869177326" lon="14.752603565791096"><ele>143.0</ele><time>2026-04-04T11:40:08.998Z</time></trkpt><trkpt lat="41.113191938202135" lon="14.752710519791922"><ele>143.0</ele><time>2026-04-04T11:40:09.998Z</time></trkpt><trkpt lat="41.11331186841255" lon="14.752810025070973"><ele>144.33333333333331</ele><time>2026-04-04T11:40:10.998Z</time></trkpt><trkpt lat="41.11344353481845" lon="14.752911053507615"><ele>145.66666666666666</ele><time>2026-04-04T11:40:11.998Z</time></trkpt><trkpt lat="41.11360579405578" lon="14.753065889042555"><ele>147.0</ele><time>2026-04-04T11:40:12.998Z</time></trkpt><trkpt lat="41.113816377020385" lon="14.753210524816655"><ele>147.0</ele><time>2026-04-04T11:40:14Z</time></trkpt><trkpt lat="41.114043208772806" lon="14.75340253759453"><ele>147.0</ele><time>2026-04-04T11:40:15Z</time></trkpt><trkpt lat="41.114285599578395" lon="14.753594651696782"><ele>148.0</ele><time>2026-04-04T11:40:16Z</time></trkpt><trkpt lat="41.11453087016369" lon="14.753801170930432"><ele>149.0</ele><time>2026-04-04T11:40:17Z</time></trkpt><trkpt lat="41.114783106920086" lon="14.754013552415003"><ele>147.5</ele><time>2026-04-04T11:40:18Z</time></trkpt><trkpt lat="41.115011153565476" lon="14.754200658954726"><ele>146.0</ele><time>2026-04-04T11:40:19Z</time></trkpt><trkpt lat="41.115207459143654" lon="14.754347752328925"><ele>146.66666666666666</ele><time>2026-04-04T11:40:20Z</time></trkpt><trkpt lat="41.115391883527096" lon="14.75449610499213"><ele>147.33333333333334</ele><time>2026-04-04T11:40:21Z</time></trkpt><trkpt lat="41.11557002102087" lon="14.754644741504684"><ele>148.0</ele><time>2026-04-04T11:40:22Z</time></trkpt><trkpt lat="41.11574336170994" lon="14.7547989770915"><ele>148.0</ele><time>2026-04-04T11:40:23Z</time></trkpt><trkpt lat="41.11590145328557" lon="14.754966876590574"><ele>148.0</ele><time>2026-04-04T11:40:24Z</time></trkpt><trkpt lat="41.11605392101345" lon="14.755162998941111"><ele>148.0</ele><time>2026-04-04T11:40:25Z</time></trkpt><trkpt lat="41.116192532952724" lon="14.755384950429411"><ele>149.33333333333334</ele><time>2026-04-04T11:40:26Z</time></trkpt><trkpt lat="41.11632284189645" lon="14.755620170087399"><ele>150.66666666666666</ele><time>2026-04-04T11:40:27Z</time></trkpt><trkpt lat="41.116438065398114" lon="14.755868453551937"><ele>152.0</ele><time>2026-04-04T11:40:28Z</time></trkpt><trkpt lat="41.11653923716556" lon="14.756133233870177"><ele>150.33333333333331</ele><time>2026-04-04T11:40:29Z</time></trkpt><trkpt lat="41.11660183583859" lon="14.756395734308533"><ele>148.66666666666666</ele><time>2026-04-04T11:40:30Z</time></trkpt><trkpt lat="41.11668185775232" lon="14.756633981922203"><ele>147.0</ele><time>2026-04-04T11:40:31Z</time></trkpt><trkpt lat="41.11674793817424" lon="14.75688314977588"><ele>147.0</ele><time>2026-04-04T11:40:32Z</time></trkpt><trkpt lat="41.11681631173316" lon="14.757125385006518"><ele>147.0</ele><time>2026-04-04T11:40:33Z</time></trkpt><trkpt lat="41.1168821728262" lon="14.757366903878205"><ele>147.0</ele><time>2026-04-04T11:40:34Z</time></trkpt><trkpt lat="41.11694459130165" lon="14.757605919987988"><ele>147.0</ele><time>2026-04-04T11:40:35Z</time></trkpt><trkpt lat="41.11700314551286" lon="14.75783258308686"><ele>147.0</ele><time>2026-04-04T11:40:36Z</time></trkpt><trkpt lat="41.11706277611025" lon="14.758042123033166"><ele>147.0</ele><time>2026-04-04T11:40:37Z</time></trkpt><trkpt lat="41.117122651607104" lon="14.758256967917719"><ele>147.0</ele><time>2026-04-04T11:40:38Z</time></trkpt><trkpt lat="41.11718079430791" lon="14.758477491329218"><ele>147.0</ele><time>2026-04-04T11:40:39Z</time></trkpt><trkpt lat="41.11723625001941" lon="14.758702806026847"><ele>147.0</ele><time>2026-04-04T11:40:40Z</time></trkpt><trkpt lat="41.117296088476294" lon="14.758927558397579"><ele>145.66666666666666</ele><time>2026-04-04T11:40:41Z</time></trkpt><trkpt lat="41.117357816991685" lon="14.759155314420287"><ele>144.33333333333331</ele><time>2026-04-04T11:40:42Z</time></trkpt><trkpt lat="41.117424878805195" lon="14.759399232250733"><ele>143.0</ele><time>2026-04-04T11:40:43Z</time></trkpt><trkpt lat="41.11748970924628" lon="14.759638445493607"><ele>142.66666666666666</ele><time>2026-04-04T11:40:44Z</time></trkpt><trkpt lat="41.11755622241203" lon="14.759878396249652"><ele>142.33333333333334</ele><time>2026-04-04T11:40:45Z</time></trkpt><trkpt lat="41.11761271600946" lon="14.760089852640666"><ele>142.0</ele><time>2026-04-04T11:40:46Z</time></trkpt><trkpt lat="41.117682620808665" lon="14.760272856019622"><ele>142.0</ele><time>2026-04-04T11:40:47Z</time></trkpt><trkpt lat="41.11771627093157" lon="14.760458014906696"><ele>142.0</ele><time>2026-04-04T11:40:48Z</time></trkpt><trkpt lat="41.117766091721045" lon="14.760633518430804"><ele>142.0</ele><time>2026-04-04T11:40:49Z</time></trkpt><trkpt lat="41.11781116438056" lon="14.760795326525901"><ele>142.0</ele><time>2026-04-04T11:40:50Z</time></trkpt><trkpt lat="41.11785186278558" lon="14.760953556593481"><ele>142.5</ele><time>2026-04-04T11:40:50.999Z</time></trkpt><trkpt lat="41.1178970882341" lon="14.761111211750801"><ele>143.0</ele><time>2026-04-04T11:40:51.999Z</time></trkpt><trkpt lat="41.11793916452643" lon="14.761253953676007"><ele>143.5</ele><time>2026-04-04T11:40:52.999Z</time></trkpt><trkpt lat="41.117976960897565" lon="14.761394156078849"><ele>144.0</ele><time>2026-04-04T11:40:53.999Z</time></trkpt><trkpt lat="41.11801708472761" lon="14.761531892694299"><ele>144.0</ele><time>2026-04-04T11:40:54.999Z</time></trkpt><trkpt lat="41.118066884808904" lon="14.76168715393533"><ele>144.0</ele><time>2026-04-04T11:40:55.999Z</time></trkpt><trkpt lat="41.118105243247655" lon="14.7618189375435"><ele>144.0</ele><time>2026-04-04T11:40:56.999Z</time></trkpt><trkpt lat="41.118148218142146" lon="14.76196724951194"><ele>144.0</ele><time>2026-04-04T11:40:57.999Z</time></trkpt><trkpt lat="41.118191210708545" lon="14.762119036559438"><ele>146.0</ele><time>2026-04-04T11:40:58.999Z</time></trkpt><trkpt lat="41.11823086172129" lon="14.762261801819031"><ele>148.0</ele><time>2026-04-04T11:40:59.999Z</time></trkpt><trkpt lat="41.11827864334754" lon="14.762413308052414"><ele>150.0</ele><time>2026-04-04T11:41:00.999Z</time></trkpt><trkpt lat="41.11832007554914" lon="14.762572644307816"><ele>152.0</ele><time>2026-04-04T11:41:01.999Z</time></trkpt><trkpt lat="41.118362249061704" lon="14.76273017018305"><ele>153.0</ele><time>2026-04-04T11:41:02.999Z</time></trkpt><trkpt lat="41.118396925884966" lon="14.762871218251705"><ele>154.0</ele><time>2026-04-04T11:41:03.999Z</time></trkpt><trkpt lat="41.118435086305595" lon="14.763005541507178"><ele>155.0</ele><time>2026-04-04T11:41:04.999Z</time></trkpt><trkpt lat="41.118476755435594" lon="14.763143612398672"><ele>156.0</ele><time>2026-04-04T11:41:05.999Z</time></trkpt><trkpt lat="41.11851403755817" lon="14.7632839619516"><ele>157.0</ele><time>2026-04-04T11:41:06.999Z</time></trkpt><trkpt lat="41.11855640520458" lon="14.763423600238687"><ele>158.2</ele><time>2026-04-04T11:41:07.999Z</time></trkpt><trkpt lat="41.11859358281323" lon="14.76355375646423"><ele>159.39999999999998</ele><time>2026-04-04T11:41:08.999Z</time></trkpt><trkpt lat="41.11862752089204" lon="14.763683792219908"><ele>160.60000000000002</ele><time>2026-04-04T11:41:09.999Z</time></trkpt><trkpt lat="41.11866183663811" lon="14.763811026096668"><ele>161.8</ele><time>2026-04-04T11:41:10.999Z</time></trkpt><trkpt lat="41.11870019393538" lon="14.763939749829749"><ele>163.0</ele><time>2026-04-04T11:41:11.999Z</time></trkpt><trkpt lat="41.11873736858589" lon="14.764077545932478"><ele>163.0</ele><time>2026-04-04T11:41:12.999Z</time></trkpt><trkpt lat="41.11877149307326" lon="14.764205045922047"><ele>163.0</ele><time>2026-04-04T11:41:13.999Z</time></trkpt><trkpt lat="41.118796587121885" lon="14.764320439114062"><ele>163.0</ele><time>2026-04-04T11:41:14.999Z</time></trkpt><trkpt lat="41.1188141965128" lon="14.764445880449669"><ele>163.0</ele><time>2026-04-04T11:41:15.999Z</time></trkpt><trkpt lat="41.11880502056948" lon="14.764585845016425"><ele>163.0</ele><time>2026-04-04T11:41:16.999Z</time></trkpt><trkpt lat="41.11876883784061" lon="14.76471902577002"><ele>164.0</ele><time>2026-04-04T11:41:17.999Z</time></trkpt><trkpt lat="41.11872500287984" lon="14.76484723918328"><ele>165.0</ele><time>2026-04-04T11:41:18.999Z</time></trkpt><trkpt lat="41.118683440212166" lon="14.7649638821857"><ele>166.0</ele><time>2026-04-04T11:41:19.999Z</time></trkpt><trkpt lat="41.1186343682929" lon="14.76508622116427"><ele>167.0</ele><time>2026-04-04T11:41:20.999Z</time></trkpt><trkpt lat="41.118588125874375" lon="14.76520812220764"><ele>168.0</ele><time>2026-04-04T11:41:21.999Z</time></trkpt><trkpt lat="41.11855141601491" lon="14.765323748929452"><ele>168.60000000000002</ele><time>2026-04-04T11:41:22.999Z</time></trkpt><trkpt lat="41.118522719324986" lon="14.765437717144023"><ele>169.20000000000002</ele><time>2026-04-04T11:41:23.999Z</time></trkpt><trkpt lat="41.118505300367175" lon="14.765560892799375"><ele>169.8</ele><time>2026-04-04T11:41:24.999Z</time></trkpt><trkpt lat="41.11850104354362" lon="14.765696982706512"><ele>170.4</ele><time>2026-04-04T11:41:25.999Z</time></trkpt><trkpt lat="41.11850847528476" lon="14.765818405580285"><ele>171.0</ele><time>2026-04-04T11:41:26.999Z</time></trkpt><trkpt lat="41.11853429266238" lon="14.765959283026653"><ele>172.0</ele><time>2026-04-04T11:41:27.999Z</time></trkpt><trkpt lat="41.118573929057305" lon="14.766085621549893"><ele>173.0</ele><time>2026-04-04T11:41:28.999Z</time></trkpt><trkpt lat="41.118630249194986" lon="14.766210257000433"><ele>174.0</ele><time>2026-04-04T11:41:29.999Z</time></trkpt><trkpt lat="41.118698060476845" lon="14.766318409469648"><ele>175.0</ele><time>2026-04-04T11:41:30.999Z</time></trkpt><trkpt lat="41.118772623138014" lon="14.766398557151641"><ele>176.0</ele><time>2026-04-04T11:41:31.999Z</time></trkpt><trkpt lat="41.118857771153586" lon="14.76645009285617"><ele>176.0</ele><time>2026-04-04T11:41:32.999Z</time></trkpt><trkpt lat="41.11894935391016" lon="14.766469085087959"><ele>176.0</ele><time>2026-04-04T11:41:33.999Z</time></trkpt><trkpt lat="41.119026060876045" lon="14.766455463501286"><ele>176.0</ele><time>2026-04-04T11:41:34.999Z</time></trkpt><trkpt lat="41.11909789515196" lon="14.766427850261485"><ele>176.0</ele><time>2026-04-04T11:41:35.999Z</time></trkpt><trkpt lat="41.119219811980976" lon="14.766387063579257"><ele>176.0</ele><time>2026-04-04T11:41:37.999Z</time></trkpt><trkpt lat="41.11930635972445" lon="14.766378824173673"><ele>173.33333333333331</ele><time>2026-04-04T11:41:38.999Z</time></trkpt><trkpt lat="41.11938047162515" lon="14.76638617973763"><ele>170.66666666666666</ele><time>2026-04-04T11:41:39.999Z</time></trkpt><trkpt lat="41.11945075244636" lon="14.766405380599622"><ele>168.0</ele><time>2026-04-04T11:41:40.999Z</time></trkpt><trkpt lat="41.119524445703114" lon="14.76644578551161"><ele>165.33333333333334</ele><time>2026-04-04T11:41:41.999Z</time></trkpt><trkpt lat="41.11961415549176" lon="14.766526392087123"><ele>162.66666666666669</ele><time>2026-04-04T11:41:43.999Z</time></trkpt><trkpt lat="41.11966711028975" lon="14.766587659575196"><ele>160.0</ele><time>2026-04-04T11:41:44.999Z</time></trkpt><trkpt lat="41.11975107239495" lon="14.766713149173333"><ele>160.0</ele><time>2026-04-04T11:41:46.998Z</time></trkpt><trkpt lat="41.11979703616564" lon="14.766787476079442"><ele>160.0</ele><time>2026-04-04T11:41:47.998Z</time></trkpt><trkpt lat="41.119847549553555" lon="14.766877353517831"><ele>160.0</ele><time>2026-04-04T11:41:48.998Z</time></trkpt><trkpt lat="41.119898682505344" lon="14.766967283330256"><ele>160.0</ele><time>2026-04-04T11:41:49.998Z</time></trkpt><trkpt lat="41.1199534164074" lon="14.767063505560037"><ele>160.0</ele><time>2026-04-04T11:41:50.998Z</time></trkpt><trkpt lat="41.120007529144694" lon="14.76715088751421"><ele>160.0</ele><time>2026-04-04T11:41:51.998Z</time></trkpt><trkpt lat="41.120057448115176" lon="14.767246919014832"><ele>158.6</ele><time>2026-04-04T11:41:52.998Z</time></trkpt><trkpt lat="41.12010050272653" lon="14.767364379951639"><ele>157.2</ele><time>2026-04-04T11:41:53.998Z</time></trkpt><trkpt lat="41.12017031992134" lon="14.767458156878735"><ele>155.8</ele><time>2026-04-04T11:41:54.998Z</time></trkpt><trkpt lat="41.12022328255637" lon="14.767563659312994"><ele>154.4</ele><time>2026-04-04T11:41:55.998Z</time></trkpt><trkpt lat="41.12027590239034" lon="14.767666871937903"><ele>153.0</ele><time>2026-04-04T11:41:56.998Z</time></trkpt><trkpt lat="41.1203316098213" lon="14.767766206427881"><ele>152.20000000000002</ele><time>2026-04-04T11:41:57.998Z</time></trkpt><trkpt lat="41.12038382799533" lon="14.767867205709633"><ele>151.4</ele><time>2026-04-04T11:41:58.998Z</time></trkpt><trkpt lat="41.12043810040165" lon="14.767969105516226"><ele>150.60000000000002</ele><time>2026-04-04T11:41:59.998Z</time></trkpt><trkpt lat="41.12048920491168" lon="14.76806607051449"><ele>149.8</ele><time>2026-04-04T11:42:00.998Z</time></trkpt><trkpt lat="41.12054454416817" lon="14.768170714350187"><ele>149.0</ele><time>2026-04-04T11:42:01.998Z</time></trkpt><trkpt lat="41.12059391958256" lon="14.76826580017001"><ele>149.0</ele><time>2026-04-04T11:42:02.998Z</time></trkpt><trkpt lat="41.12064336124062" lon="14.768363200876404"><ele>149.0</ele><time>2026-04-04T11:42:03.998Z</time></trkpt><trkpt lat="41.120695543788024" lon="14.76846114769252"><ele>149.0</ele><time>2026-04-04T11:42:04.998Z</time></trkpt><trkpt lat="41.12074487589962" lon="14.768565226115712"><ele>149.0</ele><time>2026-04-04T11:42:05.998Z</time></trkpt><trkpt lat="41.12079855561966" lon="14.768669376630507"><ele>149.0</ele><time>2026-04-04T11:42:06.998Z</time></trkpt><trkpt lat="41.12085269226172" lon="14.768766935298363"><ele>146.6</ele><time>2026-04-04T11:42:07.998Z</time></trkpt><trkpt lat="41.12089707943122" lon="14.768856057844204"><ele>144.2</ele><time>2026-04-04T11:42:08.998Z</time></trkpt><trkpt lat="41.12094090633456" lon="14.768937384036073"><ele>141.79999999999998</ele><time>2026-04-04T11:42:09.998Z</time></trkpt><trkpt lat="41.120988328767226" lon="14.769025034943533"><ele>139.4</ele><time>2026-04-04T11:42:10.998Z</time></trkpt><trkpt lat="41.121068470315834" lon="14.769177015561434"><ele>137.0</ele><time>2026-04-04T11:42:12.998Z</time></trkpt><trkpt lat="41.12111128420485" lon="14.769255889959393"><ele>137.0</ele><time>2026-04-04T11:42:13.998Z</time></trkpt><trkpt lat="41.12116108311317" lon="14.769375359854735"><ele>137.0</ele><time>2026-04-04T11:42:15.998Z</time></trkpt><trkpt lat="41.12132547068193" lon="14.769232141096534"><ele>137.0</ele><time>2026-04-04T11:42:17.998Z</time></trkpt><trkpt lat="41.12142623523847" lon="14.769121522202651"><ele>137.0</ele><time>2026-04-04T11:42:18.998Z</time></trkpt><trkpt lat="41.12153559004174" lon="14.769019223581997"><ele>137.0</ele><time>2026-04-04T11:42:20Z</time></trkpt><trkpt lat="41.12165268700185" lon="14.768910997402438"><ele>137.0</ele><time>2026-04-04T11:42:21Z</time></trkpt><trkpt lat="41.12177631007214" lon="14.768806780928857"><ele>137.0</ele><time>2026-04-04T11:42:22Z</time></trkpt><trkpt lat="41.121903403656184" lon="14.768704212186037"><ele>137.0</ele><time>2026-04-04T11:42:23Z</time></trkpt><trkpt lat="41.12203547716401" lon="14.768595532819493"><ele>137.33333333333331</ele><time>2026-04-04T11:42:24Z</time></trkpt><trkpt lat="41.12216462557733" lon="14.768481668721808"><ele>137.66666666666666</ele><time>2026-04-04T11:42:25Z</time></trkpt><trkpt lat="41.122299296845625" lon="14.768352234197957"><ele>138.0</ele><time>2026-04-04T11:42:26Z</time></trkpt><trkpt lat="41.122441180941635" lon="14.768221663756144"><ele>138.0</ele><time>2026-04-04T11:42:27Z</time></trkpt><trkpt lat="41.12259000740426" lon="14.768091134446546"><ele>138.0</ele><time>2026-04-04T11:42:28Z</time></trkpt><trkpt lat="41.122743907935146" lon="14.76795163853215"><ele>138.0</ele><time>2026-04-04T11:42:29Z</time></trkpt><trkpt lat="41.12288371572088" lon="14.7678239063771"><ele>138.0</ele><time>2026-04-04T11:42:30Z</time></trkpt><trkpt lat="41.12302160829568" lon="14.767694048335994"><ele>138.0</ele><time>2026-04-04T11:42:31Z</time></trkpt><trkpt lat="41.12315358188879" lon="14.767570201789411"><ele>138.0</ele><time>2026-04-04T11:42:32Z</time></trkpt><trkpt lat="41.12327150983529" lon="14.767460821070529"><ele>138.5</ele><time>2026-04-04T11:42:33Z</time></trkpt><trkpt lat="41.12336959903068" lon="14.76736643783411"><ele>139.0</ele><time>2026-04-04T11:42:34Z</time></trkpt><trkpt lat="41.12349299655794" lon="14.767256814901062"><ele>139.5</ele><time>2026-04-04T11:42:35Z</time></trkpt><trkpt lat="41.123597193206486" lon="14.7671607299422"><ele>140.0</ele><time>2026-04-04T11:42:36Z</time></trkpt><trkpt lat="41.12370253775328" lon="14.767071282703892"><ele>140.0</ele><time>2026-04-04T11:42:37Z</time></trkpt><trkpt lat="41.123802561967096" lon="14.766985460255457"><ele>140.0</ele><time>2026-04-04T11:42:38Z</time></trkpt><trkpt lat="41.12390719661174" lon="14.766907569919436"><ele>140.0</ele><time>2026-04-04T11:42:39Z</time></trkpt><trkpt lat="41.12402182068102" lon="14.766857641719236"><ele>140.0</ele><time>2026-04-04T11:42:40Z</time></trkpt><trkpt lat="41.12414087927297" lon="14.766847133253949"><ele>138.25</ele><time>2026-04-04T11:42:41Z</time></trkpt><trkpt lat="41.124257542574725" lon="14.766900159798997"><ele>136.5</ele><time>2026-04-04T11:42:42Z</time></trkpt><trkpt lat="41.124361695422124" lon="14.766981551873497"><ele>134.75</ele><time>2026-04-04T11:42:43Z</time></trkpt><trkpt lat="41.124451834161256" lon="14.767103660257112"><ele>133.0</ele><time>2026-04-04T11:42:44Z</time></trkpt><trkpt lat="41.12452838734812" lon="14.767264020763506"><ele>133.0</ele><time>2026-04-04T11:42:45Z</time></trkpt><trkpt lat="41.12460486111948" lon="14.767427568374274"><ele>133.0</ele><time>2026-04-04T11:42:46Z</time></trkpt><trkpt lat="41.12468590726588" lon="14.767591032383963"><ele>133.0</ele><time>2026-04-04T11:42:47Z</time></trkpt><trkpt lat="41.12476642377938" lon="14.76774882970072"><ele>133.0</ele><time>2026-04-04T11:42:48Z</time></trkpt><trkpt lat="41.12484162758569" lon="14.767893759838689"><ele>130.75</ele><time>2026-04-04T11:42:49Z</time></trkpt><trkpt lat="41.12491336623079" lon="14.768019359424697"><ele>128.5</ele><time>2026-04-04T11:42:50Z</time></trkpt><trkpt lat="41.12498155989012" lon="14.768149011448092"><ele>126.25</ele><time>2026-04-04T11:42:51Z</time></trkpt><trkpt lat="41.12505625597448" lon="14.768290294616298"><ele>124.0</ele><time>2026-04-04T11:42:51.999Z</time></trkpt><trkpt lat="41.12513642239552" lon="14.768440427995408"><ele>123.75</ele><time>2026-04-04T11:42:52.999Z</time></trkpt><trkpt lat="41.125215831467095" lon="14.768599356075292"><ele>123.5</ele><time>2026-04-04T11:42:53.999Z</time></trkpt><trkpt lat="41.12528813668149" lon="14.768744551704348"><ele>123.25</ele><time>2026-04-04T11:42:54.999Z</time></trkpt><trkpt lat="41.125359333563644" lon="14.76887642398033"><ele>123.0</ele><time>2026-04-04T11:42:55.999Z</time></trkpt><trkpt lat="41.12543320905013" lon="14.768995332255795"><ele>123.0</ele><time>2026-04-04T11:42:56.999Z</time></trkpt><trkpt lat="41.12552599836073" lon="14.769097689645717"><ele>123.0</ele><time>2026-04-04T11:42:57.999Z</time></trkpt><trkpt lat="41.125642436442575" lon="14.769127195967647"><ele>123.0</ele><time>2026-04-04T11:42:58.999Z</time></trkpt><trkpt lat="41.12577760034861" lon="14.769081050679597"><ele>123.0</ele><time>2026-04-04T11:42:59.999Z</time></trkpt><trkpt lat="41.125904757595684" lon="14.768988673513658"><ele>121.33333333333334</ele><time>2026-04-04T11:43:00.999Z</time></trkpt><trkpt lat="41.12603128589474" lon="14.768852052294124"><ele>119.66666666666667</ele><time>2026-04-04T11:43:01.999Z</time></trkpt><trkpt lat="41.12616083611474" lon="14.768707649334909"><ele>118.0</ele><time>2026-04-04T11:43:02.999Z</time></trkpt><trkpt lat="41.126301747754944" lon="14.768580727035552"><ele>119.66666666666667</ele><time>2026-04-04T11:43:03.999Z</time></trkpt><trkpt lat="41.12645958579651" lon="14.76847696800056"><ele>121.33333333333334</ele><time>2026-04-04T11:43:04.999Z</time></trkpt><trkpt lat="41.12663281429498" lon="14.768396369432152"><ele>123.0</ele><time>2026-04-04T11:43:05.999Z</time></trkpt><trkpt lat="41.12680833686158" lon="14.768341236153013"><ele>123.0</ele><time>2026-04-04T11:43:06.999Z</time></trkpt><trkpt lat="41.126967416153754" lon="14.76830478336479"><ele>123.0</ele><time>2026-04-04T11:43:07.999Z</time></trkpt><trkpt lat="41.12711542755972" lon="14.768272873552357"><ele>123.0</ele><time>2026-04-04T11:43:08.999Z</time></trkpt><trkpt lat="41.12725750188647" lon="14.768253043285133"><ele>123.0</ele><time>2026-04-04T11:43:09.999Z</time></trkpt><trkpt lat="41.12738810657052" lon="14.768242036530253"><ele>123.0</ele><time>2026-04-04T11:43:10.999Z</time></trkpt><trkpt lat="41.127509255812775" lon="14.768236191804652"><ele>123.0</ele><time>2026-04-04T11:43:11.999Z</time></trkpt><trkpt lat="41.127630166704364" lon="14.768236029554787"><ele>123.0</ele><time>2026-04-04T11:43:12.999Z</time></trkpt><trkpt lat="41.12776342029845" lon="14.76826161517693"><ele>121.0</ele><time>2026-04-04T11:43:13.999Z</time></trkpt><trkpt lat="41.127895228772914" lon="14.768316821927153"><ele>119.0</ele><time>2026-04-04T11:43:14.999Z</time></trkpt><trkpt lat="41.12803488675222" lon="14.768377476933454"><ele>117.0</ele><time>2026-04-04T11:43:15.999Z</time></trkpt><trkpt lat="41.12814764715528" lon="14.768551174349815"><ele>116.33333333333334</ele><time>2026-04-04T11:43:16.999Z</time></trkpt><trkpt lat="41.12833178760265" lon="14.768466529863884"><ele>115.66666666666667</ele><time>2026-04-04T11:43:17.999Z</time></trkpt><trkpt lat="41.12850057382604" lon="14.768442116904854"><ele>115.0</ele><time>2026-04-04T11:43:18.999Z</time></trkpt><trkpt lat="41.12867827093147" lon="14.768405978573744"><ele>115.0</ele><time>2026-04-04T11:43:19.999Z</time></trkpt><trkpt lat="41.12886147303237" lon="14.768369185471132"><ele>115.0</ele><time>2026-04-04T11:43:20.999Z</time></trkpt><trkpt lat="41.129054086547214" lon="14.768330598090959"><ele>115.0</ele><time>2026-04-04T11:43:21.999Z</time></trkpt><trkpt lat="41.12924768196678" lon="14.76829525761613"><ele>115.33333333333334</ele><time>2026-04-04T11:43:22.999Z</time></trkpt><trkpt lat="41.129440963436615" lon="14.768263725653947"><ele>115.66666666666666</ele><time>2026-04-04T11:43:23.999Z</time></trkpt><trkpt lat="41.1296224757105" lon="14.76823142947332"><ele>116.0</ele><time>2026-04-04T11:43:24.999Z</time></trkpt><trkpt lat="41.12979219559469" lon="14.768200449440547"><ele>115.5</ele><time>2026-04-04T11:43:25.999Z</time></trkpt><trkpt lat="41.129944349144246" lon="14.768172328449207"><ele>115.0</ele><time>2026-04-04T11:43:26.999Z</time></trkpt><trkpt lat="41.130077768272315" lon="14.768146089689528"><ele>114.5</ele><time>2026-04-04T11:43:27.999Z</time></trkpt><trkpt lat="41.130180961192096" lon="14.768125606531614"><ele>114.0</ele><time>2026-04-04T11:43:28.999Z</time></trkpt><trkpt lat="41.130258219012724" lon="14.768117671734759"><ele>114.0</ele><time>2026-04-04T11:43:29.999Z</time></trkpt><trkpt lat="41.130324975008186" lon="14.768129735615874"><ele>114.0</ele><time>2026-04-04T11:43:30.999Z</time></trkpt><trkpt lat="41.130395023895645" lon="14.7681538316639"><ele>114.0</ele><time>2026-04-04T11:43:31.999Z</time></trkpt><trkpt lat="41.130478342175735" lon="14.768150927093311"><ele>114.0</ele><time>2026-04-04T11:43:32.999Z</time></trkpt><trkpt lat="41.13057178527106" lon="14.768129952658125"><ele>114.0</ele><time>2026-04-04T11:43:33.999Z</time></trkpt><trkpt lat="41.130671540483014" lon="14.768135980332994"><ele>114.0</ele><time>2026-04-04T11:43:34.999Z</time></trkpt><trkpt lat="41.130766806832135" lon="14.768193291050535"><ele>114.4</ele><time>2026-04-04T11:43:35.999Z</time></trkpt><trkpt lat="41.13084883012495" lon="14.768275632143903"><ele>114.80000000000001</ele><time>2026-04-04T11:43:36.999Z</time></trkpt><trkpt lat="41.130928651187986" lon="14.76836078178438"><ele>115.19999999999999</ele><time>2026-04-04T11:43:37.999Z</time></trkpt><trkpt lat="41.13102744778782" lon="14.76840764982008"><ele>115.6</ele><time>2026-04-04T11:43:38.999Z</time></trkpt><trkpt lat="41.13114907869263" lon="14.76842061790428"><ele>116.0</ele><time>2026-04-04T11:43:39.999Z</time></trkpt><trkpt lat="41.131270656505585" lon="14.768441879739012"><ele>116.0</ele><time>2026-04-04T11:43:40.999Z</time></trkpt><trkpt lat="41.131398220485174" lon="14.768488335132812"><ele>116.0</ele><time>2026-04-04T11:43:41.999Z</time></trkpt><trkpt lat="41.13153839828677" lon="14.76855933734362"><ele>116.0</ele><time>2026-04-04T11:43:42.999Z</time></trkpt><trkpt lat="41.13166721653001" lon="14.76862875234291"><ele>116.0</ele><time>2026-04-04T11:43:43.999Z</time></trkpt><trkpt lat="41.13178566717336" lon="14.7686972753798"><ele>117.75</ele><time>2026-04-04T11:43:44.999Z</time></trkpt><trkpt lat="41.131895845975556" lon="14.76876005712385"><ele>119.5</ele><time>2026-04-04T11:43:45.999Z</time></trkpt><trkpt lat="41.132004373193425" lon="14.76883352455661"><ele>121.25</ele><time>2026-04-04T11:43:46.999Z</time></trkpt><trkpt lat="41.13210685136609" lon="14.768917177903177"><ele>123.0</ele><time>2026-04-04T11:43:47.999Z</time></trkpt><trkpt lat="41.1322109395766" lon="14.768999796112203"><ele>123.0</ele><time>2026-04-04T11:43:48.999Z</time></trkpt><trkpt lat="41.13231505796193" lon="14.769080170090913"><ele>123.00000000000001</ele><time>2026-04-04T11:43:49.999Z</time></trkpt><trkpt lat="41.13242251205656" lon="14.769151316187514"><ele>123.00000000000001</ele><time>2026-04-04T11:43:50.999Z</time></trkpt><trkpt lat="41.132520892760326" lon="14.76922349931148"><ele>123.0</ele><time>2026-04-04T11:43:51.999Z</time></trkpt><trkpt lat="41.132602760946526" lon="14.769291207072998"><ele>123.0</ele><time>2026-04-04T11:43:52.998Z</time></trkpt><trkpt lat="41.13266762336455" lon="14.769344711624756"><ele>124.0</ele><time>2026-04-04T11:43:53.998Z</time></trkpt><trkpt lat="41.13275636969886" lon="14.769418506374711"><ele>125.0</ele><time>2026-04-04T11:43:55.998Z</time></trkpt><trkpt lat="41.13283224639576" lon="14.769513813572612"><ele>126.0</ele><time>2026-04-04T11:43:57.998Z</time></trkpt><trkpt lat="41.13294204750078" lon="14.769563162002424"><ele>127.0</ele><time>2026-04-04T11:43:58.998Z</time></trkpt><trkpt lat="41.13303222433328" lon="14.769694599106753"><ele>128.33333333333334</ele><time>2026-04-04T11:43:59.998Z</time></trkpt><trkpt lat="41.133248951069504" lon="14.769843512692663"><ele>129.66666666666666</ele><time>2026-04-04T11:44:01.998Z</time></trkpt><trkpt lat="41.133345922246846" lon="14.769950949458236"><ele>131.0</ele><time>2026-04-04T11:44:02.998Z</time></trkpt><trkpt lat="41.133438674923546" lon="14.770055030086555"><ele>131.0</ele><time>2026-04-04T11:44:03.998Z</time></trkpt><trkpt lat="41.13352117029568" lon="14.770159143672725"><ele>131.0</ele><time>2026-04-04T11:44:04.998Z</time></trkpt><trkpt lat="41.13358596005431" lon="14.770244260913827"><ele>131.0</ele><time>2026-04-04T11:44:05.998Z</time></trkpt><trkpt lat="41.133648169173455" lon="14.77032093337107"><ele>131.0</ele><time>2026-04-04T11:44:06.998Z</time></trkpt><trkpt lat="41.13372612787082" lon="14.770402988102786"><ele>131.0</ele><time>2026-04-04T11:44:07.998Z</time></trkpt><trkpt lat="41.13380228845083" lon="14.770498250143957"><ele>131.0</ele><time>2026-04-04T11:44:08.998Z</time></trkpt><trkpt lat="41.133854160148715" lon="14.770610056904593"><ele>131.0</ele><time>2026-04-04T11:44:09.998Z</time></trkpt><trkpt lat="41.133871270474664" lon="14.770760331537629"><ele>131.0</ele><time>2026-04-04T11:44:10.998Z</time></trkpt><trkpt lat="41.1338561661581" lon="14.77092218947003"><ele>131.0</ele><time>2026-04-04T11:44:11.998Z</time></trkpt><trkpt lat="41.1337847227329" lon="14.771062023467618"><ele>131.25</ele><time>2026-04-04T11:44:12.998Z</time></trkpt><trkpt lat="41.133720360900654" lon="14.771208564459613"><ele>131.5</ele><time>2026-04-04T11:44:13.998Z</time></trkpt><trkpt lat="41.13364802815297" lon="14.771354530574024"><ele>131.75</ele><time>2026-04-04T11:44:14.998Z</time></trkpt><trkpt lat="41.1335790846099" lon="14.77151651810806"><ele>132.0</ele><time>2026-04-04T11:44:15.998Z</time></trkpt><trkpt lat="41.13349913118951" lon="14.771669056132223"><ele>132.0</ele><time>2026-04-04T11:44:16.998Z</time></trkpt><trkpt lat="41.13342588535539" lon="14.771829425869178"><ele>132.0</ele><time>2026-04-04T11:44:17.998Z</time></trkpt><trkpt lat="41.13337174556705" lon="14.771999984392059"><ele>132.0</ele><time>2026-04-04T11:44:18.998Z</time></trkpt><trkpt lat="41.13332152361723" lon="14.772168929997736"><ele>132.0</ele><time>2026-04-04T11:44:19.998Z</time></trkpt><trkpt lat="41.1332874117916" lon="14.772334521715957"><ele>130.75</ele><time>2026-04-04T11:44:20.998Z</time></trkpt><trkpt lat="41.13326877507149" lon="14.772508175571815"><ele>129.5</ele><time>2026-04-04T11:44:21.998Z</time></trkpt><trkpt lat="41.13326141573462" lon="14.772686718774104"><ele>128.25</ele><time>2026-04-04T11:44:22.998Z</time></trkpt><trkpt lat="41.133251686506036" lon="14.772868483292076"><ele>127.0</ele><time>2026-04-04T11:44:23.998Z</time></trkpt><trkpt lat="41.133234100915466" lon="14.773050937463584"><ele>127.6</ele><time>2026-04-04T11:44:24.998Z</time></trkpt><trkpt lat="41.13322062795679" lon="14.77320730649525"><ele>128.2</ele><time>2026-04-04T11:44:25.999Z</time></trkpt><trkpt lat="41.13321121353266" lon="14.773336896099298"><ele>128.8</ele><time>2026-04-04T11:44:26.999Z</time></trkpt><trkpt lat="41.13320889011008" lon="14.773442741188289"><ele>129.4</ele><time>2026-04-04T11:44:27.999Z</time></trkpt><trkpt lat="41.13321495479486" lon="14.773566351784991"><ele>130.0</ele><time>2026-04-04T11:46:21.998Z</time></trkpt><trkpt lat="41.13324097508147" lon="14.773652270460328"><ele>130.0</ele><time>2026-04-04T11:46:22.998Z</time></trkpt><trkpt lat="41.13328026943847" lon="14.773762247575426"><ele>130.0</ele><time>2026-04-04T11:46:24.998Z</time></trkpt><trkpt lat="41.1334322507207" lon="14.77372093798384"><ele>130.0</ele><time>2026-04-04T11:46:25.998Z</time></trkpt><trkpt lat="41.13353651884654" lon="14.773673839549959"><ele>130.0</ele><time>2026-04-04T11:46:26.998Z</time></trkpt><trkpt lat="41.133706561685436" lon="14.773589726052522"><ele>130.0</ele><time>2026-04-04T11:46:27.998Z</time></trkpt><trkpt lat="41.13386881739315" lon="14.77352326055184"><ele>130.0</ele><time>2026-04-04T11:46:28.998Z</time></trkpt><trkpt lat="41.13400045839608" lon="14.773473624912537"><ele>130.0</ele><time>2026-04-04T11:46:29.998Z</time></trkpt><trkpt lat="41.134111648504195" lon="14.773429165018058"><ele>130.0</ele><time>2026-04-04T11:46:30.998Z</time></trkpt><trkpt lat="41.13421974801152" lon="14.773384707368809"><ele>127.6</ele><time>2026-04-04T11:46:32Z</time></trkpt><trkpt lat="41.13431444896055" lon="14.773342458183834"><ele>125.2</ele><time>2026-04-04T11:46:33Z</time></trkpt><trkpt lat="41.13440615418454" lon="14.773304354622667"><ele>122.80000000000001</ele><time>2026-04-04T11:46:34Z</time></trkpt><trkpt lat="41.134494225774546" lon="14.773271782263478"><ele>120.4</ele><time>2026-04-04T11:46:35Z</time></trkpt><trkpt lat="41.13458380135517" lon="14.773240663810492"><ele>118.0</ele><time>2026-04-04T11:46:36Z</time></trkpt><trkpt lat="41.134666159441515" lon="14.773207586675671"><ele>118.0</ele><time>2026-04-04T11:46:37Z</time></trkpt><trkpt lat="41.13473448759547" lon="14.773178948573223"><ele>118.00000000000001</ele><time>2026-04-04T11:46:38Z</time></trkpt><trkpt lat="41.13484460903321" lon="14.773151541891817"><ele>118.00000000000001</ele><time>2026-04-04T11:46:40Z</time></trkpt><trkpt lat="41.134917172502945" lon="14.77328401650617"><ele>118.0</ele><time>2026-04-04T11:46:41Z</time></trkpt><trkpt lat="41.134987538964936" lon="14.773364986323143"><ele>118.0</ele><time>2026-04-04T11:46:42Z</time></trkpt><trkpt lat="41.135061403911436" lon="14.77345340093023"><ele>120.2</ele><time>2026-04-04T11:46:43Z</time></trkpt><trkpt lat="41.13513593844974" lon="14.77354440933151"><ele>122.4</ele><time>2026-04-04T11:46:44Z</time></trkpt><trkpt lat="41.13522050930011" lon="14.773646644647624"><ele>124.60000000000001</ele><time>2026-04-04T11:46:45Z</time></trkpt><trkpt lat="41.13530067804626" lon="14.773746526153525"><ele>126.80000000000001</ele><time>2026-04-04T11:46:46Z</time></trkpt><trkpt lat="41.13539662428309" lon="14.773843039398205"><ele>129.0</ele><time>2026-04-04T11:46:47Z</time></trkpt><trkpt lat="41.135469108331364" lon="14.773976925643838"><ele>129.0</ele><time>2026-04-04T11:46:48Z</time></trkpt><trkpt lat="41.135561912721755" lon="14.774082207923813"><ele>129.0</ele><time>2026-04-04T11:46:49Z</time></trkpt><trkpt lat="41.13565001505153" lon="14.774183454538324"><ele>129.0</ele><time>2026-04-04T11:46:50Z</time></trkpt><trkpt lat="41.13573155372518" lon="14.774284432489255"><ele>129.0</ele><time>2026-04-04T11:46:51Z</time></trkpt><trkpt lat="41.13581610046477" lon="14.774388271108268"><ele>127.0</ele><time>2026-04-04T11:46:52Z</time></trkpt><trkpt lat="41.13590269204315" lon="14.774497028586888"><ele>125.0</ele><time>2026-04-04T11:46:53Z</time></trkpt><trkpt lat="41.13598818549024" lon="14.774609364485313"><ele>123.0</ele><time>2026-04-04T11:46:54Z</time></trkpt><trkpt lat="41.1360777028486" lon="14.77470769203334"><ele>121.0</ele><time>2026-04-04T11:46:55Z</time></trkpt><trkpt lat="41.13615971935136" lon="14.774823629049182"><ele>121.0</ele><time>2026-04-04T11:46:56Z</time></trkpt><trkpt lat="41.13622454560231" lon="14.774939168173871"><ele>121.0</ele><time>2026-04-04T11:46:57Z</time></trkpt><trkpt lat="41.13631652941974" lon="14.77504319386521"><ele>121.0</ele><time>2026-04-04T11:46:58Z</time></trkpt><trkpt lat="41.13639515332358" lon="14.775143194283107"><ele>121.0</ele><time>2026-04-04T11:46:59Z</time></trkpt><trkpt lat="41.13647386954571" lon="14.775235947154027"><ele>121.0</ele><time>2026-04-04T11:47:00Z</time></trkpt><trkpt lat="41.136552861640816" lon="14.775332099534898"><ele>121.4</ele><time>2026-04-04T11:47:01Z</time></trkpt><trkpt lat="41.13662422970295" lon="14.77541564819965"><ele>121.8</ele><time>2026-04-04T11:47:02Z</time></trkpt><trkpt lat="41.13669905047258" lon="14.775517836303527"><ele>122.20000000000002</ele><time>2026-04-04T11:47:03Z</time></trkpt><trkpt lat="41.136770457790924" lon="14.775603200588439"><ele>122.60000000000001</ele><time>2026-04-04T11:47:04Z</time></trkpt><trkpt lat="41.13684810335322" lon="14.775670011381335"><ele>123.0</ele><time>2026-04-04T11:47:05Z</time></trkpt><trkpt lat="41.136925340314214" lon="14.77574303977966"><ele>123.0</ele><time>2026-04-04T11:47:06Z</time></trkpt><trkpt lat="41.13700096287931" lon="14.77580643726882"><ele>123.00000000000001</ele><time>2026-04-04T11:47:07Z</time></trkpt><trkpt lat="41.13707073553138" lon="14.77585829796845"><ele>123.00000000000001</ele><time>2026-04-04T11:47:08Z</time></trkpt><trkpt lat="41.13717267689741" lon="14.77592982806496"><ele>123.0</ele><time>2026-04-04T11:47:10Z</time></trkpt><trkpt lat="41.13728267987614" lon="14.775997787384009"><ele>123.0</ele><time>2026-04-04T11:47:12Z</time></trkpt><trkpt lat="41.13736201771348" lon="14.776047178237114"><ele>122.75</ele><time>2026-04-04T11:47:14Z</time></trkpt><trkpt lat="41.137259145258724" lon="14.776258659308974"><ele>122.5</ele><time>2026-04-04T11:47:15Z</time></trkpt><trkpt lat="41.13720220908091" lon="14.776371767652865"><ele>122.25</ele><time>2026-04-04T11:47:16Z</time></trkpt><trkpt lat="41.13714501962862" lon="14.776442760705768"><ele>122.0</ele><time>2026-04-04T11:47:17Z</time></trkpt><trkpt lat="41.137075792754366" lon="14.776543469362636"><ele>122.0</ele><time>2026-04-04T11:47:19Z</time></trkpt><trkpt lat="41.13700965547174" lon="14.776657314505346"><ele>121.99999999999999</ele><time>2026-04-04T11:47:21Z</time></trkpt><trkpt lat="41.13701887622253" lon="14.776805660057374"><ele>121.99999999999999</ele><time>2026-04-04T11:47:22.999Z</time></trkpt><trkpt lat="41.13706989156724" lon="14.77687660945717"><ele>122.0</ele><time>2026-04-04T11:47:23.999Z</time></trkpt><trkpt lat="41.1371684993732" lon="14.77692822276779"><ele>122.0</ele><time>2026-04-04T11:47:24.999Z</time></trkpt><trkpt lat="41.137243561893165" lon="14.777001299133758"><ele>122.0</ele><time>2026-04-04T11:47:25.999Z</time></trkpt><trkpt lat="41.137317605995214" lon="14.777114377959787"><ele>122.0</ele><time>2026-04-04T11:47:26.999Z</time></trkpt><trkpt lat="41.13737975767576" lon="14.77724425734944"><ele>122.0</ele><time>2026-04-04T11:47:27.999Z</time></trkpt><trkpt lat="41.13746249836095" lon="14.777369432025154"><ele>122.0</ele><time>2026-04-04T11:47:28.999Z</time></trkpt><trkpt lat="41.137531535024756" lon="14.777502537457433"><ele>122.0</ele><time>2026-04-04T11:47:29.999Z</time></trkpt><trkpt lat="41.13759666722119" lon="14.777635586295839"><ele>122.0</ele><time>2026-04-04T11:47:30.999Z</time></trkpt><trkpt lat="41.137665214847665" lon="14.777764393001567"><ele>122.0</ele><time>2026-04-04T11:47:31.999Z</time></trkpt><trkpt lat="41.13773707373613" lon="14.777894244387422"><ele>122.0</ele><time>2026-04-04T11:47:32.999Z</time></trkpt><trkpt lat="41.13780998135484" lon="14.778024094913011"><ele>121.6</ele><time>2026-04-04T11:47:33.999Z</time></trkpt><trkpt lat="41.13788208894086" lon="14.778153513365382"><ele>121.19999999999999</ele><time>2026-04-04T11:47:34.999Z</time></trkpt><trkpt lat="41.13794597603281" lon="14.778274495550308"><ele>120.8</ele><time>2026-04-04T11:47:35.999Z</time></trkpt><trkpt lat="41.13800996548475" lon="14.778387528230741"><ele>120.4</ele><time>2026-04-04T11:47:36.999Z</time></trkpt><trkpt lat="41.13806673670633" lon="14.778485961982451"><ele>120.0</ele><time>2026-04-04T11:47:37.999Z</time></trkpt><trkpt lat="41.138115243707496" lon="14.778574380372337"><ele>120.0</ele><time>2026-04-04T11:47:38.999Z</time></trkpt><trkpt lat="41.13814812257128" lon="14.7786591789815"><ele>120.0</ele><time>2026-04-04T11:47:39.999Z</time></trkpt><trkpt lat="41.13817107965117" lon="14.778751056352744"><ele>120.0</ele><time>2026-04-04T11:47:40.999Z</time></trkpt><trkpt lat="41.13817443619513" lon="14.778836890175107"><ele>120.0</ele><time>2026-04-04T11:47:41.999Z</time></trkpt><trkpt lat="41.138136692921734" lon="14.778997989445683"><ele>120.0</ele><time>2026-04-04T11:47:43.999Z</time></trkpt><trkpt lat="41.1380805052475" lon="14.779077550559363"><ele>120.0</ele><time>2026-04-04T11:47:44.999Z</time></trkpt><trkpt lat="41.13800606245627" lon="14.779152294908638"><ele>120.0</ele><time>2026-04-04T11:47:45.999Z</time></trkpt><trkpt lat="41.13791760189083" lon="14.779229277023276"><ele>120.0</ele><time>2026-04-04T11:47:46.999Z</time></trkpt><trkpt lat="41.137818118438794" lon="14.779312291072303"><ele>120.0</ele><time>2026-04-04T11:47:47.999Z</time></trkpt><trkpt lat="41.13771770996438" lon="14.779385055815295"><ele>120.0</ele><time>2026-04-04T11:47:48.999Z</time></trkpt><trkpt lat="41.137596459048844" lon="14.779452976253777"><ele>119.5</ele><time>2026-04-04T11:47:49.999Z</time></trkpt><trkpt lat="41.13746446740896" lon="14.77950601900701"><ele>119.0</ele><time>2026-04-04T11:47:50.999Z</time></trkpt><trkpt lat="41.13732342319136" lon="14.779535480359236"><ele>118.5</ele><time>2026-04-04T11:47:51.999Z</time></trkpt><trkpt lat="41.137195928455625" lon="14.779547940693195"><ele>118.0</ele><time>2026-04-04T11:47:52.999Z</time></trkpt><trkpt lat="41.137066450153576" lon="14.779562339553557"><ele>117.0</ele><time>2026-04-04T11:47:53.999Z</time></trkpt><trkpt lat="41.13693394891862" lon="14.779579630434892"><ele>116.0</ele><time>2026-04-04T11:47:54.999Z</time></trkpt><trkpt lat="41.136816973983144" lon="14.779595612071294"><ele>115.0</ele><time>2026-04-04T11:47:55.999Z</time></trkpt><trkpt lat="41.136699476701196" lon="14.779609153847263"><ele>114.0</ele><time>2026-04-04T11:47:56.999Z</time></trkpt><trkpt lat="41.13658109086716" lon="14.779623678719428"><ele>115.5</ele><time>2026-04-04T11:47:57.999Z</time></trkpt><trkpt lat="41.13646041492476" lon="14.779637524244269"><ele>117.0</ele><time>2026-04-04T11:47:58.999Z</time></trkpt><trkpt lat="41.13634025345703" lon="14.77965468586407"><ele>118.5</ele><time>2026-04-04T11:47:59.999Z</time></trkpt><trkpt lat="41.13621637063255" lon="14.779671595830425"><ele>120.0</ele><time>2026-04-04T11:48:00.999Z</time></trkpt><trkpt lat="41.13609822330133" lon="14.779683718099875"><ele>120.0</ele><time>2026-04-04T11:48:01.999Z</time></trkpt><trkpt lat="41.13599205555942" lon="14.779696122215062"><ele>120.0</ele><time>2026-04-04T11:48:02.999Z</time></trkpt><trkpt lat="41.13588856826702" lon="14.779715026679662"><ele>120.0</ele><time>2026-04-04T11:48:03.999Z</time></trkpt><trkpt lat="41.135784981529625" lon="14.77974803558181"><ele>120.0</ele><time>2026-04-04T11:48:04.999Z</time></trkpt><trkpt lat="41.13568837076808" lon="14.77979925761118"><ele>120.0</ele><time>2026-04-04T11:48:05.999Z</time></trkpt><trkpt lat="41.13560507644587" lon="14.779863783986842"><ele>120.6</ele><time>2026-04-04T11:48:06.999Z</time></trkpt><trkpt lat="41.13553173298665" lon="14.779942273236573"><ele>121.2</ele><time>2026-04-04T11:48:07.999Z</time></trkpt><trkpt lat="41.13546368401555" lon="14.78003331305276"><ele>121.80000000000001</ele><time>2026-04-04T11:48:08.999Z</time></trkpt><trkpt lat="41.135400341862116" lon="14.780134788018291"><ele>122.4</ele><time>2026-04-04T11:48:09.999Z</time></trkpt><trkpt lat="41.13534385700467" lon="14.78024811950857"><ele>123.0</ele><time>2026-04-04T11:48:10.999Z</time></trkpt><trkpt lat="41.135292710307496" lon="14.780373752203486"><ele>123.2</ele><time>2026-04-04T11:48:11.999Z</time></trkpt><trkpt lat="41.13524635168555" lon="14.780488723770107"><ele>123.4</ele><time>2026-04-04T11:48:12.999Z</time></trkpt><trkpt lat="41.13520083006459" lon="14.780601258492617"><ele>123.60000000000001</ele><time>2026-04-04T11:48:13.999Z</time></trkpt><trkpt lat="41.135157954602555" lon="14.780712379709549"><ele>123.80000000000001</ele><time>2026-04-04T11:48:14.999Z</time></trkpt><trkpt lat="41.135128103788425" lon="14.780819835890842"><ele>124.0</ele><time>2026-04-04T11:48:15.999Z</time></trkpt><trkpt lat="41.13509667674769" lon="14.780931167489433"><ele>123.6</ele><time>2026-04-04T11:48:16.999Z</time></trkpt><trkpt lat="41.135068321574" lon="14.78105421631675"><ele>123.2</ele><time>2026-04-04T11:48:17.999Z</time></trkpt><trkpt lat="41.1350655145713" lon="14.78117902985257"><ele>122.79999999999998</ele><time>2026-04-04T11:48:18.999Z</time></trkpt><trkpt lat="41.1350773287271" lon="14.78130017628744"><ele>122.39999999999999</ele><time>2026-04-04T11:48:19.999Z</time></trkpt><trkpt lat="41.13511130754988" lon="14.781428709949811"><ele>122.0</ele><time>2026-04-04T11:48:20.999Z</time></trkpt><trkpt lat="41.13515313788865" lon="14.781555045782403"><ele>122.0</ele><time>2026-04-04T11:48:21.999Z</time></trkpt><trkpt lat="41.13519123223662" lon="14.781690217897612"><ele>122.0</ele><time>2026-04-04T11:48:22.999Z</time></trkpt><trkpt lat="41.13522055540977" lon="14.781839601989844"><ele>122.0</ele><time>2026-04-04T11:48:23.999Z</time></trkpt><trkpt lat="41.13523777174853" lon="14.781991788587677"><ele>122.0</ele><time>2026-04-04T11:48:24.999Z</time></trkpt><trkpt lat="41.13523543698398" lon="14.782154711072003"><ele>122.0</ele><time>2026-04-04T11:48:25.999Z</time></trkpt><trkpt lat="41.13520868019124" lon="14.78230498242883"><ele>122.0</ele><time>2026-04-04T11:48:26.999Z</time></trkpt><trkpt lat="41.13517064107214" lon="14.782445219100275"><ele>122.0</ele><time>2026-04-04T11:48:27.998Z</time></trkpt><trkpt lat="41.13512673606359" lon="14.782585146305028"><ele>122.0</ele><time>2026-04-04T11:48:28.998Z</time></trkpt><trkpt lat="41.135090273496964" lon="14.78272610921105"><ele>122.0</ele><time>2026-04-04T11:48:29.998Z</time></trkpt><trkpt lat="41.13505991420477" lon="14.782867827829659"><ele>121.99999999999999</ele><time>2026-04-04T11:48:30.998Z</time></trkpt><trkpt lat="41.13502939746935" lon="14.782999699947819"><ele>121.99999999999999</ele><time>2026-04-04T11:48:31.998Z</time></trkpt><trkpt lat="41.13500312319192" lon="14.783130000157314"><ele>122.0</ele><time>2026-04-04T11:48:32.998Z</time></trkpt><trkpt lat="41.134976162853896" lon="14.783257831328584"><ele>122.0</ele><time>2026-04-04T11:48:33.998Z</time></trkpt><trkpt lat="41.13495593152023" lon="14.783368729975518"><ele>121.99999999999999</ele><time>2026-04-04T11:48:34.998Z</time></trkpt><trkpt lat="41.134934677037954" lon="14.783480140223325"><ele>122.0</ele><time>2026-04-04T11:48:35.998Z</time></trkpt><trkpt lat="41.134914022908234" lon="14.78359590590033"><ele>122.0</ele><time>2026-04-04T11:48:36.998Z</time></trkpt><trkpt lat="41.134896066943035" lon="14.783706101188146"><ele>122.0</ele><time>2026-04-04T11:48:38Z</time></trkpt><trkpt lat="41.13488056384003" lon="14.783818286437874"><ele>121.99999999999999</ele><time>2026-04-04T11:48:39Z</time></trkpt><trkpt lat="41.13486039113608" lon="14.783939978301314"><ele>122.0</ele><time>2026-04-04T11:48:40Z</time></trkpt><trkpt lat="41.13484251093973" lon="14.78405839801964"><ele>122.39999999999999</ele><time>2026-04-04T11:48:41Z</time></trkpt><trkpt lat="41.134825668479714" lon="14.784171620453781"><ele>122.79999999999998</ele><time>2026-04-04T11:48:42Z</time></trkpt><trkpt lat="41.13480305306982" lon="14.784270199753605"><ele>123.2</ele><time>2026-04-04T11:48:43Z</time></trkpt><trkpt lat="41.13478040223009" lon="14.784414508282635"><ele>123.6</ele><time>2026-04-04T11:48:45Z</time></trkpt><trkpt lat="41.13475290625017" lon="14.784549576581075"><ele>124.0</ele><time>2026-04-04T11:48:47Z</time></trkpt><trkpt lat="41.134679628730375" lon="14.784694897195257"><ele>124.00000000000001</ele><time>2026-04-04T11:48:49Z</time></trkpt><trkpt lat="41.134625863121165" lon="14.784754587319659"><ele>124.0</ele><time>2026-04-04T11:48:50Z</time></trkpt><trkpt lat="41.134560539150975" lon="14.784802484582688"><ele>124.0</ele><time>2026-04-04T11:48:51Z</time></trkpt><trkpt lat="41.1344959209819" lon="14.784855816257561"><ele>124.0</ele><time>2026-04-04T11:48:52Z</time></trkpt><trkpt lat="41.13442359711417" lon="14.784920200277949"><ele>124.00000000000001</ele><time>2026-04-04T11:48:53Z</time></trkpt><trkpt lat="41.13434666869884" lon="14.784989928479368"><ele>124.0</ele><time>2026-04-04T11:48:54Z</time></trkpt><trkpt lat="41.134272202641554" lon="14.785057023298204"><ele>124.00000000000001</ele><time>2026-04-04T11:48:55Z</time></trkpt><trkpt lat="41.13420515451664" lon="14.785120738734905"><ele>124.0</ele><time>2026-04-04T11:48:56Z</time></trkpt><trkpt lat="41.13414245895305" lon="14.785185567769975"><ele>124.0</ele><time>2026-04-04T11:48:57Z</time></trkpt><trkpt lat="41.13409703757378" lon="14.785252469118486"><ele>124.0</ele><time>2026-04-04T11:48:58Z</time></trkpt><trkpt lat="41.134082094126214" lon="14.785385418488694"><ele>124.00000000000001</ele><time>2026-04-04T11:49:00Z</time></trkpt><trkpt lat="41.13410554514627" lon="14.785470710259462"><ele>124.0</ele><time>2026-04-04T11:49:01Z</time></trkpt><trkpt lat="41.13420414649409" lon="14.785476730671503"><ele>124.16666666666667</ele><time>2026-04-04T11:49:02Z</time></trkpt><trkpt lat="41.13428685351221" lon="14.785469326480602"><ele>124.33333333333334</ele><time>2026-04-04T11:49:03Z</time></trkpt><trkpt lat="41.13437229354399" lon="14.785464328741167"><ele>124.5</ele><time>2026-04-04T11:49:04Z</time></trkpt><trkpt lat="41.13444487842288" lon="14.785483200449505"><ele>124.66666666666666</ele><time>2026-04-04T11:49:05Z</time></trkpt><trkpt lat="41.13451617019926" lon="14.785520661965993"><ele>124.83333333333333</ele><time>2026-04-04T11:49:06Z</time></trkpt><trkpt lat="41.13457173783059" lon="14.785598280419231"><ele>125.0</ele><time>2026-04-04T11:49:07Z</time></trkpt><trkpt lat="41.134617263251606" lon="14.785707689236823"><ele>125.0</ele><time>2026-04-04T11:49:08Z</time></trkpt><trkpt lat="41.1346396883845" lon="14.785844194998068"><ele>125.0</ele><time>2026-04-04T11:49:09Z</time></trkpt><trkpt lat="41.13468670093846" lon="14.785983210569906"><ele>125.0</ele><time>2026-04-04T11:49:10Z</time></trkpt><trkpt lat="41.13473525721803" lon="14.786126792037466"><ele>125.0</ele><time>2026-04-04T11:49:10.999Z</time></trkpt><trkpt lat="41.13477042185997" lon="14.78627104170567"><ele>125.0</ele><time>2026-04-04T11:49:11.999Z</time></trkpt><trkpt lat="41.134801273129376" lon="14.786396847177798"><ele>125.0</ele><time>2026-04-04T11:49:12.999Z</time></trkpt><trkpt lat="41.13482686897056" lon="14.786500596564343"><ele>125.0</ele><time>2026-04-04T11:49:13.999Z</time></trkpt><trkpt lat="41.134863120453694" lon="14.786614080459625"><ele>125.0</ele><time>2026-04-04T11:49:15.999Z</time></trkpt><trkpt lat="41.13488991073969" lon="14.786751243777767"><ele>125.0</ele><time>2026-04-04T11:49:18.999Z</time></trkpt><trkpt lat="41.134929181606616" lon="14.786905684948328"><ele>126.0</ele><time>2026-04-04T11:49:19.999Z</time></trkpt><trkpt lat="41.13495577839471" lon="14.787039795341993"><ele>127.0</ele><time>2026-04-04T11:49:20.999Z</time></trkpt><trkpt lat="41.13498500546282" lon="14.787191112390337"><ele>128.0</ele><time>2026-04-04T11:49:21.999Z</time></trkpt><trkpt lat="41.13504877781126" lon="14.787513769708347"><ele>129.25</ele><time>2026-04-04T11:49:23.999Z</time></trkpt><trkpt lat="41.13508139624229" lon="14.787697663193267"><ele>130.5</ele><time>2026-04-04T11:49:24.999Z</time></trkpt><trkpt lat="41.13510717859134" lon="14.787880061488474"><ele>131.75</ele><time>2026-04-04T11:49:25.999Z</time></trkpt><trkpt lat="41.1351412248106" lon="14.788061694518843"><ele>133.0</ele><time>2026-04-04T11:49:26.999Z</time></trkpt><trkpt lat="41.13517314761165" lon="14.788242312004048"><ele>133.0</ele><time>2026-04-04T11:49:27.999Z</time></trkpt><trkpt lat="41.13518543239235" lon="14.78842105310185"><ele>133.0</ele><time>2026-04-04T11:49:28.999Z</time></trkpt><trkpt lat="41.13521262006694" lon="14.788588184553658"><ele>133.0</ele><time>2026-04-04T11:49:29.999Z</time></trkpt><trkpt lat="41.135245102879814" lon="14.788730006486897"><ele>133.0</ele><time>2026-04-04T11:49:30.999Z</time></trkpt><trkpt lat="41.135270803619136" lon="14.788877163703008"><ele>133.8</ele><time>2026-04-04T11:49:31.999Z</time></trkpt><trkpt lat="41.13529552533208" lon="14.78901440446133"><ele>134.60000000000002</ele><time>2026-04-04T11:49:32.999Z</time></trkpt><trkpt lat="41.13529741183709" lon="14.789138824564427"><ele>135.39999999999998</ele><time>2026-04-04T11:49:33.999Z</time></trkpt><trkpt lat="41.1353101228423" lon="14.789243055907214"><ele>136.2</ele><time>2026-04-04T11:49:34.999Z</time></trkpt><trkpt lat="41.135332938979886" lon="14.789321671152935"><ele>137.0</ele><time>2026-04-04T11:49:35.999Z</time></trkpt><trkpt lat="41.13529882070408" lon="14.78946844676808"><ele>137.0</ele><time>2026-04-04T11:49:37.999Z</time></trkpt><trkpt lat="41.135159197783956" lon="14.789480091623009"><ele>137.0</ele><time>2026-04-04T11:49:39.999Z</time></trkpt><trkpt lat="41.13507440692033" lon="14.789402598782726"><ele>137.0</ele><time>2026-04-04T11:49:41.999Z</time></trkpt><trkpt lat="41.135011666899864" lon="14.789366260395767"><ele>137.0</ele><time>2026-04-04T11:49:42.999Z</time></trkpt><trkpt lat="41.13493627214314" lon="14.789310108930401"><ele>137.0</ele><time>2026-04-04T11:49:43.999Z</time></trkpt><trkpt lat="41.1348645146615" lon="14.789253354240827"><ele>137.66666666666666</ele><time>2026-04-04T11:49:44.999Z</time></trkpt><trkpt lat="41.13480161627802" lon="14.789204371734392"><ele>138.33333333333331</ele><time>2026-04-04T11:49:45.999Z</time></trkpt><trkpt lat="41.13473849660201" lon="14.78917452975626"><ele>139.0</ele><time>2026-04-04T11:49:46.999Z</time></trkpt><trkpt lat="41.134672099212985" lon="14.789169695402244"><ele>139.66666666666666</ele><time>2026-04-04T11:49:47.999Z</time></trkpt><trkpt lat="41.13459171992297" lon="14.78931426956918"><ele>140.33333333333334</ele><time>2026-04-04T11:49:49.999Z</time></trkpt><trkpt lat="41.13460794979137" lon="14.789424648422179"><ele>141.0</ele><time>2026-04-04T11:49:50.999Z</time></trkpt><trkpt lat="41.13462354884982" lon="14.789543361448963"><ele>141.16666666666666</ele><time>2026-04-04T11:49:51.999Z</time></trkpt><trkpt lat="41.13463234655342" lon="14.78966230295606"><ele>141.33333333333334</ele><time>2026-04-04T11:49:52.999Z</time></trkpt><trkpt lat="41.13463875439899" lon="14.789779599331396"><ele>141.5</ele><time>2026-04-04T11:49:53.999Z</time></trkpt><trkpt lat="41.13465084050952" lon="14.78987058639581"><ele>141.66666666666669</ele><time>2026-04-04T11:49:54.999Z</time></trkpt><trkpt lat="41.13468901969001" lon="14.789950749267952"><ele>141.83333333333334</ele><time>2026-04-04T11:49:55.999Z</time></trkpt><trkpt lat="41.13474923062993" lon="14.79003149600564"><ele>142.0</ele><time>2026-04-04T11:49:56.999Z</time></trkpt><trkpt lat="41.13482379234723" lon="14.790098356251146"><ele>142.6</ele><time>2026-04-04T11:49:57.999Z</time></trkpt><trkpt lat="41.13490482288905" lon="14.790155032095587"><ele>143.2</ele><time>2026-04-04T11:49:58.999Z</time></trkpt><trkpt lat="41.13499224028741" lon="14.790203208511096"><ele>143.8</ele><time>2026-04-04T11:49:59.999Z</time></trkpt><trkpt lat="41.135078600381945" lon="14.7902605164475"><ele>144.4</ele><time>2026-04-04T11:50:00.999Z</time></trkpt><trkpt lat="41.13515283125619" lon="14.790330754131146"><ele>145.0</ele><time>2026-04-04T11:50:01.999Z</time></trkpt><trkpt lat="41.13521702529158" lon="14.790430425664248"><ele>145.83333333333334</ele><time>2026-04-04T11:50:02.999Z</time></trkpt><trkpt lat="41.135262176290325" lon="14.790537781840095"><ele>146.66666666666669</ele><time>2026-04-04T11:50:03.999Z</time></trkpt><trkpt lat="41.13528864766425" lon="14.790623208542522"><ele>147.5</ele><time>2026-04-04T11:50:04.999Z</time></trkpt><trkpt lat="41.135319530649646" lon="14.790733235125236"><ele>148.33333333333334</ele><time>2026-04-04T11:50:06.999Z</time></trkpt><trkpt lat="41.13534797201538" lon="14.79084512663331"><ele>149.16666666666666</ele><time>2026-04-04T11:50:09.999Z</time></trkpt><trkpt lat="41.13536325462396" lon="14.790953573696417"><ele>150.0</ele><time>2026-04-04T11:50:12.999Z</time></trkpt><trkpt lat="41.13539349544854" lon="14.791057473629644"><ele>150.83333333333334</ele><time>2026-04-04T11:50:16.999Z</time></trkpt><trkpt lat="41.135422834663494" lon="14.791159349629995"><ele>151.66666666666666</ele><time>2026-04-04T11:50:18.999Z</time></trkpt><trkpt lat="41.13544410427423" lon="14.791291635068738"><ele>152.5</ele><time>2026-04-04T11:50:20.999Z</time></trkpt><trkpt lat="41.135477544625914" lon="14.791445491044865"><ele>153.33333333333331</ele><time>2026-04-04T11:50:22.999Z</time></trkpt><trkpt lat="41.135494804033215" lon="14.791534148920526"><ele>154.16666666666666</ele><time>2026-04-04T11:50:23.999Z</time></trkpt><trkpt lat="41.135515355730895" lon="14.79163113874547"><ele>155.0</ele><time>2026-04-04T11:50:24.999Z</time></trkpt><trkpt lat="41.13553694446858" lon="14.79172190980196"><ele>155.5</ele><time>2026-04-04T11:50:25.998Z</time></trkpt><trkpt lat="41.1355627521652" lon="14.791881601994387"><ele>156.0</ele><time>2026-04-04T11:50:27.998Z</time></trkpt><trkpt lat="41.135575336971726" lon="14.791967550380942"><ele>156.5</ele><time>2026-04-04T11:50:28.998Z</time></trkpt><trkpt lat="41.13556385869363" lon="14.79205608906725"><ele>157.0</ele><time>2026-04-04T11:50:29.998Z</time></trkpt><trkpt lat="41.135534946311424" lon="14.792143476711749"><ele>157.5</ele><time>2026-04-04T11:50:30.998Z</time></trkpt><trkpt lat="41.13550019709897" lon="14.792220798933714"><ele>158.0</ele><time>2026-04-04T11:50:31.998Z</time></trkpt><trkpt lat="41.13541942735034" lon="14.792305383941505"><ele>158.0</ele><time>2026-04-04T11:50:33.998Z</time></trkpt><trkpt lat="41.135349594679646" lon="14.79233336232107"><ele>158.0</ele><time>2026-04-04T11:50:34.998Z</time></trkpt><trkpt lat="41.135265663152985" lon="14.792358502671938"><ele>158.0</ele><time>2026-04-04T11:50:35.998Z</time></trkpt><trkpt lat="41.13517254376326" lon="14.79238426034933"><ele>158.0</ele><time>2026-04-04T11:50:36.998Z</time></trkpt><trkpt lat="41.13506549988781" lon="14.792437098866863"><ele>158.0</ele><time>2026-04-04T11:50:37.998Z</time></trkpt><trkpt lat="41.134983229081" lon="14.792517906996808"><ele>158.0</ele><time>2026-04-04T11:50:38.998Z</time></trkpt><trkpt lat="41.13493574801654" lon="14.79261177672259"><ele>158.0</ele><time>2026-04-04T11:50:39.998Z</time></trkpt><trkpt lat="41.13492286678673" lon="14.792731116224166"><ele>158.0</ele><time>2026-04-04T11:50:40.998Z</time></trkpt><trkpt lat="41.134955791263344" lon="14.792848859782223"><ele>158.0</ele><time>2026-04-04T11:50:41.998Z</time></trkpt><trkpt lat="41.13499992638355" lon="14.792961002615522"><ele>158.0</ele><time>2026-04-04T11:50:42.998Z</time></trkpt><trkpt lat="41.135092429936215" lon="14.79303186260047"><ele>158.5</ele><time>2026-04-04T11:50:43.999Z</time></trkpt><trkpt lat="41.13514113409679" lon="14.793093713460316"><ele>159.0</ele><time>2026-04-04T11:50:44.999Z</time></trkpt><trkpt lat="41.13519030764088" lon="14.793159692505103"><ele>159.5</ele><time>2026-04-04T11:50:45.999Z</time></trkpt><trkpt lat="41.13525357745853" lon="14.793228591990166"><ele>160.0</ele><time>2026-04-04T11:50:46.999Z</time></trkpt><trkpt lat="41.13532043124845" lon="14.793305903856792"><ele>160.5</ele><time>2026-04-04T11:50:47.999Z</time></trkpt><trkpt lat="41.13538624698538" lon="14.793392154933237"><ele>161.0</ele><time>2026-04-04T11:50:48.999Z</time></trkpt><trkpt lat="41.135453532839485" lon="14.793485668905875"><ele>161.20000000000002</ele><time>2026-04-04T11:50:50Z</time></trkpt><trkpt lat="41.135514227383666" lon="14.79359331655209"><ele>161.4</ele><time>2026-04-04T11:50:51Z</time></trkpt><trkpt lat="41.13557683902023" lon="14.793706224104026"><ele>161.6</ele><time>2026-04-04T11:50:52Z</time></trkpt><trkpt lat="41.1356397943094" lon="14.793825782486095"><ele>161.8</ele><time>2026-04-04T11:50:53Z</time></trkpt><trkpt lat="41.135694792187024" lon="14.793940989564454"><ele>162.0</ele><time>2026-04-04T11:50:54Z</time></trkpt><trkpt lat="41.13574877522753" lon="14.794056428666188"><ele>163.0</ele><time>2026-04-04T11:50:55Z</time></trkpt><trkpt lat="41.13580072463431" lon="14.7941733797811"><ele>164.0</ele><time>2026-04-04T11:50:56Z</time></trkpt><trkpt lat="41.13586042773269" lon="14.794289288818733"><ele>165.0</ele><time>2026-04-04T11:50:57Z</time></trkpt><trkpt lat="41.135938104751276" lon="14.794395413098016"><ele>166.0</ele><time>2026-04-04T11:50:58Z</time></trkpt><trkpt lat="41.13601320885111" lon="14.794482760940026"><ele>167.0</ele><time>2026-04-04T11:50:59Z</time></trkpt><trkpt lat="41.13608698744331" lon="14.794554768707847"><ele>167.6</ele><time>2026-04-04T11:51:00Z</time></trkpt><trkpt lat="41.136152309066766" lon="14.794620192335874"><ele>168.2</ele><time>2026-04-04T11:51:01Z</time></trkpt><trkpt lat="41.136213937674555" lon="14.794688434726432"><ele>168.8</ele><time>2026-04-04T11:51:02Z</time></trkpt><trkpt lat="41.13627319808403" lon="14.79475102097908"><ele>169.4</ele><time>2026-04-04T11:51:03Z</time></trkpt><trkpt lat="41.13637229652956" lon="14.794847036947887"><ele>170.0</ele><time>2026-04-04T11:51:05Z</time></trkpt><trkpt lat="41.13644818361378" lon="14.794931227869046"><ele>170.0</ele><time>2026-04-04T11:51:07Z</time></trkpt><trkpt lat="41.136520924363836" lon="14.795006459295445"><ele>170.0</ele><time>2026-04-04T11:51:35.999Z</time></trkpt><trkpt lat="41.136608376436776" lon="14.795101558475142"><ele>170.0</ele><time>2026-04-04T11:51:37.999Z</time></trkpt><trkpt lat="41.136660527441" lon="14.795166592690345"><ele>170.0</ele><time>2026-04-04T11:51:38.999Z</time></trkpt><trkpt lat="41.136709235001625" lon="14.795242544654174"><ele>170.0</ele><time>2026-04-04T11:51:39.999Z</time></trkpt><trkpt lat="41.13676658993446" lon="14.795327475676125"><ele>170.0</ele><time>2026-04-04T11:51:40.999Z</time></trkpt><trkpt lat="41.13682912740643" lon="14.79542294133268"><ele>171.75</ele><time>2026-04-04T11:51:41.999Z</time></trkpt><trkpt lat="41.13689596406474" lon="14.79552043138878"><ele>173.5</ele><time>2026-04-04T11:51:42.999Z</time></trkpt><trkpt lat="41.136976509126555" lon="14.795631744790347"><ele>175.25</ele><time>2026-04-04T11:51:43.999Z</time></trkpt><trkpt lat="41.13706065779596" lon="14.795753243961421"><ele>177.0</ele><time>2026-04-04T11:51:44.999Z</time></trkpt><trkpt lat="41.13715115098431" lon="14.795881879296903"><ele>178.25</ele><time>2026-04-04T11:51:45.999Z</time></trkpt><trkpt lat="41.137247541965024" lon="14.796016903831756"><ele>179.5</ele><time>2026-04-04T11:51:46.999Z</time></trkpt><trkpt lat="41.13734043767483" lon="14.79615340703805"><ele>180.75</ele><time>2026-04-04T11:51:47.999Z</time></trkpt><trkpt lat="41.13743374312714" lon="14.796295813554739"><ele>182.0</ele><time>2026-04-04T11:51:48.999Z</time></trkpt><trkpt lat="41.13752739986783" lon="14.796442470787266"><ele>182.0</ele><time>2026-04-04T11:51:49.999Z</time></trkpt><trkpt lat="41.13762249942052" lon="14.796594631347391"><ele>182.0</ele><time>2026-04-04T11:51:50.999Z</time></trkpt><trkpt lat="41.137719907708956" lon="14.796750960259184"><ele>182.0</ele><time>2026-04-04T11:51:51.999Z</time></trkpt><trkpt lat="41.1378177873963" lon="14.796908876059403"><ele>183.0</ele><time>2026-04-04T11:51:52.999Z</time></trkpt><trkpt lat="41.13791889976313" lon="14.79707295499784"><ele>184.0</ele><time>2026-04-04T11:51:53.999Z</time></trkpt><trkpt lat="41.13802282169186" lon="14.79724194261144"><ele>185.0</ele><time>2026-04-04T11:51:54.999Z</time></trkpt><trkpt lat="41.138122550943585" lon="14.797420466535295"><ele>185.0</ele><time>2026-04-04T11:51:55.999Z</time></trkpt><trkpt lat="41.13821778601218" lon="14.797607097946033"><ele>185.0</ele><time>2026-04-04T11:51:56.999Z</time></trkpt><trkpt lat="41.13831191650935" lon="14.79780153903495"><ele>185.0</ele><time>2026-04-04T11:51:57.999Z</time></trkpt><trkpt lat="41.13840398350887" lon="14.798002159897994"><ele>185.33333333333331</ele><time>2026-04-04T11:51:58.999Z</time></trkpt><trkpt lat="41.13850494614338" lon="14.798236530023297"><ele>185.66666666666666</ele><time>2026-04-04T11:51:59.999Z</time></trkpt><trkpt lat="41.13861499837038" lon="14.798504127530558"><ele>186.0</ele><time>2026-04-04T11:52:00.999Z</time></trkpt><trkpt lat="41.13872408479074" lon="14.798781184010242"><ele>186.0</ele><time>2026-04-04T11:52:01.999Z</time></trkpt><trkpt lat="41.138839602907794" lon="14.799104212573141"><ele>186.0</ele><time>2026-04-04T11:52:02.999Z</time></trkpt><trkpt lat="41.138939987967696" lon="14.799406081196118"><ele>186.66666666666666</ele><time>2026-04-04T11:52:03.999Z</time></trkpt><trkpt lat="41.139026536600774" lon="14.799688225035247"><ele>187.33333333333331</ele><time>2026-04-04T11:52:04.999Z</time></trkpt><trkpt lat="41.13909911440783" lon="14.799947526795771"><ele>188.0</ele><time>2026-04-04T11:52:05.999Z</time></trkpt><trkpt lat="41.139164634794646" lon="14.800206740229951"><ele>191.0</ele><time>2026-04-04T11:52:06.999Z</time></trkpt><trkpt lat="41.13922843699627" lon="14.800491904002229"><ele>194.0</ele><time>2026-04-04T11:52:07.999Z</time></trkpt><trkpt lat="41.139285697773055" lon="14.800807249893127"><ele>194.5</ele><time>2026-04-04T11:52:08.999Z</time></trkpt><trkpt lat="41.13934127652813" lon="14.80114212482064"><ele>195.0</ele><time>2026-04-04T11:52:09.999Z</time></trkpt><trkpt lat="41.13939601774553" lon="14.801448491849978"><ele>195.0</ele><time>2026-04-04T11:52:10.999Z</time></trkpt><trkpt lat="41.139448392730586" lon="14.801744029930983"><ele>195.0</ele><time>2026-04-04T11:52:11.999Z</time></trkpt><trkpt lat="41.13948949916334" lon="14.802020945050447"><ele>195.0</ele><time>2026-04-04T11:52:12.999Z</time></trkpt><trkpt lat="41.13951799856283" lon="14.802312447100824"><ele>195.66666666666669</ele><time>2026-04-04T11:52:13.999Z</time></trkpt><trkpt lat="41.13953289461988" lon="14.802594751451537"><ele>196.33333333333334</ele><time>2026-04-04T11:52:14.999Z</time></trkpt><trkpt lat="41.13954227801314" lon="14.802875589493485"><ele>197.0</ele><time>2026-04-04T11:52:15.999Z</time></trkpt><trkpt lat="41.139551010498934" lon="14.803149074709356"><ele>197.33333333333334</ele><time>2026-04-04T11:52:16.999Z</time></trkpt><trkpt lat="41.13955829300694" lon="14.803422193151121"><ele>197.66666666666669</ele><time>2026-04-04T11:52:17.999Z</time></trkpt><trkpt lat="41.139557491513806" lon="14.8037002387877"><ele>198.0</ele><time>2026-04-04T11:52:18.999Z</time></trkpt><trkpt lat="41.139551400238446" lon="14.803981696031824"><ele>198.0</ele><time>2026-04-04T11:52:19.999Z</time></trkpt><trkpt lat="41.1395470567822" lon="14.804273051468444"><ele>198.0</ele><time>2026-04-04T11:52:20.999Z</time></trkpt><trkpt lat="41.13954761115723" lon="14.804574743591328"><ele>198.0</ele><time>2026-04-04T11:52:21.999Z</time></trkpt><trkpt lat="41.139549485588745" lon="14.804870224317142"><ele>198.33333333333331</ele><time>2026-04-04T11:52:22.999Z</time></trkpt><trkpt lat="41.13954622934956" lon="14.805152615599827"><ele>198.66666666666666</ele><time>2026-04-04T11:52:23.999Z</time></trkpt><trkpt lat="41.13953843323205" lon="14.805412053747222"><ele>199.0</ele><time>2026-04-04T11:52:24.999Z</time></trkpt><trkpt lat="41.1395338226072" lon="14.805647931887913"><ele>199.0</ele><time>2026-04-04T11:52:25.999Z</time></trkpt><trkpt lat="41.13953736772433" lon="14.805882565891563"><ele>199.0</ele><time>2026-04-04T11:52:26.999Z</time></trkpt><trkpt lat="41.13954547591707" lon="14.806119941173016"><ele>199.0</ele><time>2026-04-04T11:52:27.999Z</time></trkpt><trkpt lat="41.13955389354116" lon="14.806353814628672"><ele>199.33333333333331</ele><time>2026-04-04T11:52:28.999Z</time></trkpt><trkpt lat="41.139559047625134" lon="14.806587576235778"><ele>199.66666666666669</ele><time>2026-04-04T11:52:29.999Z</time></trkpt><trkpt lat="41.13956135119062" lon="14.806819422676156"><ele>200.0</ele><time>2026-04-04T11:52:30.999Z</time></trkpt><trkpt lat="41.13954537926141" lon="14.807054541392745"><ele>200.33333333333334</ele><time>2026-04-04T11:52:31.999Z</time></trkpt><trkpt lat="41.13954433024983" lon="14.80729065132184"><ele>200.66666666666669</ele><time>2026-04-04T11:52:32.999Z</time></trkpt><trkpt lat="41.13955928774105" lon="14.807516581845881"><ele>201.0</ele><time>2026-04-04T11:52:33.999Z</time></trkpt><trkpt lat="41.13955822287892" lon="14.807727600685135"><ele>201.0</ele><time>2026-04-04T11:52:34.999Z</time></trkpt><trkpt lat="41.13955956175852" lon="14.80791993348954"><ele>201.0</ele><time>2026-04-04T11:52:35.999Z</time></trkpt><trkpt lat="41.13955877845428" lon="14.808117763474401"><ele>201.0</ele><time>2026-04-04T11:52:36.999Z</time></trkpt><trkpt lat="41.13955563283467" lon="14.808316191035814"><ele>201.0</ele><time>2026-04-04T11:52:37.999Z</time></trkpt><trkpt lat="41.13955330459527" lon="14.808519190917439"><ele>201.0</ele><time>2026-04-04T11:52:38.999Z</time></trkpt><trkpt lat="41.13955452379793" lon="14.808714783138662"><ele>201.0</ele><time>2026-04-04T11:52:39.999Z</time></trkpt><trkpt lat="41.13955287049643" lon="14.80890496200468"><ele>201.0</ele><time>2026-04-04T11:52:40.999Z</time></trkpt><trkpt lat="41.13955405435539" lon="14.809094104653996"><ele>201.0</ele><time>2026-04-04T11:52:41.999Z</time></trkpt><trkpt lat="41.139556252573186" lon="14.809269022860223"><ele>201.5</ele><time>2026-04-04T11:52:42.998Z</time></trkpt><trkpt lat="41.13956649633562" lon="14.809436909367307"><ele>202.0</ele><time>2026-04-04T11:52:43.998Z</time></trkpt><trkpt lat="41.13958998442612" lon="14.809607465622884"><ele>202.5</ele><time>2026-04-04T11:52:44.998Z</time></trkpt><trkpt lat="41.13962174115386" lon="14.809778899376377"><ele>203.0</ele><time>2026-04-04T11:52:45.998Z</time></trkpt><trkpt lat="41.13965790000113" lon="14.809934738790782"><ele>203.0</ele><time>2026-04-04T11:52:46.998Z</time></trkpt><trkpt lat="41.13969508008922" lon="14.810077222968292"><ele>203.0</ele><time>2026-04-04T11:52:47.998Z</time></trkpt><trkpt lat="41.139733065845924" lon="14.810205341776246"><ele>203.0</ele><time>2026-04-04T11:52:48.998Z</time></trkpt><trkpt lat="41.13977189110629" lon="14.810328319135333"><ele>203.0</ele><time>2026-04-04T11:52:50Z</time></trkpt><trkpt lat="41.13980389078099" lon="14.81043382139654"><ele>203.0</ele><time>2026-04-04T11:52:51Z</time></trkpt><trkpt lat="41.13981945419964" lon="14.810523213268931"><ele>202.75</ele><time>2026-04-04T11:52:52Z</time></trkpt><trkpt lat="41.13983751123049" lon="14.810638718755209"><ele>202.5</ele><time>2026-04-04T11:52:53Z</time></trkpt><trkpt lat="41.13987567059456" lon="14.810773772967483"><ele>202.25</ele><time>2026-04-04T11:52:54Z</time></trkpt><trkpt lat="41.13993540028082" lon="14.810925404476833"><ele>202.0</ele><time>2026-04-04T11:52:55Z</time></trkpt><trkpt lat="41.13999251135165" lon="14.811074245624926"><ele>201.0</ele><time>2026-04-04T11:52:56Z</time></trkpt><trkpt lat="41.140052018017094" lon="14.81122187503037"><ele>200.0</ele><time>2026-04-04T11:52:57Z</time></trkpt><trkpt lat="41.140101939232075" lon="14.811375651368712"><ele>199.0</ele><time>2026-04-04T11:52:58Z</time></trkpt><trkpt lat="41.14014814510424" lon="14.811529292583472"><ele>198.0</ele><time>2026-04-04T11:52:59Z</time></trkpt><trkpt lat="41.14019012756585" lon="14.811666640856304"><ele>198.0</ele><time>2026-04-04T11:53:00Z</time></trkpt><trkpt lat="41.14022719173986" lon="14.811792018271394"><ele>198.0</ele><time>2026-04-04T11:53:01Z</time></trkpt><trkpt lat="41.14026249275814" lon="14.811895296109864"><ele>198.0</ele><time>2026-04-04T11:53:02Z</time></trkpt><trkpt lat="41.140296563324334" lon="14.811994604592407"><ele>198.0</ele><time>2026-04-04T11:53:03Z</time></trkpt><trkpt lat="41.14033494078938" lon="14.812077886538848"><ele>198.0</ele><time>2026-04-04T11:53:04Z</time></trkpt><trkpt lat="41.140382183982126" lon="14.812224842435182"><ele>198.0</ele><time>2026-04-04T11:53:06Z</time></trkpt><trkpt lat="41.14039056106689" lon="14.8123356216742"><ele>198.0</ele><time>2026-04-04T11:53:07Z</time></trkpt><trkpt lat="41.14038899112164" lon="14.812437606929487"><ele>198.0</ele><time>2026-04-04T11:53:08Z</time></trkpt><trkpt lat="41.140399273565016" lon="14.812580579149223"><ele>198.0</ele><time>2026-04-04T11:53:10Z</time></trkpt><trkpt lat="41.1404069169712" lon="14.812475729872093"><ele>198.0</ele><time>2026-04-04T11:53:36.999Z</time></trkpt><trkpt lat="41.1403988170821" lon="14.812348133326019"><ele>198.0</ele><time>2026-04-04T11:53:37.999Z</time></trkpt><trkpt lat="41.140390357255555" lon="14.812244191761682"><ele>198.0</ele><time>2026-04-04T11:53:38.999Z</time></trkpt><trkpt lat="41.14037258191801" lon="14.812141603637203"><ele>198.0</ele><time>2026-04-04T11:53:39.999Z</time></trkpt><trkpt lat="41.14033635423892" lon="14.812055459467153"><ele>198.0</ele><time>2026-04-04T11:53:40.999Z</time></trkpt><trkpt lat="41.14028599248203" lon="14.81193462135962"><ele>198.0</ele><time>2026-04-04T11:53:41.999Z</time></trkpt><trkpt lat="41.14023918814714" lon="14.811798263062153"><ele>198.0</ele><time>2026-04-04T11:53:42.999Z</time></trkpt><trkpt lat="41.14019680766431" lon="14.811659602598809"><ele>198.0</ele><time>2026-04-04T11:53:43.999Z</time></trkpt><trkpt lat="41.140154187246864" lon="14.811509251426656"><ele>198.0</ele><time>2026-04-04T11:53:44.999Z</time></trkpt><trkpt lat="41.1400956695945" lon="14.811343129479262"><ele>198.0</ele><time>2026-04-04T11:53:45.999Z</time></trkpt><trkpt lat="41.14004090969263" lon="14.81116481053483"><ele>198.0</ele><time>2026-04-04T11:53:46.999Z</time></trkpt><trkpt lat="41.13998575624669" lon="14.811016654777063"><ele>197.2</ele><time>2026-04-04T11:53:47.999Z</time></trkpt><trkpt lat="41.13993412514236" lon="14.81089007523902"><ele>196.4</ele><time>2026-04-04T11:53:48.999Z</time></trkpt><trkpt lat="41.1398867000235" lon="14.810773092427457"><ele>195.6</ele><time>2026-04-04T11:53:49.999Z</time></trkpt><trkpt lat="41.13984916179732" lon="14.81068835857861"><ele>194.79999999999998</ele><time>2026-04-04T11:53:50.999Z</time></trkpt><trkpt lat="41.139814797174104" lon="14.81057897721949"><ele>194.0</ele><time>2026-04-04T11:53:52.999Z</time></trkpt><trkpt lat="41.13994714199396" lon="14.81071551931914"><ele>194.0</ele><time>2026-04-04T11:54:03.999Z</time></trkpt><trkpt lat="41.14002720684319" lon="14.810846236995925"><ele>194.0</ele><time>2026-04-04T11:54:04.999Z</time></trkpt><trkpt lat="41.14009497931189" lon="14.811008033372175"><ele>194.0</ele><time>2026-04-04T11:54:05.999Z</time></trkpt><trkpt lat="41.1401789565806" lon="14.811193383523458"><ele>194.0</ele><time>2026-04-04T11:54:06.999Z</time></trkpt><trkpt lat="41.14026229281625" lon="14.81137784497532"><ele>195.33333333333334</ele><time>2026-04-04T11:54:07.999Z</time></trkpt><trkpt lat="41.14035034573863" lon="14.811574093331066"><ele>196.66666666666669</ele><time>2026-04-04T11:54:08.999Z</time></trkpt><trkpt lat="41.14045859187712" lon="14.811812198726603"><ele>198.0</ele><time>2026-04-04T11:54:09.999Z</time></trkpt><trkpt lat="41.140573897647386" lon="14.8120418562838"><ele>198.0</ele><time>2026-04-04T11:54:10.999Z</time></trkpt><trkpt lat="41.14066062382016" lon="14.812291691287363"><ele>198.0</ele><time>2026-04-04T11:54:11.999Z</time></trkpt><trkpt lat="41.14073363515483" lon="14.81255722696957"><ele>198.0</ele><time>2026-04-04T11:54:12.999Z</time></trkpt><trkpt lat="41.14078035947322" lon="14.81283962880266"><ele>194.33333333333334</ele><time>2026-04-04T11:54:13.999Z</time></trkpt><trkpt lat="41.140787072039195" lon="14.813125924336145"><ele>190.66666666666669</ele><time>2026-04-04T11:54:14.999Z</time></trkpt><trkpt lat="41.14076300952299" lon="14.813404944191886"><ele>187.0</ele><time>2026-04-04T11:54:15.999Z</time></trkpt><trkpt lat="41.140704239564904" lon="14.813647110046135"><ele>186.0</ele><time>2026-04-04T11:54:16.999Z</time></trkpt><trkpt lat="41.14059941485241" lon="14.813897971193684"><ele>185.0</ele><time>2026-04-04T11:54:17.999Z</time></trkpt><trkpt lat="41.14047932182932" lon="14.814172367381316"><ele>182.0</ele><time>2026-04-04T11:54:18.999Z</time></trkpt><trkpt lat="41.14035576516989" lon="14.814498468895106"><ele>179.0</ele><time>2026-04-04T11:54:19.999Z</time></trkpt><trkpt lat="41.14021827464032" lon="14.81481042703047"><ele>179.0</ele><time>2026-04-04T11:54:20.999Z</time></trkpt><trkpt lat="41.14009355876065" lon="14.815099634670785"><ele>179.0</ele><time>2026-04-04T11:54:21.999Z</time></trkpt><trkpt lat="41.13995522557961" lon="14.815372634723289"><ele>181.5</ele><time>2026-04-04T11:54:22.999Z</time></trkpt><trkpt lat="41.13983134294511" lon="14.815657030979299"><ele>184.0</ele><time>2026-04-04T11:54:23.999Z</time></trkpt><trkpt lat="41.13971405494793" lon="14.81594970723298"><ele>182.0</ele><time>2026-04-04T11:54:24.999Z</time></trkpt><trkpt lat="41.13961910553052" lon="14.816262090292156"><ele>180.0</ele><time>2026-04-04T11:54:25.999Z</time></trkpt><trkpt lat="41.139549616051866" lon="14.816613276466706"><ele>178.0</ele><time>2026-04-04T11:54:26.999Z</time></trkpt><trkpt lat="41.139512713588665" lon="14.816967950707713"><ele>176.0</ele><time>2026-04-04T11:54:27.999Z</time></trkpt><trkpt lat="41.139504475850075" lon="14.817315244336884"><ele>173.5</ele><time>2026-04-04T11:54:28.999Z</time></trkpt><trkpt lat="41.13953005793285" lon="14.817662150717368"><ele>171.0</ele><time>2026-04-04T11:54:29.999Z</time></trkpt><trkpt lat="41.1395774390116" lon="14.818004626021219"><ele>171.0</ele><time>2026-04-04T11:54:30.999Z</time></trkpt><trkpt lat="41.13962358547783" lon="14.818330805302944"><ele>171.0</ele><time>2026-04-04T11:54:31.999Z</time></trkpt><trkpt lat="41.13966854962125" lon="14.818642830703457"><ele>170.0</ele><time>2026-04-04T11:54:32.999Z</time></trkpt><trkpt lat="41.13971200727421" lon="14.818943412803996"><ele>169.0</ele><time>2026-04-04T11:54:33.999Z</time></trkpt><trkpt lat="41.139753795255416" lon="14.819234483695208"><ele>168.66666666666669</ele><time>2026-04-04T11:54:34.999Z</time></trkpt><trkpt lat="41.1397944654875" lon="14.819519646890212"><ele>168.33333333333334</ele><time>2026-04-04T11:54:35.999Z</time></trkpt><trkpt lat="41.1398355166131" lon="14.81980748086677"><ele>168.0</ele><time>2026-04-04T11:54:36.999Z</time></trkpt><trkpt lat="41.13989229612816" lon="14.82009374433385"><ele>163.33333333333334</ele><time>2026-04-04T11:54:37.999Z</time></trkpt><trkpt lat="41.139932868511856" lon="14.820383599023147"><ele>158.66666666666669</ele><time>2026-04-04T11:54:38.999Z</time></trkpt><trkpt lat="41.13997160889097" lon="14.820671367476582"><ele>154.0</ele><time>2026-04-04T11:54:39.999Z</time></trkpt><trkpt lat="41.14001268545814" lon="14.820959851926741"><ele>154.0</ele><time>2026-04-04T11:54:40.999Z</time></trkpt><trkpt lat="41.14005400901084" lon="14.821247110710791"><ele>154.0</ele><time>2026-04-04T11:54:41.999Z</time></trkpt><trkpt lat="41.140093016518904" lon="14.82153453112374"><ele>154.0</ele><time>2026-04-04T11:54:42.999Z</time></trkpt><trkpt lat="41.140132870386644" lon="14.82182471696714"><ele>154.0</ele><time>2026-04-04T11:54:43.999Z</time></trkpt><trkpt lat="41.14017491427675" lon="14.822118169616285"><ele>154.0</ele><time>2026-04-04T11:54:44.999Z</time></trkpt><trkpt lat="41.1402154759026" lon="14.82241079752072"><ele>154.0</ele><time>2026-04-04T11:54:45.999Z</time></trkpt><trkpt lat="41.14025660666841" lon="14.822702172876099"><ele>154.66666666666669</ele><time>2026-04-04T11:54:46.999Z</time></trkpt><trkpt lat="41.14029796357712" lon="14.822993905222082"><ele>155.33333333333334</ele><time>2026-04-04T11:54:47.999Z</time></trkpt><trkpt lat="41.1403429315405" lon="14.823286467361147"><ele>156.0</ele><time>2026-04-04T11:54:48.999Z</time></trkpt><trkpt lat="41.14036780340323" lon="14.823586672454653"><ele>156.0</ele><time>2026-04-04T11:54:49.999Z</time></trkpt><trkpt lat="41.1404249734723" lon="14.823878133833194"><ele>156.0</ele><time>2026-04-04T11:54:50.999Z</time></trkpt><trkpt lat="41.14046584429484" lon="14.824172731806994"><ele>154.0</ele><time>2026-04-04T11:54:51.999Z</time></trkpt><trkpt lat="41.14049160630207" lon="14.824477661578499"><ele>152.0</ele><time>2026-04-04T11:54:52.999Z</time></trkpt><trkpt lat="41.14053341501622" lon="14.82477440797212"><ele>152.0</ele><time>2026-04-04T11:54:53.999Z</time></trkpt><trkpt lat="41.14059108678255" lon="14.825070011701168"><ele>152.0</ele><time>2026-04-04T11:54:54.999Z</time></trkpt><trkpt lat="41.140634291549915" lon="14.825371446656032"><ele>151.0</ele><time>2026-04-04T11:54:56Z</time></trkpt><trkpt lat="41.14068064252944" lon="14.825674160288026"><ele>150.0</ele><time>2026-04-04T11:54:57Z</time></trkpt><trkpt lat="41.14071012495497" lon="14.825982794055303"><ele>143.5</ele><time>2026-04-04T11:54:58Z</time></trkpt><trkpt lat="41.14075479777354" lon="14.826286182435595"><ele>137.0</ele><time>2026-04-04T11:54:59Z</time></trkpt><trkpt lat="41.14079744727682" lon="14.826590406881392"><ele>137.0</ele><time>2026-04-04T11:55:00Z</time></trkpt><trkpt lat="41.140840564284986" lon="14.826897389157335"><ele>137.0</ele><time>2026-04-04T11:55:01Z</time></trkpt><trkpt lat="41.14088421886359" lon="14.82720061012372"><ele>137.0</ele><time>2026-04-04T11:55:02Z</time></trkpt><trkpt lat="41.14092700002691" lon="14.827501031906188"><ele>137.0</ele><time>2026-04-04T11:55:03Z</time></trkpt><trkpt lat="41.14096890328649" lon="14.827801294236167"><ele>138.0</ele><time>2026-04-04T11:55:04Z</time></trkpt><trkpt lat="41.14101031230068" lon="14.828098015054065"><ele>139.0</ele><time>2026-04-04T11:55:05Z</time></trkpt><trkpt lat="41.14105153704988" lon="14.828393415509646"><ele>138.0</ele><time>2026-04-04T11:55:06Z</time></trkpt><trkpt lat="41.14109352709002" lon="14.828692333941499"><ele>137.0</ele><time>2026-04-04T11:55:07Z</time></trkpt><trkpt lat="41.14113602366909" lon="14.828993338486777"><ele>137.0</ele><time>2026-04-04T11:55:08Z</time></trkpt><trkpt lat="41.14117811704887" lon="14.829291487163907"><ele>137.0</ele><time>2026-04-04T11:55:09Z</time></trkpt><trkpt lat="41.14122025543009" lon="14.829589361425615"><ele>136.5</ele><time>2026-04-04T11:55:10Z</time></trkpt><trkpt lat="41.14126337426944" lon="14.829892840016381"><ele>136.0</ele><time>2026-04-04T11:55:11Z</time></trkpt><trkpt lat="41.1413061907181" lon="14.830195634486422"><ele>136.0</ele><time>2026-04-04T11:55:12Z</time></trkpt><trkpt lat="41.14134874631867" lon="14.830497309460199"><ele>136.0</ele><time>2026-04-04T11:55:13Z</time></trkpt><trkpt lat="41.14139163670425" lon="14.830802720515694"><ele>136.0</ele><time>2026-04-04T11:55:14Z</time></trkpt><trkpt lat="41.14143414364686" lon="14.831105123191735"><ele>136.0</ele><time>2026-04-04T11:55:15Z</time></trkpt><trkpt lat="41.14147631571288" lon="14.831405143493193"><ele>136.0</ele><time>2026-04-04T11:55:16Z</time></trkpt><trkpt lat="41.141519574842604" lon="14.831706369318773"><ele>136.0</ele><time>2026-04-04T11:55:17Z</time></trkpt><trkpt lat="41.141578137112084" lon="14.83200499705785"><ele>133.0</ele><time>2026-04-04T11:55:18Z</time></trkpt><trkpt lat="41.14162082798356" lon="14.832313739258625"><ele>130.0</ele><time>2026-04-04T11:55:19Z</time></trkpt><trkpt lat="41.141666181067535" lon="14.832618885099865"><ele>130.5</ele><time>2026-04-04T11:55:20Z</time></trkpt><trkpt lat="41.14171157471776" lon="14.832927243768218"><ele>131.0</ele><time>2026-04-04T11:55:21Z</time></trkpt><trkpt lat="41.14175694190578" lon="14.833233488251796"><ele>131.5</ele><time>2026-04-04T11:55:22Z</time></trkpt><trkpt lat="41.141801708667025" lon="14.833549223260126"><ele>132.0</ele><time>2026-04-04T11:55:23Z</time></trkpt><trkpt lat="41.14184678849652" lon="14.833866055042616"><ele>132.0</ele><time>2026-04-04T11:55:24Z</time></trkpt><trkpt lat="41.14188890743409" lon="14.834179482012608"><ele>132.0</ele><time>2026-04-04T11:55:25Z</time></trkpt><trkpt lat="41.14192847693328" lon="14.83449208541899"><ele>131.0</ele><time>2026-04-04T11:55:26Z</time></trkpt><trkpt lat="41.14196915589524" lon="14.83480211689024"><ele>130.0</ele><time>2026-04-04T11:55:27Z</time></trkpt><trkpt lat="41.142011655921955" lon="14.835107846545842"><ele>128.5</ele><time>2026-04-04T11:55:28Z</time></trkpt><trkpt lat="41.142055218175585" lon="14.835409892202401"><ele>127.0</ele><time>2026-04-04T11:55:29Z</time></trkpt><trkpt lat="41.142099564015986" lon="14.835710643415702"><ele>127.0</ele><time>2026-04-04T11:55:30Z</time></trkpt><trkpt lat="41.14214188241196" lon="14.83600789997284"><ele>127.0</ele><time>2026-04-04T11:55:31Z</time></trkpt><trkpt lat="41.14218271559111" lon="14.836307096142118"><ele>127.0</ele><time>2026-04-04T11:55:32Z</time></trkpt><trkpt lat="41.14222205477351" lon="14.836605236504825"><ele>127.0</ele><time>2026-04-04T11:55:33Z</time></trkpt><trkpt lat="41.14226448194604" lon="14.836898816102634"><ele>127.5</ele><time>2026-04-04T11:55:34Z</time></trkpt><trkpt lat="41.142306694552055" lon="14.837195186885783"><ele>128.0</ele><time>2026-04-04T11:55:35Z</time></trkpt><trkpt lat="41.14234953293451" lon="14.837495551264926"><ele>130.0</ele><time>2026-04-04T11:55:36Z</time></trkpt><trkpt lat="41.14239015570614" lon="14.83778308763103"><ele>132.0</ele><time>2026-04-04T11:55:37Z</time></trkpt><trkpt lat="41.14242479602529" lon="14.83804215979355"><ele>134.0</ele><time>2026-04-04T11:55:38Z</time></trkpt><trkpt lat="41.14245525051795" lon="14.838283437164405"><ele>134.0</ele><time>2026-04-04T11:55:39Z</time></trkpt><trkpt lat="41.14248410923657" lon="14.838508791671519"><ele>134.0</ele><time>2026-04-04T11:55:40Z</time></trkpt><trkpt lat="41.142516967223855" lon="14.838736889613372"><ele>134.0</ele><time>2026-04-04T11:55:41Z</time></trkpt><trkpt lat="41.142549926090915" lon="14.838972712021864"><ele>134.0</ele><time>2026-04-04T11:55:42Z</time></trkpt><trkpt lat="41.14258266963616" lon="14.839203910069092"><ele>134.0</ele><time>2026-04-04T11:55:43Z</time></trkpt><trkpt lat="41.14261647399863" lon="14.83944025730021"><ele>134.0</ele><time>2026-04-04T11:55:44Z</time></trkpt><trkpt lat="41.14265375546265" lon="14.839691750007384"><ele>134.5</ele><time>2026-04-04T11:55:45Z</time></trkpt><trkpt lat="41.142692162182776" lon="14.839980496594215"><ele>135.0</ele><time>2026-04-04T11:55:46Z</time></trkpt><trkpt lat="41.142736095319094" lon="14.840294805119669"><ele>135.5</ele><time>2026-04-04T11:55:47Z</time></trkpt><trkpt lat="41.14278182945793" lon="14.840624157067369"><ele>136.0</ele><time>2026-04-04T11:55:48Z</time></trkpt><trkpt lat="41.14282726065973" lon="14.840948644643994"><ele>136.0</ele><time>2026-04-04T11:55:49Z</time></trkpt><trkpt lat="41.14288044510379" lon="14.841299257851253"><ele>136.0</ele><time>2026-04-04T11:55:50Z</time></trkpt><trkpt lat="41.142933241525895" lon="14.841639583301612"><ele>136.5</ele><time>2026-04-04T11:55:51Z</time></trkpt><trkpt lat="41.14298589753272" lon="14.841952011072033"><ele>137.0</ele><time>2026-04-04T11:55:52Z</time></trkpt><trkpt lat="41.143046282881976" lon="14.842247646611538"><ele>137.0</ele><time>2026-04-04T11:55:53Z</time></trkpt><trkpt lat="41.143113802545635" lon="14.842538694394232"><ele>137.0</ele><time>2026-04-04T11:55:54Z</time></trkpt><trkpt lat="41.143186885058824" lon="14.842824273887905"><ele>137.66666666666666</ele><time>2026-04-04T11:55:55Z</time></trkpt><trkpt lat="41.143259876841995" lon="14.843080365902084"><ele>138.33333333333334</ele><time>2026-04-04T11:55:56Z</time></trkpt><trkpt lat="41.14333658365759" lon="14.843332930103498"><ele>139.0</ele><time>2026-04-04T11:55:57Z</time></trkpt><trkpt lat="41.143415473389446" lon="14.843580211462662"><ele>139.0</ele><time>2026-04-04T11:55:57.999Z</time></trkpt><trkpt lat="41.143497565158526" lon="14.843827323824557"><ele>139.0</ele><time>2026-04-04T11:55:58.999Z</time></trkpt><trkpt lat="41.143588027966665" lon="14.844076426774492"><ele>139.0</ele><time>2026-04-04T11:55:59.999Z</time></trkpt><trkpt lat="41.14367968172838" lon="14.84432128783126"><ele>139.0</ele><time>2026-04-04T11:56:00.999Z</time></trkpt><trkpt lat="41.14376922160441" lon="14.84456293046806"><ele>139.0</ele><time>2026-04-04T11:56:01.999Z</time></trkpt><trkpt lat="41.14385706044334" lon="14.844804154454541"><ele>139.0</ele><time>2026-04-04T11:56:02.999Z</time></trkpt><trkpt lat="41.14394566927682" lon="14.845048089768294"><ele>139.33333333333334</ele><time>2026-04-04T11:56:03.999Z</time></trkpt><trkpt lat="41.144034314867596" lon="14.845292269898371"><ele>139.66666666666666</ele><time>2026-04-04T11:56:04.999Z</time></trkpt><trkpt lat="41.144116085096265" lon="14.845530752927495"><ele>140.0</ele><time>2026-04-04T11:56:05.999Z</time></trkpt><trkpt lat="41.14418712952348" lon="14.8457741696464"><ele>145.0</ele><time>2026-04-04T11:56:06.999Z</time></trkpt><trkpt lat="41.144248737900604" lon="14.84602697978583"><ele>150.0</ele><time>2026-04-04T11:56:07.999Z</time></trkpt><trkpt lat="41.144296658741474" lon="14.846284254981267"><ele>155.0</ele><time>2026-04-04T11:56:08.999Z</time></trkpt><trkpt lat="41.14433317159822" lon="14.846537543122858"><ele>155.0</ele><time>2026-04-04T11:56:09.999Z</time></trkpt><trkpt lat="41.14436772938622" lon="14.846787764496794"><ele>155.0</ele><time>2026-04-04T11:56:10.999Z</time></trkpt><trkpt lat="41.14440285926178" lon="14.847026976708676"><ele>155.0</ele><time>2026-04-04T11:56:11.999Z</time></trkpt><trkpt lat="41.14444066603469" lon="14.847257981936844"><ele>155.33333333333331</ele><time>2026-04-04T11:56:12.999Z</time></trkpt><trkpt lat="41.14448044389165" lon="14.84749565174453"><ele>155.66666666666666</ele><time>2026-04-04T11:56:13.999Z</time></trkpt><trkpt lat="41.14452152315187" lon="14.847734878077341"><ele>156.0</ele><time>2026-04-04T11:56:14.999Z</time></trkpt><trkpt lat="41.144558376084376" lon="14.847959398838311"><ele>156.33333333333334</ele><time>2026-04-04T11:56:15.999Z</time></trkpt><trkpt lat="41.144588303046696" lon="14.848175699862413"><ele>156.66666666666669</ele><time>2026-04-04T11:56:16.999Z</time></trkpt><trkpt lat="41.14462457588881" lon="14.848384487100635"><ele>157.0</ele><time>2026-04-04T11:56:17.999Z</time></trkpt><trkpt lat="41.144656120289945" lon="14.848589208839634"><ele>157.0</ele><time>2026-04-04T11:56:18.999Z</time></trkpt><trkpt lat="41.14468505227803" lon="14.84878260504824"><ele>157.0</ele><time>2026-04-04T11:56:19.999Z</time></trkpt><trkpt lat="41.144723571969536" lon="14.848962611277774"><ele>157.0</ele><time>2026-04-04T11:56:20.999Z</time></trkpt><trkpt lat="41.14477408037061" lon="14.849133519612675"><ele>157.0</ele><time>2026-04-04T11:56:21.999Z</time></trkpt><trkpt lat="41.14483740148948" lon="14.849299836418082"><ele>160.0</ele><time>2026-04-04T11:56:22.999Z</time></trkpt><trkpt lat="41.144908570280954" lon="14.849444731479815"><ele>163.0</ele><time>2026-04-04T11:56:23.999Z</time></trkpt><trkpt lat="41.14498081763102" lon="14.84958084857684"><ele>166.0</ele><time>2026-04-04T11:56:24.999Z</time></trkpt><trkpt lat="41.1450511407023" lon="14.849701809018367"><ele>169.0</ele><time>2026-04-04T11:56:25.999Z</time></trkpt><trkpt lat="41.14511696693062" lon="14.849817704460698"><ele>169.0</ele><time>2026-04-04T11:56:26.999Z</time></trkpt><trkpt lat="41.14517542264724" lon="14.849933218942175"><ele>169.0</ele><time>2026-04-04T11:56:27.999Z</time></trkpt><trkpt lat="41.145222094404836" lon="14.850049149575813"><ele>169.0</ele><time>2026-04-04T11:56:28.999Z</time></trkpt><trkpt lat="41.145243491799604" lon="14.85019376244927"><ele>169.0</ele><time>2026-04-04T11:56:29.999Z</time></trkpt><trkpt lat="41.145223764707396" lon="14.850345791471709"><ele>169.0</ele><time>2026-04-04T11:56:30.999Z</time></trkpt><trkpt lat="41.14515033320548" lon="14.850457889774155"><ele>170.0</ele><time>2026-04-04T11:56:31.999Z</time></trkpt><trkpt lat="41.14509743468003" lon="14.850554808945894"><ele>171.0</ele><time>2026-04-04T11:56:32.999Z</time></trkpt><trkpt lat="41.14502778233037" lon="14.850648384894326"><ele>172.0</ele><time>2026-04-04T11:56:33.999Z</time></trkpt><trkpt lat="41.14496010999267" lon="14.850753131890503"><ele>173.0</ele><time>2026-04-04T11:56:34.999Z</time></trkpt><trkpt lat="41.144890557704294" lon="14.850867316784813"><ele>174.0</ele><time>2026-04-04T11:56:35.999Z</time></trkpt><trkpt lat="41.1448262410784" lon="14.850995422626418"><ele>171.25</ele><time>2026-04-04T11:56:36.999Z</time></trkpt><trkpt lat="41.144783454959494" lon="14.851146177124429"><ele>168.5</ele><time>2026-04-04T11:56:37.999Z</time></trkpt><trkpt lat="41.14476437684369" lon="14.851302720246535"><ele>165.75</ele><time>2026-04-04T11:56:38.999Z</time></trkpt><trkpt lat="41.144756640231925" lon="14.851457727843657"><ele>163.0</ele><time>2026-04-04T11:56:39.999Z</time></trkpt><trkpt lat="41.144756163573014" lon="14.851619578896328"><ele>163.0</ele><time>2026-04-04T11:56:40.999Z</time></trkpt><trkpt lat="41.14477481874184" lon="14.851778764691751"><ele>163.0</ele><time>2026-04-04T11:56:41.999Z</time></trkpt><trkpt lat="41.14482542254725" lon="14.85191955431547"><ele>163.0</ele><time>2026-04-04T11:56:42.999Z</time></trkpt><trkpt lat="41.14493082249724" lon="14.852059497154695"><ele>163.0</ele><time>2026-04-04T11:56:43.999Z</time></trkpt><trkpt lat="41.14506791255855" lon="14.852242766150047"><ele>167.0</ele><time>2026-04-04T11:56:44.999Z</time></trkpt><trkpt lat="41.145220977562026" lon="14.852425529856035"><ele>171.0</ele><time>2026-04-04T11:56:45.999Z</time></trkpt><trkpt lat="41.1453836095057" lon="14.852607797690023"><ele>175.0</ele><time>2026-04-04T11:56:46.999Z</time></trkpt><trkpt lat="41.14549203271629" lon="14.852795622446994"><ele>175.75</ele><time>2026-04-04T11:56:47.999Z</time></trkpt><trkpt lat="41.14557774518206" lon="14.852940661160847"><ele>176.5</ele><time>2026-04-04T11:56:48.999Z</time></trkpt><trkpt lat="41.145667673640496" lon="14.85306520776236"><ele>177.25</ele><time>2026-04-04T11:56:49.999Z</time></trkpt><trkpt lat="41.14574505410219" lon="14.853167737630447"><ele>178.0</ele><time>2026-04-04T11:56:50.999Z</time></trkpt><trkpt lat="41.14617285192395" lon="14.853424551872088"><ele>179.66666666666669</ele><time>2026-04-04T11:56:51.999Z</time></trkpt><trkpt lat="41.14637555847594" lon="14.853467722775237"><ele>181.33333333333334</ele><time>2026-04-04T11:56:52.999Z</time></trkpt><trkpt lat="41.146563825351734" lon="14.853459754082257"><ele>183.0</ele><time>2026-04-04T11:56:53.999Z</time></trkpt><trkpt lat="41.14672645931554" lon="14.853438198551611"><ele>184.66666666666666</ele><time>2026-04-04T11:56:54.999Z</time></trkpt><trkpt lat="41.14687702269434" lon="14.853448951511655"><ele>186.33333333333331</ele><time>2026-04-04T11:56:55.999Z</time></trkpt><trkpt lat="41.14698327576643" lon="14.85360521269602"><ele>188.0</ele><time>2026-04-04T11:56:56.999Z</time></trkpt><trkpt lat="41.147037547320735" lon="14.853792307822369"><ele>188.0</ele><time>2026-04-04T11:56:57.999Z</time></trkpt><trkpt lat="41.1471050713087" lon="14.854050429916462"><ele>188.0</ele><time>2026-04-04T11:56:58.999Z</time></trkpt><trkpt lat="41.14718093050566" lon="14.854358328856678"><ele>187.66666666666666</ele><time>2026-04-04T11:56:59.999Z</time></trkpt><trkpt lat="41.147255114359034" lon="14.854655104506602"><ele>187.33333333333334</ele><time>2026-04-04T11:57:00.999Z</time></trkpt><trkpt lat="41.147352212829325" lon="14.854887719282631"><ele>187.0</ele><time>2026-04-04T11:57:02Z</time></trkpt><trkpt lat="41.147444859966136" lon="14.855101714591676"><ele>189.0</ele><time>2026-04-04T11:57:03Z</time></trkpt><trkpt lat="41.14758248408199" lon="14.855271309553586"><ele>191.0</ele><time>2026-04-04T11:57:04Z</time></trkpt><trkpt lat="41.147764282298326" lon="14.855399331363296"><ele>193.0</ele><time>2026-04-04T11:57:05Z</time></trkpt><trkpt lat="41.147952900297135" lon="14.855452468679958"><ele>193.0</ele><time>2026-04-04T11:57:06Z</time></trkpt><trkpt lat="41.148119531821365" lon="14.855473900154974"><ele>193.0</ele><time>2026-04-04T11:57:07Z</time></trkpt><trkpt lat="41.14826178802394" lon="14.855507659371805"><ele>193.0</ele><time>2026-04-04T11:57:08Z</time></trkpt><trkpt lat="41.14837603814823" lon="14.855570233029042"><ele>193.0</ele><time>2026-04-04T11:57:09Z</time></trkpt><trkpt lat="41.148451744563076" lon="14.855652706104793"><ele>194.5</ele><time>2026-04-04T11:57:10Z</time></trkpt><trkpt lat="41.148471280513775" lon="14.85578940311869"><ele>196.0</ele><time>2026-04-04T11:57:11Z</time></trkpt><trkpt lat="41.148452415124055" lon="14.855940018025116"><ele>197.5</ele><time>2026-04-04T11:57:12Z</time></trkpt><trkpt lat="41.14844404299627" lon="14.856083982630304"><ele>199.0</ele><time>2026-04-04T11:57:13Z</time></trkpt><trkpt lat="41.14833012682376" lon="14.856243321572"><ele>198.39999999999998</ele><time>2026-04-04T11:57:14Z</time></trkpt><trkpt lat="41.14827075408714" lon="14.856373436375414"><ele>197.8</ele><time>2026-04-04T11:57:15Z</time></trkpt><trkpt lat="41.148217907472024" lon="14.856498782212851"><ele>197.2</ele><time>2026-04-04T11:57:16Z</time></trkpt><trkpt lat="41.148166740406516" lon="14.856625978067909"><ele>196.60000000000002</ele><time>2026-04-04T11:57:17Z</time></trkpt><trkpt lat="41.14815425167074" lon="14.856774258226872"><ele>196.0</ele><time>2026-04-04T11:57:18Z</time></trkpt><trkpt lat="41.14822316003037" lon="14.856934264597516"><ele>198.20000000000002</ele><time>2026-04-04T11:57:19Z</time></trkpt><trkpt lat="41.148284819791854" lon="14.857067881566882"><ele>200.4</ele><time>2026-04-04T11:57:20Z</time></trkpt><trkpt lat="41.148323903198914" lon="14.857197990973397"><ele>202.6</ele><time>2026-04-04T11:57:21Z</time></trkpt><trkpt lat="41.148347943252325" lon="14.857327762680715"><ele>204.8</ele><time>2026-04-04T11:57:22Z</time></trkpt><trkpt lat="41.14834492138683" lon="14.857477660140319"><ele>207.0</ele><time>2026-04-04T11:57:23Z</time></trkpt><trkpt lat="41.14830431702329" lon="14.857628105583927"><ele>207.75</ele><time>2026-04-04T11:57:24Z</time></trkpt><trkpt lat="41.148225537961" lon="14.857750288940496"><ele>208.5</ele><time>2026-04-04T11:57:25Z</time></trkpt><trkpt lat="41.14813503901397" lon="14.857861866247898"><ele>209.25</ele><time>2026-04-04T11:57:26Z</time></trkpt><trkpt lat="41.14806452357137" lon="14.857935308496284"><ele>210.0</ele><time>2026-04-04T11:57:27Z</time></trkpt><trkpt lat="41.14797215625912" lon="14.858076255227429"><ele>209.0</ele><time>2026-04-04T11:57:28Z</time></trkpt><trkpt lat="41.1479411866439" lon="14.858223313464917"><ele>208.0</ele><time>2026-04-04T11:57:29Z</time></trkpt><trkpt lat="41.147939741358655" lon="14.858380812100783"><ele>207.0</ele><time>2026-04-04T11:57:30Z</time></trkpt><trkpt lat="41.147974152206935" lon="14.858540971700629"><ele>206.0</ele><time>2026-04-04T11:57:31Z</time></trkpt><trkpt lat="41.148034945312844" lon="14.858734045759714"><ele>206.0</ele><time>2026-04-04T11:57:32Z</time></trkpt><trkpt lat="41.14814494216961" lon="14.85898386326146"><ele>206.0</ele><time>2026-04-04T11:57:33Z</time></trkpt><trkpt lat="41.148259298570416" lon="14.859237889698752"><ele>206.0</ele><time>2026-04-04T11:57:34Z</time></trkpt><trkpt lat="41.14837244154525" lon="14.859526762132818"><ele>210.0</ele><time>2026-04-04T11:57:35Z</time></trkpt><trkpt lat="41.14844966169608" lon="14.859866275330152"><ele>214.0</ele><time>2026-04-04T11:57:36Z</time></trkpt><trkpt lat="41.14851405472423" lon="14.860223067899081"><ele>214.0</ele><time>2026-04-04T11:57:37Z</time></trkpt><trkpt lat="41.1485998602346" lon="14.8606041358411"><ele>214.0</ele><time>2026-04-04T11:57:38Z</time></trkpt><trkpt lat="41.14866159225426" lon="14.860994409480563"><ele>215.0</ele><time>2026-04-04T11:57:39Z</time></trkpt><trkpt lat="41.14873215969711" lon="14.861336209811487"><ele>216.0</ele><time>2026-04-04T11:57:40Z</time></trkpt><trkpt lat="41.14879070999521" lon="14.86163897580332"><ele>217.0</ele><time>2026-04-04T11:57:41Z</time></trkpt><trkpt lat="41.148839648637306" lon="14.86191336972866"><ele>218.0</ele><time>2026-04-04T11:57:42Z</time></trkpt><trkpt lat="41.14888786523518" lon="14.86217457494992"><ele>219.0</ele><time>2026-04-04T11:57:43Z</time></trkpt><trkpt lat="41.14893500091213" lon="14.862418054335958"><ele>221.33333333333331</ele><time>2026-04-04T11:57:44Z</time></trkpt><trkpt lat="41.14895458113444" lon="14.862649298768593"><ele>223.66666666666666</ele><time>2026-04-04T11:57:45Z</time></trkpt><trkpt lat="41.148950931815435" lon="14.862867889530268"><ele>226.0</ele><time>2026-04-04T11:57:46Z</time></trkpt><trkpt lat="41.14888662085083" lon="14.863070884114792"><ele>226.0</ele><time>2026-04-04T11:57:47Z</time></trkpt><trkpt lat="41.14876149153988" lon="14.863240656346738"><ele>226.0</ele><time>2026-04-04T11:57:48Z</time></trkpt><trkpt lat="41.148591305621004" lon="14.863414411076763"><ele>226.0</ele><time>2026-04-04T11:57:49Z</time></trkpt><trkpt lat="41.14840031207883" lon="14.863606302631245"><ele>225.66666666666666</ele><time>2026-04-04T11:57:50Z</time></trkpt><trkpt lat="41.148244147770235" lon="14.863783676910467"><ele>225.33333333333331</ele><time>2026-04-04T11:57:51Z</time></trkpt><trkpt lat="41.148099650758596" lon="14.863937520902859"><ele>225.0</ele><time>2026-04-04T11:57:52Z</time></trkpt><trkpt lat="41.147968583999834" lon="14.864116079035073"><ele>225.66666666666669</ele><time>2026-04-04T11:57:53Z</time></trkpt><trkpt lat="41.147867581460126" lon="14.864336124427124"><ele>226.33333333333334</ele><time>2026-04-04T11:57:54Z</time></trkpt><trkpt lat="41.147817449972045" lon="14.864585630472158"><ele>227.0</ele><time>2026-04-04T11:57:55Z</time></trkpt><trkpt lat="41.14783731149812" lon="14.864853587978983"><ele>227.0</ele><time>2026-04-04T11:57:56Z</time></trkpt><trkpt lat="41.14789247427125" lon="14.865150221576869"><ele>227.0</ele><time>2026-04-04T11:57:57Z</time></trkpt><trkpt lat="41.14793635288996" lon="14.865479931610292"><ele>227.0</ele><time>2026-04-04T11:57:58Z</time></trkpt><trkpt lat="41.147984578367954" lon="14.865797209400625"><ele>227.0</ele><time>2026-04-04T11:57:59Z</time></trkpt><trkpt lat="41.14802377787482" lon="14.866084929691029"><ele>228.66666666666669</ele><time>2026-04-04T11:58:00Z</time></trkpt><trkpt lat="41.14803355979845" lon="14.866362223335267"><ele>230.33333333333331</ele><time>2026-04-04T11:58:01Z</time></trkpt><trkpt lat="41.147978096330185" lon="14.866644480258179"><ele>232.0</ele><time>2026-04-04T11:58:02Z</time></trkpt><trkpt lat="41.14791987132752" lon="14.866984210964635"><ele>234.5</ele><time>2026-04-04T11:58:03Z</time></trkpt><trkpt lat="41.14786160773301" lon="14.867323060994998"><ele>237.0</ele><time>2026-04-04T11:58:04Z</time></trkpt><trkpt lat="41.14781456324165" lon="14.867611808182856"><ele>237.66666666666669</ele><time>2026-04-04T11:58:05Z</time></trkpt><trkpt lat="41.14777948393812" lon="14.867884887638299"><ele>238.33333333333334</ele><time>2026-04-04T11:58:06Z</time></trkpt><trkpt lat="41.147767325887166" lon="14.86815025334813"><ele>239.0</ele><time>2026-04-04T11:58:07Z</time></trkpt><trkpt lat="41.14781713326144" lon="14.868428517537936"><ele>239.5</ele><time>2026-04-04T11:58:07.999Z</time></trkpt><trkpt lat="41.147911926761175" lon="14.868691476028982"><ele>240.0</ele><time>2026-04-04T11:58:08.999Z</time></trkpt><trkpt lat="41.14805015938496" lon="14.868957173078934"><ele>243.0</ele><time>2026-04-04T11:58:09.999Z</time></trkpt><trkpt lat="41.148214405500376" lon="14.869222644724225"><ele>246.0</ele><time>2026-04-04T11:58:10.999Z</time></trkpt><trkpt lat="41.14836367821063" lon="14.869471566593727"><ele>246.0</ele><time>2026-04-04T11:58:11.999Z</time></trkpt><trkpt lat="41.14849231352864" lon="14.869688568880228"><ele>246.0</ele><time>2026-04-04T11:58:12.999Z</time></trkpt><trkpt lat="41.148596705609926" lon="14.869896184920705"><ele>246.0</ele><time>2026-04-04T11:58:13.999Z</time></trkpt><trkpt lat="41.14865906183697" lon="14.87010691950957"><ele>247.0</ele><time>2026-04-04T11:58:14.999Z</time></trkpt><trkpt lat="41.148647127003606" lon="14.870321489211381"><ele>248.0</ele><time>2026-04-04T11:58:15.999Z</time></trkpt><trkpt lat="41.14860313512209" lon="14.870581893630018"><ele>249.0</ele><time>2026-04-04T11:58:16.999Z</time></trkpt><trkpt lat="41.14847144816743" lon="14.870802716795927"><ele>250.66666666666669</ele><time>2026-04-04T11:58:17.999Z</time></trkpt><trkpt lat="41.148365843675165" lon="14.871030966045925"><ele>252.33333333333334</ele><time>2026-04-04T11:58:18.999Z</time></trkpt><trkpt lat="41.14828314797315" lon="14.871254048510993"><ele>254.0</ele><time>2026-04-04T11:58:19.999Z</time></trkpt><trkpt lat="41.14824230826795" lon="14.871510515717869"><ele>254.0</ele><time>2026-04-04T11:58:20.999Z</time></trkpt><trkpt lat="41.148242521718885" lon="14.871780531824767"><ele>254.0</ele><time>2026-04-04T11:58:21.999Z</time></trkpt><trkpt lat="41.14824508411613" lon="14.872016172315792"><ele>254.0</ele><time>2026-04-04T11:58:22.999Z</time></trkpt><trkpt lat="41.148291499554645" lon="14.872191146604452"><ele>254.0</ele><time>2026-04-04T11:58:23.999Z</time></trkpt><trkpt lat="41.148302526908964" lon="14.872352670472829"><ele>254.0</ele><time>2026-04-04T11:58:24.999Z</time></trkpt><trkpt lat="41.14831058369728" lon="14.872531897512554"><ele>254.0</ele><time>2026-04-04T11:58:25.999Z</time></trkpt><trkpt lat="41.148321752504195" lon="14.87272930119979"><ele>254.0</ele><time>2026-04-04T11:58:26.999Z</time></trkpt><trkpt lat="41.14830356520076" lon="14.87295156164884"><ele>254.66666666666669</ele><time>2026-04-04T11:58:27.999Z</time></trkpt><trkpt lat="41.14831609960109" lon="14.873173602927286"><ele>255.33333333333331</ele><time>2026-04-04T11:58:28.999Z</time></trkpt><trkpt lat="41.14833847600841" lon="14.8734357481744"><ele>256.0</ele><time>2026-04-04T11:58:29.999Z</time></trkpt><trkpt lat="41.14837155880749" lon="14.873701150723576"><ele>256.3333333333333</ele><time>2026-04-04T11:58:30.999Z</time></trkpt><trkpt lat="41.14840926372355" lon="14.87396402115374"><ele>256.6666666666667</ele><time>2026-04-04T11:58:31.999Z</time></trkpt><trkpt lat="41.148447362962045" lon="14.874228971233494"><ele>257.0</ele><time>2026-04-04T11:58:32.999Z</time></trkpt><trkpt lat="41.14848758536148" lon="14.874508671778868"><ele>257.5</ele><time>2026-04-04T11:58:33.999Z</time></trkpt><trkpt lat="41.14853043669137" lon="14.874806650826923"><ele>258.0</ele><time>2026-04-04T11:58:34.999Z</time></trkpt><trkpt lat="41.148579119068316" lon="14.875134986623925"><ele>258.0</ele><time>2026-04-04T11:58:35.999Z</time></trkpt><trkpt lat="41.14863272109337" lon="14.875400918423756"><ele>258.0</ele><time>2026-04-04T11:58:36.999Z</time></trkpt><trkpt lat="41.14867483185819" lon="14.8756629023272"><ele>258.0</ele><time>2026-04-04T11:58:37.999Z</time></trkpt><trkpt lat="41.148715709710984" lon="14.875907738591877"><ele>257.0</ele><time>2026-04-04T11:58:38.999Z</time></trkpt><trkpt lat="41.14879587584778" lon="14.876152516798818"><ele>256.0</ele><time>2026-04-04T11:58:39.999Z</time></trkpt><trkpt lat="41.14891086000239" lon="14.876353395443472"><ele>255.0</ele><time>2026-04-04T11:58:40.999Z</time></trkpt><trkpt lat="41.149035147049474" lon="14.876525188871081"><ele>259.6666666666667</ele><time>2026-04-04T11:58:41.999Z</time></trkpt><trkpt lat="41.14912624280904" lon="14.876714738572673"><ele>264.33333333333337</ele><time>2026-04-04T11:58:42.999Z</time></trkpt><trkpt lat="41.14915972027195" lon="14.876941778823252"><ele>269.0</ele><time>2026-04-04T11:58:43.999Z</time></trkpt><trkpt lat="41.14911902946128" lon="14.87717915997277"><ele>268.0</ele><time>2026-04-04T11:58:44.999Z</time></trkpt><trkpt lat="41.14901364062481" lon="14.87741394978432"><ele>267.0</ele><time>2026-04-04T11:58:45.999Z</time></trkpt><trkpt lat="41.14887857096307" lon="14.87758941816273"><ele>266.0</ele><time>2026-04-04T11:58:46.999Z</time></trkpt><trkpt lat="41.148738971498965" lon="14.877742624826645"><ele>266.0</ele><time>2026-04-04T11:58:47.999Z</time></trkpt><trkpt lat="41.1486304471206" lon="14.877896800859366"><ele>266.0</ele><time>2026-04-04T11:58:48.999Z</time></trkpt><trkpt lat="41.14855188995999" lon="14.878053077448177"><ele>266.0</ele><time>2026-04-04T11:58:49.999Z</time></trkpt><trkpt lat="41.148517222200276" lon="14.878249686478497"><ele>264.6666666666667</ele><time>2026-04-04T11:58:50.999Z</time></trkpt><trkpt lat="41.148528120962546" lon="14.878452632285748"><ele>263.3333333333333</ele><time>2026-04-04T11:58:51.999Z</time></trkpt><trkpt lat="41.14858815186087" lon="14.878650489665587"><ele>262.0</ele><time>2026-04-04T11:58:52.999Z</time></trkpt><trkpt lat="41.14869142142464" lon="14.87883475538825"><ele>262.0</ele><time>2026-04-04T11:58:53.999Z</time></trkpt><trkpt lat="41.14880319272476" lon="14.879002945550452"><ele>262.0</ele><time>2026-04-04T11:58:54.999Z</time></trkpt><trkpt lat="41.148906173848935" lon="14.879158683160272"><ele>262.0</ele><time>2026-04-04T11:58:55.999Z</time></trkpt><trkpt lat="41.1490329034512" lon="14.879314005328743"><ele>262.66666666666663</ele><time>2026-04-04T11:58:56.999Z</time></trkpt><trkpt lat="41.14919970759589" lon="14.879464235665475"><ele>263.3333333333333</ele><time>2026-04-04T11:58:57.999Z</time></trkpt><trkpt lat="41.14940074103476" lon="14.879586139821427"><ele>264.0</ele><time>2026-04-04T11:58:58.999Z</time></trkpt><trkpt lat="41.149646294795104" lon="14.879680649328378"><ele>269.0</ele><time>2026-04-04T11:58:59.999Z</time></trkpt><trkpt lat="41.1499234595826" lon="14.879782985146505"><ele>274.0</ele><time>2026-04-04T11:59:00.999Z</time></trkpt><trkpt lat="41.15020549750955" lon="14.879907572896615"><ele>274.0</ele><time>2026-04-04T11:59:01.999Z</time></trkpt><trkpt lat="41.15049213302931" lon="14.88004844078197"><ele>274.0</ele><time>2026-04-04T11:59:02.999Z</time></trkpt><trkpt lat="41.150733576003915" lon="14.880156484373991"><ele>275.0</ele><time>2026-04-04T11:59:03.999Z</time></trkpt><trkpt lat="41.150927564458044" lon="14.880224360188452"><ele>276.0</ele><time>2026-04-04T11:59:04.999Z</time></trkpt><trkpt lat="41.15109557892757" lon="14.880298568121317"><ele>277.0</ele><time>2026-04-04T11:59:05.999Z</time></trkpt><trkpt lat="41.15124261900123" lon="14.880435115483783"><ele>277.0</ele><time>2026-04-04T11:59:06.999Z</time></trkpt><trkpt lat="41.15132266940969" lon="14.880632400493381"><ele>277.0</ele><time>2026-04-04T11:59:08Z</time></trkpt><trkpt lat="41.15137285006284" lon="14.88090874487874"><ele>277.0</ele><time>2026-04-04T11:59:09Z</time></trkpt><trkpt lat="41.15134711267191" lon="14.881160985862088"><ele>279.66666666666663</ele><time>2026-04-04T11:59:10Z</time></trkpt><trkpt lat="41.151252544762265" lon="14.881382600293016"><ele>282.3333333333333</ele><time>2026-04-04T11:59:11Z</time></trkpt><trkpt lat="41.15110304901647" lon="14.881550093304005"><ele>285.0</ele><time>2026-04-04T11:59:12Z</time></trkpt><trkpt lat="41.15089439238598" lon="14.88172419390261"><ele>283.0</ele><time>2026-04-04T11:59:13Z</time></trkpt><trkpt lat="41.150691149715826" lon="14.881915917970032"><ele>281.0</ele><time>2026-04-04T11:59:14Z</time></trkpt><trkpt lat="41.150526395799744" lon="14.882119245994618"><ele>281.0</ele><time>2026-04-04T11:59:15Z</time></trkpt><trkpt lat="41.15039623759381" lon="14.882305655653246"><ele>281.0</ele><time>2026-04-04T11:59:16Z</time></trkpt><trkpt lat="41.15028553086145" lon="14.882510580745407"><ele>281.0</ele><time>2026-04-04T11:59:17Z</time></trkpt><trkpt lat="41.15022683829134" lon="14.882746899592297"><ele>281.33333333333337</ele><time>2026-04-04T11:59:18Z</time></trkpt><trkpt lat="41.15022102471198" lon="14.883021791288312"><ele>281.6666666666667</ele><time>2026-04-04T11:59:19Z</time></trkpt><trkpt lat="41.150285841958684" lon="14.883281972236789"><ele>282.0</ele><time>2026-04-04T11:59:20Z</time></trkpt><trkpt lat="41.1504151098657" lon="14.883514331679933"><ele>282.0</ele><time>2026-04-04T11:59:21Z</time></trkpt><trkpt lat="41.15058795671244" lon="14.883727836606619"><ele>282.0</ele><time>2026-04-04T11:59:22Z</time></trkpt><trkpt lat="41.15077172089168" lon="14.883945194078246"><ele>284.6666666666667</ele><time>2026-04-04T11:59:23Z</time></trkpt><trkpt lat="41.15091664944045" lon="14.88414317221976"><ele>287.33333333333337</ele><time>2026-04-04T11:59:24Z</time></trkpt><trkpt lat="41.15102893008229" lon="14.88435387604463"><ele>290.0</ele><time>2026-04-04T11:59:25Z</time></trkpt><trkpt lat="41.15117950454534" lon="14.884487866790375"><ele>290.0</ele><time>2026-04-04T11:59:26Z</time></trkpt><trkpt lat="41.15138580621774" lon="14.884560083263095"><ele>290.0</ele><time>2026-04-04T11:59:27Z</time></trkpt><trkpt lat="41.15163294908369" lon="14.884592880592015"><ele>289.5</ele><time>2026-04-04T11:59:28Z</time></trkpt><trkpt lat="41.15190652018461" lon="14.884605291339978"><ele>289.0</ele><time>2026-04-04T11:59:29Z</time></trkpt><trkpt lat="41.15218536052831" lon="14.884618744292904"><ele>288.5</ele><time>2026-04-04T11:59:30Z</time></trkpt><trkpt lat="41.15248004722536" lon="14.884642376989278"><ele>288.0</ele><time>2026-04-04T11:59:31Z</time></trkpt><trkpt lat="41.152787029258164" lon="14.884669491433062"><ele>288.0</ele><time>2026-04-04T11:59:32Z</time></trkpt><trkpt lat="41.153106422795304" lon="14.884695143350529"><ele>288.0</ele><time>2026-04-04T11:59:33Z</time></trkpt><trkpt lat="41.15343268720251" lon="14.884725138075325"><ele>288.0</ele><time>2026-04-04T11:59:34Z</time></trkpt><trkpt lat="41.15375100889854" lon="14.884743306931922"><ele>288.0</ele><time>2026-04-04T11:59:35Z</time></trkpt><trkpt lat="41.15403664768356" lon="14.8847533337057"><ele>290.0</ele><time>2026-04-04T11:59:36Z</time></trkpt><trkpt lat="41.15430513707273" lon="14.884763164880379"><ele>292.0</ele><time>2026-04-04T11:59:37Z</time></trkpt><trkpt lat="41.1545547188439" lon="14.884781616703368"><ele>292.0</ele><time>2026-04-04T11:59:38Z</time></trkpt><trkpt lat="41.15478578962143" lon="14.88480588291582"><ele>292.0</ele><time>2026-04-04T11:59:39Z</time></trkpt><trkpt lat="41.15500158817759" lon="14.884888349038171"><ele>294.0</ele><time>2026-04-04T11:59:40Z</time></trkpt><trkpt lat="41.155210482986526" lon="14.884984625833027"><ele>296.0</ele><time>2026-04-04T11:59:41Z</time></trkpt><trkpt lat="41.155418998908885" lon="14.885113606925511"><ele>293.5</ele><time>2026-04-04T11:59:42Z</time></trkpt><trkpt lat="41.15562572905924" lon="14.8852740975379"><ele>291.0</ele><time>2026-04-04T11:59:43Z</time></trkpt><trkpt lat="41.155825615980284" lon="14.885454797655688"><ele>291.0</ele><time>2026-04-04T11:59:44Z</time></trkpt><trkpt lat="41.15602296531412" lon="14.885650117436223"><ele>291.0</ele><time>2026-04-04T11:59:45Z</time></trkpt><trkpt lat="41.1562171719626" lon="14.885838023330296"><ele>291.0</ele><time>2026-04-04T11:59:46Z</time></trkpt><trkpt lat="41.15641407184122" lon="14.886002823532914"><ele>291.0</ele><time>2026-04-04T11:59:47Z</time></trkpt><trkpt lat="41.15660647793027" lon="14.88617420433091"><ele>292.5</ele><time>2026-04-04T11:59:48Z</time></trkpt><trkpt lat="41.15681486045384" lon="14.886308013875704"><ele>294.0</ele><time>2026-04-04T11:59:49Z</time></trkpt><trkpt lat="41.157045585097066" lon="14.886397677224133"><ele>294.0</ele><time>2026-04-04T11:59:50Z</time></trkpt><trkpt lat="41.1572884237921" lon="14.886436475979073"><ele>294.0</ele><time>2026-04-04T11:59:51Z</time></trkpt><trkpt lat="41.15752855678481" lon="14.886441365861554"><ele>292.0</ele><time>2026-04-04T11:59:52Z</time></trkpt><trkpt lat="41.15777035742811" lon="14.886414183724412"><ele>290.0</ele><time>2026-04-04T11:59:53Z</time></trkpt><trkpt lat="41.15801306923408" lon="14.886380813861793"><ele>287.5</ele><time>2026-04-04T11:59:54Z</time></trkpt><trkpt lat="41.15825199031596" lon="14.8863635408506"><ele>285.0</ele><time>2026-04-04T11:59:55Z</time></trkpt><trkpt lat="41.15847423517255" lon="14.886335488849001"><ele>285.0</ele><time>2026-04-04T11:59:56Z</time></trkpt><trkpt lat="41.15868296850657" lon="14.886332807923981"><ele>285.0</ele><time>2026-04-04T11:59:57Z</time></trkpt><trkpt lat="41.158879141697014" lon="14.886325254680807"><ele>285.0</ele><time>2026-04-04T11:59:58Z</time></trkpt><trkpt lat="41.159067344101324" lon="14.886322850227202"><ele>284.0</ele><time>2026-04-04T11:59:59Z</time></trkpt><trkpt lat="41.159256402803564" lon="14.88632835219198"><ele>283.0</ele><time>2026-04-04T12:00:00Z</time></trkpt><trkpt lat="41.15945324756041" lon="14.886366312858675"><ele>282.0</ele><time>2026-04-04T12:00:01Z</time></trkpt><trkpt lat="41.15965408314645" lon="14.886449577993782"><ele>282.0</ele><time>2026-04-04T12:00:02Z</time></trkpt><trkpt lat="41.15985972821369" lon="14.886575623186587"><ele>282.0</ele><time>2026-04-04T12:00:03Z</time></trkpt><trkpt lat="41.16005909773553" lon="14.886720203305769"><ele>282.6666666666667</ele><time>2026-04-04T12:00:04Z</time></trkpt><trkpt lat="41.160254239238675" lon="14.886868927806256"><ele>283.33333333333337</ele><time>2026-04-04T12:00:05Z</time></trkpt><trkpt lat="41.1604420063585" lon="14.887010341632678"><ele>284.0</ele><time>2026-04-04T12:00:06Z</time></trkpt><trkpt lat="41.160617989467596" lon="14.887137771218958"><ele>284.0</ele><time>2026-04-04T12:00:07Z</time></trkpt><trkpt lat="41.16078668210505" lon="14.887254726395431"><ele>284.0</ele><time>2026-04-04T12:00:08Z</time></trkpt><trkpt lat="41.16094788228298" lon="14.887387612107336"><ele>284.0</ele><time>2026-04-04T12:00:09Z</time></trkpt><trkpt lat="41.161092875257324" lon="14.887571796213146"><ele>281.6666666666667</ele><time>2026-04-04T12:00:10Z</time></trkpt><trkpt lat="41.161236718123945" lon="14.887789149874934"><ele>279.3333333333333</ele><time>2026-04-04T12:00:10.999Z</time></trkpt><trkpt lat="41.161383661543866" lon="14.88800657553526"><ele>277.0</ele><time>2026-04-04T12:00:11.999Z</time></trkpt><trkpt lat="41.161542065743106" lon="14.888215847570384"><ele>283.0</ele><time>2026-04-04T12:00:12.999Z</time></trkpt><trkpt lat="41.16169207492991" lon="14.888439563908738"><ele>289.0</ele><time>2026-04-04T12:00:13.999Z</time></trkpt><trkpt lat="41.161840228357335" lon="14.88866044554368"><ele>295.0</ele><time>2026-04-04T12:00:14.999Z</time></trkpt><trkpt lat="41.16198183957733" lon="14.888871001467674"><ele>295.0</ele><time>2026-04-04T12:00:15.999Z</time></trkpt><trkpt lat="41.16209796126149" lon="14.88908421901218"><ele>295.0</ele><time>2026-04-04T12:00:16.999Z</time></trkpt><trkpt lat="41.162217538811014" lon="14.889313721601074"><ele>295.0</ele><time>2026-04-04T12:00:17.999Z</time></trkpt><trkpt lat="41.162337383771586" lon="14.88957556966549"><ele>285.5</ele><time>2026-04-04T12:00:18.999Z</time></trkpt><trkpt lat="41.16244278363654" lon="14.889868702559978"><ele>276.0</ele><time>2026-04-04T12:00:19.999Z</time></trkpt><trkpt lat="41.16252722813617" lon="14.89017005750189"><ele>276.0</ele><time>2026-04-04T12:00:20.999Z</time></trkpt><trkpt lat="41.16260924961728" lon="14.890474796719266"><ele>276.0</ele><time>2026-04-04T12:00:21.999Z</time></trkpt><trkpt lat="41.162711272895365" lon="14.890762879471154"><ele>276.5</ele><time>2026-04-04T12:00:22.999Z</time></trkpt><trkpt lat="41.16280364421383" lon="14.891047241533993"><ele>277.0</ele><time>2026-04-04T12:00:23.999Z</time></trkpt><trkpt lat="41.162930883208816" lon="14.891311169605574"><ele>277.0</ele><time>2026-04-04T12:00:24.999Z</time></trkpt><trkpt lat="41.16305903126216" lon="14.89156090338379"><ele>277.0</ele><time>2026-04-04T12:00:25.999Z</time></trkpt><trkpt lat="41.16318980811148" lon="14.891807072094197"><ele>279.5</ele><time>2026-04-04T12:00:26.999Z</time></trkpt><trkpt lat="41.163321682790766" lon="14.892056546614253"><ele>282.0</ele><time>2026-04-04T12:00:27.999Z</time></trkpt><trkpt lat="41.16345382763554" lon="14.892309490398905"><ele>282.0</ele><time>2026-04-04T12:00:28.999Z</time></trkpt><trkpt lat="41.16358468242902" lon="14.892567188631094"><ele>282.0</ele><time>2026-04-04T12:00:29.999Z</time></trkpt><trkpt lat="41.16371961964491" lon="14.892826295619235"><ele>285.0</ele><time>2026-04-04T12:00:30.999Z</time></trkpt><trkpt lat="41.163836966014166" lon="14.893060137231249"><ele>288.0</ele><time>2026-04-04T12:00:31.999Z</time></trkpt><trkpt lat="41.16395796404648" lon="14.893327280337074"><ele>291.0</ele><time>2026-04-04T12:00:32.999Z</time></trkpt><trkpt lat="41.16409465890325" lon="14.893576612915869"><ele>291.0</ele><time>2026-04-04T12:00:33.999Z</time></trkpt><trkpt lat="41.16421761763826" lon="14.893850260099278"><ele>291.0</ele><time>2026-04-04T12:00:34.999Z</time></trkpt><trkpt lat="41.16432535912711" lon="14.894142794008747"><ele>295.5</ele><time>2026-04-04T12:00:35.999Z</time></trkpt><trkpt lat="41.16442348592156" lon="14.894464060417878"><ele>300.0</ele><time>2026-04-04T12:00:36.999Z</time></trkpt><trkpt lat="41.16452236861409" lon="14.894785167959206"><ele>305.0</ele><time>2026-04-04T12:00:37.999Z</time></trkpt><trkpt lat="41.16461605440455" lon="14.895090627970575"><ele>310.0</ele><time>2026-04-04T12:00:38.999Z</time></trkpt><trkpt lat="41.16470253191323" lon="14.895369062676577"><ele>310.0</ele><time>2026-04-04T12:00:39.999Z</time></trkpt><trkpt lat="41.16480467889697" lon="14.895648431433544"><ele>310.0</ele><time>2026-04-04T12:00:40.999Z</time></trkpt><trkpt lat="41.164925563418095" lon="14.895913165947224"><ele>304.0</ele><time>2026-04-04T12:00:41.999Z</time></trkpt><trkpt lat="41.16508227579338" lon="14.896162905261653"><ele>298.0</ele><time>2026-04-04T12:00:42.999Z</time></trkpt><trkpt lat="41.16524567017227" lon="14.896421134084616"><ele>298.0</ele><time>2026-04-04T12:00:43.999Z</time></trkpt><trkpt lat="41.16541405698581" lon="14.89667827106448"><ele>298.0</ele><time>2026-04-04T12:00:44.999Z</time></trkpt><trkpt lat="41.16558604449508" lon="14.896936106546963"><ele>299.0</ele><time>2026-04-04T12:00:45.999Z</time></trkpt><trkpt lat="41.165828026154" lon="14.897118817200644"><ele>300.0</ele><time>2026-04-04T12:00:46.999Z</time></trkpt><trkpt lat="41.1660144923754" lon="14.897360972640438"><ele>306.0</ele><time>2026-04-04T12:00:47.999Z</time></trkpt><trkpt lat="41.166194198948666" lon="14.897595911491639"><ele>312.0</ele><time>2026-04-04T12:00:48.999Z</time></trkpt><trkpt lat="41.16638087666941" lon="14.89784614596894"><ele>310.0</ele><time>2026-04-04T12:00:49.999Z</time></trkpt><trkpt lat="41.166564347399884" lon="14.898085376399658"><ele>308.0</ele><time>2026-04-04T12:00:50.999Z</time></trkpt><trkpt lat="41.16674633982733" lon="14.898322312816997"><ele>313.0</ele><time>2026-04-04T12:00:51.999Z</time></trkpt><trkpt lat="41.166923821641355" lon="14.898558875104424"><ele>318.0</ele><time>2026-04-04T12:00:52.999Z</time></trkpt><trkpt lat="41.16710084940177" lon="14.898797263288913"><ele>318.0</ele><time>2026-04-04T12:00:53.999Z</time></trkpt><trkpt lat="41.16727761893676" lon="14.8990351451138"><ele>318.0</ele><time>2026-04-04T12:00:54.999Z</time></trkpt><trkpt lat="41.16745012792161" lon="14.89926611442453"><ele>317.5</ele><time>2026-04-04T12:00:55.999Z</time></trkpt><trkpt lat="41.16763305239011" lon="14.899472225349516"><ele>317.0</ele><time>2026-04-04T12:00:56.999Z</time></trkpt><trkpt lat="41.167840860650664" lon="14.899650050320597"><ele>317.0</ele><time>2026-04-04T12:00:57.999Z</time></trkpt><trkpt lat="41.16807018270662" lon="14.89977896712448"><ele>317.0</ele><time>2026-04-04T12:00:58.999Z</time></trkpt><trkpt lat="41.1683213915458" lon="14.8998790886111"><ele>317.0</ele><time>2026-04-04T12:00:59.999Z</time></trkpt><trkpt lat="41.16857161832443" lon="14.899963484335407"><ele>317.0</ele><time>2026-04-04T12:01:00.999Z</time></trkpt><trkpt lat="41.168811440892284" lon="14.900041669588742"><ele>322.0</ele><time>2026-04-04T12:01:01.999Z</time></trkpt><trkpt lat="41.169049689294866" lon="14.900128172994362"><ele>327.0</ele><time>2026-04-04T12:01:02.999Z</time></trkpt><trkpt lat="41.169294446851445" lon="14.900214589159397"><ele>327.0</ele><time>2026-04-04T12:01:03.999Z</time></trkpt><trkpt lat="41.16953183105761" lon="14.900307618450261"><ele>327.0</ele><time>2026-04-04T12:01:04.999Z</time></trkpt><trkpt lat="41.169771325960625" lon="14.900403389228071"><ele>329.0</ele><time>2026-04-04T12:01:05.999Z</time></trkpt><trkpt lat="41.17000845019011" lon="14.900489036941998"><ele>331.0</ele><time>2026-04-04T12:01:06.999Z</time></trkpt><trkpt lat="41.17024410263545" lon="14.900570433280906"><ele>331.0</ele><time>2026-04-04T12:01:07.999Z</time></trkpt><trkpt lat="41.17048219146475" lon="14.900659196978355"><ele>331.0</ele><time>2026-04-04T12:01:08.999Z</time></trkpt><trkpt lat="41.17071825052254" lon="14.900755854982293"><ele>330.5</ele><time>2026-04-04T12:01:09.999Z</time></trkpt><trkpt lat="41.17095877168105" lon="14.900857085661514"><ele>330.0</ele><time>2026-04-04T12:01:10.999Z</time></trkpt><trkpt lat="41.17119511056372" lon="14.900948039757296"><ele>335.5</ele><time>2026-04-04T12:01:11.999Z</time></trkpt><trkpt lat="41.171417980689796" lon="14.90103928579474"><ele>341.0</ele><time>2026-04-04T12:01:12.999Z</time></trkpt><trkpt lat="41.17163388837417" lon="14.901137768332552"><ele>341.0</ele><time>2026-04-04T12:01:14Z</time></trkpt><trkpt lat="41.1718426203538" lon="14.901272193293968"><ele>341.0</ele><time>2026-04-04T12:01:15Z</time></trkpt><trkpt lat="41.17204276366857" lon="14.901435703295274"><ele>341.0</ele><time>2026-04-04T12:01:16Z</time></trkpt><trkpt lat="41.17223326851326" lon="14.901627393184118"><ele>341.0</ele><time>2026-04-04T12:01:17Z</time></trkpt><trkpt lat="41.17240200814648" lon="14.901841695507446"><ele>341.6666666666667</ele><time>2026-04-04T12:01:18Z</time></trkpt><trkpt lat="41.17254774848609" lon="14.90205155946538"><ele>342.3333333333333</ele><time>2026-04-04T12:01:19Z</time></trkpt><trkpt lat="41.17269529788516" lon="14.902245929507941"><ele>343.0</ele><time>2026-04-04T12:01:20Z</time></trkpt><trkpt lat="41.172865018150226" lon="14.902413628558138"><ele>343.0</ele><time>2026-04-04T12:01:21Z</time></trkpt><trkpt lat="41.17306061668571" lon="14.90252828774652"><ele>343.0</ele><time>2026-04-04T12:01:22Z</time></trkpt><trkpt lat="41.17327894342515" lon="14.902592022094556"><ele>343.0</ele><time>2026-04-04T12:01:23Z</time></trkpt><trkpt lat="41.17350498401112" lon="14.902609607082258"><ele>341.5</ele><time>2026-04-04T12:01:24Z</time></trkpt><trkpt lat="41.17374358351486" lon="14.90257464633674"><ele>340.0</ele><time>2026-04-04T12:01:25Z</time></trkpt><trkpt lat="41.1739977023941" lon="14.902496338826753"><ele>343.0</ele><time>2026-04-04T12:01:26Z</time></trkpt><trkpt lat="41.1742643411685" lon="14.90241204034186"><ele>346.0</ele><time>2026-04-04T12:01:27Z</time></trkpt><trkpt lat="41.17453070975463" lon="14.902336566097688"><ele>346.0</ele><time>2026-04-04T12:01:28Z</time></trkpt><trkpt lat="41.17479339482633" lon="14.902271723414485"><ele>346.0</ele><time>2026-04-04T12:01:29Z</time></trkpt><trkpt lat="41.175028384624405" lon="14.902218074113588"><ele>348.3333333333333</ele><time>2026-04-04T12:01:30Z</time></trkpt><trkpt lat="41.17523869332938" lon="14.902165905974494"><ele>350.6666666666667</ele><time>2026-04-04T12:01:31Z</time></trkpt><trkpt lat="41.175438993222684" lon="14.9021038651865"><ele>353.0</ele><time>2026-04-04T12:01:32Z</time></trkpt><trkpt lat="41.17563209518358" lon="14.902014796788738"><ele>354.33333333333337</ele><time>2026-04-04T12:01:33Z</time></trkpt><trkpt lat="41.17580177181673" lon="14.901895671035975"><ele>355.6666666666667</ele><time>2026-04-04T12:01:34Z</time></trkpt><trkpt lat="41.17595439036464" lon="14.901735697185154"><ele>357.0</ele><time>2026-04-04T12:01:35Z</time></trkpt><trkpt lat="41.17610005150791" lon="14.901546142598988"><ele>357.0</ele><time>2026-04-04T12:01:36Z</time></trkpt><trkpt lat="41.17622894971026" lon="14.901333622054882"><ele>357.0</ele><time>2026-04-04T12:01:37Z</time></trkpt><trkpt lat="41.17633306656628" lon="14.901096495712954"><ele>357.0</ele><time>2026-04-04T12:01:38Z</time></trkpt><trkpt lat="41.17642786327523" lon="14.900826019470626"><ele>359.5</ele><time>2026-04-04T12:01:39Z</time></trkpt><trkpt lat="41.176527500072524" lon="14.900534320458366"><ele>362.0</ele><time>2026-04-04T12:01:40Z</time></trkpt><trkpt lat="41.1766455698616" lon="14.900239768379384"><ele>363.6666666666667</ele><time>2026-04-04T12:01:41Z</time></trkpt><trkpt lat="41.17675462588702" lon="14.899970426370158"><ele>365.3333333333333</ele><time>2026-04-04T12:01:42Z</time></trkpt><trkpt lat="41.17684806586297" lon="14.899725742852809"><ele>367.0</ele><time>2026-04-04T12:01:43Z</time></trkpt><trkpt lat="41.17693625376674" lon="14.899490519970731"><ele>367.0</ele><time>2026-04-04T12:01:44Z</time></trkpt><trkpt lat="41.1770317598976" lon="14.89926318420394"><ele>367.0</ele><time>2026-04-04T12:01:45Z</time></trkpt><trkpt lat="41.1771454368246" lon="14.899044603540887"><ele>367.0</ele><time>2026-04-04T12:01:46Z</time></trkpt><trkpt lat="41.177294105762556" lon="14.89884386940409"><ele>369.0</ele><time>2026-04-04T12:01:47Z</time></trkpt><trkpt lat="41.177473548479696" lon="14.898670362744681"><ele>371.0</ele><time>2026-04-04T12:01:48Z</time></trkpt><trkpt lat="41.177688492208226" lon="14.898547372857712"><ele>371.0</ele><time>2026-04-04T12:01:49Z</time></trkpt><trkpt lat="41.17790844969742" lon="14.898479692734474"><ele>371.0</ele><time>2026-04-04T12:01:50Z</time></trkpt><trkpt lat="41.17811033769396" lon="14.898472236946665"><ele>371.0</ele><time>2026-04-04T12:01:51Z</time></trkpt><trkpt lat="41.1783317844635" lon="14.89849060547046"><ele>370.5</ele><time>2026-04-04T12:01:52Z</time></trkpt><trkpt lat="41.17856333061828" lon="14.898533541208508"><ele>370.0</ele><time>2026-04-04T12:01:53Z</time></trkpt><trkpt lat="41.17880309554457" lon="14.898564978183728"><ele>372.5</ele><time>2026-04-04T12:01:54Z</time></trkpt><trkpt lat="41.179042389806874" lon="14.898583516911621"><ele>375.0</ele><time>2026-04-04T12:01:55Z</time></trkpt><trkpt lat="41.179274056673286" lon="14.898604175699544"><ele>375.0</ele><time>2026-04-04T12:01:56Z</time></trkpt><trkpt lat="41.17949702019298" lon="14.898629788077137"><ele>375.0</ele><time>2026-04-04T12:01:57Z</time></trkpt><trkpt lat="41.179708007635426" lon="14.898658252309943"><ele>375.0</ele><time>2026-04-04T12:01:58Z</time></trkpt><trkpt lat="41.17989936509826" lon="14.898676630932734"><ele>377.6666666666667</ele><time>2026-04-04T12:01:59Z</time></trkpt><trkpt lat="41.180078537970495" lon="14.898709550103133"><ele>380.33333333333337</ele><time>2026-04-04T12:02:00Z</time></trkpt><trkpt lat="41.180250113747945" lon="14.898789081892446"><ele>383.0</ele><time>2026-04-04T12:02:01Z</time></trkpt><trkpt lat="41.18042264567234" lon="14.898935277049628"><ele>383.0</ele><time>2026-04-04T12:02:02Z</time></trkpt><trkpt lat="41.180573440638724" lon="14.899157602641043"><ele>383.0</ele><time>2026-04-04T12:02:03Z</time></trkpt><trkpt lat="41.18075378299939" lon="14.89937064650496"><ele>386.0</ele><time>2026-04-04T12:02:04Z</time></trkpt><trkpt lat="41.18091615116067" lon="14.899600015606248"><ele>389.0</ele><time>2026-04-04T12:02:05Z</time></trkpt><trkpt lat="41.18107144716606" lon="14.899803411078645"><ele>389.0</ele><time>2026-04-04T12:02:06Z</time></trkpt><trkpt lat="41.18121564859298" lon="14.899992329823434"><ele>389.0</ele><time>2026-04-04T12:02:07Z</time></trkpt><trkpt lat="41.18135958246079" lon="14.900181388527148"><ele>389.0</ele><time>2026-04-04T12:02:08Z</time></trkpt><trkpt lat="41.18149806158184" lon="14.900362502510317"><ele>391.0</ele><time>2026-04-04T12:02:09Z</time></trkpt><trkpt lat="41.18162277678295" lon="14.900525320616651"><ele>393.0</ele><time>2026-04-04T12:02:10Z</time></trkpt><trkpt lat="41.18172455816818" lon="14.900682608037625"><ele>395.0</ele><time>2026-04-04T12:02:11Z</time></trkpt><trkpt lat="41.181842354679276" lon="14.90083760514927"><ele>395.3333333333333</ele><time>2026-04-04T12:02:12Z</time></trkpt><trkpt lat="41.18198292710632" lon="14.900991183991273"><ele>395.66666666666663</ele><time>2026-04-04T12:02:13Z</time></trkpt><trkpt lat="41.18211606713609" lon="14.901203528262638"><ele>396.0</ele><time>2026-04-04T12:02:14Z</time></trkpt><trkpt lat="41.18225443374644" lon="14.901396476427331"><ele>396.33333333333337</ele><time>2026-04-04T12:02:14.999Z</time></trkpt><trkpt lat="41.182394031186476" lon="14.90157855653662"><ele>396.6666666666667</ele><time>2026-04-04T12:02:15.999Z</time></trkpt><trkpt lat="41.18254160802742" lon="14.901751376770749"><ele>397.0</ele><time>2026-04-04T12:02:16.999Z</time></trkpt><trkpt lat="41.18270725310346" lon="14.901902155497611"><ele>397.33333333333337</ele><time>2026-04-04T12:02:17.999Z</time></trkpt><trkpt lat="41.182892981576046" lon="14.902025473854478"><ele>397.66666666666663</ele><time>2026-04-04T12:02:18.999Z</time></trkpt><trkpt lat="41.18309559290279" lon="14.902118966403552"><ele>398.0</ele><time>2026-04-04T12:02:19.999Z</time></trkpt><trkpt lat="41.1833023797573" lon="14.902182266524536"><ele>398.0</ele><time>2026-04-04T12:02:20.999Z</time></trkpt><trkpt lat="41.18351055038786" lon="14.90226462203362"><ele>398.0</ele><time>2026-04-04T12:02:21.999Z</time></trkpt><trkpt lat="41.18372746927628" lon="14.90237982530717"><ele>398.0</ele><time>2026-04-04T12:02:22.999Z</time></trkpt><trkpt lat="41.18393852301613" lon="14.902528673209678"><ele>398.0</ele><time>2026-04-04T12:02:23.999Z</time></trkpt><trkpt lat="41.184146148679076" lon="14.902701843861573"><ele>398.0</ele><time>2026-04-04T12:02:24.999Z</time></trkpt><trkpt lat="41.18434693982789" lon="14.902884195436643"><ele>398.0</ele><time>2026-04-04T12:02:25.999Z</time></trkpt><trkpt lat="41.18454456277096" lon="14.903079411655803"><ele>398.0</ele><time>2026-04-04T12:02:26.999Z</time></trkpt><trkpt lat="41.18473325701053" lon="14.903289128973316"><ele>398.0</ele><time>2026-04-04T12:02:27.999Z</time></trkpt><trkpt lat="41.184917143154316" lon="14.903527086904921"><ele>402.5</ele><time>2026-04-04T12:02:28.999Z</time></trkpt><trkpt lat="41.18508325499358" lon="14.903762773087784"><ele>407.0</ele><time>2026-04-04T12:02:29.999Z</time></trkpt><trkpt lat="41.185243597072066" lon="14.904001653745949"><ele>408.5</ele><time>2026-04-04T12:02:30.999Z</time></trkpt><trkpt lat="41.1854008965628" lon="14.904260374943414"><ele>410.0</ele><time>2026-04-04T12:02:31.999Z</time></trkpt><trkpt lat="41.185539924351886" lon="14.904544636670687"><ele>410.0</ele><time>2026-04-04T12:02:32.999Z</time></trkpt><trkpt lat="41.18566614872156" lon="14.904837831414095"><ele>410.0</ele><time>2026-04-04T12:02:33.999Z</time></trkpt><trkpt lat="41.185781120834164" lon="14.905124956426057"><ele>412.5</ele><time>2026-04-04T12:02:34.999Z</time></trkpt><trkpt lat="41.18588884997396" lon="14.9054001523556"><ele>415.0</ele><time>2026-04-04T12:02:35.999Z</time></trkpt><trkpt lat="41.18601861214187" lon="14.90566575068117"><ele>417.5</ele><time>2026-04-04T12:02:36.999Z</time></trkpt><trkpt lat="41.18617797025111" lon="14.905915707419531"><ele>420.0</ele><time>2026-04-04T12:02:37.999Z</time></trkpt><trkpt lat="41.18636516636662" lon="14.906147815996098"><ele>420.33333333333337</ele><time>2026-04-04T12:02:38.999Z</time></trkpt><trkpt lat="41.186544879905874" lon="14.906347794797286"><ele>420.6666666666667</ele><time>2026-04-04T12:02:39.999Z</time></trkpt><trkpt lat="41.18670886866657" lon="14.906529031627612"><ele>421.0</ele><time>2026-04-04T12:02:40.999Z</time></trkpt><trkpt lat="41.18684968921702" lon="14.906706509159314"><ele>420.6666666666667</ele><time>2026-04-04T12:02:41.999Z</time></trkpt><trkpt lat="41.18697034163636" lon="14.906905097114432"><ele>420.33333333333337</ele><time>2026-04-04T12:02:42.999Z</time></trkpt><trkpt lat="41.18708623981172" lon="14.907140540640007"><ele>420.0</ele><time>2026-04-04T12:02:43.999Z</time></trkpt><trkpt lat="41.187194797438316" lon="14.907383791210075"><ele>419.0</ele><time>2026-04-04T12:02:44.999Z</time></trkpt><trkpt lat="41.18729894690177" lon="14.907632014713737"><ele>418.0</ele><time>2026-04-04T12:02:45.999Z</time></trkpt><trkpt lat="41.18740777772087" lon="14.907893491910281"><ele>417.0</ele><time>2026-04-04T12:02:46.999Z</time></trkpt><trkpt lat="41.18752175667206" lon="14.908159351654396"><ele>415.5</ele><time>2026-04-04T12:02:47.999Z</time></trkpt><trkpt lat="41.187639994465755" lon="14.908423165591318"><ele>414.0</ele><time>2026-04-04T12:02:48.999Z</time></trkpt><trkpt lat="41.187759879696195" lon="14.908696200756511"><ele>414.0</ele><time>2026-04-04T12:02:49.999Z</time></trkpt><trkpt lat="41.187872535843724" lon="14.908964303096395"><ele>414.0</ele><time>2026-04-04T12:02:50.999Z</time></trkpt><trkpt lat="41.187992757380876" lon="14.909240303679493"><ele>413.0</ele><time>2026-04-04T12:02:51.999Z</time></trkpt><trkpt lat="41.18810993132013" lon="14.90950192034521"><ele>412.0</ele><time>2026-04-04T12:02:52.999Z</time></trkpt><trkpt lat="41.18821299965676" lon="14.909750089266124"><ele>411.0</ele><time>2026-04-04T12:02:53.999Z</time></trkpt><trkpt lat="41.18829964180947" lon="14.909996601088737"><ele>411.33333333333337</ele><time>2026-04-04T12:02:54.999Z</time></trkpt><trkpt lat="41.18835495235808" lon="14.910241397429155"><ele>411.6666666666667</ele><time>2026-04-04T12:02:55.999Z</time></trkpt><trkpt lat="41.18835962921167" lon="14.910523720828339"><ele>412.0</ele><time>2026-04-04T12:02:56.999Z</time></trkpt><trkpt lat="41.18831240744023" lon="14.91081756846853"><ele>412.0</ele><time>2026-04-04T12:02:57.999Z</time></trkpt><trkpt lat="41.18823118291489" lon="14.911111785022218"><ele>412.0</ele><time>2026-04-04T12:02:58.999Z</time></trkpt><trkpt lat="41.18815309573447" lon="14.911416739087102"><ele>412.0</ele><time>2026-04-04T12:02:59.999Z</time></trkpt><trkpt lat="41.188083280236484" lon="14.911727138785286"><ele>412.0</ele><time>2026-04-04T12:03:00.999Z</time></trkpt><trkpt lat="41.18801244076926" lon="14.91202793347643"><ele>414.0</ele><time>2026-04-04T12:03:01.999Z</time></trkpt><trkpt lat="41.187944430383325" lon="14.9123003793365"><ele>416.0</ele><time>2026-04-04T12:03:02.999Z</time></trkpt><trkpt lat="41.18788347791234" lon="14.912562579165504"><ele>418.0</ele><time>2026-04-04T12:03:03.999Z</time></trkpt><trkpt lat="41.18782542473365" lon="14.912811658465566"><ele>419.33333333333337</ele><time>2026-04-04T12:03:04.999Z</time></trkpt><trkpt lat="41.187780075668975" lon="14.913059774048461"><ele>420.66666666666663</ele><time>2026-04-04T12:03:05.999Z</time></trkpt><trkpt lat="41.187777892605375" lon="14.913329822192145"><ele>422.0</ele><time>2026-04-04T12:03:06.999Z</time></trkpt><trkpt lat="41.187824233559965" lon="14.913597554712355"><ele>422.3333333333333</ele><time>2026-04-04T12:03:07.999Z</time></trkpt><trkpt lat="41.187914804119515" lon="14.913860536633596"><ele>422.66666666666663</ele><time>2026-04-04T12:03:08.999Z</time></trkpt><trkpt lat="41.18805480023239" lon="14.914096497845652"><ele>423.0</ele><time>2026-04-04T12:03:09.999Z</time></trkpt><trkpt lat="41.18824894295538" lon="14.914291161578666"><ele>427.5</ele><time>2026-04-04T12:03:10.999Z</time></trkpt><trkpt lat="41.188456557436346" lon="14.914534023559662"><ele>432.0</ele><time>2026-04-04T12:03:11.999Z</time></trkpt><trkpt lat="41.18866683709382" lon="14.914765303423463"><ele>432.0</ele><time>2026-04-04T12:03:12.999Z</time></trkpt><trkpt lat="41.188881170232484" lon="14.91502763107026"><ele>432.0</ele><time>2026-04-04T12:03:13.999Z</time></trkpt><trkpt lat="41.18910755338543" lon="14.91530658852104"><ele>437.5</ele><time>2026-04-04T12:03:14.999Z</time></trkpt><trkpt lat="41.1893489136799" lon="14.915589059426086"><ele>443.0</ele><time>2026-04-04T12:03:15.999Z</time></trkpt><trkpt lat="41.18957096340469" lon="14.915853031492954"><ele>445.0</ele><time>2026-04-04T12:03:16.999Z</time></trkpt><trkpt lat="41.18976876516409" lon="14.916091150178612"><ele>447.0</ele><time>2026-04-04T12:03:17.999Z</time></trkpt><trkpt lat="41.1899576186485" lon="14.916318577413335"><ele>448.5</ele><time>2026-04-04T12:03:18.999Z</time></trkpt><trkpt lat="41.19014638414251" lon="14.91654267128084"><ele>450.0</ele><time>2026-04-04T12:03:20.001Z</time></trkpt><trkpt lat="41.19033364760725" lon="14.916764791083658"><ele>450.0</ele><time>2026-04-04T12:03:21.001Z</time></trkpt><trkpt lat="41.19052157119979" lon="14.916988208018363"><ele>450.0</ele><time>2026-04-04T12:03:22.001Z</time></trkpt><trkpt lat="41.19071034201694" lon="14.917215832490307"><ele>450.0</ele><time>2026-04-04T12:03:23.001Z</time></trkpt><trkpt lat="41.19089519783163" lon="14.91743514928656"><ele>450.0</ele><time>2026-04-04T12:03:24.001Z</time></trkpt><trkpt lat="41.19107530473745" lon="14.917650522681951"><ele>450.0</ele><time>2026-04-04T12:03:25.001Z</time></trkpt><trkpt lat="41.19125628080463" lon="14.917871863865818"><ele>450.0</ele><time>2026-04-04T12:03:26.001Z</time></trkpt><trkpt lat="41.19143701830991" lon="14.918087787279863"><ele>453.0</ele><time>2026-04-04T12:03:27.001Z</time></trkpt><trkpt lat="41.19161926419073" lon="14.918306145459864"><ele>456.0</ele><time>2026-04-04T12:03:28.001Z</time></trkpt><trkpt lat="41.19180182912963" lon="14.91852904139124"><ele>456.0</ele><time>2026-04-04T12:03:29.001Z</time></trkpt><trkpt lat="41.19198258486868" lon="14.918750313029285"><ele>456.0</ele><time>2026-04-04T12:03:30.001Z</time></trkpt><trkpt lat="41.19215307834096" lon="14.918961751459692"><ele>456.0</ele><time>2026-04-04T12:03:31Z</time></trkpt><trkpt lat="41.1923146409411" lon="14.919147790284152"><ele>456.0</ele><time>2026-04-04T12:03:32Z</time></trkpt><trkpt lat="41.192465949349675" lon="14.9193244183741"><ele>456.0</ele><time>2026-04-04T12:03:33Z</time></trkpt><trkpt lat="41.192618788347865" lon="14.919495127063943"><ele>459.33333333333337</ele><time>2026-04-04T12:03:34Z</time></trkpt><trkpt lat="41.19279248829937" lon="14.919636385680398"><ele>462.6666666666667</ele><time>2026-04-04T12:03:35Z</time></trkpt><trkpt lat="41.19298994461644" lon="14.91974030532509"><ele>466.0</ele><time>2026-04-04T12:03:36Z</time></trkpt><trkpt lat="41.19320531646964" lon="14.919788960418133"><ele>469.0</ele><time>2026-04-04T12:03:37Z</time></trkpt><trkpt lat="41.19343160517571" lon="14.919804256293709"><ele>472.0</ele><time>2026-04-04T12:03:38Z</time></trkpt><trkpt lat="41.19367174441891" lon="14.919813127931326"><ele>472.0</ele><time>2026-04-04T12:03:39Z</time></trkpt><trkpt lat="41.19392073475188" lon="14.919824726266867"><ele>472.0</ele><time>2026-04-04T12:03:40Z</time></trkpt><trkpt lat="41.194169669446275" lon="14.919840171475027"><ele>474.5</ele><time>2026-04-04T12:03:41Z</time></trkpt><trkpt lat="41.194417389883235" lon="14.919855091192495"><ele>477.0</ele><time>2026-04-04T12:03:42Z</time></trkpt><trkpt lat="41.194667212616736" lon="14.9198686020318"><ele>479.5</ele><time>2026-04-04T12:03:43Z</time></trkpt><trkpt lat="41.19490902843753" lon="14.919881369317029"><ele>482.0</ele><time>2026-04-04T12:03:44Z</time></trkpt><trkpt lat="41.19512803512684" lon="14.919894254719793"><ele>482.0</ele><time>2026-04-04T12:03:45Z</time></trkpt><trkpt lat="41.195338273722214" lon="14.919899837204628"><ele>482.0</ele><time>2026-04-04T12:03:46Z</time></trkpt><trkpt lat="41.195557067340985" lon="14.919928129259882"><ele>482.0</ele><time>2026-04-04T12:03:47Z</time></trkpt><trkpt lat="41.19577558583926" lon="14.92000558423768"><ele>485.5</ele><time>2026-04-04T12:03:48Z</time></trkpt><trkpt lat="41.19597985719462" lon="14.920133751468924"><ele>489.0</ele><time>2026-04-04T12:03:49Z</time></trkpt><trkpt lat="41.19615264520373" lon="14.920341371819678"><ele>489.0</ele><time>2026-04-04T12:03:50Z</time></trkpt><trkpt lat="41.1963177960225" lon="14.92057476841355"><ele>489.0</ele><time>2026-04-04T12:03:51Z</time></trkpt><trkpt lat="41.19649376121687" lon="14.9208186033806"><ele>492.5</ele><time>2026-04-04T12:03:52Z</time></trkpt><trkpt lat="41.19665991071182" lon="14.921085218000876"><ele>496.0</ele><time>2026-04-04T12:03:53Z</time></trkpt><trkpt lat="41.19683684996052" lon="14.921342893566264"><ele>496.0</ele><time>2026-04-04T12:03:54Z</time></trkpt><trkpt lat="41.19701023849645" lon="14.921597014110676"><ele>496.0</ele><time>2026-04-04T12:03:55Z</time></trkpt><trkpt lat="41.19718353450726" lon="14.921854185087497"><ele>498.0</ele><time>2026-04-04T12:03:56Z</time></trkpt><trkpt lat="41.197358666642735" lon="14.92211226717699"><ele>500.0</ele><time>2026-04-04T12:03:57Z</time></trkpt><trkpt lat="41.19753100272323" lon="14.922367018788755"><ele>499.5</ele><time>2026-04-04T12:03:58Z</time></trkpt><trkpt lat="41.19769216628058" lon="14.922615162518504"><ele>499.0</ele><time>2026-04-04T12:03:59Z</time></trkpt><trkpt lat="41.1978397591898" lon="14.922848831858005"><ele>499.0</ele><time>2026-04-04T12:04:00Z</time></trkpt><trkpt lat="41.19798041236835" lon="14.92306405825188"><ele>499.0</ele><time>2026-04-04T12:04:01Z</time></trkpt><trkpt lat="41.198135645505985" lon="14.923281833865385"><ele>499.0</ele><time>2026-04-04T12:04:02Z</time></trkpt><trkpt lat="41.19830366649661" lon="14.92348795708481"><ele>501.0</ele><time>2026-04-04T12:04:03Z</time></trkpt><trkpt lat="41.19848719013872" lon="14.923660033189277"><ele>503.0</ele><time>2026-04-04T12:04:04Z</time></trkpt><trkpt lat="41.1986852269936" lon="14.923800249025522"><ele>505.0</ele><time>2026-04-04T12:04:05Z</time></trkpt><trkpt lat="41.19887508802868" lon="14.923924465690902"><ele>508.0</ele><time>2026-04-04T12:04:06Z</time></trkpt><trkpt lat="41.19904127950728" lon="14.92403917393481"><ele>511.0</ele><time>2026-04-04T12:04:07Z</time></trkpt><trkpt lat="41.199189672005986" lon="14.924150766525957"><ele>514.0</ele><time>2026-04-04T12:04:08Z</time></trkpt><trkpt lat="41.19931700569197" lon="14.924277038814562"><ele>514.3333333333334</ele><time>2026-04-04T12:04:09Z</time></trkpt><trkpt lat="41.19940891336675" lon="14.924451936808968"><ele>514.6666666666666</ele><time>2026-04-04T12:04:10Z</time></trkpt><trkpt lat="41.199425297473574" lon="14.92467815446856"><ele>515.0</ele><time>2026-04-04T12:04:11Z</time></trkpt><trkpt lat="41.19939705122322" lon="14.92491569390975"><ele>516.3333333333333</ele><time>2026-04-04T12:04:12Z</time></trkpt><trkpt lat="41.19934015071726" lon="14.925165939026911"><ele>517.6666666666666</ele><time>2026-04-04T12:04:13Z</time></trkpt><trkpt lat="41.1992877757411" lon="14.925444374162065"><ele>519.0</ele><time>2026-04-04T12:04:14Z</time></trkpt><trkpt lat="41.199232120402385" lon="14.9257175585368"><ele>520.5</ele><time>2026-04-04T12:04:15Z</time></trkpt><trkpt lat="41.199199152719814" lon="14.926006882452688"><ele>522.0</ele><time>2026-04-04T12:04:16Z</time></trkpt><trkpt lat="41.199173743363325" lon="14.926309846636471"><ele>522.0</ele><time>2026-04-04T12:04:17Z</time></trkpt><trkpt lat="41.19919913321898" lon="14.926634880894762"><ele>522.0</ele><time>2026-04-04T12:04:17.999Z</time></trkpt><trkpt lat="41.19919293912255" lon="14.926975743053452"><ele>524.0</ele><time>2026-04-04T12:04:18.999Z</time></trkpt><trkpt lat="41.1992025977412" lon="14.927313284091852"><ele>526.0</ele><time>2026-04-04T12:04:19.999Z</time></trkpt><trkpt lat="41.199211959345625" lon="14.927626441015143"><ele>527.0</ele><time>2026-04-04T12:04:20.999Z</time></trkpt><trkpt lat="41.199238462567386" lon="14.927907582354521"><ele>528.0</ele><time>2026-04-04T12:04:21.999Z</time></trkpt><trkpt lat="41.19927805919115" lon="14.928201293227017"><ele>529.0</ele><time>2026-04-04T12:04:22.999Z</time></trkpt><trkpt lat="41.19935972264877" lon="14.928498074580453"><ele>529.0</ele><time>2026-04-04T12:04:23.999Z</time></trkpt><trkpt lat="41.19945731076415" lon="14.92876072476426"><ele>529.0</ele><time>2026-04-04T12:04:24.999Z</time></trkpt><trkpt lat="41.1995490823683" lon="14.928983984762608"><ele>529.0</ele><time>2026-04-04T12:04:25.999Z</time></trkpt><trkpt lat="41.19964891613945" lon="14.929175417350999"><ele>528.6666666666667</ele><time>2026-04-04T12:04:26.999Z</time></trkpt><trkpt lat="41.19978990577582" lon="14.929334091535466"><ele>528.3333333333334</ele><time>2026-04-04T12:04:27.999Z</time></trkpt><trkpt lat="41.19996688993949" lon="14.92945749764417"><ele>528.0</ele><time>2026-04-04T12:04:28.999Z</time></trkpt><trkpt lat="41.20016774275303" lon="14.929545730366058"><ele>531.0</ele><time>2026-04-04T12:04:29.999Z</time></trkpt><trkpt lat="41.200389686252954" lon="14.929593722125023"><ele>534.0</ele><time>2026-04-04T12:04:30.999Z</time></trkpt><trkpt lat="41.20061584169608" lon="14.929607087035437"><ele>535.6666666666666</ele><time>2026-04-04T12:04:31.999Z</time></trkpt><trkpt lat="41.20083715541937" lon="14.929608632335809"><ele>537.3333333333333</ele><time>2026-04-04T12:04:32.999Z</time></trkpt><trkpt lat="41.20105639056702" lon="14.929618826048682"><ele>539.0</ele><time>2026-04-04T12:04:33.999Z</time></trkpt><trkpt lat="41.20124563314407" lon="14.929639127245782"><ele>539.0</ele><time>2026-04-04T12:04:34.999Z</time></trkpt><trkpt lat="41.20141938085926" lon="14.929679037572312"><ele>539.0</ele><time>2026-04-04T12:04:35.999Z</time></trkpt><trkpt lat="41.20159913474769" lon="14.929761957705823"><ele>539.0</ele><time>2026-04-04T12:04:36.999Z</time></trkpt><trkpt lat="41.20177492227403" lon="14.929921184669581"><ele>540.0</ele><time>2026-04-04T12:04:37.999Z</time></trkpt><trkpt lat="41.201947252077055" lon="14.930121089296405"><ele>541.0</ele><time>2026-04-04T12:04:38.999Z</time></trkpt><trkpt lat="41.20211147190226" lon="14.930341681383272"><ele>541.0</ele><time>2026-04-04T12:04:39.999Z</time></trkpt><trkpt lat="41.202274206091516" lon="14.930550927694284"><ele>541.0</ele><time>2026-04-04T12:04:40.999Z</time></trkpt><trkpt lat="41.20243872104142" lon="14.930747534456415"><ele>541.0</ele><time>2026-04-04T12:04:41.999Z</time></trkpt><trkpt lat="41.20260583413579" lon="14.930944473571438"><ele>539.5</ele><time>2026-04-04T12:04:42.999Z</time></trkpt><trkpt lat="41.20277277220363" lon="14.931142676289268"><ele>538.0</ele><time>2026-04-04T12:04:43.999Z</time></trkpt><trkpt lat="41.20294054478413" lon="14.931344627110716"><ele>538.0</ele><time>2026-04-04T12:04:44.999Z</time></trkpt><trkpt lat="41.20311278410617" lon="14.931544900002828"><ele>538.0</ele><time>2026-04-04T12:04:45.999Z</time></trkpt><trkpt lat="41.20327888666496" lon="14.931744235956698"><ele>537.6666666666667</ele><time>2026-04-04T12:04:46.999Z</time></trkpt><trkpt lat="41.20344136366522" lon="14.931939991892632"><ele>537.3333333333334</ele><time>2026-04-04T12:04:47.999Z</time></trkpt><trkpt lat="41.20360212327844" lon="14.932137990844755"><ele>537.0</ele><time>2026-04-04T12:04:48.999Z</time></trkpt><trkpt lat="41.20376075341592" lon="14.932328531980403"><ele>537.0</ele><time>2026-04-04T12:04:49.999Z</time></trkpt><trkpt lat="41.20392352139862" lon="14.932517558238194"><ele>537.0</ele><time>2026-04-04T12:04:50.999Z</time></trkpt><trkpt lat="41.2040876073415" lon="14.932716437280293"><ele>537.0</ele><time>2026-04-04T12:04:51.999Z</time></trkpt><trkpt lat="41.20425072826289" lon="14.932913582243629"><ele>536.0</ele><time>2026-04-04T12:04:52.999Z</time></trkpt><trkpt lat="41.20442472116275" lon="14.93311611302503"><ele>535.0</ele><time>2026-04-04T12:04:53.999Z</time></trkpt><trkpt lat="41.20459509348496" lon="14.933319004153429"><ele>534.6666666666667</ele><time>2026-04-04T12:04:54.999Z</time></trkpt><trkpt lat="41.20476815868581" lon="14.933507951451308"><ele>534.3333333333334</ele><time>2026-04-04T12:04:55.999Z</time></trkpt><trkpt lat="41.20491282655554" lon="14.93369939175034"><ele>534.0</ele><time>2026-04-04T12:04:56.999Z</time></trkpt><trkpt lat="41.205104090830574" lon="14.93392210820046"><ele>534.0</ele><time>2026-04-04T12:04:57.999Z</time></trkpt><trkpt lat="41.20527907560055" lon="14.93412754738905"><ele>534.0</ele><time>2026-04-04T12:04:58.999Z</time></trkpt><trkpt lat="41.20545430762001" lon="14.934334991374463"><ele>533.0</ele><time>2026-04-04T12:04:59.999Z</time></trkpt><trkpt lat="41.20562392210777" lon="14.934543893584896"><ele>532.0</ele><time>2026-04-04T12:05:00.999Z</time></trkpt><trkpt lat="41.20580079438514" lon="14.93475864389481"><ele>532.0</ele><time>2026-04-04T12:05:01.999Z</time></trkpt><trkpt lat="41.205977452334885" lon="14.934963983229956"><ele>532.0</ele><time>2026-04-04T12:05:02.999Z</time></trkpt><trkpt lat="41.206150480866256" lon="14.93516938852212"><ele>532.0</ele><time>2026-04-04T12:05:03.999Z</time></trkpt><trkpt lat="41.20633027029788" lon="14.935375500631835"><ele>532.0</ele><time>2026-04-04T12:05:04.999Z</time></trkpt><trkpt lat="41.206507450601066" lon="14.935585536626087"><ele>532.0</ele><time>2026-04-04T12:05:05.999Z</time></trkpt><trkpt lat="41.206682640202445" lon="14.935804423627186"><ele>532.0</ele><time>2026-04-04T12:05:06.999Z</time></trkpt><trkpt lat="41.206859180480066" lon="14.936021200734167"><ele>531.0</ele><time>2026-04-04T12:05:07.999Z</time></trkpt><trkpt lat="41.20703544154532" lon="14.93623683505765"><ele>530.0</ele><time>2026-04-04T12:05:08.999Z</time></trkpt><trkpt lat="41.20722273289316" lon="14.936455579152305"><ele>530.0</ele><time>2026-04-04T12:05:09.999Z</time></trkpt><trkpt lat="41.20741533386673" lon="14.936690209056412"><ele>530.0</ele><time>2026-04-04T12:05:10.999Z</time></trkpt><trkpt lat="41.20760312432496" lon="14.936917482003755"><ele>530.0</ele><time>2026-04-04T12:05:11.999Z</time></trkpt><trkpt lat="41.20778373387135" lon="14.937141499091828"><ele>530.0</ele><time>2026-04-04T12:05:12.999Z</time></trkpt><trkpt lat="41.20795588438721" lon="14.937362591375125"><ele>530.0</ele><time>2026-04-04T12:05:13.999Z</time></trkpt><trkpt lat="41.20811580815271" lon="14.937604745002366"><ele>530.0</ele><time>2026-04-04T12:05:14.999Z</time></trkpt><trkpt lat="41.208248331095035" lon="14.937886125331836"><ele>531.5</ele><time>2026-04-04T12:05:15.999Z</time></trkpt><trkpt lat="41.20836613359656" lon="14.938188100555868"><ele>533.0</ele><time>2026-04-04T12:05:16.998Z</time></trkpt><trkpt lat="41.208479810544745" lon="14.938485112119753"><ele>533.0</ele><time>2026-04-04T12:05:17.998Z</time></trkpt><trkpt lat="41.20858900885267" lon="14.938753970865212"><ele>533.0</ele><time>2026-04-04T12:05:18.998Z</time></trkpt><trkpt lat="41.208691511952544" lon="14.938994180545624"><ele>533.0</ele><time>2026-04-04T12:05:19.998Z</time></trkpt><trkpt lat="41.20879052279574" lon="14.9392275148565"><ele>532.3333333333333</ele><time>2026-04-04T12:05:20.998Z</time></trkpt><trkpt lat="41.20888292781851" lon="14.939435311782741"><ele>531.6666666666666</ele><time>2026-04-04T12:05:21.998Z</time></trkpt><trkpt lat="41.208984169647515" lon="14.939636742595047"><ele>531.0</ele><time>2026-04-04T12:05:22.998Z</time></trkpt><trkpt lat="41.20911889099924" lon="14.939812812528599"><ele>531.0</ele><time>2026-04-04T12:05:23.998Z</time></trkpt><trkpt lat="41.209289179449016" lon="14.939954599568706"><ele>531.0</ele><time>2026-04-04T12:05:24.998Z</time></trkpt><trkpt lat="41.20949890728695" lon="14.940054293026678"><ele>531.0</ele><time>2026-04-04T12:05:26.001Z</time></trkpt><trkpt lat="41.20971833124775" lon="14.94012167092658"><ele>526.5</ele><time>2026-04-04T12:05:27.001Z</time></trkpt><trkpt lat="41.209950019801916" lon="14.940186237234343"><ele>522.0</ele><time>2026-04-04T12:05:28Z</time></trkpt><trkpt lat="41.21018135505553" lon="14.940276860015803"><ele>522.0</ele><time>2026-04-04T12:05:29.001Z</time></trkpt><trkpt lat="41.210411804717864" lon="14.940386546782884"><ele>522.0</ele><time>2026-04-04T12:05:30.001Z</time></trkpt><trkpt lat="41.2106528976004" lon="14.940475038442951"><ele>523.0</ele><time>2026-04-04T12:05:31Z</time></trkpt><trkpt lat="41.210896488897376" lon="14.9405360781059"><ele>524.0</ele><time>2026-04-04T12:05:32Z</time></trkpt><trkpt lat="41.21114598280899" lon="14.940565897876375"><ele>524.0</ele><time>2026-04-04T12:05:33Z</time></trkpt><trkpt lat="41.211370966392465" lon="14.940575508280457"><ele>524.0</ele><time>2026-04-04T12:05:34Z</time></trkpt><trkpt lat="41.211593177739175" lon="14.940622275259695"><ele>523.6666666666666</ele><time>2026-04-04T12:05:35Z</time></trkpt><trkpt lat="41.2117896595453" lon="14.94068936878672"><ele>523.3333333333334</ele><time>2026-04-04T12:05:36Z</time></trkpt><trkpt lat="41.21197557709607" lon="14.940792224376628"><ele>523.0</ele><time>2026-04-04T12:05:37Z</time></trkpt><trkpt lat="41.21214714331943" lon="14.940907098934522"><ele>520.3333333333334</ele><time>2026-04-04T12:05:38Z</time></trkpt><trkpt lat="41.21230287040221" lon="14.941013079030174"><ele>517.6666666666666</ele><time>2026-04-04T12:05:39Z</time></trkpt><trkpt lat="41.21246243927141" lon="14.941099102146037"><ele>515.0</ele><time>2026-04-04T12:05:40Z</time></trkpt><trkpt lat="41.21263599307466" lon="14.941141894409846"><ele>515.0</ele><time>2026-04-04T12:05:41Z</time></trkpt><trkpt lat="41.21281302630938" lon="14.941127228703925"><ele>515.0</ele><time>2026-04-04T12:05:42Z</time></trkpt><trkpt lat="41.2129710391625" lon="14.941020127809441"><ele>515.0</ele><time>2026-04-04T12:05:43Z</time></trkpt><trkpt lat="41.213139008283356" lon="14.940874651263707"><ele>515.3333333333333</ele><time>2026-04-04T12:05:44Z</time></trkpt><trkpt lat="41.2132927218615" lon="14.940692124247033"><ele>515.6666666666666</ele><time>2026-04-04T12:05:45Z</time></trkpt><trkpt lat="41.21344233797566" lon="14.940496976045003"><ele>516.0</ele><time>2026-04-04T12:05:46Z</time></trkpt><trkpt lat="41.21360411465036" lon="14.940329020156806"><ele>516.0</ele><time>2026-04-04T12:05:47Z</time></trkpt><trkpt lat="41.2137837487086" lon="14.940216116938812"><ele>516.0</ele><time>2026-04-04T12:05:48Z</time></trkpt><trkpt lat="41.21399003074659" lon="14.940153685967918"><ele>516.0</ele><time>2026-04-04T12:05:49Z</time></trkpt><trkpt lat="41.214198297750734" lon="14.940125790792793"><ele>516.3333333333334</ele><time>2026-04-04T12:05:50Z</time></trkpt><trkpt lat="41.21440420256409" lon="14.940107773266663"><ele>516.6666666666667</ele><time>2026-04-04T12:05:51Z</time></trkpt><trkpt lat="41.21460595990295" lon="14.9400588170728"><ele>517.0</ele><time>2026-04-04T12:05:52Z</time></trkpt><trkpt lat="41.21478903699873" lon="14.939981215791784"><ele>515.0</ele><time>2026-04-04T12:05:53Z</time></trkpt><trkpt lat="41.21495098600736" lon="14.939875269758922"><ele>513.0</ele><time>2026-04-04T12:05:54Z</time></trkpt><trkpt lat="41.21509538441457" lon="14.939761228728543"><ele>511.0</ele><time>2026-04-04T12:05:55Z</time></trkpt><trkpt lat="41.21524744086798" lon="14.939687619674773"><ele>511.0</ele><time>2026-04-04T12:05:56Z</time></trkpt><trkpt lat="41.215423022677804" lon="14.939674089883107"><ele>511.0</ele><time>2026-04-04T12:05:57Z</time></trkpt><trkpt lat="41.215605359714395" lon="14.93971556187015"><ele>511.0</ele><time>2026-04-04T12:05:58Z</time></trkpt><trkpt lat="41.21579108440411" lon="14.93976558201796"><ele>510.0</ele><time>2026-04-04T12:05:59Z</time></trkpt><trkpt lat="41.21596864304821" lon="14.939786095436519"><ele>509.0</ele><time>2026-04-04T12:06:00Z</time></trkpt><trkpt lat="41.216131430565454" lon="14.939768538478154"><ele>508.0</ele><time>2026-04-04T12:06:01Z</time></trkpt><trkpt lat="41.21628492722895" lon="14.939695593034116"><ele>508.0</ele><time>2026-04-04T12:06:02Z</time></trkpt><trkpt lat="41.21643561208999" lon="14.939561516164513"><ele>508.0</ele><time>2026-04-04T12:06:03Z</time></trkpt><trkpt lat="41.216567814621165" lon="14.939390634006193"><ele>508.0</ele><time>2026-04-04T12:06:04Z</time></trkpt><trkpt lat="41.21669229888998" lon="14.939196470339184"><ele>507.33333333333337</ele><time>2026-04-04T12:06:05Z</time></trkpt><trkpt lat="41.216816348484215" lon="14.939003776439268"><ele>506.66666666666663</ele><time>2026-04-04T12:06:06Z</time></trkpt><trkpt lat="41.216939667178835" lon="14.938836999132398"><ele>506.0</ele><time>2026-04-04T12:06:07Z</time></trkpt><trkpt lat="41.217086237536456" lon="14.938689749341082"><ele>506.0</ele><time>2026-04-04T12:06:08Z</time></trkpt><trkpt lat="41.21725531780174" lon="14.938581898536968"><ele>506.0</ele><time>2026-04-04T12:06:09Z</time></trkpt><trkpt lat="41.2174506678678" lon="14.938512567422395"><ele>506.0</ele><time>2026-04-04T12:06:10Z</time></trkpt><trkpt lat="41.21764951309868" lon="14.93845855202742"><ele>504.0</ele><time>2026-04-04T12:06:11Z</time></trkpt><trkpt lat="41.217843296897726" lon="14.938399796845507"><ele>502.0</ele><time>2026-04-04T12:06:12Z</time></trkpt><trkpt lat="41.21802342702902" lon="14.938346145989529"><ele>500.0</ele><time>2026-04-04T12:06:13Z</time></trkpt><trkpt lat="41.21819082094599" lon="14.938297020058164"><ele>500.0</ele><time>2026-04-04T12:06:14Z</time></trkpt><trkpt lat="41.21834990610373" lon="14.93826374522108"><ele>500.0</ele><time>2026-04-04T12:06:15Z</time></trkpt><trkpt lat="41.218517761456454" lon="14.938274170229931"><ele>500.0</ele><time>2026-04-04T12:06:16Z</time></trkpt><trkpt lat="41.21868702797122" lon="14.938341936507111"><ele>499.66666666666663</ele><time>2026-04-04T12:06:17Z</time></trkpt><trkpt lat="41.2188518587316" lon="14.938450103918186"><ele>499.33333333333337</ele><time>2026-04-04T12:06:18Z</time></trkpt><trkpt lat="41.2189965112783" lon="14.938573096648078"><ele>499.0</ele><time>2026-04-04T12:06:18.999Z</time></trkpt><trkpt lat="41.21911343756498" lon="14.938703433506234"><ele>500.33333333333337</ele><time>2026-04-04T12:06:19.999Z</time></trkpt><trkpt lat="41.21919925014106" lon="14.938871473003143"><ele>501.66666666666663</ele><time>2026-04-04T12:06:20.999Z</time></trkpt><trkpt lat="41.21921668400681" lon="14.93910801248924"><ele>503.0</ele><time>2026-04-04T12:06:21.999Z</time></trkpt><trkpt lat="41.21921297496544" lon="14.939355190683248"><ele>502.66666666666663</ele><time>2026-04-04T12:06:22.999Z</time></trkpt><trkpt lat="41.21917641519982" lon="14.939595323815505"><ele>502.33333333333337</ele><time>2026-04-04T12:06:23.999Z</time></trkpt><trkpt lat="41.219085431991076" lon="14.939815481787976"><ele>502.0</ele><time>2026-04-04T12:06:24.999Z</time></trkpt><trkpt lat="41.21894480233551" lon="14.940010572125502"><ele>506.0</ele><time>2026-04-04T12:06:25.999Z</time></trkpt><trkpt lat="41.21878774617324" lon="14.94023030720678"><ele>510.0</ele><time>2026-04-04T12:06:26.999Z</time></trkpt><trkpt lat="41.21862467068373" lon="14.940457378655337"><ele>510.0</ele><time>2026-04-04T12:06:27.999Z</time></trkpt><trkpt lat="41.2184611131684" lon="14.940679133068116"><ele>510.0</ele><time>2026-04-04T12:06:28.999Z</time></trkpt><trkpt lat="41.21834258697015" lon="14.940812496649137"><ele>510.0</ele><time>2026-04-04T12:06:29.999Z</time></trkpt><trkpt lat="41.21815792991273" lon="14.940973848244312"><ele>510.0</ele><time>2026-04-04T12:06:30.999Z</time></trkpt><trkpt lat="41.217967796602935" lon="14.941129509432702"><ele>510.0</ele><time>2026-04-04T12:06:31.999Z</time></trkpt><trkpt lat="41.217807905711034" lon="14.941279532231002"><ele>510.0</ele><time>2026-04-04T12:06:32.999Z</time></trkpt><trkpt lat="41.21767962911913" lon="14.941447070623866"><ele>510.0</ele><time>2026-04-04T12:06:33.999Z</time></trkpt><trkpt lat="41.21758746409322" lon="14.941608122562684"><ele>510.0</ele><time>2026-04-04T12:06:34.999Z</time></trkpt><trkpt lat="41.217529605858196" lon="14.941815254162384"><ele>510.0</ele><time>2026-04-04T12:06:35.999Z</time></trkpt><trkpt lat="41.21751981520825" lon="14.942053358790234"><ele>510.66666666666663</ele><time>2026-04-04T12:06:36.999Z</time></trkpt><trkpt lat="41.21756598031397" lon="14.942295867292508"><ele>511.3333333333333</ele><time>2026-04-04T12:06:37.999Z</time></trkpt><trkpt lat="41.21765581402985" lon="14.942539757922068"><ele>512.0</ele><time>2026-04-04T12:06:38.999Z</time></trkpt><trkpt lat="41.217759105591504" lon="14.942758423830286"><ele>513.25</ele><time>2026-04-04T12:06:39.999Z</time></trkpt><trkpt lat="41.217835212175174" lon="14.94293916907039"><ele>514.5</ele><time>2026-04-04T12:06:40.999Z</time></trkpt><trkpt lat="41.217833478991096" lon="14.943138455985203"><ele>515.75</ele><time>2026-04-04T12:06:41.999Z</time></trkpt><trkpt lat="41.21777866949526" lon="14.943305540913261"><ele>517.0</ele><time>2026-04-04T12:06:42.999Z</time></trkpt><trkpt lat="41.2176726253493" lon="14.943395447314304"><ele>517.0</ele><time>2026-04-04T12:06:43.999Z</time></trkpt><trkpt lat="41.217549697694814" lon="14.943466357528125"><ele>517.0</ele><time>2026-04-04T12:06:44.999Z</time></trkpt><trkpt lat="41.21738462522532" lon="14.943543420261738"><ele>517.0</ele><time>2026-04-04T12:06:45.999Z</time></trkpt><trkpt lat="41.217212350268746" lon="14.943651534372162"><ele>517.0</ele><time>2026-04-04T12:06:46.999Z</time></trkpt><trkpt lat="41.2170805038262" lon="14.943820464802377"><ele>517.0</ele><time>2026-04-04T12:06:47.999Z</time></trkpt><trkpt lat="41.21695494537862" lon="14.94401507163642"><ele>517.0</ele><time>2026-04-04T12:06:48.999Z</time></trkpt><trkpt lat="41.21686246007846" lon="14.944215815533417"><ele>517.6666666666667</ele><time>2026-04-04T12:06:49.999Z</time></trkpt><trkpt lat="41.21680857850196" lon="14.944432051443158"><ele>518.3333333333334</ele><time>2026-04-04T12:06:50.999Z</time></trkpt><trkpt lat="41.2168358019144" lon="14.944696921167552"><ele>519.0</ele><time>2026-04-04T12:06:51.999Z</time></trkpt><trkpt lat="41.21689324155545" lon="14.944936655400353"><ele>517.3333333333334</ele><time>2026-04-04T12:06:52.999Z</time></trkpt><trkpt lat="41.21700202683661" lon="14.945167769064566"><ele>515.6666666666667</ele><time>2026-04-04T12:06:53.999Z</time></trkpt><trkpt lat="41.217146478003734" lon="14.945387295418712"><ele>514.0</ele><time>2026-04-04T12:06:54.999Z</time></trkpt><trkpt lat="41.21727438870411" lon="14.945608701935157"><ele>519.0</ele><time>2026-04-04T12:06:55.999Z</time></trkpt><trkpt lat="41.217375976852466" lon="14.94580348838685"><ele>524.0</ele><time>2026-04-04T12:06:56.999Z</time></trkpt><trkpt lat="41.21744426921484" lon="14.946017762052469"><ele>529.0</ele><time>2026-04-04T12:06:57.999Z</time></trkpt><trkpt lat="41.21744784343365" lon="14.946268964355474"><ele>529.6666666666667</ele><time>2026-04-04T12:06:58.999Z</time></trkpt><trkpt lat="41.21741488784709" lon="14.946536998724008"><ele>530.3333333333334</ele><time>2026-04-04T12:06:59.999Z</time></trkpt><trkpt lat="41.21736323956596" lon="14.946789512312318"><ele>531.0</ele><time>2026-04-04T12:07:00.999Z</time></trkpt><trkpt lat="41.217284123294334" lon="14.947004903405958"><ele>529.6666666666666</ele><time>2026-04-04T12:07:01.999Z</time></trkpt><trkpt lat="41.21721815136582" lon="14.947206661190437"><ele>528.3333333333333</ele><time>2026-04-04T12:07:02.999Z</time></trkpt><trkpt lat="41.21713156845038" lon="14.947381929694016"><ele>527.0</ele><time>2026-04-04T12:07:03.999Z</time></trkpt><trkpt lat="41.21705986538618" lon="14.947547412998928"><ele>527.0</ele><time>2026-04-04T12:07:04.999Z</time></trkpt><trkpt lat="41.216997170543294" lon="14.947695811175164"><ele>527.0</ele><time>2026-04-04T12:07:05.999Z</time></trkpt><trkpt lat="41.216953009969245" lon="14.947847669825451"><ele>527.0</ele><time>2026-04-04T12:07:06.999Z</time></trkpt><trkpt lat="41.216943615371136" lon="14.948023761114515"><ele>527.0</ele><time>2026-04-04T12:07:07.999Z</time></trkpt><trkpt lat="41.216969983311934" lon="14.94822137253061"><ele>526.6666666666666</ele><time>2026-04-04T12:07:08.999Z</time></trkpt><trkpt lat="41.2170163992268" lon="14.948420621955917"><ele>526.3333333333334</ele><time>2026-04-04T12:07:09.999Z</time></trkpt><trkpt lat="41.21705759434994" lon="14.948628543423775"><ele>526.0</ele><time>2026-04-04T12:07:10.999Z</time></trkpt><trkpt lat="41.21710841470103" lon="14.948823988673897"><ele>526.0</ele><time>2026-04-04T12:07:11.999Z</time></trkpt><trkpt lat="41.21714663600851" lon="14.94902528713119"><ele>526.0</ele><time>2026-04-04T12:07:12.999Z</time></trkpt><trkpt lat="41.21717107321016" lon="14.949233844367297"><ele>526.0</ele><time>2026-04-04T12:07:13.998Z</time></trkpt><trkpt lat="41.21717938337409" lon="14.949448917959758"><ele>526.6666666666667</ele><time>2026-04-04T12:07:14.998Z</time></trkpt><trkpt lat="41.21718592847074" lon="14.94965939433094"><ele>527.3333333333334</ele><time>2026-04-04T12:07:15.998Z</time></trkpt><trkpt lat="41.21719067410549" lon="14.949877774182232"><ele>528.0</ele><time>2026-04-04T12:07:16.998Z</time></trkpt><trkpt lat="41.2171903417199" lon="14.95010471096062"><ele>528.6666666666666</ele><time>2026-04-04T12:07:17.998Z</time></trkpt><trkpt lat="41.2171803213824" lon="14.95032403873607"><ele>529.3333333333333</ele><time>2026-04-04T12:07:18.998Z</time></trkpt><trkpt lat="41.21713477993818" lon="14.9505409756837"><ele>530.0</ele><time>2026-04-04T12:07:19.998Z</time></trkpt><trkpt lat="41.2170569104648" lon="14.95074272991667"><ele>532.6666666666666</ele><time>2026-04-04T12:07:20.998Z</time></trkpt><trkpt lat="41.216991603736794" lon="14.950952262510604"><ele>535.3333333333334</ele><time>2026-04-04T12:07:21.998Z</time></trkpt><trkpt lat="41.21691878135266" lon="14.951134827257738"><ele>538.0</ele><time>2026-04-04T12:07:22.998Z</time></trkpt><trkpt lat="41.216869119482446" lon="14.951304771360242"><ele>538.0</ele><time>2026-04-04T12:07:23.998Z</time></trkpt><trkpt lat="41.216842105321305" lon="14.951466695211742"><ele>538.0</ele><time>2026-04-04T12:07:24.998Z</time></trkpt><trkpt lat="41.21683781659336" lon="14.951619053662766"><ele>538.0</ele><time>2026-04-04T12:07:25.998Z</time></trkpt><trkpt lat="41.216838919354736" lon="14.95176896083104"><ele>538.0</ele><time>2026-04-04T12:07:26.998Z</time></trkpt><trkpt lat="41.21680293127933" lon="14.951914288176138"><ele>538.75</ele><time>2026-04-04T12:07:27.998Z</time></trkpt><trkpt lat="41.21675480454417" lon="14.95206509703594"><ele>539.5</ele><time>2026-04-04T12:07:28.998Z</time></trkpt><trkpt lat="41.21666107198387" lon="14.952203012958195"><ele>540.25</ele><time>2026-04-04T12:07:29.998Z</time></trkpt><trkpt lat="41.216529592201" lon="14.952299736306422"><ele>541.0</ele><time>2026-04-04T12:07:30.998Z</time></trkpt><trkpt lat="41.21640344273843" lon="14.952420256201332"><ele>541.0</ele><time>2026-04-04T12:07:32.001Z</time></trkpt><trkpt lat="41.21625938305626" lon="14.952513366675605"><ele>541.0</ele><time>2026-04-04T12:07:33.001Z</time></trkpt><trkpt lat="41.2161286017986" lon="14.952601545238828"><ele>541.0</ele><time>2026-04-04T12:07:34.001Z</time></trkpt><trkpt lat="41.21601066661501" lon="14.952688739711517"><ele>541.0</ele><time>2026-04-04T12:07:35.001Z</time></trkpt><trkpt lat="41.21589622632837" lon="14.95277537949607"><ele>540.75</ele><time>2026-04-04T12:07:36.001Z</time></trkpt><trkpt lat="41.21579250016553" lon="14.952857553368382"><ele>540.5</ele><time>2026-04-04T12:07:37.001Z</time></trkpt><trkpt lat="41.215699564655765" lon="14.952964437000238"><ele>540.25</ele><time>2026-04-04T12:07:38.001Z</time></trkpt><trkpt lat="41.21564172271002" lon="14.953106439911242"><ele>540.0</ele><time>2026-04-04T12:07:39.001Z</time></trkpt><trkpt lat="41.215637801275946" lon="14.953283903279944"><ele>540.5</ele><time>2026-04-04T12:07:40.001Z</time></trkpt><trkpt lat="41.21567444050686" lon="14.953458297391718"><ele>541.0</ele><time>2026-04-04T12:07:41.001Z</time></trkpt><trkpt lat="41.21576143370338" lon="14.953617116595574"><ele>541.5</ele><time>2026-04-04T12:07:42.001Z</time></trkpt><trkpt lat="41.215842631528325" lon="14.953769028159662"><ele>542.0</ele><time>2026-04-04T12:07:43Z</time></trkpt><trkpt lat="41.21593209410698" lon="14.953904325933612"><ele>542.0</ele><time>2026-04-04T12:07:44Z</time></trkpt><trkpt lat="41.21604439328581" lon="14.954028661338613"><ele>542.0</ele><time>2026-04-04T12:07:45Z</time></trkpt><trkpt lat="41.216191095574025" lon="14.95417153348111"><ele>542.0</ele><time>2026-04-04T12:07:46Z</time></trkpt><trkpt lat="41.21639663393213" lon="14.954330973492203"><ele>542.0</ele><time>2026-04-04T12:07:47Z</time></trkpt><trkpt lat="41.21662934613905" lon="14.954442052908279"><ele>542.0</ele><time>2026-04-04T12:07:48Z</time></trkpt><trkpt lat="41.216833661216214" lon="14.954623617741289"><ele>542.0</ele><time>2026-04-04T12:07:49Z</time></trkpt><trkpt lat="41.217069855261435" lon="14.954811680956754"><ele>542.0</ele><time>2026-04-04T12:07:50Z</time></trkpt><trkpt lat="41.217265991497776" lon="14.954981129836908"><ele>541.5</ele><time>2026-04-04T12:07:51Z</time></trkpt><trkpt lat="41.217487252878804" lon="14.955151302555274"><ele>541.0</ele><time>2026-04-04T12:07:52Z</time></trkpt><trkpt lat="41.21770520921986" lon="14.955316594140713"><ele>541.0</ele><time>2026-04-04T12:07:53Z</time></trkpt><trkpt lat="41.21789676770756" lon="14.955505681701034"><ele>541.0</ele><time>2026-04-04T12:07:54Z</time></trkpt><trkpt lat="41.21807554287616" lon="14.955672140524399"><ele>541.3333333333334</ele><time>2026-04-04T12:07:55Z</time></trkpt><trkpt lat="41.21825123753938" lon="14.955836050345365"><ele>541.6666666666666</ele><time>2026-04-04T12:07:56Z</time></trkpt><trkpt lat="41.21842849878189" lon="14.956006031671805"><ele>542.0</ele><time>2026-04-04T12:07:57Z</time></trkpt><trkpt lat="41.218595621912264" lon="14.95619774232744"><ele>542.0</ele><time>2026-04-04T12:07:58Z</time></trkpt><trkpt lat="41.21874236090349" lon="14.956414584718479"><ele>542.0</ele><time>2026-04-04T12:07:59Z</time></trkpt><trkpt lat="41.21888622433577" lon="14.956665709739132"><ele>542.5</ele><time>2026-04-04T12:08:00Z</time></trkpt><trkpt lat="41.21901968177375" lon="14.956923934793373"><ele>543.0</ele><time>2026-04-04T12:08:01Z</time></trkpt><trkpt lat="41.219141497492345" lon="14.95719681493684"><ele>543.0</ele><time>2026-04-04T12:08:02Z</time></trkpt><trkpt lat="41.219244053231854" lon="14.957474426965932"><ele>543.0</ele><time>2026-04-04T12:08:03Z</time></trkpt><trkpt lat="41.2193421178443" lon="14.957742015478196"><ele>541.0</ele><time>2026-04-04T12:08:04Z</time></trkpt><trkpt lat="41.21943836760039" lon="14.957975181708148"><ele>539.0</ele><time>2026-04-04T12:08:05Z</time></trkpt><trkpt lat="41.2195179050019" lon="14.958187612019083"><ele>537.0</ele><time>2026-04-04T12:08:06Z</time></trkpt><trkpt lat="41.219599141885" lon="14.958365331477065"><ele>537.0</ele><time>2026-04-04T12:08:07Z</time></trkpt><trkpt lat="41.219689309718376" lon="14.958514027016626"><ele>537.0</ele><time>2026-04-04T12:08:08Z</time></trkpt><trkpt lat="41.21981281248697" lon="14.958624829107894"><ele>537.0</ele><time>2026-04-04T12:08:09Z</time></trkpt><trkpt lat="41.21996836472346" lon="14.958692294203182"><ele>537.0</ele><time>2026-04-04T12:08:10Z</time></trkpt><trkpt lat="41.22013498011483" lon="14.958779114661642"><ele>537.0</ele><time>2026-04-04T12:08:11Z</time></trkpt><trkpt lat="41.22030163303698" lon="14.958868523563199"><ele>537.0</ele><time>2026-04-04T12:08:12Z</time></trkpt><trkpt lat="41.22046476834474" lon="14.958968366680073"><ele>537.0</ele><time>2026-04-04T12:08:13Z</time></trkpt><trkpt lat="41.220610773667566" lon="14.959100817402236"><ele>537.0</ele><time>2026-04-04T12:08:14Z</time></trkpt><trkpt lat="41.22073089701032" lon="14.95925694205282"><ele>537.0</ele><time>2026-04-04T12:08:15Z</time></trkpt><trkpt lat="41.220832286234455" lon="14.959431357523373"><ele>538.0</ele><time>2026-04-04T12:08:16Z</time></trkpt><trkpt lat="41.22090828355267" lon="14.959610487149758"><ele>539.0</ele><time>2026-04-04T12:08:17Z</time></trkpt><trkpt lat="41.220928948458464" lon="14.959792751126281"><ele>540.0</ele><time>2026-04-04T12:08:18Z</time></trkpt><trkpt lat="41.22088829379823" lon="14.959970793443802"><ele>541.0</ele><time>2026-04-04T12:08:19Z</time></trkpt><trkpt lat="41.22078920590052" lon="14.96011208881303"><ele>541.0</ele><time>2026-04-04T12:08:20Z</time></trkpt><trkpt lat="41.22068065340648" lon="14.960292397860883"><ele>541.0</ele><time>2026-04-04T12:08:21Z</time></trkpt><trkpt lat="41.22058509254422" lon="14.96047206588924"><ele>541.0</ele><time>2026-04-04T12:08:21.999Z</time></trkpt><trkpt lat="41.22053863765725" lon="14.960643037847317"><ele>538.6666666666667</ele><time>2026-04-04T12:08:22.999Z</time></trkpt><trkpt lat="41.22054171782961" lon="14.960816326412385"><ele>536.3333333333334</ele><time>2026-04-04T12:08:23.999Z</time></trkpt><trkpt lat="41.22060670144792" lon="14.961003975273616"><ele>534.0</ele><time>2026-04-04T12:08:24.999Z</time></trkpt><trkpt lat="41.22071704181739" lon="14.961178429611795"><ele>534.0</ele><time>2026-04-04T12:08:25.999Z</time></trkpt><trkpt lat="41.22084472851455" lon="14.961361238882237"><ele>534.0</ele><time>2026-04-04T12:08:26.999Z</time></trkpt><trkpt lat="41.220977772096326" lon="14.961563311542582"><ele>534.0</ele><time>2026-04-04T12:08:27.999Z</time></trkpt><trkpt lat="41.22112473161306" lon="14.961745839751886"><ele>534.0</ele><time>2026-04-04T12:08:28.999Z</time></trkpt><trkpt lat="41.22131760538953" lon="14.961914212842128"><ele>534.0</ele><time>2026-04-04T12:08:29.999Z</time></trkpt><trkpt lat="41.221542426741046" lon="14.962066825950378"><ele>534.0</ele><time>2026-04-04T12:08:30.999Z</time></trkpt><trkpt lat="41.22174389513917" lon="14.962204740356412"><ele>534.0</ele><time>2026-04-04T12:08:31.999Z</time></trkpt><trkpt lat="41.22191939350599" lon="14.962328071685363"><ele>534.0</ele><time>2026-04-04T12:08:32.999Z</time></trkpt><trkpt lat="41.2220871271589" lon="14.962438911262364"><ele>534.0</ele><time>2026-04-04T12:08:33.999Z</time></trkpt><trkpt lat="41.22226461999631" lon="14.962508447460502"><ele>534.0</ele><time>2026-04-04T12:08:34.999Z</time></trkpt><trkpt lat="41.22245235383638" lon="14.962525720248987"><ele>534.0</ele><time>2026-04-04T12:08:35.999Z</time></trkpt><trkpt lat="41.22261738749087" lon="14.96249937289257"><ele>533.75</ele><time>2026-04-04T12:08:36.999Z</time></trkpt><trkpt lat="41.2227726564597" lon="14.962473224425201"><ele>533.5</ele><time>2026-04-04T12:08:37.999Z</time></trkpt><trkpt lat="41.22290683961488" lon="14.962472662367661"><ele>533.25</ele><time>2026-04-04T12:08:38.999Z</time></trkpt><trkpt lat="41.22302496821558" lon="14.962517741400857"><ele>533.0</ele><time>2026-04-04T12:08:39.999Z</time></trkpt><trkpt lat="41.22311126972566" lon="14.962652765915994"><ele>533.25</ele><time>2026-04-04T12:08:40.999Z</time></trkpt><trkpt lat="41.223152290177346" lon="14.962823213703418"><ele>533.5</ele><time>2026-04-04T12:08:41.999Z</time></trkpt><trkpt lat="41.223151477203125" lon="14.962983783191468"><ele>533.75</ele><time>2026-04-04T12:08:42.999Z</time></trkpt><trkpt lat="41.22310098536674" lon="14.963127878480611"><ele>534.0</ele><time>2026-04-04T12:08:43.999Z</time></trkpt><trkpt lat="41.22299894544565" lon="14.96326197132049"><ele>533.0</ele><time>2026-04-04T12:08:44.999Z</time></trkpt><trkpt lat="41.22285438223115" lon="14.963426562053478"><ele>532.0</ele><time>2026-04-04T12:08:45.999Z</time></trkpt><trkpt lat="41.2226946728107" lon="14.963607802241915"><ele>531.0</ele><time>2026-04-04T12:08:46.999Z</time></trkpt><trkpt lat="41.22256402034404" lon="14.963771235700916"><ele>531.0</ele><time>2026-04-04T12:08:47.999Z</time></trkpt><trkpt lat="41.222442388874065" lon="14.963880803906072"><ele>531.0</ele><time>2026-04-04T12:08:48.999Z</time></trkpt><trkpt lat="41.22234590942912" lon="14.963996342989278"><ele>531.0</ele><time>2026-04-04T12:08:49.999Z</time></trkpt><trkpt lat="41.222288052076244" lon="14.964151833599376"><ele>531.0</ele><time>2026-04-04T12:08:50.999Z</time></trkpt><trkpt lat="41.222289007166964" lon="14.964333884093312"><ele>530.6666666666666</ele><time>2026-04-04T12:08:51.999Z</time></trkpt><trkpt lat="41.22235028791159" lon="14.964540749396749"><ele>530.3333333333333</ele><time>2026-04-04T12:08:52.999Z</time></trkpt><trkpt lat="41.22245182473056" lon="14.964755873959579"><ele>530.0</ele><time>2026-04-04T12:08:53.999Z</time></trkpt><trkpt lat="41.222576118899084" lon="14.964996291940507"><ele>528.6666666666666</ele><time>2026-04-04T12:08:54.999Z</time></trkpt><trkpt lat="41.22269885059867" lon="14.965248094077664"><ele>527.3333333333334</ele><time>2026-04-04T12:08:55.999Z</time></trkpt><trkpt lat="41.22280855794243" lon="14.965497525327322"><ele>526.0</ele><time>2026-04-04T12:08:56.999Z</time></trkpt><trkpt lat="41.22293195608999" lon="14.965694853064663"><ele>526.0</ele><time>2026-04-04T12:08:57.999Z</time></trkpt><trkpt lat="41.22300490636525" lon="14.965944098477385"><ele>526.0</ele><time>2026-04-04T12:08:58.999Z</time></trkpt><trkpt lat="41.22305470735352" lon="14.966223836152857"><ele>526.0</ele><time>2026-04-04T12:08:59.999Z</time></trkpt><trkpt lat="41.223098861297935" lon="14.96650487637215"><ele>526.0</ele><time>2026-04-04T12:09:00.999Z</time></trkpt><trkpt lat="41.22313269464426" lon="14.96674066134769"><ele>526.0</ele><time>2026-04-04T12:09:01.999Z</time></trkpt><trkpt lat="41.22316022134523" lon="14.96695646139115"><ele>526.0</ele><time>2026-04-04T12:09:02.999Z</time></trkpt><trkpt lat="41.223184099580884" lon="14.967175801694461"><ele>527.6666666666667</ele><time>2026-04-04T12:09:03.999Z</time></trkpt><trkpt lat="41.22319639246592" lon="14.967393474209164"><ele>529.3333333333334</ele><time>2026-04-04T12:09:04.999Z</time></trkpt><trkpt lat="41.22318888338222" lon="14.967598052733253"><ele>531.0</ele><time>2026-04-04T12:09:05.999Z</time></trkpt><trkpt lat="41.22316076175615" lon="14.967808809819564"><ele>529.3333333333334</ele><time>2026-04-04T12:09:06.999Z</time></trkpt><trkpt lat="41.223135361579835" lon="14.968009649904948"><ele>527.6666666666667</ele><time>2026-04-04T12:09:07.999Z</time></trkpt><trkpt lat="41.22311567388826" lon="14.96819443479387"><ele>526.0</ele><time>2026-04-04T12:09:08.999Z</time></trkpt><trkpt lat="41.22309708465127" lon="14.968414519877841"><ele>526.0</ele><time>2026-04-04T12:09:09.999Z</time></trkpt><trkpt lat="41.22307655737948" lon="14.968671674688764"><ele>526.0</ele><time>2026-04-04T12:09:10.999Z</time></trkpt><trkpt lat="41.22305861307951" lon="14.968914063863004"><ele>526.0</ele><time>2026-04-04T12:09:11.998Z</time></trkpt><trkpt lat="41.223052815985696" lon="14.96911978627463"><ele>526.6666666666667</ele><time>2026-04-04T12:09:12.998Z</time></trkpt><trkpt lat="41.22298718805097" lon="14.969338168478902"><ele>527.3333333333334</ele><time>2026-04-04T12:09:13.998Z</time></trkpt><trkpt lat="41.22288812317631" lon="14.969567620827846"><ele>528.0</ele><time>2026-04-04T12:09:14.998Z</time></trkpt><trkpt lat="41.22276545979947" lon="14.969770683008168"><ele>528.0</ele><time>2026-04-04T12:09:15.998Z</time></trkpt><trkpt lat="41.22265591900704" lon="14.969937977633071"><ele>528.0</ele><time>2026-04-04T12:09:16.998Z</time></trkpt><trkpt lat="41.22253676289692" lon="14.970062607950345"><ele>528.0</ele><time>2026-04-04T12:09:17.998Z</time></trkpt><trkpt lat="41.22241180535235" lon="14.970183884242527"><ele>526.5</ele><time>2026-04-04T12:09:18.998Z</time></trkpt><trkpt lat="41.22227891707886" lon="14.970276021193866"><ele>525.0</ele><time>2026-04-04T12:09:19.998Z</time></trkpt><trkpt lat="41.22216809159333" lon="14.970391873258476"><ele>523.5</ele><time>2026-04-04T12:09:20.998Z</time></trkpt><trkpt lat="41.22205921177521" lon="14.970531359537068"><ele>522.0</ele><time>2026-04-04T12:09:21.998Z</time></trkpt><trkpt lat="41.221989202609336" lon="14.970738597966132"><ele>522.6666666666666</ele><time>2026-04-04T12:09:22.998Z</time></trkpt><trkpt lat="41.22194170530526" lon="14.970963936202269"><ele>523.3333333333333</ele><time>2026-04-04T12:09:23.998Z</time></trkpt><trkpt lat="41.221908776987455" lon="14.971188920088498"><ele>524.0</ele><time>2026-04-04T12:09:24.998Z</time></trkpt><trkpt lat="41.221887469547404" lon="14.971428430906881"><ele>524.0</ele><time>2026-04-04T12:09:25.998Z</time></trkpt><trkpt lat="41.2219013106966" lon="14.971657717978704"><ele>524.0</ele><time>2026-04-04T12:09:26.998Z</time></trkpt><trkpt lat="41.221898006340915" lon="14.971888982418005"><ele>524.0</ele><time>2026-04-04T12:09:27.998Z</time></trkpt><trkpt lat="41.22192159279804" lon="14.972124970263474"><ele>523.6666666666666</ele><time>2026-04-04T12:09:28.998Z</time></trkpt><trkpt lat="41.22196434090855" lon="14.972361832092918"><ele>523.3333333333334</ele><time>2026-04-04T12:09:29.998Z</time></trkpt><trkpt lat="41.222008420579144" lon="14.97257947239791"><ele>523.0</ele><time>2026-04-04T12:09:30.998Z</time></trkpt><trkpt lat="41.22207233146249" lon="14.972822198493356"><ele>523.0</ele><time>2026-04-04T12:09:31.998Z</time></trkpt><trkpt lat="41.22212246246897" lon="14.973063697500823"><ele>523.0</ele><time>2026-04-04T12:09:32.998Z</time></trkpt><trkpt lat="41.22215338681617" lon="14.97329677728749"><ele>523.0</ele><time>2026-04-04T12:09:33.998Z</time></trkpt><trkpt lat="41.222204765065854" lon="14.973544873843728"><ele>522.3333333333334</ele><time>2026-04-04T12:09:34.998Z</time></trkpt><trkpt lat="41.22226117875002" lon="14.973757011636991"><ele>521.6666666666666</ele><time>2026-04-04T12:09:35.998Z</time></trkpt><trkpt lat="41.22228674562672" lon="14.973973212770394"><ele>521.0</ele><time>2026-04-04T12:09:36.998Z</time></trkpt><trkpt lat="41.222321378646726" lon="14.974161990450163"><ele>524.6666666666666</ele><time>2026-04-04T12:09:38Z</time></trkpt><trkpt lat="41.222353416011856" lon="14.974352911211394"><ele>528.3333333333334</ele><time>2026-04-04T12:09:39Z</time></trkpt><trkpt lat="41.222359449244344" lon="14.974555024544127"><ele>532.0</ele><time>2026-04-04T12:09:40Z</time></trkpt><trkpt lat="41.22231029318919" lon="14.974757776971991"><ele>532.0</ele><time>2026-04-04T12:09:41Z</time></trkpt><trkpt lat="41.22220781581232" lon="14.974917651228044"><ele>532.0</ele><time>2026-04-04T12:09:42Z</time></trkpt><trkpt lat="41.22209871627032" lon="14.97505761909735"><ele>532.0</ele><time>2026-04-04T12:09:43Z</time></trkpt><trkpt lat="41.22194187718263" lon="14.975143814276983"><ele>530.6666666666667</ele><time>2026-04-04T12:09:44Z</time></trkpt><trkpt lat="41.2217801652219" lon="14.975169238740339"><ele>529.3333333333334</ele><time>2026-04-04T12:09:45Z</time></trkpt><trkpt lat="41.22162117769726" lon="14.975143520141847"><ele>528.0</ele><time>2026-04-04T12:09:46Z</time></trkpt><trkpt lat="41.22145512260885" lon="14.975055046200843"><ele>527.3333333333334</ele><time>2026-04-04T12:09:47Z</time></trkpt><trkpt lat="41.22127982834278" lon="14.974925805948228"><ele>526.6666666666667</ele><time>2026-04-04T12:09:48Z</time></trkpt><trkpt lat="41.2211122887655" lon="14.974787265966494"><ele>526.0</ele><time>2026-04-04T12:09:49Z</time></trkpt><trkpt lat="41.220958846033" lon="14.9746506345588"><ele>526.0</ele><time>2026-04-04T12:09:50Z</time></trkpt><trkpt lat="41.22081514978966" lon="14.974511470535093"><ele>526.0</ele><time>2026-04-04T12:09:51Z</time></trkpt><trkpt lat="41.22067281142353" lon="14.974390959386387"><ele>526.0</ele><time>2026-04-04T12:09:52Z</time></trkpt><trkpt lat="41.220528577413724" lon="14.974293029338652"><ele>523.5</ele><time>2026-04-04T12:09:53Z</time></trkpt><trkpt lat="41.22038807773524" lon="14.974231431432246"><ele>521.0</ele><time>2026-04-04T12:09:54Z</time></trkpt><trkpt lat="41.22025173861817" lon="14.97419367773538"><ele>518.5</ele><time>2026-04-04T12:09:55Z</time></trkpt><trkpt lat="41.220114527348095" lon="14.974189252270719"><ele>516.0</ele><time>2026-04-04T12:09:56Z</time></trkpt><trkpt lat="41.219980004869115" lon="14.974278402561307"><ele>516.0</ele><time>2026-04-04T12:09:57Z</time></trkpt><trkpt lat="41.21988386057801" lon="14.97444562485304"><ele>516.0</ele><time>2026-04-04T12:09:58Z</time></trkpt><trkpt lat="41.21982812147695" lon="14.974669390786373"><ele>516.0</ele><time>2026-04-04T12:09:59Z</time></trkpt><trkpt lat="41.21980809876483" lon="14.97491146075242"><ele>514.6666666666666</ele><time>2026-04-04T12:10:00Z</time></trkpt><trkpt lat="41.219826014839825" lon="14.975178027625201"><ele>513.3333333333333</ele><time>2026-04-04T12:10:01Z</time></trkpt><trkpt lat="41.21986259027476" lon="14.975434436343571"><ele>512.0</ele><time>2026-04-04T12:10:02Z</time></trkpt><trkpt lat="41.21992335118295" lon="14.97568342104184"><ele>509.3333333333333</ele><time>2026-04-04T12:10:03Z</time></trkpt><trkpt lat="41.21999353934941" lon="14.97591131155635"><ele>506.66666666666663</ele><time>2026-04-04T12:10:04Z</time></trkpt><trkpt lat="41.22007095672453" lon="14.97613564751064"><ele>504.0</ele><time>2026-04-04T12:10:05Z</time></trkpt><trkpt lat="41.22014494848008" lon="14.976363612730546"><ele>504.0</ele><time>2026-04-04T12:10:06Z</time></trkpt><trkpt lat="41.22023400255882" lon="14.976582351310995"><ele>504.0</ele><time>2026-04-04T12:10:07Z</time></trkpt><trkpt lat="41.22032357706075" lon="14.976795726743891"><ele>504.0</ele><time>2026-04-04T12:10:08Z</time></trkpt><trkpt lat="41.22041327569546" lon="14.977007488711848"><ele>500.66666666666663</ele><time>2026-04-04T12:10:09Z</time></trkpt><trkpt lat="41.22049577310755" lon="14.977211420112301"><ele>497.3333333333333</ele><time>2026-04-04T12:10:10Z</time></trkpt><trkpt lat="41.22054994960115" lon="14.977415471317663"><ele>494.0</ele><time>2026-04-04T12:10:11Z</time></trkpt><trkpt lat="41.22061394977855" lon="14.977611067349736"><ele>496.25</ele><time>2026-04-04T12:10:12Z</time></trkpt><trkpt lat="41.220661155776554" lon="14.977798473518614"><ele>498.5</ele><time>2026-04-04T12:10:13Z</time></trkpt><trkpt lat="41.2207014335528" lon="14.977989210925449"><ele>500.75</ele><time>2026-04-04T12:10:14Z</time></trkpt><trkpt lat="41.22073171237916" lon="14.978168985343498"><ele>503.0</ele><time>2026-04-04T12:10:15Z</time></trkpt><trkpt lat="41.22074964630403" lon="14.9783477345302"><ele>500.5</ele><time>2026-04-04T12:10:16Z</time></trkpt><trkpt lat="41.22075565501592" lon="14.978533004684262"><ele>498.0</ele><time>2026-04-04T12:10:17Z</time></trkpt><trkpt lat="41.22076328031039" lon="14.978724276525499"><ele>495.5</ele><time>2026-04-04T12:10:18Z</time></trkpt><trkpt lat="41.22077214015125" lon="14.978931641943214"><ele>493.0</ele><time>2026-04-04T12:10:19Z</time></trkpt><trkpt lat="41.22077589922895" lon="14.979148117060332"><ele>492.0</ele><time>2026-04-04T12:10:20Z</time></trkpt><trkpt lat="41.22077984318213" lon="14.979367046341372"><ele>491.0</ele><time>2026-04-04T12:10:21Z</time></trkpt><trkpt lat="41.22078345892573" lon="14.979600175179103"><ele>490.0</ele><time>2026-04-04T12:10:22Z</time></trkpt><trkpt lat="41.22079668686766" lon="14.979822718095345"><ele>489.5</ele><time>2026-04-04T12:10:23Z</time></trkpt><trkpt lat="41.22080220482319" lon="14.980022756326763"><ele>489.0</ele><time>2026-04-04T12:10:24Z</time></trkpt><trkpt lat="41.22079138049472" lon="14.980218490048598"><ele>488.5</ele><time>2026-04-04T12:10:25Z</time></trkpt><trkpt lat="41.2207937705662" lon="14.980413139927398"><ele>488.0</ele><time>2026-04-04T12:10:25.999Z</time></trkpt><trkpt lat="41.22079691346378" lon="14.980574610875731"><ele>488.0</ele><time>2026-04-04T12:10:26.999Z</time></trkpt><trkpt lat="41.22079413375266" lon="14.980735369203916"><ele>488.0</ele><time>2026-04-04T12:10:27.999Z</time></trkpt><trkpt lat="41.22078548364845" lon="14.980884290314673"><ele>488.0</ele><time>2026-04-04T12:10:28.999Z</time></trkpt><trkpt lat="41.22080103017922" lon="14.98101462279241"><ele>488.0</ele><time>2026-04-04T12:10:29.999Z</time></trkpt><trkpt lat="41.22088453377332" lon="14.981132580216967"><ele>485.25</ele><time>2026-04-04T12:10:30.999Z</time></trkpt><trkpt lat="41.2209773536387" lon="14.981245645223165"><ele>482.5</ele><time>2026-04-04T12:10:31.999Z</time></trkpt><trkpt lat="41.22109396320204" lon="14.981315798139539"><ele>479.75</ele><time>2026-04-04T12:10:32.999Z</time></trkpt><trkpt lat="41.22121644808218" lon="14.981347954094787"><ele>477.0</ele><time>2026-04-04T12:10:33.999Z</time></trkpt><trkpt lat="41.22132865020601" lon="14.981348067295604"><ele>477.0</ele><time>2026-04-04T12:10:34.999Z</time></trkpt><trkpt lat="41.221437040899616" lon="14.981370699193127"><ele>477.00000000000006</ele><time>2026-04-04T12:10:35.999Z</time></trkpt><trkpt lat="41.22152723074997" lon="14.981416326392944"><ele>477.00000000000006</ele><time>2026-04-04T12:10:36.999Z</time></trkpt><trkpt lat="41.2216184821641" lon="14.981500497150995"><ele>477.0</ele><time>2026-04-04T12:10:37.999Z</time></trkpt><trkpt lat="41.22169040017826" lon="14.981600524904913"><ele>477.0</ele><time>2026-04-04T12:10:38.999Z</time></trkpt><trkpt lat="41.221709785748935" lon="14.981733815531607"><ele>476.40000000000003</ele><time>2026-04-04T12:10:39.999Z</time></trkpt><trkpt lat="41.22174145860772" lon="14.981853125785692"><ele>475.80000000000007</ele><time>2026-04-04T12:10:40.999Z</time></trkpt><trkpt lat="41.221784142305744" lon="14.981978249044039"><ele>475.2</ele><time>2026-04-04T12:10:41.999Z</time></trkpt><trkpt lat="41.22181702792067" lon="14.982104545931898"><ele>474.6</ele><time>2026-04-04T12:10:42.999Z</time></trkpt><trkpt lat="41.221842693297724" lon="14.982216954635907"><ele>474.0</ele><time>2026-04-04T12:10:43.999Z</time></trkpt><trkpt lat="41.22187001697285" lon="14.98234298421429"><ele>474.0</ele><time>2026-04-04T12:10:44.999Z</time></trkpt><trkpt lat="41.22190031976398" lon="14.982474669128996"><ele>474.0</ele><time>2026-04-04T12:10:45.999Z</time></trkpt><trkpt lat="41.221921169101826" lon="14.982623216740912"><ele>474.0</ele><time>2026-04-04T12:10:46.999Z</time></trkpt><trkpt lat="41.2219229708229" lon="14.98277891016624"><ele>474.0</ele><time>2026-04-04T12:10:47.999Z</time></trkpt><trkpt lat="41.22191075218965" lon="14.982925417305804"><ele>474.0</ele><time>2026-04-04T12:10:48.999Z</time></trkpt><trkpt lat="41.221884986976605" lon="14.983034459558413"><ele>476.2</ele><time>2026-04-04T12:10:49.999Z</time></trkpt><trkpt lat="41.22185496726197" lon="14.98314957935544"><ele>478.4</ele><time>2026-04-04T12:10:50.999Z</time></trkpt><trkpt lat="41.22181108194964" lon="14.983256842274951"><ele>480.6</ele><time>2026-04-04T12:10:51.999Z</time></trkpt><trkpt lat="41.22172943884642" lon="14.983368885778049"><ele>482.8</ele><time>2026-04-04T12:10:52.999Z</time></trkpt><trkpt lat="41.221610670551506" lon="14.983420949722102"><ele>485.0</ele><time>2026-04-04T12:10:53.999Z</time></trkpt><trkpt lat="41.22149152810809" lon="14.98348013248204"><ele>485.3333333333333</ele><time>2026-04-04T12:10:54.999Z</time></trkpt><trkpt lat="41.221347940770855" lon="14.983572785698083"><ele>485.66666666666663</ele><time>2026-04-04T12:10:55.999Z</time></trkpt><trkpt lat="41.22124550891646" lon="14.983727170207565"><ele>486.0</ele><time>2026-04-04T12:10:56.999Z</time></trkpt><trkpt lat="41.22116326936775" lon="14.983927030068203"><ele>486.0</ele><time>2026-04-04T12:10:57.999Z</time></trkpt><trkpt lat="41.221064075820514" lon="14.984108826004787"><ele>486.0</ele><time>2026-04-04T12:10:58.999Z</time></trkpt><trkpt lat="41.22090493057396" lon="14.984229750444491"><ele>486.0</ele><time>2026-04-04T12:10:59.999Z</time></trkpt><trkpt lat="41.22072079187947" lon="14.98437565327344"><ele>490.0</ele><time>2026-04-04T12:11:00.999Z</time></trkpt><trkpt lat="41.22053552060271" lon="14.984519517644985"><ele>494.0</ele><time>2026-04-04T12:11:01.999Z</time></trkpt><trkpt lat="41.22036110406034" lon="14.984678596862766"><ele>498.0</ele><time>2026-04-04T12:11:02.999Z</time></trkpt><trkpt lat="41.220153100700095" lon="14.984807883556943"><ele>498.0</ele><time>2026-04-04T12:11:03.999Z</time></trkpt><trkpt lat="41.22000508898071" lon="14.984919851166511"><ele>498.0</ele><time>2026-04-04T12:11:04.999Z</time></trkpt><trkpt lat="41.2198294626114" lon="14.985012972285439"><ele>498.0</ele><time>2026-04-04T12:11:05.999Z</time></trkpt><trkpt lat="41.21961942530649" lon="14.985030487873004"><ele>511.5</ele><time>2026-04-04T12:11:06.999Z</time></trkpt><trkpt lat="41.21939217946832" lon="14.985065686460903"><ele>525.0</ele><time>2026-04-04T12:11:07.999Z</time></trkpt><trkpt lat="41.21914550197964" lon="14.985069393411678"><ele>519.6666666666666</ele><time>2026-04-04T12:11:08.999Z</time></trkpt><trkpt lat="41.218921177257045" lon="14.9851120659168"><ele>514.3333333333333</ele><time>2026-04-04T12:11:09.999Z</time></trkpt><trkpt lat="41.21871122889905" lon="14.985133838685687"><ele>509.0</ele><time>2026-04-04T12:11:10.999Z</time></trkpt><trkpt lat="41.218503220349376" lon="14.985160775922315"><ele>509.0</ele><time>2026-04-04T12:11:11.999Z</time></trkpt><trkpt lat="41.21829834071681" lon="14.985212114410759"><ele>509.0</ele><time>2026-04-04T12:11:12.999Z</time></trkpt><trkpt lat="41.2181071771904" lon="14.985271669401884"><ele>509.0</ele><time>2026-04-04T12:11:13.998Z</time></trkpt><trkpt lat="41.21793131231832" lon="14.985373368356932"><ele>503.25</ele><time>2026-04-04T12:11:14.998Z</time></trkpt><trkpt lat="41.217790807861135" lon="14.98547662295939"><ele>497.5</ele><time>2026-04-04T12:11:15.998Z</time></trkpt><trkpt lat="41.217693475625495" lon="14.98559653002106"><ele>491.75</ele><time>2026-04-04T12:11:16.998Z</time></trkpt><trkpt lat="41.21762938862389" lon="14.98575375041501"><ele>486.0</ele><time>2026-04-04T12:11:17.998Z</time></trkpt><trkpt lat="41.21761734713595" lon="14.985948018217503"><ele>486.0</ele><time>2026-04-04T12:11:18.998Z</time></trkpt><trkpt lat="41.21765704537449" lon="14.986161146923072"><ele>486.0</ele><time>2026-04-04T12:11:19.998Z</time></trkpt><trkpt lat="41.21773583972638" lon="14.986397006019873"><ele>486.0</ele><time>2026-04-04T12:11:20.998Z</time></trkpt><trkpt lat="41.21783761026874" lon="14.98661555209823"><ele>486.66666666666663</ele><time>2026-04-04T12:11:21.998Z</time></trkpt><trkpt lat="41.21798325069504" lon="14.986809931834769"><ele>487.3333333333333</ele><time>2026-04-04T12:11:22.998Z</time></trkpt><trkpt lat="41.21814469452202" lon="14.986979425543355"><ele>488.0</ele><time>2026-04-04T12:11:23.998Z</time></trkpt><trkpt lat="41.21825416258113" lon="14.987164117962788"><ele>490.66666666666663</ele><time>2026-04-04T12:11:24.998Z</time></trkpt><trkpt lat="41.21833289723066" lon="14.98738522224909"><ele>493.33333333333337</ele><time>2026-04-04T12:11:25.998Z</time></trkpt><trkpt lat="41.218371033741896" lon="14.987654806289658"><ele>496.0</ele><time>2026-04-04T12:11:26.998Z</time></trkpt><trkpt lat="41.21838226769752" lon="14.987958366186549"><ele>496.0</ele><time>2026-04-04T12:11:27.998Z</time></trkpt><trkpt lat="41.21840947284383" lon="14.988232287303875"><ele>496.0</ele><time>2026-04-04T12:11:28.998Z</time></trkpt><trkpt lat="41.218425562956476" lon="14.988460884448227"><ele>496.0</ele><time>2026-04-04T12:11:29.998Z</time></trkpt><trkpt lat="41.218469074728084" lon="14.988657321424261"><ele>496.0</ele><time>2026-04-04T12:11:30.998Z</time></trkpt><trkpt lat="41.2185459271478" lon="14.98884737547305"><ele>496.0</ele><time>2026-04-04T12:11:31.998Z</time></trkpt><trkpt lat="41.218654749341354" lon="14.989026126974103"><ele>496.0</ele><time>2026-04-04T12:11:32.998Z</time></trkpt><trkpt lat="41.21878229406354" lon="14.98919467877934"><ele>495.33333333333337</ele><time>2026-04-04T12:11:33.998Z</time></trkpt><trkpt lat="41.218929125121896" lon="14.989350223374544"><ele>494.66666666666663</ele><time>2026-04-04T12:11:34.998Z</time></trkpt><trkpt lat="41.219076276831075" lon="14.989512221145091"><ele>494.0</ele><time>2026-04-04T12:11:35.998Z</time></trkpt><trkpt lat="41.21921680019631" lon="14.989685178237023"><ele>494.0</ele><time>2026-04-04T12:11:36.998Z</time></trkpt><trkpt lat="41.21935670317693" lon="14.98986860177202"><ele>494.0</ele><time>2026-04-04T12:11:37.998Z</time></trkpt><trkpt lat="41.21949115752143" lon="14.990059184852203"><ele>494.0</ele><time>2026-04-04T12:11:38.998Z</time></trkpt><trkpt lat="41.21961808033322" lon="14.990260061085669"><ele>495.0</ele><time>2026-04-04T12:11:39.998Z</time></trkpt><trkpt lat="41.21973548689225" lon="14.990472199514175"><ele>496.0</ele><time>2026-04-04T12:11:40.998Z</time></trkpt><trkpt lat="41.21984787179281" lon="14.990672635080294"><ele>497.0</ele><time>2026-04-04T12:11:41.998Z</time></trkpt><trkpt lat="41.21996776657976" lon="14.9908415687471"><ele>494.3333333333333</ele><time>2026-04-04T12:11:42.998Z</time></trkpt><trkpt lat="41.2201030568103" lon="14.990983130472163"><ele>491.66666666666663</ele><time>2026-04-04T12:11:44Z</time></trkpt><trkpt lat="41.22024219137171" lon="14.991084761515536"><ele>489.0</ele><time>2026-04-04T12:11:45Z</time></trkpt><trkpt lat="41.22037683639045" lon="14.991185538339934"><ele>489.0</ele><time>2026-04-04T12:11:46Z</time></trkpt><trkpt lat="41.22048009097468" lon="14.99129807116912"><ele>489.0</ele><time>2026-04-04T12:11:47Z</time></trkpt><trkpt lat="41.22051651019377" lon="14.991480214096082"><ele>489.0</ele><time>2026-04-04T12:11:48Z</time></trkpt><trkpt lat="41.22051940237888" lon="14.991670009071026"><ele>489.0</ele><time>2026-04-04T12:11:49Z</time></trkpt><trkpt lat="41.220465847550415" lon="14.991853103027957"><ele>488.0</ele><time>2026-04-04T12:11:50Z</time></trkpt><trkpt lat="41.22037802561366" lon="14.992022010691592"><ele>487.0</ele><time>2026-04-04T12:11:51Z</time></trkpt><trkpt lat="41.22030744142815" lon="14.992176122672706"><ele>486.0</ele><time>2026-04-04T12:11:52Z</time></trkpt><trkpt lat="41.22024428923101" lon="14.992311152856194"><ele>485.0</ele><time>2026-04-04T12:11:53Z</time></trkpt><trkpt lat="41.22020691318944" lon="14.992441125861653"><ele>484.75</ele><time>2026-04-04T12:11:54Z</time></trkpt><trkpt lat="41.22018064425343" lon="14.992572451684374"><ele>484.5</ele><time>2026-04-04T12:11:55Z</time></trkpt><trkpt lat="41.220166889087885" lon="14.992723181379082"><ele>484.25</ele><time>2026-04-04T12:11:56Z</time></trkpt><trkpt lat="41.22016156222845" lon="14.992882939316466"><ele>484.0</ele><time>2026-04-04T12:11:57Z</time></trkpt><trkpt lat="41.220146727063955" lon="14.993034735726303"><ele>484.0</ele><time>2026-04-04T12:11:58Z</time></trkpt><trkpt lat="41.22012928346774" lon="14.993172990523325"><ele>484.0</ele><time>2026-04-04T12:11:59Z</time></trkpt><trkpt lat="41.220111357424265" lon="14.99331048238106"><ele>484.0</ele><time>2026-04-04T12:12:00Z</time></trkpt><trkpt lat="41.22008666903512" lon="14.993451900972515"><ele>484.0</ele><time>2026-04-04T12:12:01Z</time></trkpt><trkpt lat="41.22004212087047" lon="14.99359918746336"><ele>484.0</ele><time>2026-04-04T12:12:02Z</time></trkpt><trkpt lat="41.219973185349" lon="14.993755032148039"><ele>485.0</ele><time>2026-04-04T12:12:03Z</time></trkpt><trkpt lat="41.21989179607786" lon="14.993893152624414"><ele>486.0</ele><time>2026-04-04T12:12:04Z</time></trkpt><trkpt lat="41.219788926391224" lon="14.994022158993607"><ele>487.0</ele><time>2026-04-04T12:12:05Z</time></trkpt><trkpt lat="41.21967327579455" lon="14.994138086266236"><ele>488.0</ele><time>2026-04-04T12:12:06Z</time></trkpt><trkpt lat="41.21955512604054" lon="14.994229117957602"><ele>483.5</ele><time>2026-04-04T12:12:07Z</time></trkpt><trkpt lat="41.21944811456889" lon="14.994323479472582"><ele>479.0</ele><time>2026-04-04T12:12:08Z</time></trkpt><trkpt lat="41.21936108668315" lon="14.994437750312205"><ele>474.5</ele><time>2026-04-04T12:12:09Z</time></trkpt><trkpt lat="41.21930542967918" lon="14.994590011132289"><ele>470.0</ele><time>2026-04-04T12:12:10Z</time></trkpt><trkpt lat="41.21929238979784" lon="14.994782915531276"><ele>470.0</ele><time>2026-04-04T12:12:11Z</time></trkpt><trkpt lat="41.219319252161576" lon="14.994994217928431"><ele>470.0</ele><time>2026-04-04T12:12:12Z</time></trkpt><trkpt lat="41.21934354939056" lon="14.995226230520833"><ele>470.0</ele><time>2026-04-04T12:12:13Z</time></trkpt><trkpt lat="41.21935955391669" lon="14.995471913657019"><ele>469.0</ele><time>2026-04-04T12:12:14Z</time></trkpt><trkpt lat="41.219370889142915" lon="14.995721834028375"><ele>468.0</ele><time>2026-04-04T12:12:15Z</time></trkpt><trkpt lat="41.21938825830575" lon="14.995971263413319"><ele>467.0</ele><time>2026-04-04T12:12:16Z</time></trkpt><trkpt lat="41.219409120712164" lon="14.996222540147018"><ele>464.66666666666663</ele><time>2026-04-04T12:12:17Z</time></trkpt><trkpt lat="41.219453952902604" lon="14.996473274001291"><ele>462.33333333333337</ele><time>2026-04-04T12:12:18Z</time></trkpt><trkpt lat="41.21952041888817" lon="14.996724488759833"><ele>460.0</ele><time>2026-04-04T12:12:19Z</time></trkpt><trkpt lat="41.21960373414071" lon="14.996983167598916"><ele>458.33333333333337</ele><time>2026-04-04T12:12:20Z</time></trkpt><trkpt lat="41.21970080291358" lon="14.997200930384961"><ele>456.66666666666663</ele><time>2026-04-04T12:12:21Z</time></trkpt><trkpt lat="41.219795094690525" lon="14.997417247319685"><ele>455.0</ele><time>2026-04-04T12:12:22Z</time></trkpt><trkpt lat="41.21989350610922" lon="14.997620961457795"><ele>455.0</ele><time>2026-04-04T12:12:23Z</time></trkpt><trkpt lat="41.220009845882394" lon="14.997808216932626"><ele>455.0</ele><time>2026-04-04T12:12:24Z</time></trkpt><trkpt lat="41.22016157543625" lon="14.99797579307498"><ele>455.0</ele><time>2026-04-04T12:12:25Z</time></trkpt><trkpt lat="41.220344283285215" lon="14.998129712506737"><ele>455.0</ele><time>2026-04-04T12:12:26Z</time></trkpt><trkpt lat="41.220553332643235" lon="14.998272095779642"><ele>455.0</ele><time>2026-04-04T12:12:26.999Z</time></trkpt><trkpt lat="41.220747643542715" lon="14.998454185239433"><ele>453.3333333333333</ele><time>2026-04-04T12:12:27.999Z</time></trkpt><trkpt lat="41.22092720851028" lon="14.998634056899899"><ele>451.66666666666663</ele><time>2026-04-04T12:12:28.999Z</time></trkpt><trkpt lat="41.22109724235628" lon="14.998817980435096"><ele>450.0</ele><time>2026-04-04T12:12:29.999Z</time></trkpt><trkpt lat="41.22126485090913" lon="14.998983474543877"><ele>450.0</ele><time>2026-04-04T12:12:30.999Z</time></trkpt><trkpt lat="41.22141373783585" lon="14.99915447926177"><ele>450.0</ele><time>2026-04-04T12:12:31.999Z</time></trkpt><trkpt lat="41.22155677421442" lon="14.999316036965222"><ele>450.0</ele><time>2026-04-04T12:12:32.999Z</time></trkpt><trkpt lat="41.221685095753" lon="14.999483933742724"><ele>449.33333333333337</ele><time>2026-04-04T12:12:33.999Z</time></trkpt><trkpt lat="41.221789613121395" lon="14.999694966451402"><ele>448.6666666666667</ele><time>2026-04-04T12:12:34.999Z</time></trkpt><trkpt lat="41.22187036345484" lon="14.999922929960652"><ele>448.0</ele><time>2026-04-04T12:12:35.999Z</time></trkpt><trkpt lat="41.221946169251034" lon="15.000181396638034"><ele>448.0</ele><time>2026-04-04T12:12:36.999Z</time></trkpt><trkpt lat="41.22202265208086" lon="15.000423764653917"><ele>448.0</ele><time>2026-04-04T12:12:37.999Z</time></trkpt><trkpt lat="41.222059266847346" lon="15.000657960006468"><ele>448.0</ele><time>2026-04-04T12:12:38.999Z</time></trkpt><trkpt lat="41.22203718613373" lon="15.000885920570829"><ele>445.6666666666667</ele><time>2026-04-04T12:12:39.999Z</time></trkpt><trkpt lat="41.2220186093588" lon="15.001123963602712"><ele>443.33333333333337</ele><time>2026-04-04T12:12:40.999Z</time></trkpt><trkpt lat="41.22200728877516" lon="15.001342276342722"><ele>441.0</ele><time>2026-04-04T12:12:41.999Z</time></trkpt><trkpt lat="41.22203434805735" lon="15.001549944788966"><ele>440.0</ele><time>2026-04-04T12:12:42.999Z</time></trkpt><trkpt lat="41.222061320936895" lon="15.001750939785861"><ele>439.0</ele><time>2026-04-04T12:12:43.999Z</time></trkpt><trkpt lat="41.222085664251374" lon="15.001934668778942"><ele>438.0</ele><time>2026-04-04T12:12:44.999Z</time></trkpt><trkpt lat="41.22211601008891" lon="15.0021119050438"><ele>437.0</ele><time>2026-04-04T12:12:45.999Z</time></trkpt><trkpt lat="41.22215028868376" lon="15.00227554820113"><ele>437.0</ele><time>2026-04-04T12:12:46.999Z</time></trkpt><trkpt lat="41.222174025050016" lon="15.0024346977411"><ele>437.0</ele><time>2026-04-04T12:12:47.999Z</time></trkpt><trkpt lat="41.222176296718544" lon="15.002604089634993"><ele>437.0</ele><time>2026-04-04T12:12:48.999Z</time></trkpt><trkpt lat="41.22215599822352" lon="15.00278586975337"><ele>437.0</ele><time>2026-04-04T12:12:49.999Z</time></trkpt><trkpt lat="41.22211726419296" lon="15.002973376465285"><ele>435.75</ele><time>2026-04-04T12:12:50.999Z</time></trkpt><trkpt lat="41.222080130196346" lon="15.003167815819785"><ele>434.5</ele><time>2026-04-04T12:12:51.999Z</time></trkpt><trkpt lat="41.222037076943444" lon="15.00336719392194"><ele>433.25</ele><time>2026-04-04T12:12:52.999Z</time></trkpt><trkpt lat="41.22201235212076" lon="15.00353154596413"><ele>432.0</ele><time>2026-04-04T12:12:53.999Z</time></trkpt><trkpt lat="41.22193338070024" lon="15.003688808608342"><ele>431.33333333333337</ele><time>2026-04-04T12:12:54.999Z</time></trkpt><trkpt lat="41.22184302629005" lon="15.003857090425598"><ele>430.6666666666667</ele><time>2026-04-04T12:12:55.999Z</time></trkpt><trkpt lat="41.22170310229005" lon="15.004009481909963"><ele>430.0</ele><time>2026-04-04T12:12:56.999Z</time></trkpt><trkpt lat="41.22157373162952" lon="15.004171077535355"><ele>427.33333333333337</ele><time>2026-04-04T12:12:57.999Z</time></trkpt><trkpt lat="41.221473247844536" lon="15.004366985221633"><ele>424.66666666666663</ele><time>2026-04-04T12:12:58.999Z</time></trkpt><trkpt lat="41.22137544540075" lon="15.004601531215545"><ele>422.0</ele><time>2026-04-04T12:12:59.999Z</time></trkpt><trkpt lat="41.22128355097418" lon="15.004819948130026"><ele>422.66666666666663</ele><time>2026-04-04T12:13:00.999Z</time></trkpt><trkpt lat="41.22118235779672" lon="15.00500712843286"><ele>423.33333333333337</ele><time>2026-04-04T12:13:01.999Z</time></trkpt><trkpt lat="41.221059775598164" lon="15.00516993305404"><ele>424.0</ele><time>2026-04-04T12:13:02.999Z</time></trkpt><trkpt lat="41.220919529222854" lon="15.005332919866069"><ele>424.0</ele><time>2026-04-04T12:13:03.999Z</time></trkpt><trkpt lat="41.220783050945904" lon="15.005486344745753"><ele>424.0</ele><time>2026-04-04T12:13:04.999Z</time></trkpt><trkpt lat="41.220671008140286" lon="15.005638959736356"><ele>424.0</ele><time>2026-04-04T12:13:05.999Z</time></trkpt><trkpt lat="41.22058554930412" lon="15.005798267243584"><ele>421.75</ele><time>2026-04-04T12:13:06.999Z</time></trkpt><trkpt lat="41.220534466322796" lon="15.00595851742855"><ele>419.5</ele><time>2026-04-04T12:13:07.999Z</time></trkpt><trkpt lat="41.220512849787625" lon="15.006139414851864"><ele>417.25</ele><time>2026-04-04T12:13:08.999Z</time></trkpt><trkpt lat="41.22051143296444" lon="15.006339578324864"><ele>415.0</ele><time>2026-04-04T12:13:09.999Z</time></trkpt><trkpt lat="41.220530237891055" lon="15.006534346450628"><ele>414.6</ele><time>2026-04-04T12:13:10.999Z</time></trkpt><trkpt lat="41.220555758158696" lon="15.006704331287503"><ele>414.2</ele><time>2026-04-04T12:13:11.999Z</time></trkpt><trkpt lat="41.22054390727477" lon="15.006852851357133"><ele>413.79999999999995</ele><time>2026-04-04T12:13:12.998Z</time></trkpt><trkpt lat="41.22053292036201" lon="15.006974957271813"><ele>413.4</ele><time>2026-04-04T12:13:13.998Z</time></trkpt><trkpt lat="41.2205210534704" lon="15.007080788048583"><ele>413.0</ele><time>2026-04-04T12:13:14.998Z</time></trkpt><trkpt lat="41.220456795111346" lon="15.007150058349634"><ele>413.0</ele><time>2026-04-04T12:13:15.998Z</time></trkpt><trkpt lat="41.22035406714143" lon="15.0071689178533"><ele>413.0</ele><time>2026-04-04T12:13:16.998Z</time></trkpt><trkpt lat="41.220235868804956" lon="15.007118927570595"><ele>413.0</ele><time>2026-04-04T12:13:17.998Z</time></trkpt><trkpt lat="41.220089701639026" lon="15.00702899302422"><ele>413.0</ele><time>2026-04-04T12:13:18.998Z</time></trkpt><trkpt lat="41.21995534135111" lon="15.006954337085737"><ele>413.0</ele><time>2026-04-04T12:13:19.998Z</time></trkpt><trkpt lat="41.21984444761045" lon="15.00685235348517"><ele>413.0</ele><time>2026-04-04T12:13:20.998Z</time></trkpt><trkpt lat="41.219724382581674" lon="15.006742773623907"><ele>413.0</ele><time>2026-04-04T12:13:21.998Z</time></trkpt><trkpt lat="41.2196077377257" lon="15.006622123286302"><ele>413.0</ele><time>2026-04-04T12:13:22.998Z</time></trkpt><trkpt lat="41.21950067154313" lon="15.00649893412493"><ele>411.0</ele><time>2026-04-04T12:13:23.998Z</time></trkpt><trkpt lat="41.21940127229287" lon="15.00636260745202"><ele>409.0</ele><time>2026-04-04T12:13:24.998Z</time></trkpt><trkpt lat="41.21929506074753" lon="15.006215041844316"><ele>407.0</ele><time>2026-04-04T12:13:25.998Z</time></trkpt><trkpt lat="41.219228697792595" lon="15.006024757072748"><ele>407.0</ele><time>2026-04-04T12:13:26.998Z</time></trkpt><trkpt lat="41.21915682973238" lon="15.005845476186884"><ele>407.0</ele><time>2026-04-04T12:13:27.998Z</time></trkpt><trkpt lat="41.21909610094242" lon="15.005658769084045"><ele>407.0</ele><time>2026-04-04T12:13:28.998Z</time></trkpt><trkpt lat="41.21906102677227" lon="15.005483751952932"><ele>407.0</ele><time>2026-04-04T12:13:29.998Z</time></trkpt><trkpt lat="41.219048785480716" lon="15.005281463327643"><ele>405.66666666666663</ele><time>2026-04-04T12:13:30.998Z</time></trkpt><trkpt lat="41.21906736318151" lon="15.005058857053966"><ele>404.33333333333337</ele><time>2026-04-04T12:13:31.998Z</time></trkpt><trkpt lat="41.21908976310004" lon="15.004817544357035"><ele>403.0</ele><time>2026-04-04T12:13:32.998Z</time></trkpt><trkpt lat="41.219071644046885" lon="15.004609334253939"><ele>402.0</ele><time>2026-04-04T12:13:33.998Z</time></trkpt><trkpt lat="41.21904303621715" lon="15.004407509843654"><ele>401.0</ele><time>2026-04-04T12:13:34.998Z</time></trkpt><trkpt lat="41.21898670545126" lon="15.004202406472098"><ele>400.0</ele><time>2026-04-04T12:13:35.998Z</time></trkpt><trkpt lat="41.218903853784745" lon="15.003992383264155"><ele>397.0</ele><time>2026-04-04T12:13:36.998Z</time></trkpt><trkpt lat="41.218839382274496" lon="15.00378568272852"><ele>394.0</ele><time>2026-04-04T12:13:37.998Z</time></trkpt><trkpt lat="41.21876554426768" lon="15.003605006127412"><ele>391.0</ele><time>2026-04-04T12:13:38.998Z</time></trkpt><trkpt lat="41.21869295149408" lon="15.003435238355298"><ele>390.5</ele><time>2026-04-04T12:13:39.998Z</time></trkpt><trkpt lat="41.218593615685" lon="15.00329333201295"><ele>390.0</ele><time>2026-04-04T12:13:40.998Z</time></trkpt><trkpt lat="41.21849796460076" lon="15.003169563773097"><ele>389.5</ele><time>2026-04-04T12:13:41.998Z</time></trkpt><trkpt lat="41.21839326873234" lon="15.003074728209823"><ele>389.0</ele><time>2026-04-04T12:13:42.998Z</time></trkpt><trkpt lat="41.21828180268411" lon="15.003011061906745"><ele>389.0</ele><time>2026-04-04T12:13:43.998Z</time></trkpt><trkpt lat="41.21817268077475" lon="15.002983178866906"><ele>389.0</ele><time>2026-04-04T12:13:44.998Z</time></trkpt><trkpt lat="41.218079080211645" lon="15.002991715405768"><ele>389.0</ele><time>2026-04-04T12:13:45.998Z</time></trkpt><trkpt lat="41.21800891983726" lon="15.00304574573888"><ele>389.0</ele><time>2026-04-04T12:13:46.998Z</time></trkpt><trkpt lat="41.21794762541514" lon="15.003129406732654"><ele>389.0</ele><time>2026-04-04T12:13:47.998Z</time></trkpt><trkpt lat="41.217974404182726" lon="15.003281316520349"><ele>389.5</ele><time>2026-04-04T12:13:48.998Z</time></trkpt><trkpt lat="41.21804726730883" lon="15.00344558052644"><ele>390.0</ele><time>2026-04-04T12:13:50Z</time></trkpt><trkpt lat="41.218105601991674" lon="15.003571960498196"><ele>390.5</ele><time>2026-04-04T12:13:51Z</time></trkpt><trkpt lat="41.21815982271592" lon="15.003703572819619"><ele>391.0</ele><time>2026-04-04T12:13:52Z</time></trkpt><trkpt lat="41.218189976144956" lon="15.003849965511353"><ele>391.0</ele><time>2026-04-04T12:13:53Z</time></trkpt><trkpt lat="41.21818721463745" lon="15.00400594013522"><ele>391.0</ele><time>2026-04-04T12:13:54Z</time></trkpt><trkpt lat="41.21811494916955" lon="15.0041533139807"><ele>391.0</ele><time>2026-04-04T12:13:55Z</time></trkpt><trkpt lat="41.218035131521425" lon="15.004347849313678"><ele>391.0</ele><time>2026-04-04T12:13:56Z</time></trkpt><trkpt lat="41.21791200547319" lon="15.00453688553987"><ele>387.6666666666667</ele><time>2026-04-04T12:13:57Z</time></trkpt><trkpt lat="41.21778986261235" lon="15.004724106246831"><ele>384.33333333333337</ele><time>2026-04-04T12:13:58Z</time></trkpt><trkpt lat="41.21766670439081" lon="15.004882899378051"><ele>381.0</ele><time>2026-04-04T12:13:59Z</time></trkpt><trkpt lat="41.217554333089794" lon="15.005014166889731"><ele>381.0</ele><time>2026-04-04T12:14:00Z</time></trkpt><trkpt lat="41.21744146035412" lon="15.005154556817796"><ele>381.0</ele><time>2026-04-04T12:14:01Z</time></trkpt><trkpt lat="41.217341573223194" lon="15.00532189715748"><ele>381.0</ele><time>2026-04-04T12:14:02Z</time></trkpt><trkpt lat="41.21725155831772" lon="15.005515976366198"><ele>378.3333333333333</ele><time>2026-04-04T12:14:03Z</time></trkpt><trkpt lat="41.2171822984057" lon="15.005723324128532"><ele>375.66666666666663</ele><time>2026-04-04T12:14:04Z</time></trkpt><trkpt lat="41.217117924455835" lon="15.005926025201472"><ele>373.0</ele><time>2026-04-04T12:14:05Z</time></trkpt><trkpt lat="41.21704248707037" lon="15.006114310746025"><ele>373.0</ele><time>2026-04-04T12:14:06Z</time></trkpt><trkpt lat="41.2169261641316" lon="15.00625833777851"><ele>373.0</ele><time>2026-04-04T12:14:07Z</time></trkpt><trkpt lat="41.216801406930344" lon="15.006404198203782"><ele>373.0</ele><time>2026-04-04T12:14:08Z</time></trkpt><trkpt lat="41.216687761272645" lon="15.006545385028279"><ele>373.0</ele><time>2026-04-04T12:14:09Z</time></trkpt><trkpt lat="41.21656611640835" lon="15.006648471941649"><ele>373.0</ele><time>2026-04-04T12:14:10Z</time></trkpt><trkpt lat="41.21647140580503" lon="15.006777773049155"><ele>373.0</ele><time>2026-04-04T12:14:11Z</time></trkpt><trkpt lat="41.21640187684422" lon="15.006936189907817"><ele>373.0</ele><time>2026-04-04T12:14:12Z</time></trkpt><trkpt lat="41.21636781088773" lon="15.00713473886286"><ele>370.0</ele><time>2026-04-04T12:14:13Z</time></trkpt><trkpt lat="41.216346560614824" lon="15.007363238469601"><ele>367.0</ele><time>2026-04-04T12:14:14Z</time></trkpt><trkpt lat="41.2162930193943" lon="15.007591034657134"><ele>364.0</ele><time>2026-04-04T12:14:15Z</time></trkpt><trkpt lat="41.21626019695509" lon="15.007824165077741"><ele>364.0</ele><time>2026-04-04T12:14:16Z</time></trkpt><trkpt lat="41.216208657665405" lon="15.008041559045836"><ele>364.0</ele><time>2026-04-04T12:14:17Z</time></trkpt><trkpt lat="41.216154817405965" lon="15.008245900310662"><ele>364.0</ele><time>2026-04-04T12:14:18Z</time></trkpt><trkpt lat="41.216095078275934" lon="15.008436166652555"><ele>364.0</ele><time>2026-04-04T12:14:19Z</time></trkpt><trkpt lat="41.216049995055606" lon="15.008616951505957"><ele>364.0</ele><time>2026-04-04T12:14:20Z</time></trkpt><trkpt lat="41.21603335022576" lon="15.008790622230217"><ele>364.0</ele><time>2026-04-04T12:14:21Z</time></trkpt><trkpt lat="41.216054731903405" lon="15.008956435312337"><ele>364.0</ele><time>2026-04-04T12:14:22Z</time></trkpt><trkpt lat="41.21611840211421" lon="15.009102302474398"><ele>363.5</ele><time>2026-04-04T12:14:23Z</time></trkpt><trkpt lat="41.21621157889272" lon="15.009208559565788"><ele>363.0</ele><time>2026-04-04T12:14:24Z</time></trkpt><trkpt lat="41.21633993572153" lon="15.009286960112371"><ele>362.5</ele><time>2026-04-04T12:14:25Z</time></trkpt><trkpt lat="41.216464755651344" lon="15.009379060775402"><ele>362.0</ele><time>2026-04-04T12:14:26Z</time></trkpt><trkpt lat="41.21659179768169" lon="15.009484121105995"><ele>363.6666666666667</ele><time>2026-04-04T12:14:27Z</time></trkpt><trkpt lat="41.216726659065465" lon="15.009605659209953"><ele>365.3333333333333</ele><time>2026-04-04T12:14:28Z</time></trkpt><trkpt lat="41.216856741377654" lon="15.009728796032386"><ele>367.0</ele><time>2026-04-04T12:14:29Z</time></trkpt><trkpt lat="41.21697183223813" lon="15.009882578442273"><ele>364.75</ele><time>2026-04-04T12:14:30Z</time></trkpt><trkpt lat="41.21706197301331" lon="15.010042268322255"><ele>362.5</ele><time>2026-04-04T12:14:31Z</time></trkpt><trkpt lat="41.21713922619811" lon="15.010195370188283"><ele>360.25</ele><time>2026-04-04T12:14:31.999Z</time></trkpt><trkpt lat="41.217211369768705" lon="15.010344333720873"><ele>358.0</ele><time>2026-04-04T12:14:32.999Z</time></trkpt><trkpt lat="41.21728679614748" lon="15.010473207440873"><ele>358.75</ele><time>2026-04-04T12:14:33.999Z</time></trkpt><trkpt lat="41.21737704349388" lon="15.010576913890066"><ele>359.5</ele><time>2026-04-04T12:14:34.999Z</time></trkpt><trkpt lat="41.217490649019425" lon="15.010650119368378"><ele>360.25</ele><time>2026-04-04T12:14:35.999Z</time></trkpt><trkpt lat="41.21762793309887" lon="15.010686934176979"><ele>361.0</ele><time>2026-04-04T12:14:36.999Z</time></trkpt><trkpt lat="41.217771437153694" lon="15.010692802574107"><ele>361.0</ele><time>2026-04-04T12:14:37.999Z</time></trkpt><trkpt lat="41.21790449723677" lon="15.010682960106461"><ele>361.0</ele><time>2026-04-04T12:14:38.999Z</time></trkpt><trkpt lat="41.21803867371423" lon="15.010693646743782"><ele>361.0</ele><time>2026-04-04T12:14:39.999Z</time></trkpt><trkpt lat="41.21817898867678" lon="15.010709914427936"><ele>361.0</ele><time>2026-04-04T12:14:40.999Z</time></trkpt><trkpt lat="41.21830442124013" lon="15.010727168057715"><ele>362.0</ele><time>2026-04-04T12:14:41.999Z</time></trkpt><trkpt lat="41.218416597940134" lon="15.01074198080936"><ele>363.0</ele><time>2026-04-04T12:14:42.999Z</time></trkpt><trkpt lat="41.218506490272645" lon="15.010776238749381"><ele>364.0</ele><time>2026-04-04T12:14:43.999Z</time></trkpt><trkpt lat="41.218576271614246" lon="15.010843119741772"><ele>365.0</ele><time>2026-04-04T12:14:44.999Z</time></trkpt><trkpt lat="41.21863996240429" lon="15.010949168518955"><ele>366.0</ele><time>2026-04-04T12:14:45.999Z</time></trkpt><trkpt lat="41.218665209451075" lon="15.011063085976618"><ele>363.20000000000005</ele><time>2026-04-04T12:14:46.999Z</time></trkpt><trkpt lat="41.21866989143351" lon="15.011177425307393"><ele>360.40000000000003</ele><time>2026-04-04T12:14:47.999Z</time></trkpt><trkpt lat="41.21863358177402" lon="15.011301202970968"><ele>357.6</ele><time>2026-04-04T12:14:48.999Z</time></trkpt><trkpt lat="41.21858498632638" lon="15.011412398264769"><ele>354.8</ele><time>2026-04-04T12:14:49.999Z</time></trkpt><trkpt lat="41.218527016992304" lon="15.011543711222822"><ele>352.0</ele><time>2026-04-04T12:14:50.999Z</time></trkpt><trkpt lat="41.218463440447024" lon="15.01168874765089"><ele>350.75</ele><time>2026-04-04T12:14:51.999Z</time></trkpt><trkpt lat="41.218372748733245" lon="15.011826106641475"><ele>349.5</ele><time>2026-04-04T12:14:52.999Z</time></trkpt><trkpt lat="41.2182666574194" lon="15.011922686083246"><ele>348.25</ele><time>2026-04-04T12:14:53.999Z</time></trkpt><trkpt lat="41.218164089553625" lon="15.01199698446217"><ele>347.0</ele><time>2026-04-04T12:14:54.999Z</time></trkpt><trkpt lat="41.2180683031406" lon="15.012087424854538"><ele>344.5</ele><time>2026-04-04T12:14:55.999Z</time></trkpt><trkpt lat="41.21799049314222" lon="15.01221376193482"><ele>342.0</ele><time>2026-04-04T12:14:56.999Z</time></trkpt><trkpt lat="41.21793997010062" lon="15.012364155632541"><ele>339.5</ele><time>2026-04-04T12:14:57.999Z</time></trkpt><trkpt lat="41.217907621181126" lon="15.012543991103101"><ele>337.0</ele><time>2026-04-04T12:14:58.999Z</time></trkpt><trkpt lat="41.217857504599756" lon="15.012712536264498"><ele>335.0</ele><time>2026-04-04T12:14:59.999Z</time></trkpt><trkpt lat="41.2177753825317" lon="15.012871825320078"><ele>333.0</ele><time>2026-04-04T12:15:00.999Z</time></trkpt><trkpt lat="41.217658819166445" lon="15.013012059839241"><ele>331.0</ele><time>2026-04-04T12:15:01.999Z</time></trkpt><trkpt lat="41.217539151685706" lon="15.013155120972863"><ele>331.0</ele><time>2026-04-04T12:15:02.999Z</time></trkpt><trkpt lat="41.21745298216285" lon="15.013312460128219"><ele>331.0</ele><time>2026-04-04T12:15:03.999Z</time></trkpt><trkpt lat="41.217381792680506" lon="15.013487208653771"><ele>331.0</ele><time>2026-04-04T12:15:04.999Z</time></trkpt><trkpt lat="41.217309389856304" lon="15.013640787997183"><ele>331.0</ele><time>2026-04-04T12:15:05.999Z</time></trkpt><trkpt lat="41.217217194800355" lon="15.013764198556872"><ele>329.5</ele><time>2026-04-04T12:15:06.999Z</time></trkpt><trkpt lat="41.21712210125697" lon="15.013873095352645"><ele>328.0</ele><time>2026-04-04T12:15:07.999Z</time></trkpt><trkpt lat="41.21701813333756" lon="15.013972658777078"><ele>326.5</ele><time>2026-04-04T12:15:08.999Z</time></trkpt><trkpt lat="41.216934649365285" lon="15.014100443289998"><ele>325.0</ele><time>2026-04-04T12:15:09.999Z</time></trkpt><trkpt lat="41.21689094247068" lon="15.014275232304785"><ele>325.0</ele><time>2026-04-04T12:15:10.999Z</time></trkpt><trkpt lat="41.21687568662074" lon="15.014462812057257"><ele>325.0</ele><time>2026-04-04T12:15:11.999Z</time></trkpt><trkpt lat="41.2168722980728" lon="15.014607956037908"><ele>325.0</ele><time>2026-04-04T12:15:12.999Z</time></trkpt><trkpt lat="41.21683678373549" lon="15.014767749197478"><ele>325.0</ele><time>2026-04-04T12:15:13.999Z</time></trkpt><trkpt lat="41.216767873569225" lon="15.014911012904916"><ele>326.25</ele><time>2026-04-04T12:15:14.999Z</time></trkpt><trkpt lat="41.21667491652202" lon="15.015047327388302"><ele>327.5</ele><time>2026-04-04T12:15:15.999Z</time></trkpt><trkpt lat="41.21655971739103" lon="15.015125093830237"><ele>328.75</ele><time>2026-04-04T12:15:16.999Z</time></trkpt><trkpt lat="41.21645355132855" lon="15.015239686968764"><ele>330.0</ele><time>2026-04-04T12:15:17.998Z</time></trkpt><trkpt lat="41.2163368212267" lon="15.01531836896465"><ele>325.75</ele><time>2026-04-04T12:15:18.998Z</time></trkpt><trkpt lat="41.21622529416233" lon="15.015380990348019"><ele>321.5</ele><time>2026-04-04T12:15:19.998Z</time></trkpt><trkpt lat="41.21612613114033" lon="15.01544918934443"><ele>317.25</ele><time>2026-04-04T12:15:20.998Z</time></trkpt><trkpt lat="41.21606393726013" lon="15.015552218713694"><ele>313.0</ele><time>2026-04-04T12:15:21.998Z</time></trkpt><trkpt lat="41.21604005063902" lon="15.015705141840535"><ele>314.25</ele><time>2026-04-04T12:15:22.998Z</time></trkpt><trkpt lat="41.21606084514835" lon="15.0158773770762"><ele>315.5</ele><time>2026-04-04T12:15:23.998Z</time></trkpt><trkpt lat="41.2161190547391" lon="15.016053568743256"><ele>316.75</ele><time>2026-04-04T12:15:24.998Z</time></trkpt><trkpt lat="41.21620335950765" lon="15.016195375356954"><ele>318.0</ele><time>2026-04-04T12:15:25.998Z</time></trkpt><trkpt lat="41.21626078017935" lon="15.01633414780157"><ele>318.0</ele><time>2026-04-04T12:15:26.998Z</time></trkpt><trkpt lat="41.21629967919007" lon="15.016479271506268"><ele>318.0</ele><time>2026-04-04T12:15:27.998Z</time></trkpt><trkpt lat="41.216313188056304" lon="15.0166612008474"><ele>318.0</ele><time>2026-04-04T12:15:28.998Z</time></trkpt><trkpt lat="41.2162992091569" lon="15.016847933269833"><ele>318.0</ele><time>2026-04-04T12:15:29.998Z</time></trkpt><trkpt lat="41.216294284485706" lon="15.017012915199373"><ele>316.75</ele><time>2026-04-04T12:15:30.998Z</time></trkpt><trkpt lat="41.216301104061614" lon="15.017165239426523"><ele>315.5</ele><time>2026-04-04T12:15:31.998Z</time></trkpt><trkpt lat="41.2163513804662" lon="15.017295590325126"><ele>314.25</ele><time>2026-04-04T12:15:32.998Z</time></trkpt><trkpt lat="41.216446280506496" lon="15.017402433326179"><ele>313.0</ele><time>2026-04-04T12:15:33.998Z</time></trkpt><trkpt lat="41.21657841437844" lon="15.01746235897726"><ele>314.0</ele><time>2026-04-04T12:15:34.998Z</time></trkpt><trkpt lat="41.2167312788883" lon="15.017495086468452"><ele>315.0</ele><time>2026-04-04T12:15:35.998Z</time></trkpt><trkpt lat="41.21689163089899" lon="15.017542861794992"><ele>316.0</ele><time>2026-04-04T12:15:36.998Z</time></trkpt><trkpt lat="41.21704871112616" lon="15.017606470299032"><ele>316.0</ele><time>2026-04-04T12:15:37.998Z</time></trkpt><trkpt lat="41.217214232963045" lon="15.017676954303923"><ele>316.0</ele><time>2026-04-04T12:15:38.998Z</time></trkpt><trkpt lat="41.217378360286645" lon="15.01774341624651"><ele>316.0</ele><time>2026-04-04T12:15:39.998Z</time></trkpt><trkpt lat="41.217527400564634" lon="15.017807024667835"><ele>318.0</ele><time>2026-04-04T12:15:40.998Z</time></trkpt><trkpt lat="41.21766247653007" lon="15.017893493692284"><ele>320.0</ele><time>2026-04-04T12:15:41.998Z</time></trkpt><trkpt lat="41.21779861059749" lon="15.01795576535482"><ele>322.0</ele><time>2026-04-04T12:15:42.998Z</time></trkpt><trkpt lat="41.21791617391582" lon="15.018037014560798"><ele>324.0</ele><time>2026-04-04T12:15:43.998Z</time></trkpt><trkpt lat="41.21800594768808" lon="15.018105141273349"><ele>324.0</ele><time>2026-04-04T12:15:44.998Z</time></trkpt><trkpt lat="41.21806520955551" lon="15.018188938952898"><ele>324.0</ele><time>2026-04-04T12:15:45.998Z</time></trkpt><trkpt lat="41.21806522471421" lon="15.018321160480218"><ele>324.0</ele><time>2026-04-04T12:15:46.998Z</time></trkpt><trkpt lat="41.218060342863254" lon="15.018463185296106"><ele>324.0</ele><time>2026-04-04T12:15:47.998Z</time></trkpt><trkpt lat="41.21803001897178" lon="15.018599188424266"><ele>324.0</ele><time>2026-04-04T12:15:48.998Z</time></trkpt><trkpt lat="41.217926072936926" lon="15.018704713089738"><ele>319.5</ele><time>2026-04-04T12:15:49.998Z</time></trkpt><trkpt lat="41.21782148797217" lon="15.018835664097054"><ele>315.0</ele><time>2026-04-04T12:15:50.998Z</time></trkpt><trkpt lat="41.21771879880743" lon="15.018976534725308"><ele>310.5</ele><time>2026-04-04T12:15:51.998Z</time></trkpt><trkpt lat="41.21760233741507" lon="15.019065135292797"><ele>306.0</ele><time>2026-04-04T12:15:52.998Z</time></trkpt><trkpt lat="41.21747526481086" lon="15.019124918070213"><ele>305.75</ele><time>2026-04-04T12:15:53.998Z</time></trkpt><trkpt lat="41.2173292464715" lon="15.01915666125254"><ele>305.5</ele><time>2026-04-04T12:15:54.998Z</time></trkpt><trkpt lat="41.21720015596866" lon="15.01918577341709"><ele>305.25</ele><time>2026-04-04T12:15:56Z</time></trkpt><trkpt lat="41.2170913483284" lon="15.019252539593396"><ele>305.0</ele><time>2026-04-04T12:15:57Z</time></trkpt><trkpt lat="41.21698607578573" lon="15.019371021900277"><ele>302.25</ele><time>2026-04-04T12:15:58Z</time></trkpt><trkpt lat="41.216883477820204" lon="15.019511815077148"><ele>299.5</ele><time>2026-04-04T12:15:59Z</time></trkpt><trkpt lat="41.216774414161215" lon="15.019606295838162"><ele>296.75</ele><time>2026-04-04T12:16:00Z</time></trkpt><trkpt lat="41.21665698102015" lon="15.019656511308552"><ele>294.0</ele><time>2026-04-04T12:16:01Z</time></trkpt><trkpt lat="41.2165502631339" lon="15.019703013946542"><ele>292.4</ele><time>2026-04-04T12:16:02Z</time></trkpt><trkpt lat="41.216450415995304" lon="15.01975477867273"><ele>290.79999999999995</ele><time>2026-04-04T12:16:03Z</time></trkpt><trkpt lat="41.21636414178723" lon="15.019828437655919"><ele>289.20000000000005</ele><time>2026-04-04T12:16:04Z</time></trkpt><trkpt lat="41.21630335432612" lon="15.01994939491285"><ele>287.6</ele><time>2026-04-04T12:16:05Z</time></trkpt><trkpt lat="41.216277104674724" lon="15.020111143403746"><ele>286.0</ele><time>2026-04-04T12:16:06Z</time></trkpt><trkpt lat="41.2162933852743" lon="15.020292666571688"><ele>285.3333333333333</ele><time>2026-04-04T12:16:07Z</time></trkpt><trkpt lat="41.21632390624163" lon="15.020498798943441"><ele>284.6666666666667</ele><time>2026-04-04T12:16:08Z</time></trkpt><trkpt lat="41.21634982837912" lon="15.02072255063821"><ele>284.0</ele><time>2026-04-04T12:16:09Z</time></trkpt><trkpt lat="41.216374065537615" lon="15.02093397154916"><ele>283.25</ele><time>2026-04-04T12:16:10Z</time></trkpt><trkpt lat="41.21636812051674" lon="15.02112769207942"><ele>282.5</ele><time>2026-04-04T12:16:11Z</time></trkpt><trkpt lat="41.216332996429" lon="15.021309139723842"><ele>281.75</ele><time>2026-04-04T12:16:12Z</time></trkpt><trkpt lat="41.2162694078677" lon="15.021485408440844"><ele>281.0</ele><time>2026-04-04T12:16:13Z</time></trkpt><trkpt lat="41.216185386649" lon="15.021640840525457"><ele>281.0</ele><time>2026-04-04T12:16:14Z</time></trkpt><trkpt lat="41.21611365288004" lon="15.021783263969533"><ele>281.0</ele><time>2026-04-04T12:16:15Z</time></trkpt><trkpt lat="41.21607041194509" lon="15.021943196894922"><ele>281.0</ele><time>2026-04-04T12:16:16Z</time></trkpt><trkpt lat="41.21606789899163" lon="15.022125132054324"><ele>281.0</ele><time>2026-04-04T12:16:17Z</time></trkpt><trkpt lat="41.21610766239376" lon="15.02231655925387"><ele>279.6666666666667</ele><time>2026-04-04T12:16:18Z</time></trkpt><trkpt lat="41.21617148337977" lon="15.022517162267452"><ele>278.3333333333333</ele><time>2026-04-04T12:16:19Z</time></trkpt><trkpt lat="41.21624100199023" lon="15.022717811160536"><ele>277.0</ele><time>2026-04-04T12:16:20Z</time></trkpt><trkpt lat="41.21631092744067" lon="15.022923984474419"><ele>277.0</ele><time>2026-04-04T12:16:21Z</time></trkpt><trkpt lat="41.216382918018965" lon="15.023109533204224"><ele>277.0</ele><time>2026-04-04T12:16:22Z</time></trkpt><trkpt lat="41.21646588414512" lon="15.023266289282152"><ele>277.0</ele><time>2026-04-04T12:16:23Z</time></trkpt><trkpt lat="41.216572212247506" lon="15.023408238902986"><ele>277.5</ele><time>2026-04-04T12:16:24Z</time></trkpt><trkpt lat="41.21667534085071" lon="15.02353303688674"><ele>278.0</ele><time>2026-04-04T12:16:25Z</time></trkpt><trkpt lat="41.216776787601816" lon="15.02365135933224"><ele>278.5</ele><time>2026-04-04T12:16:26Z</time></trkpt><trkpt lat="41.216876192683586" lon="15.023791290099426"><ele>279.0</ele><time>2026-04-04T12:16:27Z</time></trkpt><trkpt lat="41.21698420609512" lon="15.023935791615544"><ele>279.0</ele><time>2026-04-04T12:16:28Z</time></trkpt><trkpt lat="41.21708386573598" lon="15.024101064839881"><ele>279.0</ele><time>2026-04-04T12:16:29Z</time></trkpt><trkpt lat="41.21717330749355" lon="15.024280221417616"><ele>279.0</ele><time>2026-04-04T12:16:30Z</time></trkpt><trkpt lat="41.217258591579" lon="15.024467793039655"><ele>279.0</ele><time>2026-04-04T12:16:31Z</time></trkpt><trkpt lat="41.21734264427168" lon="15.024665734754757"><ele>279.0</ele><time>2026-04-04T12:16:32Z</time></trkpt><trkpt lat="41.2174151065184" lon="15.024842642997745"><ele>279.0</ele><time>2026-04-04T12:16:32.999Z</time></trkpt><trkpt lat="41.217474934805935" lon="15.025004584038346"><ele>279.0</ele><time>2026-04-04T12:16:33.999Z</time></trkpt><trkpt lat="41.217527800971645" lon="15.025158249197952"><ele>279.0</ele><time>2026-04-04T12:16:34.999Z</time></trkpt><trkpt lat="41.2175706055523" lon="15.025285676221419"><ele>279.0</ele><time>2026-04-04T12:16:35.999Z</time></trkpt><trkpt lat="41.21760103751413" lon="15.025387643250172"><ele>279.0</ele><time>2026-04-04T12:16:36.999Z</time></trkpt><trkpt lat="41.21762229418197" lon="15.025478614771371"><ele>279.0</ele><time>2026-04-04T12:16:37.999Z</time></trkpt><trkpt lat="41.21761779841575" lon="15.025573868468355"><ele>279.0</ele><time>2026-04-04T12:16:38.999Z</time></trkpt><trkpt lat="41.21759752767849" lon="15.025666046958639"><ele>279.0</ele><time>2026-04-04T12:16:39.999Z</time></trkpt><trkpt lat="41.217569473659196" lon="15.025772239321558"><ele>279.0</ele><time>2026-04-04T12:16:40.999Z</time></trkpt><trkpt lat="41.21749797728095" lon="15.025850363428734"><ele>279.0</ele><time>2026-04-04T12:16:41.999Z</time></trkpt><trkpt lat="41.21743612569137" lon="15.025957644173873"><ele>279.0</ele><time>2026-04-04T12:16:42.999Z</time></trkpt><trkpt lat="41.217356802336205" lon="15.026043510946417"><ele>277.2</ele><time>2026-04-04T12:16:43.999Z</time></trkpt><trkpt lat="41.217282724643354" lon="15.026131377935569"><ele>275.4</ele><time>2026-04-04T12:16:44.999Z</time></trkpt><trkpt lat="41.21720809517047" lon="15.026217959571936"><ele>273.6</ele><time>2026-04-04T12:16:45.999Z</time></trkpt><trkpt lat="41.21713634542827" lon="15.02630561734276"><ele>271.8</ele><time>2026-04-04T12:16:46.999Z</time></trkpt><trkpt lat="41.2170662535172" lon="15.026399158628276"><ele>270.0</ele><time>2026-04-04T12:16:47.999Z</time></trkpt><trkpt lat="41.21699525650534" lon="15.026489608662606"><ele>270.0</ele><time>2026-04-04T12:16:48.999Z</time></trkpt><trkpt lat="41.21692999987068" lon="15.02657445617247"><ele>270.0</ele><time>2026-04-04T12:16:49.999Z</time></trkpt><trkpt lat="41.21686152998598" lon="15.026655321015443"><ele>270.0</ele><time>2026-04-04T12:16:50.999Z</time></trkpt><trkpt lat="41.21679447144544" lon="15.026737184607416"><ele>270.0</ele><time>2026-04-04T12:16:51.999Z</time></trkpt><trkpt lat="41.21672284509086" lon="15.026818893660916"><ele>270.0</ele><time>2026-04-04T12:16:52.999Z</time></trkpt><trkpt lat="41.216640733580185" lon="15.02692838242131"><ele>270.0</ele><time>2026-04-04T12:16:53.999Z</time></trkpt><trkpt lat="41.21655022244917" lon="15.027045314429841"><ele>270.0</ele><time>2026-04-04T12:16:54.999Z</time></trkpt><trkpt lat="41.216450948119935" lon="15.027170110017295"><ele>270.0</ele><time>2026-04-04T12:16:55.999Z</time></trkpt><trkpt lat="41.21633661152382" lon="15.027308915338825"><ele>270.0</ele><time>2026-04-04T12:16:56.999Z</time></trkpt><trkpt lat="41.21624131935192" lon="15.02742559009191"><ele>270.6</ele><time>2026-04-04T12:16:57.999Z</time></trkpt><trkpt lat="41.216153671142344" lon="15.02753715978435"><ele>271.2</ele><time>2026-04-04T12:16:58.999Z</time></trkpt><trkpt lat="41.2160750305456" lon="15.027633698952439"><ele>271.8</ele><time>2026-04-04T12:16:59.999Z</time></trkpt><trkpt lat="41.21601316741313" lon="15.027729432202863"><ele>272.4</ele><time>2026-04-04T12:17:00.999Z</time></trkpt><trkpt lat="41.215974523835925" lon="15.027840176368244"><ele>273.0</ele><time>2026-04-04T12:17:01.999Z</time></trkpt><trkpt lat="41.21597743496854" lon="15.027963714369667"><ele>273.0</ele><time>2026-04-04T12:17:02.999Z</time></trkpt><trkpt lat="41.2160227430434" lon="15.028073314671406"><ele>273.0</ele><time>2026-04-04T12:17:03.999Z</time></trkpt><trkpt lat="41.21610304479493" lon="15.028171202412734"><ele>273.0</ele><time>2026-04-04T12:17:04.999Z</time></trkpt><trkpt lat="41.21618487897181" lon="15.028320145951435"><ele>273.0</ele><time>2026-04-04T12:17:05.999Z</time></trkpt><trkpt lat="41.216290634403094" lon="15.028479846211672"><ele>273.3333333333333</ele><time>2026-04-04T12:17:06.999Z</time></trkpt><trkpt lat="41.21636831789217" lon="15.028658432622079"><ele>273.66666666666663</ele><time>2026-04-04T12:17:07.999Z</time></trkpt><trkpt lat="41.216423375084055" lon="15.028856373211028"><ele>274.0</ele><time>2026-04-04T12:17:08.999Z</time></trkpt><trkpt lat="41.21649250370366" lon="15.02905134070996"><ele>274.0</ele><time>2026-04-04T12:17:09.999Z</time></trkpt><trkpt lat="41.216555021518104" lon="15.02922317613186"><ele>274.0</ele><time>2026-04-04T12:17:10.999Z</time></trkpt><trkpt lat="41.21661310560451" lon="15.029378009315275"><ele>274.0</ele><time>2026-04-04T12:17:11.999Z</time></trkpt><trkpt lat="41.21667493445229" lon="15.029528706440088"><ele>274.0</ele><time>2026-04-04T12:17:12.999Z</time></trkpt><trkpt lat="41.21675891671693" lon="15.029667781891757"><ele>274.0</ele><time>2026-04-04T12:17:13.999Z</time></trkpt><trkpt lat="41.21683237130622" lon="15.02979981560763"><ele>274.0</ele><time>2026-04-04T12:17:14.999Z</time></trkpt><trkpt lat="41.2168835973729" lon="15.029926976250088"><ele>274.0</ele><time>2026-04-04T12:17:15.999Z</time></trkpt><trkpt lat="41.21694224292064" lon="15.030022736350038"><ele>274.0</ele><time>2026-04-04T12:17:16.999Z</time></trkpt><trkpt lat="41.21700066740299" lon="15.030104039288826"><ele>274.0</ele><time>2026-04-04T12:17:17.998Z</time></trkpt><trkpt lat="41.21702224673833" lon="15.030214388191625"><ele>274.8</ele><time>2026-04-04T12:17:19.998Z</time></trkpt><trkpt lat="41.21694070422835" lon="15.030330248444628"><ele>275.59999999999997</ele><time>2026-04-04T12:17:22.998Z</time></trkpt><trkpt lat="41.21687289766778" lon="15.030393088574595"><ele>276.4</ele><time>2026-04-04T12:17:23.998Z</time></trkpt><trkpt lat="41.216803665545164" lon="15.030517023862918"><ele>277.2</ele><time>2026-04-04T12:17:25.998Z</time></trkpt><trkpt lat="41.21679300785646" lon="15.0306161394255"><ele>278.0</ele><time>2026-04-04T12:17:26.998Z</time></trkpt><trkpt lat="41.21678648790156" lon="15.03074027381038"><ele>279.25</ele><time>2026-04-04T12:17:27.998Z</time></trkpt><trkpt lat="41.21685782868244" lon="15.030879779810524"><ele>280.5</ele><time>2026-04-04T12:17:28.998Z</time></trkpt><trkpt lat="41.216929071464286" lon="15.031029591665884"><ele>281.75</ele><time>2026-04-04T12:17:29.998Z</time></trkpt><trkpt lat="41.216998413057965" lon="15.031226600395586"><ele>283.0</ele><time>2026-04-04T12:17:30.998Z</time></trkpt><trkpt lat="41.217061447312474" lon="15.031424596086765"><ele>283.0</ele><time>2026-04-04T12:17:31.998Z</time></trkpt><trkpt lat="41.21713046820377" lon="15.031613789912264"><ele>283.0</ele><time>2026-04-04T12:17:32.998Z</time></trkpt><trkpt lat="41.217197929613135" lon="15.03180154005612"><ele>283.0</ele><time>2026-04-04T12:17:33.998Z</time></trkpt><trkpt lat="41.21725264983021" lon="15.03197515192078"><ele>283.75</ele><time>2026-04-04T12:17:34.998Z</time></trkpt><trkpt lat="41.21728760693269" lon="15.032137113043023"><ele>284.5</ele><time>2026-04-04T12:17:35.998Z</time></trkpt><trkpt lat="41.2173014206204" lon="15.032307421172346"><ele>285.25</ele><time>2026-04-04T12:17:36.998Z</time></trkpt><trkpt lat="41.21731939831661" lon="15.032490392404155"><ele>286.0</ele><time>2026-04-04T12:17:37.998Z</time></trkpt><trkpt lat="41.21730897818217" lon="15.032684684776994"><ele>290.3333333333333</ele><time>2026-04-04T12:17:38.998Z</time></trkpt><trkpt lat="41.21730528689827" lon="15.032887439648713"><ele>294.6666666666667</ele><time>2026-04-04T12:17:39.998Z</time></trkpt><trkpt lat="41.217312572916875" lon="15.033089916694534"><ele>299.0</ele><time>2026-04-04T12:17:40.998Z</time></trkpt><trkpt lat="41.217308454432334" lon="15.033303815507974"><ele>301.25</ele><time>2026-04-04T12:17:41.998Z</time></trkpt><trkpt lat="41.21730805272979" lon="15.033489047629386"><ele>303.5</ele><time>2026-04-04T12:17:42.998Z</time></trkpt><trkpt lat="41.21732793984058" lon="15.033671337825576"><ele>305.75</ele><time>2026-04-04T12:17:43.998Z</time></trkpt><trkpt lat="41.217400078639955" lon="15.033838188427517"><ele>308.0</ele><time>2026-04-04T12:17:44.998Z</time></trkpt><trkpt lat="41.2174831863966" lon="15.033980350903922"><ele>305.4</ele><time>2026-04-04T12:17:45.998Z</time></trkpt><trkpt lat="41.217548023271284" lon="15.034099172736255"><ele>302.8</ele><time>2026-04-04T12:17:46.998Z</time></trkpt><trkpt lat="41.21759002704713" lon="15.034197314290981"><ele>300.2</ele><time>2026-04-04T12:17:47.998Z</time></trkpt><trkpt lat="41.217586119385494" lon="15.034313607210562"><ele>297.6</ele><time>2026-04-04T12:17:48.998Z</time></trkpt><trkpt lat="41.21753612320995" lon="15.034427554591954"><ele>295.0</ele><time>2026-04-04T12:17:49.998Z</time></trkpt><trkpt lat="41.21745369752743" lon="15.034496232728726"><ele>295.0</ele><time>2026-04-04T12:17:50.998Z</time></trkpt><trkpt lat="41.21736354791856" lon="15.034481982342324"><ele>295.0</ele><time>2026-04-04T12:17:51.998Z</time></trkpt><trkpt lat="41.21729203444119" lon="15.034407476978577"><ele>295.0</ele><time>2026-04-04T12:17:52.998Z</time></trkpt><trkpt lat="41.21726662861944" lon="15.034270942333677"><ele>295.0</ele><time>2026-04-04T12:17:53.998Z</time></trkpt><trkpt lat="41.21720061941955" lon="15.034103143922342"><ele>295.0</ele><time>2026-04-04T12:17:54.998Z</time></trkpt><trkpt lat="41.21710352920689" lon="15.033961384362328"><ele>299.3333333333333</ele><time>2026-04-04T12:17:55.998Z</time></trkpt><trkpt lat="41.217016666650665" lon="15.033803105139325"><ele>303.6666666666667</ele><time>2026-04-04T12:17:56.998Z</time></trkpt><trkpt lat="41.21691723237917" lon="15.033614413470977"><ele>308.0</ele><time>2026-04-04T12:17:57.998Z</time></trkpt><trkpt lat="41.21680857972675" lon="15.033379822500155"><ele>305.0</ele><time>2026-04-04T12:17:58.998Z</time></trkpt><trkpt lat="41.2167200792955" lon="15.033167218103227"><ele>302.0</ele><time>2026-04-04T12:17:59.998Z</time></trkpt><trkpt lat="41.21664725964313" lon="15.032991011936149"><ele>299.0</ele><time>2026-04-04T12:18:00.998Z</time></trkpt><trkpt lat="41.21657873875076" lon="15.032851120659117"><ele>304.6666666666667</ele><time>2026-04-04T12:18:02Z</time></trkpt><trkpt lat="41.21647375442154" lon="15.0327430789512"><ele>310.3333333333333</ele><time>2026-04-04T12:18:03Z</time></trkpt><trkpt lat="41.216319230763865" lon="15.032630179402378"><ele>316.0</ele><time>2026-04-04T12:18:04Z</time></trkpt><trkpt lat="41.21615226536092" lon="15.03250057089309"><ele>312.0</ele><time>2026-04-04T12:18:05Z</time></trkpt><trkpt lat="41.216024554590916" lon="15.032313771473166"><ele>308.0</ele><time>2026-04-04T12:18:06Z</time></trkpt><trkpt lat="41.21589308484706" lon="15.0321727081605"><ele>304.0</ele><time>2026-04-04T12:18:07Z</time></trkpt><trkpt lat="41.2157923093027" lon="15.032075415716527"><ele>304.0</ele><time>2026-04-04T12:18:08Z</time></trkpt><trkpt lat="41.21570562127959" lon="15.032047835096622"><ele>304.0</ele><time>2026-04-04T12:18:09Z</time></trkpt><trkpt lat="41.2156498910224" lon="15.032092028225854"><ele>304.0</ele><time>2026-04-04T12:18:10Z</time></trkpt><trkpt lat="41.21562476304043" lon="15.03218666049916"><ele>304.0</ele><time>2026-04-04T12:18:11Z</time></trkpt><trkpt lat="41.21564615982517" lon="15.0323162918584"><ele>304.0</ele><time>2026-04-04T12:18:12Z</time></trkpt><trkpt lat="41.215707108625075" lon="15.03248898417906"><ele>308.0</ele><time>2026-04-04T12:18:13Z</time></trkpt><trkpt lat="41.215805355197006" lon="15.032687088504213"><ele>312.0</ele><time>2026-04-04T12:18:14Z</time></trkpt><trkpt lat="41.215925245957486" lon="15.032869692073367"><ele>316.0</ele><time>2026-04-04T12:18:15Z</time></trkpt><trkpt lat="41.21607168914823" lon="15.03303412315858"><ele>316.0</ele><time>2026-04-04T12:18:16Z</time></trkpt><trkpt lat="41.21619844223794" lon="15.033155327620122"><ele>316.0</ele><time>2026-04-04T12:18:17Z</time></trkpt><trkpt lat="41.21628160187165" lon="15.033287947027548"><ele>316.0</ele><time>2026-04-04T12:18:18Z</time></trkpt><trkpt lat="41.21633329247996" lon="15.033388406135101"><ele>316.0</ele><time>2026-04-04T12:18:19Z</time></trkpt><trkpt lat="41.21636791574084" lon="15.033476937185949"><ele>316.0</ele><time>2026-04-04T12:18:20Z</time></trkpt><trkpt lat="41.21633551954218" lon="15.03356089033221"><ele>316.0</ele><time>2026-04-04T12:18:21Z</time></trkpt><trkpt lat="41.21626742332667" lon="15.033553606351168"><ele>316.0</ele><time>2026-04-04T12:18:22Z</time></trkpt><trkpt lat="41.21620764135708" lon="15.033490964022914"><ele>316.0</ele><time>2026-04-04T12:18:23Z</time></trkpt><trkpt lat="41.216164089027735" lon="15.033370442965964"><ele>316.0</ele><time>2026-04-04T12:18:24Z</time></trkpt><trkpt lat="41.21608362827944" lon="15.033234785661918"><ele>316.0</ele><time>2026-04-04T12:18:25Z</time></trkpt><trkpt lat="41.21600287935567" lon="15.033163484702156"><ele>316.0</ele><time>2026-04-04T12:18:26Z</time></trkpt><trkpt lat="41.21589077637057" lon="15.033189997616361"><ele>316.0</ele><time>2026-04-04T12:18:28Z</time></trkpt><trkpt lat="41.21588154453983" lon="15.0332787309945"><ele>316.0</ele><time>2026-04-04T12:18:29Z</time></trkpt><trkpt lat="41.215916119384524" lon="15.03336412166461"><ele>316.0</ele><time>2026-04-04T12:18:30Z</time></trkpt><trkpt lat="41.215996211324814" lon="15.033432417458727"><ele>316.0</ele><time>2026-04-04T12:18:31Z</time></trkpt><trkpt lat="41.21608378758613" lon="15.033502493684113"><ele>318.6</ele><time>2026-04-04T12:18:32Z</time></trkpt><trkpt lat="41.21612456192636" lon="15.033592983289578"><ele>321.20000000000005</ele><time>2026-04-04T12:18:33Z</time></trkpt><trkpt lat="41.216106045391555" lon="15.033708876076433"><ele>323.79999999999995</ele><time>2026-04-04T12:18:34Z</time></trkpt><trkpt lat="41.21603557254699" lon="15.033790300974514"><ele>326.4</ele><time>2026-04-04T12:18:35Z</time></trkpt><trkpt lat="41.21595273626867" lon="15.033863015408874"><ele>329.0</ele><time>2026-04-04T12:18:36Z</time></trkpt><trkpt lat="41.215864799011044" lon="15.033960171677272"><ele>329.0</ele><time>2026-04-04T12:18:37Z</time></trkpt><trkpt lat="41.215778741226636" lon="15.034056512385675"><ele>329.0</ele><time>2026-04-04T12:18:38Z</time></trkpt><trkpt lat="41.21572163805237" lon="15.034146927563247"><ele>329.0</ele><time>2026-04-04T12:18:39Z</time></trkpt><trkpt lat="41.21565619379894" lon="15.034184022883721"><ele>329.0</ele><time>2026-04-04T12:18:39.999Z</time></trkpt><trkpt lat="41.215583442899586" lon="15.034179417419697"><ele>329.0</ele><time>2026-04-04T12:18:40.999Z</time></trkpt><trkpt lat="41.21550679673683" lon="15.034118401321756"><ele>329.0</ele><time>2026-04-04T12:18:41.999Z</time></trkpt><trkpt lat="41.2154246132999" lon="15.033994039943655"><ele>332.0</ele><time>2026-04-04T12:18:42.999Z</time></trkpt><trkpt lat="41.21532625156568" lon="15.033878059438393"><ele>335.0</ele><time>2026-04-04T12:18:43.999Z</time></trkpt><trkpt lat="41.2152198479769" lon="15.03378921932292"><ele>338.0</ele><time>2026-04-04T12:18:44.999Z</time></trkpt><trkpt lat="41.21512832069182" lon="15.03366774305625"><ele>341.0</ele><time>2026-04-04T12:18:45.999Z</time></trkpt><trkpt lat="41.21505931361548" lon="15.033496850022864"><ele>340.6666666666667</ele><time>2026-04-04T12:18:46.999Z</time></trkpt><trkpt lat="41.21500983444976" lon="15.033304019878662"><ele>340.3333333333333</ele><time>2026-04-04T12:18:47.999Z</time></trkpt><trkpt lat="41.215011493060324" lon="15.033062206713407"><ele>340.0</ele><time>2026-04-04T12:18:48.999Z</time></trkpt><trkpt lat="41.214996979123924" lon="15.032812036458942"><ele>340.0</ele><time>2026-04-04T12:18:49.999Z</time></trkpt><trkpt lat="41.21500031190261" lon="15.032607740122437"><ele>340.0</ele><time>2026-04-04T12:18:50.999Z</time></trkpt><trkpt lat="41.214978727260494" lon="15.032437695736267"><ele>340.0</ele><time>2026-04-04T12:18:51.999Z</time></trkpt><trkpt lat="41.214924855064936" lon="15.032286683303507"><ele>340.0</ele><time>2026-04-04T12:18:52.999Z</time></trkpt><trkpt lat="41.21485762575949" lon="15.03211752834805"><ele>343.25</ele><time>2026-04-04T12:18:53.999Z</time></trkpt><trkpt lat="41.21475255164002" lon="15.031995144947798"><ele>346.5</ele><time>2026-04-04T12:18:54.999Z</time></trkpt><trkpt lat="41.21460990342201" lon="15.031911305086552"><ele>349.75</ele><time>2026-04-04T12:18:55.999Z</time></trkpt><trkpt lat="41.21446320275638" lon="15.031868162090044"><ele>353.0</ele><time>2026-04-04T12:18:56.999Z</time></trkpt><trkpt lat="41.21434889179534" lon="15.03183247148531"><ele>353.0</ele><time>2026-04-04T12:18:57.999Z</time></trkpt><trkpt lat="41.21425501689128" lon="15.031839639928812"><ele>353.0</ele><time>2026-04-04T12:18:58.999Z</time></trkpt><trkpt lat="41.21419259212503" lon="15.03189826805084"><ele>353.0</ele><time>2026-04-04T12:18:59.999Z</time></trkpt><trkpt lat="41.2141679367723" lon="15.03201959507645"><ele>353.0</ele><time>2026-04-04T12:19:00.999Z</time></trkpt><trkpt lat="41.21420126242778" lon="15.032147141516027"><ele>353.0</ele><time>2026-04-04T12:19:01.999Z</time></trkpt><trkpt lat="41.21427669937983" lon="15.032261339223265"><ele>353.0</ele><time>2026-04-04T12:19:02.999Z</time></trkpt><trkpt lat="41.21436544783517" lon="15.032423411662874"><ele>353.0</ele><time>2026-04-04T12:19:03.999Z</time></trkpt><trkpt lat="41.214447648807706" lon="15.03261052334774"><ele>353.0</ele><time>2026-04-04T12:19:04.999Z</time></trkpt><trkpt lat="41.214496210440956" lon="15.032776707910417"><ele>353.0</ele><time>2026-04-04T12:19:05.999Z</time></trkpt><trkpt lat="41.21451799635804" lon="15.03294739478709"><ele>355.75</ele><time>2026-04-04T12:19:06.999Z</time></trkpt><trkpt lat="41.2145003527631" lon="15.033123714740722"><ele>358.5</ele><time>2026-04-04T12:19:07.999Z</time></trkpt><trkpt lat="41.214461444046876" lon="15.033290591678757"><ele>361.25</ele><time>2026-04-04T12:19:08.999Z</time></trkpt><trkpt lat="41.21442041449858" lon="15.03343429477708"><ele>364.0</ele><time>2026-04-04T12:19:09.999Z</time></trkpt><trkpt lat="41.21436179841387" lon="15.03348835494219"><ele>364.0</ele><time>2026-04-04T12:19:10.999Z</time></trkpt><trkpt lat="41.214298898349064" lon="15.033455434862105"><ele>364.0</ele><time>2026-04-04T12:19:11.999Z</time></trkpt><trkpt lat="41.214249745671204" lon="15.033352546468937"><ele>364.0</ele><time>2026-04-04T12:19:12.999Z</time></trkpt><trkpt lat="41.214296854882086" lon="15.033230877572986"><ele>364.0</ele><time>2026-04-04T12:19:13.999Z</time></trkpt><trkpt lat="41.21431517068597" lon="15.03306285803286"><ele>364.0</ele><time>2026-04-04T12:19:14.999Z</time></trkpt><trkpt lat="41.21428929430423" lon="15.032916978668062"><ele>364.0</ele><time>2026-04-04T12:19:15.999Z</time></trkpt><trkpt lat="41.21419029307919" lon="15.032793995588497"><ele>364.0</ele><time>2026-04-04T12:19:16.999Z</time></trkpt><trkpt lat="41.21407014382726" lon="15.032701374380233"><ele>364.0</ele><time>2026-04-04T12:19:17.999Z</time></trkpt><trkpt lat="41.21393611584368" lon="15.03254687720325"><ele>364.5</ele><time>2026-04-04T12:19:18.999Z</time></trkpt><trkpt lat="41.21381768605017" lon="15.032391519459747"><ele>365.0</ele><time>2026-04-04T12:19:19.999Z</time></trkpt><trkpt lat="41.2137705372702" lon="15.032244778051355"><ele>365.5</ele><time>2026-04-04T12:19:20.999Z</time></trkpt><trkpt lat="41.21371080418761" lon="15.032105459367312"><ele>366.0</ele><time>2026-04-04T12:19:21.999Z</time></trkpt><trkpt lat="41.213641199738625" lon="15.032009609632823"><ele>366.0</ele><time>2026-04-04T12:19:22.999Z</time></trkpt><trkpt lat="41.21353052385651" lon="15.032000340501442"><ele>366.0</ele><time>2026-04-04T12:19:23.999Z</time></trkpt><trkpt lat="41.21339818520992" lon="15.032018799124574"><ele>366.0</ele><time>2026-04-04T12:19:24.999Z</time></trkpt><trkpt lat="41.21323393216886" lon="15.032102575522362"><ele>366.0</ele><time>2026-04-04T12:19:25.998Z</time></trkpt><trkpt lat="41.21307615787059" lon="15.032161692463838"><ele>368.0</ele><time>2026-04-04T12:19:26.998Z</time></trkpt><trkpt lat="41.212890098414874" lon="15.032186691670365"><ele>370.0</ele><time>2026-04-04T12:19:27.998Z</time></trkpt><trkpt lat="41.21269340960103" lon="15.032186534528869"><ele>372.0</ele><time>2026-04-04T12:19:28.998Z</time></trkpt><trkpt lat="41.212514375282176" lon="15.032202497172777"><ele>372.0</ele><time>2026-04-04T12:19:29.998Z</time></trkpt><trkpt lat="41.212360679893706" lon="15.032209541970667"><ele>372.0</ele><time>2026-04-04T12:19:30.998Z</time></trkpt><trkpt lat="41.21221249212026" lon="15.03220574240764"><ele>372.0</ele><time>2026-04-04T12:19:31.998Z</time></trkpt><trkpt lat="41.212079322259235" lon="15.03214170714087"><ele>372.0</ele><time>2026-04-04T12:19:32.998Z</time></trkpt><trkpt lat="41.21196944268465" lon="15.032043190995884"><ele>374.8</ele><time>2026-04-04T12:19:33.998Z</time></trkpt><trkpt lat="41.21187814380435" lon="15.03197045896551"><ele>377.6</ele><time>2026-04-04T12:19:34.998Z</time></trkpt><trkpt lat="41.21180110730368" lon="15.031977617730236"><ele>380.40000000000003</ele><time>2026-04-04T12:19:35.998Z</time></trkpt><trkpt lat="41.21173213158097" lon="15.032058709835528"><ele>383.20000000000005</ele><time>2026-04-04T12:19:36.998Z</time></trkpt><trkpt lat="41.21167489627217" lon="15.032177942655299"><ele>386.0</ele><time>2026-04-04T12:19:37.998Z</time></trkpt><trkpt lat="41.21167731834375" lon="15.032302864229926"><ele>386.0</ele><time>2026-04-04T12:19:38.998Z</time></trkpt><trkpt lat="41.21169246737328" lon="15.032421583407157"><ele>386.0</ele><time>2026-04-04T12:19:39.998Z</time></trkpt><trkpt lat="41.21172226721181" lon="15.032545655352793"><ele>386.0</ele><time>2026-04-04T12:19:40.998Z</time></trkpt><trkpt lat="41.211760765977075" lon="15.032661875614544"><ele>386.0</ele><time>2026-04-04T12:19:41.998Z</time></trkpt><trkpt lat="41.21183145089832" lon="15.03275257358695"><ele>386.0</ele><time>2026-04-04T12:19:42.998Z</time></trkpt><trkpt lat="41.211909404053735" lon="15.032835492248692"><ele>387.8</ele><time>2026-04-04T12:19:43.998Z</time></trkpt><trkpt lat="41.21196061589912" lon="15.032944170599025"><ele>389.6</ele><time>2026-04-04T12:19:44.998Z</time></trkpt><trkpt lat="41.21201644803638" lon="15.03307703094067"><ele>391.4</ele><time>2026-04-04T12:19:45.998Z</time></trkpt><trkpt lat="41.21207754624285" lon="15.033189538941789"><ele>393.2</ele><time>2026-04-04T12:19:46.998Z</time></trkpt><trkpt lat="41.212143373143576" lon="15.03332036809428"><ele>395.0</ele><time>2026-04-04T12:19:47.998Z</time></trkpt><trkpt lat="41.2122501810692" lon="15.033417166018697"><ele>395.75</ele><time>2026-04-04T12:19:48.998Z</time></trkpt><trkpt lat="41.2123857782777" lon="15.033463526843878"><ele>396.5</ele><time>2026-04-04T12:19:49.998Z</time></trkpt><trkpt lat="41.21252284333218" lon="15.033494339074567"><ele>397.25</ele><time>2026-04-04T12:19:50.998Z</time></trkpt><trkpt lat="41.21266320318803" lon="15.033552490195529"><ele>398.0</ele><time>2026-04-04T12:19:51.998Z</time></trkpt><trkpt lat="41.212802729443595" lon="15.033596173641802"><ele>398.0</ele><time>2026-04-04T12:19:52.998Z</time></trkpt><trkpt lat="41.21294593563711" lon="15.033589500090551"><ele>398.0</ele><time>2026-04-04T12:19:53.998Z</time></trkpt><trkpt lat="41.213068276772574" lon="15.033528977873042"><ele>398.0</ele><time>2026-04-04T12:19:54.998Z</time></trkpt><trkpt lat="41.2131789041709" lon="15.033494348182575"><ele>398.0</ele><time>2026-04-04T12:19:55.998Z</time></trkpt><trkpt lat="41.213254455915596" lon="15.03348135507537"><ele>398.0</ele><time>2026-04-04T12:19:56.998Z</time></trkpt><trkpt lat="41.213300797133876" lon="15.033548777474635"><ele>398.0</ele><time>2026-04-04T12:19:57.998Z</time></trkpt><trkpt lat="41.2132958655894" lon="15.033639244887627"><ele>398.0</ele><time>2026-04-04T12:19:58.998Z</time></trkpt><trkpt lat="41.213226494235485" lon="15.033686482214932"><ele>398.0</ele><time>2026-04-04T12:19:59.998Z</time></trkpt><trkpt lat="41.21310657050817" lon="15.033736261523176"><ele>398.0</ele><time>2026-04-04T12:20:00.998Z</time></trkpt><trkpt lat="41.21297325893515" lon="15.033835747575786"><ele>398.0</ele><time>2026-04-04T12:20:01.998Z</time></trkpt><trkpt lat="41.212857929844446" lon="15.033935382244525"><ele>398.0</ele><time>2026-04-04T12:20:02.998Z</time></trkpt><trkpt lat="41.212741483920965" lon="15.03405685888666"><ele>398.0</ele><time>2026-04-04T12:20:03.998Z</time></trkpt><trkpt lat="41.2126185348071" lon="15.034174807463302"><ele>398.0</ele><time>2026-04-04T12:20:04.998Z</time></trkpt><trkpt lat="41.21249375567828" lon="15.034279692452188"><ele>401.0</ele><time>2026-04-04T12:20:05.998Z</time></trkpt><trkpt lat="41.21237644971015" lon="15.034385323562253"><ele>404.0</ele><time>2026-04-04T12:20:06.998Z</time></trkpt><trkpt lat="41.21226389190629" lon="15.034492461772688"><ele>407.0</ele><time>2026-04-04T12:20:08Z</time></trkpt><trkpt lat="41.21215772407229" lon="15.034600893220748"><ele>410.0</ele><time>2026-04-04T12:20:09Z</time></trkpt><trkpt lat="41.21205456433713" lon="15.034735193014408"><ele>412.75</ele><time>2026-04-04T12:20:10Z</time></trkpt><trkpt lat="41.211981774702515" lon="15.034893993882532"><ele>415.5</ele><time>2026-04-04T12:20:11Z</time></trkpt><trkpt lat="41.21192600398671" lon="15.035075859768543"><ele>418.25</ele><time>2026-04-04T12:20:12Z</time></trkpt><trkpt lat="41.21188964327099" lon="15.035254215499293"><ele>421.0</ele><time>2026-04-04T12:20:13Z</time></trkpt><trkpt lat="41.2118660862067" lon="15.035433800530523"><ele>422.00000000000006</ele><time>2026-04-04T12:20:14Z</time></trkpt><trkpt lat="41.21183977799193" lon="15.035564050240191"><ele>423.0</ele><time>2026-04-04T12:20:15Z</time></trkpt><trkpt lat="41.21180227536928" lon="15.035675478625791"><ele>424.0</ele><time>2026-04-04T12:20:16Z</time></trkpt><trkpt lat="41.21170576504899" lon="15.035718082810227"><ele>425.0</ele><time>2026-04-04T12:20:18Z</time></trkpt><trkpt lat="41.2116678117608" lon="15.03565011695681"><ele>426.00000000000006</ele><time>2026-04-04T12:20:19Z</time></trkpt><trkpt lat="41.21165481640618" lon="15.035535349984322"><ele>427.0</ele><time>2026-04-04T12:20:20Z</time></trkpt><trkpt lat="41.211680999706374" lon="15.035389152349714"><ele>427.0</ele><time>2026-04-04T12:20:21Z</time></trkpt><trkpt lat="41.211719624581065" lon="15.035185159224579"><ele>427.0</ele><time>2026-04-04T12:20:22Z</time></trkpt><trkpt lat="41.21171047500122" lon="15.035007122367915"><ele>427.0</ele><time>2026-04-04T12:20:23Z</time></trkpt><trkpt lat="41.21165752772409" lon="15.03483891707285"><ele>427.0</ele><time>2026-04-04T12:20:24Z</time></trkpt><trkpt lat="41.21156931704751" lon="15.03472769251103"><ele>429.0</ele><time>2026-04-04T12:20:25Z</time></trkpt><trkpt lat="41.21145803406732" lon="15.03464901055029"><ele>431.0</ele><time>2026-04-04T12:20:26Z</time></trkpt><trkpt lat="41.21131869409408" lon="15.034596042077482"><ele>433.0</ele><time>2026-04-04T12:20:27Z</time></trkpt><trkpt lat="41.211183587529526" lon="15.034531997189049"><ele>435.0</ele><time>2026-04-04T12:20:28Z</time></trkpt><trkpt lat="41.21106631610579" lon="15.034398661083193"><ele>435.0</ele><time>2026-04-04T12:20:29Z</time></trkpt><trkpt lat="41.21096065919188" lon="15.034210043314568"><ele>435.0</ele><time>2026-04-04T12:20:30Z</time></trkpt><trkpt lat="41.21087180616822" lon="15.034063137031149"><ele>435.0</ele><time>2026-04-04T12:20:31Z</time></trkpt><trkpt lat="41.21079007616589" lon="15.033982301478202"><ele>435.0</ele><time>2026-04-04T12:20:32Z</time></trkpt><trkpt lat="41.21070433183343" lon="15.033942633975625"><ele>435.4</ele><time>2026-04-04T12:20:33Z</time></trkpt><trkpt lat="41.21061218329538" lon="15.033966076862841"><ele>435.8</ele><time>2026-04-04T12:20:34Z</time></trkpt><trkpt lat="41.21053336434732" lon="15.034058003174845"><ele>436.20000000000005</ele><time>2026-04-04T12:20:35Z</time></trkpt><trkpt lat="41.210455597586474" lon="15.034187032289221"><ele>436.6</ele><time>2026-04-04T12:20:36Z</time></trkpt><trkpt lat="41.21039398940652" lon="15.034281820900986"><ele>437.0</ele><time>2026-04-04T12:20:37Z</time></trkpt><trkpt lat="41.21033281704051" lon="15.034320262048183"><ele>438.66666666666663</ele><time>2026-04-04T12:20:38Z</time></trkpt><trkpt lat="41.21025035681679" lon="15.034290625811153"><ele>440.3333333333333</ele><time>2026-04-04T12:20:39Z</time></trkpt><trkpt lat="41.210157728566" lon="15.034226756885936"><ele>442.0</ele><time>2026-04-04T12:20:40Z</time></trkpt><trkpt lat="41.21008761859864" lon="15.034198585864482"><ele>443.66666666666663</ele><time>2026-04-04T12:20:41Z</time></trkpt><trkpt lat="41.21002573066557" lon="15.03424105500911"><ele>445.3333333333333</ele><time>2026-04-04T12:20:42Z</time></trkpt><trkpt lat="41.21000611658972" lon="15.034326021858917"><ele>447.0</ele><time>2026-04-04T12:20:43Z</time></trkpt><trkpt lat="41.21000864321596" lon="15.03445805352311"><ele>447.0</ele><time>2026-04-04T12:20:44Z</time></trkpt><trkpt lat="41.21008107882125" lon="15.034558147769047"><ele>447.0</ele><time>2026-04-04T12:20:45Z</time></trkpt><trkpt lat="41.210192758013186" lon="15.034606125206203"><ele>447.0</ele><time>2026-04-04T12:20:45.999Z</time></trkpt><trkpt lat="41.210304495152094" lon="15.034694432600324"><ele>447.0</ele><time>2026-04-04T12:20:46.999Z</time></trkpt><trkpt lat="41.21044454073434" lon="15.034789371611444"><ele>447.0</ele><time>2026-04-04T12:20:47.999Z</time></trkpt><trkpt lat="41.21057328843134" lon="15.034827321008722"><ele>447.00000000000006</ele><time>2026-04-04T12:20:48.999Z</time></trkpt><trkpt lat="41.21065497444692" lon="15.034894856533723"><ele>447.00000000000006</ele><time>2026-04-04T12:20:49.999Z</time></trkpt><trkpt lat="41.21073260883656" lon="15.034960695248552"><ele>447.0</ele><time>2026-04-04T12:20:50.999Z</time></trkpt><trkpt lat="41.21079549585796" lon="15.035050201868273"><ele>447.0</ele><time>2026-04-04T12:20:51.999Z</time></trkpt><trkpt lat="41.21082859303948" lon="15.035187846232965"><ele>447.40000000000003</ele><time>2026-04-04T12:20:52.999Z</time></trkpt><trkpt lat="41.21086216011898" lon="15.035324856852188"><ele>447.80000000000007</ele><time>2026-04-04T12:20:53.999Z</time></trkpt><trkpt lat="41.21090789580329" lon="15.035445761923214"><ele>448.2</ele><time>2026-04-04T12:20:54.999Z</time></trkpt><trkpt lat="41.2109160609607" lon="15.035564604009176"><ele>448.6</ele><time>2026-04-04T12:20:55.999Z</time></trkpt><trkpt lat="41.210822769663864" lon="15.035642020289949"><ele>449.0</ele><time>2026-04-04T12:20:57.999Z</time></trkpt><trkpt lat="41.21076112287526" lon="15.035586675681568"><ele>449.0</ele><time>2026-04-04T12:20:58.999Z</time></trkpt><trkpt lat="41.21068254419341" lon="15.035458847459324"><ele>449.0</ele><time>2026-04-04T12:20:59.999Z</time></trkpt><trkpt lat="41.210603416131136" lon="15.035394906106523"><ele>449.0</ele><time>2026-04-04T12:21:00.999Z</time></trkpt><trkpt lat="41.210491612813975" lon="15.035369322898081"><ele>449.0</ele><time>2026-04-04T12:21:01.999Z</time></trkpt><trkpt lat="41.2103634074782" lon="15.03537463619364"><ele>451.25</ele><time>2026-04-04T12:21:02.999Z</time></trkpt><trkpt lat="41.21023555426055" lon="15.035430791629999"><ele>453.5</ele><time>2026-04-04T12:21:03.999Z</time></trkpt><trkpt lat="41.210116950269125" lon="15.035512371845595"><ele>455.75</ele><time>2026-04-04T12:21:04.999Z</time></trkpt><trkpt lat="41.21003163877741" lon="15.03560548587849"><ele>458.0</ele><time>2026-04-04T12:21:05.999Z</time></trkpt><trkpt lat="41.20994350750785" lon="15.035686147481828"><ele>458.0</ele><time>2026-04-04T12:21:06.999Z</time></trkpt><trkpt lat="41.20985314369089" lon="15.035683442266649"><ele>458.0</ele><time>2026-04-04T12:21:07.999Z</time></trkpt><trkpt lat="41.209759276356706" lon="15.03561971138787"><ele>458.0</ele><time>2026-04-04T12:21:08.999Z</time></trkpt><trkpt lat="41.20964557739408" lon="15.035500749907769"><ele>458.0</ele><time>2026-04-04T12:21:09.999Z</time></trkpt><trkpt lat="41.20952596573505" lon="15.035376154423826"><ele>464.0</ele><time>2026-04-04T12:21:10.999Z</time></trkpt><trkpt lat="41.20940608579234" lon="15.035249234108715"><ele>470.0</ele><time>2026-04-04T12:21:11.999Z</time></trkpt><trkpt lat="41.209304311182684" lon="15.03510270672165"><ele>476.0</ele><time>2026-04-04T12:21:12.999Z</time></trkpt><trkpt lat="41.20922280023694" lon="15.034939479237966"><ele>476.0</ele><time>2026-04-04T12:21:13.999Z</time></trkpt><trkpt lat="41.209186731259656" lon="15.034762916686867"><ele>476.0</ele><time>2026-04-04T12:21:14.999Z</time></trkpt><trkpt lat="41.209173337697486" lon="15.034551520202758"><ele>476.0</ele><time>2026-04-04T12:21:15.999Z</time></trkpt><trkpt lat="41.20915851608888" lon="15.034357073390073"><ele>476.0</ele><time>2026-04-04T12:21:16.999Z</time></trkpt><trkpt lat="41.20915842141626" lon="15.034191934836835"><ele>475.25</ele><time>2026-04-04T12:21:17.999Z</time></trkpt><trkpt lat="41.20911984226022" lon="15.034066250411628"><ele>474.5</ele><time>2026-04-04T12:21:18.999Z</time></trkpt><trkpt lat="41.20902691971863" lon="15.033983964130766"><ele>473.75</ele><time>2026-04-04T12:21:19.999Z</time></trkpt><trkpt lat="41.20889609307238" lon="15.033968386795909"><ele>473.0</ele><time>2026-04-04T12:21:20.999Z</time></trkpt><trkpt lat="41.20874810342804" lon="15.033996926244098"><ele>473.0</ele><time>2026-04-04T12:21:21.999Z</time></trkpt><trkpt lat="41.20863848414665" lon="15.034064165334549"><ele>473.0</ele><time>2026-04-04T12:21:22.999Z</time></trkpt><trkpt lat="41.208579093902244" lon="15.034174620026745"><ele>473.0</ele><time>2026-04-04T12:21:23.999Z</time></trkpt><trkpt lat="41.20855320970892" lon="15.034345157137736"><ele>473.0</ele><time>2026-04-04T12:21:24.999Z</time></trkpt><trkpt lat="41.20854071817545" lon="15.034577923487939"><ele>476.0</ele><time>2026-04-04T12:21:25.999Z</time></trkpt><trkpt lat="41.20851246479357" lon="15.034827037640614"><ele>479.0</ele><time>2026-04-04T12:21:26.999Z</time></trkpt><trkpt lat="41.2084464369425" lon="15.03505277985434"><ele>482.0</ele><time>2026-04-04T12:21:27.999Z</time></trkpt><trkpt lat="41.20836373019335" lon="15.035272965492705"><ele>482.3333333333333</ele><time>2026-04-04T12:21:28.999Z</time></trkpt><trkpt lat="41.2082612338514" lon="15.035494939920408"><ele>482.66666666666663</ele><time>2026-04-04T12:21:29.999Z</time></trkpt><trkpt lat="41.20814436518512" lon="15.035738778517997"><ele>483.0</ele><time>2026-04-04T12:21:30.999Z</time></trkpt><trkpt lat="41.20801553971071" lon="15.035975698112656"><ele>486.66666666666663</ele><time>2026-04-04T12:21:31.999Z</time></trkpt><trkpt lat="41.20790284885308" lon="15.036171249462681"><ele>490.3333333333333</ele><time>2026-04-04T12:21:32.998Z</time></trkpt><trkpt lat="41.20780375698067" lon="15.036331259102633"><ele>494.0</ele><time>2026-04-04T12:21:33.998Z</time></trkpt><trkpt lat="41.207706468355106" lon="15.036451080541774"><ele>494.0</ele><time>2026-04-04T12:21:34.998Z</time></trkpt><trkpt lat="41.20760330265344" lon="15.036501842211662"><ele>494.0</ele><time>2026-04-04T12:21:35.998Z</time></trkpt><trkpt lat="41.207477937632866" lon="15.036460869937523"><ele>494.0</ele><time>2026-04-04T12:21:36.998Z</time></trkpt><trkpt lat="41.2073388286661" lon="15.036370359385016"><ele>494.0</ele><time>2026-04-04T12:21:37.998Z</time></trkpt><trkpt lat="41.20719932571875" lon="15.036301139531723"><ele>494.5</ele><time>2026-04-04T12:21:38.998Z</time></trkpt><trkpt lat="41.20707233854483" lon="15.036275480437585"><ele>495.0</ele><time>2026-04-04T12:21:39.998Z</time></trkpt><trkpt lat="41.206947314715" lon="15.036331876654225"><ele>495.5</ele><time>2026-04-04T12:21:40.998Z</time></trkpt><trkpt lat="41.206841690103104" lon="15.036437458467596"><ele>496.0</ele><time>2026-04-04T12:21:41.998Z</time></trkpt><trkpt lat="41.206745118477684" lon="15.036555661822938"><ele>499.25</ele><time>2026-04-04T12:21:42.998Z</time></trkpt><trkpt lat="41.206658181511685" lon="15.036685764996966"><ele>502.5</ele><time>2026-04-04T12:21:43.998Z</time></trkpt><trkpt lat="41.20659353156501" lon="15.036835693752524"><ele>505.75</ele><time>2026-04-04T12:21:44.998Z</time></trkpt><trkpt lat="41.206515980108605" lon="15.036974580961909"><ele>509.0</ele><time>2026-04-04T12:21:45.998Z</time></trkpt><trkpt lat="41.206423604323625" lon="15.03705616889547"><ele>509.0</ele><time>2026-04-04T12:21:46.998Z</time></trkpt><trkpt lat="41.20632801478685" lon="15.037112077801153"><ele>509.0</ele><time>2026-04-04T12:21:47.998Z</time></trkpt><trkpt lat="41.2061880767187" lon="15.037097144011781"><ele>509.0</ele><time>2026-04-04T12:21:48.998Z</time></trkpt><trkpt lat="41.20602483526222" lon="15.037102751885023"><ele>509.0</ele><time>2026-04-04T12:21:49.998Z</time></trkpt><trkpt lat="41.205841457855115" lon="15.037092414608956"><ele>509.0</ele><time>2026-04-04T12:21:50.998Z</time></trkpt><trkpt lat="41.20566325792236" lon="15.037099229792746"><ele>509.0</ele><time>2026-04-04T12:21:51.998Z</time></trkpt><trkpt lat="41.20547821115826" lon="15.037115096110371"><ele>509.0</ele><time>2026-04-04T12:21:52.998Z</time></trkpt><trkpt lat="41.205282720121986" lon="15.037127690789424"><ele>511.0</ele><time>2026-04-04T12:21:53.998Z</time></trkpt><trkpt lat="41.20509103918373" lon="15.03713664495944"><ele>513.0</ele><time>2026-04-04T12:21:54.998Z</time></trkpt><trkpt lat="41.20492496610216" lon="15.037181049676416"><ele>515.0</ele><time>2026-04-04T12:21:55.998Z</time></trkpt><trkpt lat="41.20479681064287" lon="15.037254213966571"><ele>518.0</ele><time>2026-04-04T12:21:56.998Z</time></trkpt><trkpt lat="41.204680006101476" lon="15.037323413171574"><ele>521.0</ele><time>2026-04-04T12:21:57.998Z</time></trkpt><trkpt lat="41.204552599254626" lon="15.037321357753228"><ele>524.0</ele><time>2026-04-04T12:21:58.998Z</time></trkpt><trkpt lat="41.2044229957927" lon="15.037200292048624"><ele>527.0</ele><time>2026-04-04T12:21:59.998Z</time></trkpt><trkpt lat="41.20425318450115" lon="15.037142194021895"><ele>527.0</ele><time>2026-04-04T12:22:00.998Z</time></trkpt><trkpt lat="41.20408803129311" lon="15.037070897740128"><ele>527.0</ele><time>2026-04-04T12:22:01.998Z</time></trkpt><trkpt lat="41.203926227161716" lon="15.037018782922368"><ele>527.0</ele><time>2026-04-04T12:22:02.998Z</time></trkpt><trkpt lat="41.203784240096894" lon="15.036966823908747"><ele>529.3333333333333</ele><time>2026-04-04T12:22:03.998Z</time></trkpt><trkpt lat="41.20360404656754" lon="15.036916683635605"><ele>531.6666666666666</ele><time>2026-04-04T12:22:04.998Z</time></trkpt><trkpt lat="41.203436218112465" lon="15.036858684227726"><ele>534.0</ele><time>2026-04-04T12:22:05.998Z</time></trkpt><trkpt lat="41.20326250921096" lon="15.03680428862928"><ele>531.0</ele><time>2026-04-04T12:22:06.998Z</time></trkpt><trkpt lat="41.20309371792804" lon="15.036746032536215"><ele>528.0</ele><time>2026-04-04T12:22:07.998Z</time></trkpt><trkpt lat="41.20292102772627" lon="15.036688644549713"><ele>525.0</ele><time>2026-04-04T12:22:08.998Z</time></trkpt><trkpt lat="41.20275942619796" lon="15.036625820722566"><ele>525.0</ele><time>2026-04-04T12:22:09.998Z</time></trkpt><trkpt lat="41.2026209468645" lon="15.036510342384133"><ele>525.0</ele><time>2026-04-04T12:22:10.998Z</time></trkpt><trkpt lat="41.20246963125836" lon="15.036405378780191"><ele>525.0</ele><time>2026-04-04T12:22:11.998Z</time></trkpt><trkpt lat="41.2023613540031" lon="15.036279114147003"><ele>526.0</ele><time>2026-04-04T12:22:12.998Z</time></trkpt><trkpt lat="41.2022293537262" lon="15.036172542231505"><ele>527.0</ele><time>2026-04-04T12:22:14Z</time></trkpt><trkpt lat="41.202100388210646" lon="15.036134791539965"><ele>528.0</ele><time>2026-04-04T12:22:15Z</time></trkpt><trkpt lat="41.201977499296845" lon="15.036169624115665"><ele>529.0</ele><time>2026-04-04T12:22:16Z</time></trkpt><trkpt lat="41.20189083724125" lon="15.03626702134488"><ele>529.0</ele><time>2026-04-04T12:22:17Z</time></trkpt><trkpt lat="41.201819848909466" lon="15.03642602500173"><ele>529.0</ele><time>2026-04-04T12:22:18Z</time></trkpt><trkpt lat="41.20172102893848" lon="15.036636426232006"><ele>529.0</ele><time>2026-04-04T12:22:19Z</time></trkpt><trkpt lat="41.20162530602462" lon="15.03682205392724"><ele>532.75</ele><time>2026-04-04T12:22:20Z</time></trkpt><trkpt lat="41.20153067796798" lon="15.036998622205767"><ele>536.5</ele><time>2026-04-04T12:22:21Z</time></trkpt><trkpt lat="41.20144234360729" lon="15.037144310790376"><ele>540.25</ele><time>2026-04-04T12:22:22Z</time></trkpt><trkpt lat="41.201349073092715" lon="15.037246511777958"><ele>544.0</ele><time>2026-04-04T12:22:23Z</time></trkpt><trkpt lat="41.2012504999468" lon="15.037289934541178"><ele>544.0</ele><time>2026-04-04T12:22:24Z</time></trkpt><trkpt lat="41.201134093818034" lon="15.037280652369745"><ele>544.0</ele><time>2026-04-04T12:22:25Z</time></trkpt><trkpt lat="41.200992834150476" lon="15.037256722167301"><ele>544.0</ele><time>2026-04-04T12:22:26Z</time></trkpt><trkpt lat="41.200865454938054" lon="15.03717548418734"><ele>544.0</ele><time>2026-04-04T12:22:27Z</time></trkpt><trkpt lat="41.20074372906719" lon="15.037073831070103"><ele>546.25</ele><time>2026-04-04T12:22:28Z</time></trkpt><trkpt lat="41.20062281904654" lon="15.03696313063162"><ele>548.5</ele><time>2026-04-04T12:22:29Z</time></trkpt><trkpt lat="41.200498942427934" lon="15.036854663978648"><ele>550.75</ele><time>2026-04-04T12:22:30Z</time></trkpt><trkpt lat="41.20038751808203" lon="15.036762516031844"><ele>553.0</ele><time>2026-04-04T12:22:31Z</time></trkpt><trkpt lat="41.200288847270045" lon="15.036681297329173"><ele>551.25</ele><time>2026-04-04T12:22:32Z</time></trkpt><trkpt lat="41.200185517940156" lon="15.036623654277367"><ele>549.5</ele><time>2026-04-04T12:22:33Z</time></trkpt><trkpt lat="41.200062842605135" lon="15.036617999700908"><ele>547.75</ele><time>2026-04-04T12:22:34Z</time></trkpt><trkpt lat="41.199940920703845" lon="15.03660884579295"><ele>546.0</ele><time>2026-04-04T12:22:35Z</time></trkpt><trkpt lat="41.19981464482372" lon="15.036606089702428"><ele>546.0</ele><time>2026-04-04T12:22:36Z</time></trkpt><trkpt lat="41.199678342860004" lon="15.03660310336317"><ele>546.0</ele><time>2026-04-04T12:22:37Z</time></trkpt><trkpt lat="41.19953613817468" lon="15.03660062323557"><ele>546.0</ele><time>2026-04-04T12:22:38Z</time></trkpt><trkpt lat="41.19939763126946" lon="15.036616930981417"><ele>546.0</ele><time>2026-04-04T12:22:39Z</time></trkpt><trkpt lat="41.19925594186172" lon="15.036613683391456"><ele>546.0</ele><time>2026-04-04T12:22:40Z</time></trkpt><trkpt lat="41.19910936964863" lon="15.036597756155421"><ele>546.0</ele><time>2026-04-04T12:22:41Z</time></trkpt><trkpt lat="41.19896254816794" lon="15.036596500292655"><ele>546.0</ele><time>2026-04-04T12:22:42Z</time></trkpt><trkpt lat="41.198827593339125" lon="15.036577628044988"><ele>546.0</ele><time>2026-04-04T12:22:43Z</time></trkpt><trkpt lat="41.19869360576062" lon="15.036574640444629"><ele>546.5</ele><time>2026-04-04T12:22:44Z</time></trkpt><trkpt lat="41.19856518207981" lon="15.036572197355262"><ele>547.0</ele><time>2026-04-04T12:22:45Z</time></trkpt><trkpt lat="41.19844007592458" lon="15.036580105790952"><ele>547.5</ele><time>2026-04-04T12:22:46Z</time></trkpt><trkpt lat="41.19831328317399" lon="15.036542653730677"><ele>548.0</ele><time>2026-04-04T12:22:47Z</time></trkpt><trkpt lat="41.198191051400464" lon="15.036484497086333"><ele>551.75</ele><time>2026-04-04T12:22:48Z</time></trkpt><trkpt lat="41.19807739600302" lon="15.036395573517414"><ele>555.5</ele><time>2026-04-04T12:22:49Z</time></trkpt><trkpt lat="41.19796557324981" lon="15.036274206159177"><ele>559.25</ele><time>2026-04-04T12:22:50Z</time></trkpt><trkpt lat="41.19785770446676" lon="15.036140210303397"><ele>563.0</ele><time>2026-04-04T12:22:50.999Z</time></trkpt><trkpt lat="41.19775094015824" lon="15.036008191461915"><ele>563.0</ele><time>2026-04-04T12:22:51.999Z</time></trkpt><trkpt lat="41.19763783936351" lon="15.035866843022426"><ele>563.0</ele><time>2026-04-04T12:22:52.999Z</time></trkpt><trkpt lat="41.19752196806613" lon="15.035712530135443"><ele>563.0</ele><time>2026-04-04T12:22:53.999Z</time></trkpt><trkpt lat="41.197404353974896" lon="15.035555856171053"><ele>564.3333333333333</ele><time>2026-04-04T12:22:54.999Z</time></trkpt><trkpt lat="41.197288450003335" lon="15.0353952403036"><ele>565.6666666666666</ele><time>2026-04-04T12:22:55.999Z</time></trkpt><trkpt lat="41.197166495511084" lon="15.035226663655306"><ele>567.0</ele><time>2026-04-04T12:22:56.999Z</time></trkpt><trkpt lat="41.19704883861264" lon="15.035061706978729"><ele>564.5</ele><time>2026-04-04T12:22:57.999Z</time></trkpt><trkpt lat="41.19694342109658" lon="15.034903852068132"><ele>562.0</ele><time>2026-04-04T12:22:58.999Z</time></trkpt><trkpt lat="41.196844432583006" lon="15.03474654841403"><ele>559.5</ele><time>2026-04-04T12:22:59.999Z</time></trkpt><trkpt lat="41.19676234905159" lon="15.034610677992815"><ele>557.0</ele><time>2026-04-04T12:23:00.999Z</time></trkpt><trkpt lat="41.19664816489136" lon="15.034529163678027"><ele>557.0</ele><time>2026-04-04T12:23:02.999Z</time></trkpt><trkpt lat="41.1965797771552" lon="15.034464822201853"><ele>557.0</ele><time>2026-04-04T12:23:03.999Z</time></trkpt><trkpt lat="41.196513140447706" lon="15.034459141853437"><ele>557.0</ele><time>2026-04-04T12:23:04.999Z</time></trkpt><trkpt lat="41.1964285405886" lon="15.034581847462327"><ele>557.0</ele><time>2026-04-04T12:23:06.999Z</time></trkpt><trkpt lat="41.19638327282998" lon="15.034678887079767"><ele>557.0</ele><time>2026-04-04T12:23:09.999Z</time></trkpt><trkpt lat="41.196471300948275" lon="15.034828683406328"><ele>557.0</ele><time>2026-04-04T12:23:10.999Z</time></trkpt><trkpt lat="41.19654870709188" lon="15.034950029962879"><ele>557.0</ele><time>2026-04-04T12:23:11.999Z</time></trkpt><trkpt lat="41.19662743664693" lon="15.035051575091655"><ele>557.0</ele><time>2026-04-04T12:23:12.999Z</time></trkpt><trkpt lat="41.196722417815465" lon="15.035175297130937"><ele>557.0</ele><time>2026-04-04T12:23:13.999Z</time></trkpt><trkpt lat="41.196812349815474" lon="15.035333794301252"><ele>560.3333333333333</ele><time>2026-04-04T12:23:14.999Z</time></trkpt><trkpt lat="41.196891180832864" lon="15.035495919270632"><ele>563.6666666666666</ele><time>2026-04-04T12:23:15.999Z</time></trkpt><trkpt lat="41.19695694892182" lon="15.035675998850246"><ele>567.0</ele><time>2026-04-04T12:23:16.999Z</time></trkpt><trkpt lat="41.197015032874134" lon="15.03586952167974"><ele>568.25</ele><time>2026-04-04T12:23:17.999Z</time></trkpt><trkpt lat="41.1970898557775" lon="15.036057571606435"><ele>569.5</ele><time>2026-04-04T12:23:18.999Z</time></trkpt><trkpt lat="41.19714060709947" lon="15.036236625215382"><ele>570.75</ele><time>2026-04-04T12:23:19.999Z</time></trkpt><trkpt lat="41.19719257386512" lon="15.036372381671134"><ele>572.0</ele><time>2026-04-04T12:23:20.999Z</time></trkpt><trkpt lat="41.19722813864294" lon="15.03650797687042"><ele>572.0</ele><time>2026-04-04T12:23:21.999Z</time></trkpt><trkpt lat="41.197256106004374" lon="15.036635213579306"><ele>572.0</ele><time>2026-04-04T12:23:22.999Z</time></trkpt><trkpt lat="41.19724321951267" lon="15.036760340175809"><ele>572.0</ele><time>2026-04-04T12:23:23.999Z</time></trkpt><trkpt lat="41.197139109462796" lon="15.0368250216815"><ele>572.0</ele><time>2026-04-04T12:23:24.999Z</time></trkpt><trkpt lat="41.19704875892904" lon="15.036939633192846"><ele>572.0</ele><time>2026-04-04T12:23:25.999Z</time></trkpt><trkpt lat="41.1969523423282" lon="15.037041359990742"><ele>572.75</ele><time>2026-04-04T12:23:26.999Z</time></trkpt><trkpt lat="41.19688829350878" lon="15.037126588292558"><ele>573.5</ele><time>2026-04-04T12:23:27.999Z</time></trkpt><trkpt lat="41.196849920116335" lon="15.037244796749544"><ele>574.25</ele><time>2026-04-04T12:23:28.999Z</time></trkpt><trkpt lat="41.19671177960839" lon="15.03729454589621"><ele>575.0</ele><time>2026-04-04T12:23:29.999Z</time></trkpt><trkpt lat="41.19688519836597" lon="15.037530244673542"><ele>575.75</ele><time>2026-04-04T12:23:30.999Z</time></trkpt><trkpt lat="41.19694855369329" lon="15.037807541642469"><ele>576.5</ele><time>2026-04-04T12:23:32.999Z</time></trkpt><trkpt lat="41.196966218643304" lon="15.0379512338048"><ele>577.25</ele><time>2026-04-04T12:23:33.999Z</time></trkpt><trkpt lat="41.19699357241884" lon="15.03809368244855"><ele>578.0</ele><time>2026-04-04T12:23:34.999Z</time></trkpt><trkpt lat="41.197016290229534" lon="15.038244199089771"><ele>579.0</ele><time>2026-04-04T12:23:35.998Z</time></trkpt><trkpt lat="41.19704118275217" lon="15.038393561910278"><ele>580.0</ele><time>2026-04-04T12:23:36.998Z</time></trkpt><trkpt lat="41.197073436537174" lon="15.038542016751947"><ele>581.0</ele><time>2026-04-04T12:23:37.998Z</time></trkpt><trkpt lat="41.19710305743405" lon="15.038689328047589"><ele>582.0</ele><time>2026-04-04T12:23:38.998Z</time></trkpt><trkpt lat="41.19712885343026" lon="15.038832958777158"><ele>582.0</ele><time>2026-04-04T12:23:39.998Z</time></trkpt><trkpt lat="41.197154808131444" lon="15.038962003964649"><ele>582.0</ele><time>2026-04-04T12:23:40.998Z</time></trkpt><trkpt lat="41.19717990869681" lon="15.039072621022399"><ele>582.0</ele><time>2026-04-04T12:23:41.998Z</time></trkpt><trkpt lat="41.19718867206053" lon="15.039164103303342"><ele>582.0</ele><time>2026-04-04T12:23:42.998Z</time></trkpt><trkpt lat="41.19716808160316" lon="15.039243932704766"><ele>582.0</ele><time>2026-04-04T12:23:43.998Z</time></trkpt><trkpt lat="41.19713340648865" lon="15.039340700041315"><ele>582.0</ele><time>2026-04-04T12:23:44.998Z</time></trkpt><trkpt lat="41.197070472178574" lon="15.03944946096056"><ele>583.25</ele><time>2026-04-04T12:23:45.998Z</time></trkpt><trkpt lat="41.19700295016484" lon="15.039552380241275"><ele>584.5</ele><time>2026-04-04T12:23:46.998Z</time></trkpt><trkpt lat="41.196918220965465" lon="15.039646667273308"><ele>585.75</ele><time>2026-04-04T12:23:47.998Z</time></trkpt><trkpt lat="41.19681578823185" lon="15.039728866855734"><ele>587.0</ele><time>2026-04-04T12:23:48.998Z</time></trkpt><trkpt lat="41.196697636270606" lon="15.039783282833746"><ele>587.0</ele><time>2026-04-04T12:23:49.998Z</time></trkpt><trkpt lat="41.196569227085085" lon="15.039829292192865"><ele>587.0</ele><time>2026-04-04T12:23:50.998Z</time></trkpt><trkpt lat="41.19643348252363" lon="15.039886939898357"><ele>587.0</ele><time>2026-04-04T12:23:51.998Z</time></trkpt><trkpt lat="41.19631662539423" lon="15.039943267538568"><ele>587.0</ele><time>2026-04-04T12:23:52.998Z</time></trkpt><trkpt lat="41.196215291593646" lon="15.040009284109539"><ele>588.5</ele><time>2026-04-04T12:23:53.998Z</time></trkpt><trkpt lat="41.19612918418011" lon="15.040092380066563"><ele>590.0</ele><time>2026-04-04T12:23:54.998Z</time></trkpt><trkpt lat="41.19603487731634" lon="15.040191188206716"><ele>591.5</ele><time>2026-04-04T12:23:55.998Z</time></trkpt><trkpt lat="41.19593932447739" lon="15.04028396433055"><ele>593.0</ele><time>2026-04-04T12:23:56.998Z</time></trkpt><trkpt lat="41.195838699198966" lon="15.040373828452719"><ele>593.0</ele><time>2026-04-04T12:23:57.998Z</time></trkpt><trkpt lat="41.19573592515819" lon="15.040467368321083"><ele>593.0</ele><time>2026-04-04T12:23:58.998Z</time></trkpt><trkpt lat="41.1956308645132" lon="15.04057285694859"><ele>593.0</ele><time>2026-04-04T12:23:59.998Z</time></trkpt><trkpt lat="41.1955273882828" lon="15.040663348274787"><ele>593.0</ele><time>2026-04-04T12:24:00.998Z</time></trkpt><trkpt lat="41.19542187507232" lon="15.04076528629657"><ele>593.75</ele><time>2026-04-04T12:24:01.998Z</time></trkpt><trkpt lat="41.195321917969856" lon="15.040869395549922"><ele>594.5</ele><time>2026-04-04T12:24:02.998Z</time></trkpt><trkpt lat="41.19522416737677" lon="15.040986559154714"><ele>595.25</ele><time>2026-04-04T12:24:03.998Z</time></trkpt><trkpt lat="41.19513067873432" lon="15.041115223717055"><ele>596.0</ele><time>2026-04-04T12:24:04.998Z</time></trkpt><trkpt lat="41.19503953234344" lon="15.041248217479504"><ele>596.0</ele><time>2026-04-04T12:24:05.998Z</time></trkpt><trkpt lat="41.194947549415524" lon="15.041387518691598"><ele>596.0</ele><time>2026-04-04T12:24:06.998Z</time></trkpt><trkpt lat="41.19485861387544" lon="15.04152594042774"><ele>596.0</ele><time>2026-04-04T12:24:07.998Z</time></trkpt><trkpt lat="41.194769200753925" lon="15.041696265502896"><ele>596.0</ele><time>2026-04-04T12:24:08.998Z</time></trkpt><trkpt lat="41.194693772666646" lon="15.041830626364419"><ele>597.5</ele><time>2026-04-04T12:24:09.998Z</time></trkpt><trkpt lat="41.19461716881805" lon="15.041974101746977"><ele>599.0</ele><time>2026-04-04T12:24:10.998Z</time></trkpt><trkpt lat="41.19455161409796" lon="15.042096146277254"><ele>600.5</ele><time>2026-04-04T12:24:11.998Z</time></trkpt><trkpt lat="41.1944770526499" lon="15.042192734985772"><ele>602.0</ele><time>2026-04-04T12:24:12.998Z</time></trkpt><trkpt lat="41.194375411957246" lon="15.042250443980956"><ele>602.0</ele><time>2026-04-04T12:24:13.998Z</time></trkpt><trkpt lat="41.19425529941484" lon="15.042232822863653"><ele>602.0</ele><time>2026-04-04T12:24:14.998Z</time></trkpt><trkpt lat="41.194135341969634" lon="15.042132231851149"><ele>602.0</ele><time>2026-04-04T12:24:15.998Z</time></trkpt><trkpt lat="41.1939796166208" lon="15.042045045595783"><ele>602.0</ele><time>2026-04-04T12:24:16.998Z</time></trkpt><trkpt lat="41.19384595781162" lon="15.041960077877622"><ele>603.5</ele><time>2026-04-04T12:24:17.998Z</time></trkpt><trkpt lat="41.19373602767355" lon="15.041900979426318"><ele>605.0</ele><time>2026-04-04T12:24:18.998Z</time></trkpt><trkpt lat="41.193630800606485" lon="15.041846124882516"><ele>606.5</ele><time>2026-04-04T12:24:20Z</time></trkpt><trkpt lat="41.193511875151955" lon="15.041787160920604"><ele>608.0</ele><time>2026-04-04T12:24:21Z</time></trkpt><trkpt lat="41.1933960555966" lon="15.041760633765437"><ele>608.0</ele><time>2026-04-04T12:24:22Z</time></trkpt><trkpt lat="41.19327491089636" lon="15.041742530646976"><ele>608.0</ele><time>2026-04-04T12:24:23Z</time></trkpt><trkpt lat="41.19316968644437" lon="15.041728898752533"><ele>608.0</ele><time>2026-04-04T12:24:24Z</time></trkpt><trkpt lat="41.193068723089446" lon="15.04172215485242"><ele>608.0</ele><time>2026-04-04T12:24:25Z</time></trkpt><trkpt lat="41.1929593814098" lon="15.041712353941566"><ele>608.0</ele><time>2026-04-04T12:24:26Z</time></trkpt><trkpt lat="41.19284985511707" lon="15.041684025965935"><ele>605.8</ele><time>2026-04-04T12:24:27Z</time></trkpt><trkpt lat="41.19275334375865" lon="15.04163056780395"><ele>603.5999999999999</ele><time>2026-04-04T12:24:28Z</time></trkpt><trkpt lat="41.192663110325746" lon="15.041550158956976"><ele>601.4000000000001</ele><time>2026-04-04T12:24:29Z</time></trkpt><trkpt lat="41.1925788014082" lon="15.041456301574728"><ele>599.2</ele><time>2026-04-04T12:24:30Z</time></trkpt><trkpt lat="41.192508303665726" lon="15.041369622444375"><ele>597.0</ele><time>2026-04-04T12:24:31Z</time></trkpt><trkpt lat="41.19244955062795" lon="15.04129852259293"><ele>597.0</ele><time>2026-04-04T12:24:32Z</time></trkpt><trkpt lat="41.1923899101224" lon="15.041241768761823"><ele>597.0</ele><time>2026-04-04T12:24:33Z</time></trkpt><trkpt lat="41.19233356057515" lon="15.04120385235588"><ele>597.0</ele><time>2026-04-04T12:24:34Z</time></trkpt><trkpt lat="41.19222670190168" lon="15.041232021947918"><ele>597.0</ele><time>2026-04-04T12:24:36Z</time></trkpt><trkpt lat="41.192167569942086" lon="15.041308166082926"><ele>597.0</ele><time>2026-04-04T12:24:37Z</time></trkpt><trkpt lat="41.19213631405063" lon="15.041427137099342"><ele>597.0</ele><time>2026-04-04T12:24:38Z</time></trkpt><trkpt lat="41.19213432126833" lon="15.041540817793377"><ele>594.6</ele><time>2026-04-04T12:24:39Z</time></trkpt><trkpt lat="41.192138163998585" lon="15.041664380570566"><ele>592.2</ele><time>2026-04-04T12:24:40Z</time></trkpt><trkpt lat="41.19213742119414" lon="15.04179498963705"><ele>589.8</ele><time>2026-04-04T12:24:41Z</time></trkpt><trkpt lat="41.19214285775493" lon="15.041933121797264"><ele>587.4</ele><time>2026-04-04T12:24:42Z</time></trkpt><trkpt lat="41.192155159794815" lon="15.042056401266008"><ele>585.0</ele><time>2026-04-04T12:24:43Z</time></trkpt><trkpt lat="41.19218715231519" lon="15.042204609739628"><ele>585.0</ele><time>2026-04-04T12:24:44Z</time></trkpt><trkpt lat="41.19222626968282" lon="15.042347821125688"><ele>585.0</ele><time>2026-04-04T12:24:45Z</time></trkpt><trkpt lat="41.192275083620025" lon="15.042495344730145"><ele>585.0</ele><time>2026-04-04T12:24:46Z</time></trkpt><trkpt lat="41.19233447051794" lon="15.042637142844585"><ele>585.0</ele><time>2026-04-04T12:24:47Z</time></trkpt><trkpt lat="41.192396883362136" lon="15.04277843047871"><ele>591.25</ele><time>2026-04-04T12:24:48Z</time></trkpt><trkpt lat="41.19246717655592" lon="15.042908798377162"><ele>597.5</ele><time>2026-04-04T12:24:49Z</time></trkpt><trkpt lat="41.19253272985938" lon="15.043039902280709"><ele>603.75</ele><time>2026-04-04T12:24:50Z</time></trkpt><trkpt lat="41.19259542311756" lon="15.043166931352628"><ele>610.0</ele><time>2026-04-04T12:24:51Z</time></trkpt><trkpt lat="41.1926515734358" lon="15.043294068081554"><ele>607.2</ele><time>2026-04-04T12:24:52Z</time></trkpt><trkpt lat="41.19270193421558" lon="15.043424839483256"><ele>604.4</ele><time>2026-04-04T12:24:53Z</time></trkpt><trkpt lat="41.19275468234123" lon="15.04354848924164"><ele>601.6</ele><time>2026-04-04T12:24:54Z</time></trkpt><trkpt lat="41.192807252231646" lon="15.04367722050362"><ele>598.8</ele><time>2026-04-04T12:24:55Z</time></trkpt><trkpt lat="41.19286869082937" lon="15.04381454716129"><ele>596.0</ele><time>2026-04-04T12:24:56Z</time></trkpt><trkpt lat="41.1929407052053" lon="15.043960929317468"><ele>596.0</ele><time>2026-04-04T12:24:57Z</time></trkpt><trkpt lat="41.193013158042014" lon="15.044107624760745"><ele>596.0</ele><time>2026-04-04T12:24:57.999Z</time></trkpt><trkpt lat="41.193076181517895" lon="15.044257655271288"><ele>596.0</ele><time>2026-04-04T12:24:58.999Z</time></trkpt><trkpt lat="41.193135597103286" lon="15.044395151295223"><ele>596.0</ele><time>2026-04-04T12:24:59.999Z</time></trkpt><trkpt lat="41.1931711691269" lon="15.044550109882737"><ele>591.0</ele><time>2026-04-04T12:25:00.999Z</time></trkpt><trkpt lat="41.19316975225382" lon="15.044733522212416"><ele>586.0</ele><time>2026-04-04T12:25:01.999Z</time></trkpt><trkpt lat="41.193114128129054" lon="15.044912778334739"><ele>581.0</ele><time>2026-04-04T12:25:02.999Z</time></trkpt><trkpt lat="41.193086626213365" lon="15.045084389008462"><ele>576.0</ele><time>2026-04-04T12:25:03.999Z</time></trkpt><trkpt lat="41.19304313399993" lon="15.045241061321795"><ele>573.75</ele><time>2026-04-04T12:25:04.999Z</time></trkpt><trkpt lat="41.19300430896193" lon="15.045390463527479"><ele>571.5</ele><time>2026-04-04T12:25:05.999Z</time></trkpt><trkpt lat="41.19297418746969" lon="15.045538332641437"><ele>569.25</ele><time>2026-04-04T12:25:06.999Z</time></trkpt><trkpt lat="41.192962697094075" lon="15.0456935182483"><ele>567.0</ele><time>2026-04-04T12:25:07.999Z</time></trkpt><trkpt lat="41.19297514015914" lon="15.045852008167085"><ele>566.5</ele><time>2026-04-04T12:25:08.999Z</time></trkpt><trkpt lat="41.19301648150006" lon="15.046001078711347"><ele>566.0</ele><time>2026-04-04T12:25:09.999Z</time></trkpt><trkpt lat="41.19308519262801" lon="15.046151855742927"><ele>565.5</ele><time>2026-04-04T12:25:10.999Z</time></trkpt><trkpt lat="41.193164188945495" lon="15.046293666671023"><ele>565.0</ele><time>2026-04-04T12:25:11.999Z</time></trkpt><trkpt lat="41.19324435192304" lon="15.046434073489099"><ele>567.75</ele><time>2026-04-04T12:25:12.999Z</time></trkpt><trkpt lat="41.19333482345305" lon="15.04656772463019"><ele>570.5</ele><time>2026-04-04T12:25:13.999Z</time></trkpt><trkpt lat="41.1934118127661" lon="15.046696397297993"><ele>573.25</ele><time>2026-04-04T12:25:14.999Z</time></trkpt><trkpt lat="41.193484416157354" lon="15.046813013163247"><ele>576.0</ele><time>2026-04-04T12:25:15.999Z</time></trkpt><trkpt lat="41.19355795621126" lon="15.046930209516798"><ele>576.0</ele><time>2026-04-04T12:25:16.999Z</time></trkpt><trkpt lat="41.193626001926916" lon="15.047048908075427"><ele>576.0</ele><time>2026-04-04T12:25:17.999Z</time></trkpt><trkpt lat="41.19369360816289" lon="15.047167230889793"><ele>576.0</ele><time>2026-04-04T12:25:18.999Z</time></trkpt><trkpt lat="41.193762380298274" lon="15.0472767705373"><ele>576.0</ele><time>2026-04-04T12:25:19.999Z</time></trkpt><trkpt lat="41.19383247723331" lon="15.047382515848225"><ele>576.0</ele><time>2026-04-04T12:25:20.999Z</time></trkpt><trkpt lat="41.193894718393175" lon="15.047497736909447"><ele>576.0</ele><time>2026-04-04T12:25:21.999Z</time></trkpt><trkpt lat="41.193957816020756" lon="15.047603531358181"><ele>576.0</ele><time>2026-04-04T12:25:22.999Z</time></trkpt><trkpt lat="41.1940199064861" lon="15.047705888094356"><ele>576.0</ele><time>2026-04-04T12:25:23.999Z</time></trkpt><trkpt lat="41.194065007275405" lon="15.04782358426126"><ele>576.0</ele><time>2026-04-04T12:25:24.999Z</time></trkpt><trkpt lat="41.19408681818994" lon="15.047951367828261"><ele>576.0</ele><time>2026-04-04T12:25:25.999Z</time></trkpt><trkpt lat="41.194092999395764" lon="15.048074630892172"><ele>576.0</ele><time>2026-04-04T12:25:26.999Z</time></trkpt><trkpt lat="41.19408438136191" lon="15.048212690932099"><ele>576.0</ele><time>2026-04-04T12:25:27.999Z</time></trkpt><trkpt lat="41.194055325938855" lon="15.048348967185651"><ele>576.0</ele><time>2026-04-04T12:25:28.999Z</time></trkpt><trkpt lat="41.194004696222706" lon="15.048473282668255"><ele>576.0</ele><time>2026-04-04T12:25:29.999Z</time></trkpt><trkpt lat="41.19394245459511" lon="15.048603325856943"><ele>576.0</ele><time>2026-04-04T12:25:30.999Z</time></trkpt><trkpt lat="41.19387317623476" lon="15.048713831857537"><ele>573.0</ele><time>2026-04-04T12:25:31.999Z</time></trkpt><trkpt lat="41.19379150958513" lon="15.04882403592368"><ele>570.0</ele><time>2026-04-04T12:25:32.999Z</time></trkpt><trkpt lat="41.19370965838434" lon="15.048933690975922"><ele>567.0</ele><time>2026-04-04T12:25:33.999Z</time></trkpt><trkpt lat="41.19362674918223" lon="15.049050898752203"><ele>564.0</ele><time>2026-04-04T12:25:34.999Z</time></trkpt><trkpt lat="41.19353743790476" lon="15.049165826954267"><ele>564.0</ele><time>2026-04-04T12:25:35.999Z</time></trkpt><trkpt lat="41.19344512416114" lon="15.049284150287873"><ele>564.0</ele><time>2026-04-04T12:25:36.999Z</time></trkpt><trkpt lat="41.1933502448319" lon="15.049401051752408"><ele>564.0</ele><time>2026-04-04T12:25:37.999Z</time></trkpt><trkpt lat="41.19325097902298" lon="15.049514838724274"><ele>564.0</ele><time>2026-04-04T12:25:38.999Z</time></trkpt><trkpt lat="41.193154318593876" lon="15.049627328093601"><ele>564.75</ele><time>2026-04-04T12:25:39.999Z</time></trkpt><trkpt lat="41.193047285843384" lon="15.04975628126144"><ele>565.5</ele><time>2026-04-04T12:25:40.999Z</time></trkpt><trkpt lat="41.192956842876534" lon="15.049863881389964"><ele>566.25</ele><time>2026-04-04T12:25:41.999Z</time></trkpt><trkpt lat="41.192861695979396" lon="15.049960582700606"><ele>567.0</ele><time>2026-04-04T12:25:42.999Z</time></trkpt><trkpt lat="41.19275982704324" lon="15.050082011781337"><ele>567.0</ele><time>2026-04-04T12:25:43.998Z</time></trkpt><trkpt lat="41.19266075602756" lon="15.050206206987829"><ele>567.0</ele><time>2026-04-04T12:25:44.998Z</time></trkpt><trkpt lat="41.19256464492606" lon="15.050331177891376"><ele>567.0</ele><time>2026-04-04T12:25:45.998Z</time></trkpt><trkpt lat="41.19246168373894" lon="15.050451354553712"><ele>567.0</ele><time>2026-04-04T12:25:46.998Z</time></trkpt><trkpt lat="41.192386454447785" lon="15.050559919640738"><ele>566.5</ele><time>2026-04-04T12:25:47.998Z</time></trkpt><trkpt lat="41.19231054550141" lon="15.050687807754223"><ele>566.0</ele><time>2026-04-04T12:25:48.998Z</time></trkpt><trkpt lat="41.19223125166366" lon="15.050827935489583"><ele>565.5</ele><time>2026-04-04T12:25:49.998Z</time></trkpt><trkpt lat="41.19216193449704" lon="15.050972626817314"><ele>565.0</ele><time>2026-04-04T12:25:50.998Z</time></trkpt><trkpt lat="41.19210843773447" lon="15.051109721232578"><ele>565.0</ele><time>2026-04-04T12:25:51.998Z</time></trkpt><trkpt lat="41.19205641913519" lon="15.051241904131198"><ele>565.0</ele><time>2026-04-04T12:25:52.998Z</time></trkpt><trkpt lat="41.19198902421815" lon="15.051369295151128"><ele>565.0</ele><time>2026-04-04T12:25:53.998Z</time></trkpt><trkpt lat="41.19191268067629" lon="15.051494399165696"><ele>565.0</ele><time>2026-04-04T12:25:54.998Z</time></trkpt><trkpt lat="41.19181402911824" lon="15.051579008743397"><ele>568.25</ele><time>2026-04-04T12:25:55.998Z</time></trkpt><trkpt lat="41.19171551143699" lon="15.051667767877463"><ele>571.5</ele><time>2026-04-04T12:25:56.998Z</time></trkpt><trkpt lat="41.1916051940441" lon="15.05173771226802"><ele>574.75</ele><time>2026-04-04T12:25:57.998Z</time></trkpt><trkpt lat="41.19148503931192" lon="15.051806149244214"><ele>578.0</ele><time>2026-04-04T12:25:58.998Z</time></trkpt><trkpt lat="41.19135715088219" lon="15.051825707901392"><ele>579.75</ele><time>2026-04-04T12:25:59.998Z</time></trkpt><trkpt lat="41.19123251211547" lon="15.051852853156875"><ele>581.5</ele><time>2026-04-04T12:26:00.998Z</time></trkpt><trkpt lat="41.19110905167965" lon="15.051894503018744"><ele>583.25</ele><time>2026-04-04T12:26:01.998Z</time></trkpt><trkpt lat="41.190991090670096" lon="15.0519143714229"><ele>585.0</ele><time>2026-04-04T12:26:02.998Z</time></trkpt><trkpt lat="41.19087844734745" lon="15.051932864049336"><ele>585.0</ele><time>2026-04-04T12:26:03.998Z</time></trkpt><trkpt lat="41.19077211137947" lon="15.051952925028527"><ele>585.0</ele><time>2026-04-04T12:26:04.998Z</time></trkpt><trkpt lat="41.19067470344112" lon="15.051970538534095"><ele>585.0</ele><time>2026-04-04T12:26:05.998Z</time></trkpt><trkpt lat="41.1905773131502" lon="15.051989692765213"><ele>585.0</ele><time>2026-04-04T12:26:06.998Z</time></trkpt><trkpt lat="41.1904796005647" lon="15.052006287541305"><ele>585.0</ele><time>2026-04-04T12:26:07.998Z</time></trkpt><trkpt lat="41.190372893580495" lon="15.052012397877505"><ele>586.4</ele><time>2026-04-04T12:26:08.998Z</time></trkpt><trkpt lat="41.190278870405805" lon="15.05206095904745"><ele>587.8</ele><time>2026-04-04T12:26:09.998Z</time></trkpt><trkpt lat="41.190190585613244" lon="15.05213174223042"><ele>589.2</ele><time>2026-04-04T12:26:10.998Z</time></trkpt><trkpt lat="41.19010860967735" lon="15.052183625361977"><ele>590.6</ele><time>2026-04-04T12:26:11.998Z</time></trkpt><trkpt lat="41.19006918595755" lon="15.052266008825029"><ele>592.0</ele><time>2026-04-04T12:26:12.998Z</time></trkpt><trkpt lat="41.189935176321576" lon="15.052208619173218"><ele>592.0</ele><time>2026-04-04T12:26:13.998Z</time></trkpt><trkpt lat="41.18985541170844" lon="15.052186521824082"><ele>592.0</ele><time>2026-04-04T12:26:14.998Z</time></trkpt><trkpt lat="41.18977320776223" lon="15.052159432104313"><ele>592.0</ele><time>2026-04-04T12:26:15.998Z</time></trkpt><trkpt lat="41.18968509069991" lon="15.05212944280838"><ele>592.0</ele><time>2026-04-04T12:26:16.998Z</time></trkpt><trkpt lat="41.18959224893954" lon="15.052104749543826"><ele>592.0</ele><time>2026-04-04T12:26:17.998Z</time></trkpt><trkpt lat="41.18949035847887" lon="15.052094410610941"><ele>592.2</ele><time>2026-04-04T12:26:18.998Z</time></trkpt><trkpt lat="41.18938735306956" lon="15.052088063053572"><ele>592.4000000000001</ele><time>2026-04-04T12:26:19.998Z</time></trkpt><trkpt lat="41.18928644089182" lon="15.05209349738826"><ele>592.5999999999999</ele><time>2026-04-04T12:26:20.998Z</time></trkpt><trkpt lat="41.18918643057682" lon="15.052102351549072"><ele>592.8</ele><time>2026-04-04T12:26:21.998Z</time></trkpt><trkpt lat="41.189091541934985" lon="15.05211999761569"><ele>593.0</ele><time>2026-04-04T12:26:22.998Z</time></trkpt><trkpt lat="41.18899785298482" lon="15.05212810553293"><ele>594.75</ele><time>2026-04-04T12:26:23.998Z</time></trkpt><trkpt lat="41.18889156224807" lon="15.052155030957534"><ele>596.5</ele><time>2026-04-04T12:26:24.998Z</time></trkpt><trkpt lat="41.18876749956391" lon="15.052205182759506"><ele>598.25</ele><time>2026-04-04T12:26:26Z</time></trkpt><trkpt lat="41.18865994091261" lon="15.052243879133876"><ele>600.0</ele><time>2026-04-04T12:26:27Z</time></trkpt><trkpt lat="41.1885286518761" lon="15.052291458475462"><ele>600.0</ele><time>2026-04-04T12:26:28Z</time></trkpt><trkpt lat="41.18841282908906" lon="15.052314789097702"><ele>600.0</ele><time>2026-04-04T12:26:29Z</time></trkpt><trkpt lat="41.18830135458033" lon="15.052320773701021"><ele>600.0</ele><time>2026-04-04T12:26:30Z</time></trkpt><trkpt lat="41.188183212330806" lon="15.052310157104728"><ele>600.0</ele><time>2026-04-04T12:26:31Z</time></trkpt><trkpt lat="41.18806099028295" lon="15.052296092070739"><ele>602.0</ele><time>2026-04-04T12:26:32Z</time></trkpt><trkpt lat="41.1879167602568" lon="15.052276175772853"><ele>604.0</ele><time>2026-04-04T12:26:33Z</time></trkpt><trkpt lat="41.187761763459015" lon="15.05225999022748"><ele>606.0</ele><time>2026-04-04T12:26:34Z</time></trkpt><trkpt lat="41.18763098027454" lon="15.052246507215552"><ele>608.0</ele><time>2026-04-04T12:26:35Z</time></trkpt><trkpt lat="41.18750845616821" lon="15.052250666674976"><ele>608.0</ele><time>2026-04-04T12:26:36Z</time></trkpt><trkpt lat="41.18738456557906" lon="15.052285458533381"><ele>608.0</ele><time>2026-04-04T12:26:37Z</time></trkpt><trkpt lat="41.1872616920012" lon="15.05227303110853"><ele>608.0</ele><time>2026-04-04T12:26:38Z</time></trkpt><trkpt lat="41.187140428922476" lon="15.052267762669764"><ele>608.0</ele><time>2026-04-04T12:26:39Z</time></trkpt><trkpt lat="41.187014597935935" lon="15.05225029270886"><ele>606.75</ele><time>2026-04-04T12:26:40Z</time></trkpt><trkpt lat="41.18688713944684" lon="15.052197737191566"><ele>605.5</ele><time>2026-04-04T12:26:41Z</time></trkpt><trkpt lat="41.186753007364615" lon="15.052091974860861"><ele>604.25</ele><time>2026-04-04T12:26:42Z</time></trkpt><trkpt lat="41.18662220807875" lon="15.051970555947959"><ele>603.0</ele><time>2026-04-04T12:26:43Z</time></trkpt><trkpt lat="41.186504256579376" lon="15.051869195014763"><ele>601.5</ele><time>2026-04-04T12:26:44Z</time></trkpt><trkpt lat="41.1863979853305" lon="15.051779523691764"><ele>600.0</ele><time>2026-04-04T12:26:45Z</time></trkpt><trkpt lat="41.18628839382758" lon="15.051685969346284"><ele>598.5</ele><time>2026-04-04T12:26:46Z</time></trkpt><trkpt lat="41.18618393814243" lon="15.051612579759754"><ele>597.0</ele><time>2026-04-04T12:26:47Z</time></trkpt><trkpt lat="41.186064951755974" lon="15.051552897006637"><ele>598.75</ele><time>2026-04-04T12:26:48Z</time></trkpt><trkpt lat="41.18592720665852" lon="15.051539798851202"><ele>600.5</ele><time>2026-04-04T12:26:49Z</time></trkpt><trkpt lat="41.18577743018167" lon="15.051554033149186"><ele>602.25</ele><time>2026-04-04T12:26:50Z</time></trkpt><trkpt lat="41.185633373494284" lon="15.051588171351034"><ele>604.0</ele><time>2026-04-04T12:26:51Z</time></trkpt><trkpt lat="41.18548219622179" lon="15.051635941005763"><ele>604.0</ele><time>2026-04-04T12:26:52Z</time></trkpt><trkpt lat="41.18535137146747" lon="15.05173055072087"><ele>604.0</ele><time>2026-04-04T12:26:53Z</time></trkpt><trkpt lat="41.1851679915589" lon="15.05180275613563"><ele>604.0</ele><time>2026-04-04T12:26:54Z</time></trkpt><trkpt lat="41.18497574330266" lon="15.051903946978316"><ele>606.0</ele><time>2026-04-04T12:26:55Z</time></trkpt><trkpt lat="41.18477885651115" lon="15.052013733739702"><ele>608.0</ele><time>2026-04-04T12:26:56Z</time></trkpt><trkpt lat="41.18460086517056" lon="15.052127853298137"><ele>610.0</ele><time>2026-04-04T12:26:57Z</time></trkpt><trkpt lat="41.18443980813602" lon="15.052212375366183"><ele>610.0</ele><time>2026-04-04T12:26:58Z</time></trkpt><trkpt lat="41.184288254799256" lon="15.052300818504085"><ele>610.0</ele><time>2026-04-04T12:26:59Z</time></trkpt><trkpt lat="41.18413408119682" lon="15.052380944557187"><ele>610.0</ele><time>2026-04-04T12:27:00Z</time></trkpt><trkpt lat="41.183968152870214" lon="15.052440060789927"><ele>608.6666666666667</ele><time>2026-04-04T12:27:01Z</time></trkpt><trkpt lat="41.1837925322197" lon="15.052472154185237"><ele>607.3333333333334</ele><time>2026-04-04T12:27:02Z</time></trkpt><trkpt lat="41.18360192909796" lon="15.052451024243638"><ele>606.0</ele><time>2026-04-04T12:27:02.999Z</time></trkpt><trkpt lat="41.18344773002596" lon="15.052408715459377"><ele>606.0</ele><time>2026-04-04T12:27:03.999Z</time></trkpt><trkpt lat="41.183312406639196" lon="15.052322495561045"><ele>606.0</ele><time>2026-04-04T12:27:04.999Z</time></trkpt><trkpt lat="41.183181059472666" lon="15.052207841245652"><ele>606.0</ele><time>2026-04-04T12:27:05.999Z</time></trkpt><trkpt lat="41.18305102865519" lon="15.052086685033741"><ele>604.25</ele><time>2026-04-04T12:27:06.999Z</time></trkpt><trkpt lat="41.182962098666536" lon="15.051952063329912"><ele>602.5</ele><time>2026-04-04T12:27:07.999Z</time></trkpt><trkpt lat="41.18291271675811" lon="15.051814575051814"><ele>600.75</ele><time>2026-04-04T12:27:08.999Z</time></trkpt><trkpt lat="41.182915921557765" lon="15.051667310585369"><ele>599.0</ele><time>2026-04-04T12:27:09.999Z</time></trkpt><trkpt lat="41.182975649670595" lon="15.051507834124218"><ele>597.3333333333333</ele><time>2026-04-04T12:27:10.999Z</time></trkpt><trkpt lat="41.183070154888874" lon="15.05131540905541"><ele>595.6666666666666</ele><time>2026-04-04T12:27:11.999Z</time></trkpt><trkpt lat="41.18314541895393" lon="15.051105175554454"><ele>594.0</ele><time>2026-04-04T12:27:12.999Z</time></trkpt><trkpt lat="41.183179947673814" lon="15.050879661624352"><ele>594.3333333333334</ele><time>2026-04-04T12:27:13.999Z</time></trkpt><trkpt lat="41.18318198925232" lon="15.050622334159307"><ele>594.6666666666667</ele><time>2026-04-04T12:27:14.999Z</time></trkpt><trkpt lat="41.18317904594786" lon="15.050375881739805"><ele>595.0</ele><time>2026-04-04T12:27:15.999Z</time></trkpt><trkpt lat="41.18316707992155" lon="15.050158902316538"><ele>597.6666666666667</ele><time>2026-04-04T12:27:16.999Z</time></trkpt><trkpt lat="41.18310135553515" lon="15.049953554839298"><ele>600.3333333333334</ele><time>2026-04-04T12:27:17.999Z</time></trkpt><trkpt lat="41.18301776361816" lon="15.049739086694562"><ele>603.0</ele><time>2026-04-04T12:27:18.999Z</time></trkpt><trkpt lat="41.18293425127782" lon="15.049543792982996"><ele>603.0</ele><time>2026-04-04T12:27:19.999Z</time></trkpt><trkpt lat="41.18284955255199" lon="15.049354112956301"><ele>603.0</ele><time>2026-04-04T12:27:20.999Z</time></trkpt><trkpt lat="41.182795453285955" lon="15.04914351483363"><ele>603.0</ele><time>2026-04-04T12:27:21.999Z</time></trkpt><trkpt lat="41.18272649044781" lon="15.048964048884446"><ele>604.25</ele><time>2026-04-04T12:27:22.999Z</time></trkpt><trkpt lat="41.182664221818634" lon="15.048794112044813"><ele>605.5</ele><time>2026-04-04T12:27:23.999Z</time></trkpt><trkpt lat="41.182580760911065" lon="15.048656414482876"><ele>606.75</ele><time>2026-04-04T12:27:24.999Z</time></trkpt><trkpt lat="41.1824647893591" lon="15.048554816221735"><ele>608.0</ele><time>2026-04-04T12:27:25.999Z</time></trkpt><trkpt lat="41.18232018832028" lon="15.048509953170855"><ele>608.0</ele><time>2026-04-04T12:27:26.999Z</time></trkpt><trkpt lat="41.18216039499216" lon="15.048516526144144"><ele>608.0</ele><time>2026-04-04T12:27:27.999Z</time></trkpt><trkpt lat="41.18198838822791" lon="15.048534105024753"><ele>608.0</ele><time>2026-04-04T12:27:28.999Z</time></trkpt><trkpt lat="41.1818307458089" lon="15.048542992001742"><ele>608.0</ele><time>2026-04-04T12:27:29.999Z</time></trkpt><trkpt lat="41.181670509294065" lon="15.048557235309657"><ele>608.0</ele><time>2026-04-04T12:27:30.999Z</time></trkpt><trkpt lat="41.18151789912902" lon="15.048559646817397"><ele>608.0</ele><time>2026-04-04T12:27:31.999Z</time></trkpt><trkpt lat="41.18137952554164" lon="15.048538737676989"><ele>609.0</ele><time>2026-04-04T12:27:32.999Z</time></trkpt><trkpt lat="41.18124010176309" lon="15.048463691933275"><ele>610.0</ele><time>2026-04-04T12:27:33.999Z</time></trkpt><trkpt lat="41.181084382821275" lon="15.048349917268567"><ele>611.0</ele><time>2026-04-04T12:27:34.999Z</time></trkpt><trkpt lat="41.180931706427856" lon="15.04821819316369"><ele>611.0</ele><time>2026-04-04T12:27:35.999Z</time></trkpt><trkpt lat="41.18079760643282" lon="15.048108690410636"><ele>611.0</ele><time>2026-04-04T12:27:36.999Z</time></trkpt><trkpt lat="41.18066702472287" lon="15.047987299741603"><ele>611.0</ele><time>2026-04-04T12:27:37.999Z</time></trkpt><trkpt lat="41.1805403373345" lon="15.047829913426494"><ele>609.6666666666666</ele><time>2026-04-04T12:27:38.999Z</time></trkpt><trkpt lat="41.180414780805854" lon="15.047644192319353"><ele>608.3333333333334</ele><time>2026-04-04T12:27:39.999Z</time></trkpt><trkpt lat="41.18028834765434" lon="15.047450686889432"><ele>607.0</ele><time>2026-04-04T12:27:40.999Z</time></trkpt><trkpt lat="41.18016171162513" lon="15.047253767128005"><ele>607.0</ele><time>2026-04-04T12:27:41.999Z</time></trkpt><trkpt lat="41.18003843450377" lon="15.047071662607003"><ele>607.0</ele><time>2026-04-04T12:27:42.999Z</time></trkpt><trkpt lat="41.179915610270704" lon="15.046912657489141"><ele>607.0</ele><time>2026-04-04T12:27:43.999Z</time></trkpt><trkpt lat="41.17978779526472" lon="15.046778313745197"><ele>605.0</ele><time>2026-04-04T12:27:44.999Z</time></trkpt><trkpt lat="41.17964286417508" lon="15.046662070931935"><ele>603.0</ele><time>2026-04-04T12:27:45.999Z</time></trkpt><trkpt lat="41.17945600028882" lon="15.046569150622894"><ele>601.0</ele><time>2026-04-04T12:27:46.999Z</time></trkpt><trkpt lat="41.17920851088513" lon="15.046468378002219"><ele>605.6666666666667</ele><time>2026-04-04T12:27:47.998Z</time></trkpt><trkpt lat="41.17901532143159" lon="15.046382406886057"><ele>610.3333333333334</ele><time>2026-04-04T12:27:48.998Z</time></trkpt><trkpt lat="41.178833447433654" lon="15.046295950087469"><ele>615.0</ele><time>2026-04-04T12:27:49.998Z</time></trkpt><trkpt lat="41.17866494276639" lon="15.046203854500583"><ele>615.0</ele><time>2026-04-04T12:27:50.998Z</time></trkpt><trkpt lat="41.1784951811943" lon="15.046113694099596"><ele>615.0</ele><time>2026-04-04T12:27:51.998Z</time></trkpt><trkpt lat="41.17832477320916" lon="15.046064798022579"><ele>615.0</ele><time>2026-04-04T12:27:52.998Z</time></trkpt><trkpt lat="41.17813787893447" lon="15.0460750476696"><ele>616.3333333333334</ele><time>2026-04-04T12:27:53.998Z</time></trkpt><trkpt lat="41.177957676744654" lon="15.046113971725624"><ele>617.6666666666667</ele><time>2026-04-04T12:27:54.998Z</time></trkpt><trkpt lat="41.17779045078166" lon="15.046191224895992"><ele>619.0</ele><time>2026-04-04T12:27:55.998Z</time></trkpt><trkpt lat="41.177634549547065" lon="15.046312523226451"><ele>619.0</ele><time>2026-04-04T12:27:56.998Z</time></trkpt><trkpt lat="41.17749932472082" lon="15.046462421081577"><ele>619.0</ele><time>2026-04-04T12:27:57.998Z</time></trkpt><trkpt lat="41.177368796372946" lon="15.046609982212214"><ele>619.0</ele><time>2026-04-04T12:27:58.998Z</time></trkpt><trkpt lat="41.17723460279127" lon="15.046720637682506"><ele>617.0</ele><time>2026-04-04T12:27:59.998Z</time></trkpt><trkpt lat="41.17707803867186" lon="15.046765613919582"><ele>615.0</ele><time>2026-04-04T12:28:00.998Z</time></trkpt><trkpt lat="41.17691696450383" lon="15.046789185405478"><ele>613.0</ele><time>2026-04-04T12:28:01.998Z</time></trkpt><trkpt lat="41.17676046195486" lon="15.046764311566381"><ele>613.0</ele><time>2026-04-04T12:28:02.998Z</time></trkpt><trkpt lat="41.176606547026616" lon="15.046664745946165"><ele>613.0</ele><time>2026-04-04T12:28:03.998Z</time></trkpt><trkpt lat="41.176442294107794" lon="15.046550449633024"><ele>613.0</ele><time>2026-04-04T12:28:04.998Z</time></trkpt><trkpt lat="41.176310028064236" lon="15.046422062286311"><ele>611.5</ele><time>2026-04-04T12:28:05.998Z</time></trkpt><trkpt lat="41.17618904876327" lon="15.046292239060273"><ele>610.0</ele><time>2026-04-04T12:28:06.998Z</time></trkpt><trkpt lat="41.17608406831941" lon="15.04615677903035"><ele>608.5</ele><time>2026-04-04T12:28:07.998Z</time></trkpt><trkpt lat="41.17598994715189" lon="15.04601653892478"><ele>607.0</ele><time>2026-04-04T12:28:08.998Z</time></trkpt><trkpt lat="41.17588541587476" lon="15.045868074215305"><ele>608.3333333333334</ele><time>2026-04-04T12:28:09.998Z</time></trkpt><trkpt lat="41.17574265131781" lon="15.045714354731759"><ele>609.6666666666666</ele><time>2026-04-04T12:28:10.998Z</time></trkpt><trkpt lat="41.175561464877745" lon="15.045574465808857"><ele>611.0</ele><time>2026-04-04T12:28:11.998Z</time></trkpt><trkpt lat="41.17535255999267" lon="15.045454028681847"><ele>608.3333333333333</ele><time>2026-04-04T12:28:12.998Z</time></trkpt><trkpt lat="41.17514871683374" lon="15.045327247009373"><ele>605.6666666666666</ele><time>2026-04-04T12:28:13.998Z</time></trkpt><trkpt lat="41.17497160606355" lon="15.045171885358133"><ele>603.0</ele><time>2026-04-04T12:28:14.998Z</time></trkpt><trkpt lat="41.17480611085129" lon="15.045039055934826"><ele>601.0</ele><time>2026-04-04T12:28:15.998Z</time></trkpt><trkpt lat="41.17464430614558" lon="15.04489596586682"><ele>599.0</ele><time>2026-04-04T12:28:16.998Z</time></trkpt><trkpt lat="41.17448322314179" lon="15.044759002343183"><ele>597.0</ele><time>2026-04-04T12:28:17.998Z</time></trkpt><trkpt lat="41.17432632445055" lon="15.044623401431004"><ele>597.0</ele><time>2026-04-04T12:28:18.998Z</time></trkpt><trkpt lat="41.17417436152587" lon="15.044494602977244"><ele>597.0</ele><time>2026-04-04T12:28:19.998Z</time></trkpt><trkpt lat="41.1740295350636" lon="15.04437392873079"><ele>597.0</ele><time>2026-04-04T12:28:20.998Z</time></trkpt><trkpt lat="41.173901288821405" lon="15.04425372544494"><ele>590.0</ele><time>2026-04-04T12:28:21.998Z</time></trkpt><trkpt lat="41.17381324371191" lon="15.044086025560016"><ele>583.0</ele><time>2026-04-04T12:28:22.998Z</time></trkpt><trkpt lat="41.173752298322434" lon="15.043891718492585"><ele>576.0</ele><time>2026-04-04T12:28:23.998Z</time></trkpt><trkpt lat="41.17371132823482" lon="15.043655443506344"><ele>576.0</ele><time>2026-04-04T12:28:24.998Z</time></trkpt><trkpt lat="41.17363050468268" lon="15.04342991868629"><ele>576.0</ele><time>2026-04-04T12:28:25.998Z</time></trkpt><trkpt lat="41.1735001002745" lon="15.043167589634079"><ele>576.0</ele><time>2026-04-04T12:28:26.998Z</time></trkpt><trkpt lat="41.173312322357255" lon="15.042972426802633"><ele>579.3333333333334</ele><time>2026-04-04T12:28:27.998Z</time></trkpt><trkpt lat="41.173204547893484" lon="15.04282601391461"><ele>582.6666666666667</ele><time>2026-04-04T12:28:28.998Z</time></trkpt><trkpt lat="41.173084981213634" lon="15.04265005209021"><ele>586.0</ele><time>2026-04-04T12:28:29.998Z</time></trkpt><trkpt lat="41.17298529076249" lon="15.042461698080746"><ele>579.0</ele><time>2026-04-04T12:28:30.998Z</time></trkpt><trkpt lat="41.17289466416767" lon="15.042246768823842"><ele>572.0</ele><time>2026-04-04T12:28:32Z</time></trkpt><trkpt lat="41.17281736030011" lon="15.042027877352318"><ele>565.0</ele><time>2026-04-04T12:28:33Z</time></trkpt><trkpt lat="41.17276278045216" lon="15.041799309688829"><ele>564.6666666666667</ele><time>2026-04-04T12:28:34Z</time></trkpt><trkpt lat="41.17272473998019" lon="15.041544647504422"><ele>564.3333333333334</ele><time>2026-04-04T12:28:35Z</time></trkpt><trkpt lat="41.172685810796395" lon="15.041271623164619"><ele>564.0</ele><time>2026-04-04T12:28:36Z</time></trkpt><trkpt lat="41.17263110433816" lon="15.040984378328051"><ele>563.3333333333334</ele><time>2026-04-04T12:28:37Z</time></trkpt><trkpt lat="41.17257570847519" lon="15.040699316961755"><ele>562.6666666666667</ele><time>2026-04-04T12:28:38Z</time></trkpt><trkpt lat="41.17253105221642" lon="15.040435247719982"><ele>562.0</ele><time>2026-04-04T12:28:39Z</time></trkpt><trkpt lat="41.17250111463458" lon="15.040196341087263"><ele>561.6666666666667</ele><time>2026-04-04T12:28:40Z</time></trkpt><trkpt lat="41.17248178995184" lon="15.039963675589256"><ele>561.3333333333334</ele><time>2026-04-04T12:28:41Z</time></trkpt><trkpt lat="41.17248368091261" lon="15.039742864505719"><ele>561.0</ele><time>2026-04-04T12:28:42Z</time></trkpt><trkpt lat="41.17249043036451" lon="15.039560926456515"><ele>561.0</ele><time>2026-04-04T12:28:43Z</time></trkpt><trkpt lat="41.17246876751571" lon="15.03941016338974"><ele>561.0</ele><time>2026-04-04T12:28:44Z</time></trkpt><trkpt lat="41.172397395162314" lon="15.039279436149869"><ele>561.0</ele><time>2026-04-04T12:28:45Z</time></trkpt><trkpt lat="41.172294944242275" lon="15.039185346044365"><ele>561.0</ele><time>2026-04-04T12:28:46Z</time></trkpt><trkpt lat="41.17219586549577" lon="15.039103863322815"><ele>558.25</ele><time>2026-04-04T12:28:47Z</time></trkpt><trkpt lat="41.172106255437235" lon="15.039010988723955"><ele>555.5</ele><time>2026-04-04T12:28:48Z</time></trkpt><trkpt lat="41.17201197616173" lon="15.038896102314164"><ele>552.75</ele><time>2026-04-04T12:28:49Z</time></trkpt><trkpt lat="41.171912340586275" lon="15.038774602068305"><ele>550.0</ele><time>2026-04-04T12:28:50Z</time></trkpt><trkpt lat="41.17181362363307" lon="15.038636771211797"><ele>550.0</ele><time>2026-04-04T12:28:51Z</time></trkpt><trkpt lat="41.17173057189864" lon="15.038482956606252"><ele>550.0</ele><time>2026-04-04T12:28:52Z</time></trkpt><trkpt lat="41.171661605834586" lon="15.038326770777118"><ele>550.0</ele><time>2026-04-04T12:28:53Z</time></trkpt><trkpt lat="41.17160979191609" lon="15.038151181806441"><ele>550.0</ele><time>2026-04-04T12:28:54Z</time></trkpt><trkpt lat="41.171571111899915" lon="15.03794919969618"><ele>549.0</ele><time>2026-04-04T12:28:55Z</time></trkpt><trkpt lat="41.17153158947862" lon="15.03772850822281"><ele>548.0</ele><time>2026-04-04T12:28:56Z</time></trkpt><trkpt lat="41.17148333433099" lon="15.03750234629718"><ele>547.0</ele><time>2026-04-04T12:28:57Z</time></trkpt><trkpt lat="41.17143998165014" lon="15.037271836462333"><ele>545.3333333333334</ele><time>2026-04-04T12:28:58Z</time></trkpt><trkpt lat="41.171397903187255" lon="15.037030638655065"><ele>543.6666666666666</ele><time>2026-04-04T12:28:59Z</time></trkpt><trkpt lat="41.17135932069642" lon="15.03678157378858"><ele>542.0</ele><time>2026-04-04T12:29:00Z</time></trkpt><trkpt lat="41.17134076872497" lon="15.036525449442882"><ele>542.0</ele><time>2026-04-04T12:29:01Z</time></trkpt><trkpt lat="41.171297612611134" lon="15.036270441071984"><ele>542.0</ele><time>2026-04-04T12:29:02Z</time></trkpt><trkpt lat="41.17127288718279" lon="15.036015962160318"><ele>542.0</ele><time>2026-04-04T12:29:03Z</time></trkpt><trkpt lat="41.17124452905484" lon="15.035764642322976"><ele>544.6666666666666</ele><time>2026-04-04T12:29:04Z</time></trkpt><trkpt lat="41.17121572082273" lon="15.035511868274597"><ele>547.3333333333334</ele><time>2026-04-04T12:29:05Z</time></trkpt><trkpt lat="41.17118242927122" lon="15.03526589747388"><ele>550.0</ele><time>2026-04-04T12:29:06Z</time></trkpt><trkpt lat="41.17113013232606" lon="15.03502926726289"><ele>549.6666666666667</ele><time>2026-04-04T12:29:07Z</time></trkpt><trkpt lat="41.17105677052397" lon="15.034808532972797"><ele>549.3333333333334</ele><time>2026-04-04T12:29:08Z</time></trkpt><trkpt lat="41.17099396065577" lon="15.034580759650893"><ele>549.0</ele><time>2026-04-04T12:29:09Z</time></trkpt><trkpt lat="41.17098430960884" lon="15.034360680393494"><ele>549.0</ele><time>2026-04-04T12:29:10Z</time></trkpt><trkpt lat="41.17095455762783" lon="15.034157069868304"><ele>549.0</ele><time>2026-04-04T12:29:10.999Z</time></trkpt><trkpt lat="41.17093331017259" lon="15.033958335724039"><ele>549.0</ele><time>2026-04-04T12:29:11.999Z</time></trkpt><trkpt lat="41.17087446421758" lon="15.033770106715249"><ele>548.0</ele><time>2026-04-04T12:29:12.999Z</time></trkpt><trkpt lat="41.170781913529694" lon="15.033602880749298"><ele>547.0</ele><time>2026-04-04T12:29:13.999Z</time></trkpt><trkpt lat="41.1706627017873" lon="15.033460894912418"><ele>546.0</ele><time>2026-04-04T12:29:14.999Z</time></trkpt><trkpt lat="41.170503082993385" lon="15.03334320815593"><ele>541.6666666666666</ele><time>2026-04-04T12:29:15.999Z</time></trkpt><trkpt lat="41.17032100258767" lon="15.033219007118726"><ele>537.3333333333333</ele><time>2026-04-04T12:29:16.999Z</time></trkpt><trkpt lat="41.1701751334561" lon="15.033069982050398"><ele>533.0</ele><time>2026-04-04T12:29:17.999Z</time></trkpt><trkpt lat="41.170040427506315" lon="15.032924329755247"><ele>533.0</ele><time>2026-04-04T12:29:18.999Z</time></trkpt><trkpt lat="41.16992008409277" lon="15.032748935154777"><ele>533.0</ele><time>2026-04-04T12:29:19.999Z</time></trkpt><trkpt lat="41.16980953905771" lon="15.03254275262206"><ele>533.0</ele><time>2026-04-04T12:29:20.999Z</time></trkpt><trkpt lat="41.16968498227725" lon="15.032343786067388"><ele>532.3333333333333</ele><time>2026-04-04T12:29:21.999Z</time></trkpt><trkpt lat="41.16958855632355" lon="15.032145120063868"><ele>531.6666666666666</ele><time>2026-04-04T12:29:22.999Z</time></trkpt><trkpt lat="41.16948910189816" lon="15.031967511985183"><ele>531.0</ele><time>2026-04-04T12:29:23.999Z</time></trkpt><trkpt lat="41.16937930174548" lon="15.031804831978068"><ele>531.0</ele><time>2026-04-04T12:29:24.999Z</time></trkpt><trkpt lat="41.169243999314894" lon="15.031671784378789"><ele>531.0</ele><time>2026-04-04T12:29:25.999Z</time></trkpt><trkpt lat="41.16907470837924" lon="15.031593651929613"><ele>531.0</ele><time>2026-04-04T12:29:26.999Z</time></trkpt><trkpt lat="41.16888470677248" lon="15.03153518767182"><ele>527.3333333333334</ele><time>2026-04-04T12:29:27.999Z</time></trkpt><trkpt lat="41.16870111898587" lon="15.031454513005336"><ele>523.6666666666667</ele><time>2026-04-04T12:29:28.999Z</time></trkpt><trkpt lat="41.16851203071534" lon="15.031379459471623"><ele>520.0</ele><time>2026-04-04T12:29:29.999Z</time></trkpt><trkpt lat="41.168322390919776" lon="15.031323188286429"><ele>519.0</ele><time>2026-04-04T12:29:30.999Z</time></trkpt><trkpt lat="41.16815888999216" lon="15.031240393112617"><ele>518.0</ele><time>2026-04-04T12:29:31.999Z</time></trkpt><trkpt lat="41.168007258007904" lon="15.031134629491627"><ele>517.0</ele><time>2026-04-04T12:29:32.999Z</time></trkpt><trkpt lat="41.167882074806705" lon="15.03096745028494"><ele>516.0</ele><time>2026-04-04T12:29:33.999Z</time></trkpt><trkpt lat="41.16774578730631" lon="15.030802212060477"><ele>515.0</ele><time>2026-04-04T12:29:34.999Z</time></trkpt><trkpt lat="41.16761078993962" lon="15.030629773862824"><ele>514.0</ele><time>2026-04-04T12:29:35.999Z</time></trkpt><trkpt lat="41.16746888192756" lon="15.030448734866303"><ele>513.0</ele><time>2026-04-04T12:29:36.999Z</time></trkpt><trkpt lat="41.16733112023024" lon="15.03027405300245"><ele>512.0</ele><time>2026-04-04T12:29:37.999Z</time></trkpt><trkpt lat="41.16720579470513" lon="15.030105864425831"><ele>511.0</ele><time>2026-04-04T12:29:38.999Z</time></trkpt><trkpt lat="41.16710862172207" lon="15.029905304169327"><ele>511.0</ele><time>2026-04-04T12:29:39.999Z</time></trkpt><trkpt lat="41.16702624890651" lon="15.029694803601432"><ele>511.0</ele><time>2026-04-04T12:29:40.999Z</time></trkpt><trkpt lat="41.166963310260044" lon="15.029480013228556"><ele>511.0</ele><time>2026-04-04T12:29:41.999Z</time></trkpt><trkpt lat="41.16689776696175" lon="15.029276337710131"><ele>509.0</ele><time>2026-04-04T12:29:42.999Z</time></trkpt><trkpt lat="41.16684583258828" lon="15.029078948897128"><ele>507.0</ele><time>2026-04-04T12:29:43.999Z</time></trkpt><trkpt lat="41.166785748187486" lon="15.02889829349205"><ele>505.0</ele><time>2026-04-04T12:29:44.999Z</time></trkpt><trkpt lat="41.166709699647825" lon="15.028759520724424"><ele>503.0</ele><time>2026-04-04T12:29:45.999Z</time></trkpt><trkpt lat="41.16660654447812" lon="15.028667817930925"><ele>501.25</ele><time>2026-04-04T12:29:46.999Z</time></trkpt><trkpt lat="41.166483538372155" lon="15.028642901885572"><ele>499.5</ele><time>2026-04-04T12:29:47.999Z</time></trkpt><trkpt lat="41.1663600221264" lon="15.028663189036719"><ele>497.75</ele><time>2026-04-04T12:29:48.999Z</time></trkpt><trkpt lat="41.16622035658082" lon="15.02872601394369"><ele>496.0</ele><time>2026-04-04T12:29:49.999Z</time></trkpt><trkpt lat="41.16606593794079" lon="15.028801960386751"><ele>496.0</ele><time>2026-04-04T12:29:50.999Z</time></trkpt><trkpt lat="41.165892734893816" lon="15.028831431562232"><ele>496.0</ele><time>2026-04-04T12:29:51.999Z</time></trkpt><trkpt lat="41.16571869502227" lon="15.028890371236919"><ele>496.0</ele><time>2026-04-04T12:29:52.999Z</time></trkpt><trkpt lat="41.16555414302207" lon="15.02891429306732"><ele>494.33333333333337</ele><time>2026-04-04T12:29:53.999Z</time></trkpt><trkpt lat="41.16539879618621" lon="15.02887653190045"><ele>492.66666666666663</ele><time>2026-04-04T12:29:54.999Z</time></trkpt><trkpt lat="41.16523252790437" lon="15.02880905032164"><ele>491.0</ele><time>2026-04-04T12:29:55.998Z</time></trkpt><trkpt lat="41.165046309944856" lon="15.0287466329863"><ele>491.0</ele><time>2026-04-04T12:29:56.998Z</time></trkpt><trkpt lat="41.16487487925053" lon="15.028658754880672"><ele>491.0</ele><time>2026-04-04T12:29:57.998Z</time></trkpt><trkpt lat="41.16470978178627" lon="15.028589811389084"><ele>491.0</ele><time>2026-04-04T12:29:58.998Z</time></trkpt><trkpt lat="41.16455270946625" lon="15.028547343963261"><ele>490.66666666666663</ele><time>2026-04-04T12:29:59.998Z</time></trkpt><trkpt lat="41.16439530923614" lon="15.028537255633312"><ele>490.33333333333337</ele><time>2026-04-04T12:30:00.998Z</time></trkpt><trkpt lat="41.164236553399576" lon="15.028552283387988"><ele>490.0</ele><time>2026-04-04T12:30:01.998Z</time></trkpt><trkpt lat="41.16407271322539" lon="15.028556482877903"><ele>487.33333333333337</ele><time>2026-04-04T12:30:02.998Z</time></trkpt><trkpt lat="41.163903354696" lon="15.028501430984317"><ele>484.66666666666663</ele><time>2026-04-04T12:30:03.998Z</time></trkpt><trkpt lat="41.16374532782883" lon="15.02839533016981"><ele>482.0</ele><time>2026-04-04T12:30:04.998Z</time></trkpt><trkpt lat="41.16359412828458" lon="15.028313970967805"><ele>481.25</ele><time>2026-04-04T12:30:05.998Z</time></trkpt><trkpt lat="41.163464117563606" lon="15.028225093069844"><ele>480.5</ele><time>2026-04-04T12:30:06.998Z</time></trkpt><trkpt lat="41.163334838839084" lon="15.028136431315502"><ele>479.75</ele><time>2026-04-04T12:30:07.998Z</time></trkpt><trkpt lat="41.163227422107774" lon="15.02803063703839"><ele>479.0</ele><time>2026-04-04T12:30:08.998Z</time></trkpt><trkpt lat="41.16315137570408" lon="15.02788402322619"><ele>479.0</ele><time>2026-04-04T12:30:09.998Z</time></trkpt><trkpt lat="41.16309074642397" lon="15.027701662156677"><ele>479.0</ele><time>2026-04-04T12:30:10.998Z</time></trkpt><trkpt lat="41.16303599026427" lon="15.02751277763374"><ele>479.0</ele><time>2026-04-04T12:30:11.998Z</time></trkpt><trkpt lat="41.16298186938077" lon="15.027338303608898"><ele>479.0</ele><time>2026-04-04T12:30:12.998Z</time></trkpt><trkpt lat="41.16293267920229" lon="15.027178386488037"><ele>479.5</ele><time>2026-04-04T12:30:13.998Z</time></trkpt><trkpt lat="41.162913734334936" lon="15.027025173710364"><ele>480.0</ele><time>2026-04-04T12:30:14.998Z</time></trkpt><trkpt lat="41.16291344987144" lon="15.026835279084812"><ele>480.5</ele><time>2026-04-04T12:30:15.998Z</time></trkpt><trkpt lat="41.16295221537626" lon="15.02665087642803"><ele>481.0</ele><time>2026-04-04T12:30:16.998Z</time></trkpt><trkpt lat="41.16302713094929" lon="15.026466912945864"><ele>481.6666666666667</ele><time>2026-04-04T12:30:17.998Z</time></trkpt><trkpt lat="41.16308939907773" lon="15.02626473643277"><ele>482.33333333333337</ele><time>2026-04-04T12:30:18.998Z</time></trkpt><trkpt lat="41.16317737416152" lon="15.026068759465929"><ele>483.0</ele><time>2026-04-04T12:30:19.998Z</time></trkpt><trkpt lat="41.163267902665446" lon="15.025857739309902"><ele>478.33333333333337</ele><time>2026-04-04T12:30:20.998Z</time></trkpt><trkpt lat="41.16334614126205" lon="15.02566111987246"><ele>473.6666666666667</ele><time>2026-04-04T12:30:21.998Z</time></trkpt><trkpt lat="41.16340971081461" lon="15.025469445272007"><ele>469.0</ele><time>2026-04-04T12:30:22.998Z</time></trkpt><trkpt lat="41.16345186437189" lon="15.02525743771857"><ele>469.0</ele><time>2026-04-04T12:30:23.998Z</time></trkpt><trkpt lat="41.163436692868004" lon="15.025025973029457"><ele>469.0</ele><time>2026-04-04T12:30:24.998Z</time></trkpt><trkpt lat="41.16339372562353" lon="15.024783212795368"><ele>469.0</ele><time>2026-04-04T12:30:25.998Z</time></trkpt><trkpt lat="41.16335685454068" lon="15.0245171078971"><ele>467.0</ele><time>2026-04-04T12:30:26.998Z</time></trkpt><trkpt lat="41.163356425225814" lon="15.024288180320314"><ele>465.0</ele><time>2026-04-04T12:30:27.998Z</time></trkpt><trkpt lat="41.16335911275041" lon="15.02405929193598"><ele>463.0</ele><time>2026-04-04T12:30:28.998Z</time></trkpt><trkpt lat="41.163369536760314" lon="15.023837302442663"><ele>463.0</ele><time>2026-04-04T12:30:29.998Z</time></trkpt><trkpt lat="41.16340056102787" lon="15.023627853953059"><ele>463.0</ele><time>2026-04-04T12:30:30.998Z</time></trkpt><trkpt lat="41.163453119959314" lon="15.023422396538436"><ele>463.0</ele><time>2026-04-04T12:30:31.998Z</time></trkpt><trkpt lat="41.163539566015324" lon="15.02323717366815"><ele>464.6666666666667</ele><time>2026-04-04T12:30:32.998Z</time></trkpt><trkpt lat="41.16366213603033" lon="15.023081351908315"><ele>466.33333333333337</ele><time>2026-04-04T12:30:33.998Z</time></trkpt><trkpt lat="41.16378052178238" lon="15.0229016617428"><ele>468.0</ele><time>2026-04-04T12:30:34.998Z</time></trkpt><trkpt lat="41.16392385786105" lon="15.022730004553317"><ele>465.0</ele><time>2026-04-04T12:30:35.998Z</time></trkpt><trkpt lat="41.164079081900596" lon="15.022512788737323"><ele>462.0</ele><time>2026-04-04T12:30:36.998Z</time></trkpt><trkpt lat="41.16425593865927" lon="15.022279936439556"><ele>462.0</ele><time>2026-04-04T12:30:38Z</time></trkpt><trkpt lat="41.16444214063109" lon="15.022035741258485"><ele>462.0</ele><time>2026-04-04T12:30:39Z</time></trkpt><trkpt lat="41.16461877139093" lon="15.021801826069092"><ele>461.33333333333337</ele><time>2026-04-04T12:30:40Z</time></trkpt><trkpt lat="41.16475249260494" lon="15.021571528980317"><ele>460.6666666666667</ele><time>2026-04-04T12:30:41Z</time></trkpt><trkpt lat="41.16485335482778" lon="15.021340736872531"><ele>460.0</ele><time>2026-04-04T12:30:42Z</time></trkpt><trkpt lat="41.16496173320699" lon="15.021114599701892"><ele>460.0</ele><time>2026-04-04T12:30:43Z</time></trkpt><trkpt lat="41.165071094950754" lon="15.020895436779432"><ele>460.0</ele><time>2026-04-04T12:30:44Z</time></trkpt><trkpt lat="41.16517560580807" lon="15.02066239289837"><ele>460.0</ele><time>2026-04-04T12:30:45Z</time></trkpt><trkpt lat="41.165271841216764" lon="15.020398472222348"><ele>461.6666666666667</ele><time>2026-04-04T12:30:46Z</time></trkpt><trkpt lat="41.165347520237546" lon="15.020150641263589"><ele>463.33333333333337</ele><time>2026-04-04T12:30:47Z</time></trkpt><trkpt lat="41.165482801852114" lon="15.019960087541174"><ele>465.0</ele><time>2026-04-04T12:30:48Z</time></trkpt><trkpt lat="41.16544422614899" lon="15.01964918595317"><ele>466.0</ele><time>2026-04-04T12:30:49Z</time></trkpt><trkpt lat="41.16544551647717" lon="15.01935055233781"><ele>467.0</ele><time>2026-04-04T12:30:50Z</time></trkpt><trkpt lat="41.16543159670562" lon="15.019034506372869"><ele>468.66666666666663</ele><time>2026-04-04T12:30:51Z</time></trkpt><trkpt lat="41.165430849408445" lon="15.018755468962757"><ele>470.33333333333337</ele><time>2026-04-04T12:30:52Z</time></trkpt><trkpt lat="41.16545275345382" lon="15.018503128063916"><ele>472.0</ele><time>2026-04-04T12:30:53Z</time></trkpt><trkpt lat="41.16550977458846" lon="15.018274314791336"><ele>473.33333333333337</ele><time>2026-04-04T12:30:54Z</time></trkpt><trkpt lat="41.165608203084815" lon="15.018046614435711"><ele>474.66666666666663</ele><time>2026-04-04T12:30:55Z</time></trkpt><trkpt lat="41.16573688553107" lon="15.017848494386694"><ele>476.0</ele><time>2026-04-04T12:30:56Z</time></trkpt><trkpt lat="41.16586892217168" lon="15.017646504934065"><ele>475.0</ele><time>2026-04-04T12:30:57Z</time></trkpt><trkpt lat="41.166014004044925" lon="15.01748584467756"><ele>474.0</ele><time>2026-04-04T12:30:58Z</time></trkpt><trkpt lat="41.16613530843129" lon="15.017339131901121"><ele>473.0</ele><time>2026-04-04T12:30:59Z</time></trkpt><trkpt lat="41.166213015357684" lon="15.017145714094543"><ele>473.0</ele><time>2026-04-04T12:31:00Z</time></trkpt><trkpt lat="41.16624414375429" lon="15.016899099289969"><ele>473.0</ele><time>2026-04-04T12:31:01Z</time></trkpt><trkpt lat="41.16624389400745" lon="15.016627671989733"><ele>473.0</ele><time>2026-04-04T12:31:02Z</time></trkpt><trkpt lat="41.166211611062856" lon="15.016365103492976"><ele>472.0</ele><time>2026-04-04T12:31:03Z</time></trkpt><trkpt lat="41.166171132026626" lon="15.016063245860575"><ele>471.0</ele><time>2026-04-04T12:31:04Z</time></trkpt><trkpt lat="41.166120011435" lon="15.015808602667146"><ele>470.0</ele><time>2026-04-04T12:31:05Z</time></trkpt><trkpt lat="41.16605233066763" lon="15.015554234297294"><ele>468.66666666666663</ele><time>2026-04-04T12:31:06Z</time></trkpt><trkpt lat="41.16595307974723" lon="15.015296999093668"><ele>467.33333333333337</ele><time>2026-04-04T12:31:07Z</time></trkpt><trkpt lat="41.16583920764747" lon="15.01504744503571"><ele>466.0</ele><time>2026-04-04T12:31:08Z</time></trkpt><trkpt lat="41.1657305128919" lon="15.014795673862752"><ele>461.5</ele><time>2026-04-04T12:31:09Z</time></trkpt><trkpt lat="41.165631292087326" lon="15.014506776771423"><ele>457.0</ele><time>2026-04-04T12:31:10Z</time></trkpt><trkpt lat="41.16556273674329" lon="15.014161182804884"><ele>457.0</ele><time>2026-04-04T12:31:11Z</time></trkpt><trkpt lat="41.165478952130904" lon="15.013822239810699"><ele>457.0</ele><time>2026-04-04T12:31:12Z</time></trkpt><trkpt lat="41.16542188853148" lon="15.013517755605882"><ele>458.5</ele><time>2026-04-04T12:31:13Z</time></trkpt><trkpt lat="41.16536126696006" lon="15.01323046845289"><ele>460.0</ele><time>2026-04-04T12:31:14Z</time></trkpt><trkpt lat="41.16530195793052" lon="15.012940627793212"><ele>460.0</ele><time>2026-04-04T12:31:15Z</time></trkpt><trkpt lat="41.165270551582196" lon="15.012646212921775"><ele>460.0</ele><time>2026-04-04T12:31:15.999Z</time></trkpt><trkpt lat="41.165225805109664" lon="15.012344345251279"><ele>460.6666666666667</ele><time>2026-04-04T12:31:16.999Z</time></trkpt><trkpt lat="41.1652182914614" lon="15.012072306143411"><ele>461.33333333333337</ele><time>2026-04-04T12:31:17.999Z</time></trkpt><trkpt lat="41.16517871499458" lon="15.011840865102638"><ele>462.0</ele><time>2026-04-04T12:31:18.999Z</time></trkpt><trkpt lat="41.165094830420706" lon="15.011599866754244"><ele>463.33333333333337</ele><time>2026-04-04T12:31:19.999Z</time></trkpt><trkpt lat="41.16498067387447" lon="15.011407283654155"><ele>464.6666666666667</ele><time>2026-04-04T12:31:20.999Z</time></trkpt><trkpt lat="41.16485570449203" lon="15.011246991633707"><ele>466.0</ele><time>2026-04-04T12:31:21.999Z</time></trkpt><trkpt lat="41.16477107507526" lon="15.011054886098629"><ele>462.0</ele><time>2026-04-04T12:31:22.999Z</time></trkpt><trkpt lat="41.1647026527328" lon="15.010857049235506"><ele>458.0</ele><time>2026-04-04T12:31:23.999Z</time></trkpt><trkpt lat="41.16465768476414" lon="15.010687767265923"><ele>454.0</ele><time>2026-04-04T12:31:24.999Z</time></trkpt><trkpt lat="41.1646381164556" lon="15.010550179736747"><ele>450.0</ele><time>2026-04-04T12:31:25.999Z</time></trkpt><trkpt lat="41.16467839437497" lon="15.010413377054213"><ele>450.33333333333337</ele><time>2026-04-04T12:31:26.999Z</time></trkpt><trkpt lat="41.164791188352034" lon="15.010332946974067"><ele>450.6666666666667</ele><time>2026-04-04T12:31:27.999Z</time></trkpt><trkpt lat="41.164931279600204" lon="15.010285565037988"><ele>451.0</ele><time>2026-04-04T12:31:28.999Z</time></trkpt><trkpt lat="41.16510638411313" lon="15.010230634823023"><ele>451.0</ele><time>2026-04-04T12:31:29.999Z</time></trkpt><trkpt lat="41.16530104952577" lon="15.010162118015899"><ele>451.0</ele><time>2026-04-04T12:31:30.999Z</time></trkpt><trkpt lat="41.16554406637484" lon="15.010057757952433"><ele>443.6666666666667</ele><time>2026-04-04T12:31:31.999Z</time></trkpt><trkpt lat="41.16576803976557" lon="15.009949882277075"><ele>436.33333333333337</ele><time>2026-04-04T12:31:32.999Z</time></trkpt><trkpt lat="41.16596186787258" lon="15.00985648246863"><ele>429.0</ele><time>2026-04-04T12:31:33.999Z</time></trkpt><trkpt lat="41.166151806632875" lon="15.009803488338774"><ele>429.0</ele><time>2026-04-04T12:31:34.999Z</time></trkpt><trkpt lat="41.16631209240715" lon="15.009756458779654"><ele>429.0</ele><time>2026-04-04T12:31:35.999Z</time></trkpt><trkpt lat="41.16645870172572" lon="15.009660697562067"><ele>429.0</ele><time>2026-04-04T12:31:36.999Z</time></trkpt><trkpt lat="41.16660552659151" lon="15.009516632287795"><ele>433.0</ele><time>2026-04-04T12:31:37.999Z</time></trkpt><trkpt lat="41.1667530658328" lon="15.00938957110176"><ele>437.0</ele><time>2026-04-04T12:31:38.999Z</time></trkpt><trkpt lat="41.16691293128228" lon="15.00931515325954"><ele>441.0</ele><time>2026-04-04T12:31:39.999Z</time></trkpt><trkpt lat="41.167066991686305" lon="15.00923747267743"><ele>441.0</ele><time>2026-04-04T12:31:40.999Z</time></trkpt><trkpt lat="41.16722094847561" lon="15.00916206882134"><ele>441.0</ele><time>2026-04-04T12:31:41.999Z</time></trkpt><trkpt lat="41.167356261854955" lon="15.009096463918036"><ele>441.0</ele><time>2026-04-04T12:31:42.999Z</time></trkpt><trkpt lat="41.16747180332585" lon="15.009030956667761"><ele>441.0</ele><time>2026-04-04T12:31:43.999Z</time></trkpt><trkpt lat="41.16749098090191" lon="15.00872886549836"><ele>441.5</ele><time>2026-04-04T12:31:44.999Z</time></trkpt><trkpt lat="41.167542365956955" lon="15.008579872977975"><ele>442.0</ele><time>2026-04-04T12:31:45.999Z</time></trkpt><trkpt lat="41.1675592476742" lon="15.008422381937061"><ele>442.5</ele><time>2026-04-04T12:31:46.999Z</time></trkpt><trkpt lat="41.16754865138953" lon="15.008255683066242"><ele>443.0</ele><time>2026-04-04T12:31:47.999Z</time></trkpt><trkpt lat="41.1675063587735" lon="15.008079621108328"><ele>443.0</ele><time>2026-04-04T12:31:48.999Z</time></trkpt><trkpt lat="41.16745835709666" lon="15.007894786058582"><ele>443.0</ele><time>2026-04-04T12:31:49.999Z</time></trkpt><trkpt lat="41.167413399433904" lon="15.007709652534123"><ele>443.0</ele><time>2026-04-04T12:31:50.999Z</time></trkpt><trkpt lat="41.167376430706085" lon="15.007525376424152"><ele>443.0</ele><time>2026-04-04T12:31:51.999Z</time></trkpt><trkpt lat="41.167339399813685" lon="15.007348770059792"><ele>438.0</ele><time>2026-04-04T12:31:52.999Z</time></trkpt><trkpt lat="41.16729805279204" lon="15.007165159618335"><ele>433.0</ele><time>2026-04-04T12:31:53.999Z</time></trkpt><trkpt lat="41.167251695231386" lon="15.00697990162144"><ele>428.0</ele><time>2026-04-04T12:31:54.999Z</time></trkpt><trkpt lat="41.167204938198296" lon="15.006783420289466"><ele>423.0</ele><time>2026-04-04T12:31:55.999Z</time></trkpt><trkpt lat="41.16715418986952" lon="15.006588835488134"><ele>423.0</ele><time>2026-04-04T12:31:56.999Z</time></trkpt><trkpt lat="41.167109464336455" lon="15.006386748036512"><ele>423.0</ele><time>2026-04-04T12:31:57.999Z</time></trkpt><trkpt lat="41.16706061793475" lon="15.006172167190627"><ele>423.0</ele><time>2026-04-04T12:31:58.999Z</time></trkpt><trkpt lat="41.16701397280359" lon="15.005960485778212"><ele>425.0</ele><time>2026-04-04T12:31:59.999Z</time></trkpt><trkpt lat="41.166964439566314" lon="15.005754418745363"><ele>427.0</ele><time>2026-04-04T12:32:00.998Z</time></trkpt><trkpt lat="41.16690934490021" lon="15.005570555948516"><ele>429.0</ele><time>2026-04-04T12:32:01.998Z</time></trkpt><trkpt lat="41.1668295356544" lon="15.00539092328539"><ele>429.0</ele><time>2026-04-04T12:32:02.998Z</time></trkpt><trkpt lat="41.166718015906696" lon="15.0052276540883"><ele>429.0</ele><time>2026-04-04T12:32:03.998Z</time></trkpt><trkpt lat="41.16658988519226" lon="15.00506487750712"><ele>429.0</ele><time>2026-04-04T12:32:04.998Z</time></trkpt><trkpt lat="41.16645742071718" lon="15.004893469466984"><ele>426.0</ele><time>2026-04-04T12:32:05.998Z</time></trkpt><trkpt lat="41.16632797714918" lon="15.004716953548844"><ele>423.0</ele><time>2026-04-04T12:32:06.998Z</time></trkpt><trkpt lat="41.16620187228209" lon="15.004548968627018"><ele>420.0</ele><time>2026-04-04T12:32:07.998Z</time></trkpt><trkpt lat="41.166077111315765" lon="15.004403457499892"><ele>420.0</ele><time>2026-04-04T12:32:08.998Z</time></trkpt><trkpt lat="41.165950796335075" lon="15.004272743488286"><ele>420.0</ele><time>2026-04-04T12:32:09.998Z</time></trkpt><trkpt lat="41.1658285919361" lon="15.004141735469007"><ele>420.0</ele><time>2026-04-04T12:32:10.998Z</time></trkpt><trkpt lat="41.165726249946694" lon="15.003990012913253"><ele>418.75</ele><time>2026-04-04T12:32:11.998Z</time></trkpt><trkpt lat="41.16564519691129" lon="15.003835792026702"><ele>417.5</ele><time>2026-04-04T12:32:12.998Z</time></trkpt><trkpt lat="41.16554468568568" lon="15.003723767144427"><ele>416.25</ele><time>2026-04-04T12:32:13.998Z</time></trkpt><trkpt lat="41.16540915921407" lon="15.003659535241907"><ele>415.0</ele><time>2026-04-04T12:32:14.998Z</time></trkpt><trkpt lat="41.16525129437046" lon="15.00361203211885"><ele>415.0</ele><time>2026-04-04T12:32:15.998Z</time></trkpt><trkpt lat="41.16512217179533" lon="15.003578055830099"><ele>415.0</ele><time>2026-04-04T12:32:16.998Z</time></trkpt><trkpt lat="41.165008365655844" lon="15.003509571696412"><ele>415.0</ele><time>2026-04-04T12:32:17.998Z</time></trkpt><trkpt lat="41.16491064673292" lon="15.00339445108137"><ele>415.0</ele><time>2026-04-04T12:32:18.998Z</time></trkpt><trkpt lat="41.16482807487321" lon="15.003206508960687"><ele>412.0</ele><time>2026-04-04T12:32:19.998Z</time></trkpt><trkpt lat="41.16475391195064" lon="15.00301643843821"><ele>409.0</ele><time>2026-04-04T12:32:20.998Z</time></trkpt><trkpt lat="41.164680720944084" lon="15.002840099497716"><ele>406.0</ele><time>2026-04-04T12:32:21.998Z</time></trkpt><trkpt lat="41.164595354578765" lon="15.002696370656357"><ele>406.0</ele><time>2026-04-04T12:32:22.998Z</time></trkpt><trkpt lat="41.16448425690195" lon="15.002578332281837"><ele>406.0</ele><time>2026-04-04T12:32:23.998Z</time></trkpt><trkpt lat="41.164344656101086" lon="15.002514984211327"><ele>406.0</ele><time>2026-04-04T12:32:24.998Z</time></trkpt><trkpt lat="41.16418643707417" lon="15.002506980180685"><ele>406.0</ele><time>2026-04-04T12:32:25.998Z</time></trkpt><trkpt lat="41.16403511303537" lon="15.002514019960092"><ele>403.0</ele><time>2026-04-04T12:32:26.998Z</time></trkpt><trkpt lat="41.1638605720924" lon="15.002551508328125"><ele>400.0</ele><time>2026-04-04T12:32:27.998Z</time></trkpt><trkpt lat="41.163685525551365" lon="15.002537943283198"><ele>397.0</ele><time>2026-04-04T12:32:28.998Z</time></trkpt><trkpt lat="41.163501284043136" lon="15.002593637044859"><ele>397.0</ele><time>2026-04-04T12:32:29.998Z</time></trkpt><trkpt lat="41.163326500169134" lon="15.002639648492636"><ele>397.0</ele><time>2026-04-04T12:32:30.998Z</time></trkpt><trkpt lat="41.16318247404233" lon="15.002668637123302"><ele>397.0</ele><time>2026-04-04T12:32:31.998Z</time></trkpt><trkpt lat="41.16307135887679" lon="15.002690240260952"><ele>397.0</ele><time>2026-04-04T12:32:32.998Z</time></trkpt><trkpt lat="41.1629770613494" lon="15.00265964228944"><ele>393.0</ele><time>2026-04-04T12:32:33.998Z</time></trkpt><trkpt lat="41.16292214414721" lon="15.002550304877085"><ele>389.0</ele><time>2026-04-04T12:32:34.998Z</time></trkpt><trkpt lat="41.16290456488919" lon="15.002397222907916"><ele>385.0</ele><time>2026-04-04T12:32:35.998Z</time></trkpt><trkpt lat="41.16290168498385" lon="15.00224387785969"><ele>381.0</ele><time>2026-04-04T12:32:36.998Z</time></trkpt><trkpt lat="41.1628859498338" lon="15.00204381162074"><ele>381.0</ele><time>2026-04-04T12:32:37.998Z</time></trkpt><trkpt lat="41.162869276669014" lon="15.00181786252711"><ele>381.0</ele><time>2026-04-04T12:32:38.998Z</time></trkpt><trkpt lat="41.162852656126944" lon="15.001592626926438"><ele>381.0</ele><time>2026-04-04T12:32:39.998Z</time></trkpt><trkpt lat="41.16282850437948" lon="15.001384336263314"><ele>382.0</ele><time>2026-04-04T12:32:40.998Z</time></trkpt><trkpt lat="41.162804775478" lon="15.001151645963901"><ele>383.0</ele><time>2026-04-04T12:32:41.998Z</time></trkpt><trkpt lat="41.16276738224638" lon="15.001017584327228"><ele>384.0</ele><time>2026-04-04T12:32:42.998Z</time></trkpt><trkpt lat="41.16267858217428" lon="15.000846537039598"><ele>385.0</ele><time>2026-04-04T12:32:44Z</time></trkpt><trkpt lat="41.16256239658583" lon="15.000690143872074"><ele>385.0</ele><time>2026-04-04T12:32:45Z</time></trkpt><trkpt lat="41.16244228905826" lon="15.000554091368574"><ele>385.0</ele><time>2026-04-04T12:32:46Z</time></trkpt><trkpt lat="41.16232255758334" lon="15.000450445364997"><ele>385.0</ele><time>2026-04-04T12:32:47Z</time></trkpt><trkpt lat="41.162216586757474" lon="15.000353530292081"><ele>385.0</ele><time>2026-04-04T12:32:48Z</time></trkpt><trkpt lat="41.16214840283744" lon="15.000224907037977"><ele>381.25</ele><time>2026-04-04T12:32:49Z</time></trkpt><trkpt lat="41.16210343886412" lon="15.000070535645214"><ele>377.5</ele><time>2026-04-04T12:32:50Z</time></trkpt><trkpt lat="41.16209498377593" lon="14.999909748366917"><ele>373.75</ele><time>2026-04-04T12:32:51Z</time></trkpt><trkpt lat="41.16212857498605" lon="14.999768541755847"><ele>370.0</ele><time>2026-04-04T12:32:52Z</time></trkpt><trkpt lat="41.162215598486256" lon="14.999670357691253"><ele>370.0</ele><time>2026-04-04T12:32:53Z</time></trkpt><trkpt lat="41.162294301374594" lon="14.999532757053215"><ele>370.0</ele><time>2026-04-04T12:32:54Z</time></trkpt><trkpt lat="41.162370122851776" lon="14.999392855095753"><ele>370.0</ele><time>2026-04-04T12:32:55Z</time></trkpt><trkpt lat="41.162438532927794" lon="14.999251057607543"><ele>370.0</ele><time>2026-04-04T12:32:56Z</time></trkpt><trkpt lat="41.16247966881878" lon="14.999096260824468"><ele>371.5</ele><time>2026-04-04T12:32:57Z</time></trkpt><trkpt lat="41.16251624601389" lon="14.9989611828713"><ele>373.0</ele><time>2026-04-04T12:32:58Z</time></trkpt><trkpt lat="41.16251091586209" lon="14.998815133085927"><ele>374.5</ele><time>2026-04-04T12:32:59Z</time></trkpt><trkpt lat="41.16246225262155" lon="14.998672059838269"><ele>376.0</ele><time>2026-04-04T12:33:00Z</time></trkpt><trkpt lat="41.16239636309256" lon="14.998534778010935"><ele>372.75</ele><time>2026-04-04T12:33:01Z</time></trkpt><trkpt lat="41.162308701224084" lon="14.998397210259993"><ele>369.5</ele><time>2026-04-04T12:33:02Z</time></trkpt><trkpt lat="41.16221490353172" lon="14.998244041061477"><ele>366.25</ele><time>2026-04-04T12:33:03Z</time></trkpt><trkpt lat="41.16211898317018" lon="14.998078894861179"><ele>363.0</ele><time>2026-04-04T12:33:04Z</time></trkpt><trkpt lat="41.16202845713064" lon="14.997932886638816"><ele>361.25</ele><time>2026-04-04T12:33:05Z</time></trkpt><trkpt lat="41.16194157532005" lon="14.997785480853915"><ele>359.5</ele><time>2026-04-04T12:33:06Z</time></trkpt><trkpt lat="41.16185902955918" lon="14.997644508241356"><ele>357.75</ele><time>2026-04-04T12:33:07Z</time></trkpt><trkpt lat="41.16180175543814" lon="14.99750694024692"><ele>356.0</ele><time>2026-04-04T12:33:08Z</time></trkpt><trkpt lat="41.161734387459674" lon="14.997357845823293"><ele>356.0</ele><time>2026-04-04T12:33:09Z</time></trkpt><trkpt lat="41.16168738440636" lon="14.997204219563077"><ele>356.0</ele><time>2026-04-04T12:33:10Z</time></trkpt><trkpt lat="41.16163287076144" lon="14.997039653151813"><ele>356.0</ele><time>2026-04-04T12:33:10.999Z</time></trkpt><trkpt lat="41.161571723009196" lon="14.996868685358724"><ele>356.0</ele><time>2026-04-04T12:33:11.999Z</time></trkpt><trkpt lat="41.16148167746978" lon="14.996737964273683"><ele>350.75</ele><time>2026-04-04T12:33:12.999Z</time></trkpt><trkpt lat="41.16139771654385" lon="14.996597493262815"><ele>345.5</ele><time>2026-04-04T12:33:13.999Z</time></trkpt><trkpt lat="41.161323192482634" lon="14.996457424392714"><ele>340.25</ele><time>2026-04-04T12:33:14.999Z</time></trkpt><trkpt lat="41.16127314808885" lon="14.996305836058347"><ele>335.0</ele><time>2026-04-04T12:33:15.999Z</time></trkpt><trkpt lat="41.16124106861196" lon="14.996146667351653"><ele>335.0</ele><time>2026-04-04T12:33:16.999Z</time></trkpt><trkpt lat="41.16119037407927" lon="14.995993223912873"><ele>335.0</ele><time>2026-04-04T12:33:17.999Z</time></trkpt><trkpt lat="41.16110603197322" lon="14.99586139074245"><ele>335.0</ele><time>2026-04-04T12:33:18.999Z</time></trkpt><trkpt lat="41.160984990832624" lon="14.995775413718253"><ele>335.0</ele><time>2026-04-04T12:33:19.999Z</time></trkpt><trkpt lat="41.16083598551998" lon="14.99573013676878"><ele>332.75</ele><time>2026-04-04T12:33:20.999Z</time></trkpt><trkpt lat="41.160678679225256" lon="14.99570670663904"><ele>330.5</ele><time>2026-04-04T12:33:21.999Z</time></trkpt><trkpt lat="41.1605392424903" lon="14.9956564577305"><ele>328.25</ele><time>2026-04-04T12:33:22.999Z</time></trkpt><trkpt lat="41.16040417054785" lon="14.99562215293699"><ele>326.0</ele><time>2026-04-04T12:33:23.999Z</time></trkpt><trkpt lat="41.16028140736716" lon="14.99558413597975"><ele>326.0</ele><time>2026-04-04T12:33:24.999Z</time></trkpt><trkpt lat="41.16017825322051" lon="14.995519347134788"><ele>326.0</ele><time>2026-04-04T12:33:25.999Z</time></trkpt><trkpt lat="41.16009902009938" lon="14.995394146263965"><ele>326.0</ele><time>2026-04-04T12:33:26.999Z</time></trkpt><trkpt lat="41.16005559613265" lon="14.99523696071319"><ele>326.0</ele><time>2026-04-04T12:33:27.999Z</time></trkpt><trkpt lat="41.16004135357782" lon="14.995048391489446"><ele>328.6666666666667</ele><time>2026-04-04T12:33:28.999Z</time></trkpt><trkpt lat="41.1600600192015" lon="14.994794542543273"><ele>331.3333333333333</ele><time>2026-04-04T12:33:29.999Z</time></trkpt><trkpt lat="41.1600640047621" lon="14.994520108936271"><ele>334.0</ele><time>2026-04-04T12:33:30.999Z</time></trkpt><trkpt lat="41.160070466367976" lon="14.994261091062757"><ele>332.3333333333333</ele><time>2026-04-04T12:33:31.999Z</time></trkpt><trkpt lat="41.16004654324488" lon="14.994040264564175"><ele>330.6666666666667</ele><time>2026-04-04T12:33:32.999Z</time></trkpt><trkpt lat="41.16003294576133" lon="14.993805381555596"><ele>329.0</ele><time>2026-04-04T12:33:33.999Z</time></trkpt><trkpt lat="41.160015658471075" lon="14.993579850246956"><ele>329.0</ele><time>2026-04-04T12:33:34.999Z</time></trkpt><trkpt lat="41.16000290681297" lon="14.993372061924983"><ele>329.0</ele><time>2026-04-04T12:33:35.999Z</time></trkpt><trkpt lat="41.16000048636773" lon="14.993157207263458"><ele>329.0</ele><time>2026-04-04T12:33:36.999Z</time></trkpt><trkpt lat="41.15994464073412" lon="14.992998347886177"><ele>327.75</ele><time>2026-04-04T12:33:37.999Z</time></trkpt><trkpt lat="41.159876007678825" lon="14.992842230573212"><ele>326.5</ele><time>2026-04-04T12:33:38.999Z</time></trkpt><trkpt lat="41.15979421728262" lon="14.992701474384564"><ele>325.25</ele><time>2026-04-04T12:33:39.999Z</time></trkpt><trkpt lat="41.15968366666872" lon="14.992598844510722"><ele>324.0</ele><time>2026-04-04T12:33:40.999Z</time></trkpt><trkpt lat="41.15954914345891" lon="14.992531894220548"><ele>321.5</ele><time>2026-04-04T12:33:41.999Z</time></trkpt><trkpt lat="41.15941363467517" lon="14.992516622780757"><ele>319.0</ele><time>2026-04-04T12:33:42.999Z</time></trkpt><trkpt lat="41.15928528669349" lon="14.99251647919043"><ele>316.5</ele><time>2026-04-04T12:33:43.999Z</time></trkpt><trkpt lat="41.15917838726286" lon="14.99246914970707"><ele>314.0</ele><time>2026-04-04T12:33:44.999Z</time></trkpt><trkpt lat="41.15907885707774" lon="14.992402410537293"><ele>309.0</ele><time>2026-04-04T12:33:45.999Z</time></trkpt><trkpt lat="41.15899656083025" lon="14.992283655156104"><ele>304.0</ele><time>2026-04-04T12:33:46.998Z</time></trkpt><trkpt lat="41.15890871918856" lon="14.99212349691854"><ele>299.0</ele><time>2026-04-04T12:33:47.998Z</time></trkpt><trkpt lat="41.158825942238224" lon="14.991946899544661"><ele>294.0</ele><time>2026-04-04T12:33:48.998Z</time></trkpt><trkpt lat="41.1588159229018" lon="14.991754763299028"><ele>294.8</ele><time>2026-04-04T12:33:49.998Z</time></trkpt><trkpt lat="41.15882825807497" lon="14.991588835791518"><ele>295.59999999999997</ele><time>2026-04-04T12:33:50.998Z</time></trkpt><trkpt lat="41.15881264503668" lon="14.991460709533248"><ele>296.4</ele><time>2026-04-04T12:33:51.998Z</time></trkpt><trkpt lat="41.158767755144716" lon="14.991358854336694"><ele>297.2</ele><time>2026-04-04T12:33:52.998Z</time></trkpt><trkpt lat="41.15867820853982" lon="14.991334713420132"><ele>298.0</ele><time>2026-04-04T12:33:53.998Z</time></trkpt><trkpt lat="41.15859873468476" lon="14.991335362218082"><ele>298.0</ele><time>2026-04-04T12:33:54.998Z</time></trkpt><trkpt lat="41.158495536094684" lon="14.991388712527657"><ele>298.0</ele><time>2026-04-04T12:33:55.998Z</time></trkpt><trkpt lat="41.15840551142551" lon="14.991472886122345"><ele>298.0</ele><time>2026-04-04T12:33:56.998Z</time></trkpt><trkpt lat="41.15831095381699" lon="14.991550771417486"><ele>298.0</ele><time>2026-04-04T12:33:57.998Z</time></trkpt><trkpt lat="41.15821410933026" lon="14.9916312809552"><ele>298.0</ele><time>2026-04-04T12:33:58.998Z</time></trkpt><trkpt lat="41.15810662523029" lon="14.99170761247754"><ele>293.75</ele><time>2026-04-04T12:33:59.998Z</time></trkpt><trkpt lat="41.1579835477987" lon="14.991759837718275"><ele>289.5</ele><time>2026-04-04T12:34:00.998Z</time></trkpt><trkpt lat="41.157856332536696" lon="14.99178849361617"><ele>285.25</ele><time>2026-04-04T12:34:01.998Z</time></trkpt><trkpt lat="41.157725668863364" lon="14.991806575850577"><ele>281.0</ele><time>2026-04-04T12:34:02.998Z</time></trkpt><trkpt lat="41.15759586708585" lon="14.991778116740152"><ele>281.0</ele><time>2026-04-04T12:34:03.998Z</time></trkpt><trkpt lat="41.15745785746767" lon="14.991712911238302"><ele>281.0</ele><time>2026-04-04T12:34:04.998Z</time></trkpt><trkpt lat="41.15732006479091" lon="14.99164568302407"><ele>281.0</ele><time>2026-04-04T12:34:05.998Z</time></trkpt><trkpt lat="41.1571746661369" lon="14.991590434141173"><ele>281.0</ele><time>2026-04-04T12:34:06.998Z</time></trkpt><trkpt lat="41.15702502523651" lon="14.991517499014192"><ele>281.0</ele><time>2026-04-04T12:34:07.998Z</time></trkpt><trkpt lat="41.15686565481852" lon="14.991456141859977"><ele>281.0</ele><time>2026-04-04T12:34:08.998Z</time></trkpt><trkpt lat="41.15671372823897" lon="14.991403735539741"><ele>281.0</ele><time>2026-04-04T12:34:09.998Z</time></trkpt><trkpt lat="41.156568537757806" lon="14.991350444755616"><ele>276.5</ele><time>2026-04-04T12:34:10.998Z</time></trkpt><trkpt lat="41.15642780999331" lon="14.991301546507982"><ele>272.0</ele><time>2026-04-04T12:34:11.998Z</time></trkpt><trkpt lat="41.15629244097977" lon="14.991252492856457"><ele>267.5</ele><time>2026-04-04T12:34:12.998Z</time></trkpt><trkpt lat="41.15617720842242" lon="14.991167988207877"><ele>263.0</ele><time>2026-04-04T12:34:13.998Z</time></trkpt><trkpt lat="41.156047674577685" lon="14.99108574197462"><ele>263.0</ele><time>2026-04-04T12:34:14.998Z</time></trkpt><trkpt lat="41.15593557795429" lon="14.990956957740908"><ele>263.0</ele><time>2026-04-04T12:34:15.998Z</time></trkpt><trkpt lat="41.15592784240815" lon="14.990713653007633"><ele>263.0</ele><time>2026-04-04T12:34:16.998Z</time></trkpt><trkpt lat="41.1558857573463" lon="14.990583962761349"><ele>263.0</ele><time>2026-04-04T12:34:17.998Z</time></trkpt><trkpt lat="41.15588671608484" lon="14.990465774758484"><ele>263.75</ele><time>2026-04-04T12:34:18.998Z</time></trkpt><trkpt lat="41.15594412941624" lon="14.990332266573835"><ele>264.5</ele><time>2026-04-04T12:34:19.998Z</time></trkpt><trkpt lat="41.15605945792392" lon="14.990229803451724"><ele>265.25</ele><time>2026-04-04T12:34:20.998Z</time></trkpt><trkpt lat="41.15616194534335" lon="14.990104239004847"><ele>266.0</ele><time>2026-04-04T12:34:21.998Z</time></trkpt><trkpt lat="41.15628452342588" lon="14.989983766462954"><ele>266.0</ele><time>2026-04-04T12:34:22.998Z</time></trkpt><trkpt lat="41.15640984329847" lon="14.989863627661348"><ele>266.0</ele><time>2026-04-04T12:34:23.998Z</time></trkpt><trkpt lat="41.156532371574585" lon="14.989745251678249"><ele>266.0</ele><time>2026-04-04T12:34:24.998Z</time></trkpt><trkpt lat="41.15665982196849" lon="14.989617905272793"><ele>267.75</ele><time>2026-04-04T12:34:25.998Z</time></trkpt><trkpt lat="41.15679461965201" lon="14.989532674699166"><ele>269.5</ele><time>2026-04-04T12:34:26.998Z</time></trkpt><trkpt lat="41.15691592864227" lon="14.989491504067368"><ele>271.25</ele><time>2026-04-04T12:34:27.998Z</time></trkpt><trkpt lat="41.15705263668234" lon="14.989485384366649"><ele>273.0</ele><time>2026-04-04T12:34:28.998Z</time></trkpt><trkpt lat="41.15720158534052" lon="14.989519745165078"><ele>273.0</ele><time>2026-04-04T12:34:29.998Z</time></trkpt><trkpt lat="41.15735053261861" lon="14.989533063622531"><ele>273.0</ele><time>2026-04-04T12:34:30.997Z</time></trkpt><trkpt lat="41.15745945169091" lon="14.989570193987845"><ele>273.0</ele><time>2026-04-04T12:34:31.997Z</time></trkpt><trkpt lat="41.1575347445554" lon="14.98957090539257"><ele>273.0</ele><time>2026-04-04T12:34:32.997Z</time></trkpt><trkpt lat="41.157600398847556" lon="14.989565397530772"><ele>273.0</ele><time>2026-04-04T12:34:33.997Z</time></trkpt><trkpt lat="41.157644817395564" lon="14.989505953988152"><ele>272.6666666666667</ele><time>2026-04-04T12:34:34.997Z</time></trkpt><trkpt lat="41.157677356663044" lon="14.989420189551854"><ele>272.3333333333333</ele><time>2026-04-04T12:34:35.997Z</time></trkpt><trkpt lat="41.15768021190813" lon="14.989318140928807"><ele>272.0</ele><time>2026-04-04T12:34:36.997Z</time></trkpt><trkpt lat="41.15765083664701" lon="14.989199611013943"><ele>271.66666666666663</ele><time>2026-04-04T12:34:37.997Z</time></trkpt><trkpt lat="41.157586890087515" lon="14.989093966612693"><ele>271.3333333333333</ele><time>2026-04-04T12:34:38.997Z</time></trkpt><trkpt lat="41.157497701887934" lon="14.989022104489363"><ele>271.0</ele><time>2026-04-04T12:34:39.997Z</time></trkpt><trkpt lat="41.157388108670304" lon="14.988974417367837"><ele>267.0</ele><time>2026-04-04T12:34:40.997Z</time></trkpt><trkpt lat="41.15726408915702" lon="14.988929212413604"><ele>263.0</ele><time>2026-04-04T12:34:41.997Z</time></trkpt><trkpt lat="41.15713644477832" lon="14.98886825861305"><ele>259.0</ele><time>2026-04-04T12:34:42.997Z</time></trkpt><trkpt lat="41.15701516800005" lon="14.988799688043784"><ele>255.0</ele><time>2026-04-04T12:34:43.997Z</time></trkpt><trkpt lat="41.15688463690197" lon="14.988735698010139"><ele>255.0</ele><time>2026-04-04T12:34:44.997Z</time></trkpt><trkpt lat="41.15675122465043" lon="14.988705553210144"><ele>255.0</ele><time>2026-04-04T12:34:45.997Z</time></trkpt><trkpt lat="41.15661544700091" lon="14.988704587197967"><ele>255.0</ele><time>2026-04-04T12:34:46.997Z</time></trkpt><trkpt lat="41.156485579981556" lon="14.988721019781908"><ele>255.0</ele><time>2026-04-04T12:34:47.997Z</time></trkpt><trkpt lat="41.156356845195134" lon="14.988756283872693"><ele>253.5</ele><time>2026-04-04T12:34:48.997Z</time></trkpt><trkpt lat="41.156238136128806" lon="14.9887807264065"><ele>252.0</ele><time>2026-04-04T12:34:50Z</time></trkpt><trkpt lat="41.15610781630204" lon="14.988786150830745"><ele>250.5</ele><time>2026-04-04T12:34:51Z</time></trkpt><trkpt lat="41.15597807459459" lon="14.988764115517508"><ele>249.0</ele><time>2026-04-04T12:34:52Z</time></trkpt><trkpt lat="41.155846008558605" lon="14.988701092106377"><ele>249.0</ele><time>2026-04-04T12:34:53Z</time></trkpt><trkpt lat="41.1557224179269" lon="14.988570346420577"><ele>249.0</ele><time>2026-04-04T12:34:54Z</time></trkpt><trkpt lat="41.155587476352544" lon="14.988455868552508"><ele>249.0</ele><time>2026-04-04T12:34:55Z</time></trkpt><trkpt lat="41.15545693720109" lon="14.988318567227399"><ele>245.0</ele><time>2026-04-04T12:34:56Z</time></trkpt><trkpt lat="41.155323932389514" lon="14.988197316602154"><ele>241.0</ele><time>2026-04-04T12:34:57Z</time></trkpt><trkpt lat="41.15519849680329" lon="14.988089899608546"><ele>237.0</ele><time>2026-04-04T12:34:58Z</time></trkpt><trkpt lat="41.15506571286081" lon="14.987969858449977"><ele>237.0</ele><time>2026-04-04T12:34:59Z</time></trkpt><trkpt lat="41.15494870352284" lon="14.987850920746077"><ele>237.0</ele><time>2026-04-04T12:35:00Z</time></trkpt><trkpt lat="41.15483558484762" lon="14.987757816153108"><ele>237.0</ele><time>2026-04-04T12:35:01Z</time></trkpt><trkpt lat="41.154731832798205" lon="14.987693411389731"><ele>237.0</ele><time>2026-04-04T12:35:02Z</time></trkpt><trkpt lat="41.154632299528494" lon="14.987669237607287"><ele>234.0</ele><time>2026-04-04T12:35:03Z</time></trkpt><trkpt lat="41.15451540069378" lon="14.98770986812142"><ele>231.0</ele><time>2026-04-04T12:35:04Z</time></trkpt><trkpt lat="41.15441373368965" lon="14.987806840248831"><ele>228.0</ele><time>2026-04-04T12:35:05Z</time></trkpt><trkpt lat="41.15432199493783" lon="14.987938998572004"><ele>225.0</ele><time>2026-04-04T12:35:06Z</time></trkpt><trkpt lat="41.15421210416245" lon="14.988057211806606"><ele>225.0</ele><time>2026-04-04T12:35:07Z</time></trkpt><trkpt lat="41.154092065004164" lon="14.988184114030247"><ele>225.0</ele><time>2026-04-04T12:35:08Z</time></trkpt><trkpt lat="41.15396719373377" lon="14.988312118705219"><ele>225.0</ele><time>2026-04-04T12:35:09Z</time></trkpt><trkpt lat="41.153844401709144" lon="14.98844593388068"><ele>221.0</ele><time>2026-04-04T12:35:10Z</time></trkpt><trkpt lat="41.153707671781355" lon="14.988583740961557"><ele>217.0</ele><time>2026-04-04T12:35:11Z</time></trkpt><trkpt lat="41.153578876214375" lon="14.988758833903022"><ele>213.0</ele><time>2026-04-04T12:35:12Z</time></trkpt><trkpt lat="41.15345147310811" lon="14.988951740177507"><ele>213.0</ele><time>2026-04-04T12:35:13Z</time></trkpt><trkpt lat="41.15332166276815" lon="14.98912576717971"><ele>213.0</ele><time>2026-04-04T12:35:14Z</time></trkpt><trkpt lat="41.15319545559934" lon="14.989284142636592"><ele>213.0</ele><time>2026-04-04T12:35:15Z</time></trkpt><trkpt lat="41.1530784800224" lon="14.989435125622023"><ele>210.0</ele><time>2026-04-04T12:35:16Z</time></trkpt><trkpt lat="41.152961458031065" lon="14.989556506017678"><ele>207.0</ele><time>2026-04-04T12:35:17Z</time></trkpt><trkpt lat="41.15286707439829" lon="14.989660543202998"><ele>204.0</ele><time>2026-04-04T12:35:18Z</time></trkpt><trkpt lat="41.15276819753074" lon="14.989735819518778"><ele>201.0</ele><time>2026-04-04T12:35:19Z</time></trkpt><trkpt lat="41.15266576563529" lon="14.989789041596728"><ele>201.0</ele><time>2026-04-04T12:35:20Z</time></trkpt><trkpt lat="41.15254950633555" lon="14.98975080770912"><ele>201.0</ele><time>2026-04-04T12:35:21Z</time></trkpt><trkpt lat="41.15246435643327" lon="14.989629303237809"><ele>201.0</ele><time>2026-04-04T12:35:22Z</time></trkpt><trkpt lat="41.15238522644887" lon="14.98948308541764"><ele>201.0</ele><time>2026-04-04T12:35:23Z</time></trkpt><trkpt lat="41.152339106476475" lon="14.989294421271445"><ele>197.33333333333334</ele><time>2026-04-04T12:35:24Z</time></trkpt><trkpt lat="41.152280832697194" lon="14.989112008638877"><ele>193.66666666666669</ele><time>2026-04-04T12:35:24.999Z</time></trkpt><trkpt lat="41.15221936487389" lon="14.988920282639604"><ele>190.0</ele><time>2026-04-04T12:35:25.999Z</time></trkpt><trkpt lat="41.152157718327786" lon="14.988726894789307"><ele>190.0</ele><time>2026-04-04T12:35:26.999Z</time></trkpt><trkpt lat="41.15209816356057" lon="14.988535354277335"><ele>190.0</ele><time>2026-04-04T12:35:27.999Z</time></trkpt><trkpt lat="41.152041811155925" lon="14.98834341240219"><ele>190.0</ele><time>2026-04-04T12:35:28.999Z</time></trkpt><trkpt lat="41.15200473807563" lon="14.988148792849591"><ele>188.66666666666669</ele><time>2026-04-04T12:35:29.999Z</time></trkpt><trkpt lat="41.15200089256696" lon="14.987943683666083"><ele>187.33333333333334</ele><time>2026-04-04T12:35:30.999Z</time></trkpt><trkpt lat="41.15201748406809" lon="14.987696357829524"><ele>186.0</ele><time>2026-04-04T12:35:31.999Z</time></trkpt><trkpt lat="41.15206273799351" lon="14.987463818372925"><ele>186.0</ele><time>2026-04-04T12:35:32.999Z</time></trkpt><trkpt lat="41.15212333615809" lon="14.987236222773058"><ele>186.0</ele><time>2026-04-04T12:35:33.999Z</time></trkpt><trkpt lat="41.152189975538505" lon="14.987005621264528"><ele>186.0</ele><time>2026-04-04T12:35:34.999Z</time></trkpt><trkpt lat="41.152260104815376" lon="14.986766821071642"><ele>185.66666666666666</ele><time>2026-04-04T12:35:35.999Z</time></trkpt><trkpt lat="41.152330654267246" lon="14.986532560487928"><ele>185.33333333333331</ele><time>2026-04-04T12:35:36.999Z</time></trkpt><trkpt lat="41.15239526969722" lon="14.98630302754206"><ele>185.0</ele><time>2026-04-04T12:35:37.999Z</time></trkpt><trkpt lat="41.152458392012846" lon="14.98608471692118"><ele>185.0</ele><time>2026-04-04T12:35:38.999Z</time></trkpt><trkpt lat="41.15252460363312" lon="14.985862966651661"><ele>185.0</ele><time>2026-04-04T12:35:39.999Z</time></trkpt><trkpt lat="41.152584823100156" lon="14.985656596115291"><ele>185.0</ele><time>2026-04-04T12:35:40.999Z</time></trkpt><trkpt lat="41.15263314670633" lon="14.985462378788288"><ele>185.0</ele><time>2026-04-04T12:35:41.999Z</time></trkpt><trkpt lat="41.15266612528173" lon="14.98525664451796"><ele>185.0</ele><time>2026-04-04T12:35:42.999Z</time></trkpt><trkpt lat="41.15267790289719" lon="14.985041836017874"><ele>185.0</ele><time>2026-04-04T12:35:43.999Z</time></trkpt><trkpt lat="41.15268749654375" lon="14.984825619594355"><ele>184.33333333333331</ele><time>2026-04-04T12:35:44.999Z</time></trkpt><trkpt lat="41.15269839400995" lon="14.984605219916867"><ele>183.66666666666666</ele><time>2026-04-04T12:35:45.999Z</time></trkpt><trkpt lat="41.15271098265645" lon="14.98438042991546"><ele>183.0</ele><time>2026-04-04T12:35:46.999Z</time></trkpt><trkpt lat="41.152713934117635" lon="14.984149062993156"><ele>182.66666666666666</ele><time>2026-04-04T12:35:47.999Z</time></trkpt><trkpt lat="41.15271201763038" lon="14.98391482157308"><ele>182.33333333333331</ele><time>2026-04-04T12:35:48.999Z</time></trkpt><trkpt lat="41.15270991172215" lon="14.983678441029152"><ele>182.0</ele><time>2026-04-04T12:35:49.999Z</time></trkpt><trkpt lat="41.1526946914094" lon="14.983434584117143"><ele>181.66666666666666</ele><time>2026-04-04T12:35:50.999Z</time></trkpt><trkpt lat="41.15267984877497" lon="14.983167402560355"><ele>181.33333333333334</ele><time>2026-04-04T12:35:51.999Z</time></trkpt><trkpt lat="41.1526716991501" lon="14.982865649149753"><ele>181.0</ele><time>2026-04-04T12:35:52.999Z</time></trkpt><trkpt lat="41.15265253388002" lon="14.982510093806754"><ele>180.0</ele><time>2026-04-04T12:35:53.999Z</time></trkpt><trkpt lat="41.152635658314196" lon="14.982135894329867"><ele>179.0</ele><time>2026-04-04T12:35:54.999Z</time></trkpt><trkpt lat="41.15262928159498" lon="14.981758537286886"><ele>179.0</ele><time>2026-04-04T12:35:55.999Z</time></trkpt><trkpt lat="41.15261326913031" lon="14.981353813432953"><ele>179.0</ele><time>2026-04-04T12:35:56.999Z</time></trkpt><trkpt lat="41.152602018837044" lon="14.980919525216132"><ele>178.5</ele><time>2026-04-04T12:35:57.999Z</time></trkpt><trkpt lat="41.15259091192436" lon="14.98047468747029"><ele>178.0</ele><time>2026-04-04T12:35:58.999Z</time></trkpt><trkpt lat="41.152574027224894" lon="14.98000896303046"><ele>178.0</ele><time>2026-04-04T12:35:59.999Z</time></trkpt><trkpt lat="41.15255236253371" lon="14.979560672283025"><ele>178.0</ele><time>2026-04-04T12:36:00.999Z</time></trkpt><trkpt lat="41.15253938083314" lon="14.979155043557142"><ele>179.0</ele><time>2026-04-04T12:36:01.999Z</time></trkpt><trkpt lat="41.15252912349154" lon="14.978789903909037"><ele>180.0</ele><time>2026-04-04T12:36:02.999Z</time></trkpt><trkpt lat="41.152519161282505" lon="14.978444273411073"><ele>180.0</ele><time>2026-04-04T12:36:03.999Z</time></trkpt><trkpt lat="41.152508484160606" lon="14.978117370805347"><ele>180.0</ele><time>2026-04-04T12:36:04.999Z</time></trkpt><trkpt lat="41.152498522049555" lon="14.977802805650137"><ele>181.0</ele><time>2026-04-04T12:36:05.999Z</time></trkpt><trkpt lat="41.15248484990148" lon="14.977482086558323"><ele>182.0</ele><time>2026-04-04T12:36:06.999Z</time></trkpt><trkpt lat="41.15246056107044" lon="14.97715706797192"><ele>182.0</ele><time>2026-04-04T12:36:07.999Z</time></trkpt><trkpt lat="41.152418578575926" lon="14.97683996247064"><ele>182.0</ele><time>2026-04-04T12:36:08.999Z</time></trkpt><trkpt lat="41.152353809054915" lon="14.976523953175587"><ele>180.5</ele><time>2026-04-04T12:36:09.998Z</time></trkpt><trkpt lat="41.1522879845061" lon="14.976217931146682"><ele>179.0</ele><time>2026-04-04T12:36:10.998Z</time></trkpt><trkpt lat="41.15222374668584" lon="14.975915427577053"><ele>180.5</ele><time>2026-04-04T12:36:11.998Z</time></trkpt><trkpt lat="41.152156975440256" lon="14.97561466323907"><ele>182.0</ele><time>2026-04-04T12:36:12.998Z</time></trkpt><trkpt lat="41.15208826190633" lon="14.975304056258361"><ele>182.5</ele><time>2026-04-04T12:36:13.998Z</time></trkpt><trkpt lat="41.152025356809304" lon="14.975005632332309"><ele>183.0</ele><time>2026-04-04T12:36:14.998Z</time></trkpt><trkpt lat="41.15196743495211" lon="14.974714074402335"><ele>183.0</ele><time>2026-04-04T12:36:15.998Z</time></trkpt><trkpt lat="41.15190620566854" lon="14.9744147407249"><ele>183.0</ele><time>2026-04-04T12:36:16.998Z</time></trkpt><trkpt lat="41.15185070752713" lon="14.974135197917663"><ele>183.66666666666666</ele><time>2026-04-04T12:36:17.998Z</time></trkpt><trkpt lat="41.15179142357388" lon="14.973876528834976"><ele>184.33333333333331</ele><time>2026-04-04T12:36:18.998Z</time></trkpt><trkpt lat="41.15174410197463" lon="14.973625683095078"><ele>185.0</ele><time>2026-04-04T12:36:19.998Z</time></trkpt><trkpt lat="41.15162797840416" lon="14.973383557245995"><ele>182.0</ele><time>2026-04-04T12:36:20.998Z</time></trkpt><trkpt lat="41.15151126549608" lon="14.973116731961879"><ele>179.0</ele><time>2026-04-04T12:36:21.998Z</time></trkpt><trkpt lat="41.15137564420331" lon="14.972859898914717"><ele>179.0</ele><time>2026-04-04T12:36:22.998Z</time></trkpt><trkpt lat="41.15123978891109" lon="14.972641598462872"><ele>179.0</ele><time>2026-04-04T12:36:23.998Z</time></trkpt><trkpt lat="41.15110437651939" lon="14.972452854901425"><ele>179.0</ele><time>2026-04-04T12:36:24.998Z</time></trkpt><trkpt lat="41.15096700679148" lon="14.972279146793303"><ele>179.33333333333331</ele><time>2026-04-04T12:36:25.998Z</time></trkpt><trkpt lat="41.150829722162634" lon="14.972132779810174"><ele>179.66666666666666</ele><time>2026-04-04T12:36:26.998Z</time></trkpt><trkpt lat="41.15068685138117" lon="14.972000784212007"><ele>180.0</ele><time>2026-04-04T12:36:27.998Z</time></trkpt><trkpt lat="41.15054601788064" lon="14.971881428267281"><ele>180.0</ele><time>2026-04-04T12:36:28.998Z</time></trkpt><trkpt lat="41.150419465905586" lon="14.97177028314342"><ele>180.0</ele><time>2026-04-04T12:36:29.998Z</time></trkpt><trkpt lat="41.1503002168287" lon="14.971667513008619"><ele>180.0</ele><time>2026-04-04T12:36:30.998Z</time></trkpt><trkpt lat="41.1501866187726" lon="14.97157447395249"><ele>180.0</ele><time>2026-04-04T12:36:31.998Z</time></trkpt><trkpt lat="41.15009643093341" lon="14.97149481436357"><ele>180.0</ele><time>2026-04-04T12:36:32.998Z</time></trkpt><trkpt lat="41.15002952966073" lon="14.971408602739716"><ele>180.0</ele><time>2026-04-04T12:36:33.998Z</time></trkpt><trkpt lat="41.15000767881708" lon="14.971320538297341"><ele>180.0</ele><time>2026-04-04T12:36:34.998Z</time></trkpt><trkpt lat="41.150010798152046" lon="14.971164395608318"><ele>180.0</ele><time>2026-04-04T12:36:36.998Z</time></trkpt><trkpt lat="41.15003570365185" lon="14.97107399394835"><ele>180.0</ele><time>2026-04-04T12:36:37.998Z</time></trkpt><trkpt lat="41.150078781351205" lon="14.970978527784313"><ele>180.0</ele><time>2026-04-04T12:36:38.998Z</time></trkpt><trkpt lat="41.15012965131588" lon="14.970871953811365"><ele>180.0</ele><time>2026-04-04T12:36:39.998Z</time></trkpt><trkpt lat="41.15019378896339" lon="14.970759724690895"><ele>180.0</ele><time>2026-04-04T12:36:40.998Z</time></trkpt><trkpt lat="41.150272757803066" lon="14.970648337457503"><ele>180.0</ele><time>2026-04-04T12:36:41.998Z</time></trkpt><trkpt lat="41.15037524042235" lon="14.970529597776455"><ele>180.0</ele><time>2026-04-04T12:36:42.998Z</time></trkpt><trkpt lat="41.15049515824635" lon="14.970405595466802"><ele>180.0</ele><time>2026-04-04T12:36:43.998Z</time></trkpt><trkpt lat="41.150612014241915" lon="14.970278099410274"><ele>180.0</ele><time>2026-04-04T12:36:44.998Z</time></trkpt><trkpt lat="41.150725553157784" lon="14.970118627041524"><ele>180.0</ele><time>2026-04-04T12:36:45.998Z</time></trkpt><trkpt lat="41.15085144857085" lon="14.969944521790357"><ele>180.66666666666666</ele><time>2026-04-04T12:36:46.998Z</time></trkpt><trkpt lat="41.150997259846584" lon="14.969736074181753"><ele>181.33333333333331</ele><time>2026-04-04T12:36:47.998Z</time></trkpt><trkpt lat="41.151137903046575" lon="14.969550926600371"><ele>182.0</ele><time>2026-04-04T12:36:48.998Z</time></trkpt><trkpt lat="41.151259816262005" lon="14.969391911358107"><ele>182.0</ele><time>2026-04-04T12:36:49.998Z</time></trkpt><trkpt lat="41.15138410250679" lon="14.96925924228449"><ele>182.0</ele><time>2026-04-04T12:36:50.998Z</time></trkpt><trkpt lat="41.151511619477944" lon="14.969137703964728"><ele>182.0</ele><time>2026-04-04T12:36:51.998Z</time></trkpt><trkpt lat="41.15161819288629" lon="14.969023917705218"><ele>183.5</ele><time>2026-04-04T12:36:52.998Z</time></trkpt><trkpt lat="41.1516992631184" lon="14.96890378132032"><ele>185.0</ele><time>2026-04-04T12:36:53.997Z</time></trkpt><trkpt lat="41.1517542523649" lon="14.96877739632589"><ele>186.5</ele><time>2026-04-04T12:36:54.997Z</time></trkpt><trkpt lat="41.15178995494836" lon="14.968622814811146"><ele>188.0</ele><time>2026-04-04T12:36:56Z</time></trkpt><trkpt lat="41.151829735138904" lon="14.96844782877563"><ele>186.5</ele><time>2026-04-04T12:36:57Z</time></trkpt><trkpt lat="41.15188213961833" lon="14.968268575142899"><ele>185.0</ele><time>2026-04-04T12:36:58Z</time></trkpt><trkpt lat="41.15194078697764" lon="14.968100265952815"><ele>183.5</ele><time>2026-04-04T12:36:59Z</time></trkpt><trkpt lat="41.15198467182833" lon="14.967939344487233"><ele>182.0</ele><time>2026-04-04T12:37:00Z</time></trkpt><trkpt lat="41.15201285269834" lon="14.967786226105291"><ele>182.0</ele><time>2026-04-04T12:37:01Z</time></trkpt><trkpt lat="41.15203865629681" lon="14.967636467600974"><ele>182.0</ele><time>2026-04-04T12:37:02Z</time></trkpt><trkpt lat="41.15209637056868" lon="14.967376657393078"><ele>182.0</ele><time>2026-04-04T12:37:04Z</time></trkpt><trkpt lat="41.15212911201829" lon="14.967285705430362"><ele>182.0</ele><time>2026-04-04T12:37:05Z</time></trkpt><trkpt lat="41.15217362365867" lon="14.967186474615756"><ele>181.66666666666666</ele><time>2026-04-04T12:37:07Z</time></trkpt><trkpt lat="41.15217430053086" lon="14.967083365119311"><ele>181.33333333333331</ele><time>2026-04-04T12:37:09Z</time></trkpt><trkpt lat="41.152156232722334" lon="14.966968420445411"><ele>181.0</ele><time>2026-04-04T12:37:11Z</time></trkpt><trkpt lat="41.15212291617917" lon="14.966886661365498"><ele>180.66666666666666</ele><time>2026-04-04T12:37:12Z</time></trkpt><trkpt lat="41.15206984983141" lon="14.966799841268175"><ele>180.33333333333334</ele><time>2026-04-04T12:37:13Z</time></trkpt><trkpt lat="41.15200777955998" lon="14.966700010018762"><ele>180.0</ele><time>2026-04-04T12:37:14Z</time></trkpt><trkpt lat="41.15194303734527" lon="14.966617081237256"><ele>180.0</ele><time>2026-04-04T12:37:15Z</time></trkpt><trkpt lat="41.151881171537376" lon="14.966544072061204"><ele>180.0</ele><time>2026-04-04T12:37:16Z</time></trkpt><trkpt lat="41.15182429997785" lon="14.96647578352579"><ele>180.0</ele><time>2026-04-04T12:37:17Z</time></trkpt><trkpt lat="41.151771055536116" lon="14.966414029052494"><ele>180.0</ele><time>2026-04-04T12:37:18Z</time></trkpt><trkpt lat="41.1517027504839" lon="14.96627074240056"><ele>180.0</ele><time>2026-04-04T12:37:20Z</time></trkpt><trkpt lat="41.151681886611" lon="14.966174105047957"><ele>180.0</ele><time>2026-04-04T12:37:21Z</time></trkpt><trkpt lat="41.15166671518465" lon="14.966045679119674"><ele>180.0</ele><time>2026-04-04T12:37:22Z</time></trkpt><trkpt lat="41.151643812137905" lon="14.96589848809811"><ele>180.0</ele><time>2026-04-04T12:37:23Z</time></trkpt><trkpt lat="41.15164059431049" lon="14.96573956253547"><ele>180.0</ele><time>2026-04-04T12:37:24Z</time></trkpt><trkpt lat="41.151654205169926" lon="14.965578634778664"><ele>180.0</ele><time>2026-04-04T12:37:25Z</time></trkpt><trkpt lat="41.151639712331566" lon="14.965411684337106"><ele>180.25</ele><time>2026-04-04T12:37:26Z</time></trkpt><trkpt lat="41.15162263731114" lon="14.96521889375168"><ele>180.5</ele><time>2026-04-04T12:37:27Z</time></trkpt><trkpt lat="41.15160708849355" lon="14.965047002594341"><ele>180.75</ele><time>2026-04-04T12:37:28Z</time></trkpt><trkpt lat="41.15157879713198" lon="14.964878419751585"><ele>181.0</ele><time>2026-04-04T12:37:29Z</time></trkpt><trkpt lat="41.15156864347092" lon="14.964727361246469"><ele>180.25</ele><time>2026-04-04T12:37:30Z</time></trkpt><trkpt lat="41.15155187612985" lon="14.964553746507235"><ele>179.5</ele><time>2026-04-04T12:37:30.999Z</time></trkpt><trkpt lat="41.151533552517286" lon="14.9643946963404"><ele>178.75</ele><time>2026-04-04T12:37:31.999Z</time></trkpt><trkpt lat="41.151515532448066" lon="14.964227225425917"><ele>178.0</ele><time>2026-04-04T12:37:32.999Z</time></trkpt><trkpt lat="41.15149682393069" lon="14.964061038655116"><ele>177.5</ele><time>2026-04-04T12:37:33.999Z</time></trkpt><trkpt lat="41.15148339568291" lon="14.963875987202249"><ele>177.0</ele><time>2026-04-04T12:37:34.999Z</time></trkpt><trkpt lat="41.1514610117148" lon="14.963662320451096"><ele>176.5</ele><time>2026-04-04T12:37:35.999Z</time></trkpt><trkpt lat="41.151440297941" lon="14.963482574901521"><ele>176.0</ele><time>2026-04-04T12:37:36.999Z</time></trkpt><trkpt lat="41.15143316056052" lon="14.963321091526705"><ele>175.8</ele><time>2026-04-04T12:37:37.999Z</time></trkpt><trkpt lat="41.15141763549204" lon="14.963182252634"><ele>175.60000000000002</ele><time>2026-04-04T12:37:38.999Z</time></trkpt><trkpt lat="41.15140400828203" lon="14.963039607805028"><ele>175.4</ele><time>2026-04-04T12:37:39.999Z</time></trkpt><trkpt lat="41.15138963705677" lon="14.96289127890703"><ele>175.2</ele><time>2026-04-04T12:37:40.999Z</time></trkpt><trkpt lat="41.15137366872032" lon="14.962736833031938"><ele>175.0</ele><time>2026-04-04T12:37:41.999Z</time></trkpt><trkpt lat="41.151355804367505" lon="14.962572457854522"><ele>175.0</ele><time>2026-04-04T12:37:42.999Z</time></trkpt><trkpt lat="41.15134741274506" lon="14.962378631142705"><ele>175.0</ele><time>2026-04-04T12:37:43.999Z</time></trkpt><trkpt lat="41.15131926429931" lon="14.962136467155819"><ele>175.0</ele><time>2026-04-04T12:37:44.999Z</time></trkpt><trkpt lat="41.15129117167113" lon="14.961860967188281"><ele>175.0</ele><time>2026-04-04T12:37:45.999Z</time></trkpt><trkpt lat="41.15125946085376" lon="14.961584678281394"><ele>175.0</ele><time>2026-04-04T12:37:46.999Z</time></trkpt><trkpt lat="41.151236165023384" lon="14.961352800438052"><ele>175.0</ele><time>2026-04-04T12:37:47.999Z</time></trkpt><trkpt lat="41.15123110413305" lon="14.961139786274464"><ele>175.0</ele><time>2026-04-04T12:37:48.999Z</time></trkpt><trkpt lat="41.15121214274315" lon="14.960934765652828"><ele>175.0</ele><time>2026-04-04T12:37:49.999Z</time></trkpt><trkpt lat="41.15119098844681" lon="14.960725214484988"><ele>175.0</ele><time>2026-04-04T12:37:50.999Z</time></trkpt><trkpt lat="41.151165052219824" lon="14.960549755880088"><ele>175.0</ele><time>2026-04-04T12:37:51.999Z</time></trkpt><trkpt lat="41.15114523264066" lon="14.960396435653932"><ele>175.0</ele><time>2026-04-04T12:37:52.999Z</time></trkpt><trkpt lat="41.15113034473566" lon="14.960265665398065"><ele>175.0</ele><time>2026-04-04T12:37:53.999Z</time></trkpt><trkpt lat="41.15112103826089" lon="14.96013759446057"><ele>175.0</ele><time>2026-04-04T12:37:54.999Z</time></trkpt><trkpt lat="41.15112360620589" lon="14.96002112523765"><ele>175.0</ele><time>2026-04-04T12:37:55.999Z</time></trkpt><trkpt lat="41.1511454852851" lon="14.959903528661682"><ele>175.0</ele><time>2026-04-04T12:37:56.999Z</time></trkpt><trkpt lat="41.15118127775333" lon="14.95977909679553"><ele>174.25</ele><time>2026-04-04T12:37:57.999Z</time></trkpt><trkpt lat="41.15122193858199" lon="14.959665163296274"><ele>173.5</ele><time>2026-04-04T12:37:58.999Z</time></trkpt><trkpt lat="41.15129473682197" lon="14.959641758631472"><ele>172.75</ele><time>2026-04-04T12:37:59.999Z</time></trkpt><trkpt lat="41.15133843336051" lon="14.959546377564893"><ele>172.0</ele><time>2026-04-04T12:38:02.999Z</time></trkpt><trkpt lat="41.151183872464905" lon="14.959265326326607"><ele>172.0</ele><time>2026-04-04T12:38:03.999Z</time></trkpt><trkpt lat="41.15115964128116" lon="14.959183868582496"><ele>172.0</ele><time>2026-04-04T12:38:04.999Z</time></trkpt><trkpt lat="41.151110734371755" lon="14.959091587183524"><ele>172.0</ele><time>2026-04-04T12:38:06.999Z</time></trkpt><trkpt lat="41.151043637985595" lon="14.959033031626868"><ele>172.0</ele><time>2026-04-04T12:38:09.999Z</time></trkpt><trkpt lat="41.15109056696085" lon="14.959084442474765"><ele>172.0</ele><time>2026-04-04T12:44:04.999Z</time></trkpt><trkpt lat="41.15115071204045" lon="14.959190064135493"><ele>172.0</ele><time>2026-04-04T12:44:06.999Z</time></trkpt><trkpt lat="41.1512078332753" lon="14.959333575935851"><ele>172.0</ele><time>2026-04-04T12:44:08.999Z</time></trkpt><trkpt lat="41.151220415724914" lon="14.959416432837868"><ele>172.0</ele><time>2026-04-04T12:44:09.999Z</time></trkpt><trkpt lat="41.15123667702231" lon="14.95955942760978"><ele>172.0</ele><time>2026-04-04T12:44:11.999Z</time></trkpt><trkpt lat="41.15122115094055" lon="14.959676905993708"><ele>172.0</ele><time>2026-04-04T12:44:13.999Z</time></trkpt><trkpt lat="41.15117958234691" lon="14.959749940961435"><ele>172.0</ele><time>2026-04-04T12:44:15.999Z</time></trkpt><trkpt lat="41.15112941205113" lon="14.959924699465622"><ele>172.5</ele><time>2026-04-04T12:44:17.999Z</time></trkpt><trkpt lat="41.151104003212254" lon="14.960045950367048"><ele>173.0</ele><time>2026-04-04T12:44:19.999Z</time></trkpt><trkpt lat="41.15109223902165" lon="14.960129937130748"><ele>173.5</ele><time>2026-04-04T12:44:21.999Z</time></trkpt><trkpt lat="41.15110386640744" lon="14.960217333367922"><ele>174.0</ele><time>2026-04-04T12:44:24.999Z</time></trkpt><trkpt lat="41.151124109105595" lon="14.960372377978693"><ele>174.5</ele><time>2026-04-04T12:44:38.999Z</time></trkpt><trkpt lat="41.151147126019595" lon="14.960492723040922"><ele>175.0</ele><time>2026-04-04T12:44:39.999Z</time></trkpt><trkpt lat="41.15116213054842" lon="14.960623469226007"><ele>175.0</ele><time>2026-04-04T12:44:40.999Z</time></trkpt><trkpt lat="41.15117709034777" lon="14.960757411088593"><ele>175.0</ele><time>2026-04-04T12:44:41.998Z</time></trkpt><trkpt lat="41.15118933749824" lon="14.960898924333513"><ele>175.0</ele><time>2026-04-04T12:44:42.998Z</time></trkpt><trkpt lat="41.15120247769598" lon="14.961051309063171"><ele>175.0</ele><time>2026-04-04T12:44:43.998Z</time></trkpt><trkpt lat="41.15121650899853" lon="14.961214340275413"><ele>175.0</ele><time>2026-04-04T12:44:44.998Z</time></trkpt><trkpt lat="41.15123161342139" lon="14.961397305028756"><ele>175.0</ele><time>2026-04-04T12:44:45.998Z</time></trkpt><trkpt lat="41.15124057459733" lon="14.961609096231511"><ele>175.0</ele><time>2026-04-04T12:44:46.998Z</time></trkpt><trkpt lat="41.15127296549434" lon="14.961810782091788"><ele>175.0</ele><time>2026-04-04T12:44:47.998Z</time></trkpt><trkpt lat="41.15129032541849" lon="14.962016525139099"><ele>175.0</ele><time>2026-04-04T12:44:48.998Z</time></trkpt><trkpt lat="41.15130824196758" lon="14.962199897834148"><ele>175.0</ele><time>2026-04-04T12:44:49.998Z</time></trkpt><trkpt lat="41.15132697715616" lon="14.962367518293421"><ele>175.0</ele><time>2026-04-04T12:44:50.998Z</time></trkpt><trkpt lat="41.15134432315739" lon="14.96252995309421"><ele>175.0</ele><time>2026-04-04T12:44:51.998Z</time></trkpt><trkpt lat="41.151358874301714" lon="14.962696350579321"><ele>175.0</ele><time>2026-04-04T12:44:52.998Z</time></trkpt><trkpt lat="41.15138029360623" lon="14.962901714247245"><ele>175.0</ele><time>2026-04-04T12:44:53.998Z</time></trkpt><trkpt lat="41.151403512551795" lon="14.96313819333926"><ele>175.0</ele><time>2026-04-04T12:44:54.998Z</time></trkpt><trkpt lat="41.15142809607021" lon="14.96340087593953"><ele>175.33333333333334</ele><time>2026-04-04T12:44:55.998Z</time></trkpt><trkpt lat="41.15145411419778" lon="14.963680086899265"><ele>175.66666666666666</ele><time>2026-04-04T12:44:56.998Z</time></trkpt><trkpt lat="41.15147386194188" lon="14.963913925173063"><ele>176.0</ele><time>2026-04-04T12:44:57.998Z</time></trkpt><trkpt lat="41.151493973874" lon="14.964119137958802"><ele>176.25</ele><time>2026-04-04T12:44:58.998Z</time></trkpt><trkpt lat="41.15151245641693" lon="14.96430455468571"><ele>176.5</ele><time>2026-04-04T12:44:59.998Z</time></trkpt><trkpt lat="41.15153016463943" lon="14.96447779722299"><ele>176.75</ele><time>2026-04-04T12:45:00.998Z</time></trkpt><trkpt lat="41.15154905441611" lon="14.964649766101163"><ele>177.0</ele><time>2026-04-04T12:45:01.998Z</time></trkpt><trkpt lat="41.151567522433645" lon="14.964834447679667"><ele>178.33333333333334</ele><time>2026-04-04T12:45:02.998Z</time></trkpt><trkpt lat="41.15158689617012" lon="14.965039488233552"><ele>179.66666666666669</ele><time>2026-04-04T12:45:03.998Z</time></trkpt><trkpt lat="41.15160714154601" lon="14.965266204186634"><ele>181.0</ele><time>2026-04-04T12:45:04.998Z</time></trkpt><trkpt lat="41.151625014226546" lon="14.965484662319527"><ele>181.0</ele><time>2026-04-04T12:45:05.998Z</time></trkpt><trkpt lat="41.15163976473962" lon="14.965683958101238"><ele>181.0</ele><time>2026-04-04T12:45:06.998Z</time></trkpt><trkpt lat="41.15165149109902" lon="14.96585954859197"><ele>181.0</ele><time>2026-04-04T12:45:07.998Z</time></trkpt><trkpt lat="41.151662879946656" lon="14.966022802224488"><ele>181.0</ele><time>2026-04-04T12:45:08.998Z</time></trkpt><trkpt lat="41.151677832024255" lon="14.966167139582122"><ele>180.8</ele><time>2026-04-04T12:45:09.998Z</time></trkpt><trkpt lat="41.151693644870306" lon="14.966277439988179"><ele>180.60000000000002</ele><time>2026-04-04T12:45:10.998Z</time></trkpt><trkpt lat="41.151733346856325" lon="14.966386859672676"><ele>180.4</ele><time>2026-04-04T12:45:11.998Z</time></trkpt><trkpt lat="41.151793952564894" lon="14.96648782841958"><ele>180.2</ele><time>2026-04-04T12:45:12.998Z</time></trkpt><trkpt lat="41.15186663097357" lon="14.966578101447856"><ele>180.0</ele><time>2026-04-04T12:45:13.998Z</time></trkpt><trkpt lat="41.15193510221452" lon="14.966654160459472"><ele>180.0</ele><time>2026-04-04T12:45:14.998Z</time></trkpt><trkpt lat="41.15201168324772" lon="14.966725553397612"><ele>180.0</ele><time>2026-04-04T12:45:15.998Z</time></trkpt><trkpt lat="41.15208807296863" lon="14.96681870327995"><ele>180.0</ele><time>2026-04-04T12:45:16.998Z</time></trkpt><trkpt lat="41.152134529144185" lon="14.966908290323682"><ele>180.0</ele><time>2026-04-04T12:45:17.998Z</time></trkpt><trkpt lat="41.1521508501686" lon="14.967016063408005"><ele>180.0</ele><time>2026-04-04T12:45:19.998Z</time></trkpt><trkpt lat="41.152157984294384" lon="14.967140117419927"><ele>180.0</ele><time>2026-04-04T12:45:22Z</time></trkpt><trkpt lat="41.15213494830345" lon="14.96721890427063"><ele>180.0</ele><time>2026-04-04T12:45:23Z</time></trkpt><trkpt lat="41.15210313650927" lon="14.967305515684755"><ele>180.0</ele><time>2026-04-04T12:45:24Z</time></trkpt><trkpt lat="41.15207926150613" lon="14.967394384118068"><ele>180.0</ele><time>2026-04-04T12:45:25Z</time></trkpt><trkpt lat="41.15203929602107" lon="14.967516770737364"><ele>180.0</ele><time>2026-04-04T12:45:26Z</time></trkpt><trkpt lat="41.152020168505416" lon="14.967713919898841"><ele>180.66666666666666</ele><time>2026-04-04T12:45:27Z</time></trkpt><trkpt lat="41.15197550346996" lon="14.96792692869223"><ele>181.33333333333331</ele><time>2026-04-04T12:45:28Z</time></trkpt><trkpt lat="41.151902141835265" lon="14.968158929739904"><ele>182.0</ele><time>2026-04-04T12:45:29Z</time></trkpt><trkpt lat="41.151832636198115" lon="14.968372868660081"><ele>183.5</ele><time>2026-04-04T12:45:30Z</time></trkpt><trkpt lat="41.15179314769123" lon="14.96855801612599"><ele>185.0</ele><time>2026-04-04T12:45:31Z</time></trkpt><trkpt lat="41.15174898038281" lon="14.968711469989783"><ele>186.5</ele><time>2026-04-04T12:45:32Z</time></trkpt><trkpt lat="41.151709743478335" lon="14.968846006011775"><ele>188.0</ele><time>2026-04-04T12:45:33Z</time></trkpt><trkpt lat="41.15163796507163" lon="14.968939668126044"><ele>188.0</ele><time>2026-04-04T12:45:34Z</time></trkpt><trkpt lat="41.15155722572609" lon="14.969040388590313"><ele>188.0</ele><time>2026-04-04T12:45:35Z</time></trkpt><trkpt lat="41.151458642653424" lon="14.969143393103327"><ele>188.0</ele><time>2026-04-04T12:45:36Z</time></trkpt><trkpt lat="41.151359035034126" lon="14.969260877269598"><ele>188.0</ele><time>2026-04-04T12:45:37Z</time></trkpt><trkpt lat="41.151251133087925" lon="14.96938105719092"><ele>186.5</ele><time>2026-04-04T12:45:38Z</time></trkpt><trkpt lat="41.15114748800767" lon="14.969509905736073"><ele>185.0</ele><time>2026-04-04T12:45:39Z</time></trkpt><trkpt lat="41.15104513327258" lon="14.969634993836236"><ele>183.5</ele><time>2026-04-04T12:45:40Z</time></trkpt><trkpt lat="41.15095359406176" lon="14.969768875353394"><ele>182.0</ele><time>2026-04-04T12:45:41Z</time></trkpt><trkpt lat="41.15086123462032" lon="14.969901120750604"><ele>182.5</ele><time>2026-04-04T12:45:42Z</time></trkpt><trkpt lat="41.15075543608483" lon="14.970035663998805"><ele>183.0</ele><time>2026-04-04T12:45:43Z</time></trkpt><trkpt lat="41.15065647588709" lon="14.97020211546112"><ele>183.5</ele><time>2026-04-04T12:45:44Z</time></trkpt><trkpt lat="41.15054761826875" lon="14.970325447326271"><ele>184.0</ele><time>2026-04-04T12:45:45Z</time></trkpt><trkpt lat="41.15044046205112" lon="14.970438113538899"><ele>183.0</ele><time>2026-04-04T12:45:46Z</time></trkpt><trkpt lat="41.150333160324244" lon="14.97055515591644"><ele>182.0</ele><time>2026-04-04T12:45:47Z</time></trkpt><trkpt lat="41.1502390267134" lon="14.970666476655287"><ele>181.0</ele><time>2026-04-04T12:45:48Z</time></trkpt><trkpt lat="41.150163405213036" lon="14.97075517875686"><ele>180.0</ele><time>2026-04-04T12:45:49Z</time></trkpt><trkpt lat="41.15010694390803" lon="14.970845132141314"><ele>180.0</ele><time>2026-04-04T12:45:50Z</time></trkpt><trkpt lat="41.15003484426139" lon="14.970978181542398"><ele>180.0</ele><time>2026-04-04T12:45:51Z</time></trkpt><trkpt lat="41.14999438593556" lon="14.971083578310084"><ele>180.0</ele><time>2026-04-04T12:45:51.999Z</time></trkpt><trkpt lat="41.14999151213954" lon="14.971189808033019"><ele>180.0</ele><time>2026-04-04T12:45:52.999Z</time></trkpt><trkpt lat="41.149969808302934" lon="14.971270723846974"><ele>180.0</ele><time>2026-04-04T12:45:53.999Z</time></trkpt><trkpt lat="41.14986311370775" lon="14.971289295571944"><ele>179.25</ele><time>2026-04-04T12:45:57.999Z</time></trkpt><trkpt lat="41.14979889683476" lon="14.971223506237427"><ele>178.5</ele><time>2026-04-04T12:45:58.999Z</time></trkpt><trkpt lat="41.149700197533626" lon="14.971128519315322"><ele>177.75</ele><time>2026-04-04T12:45:59.999Z</time></trkpt><trkpt lat="41.14955592693621" lon="14.971010972725198"><ele>177.0</ele><time>2026-04-04T12:46:00.999Z</time></trkpt><trkpt lat="41.149419804854865" lon="14.970889141957143"><ele>177.75</ele><time>2026-04-04T12:46:01.999Z</time></trkpt><trkpt lat="41.14933874080645" lon="14.970762279948602"><ele>178.5</ele><time>2026-04-04T12:46:02.999Z</time></trkpt><trkpt lat="41.149264733288554" lon="14.970682578536337"><ele>179.25</ele><time>2026-04-04T12:46:03.999Z</time></trkpt><trkpt lat="41.14911472846734" lon="14.970578928510934"><ele>180.0</ele><time>2026-04-04T12:46:04.999Z</time></trkpt><trkpt lat="41.14900786052399" lon="14.970479606004183"><ele>182.0</ele><time>2026-04-04T12:46:05.999Z</time></trkpt><trkpt lat="41.148924842496754" lon="14.970343513973717"><ele>184.0</ele><time>2026-04-04T12:46:06.999Z</time></trkpt><trkpt lat="41.148792726983196" lon="14.969996070096824"><ele>186.0</ele><time>2026-04-04T12:46:08.999Z</time></trkpt><trkpt lat="41.14876364695939" lon="14.969791210901567"><ele>186.66666666666666</ele><time>2026-04-04T12:46:09.999Z</time></trkpt><trkpt lat="41.14876173060503" lon="14.96958135839995"><ele>187.33333333333331</ele><time>2026-04-04T12:46:10.999Z</time></trkpt><trkpt lat="41.1487774778763" lon="14.969363582850361"><ele>188.0</ele><time>2026-04-04T12:46:11.999Z</time></trkpt><trkpt lat="41.14879851352365" lon="14.969129952926139"><ele>189.0</ele><time>2026-04-04T12:46:12.999Z</time></trkpt><trkpt lat="41.14881174381819" lon="14.968902134279425"><ele>190.0</ele><time>2026-04-04T12:46:13.999Z</time></trkpt><trkpt lat="41.148805018142674" lon="14.968681305309216"><ele>191.0</ele><time>2026-04-04T12:46:14.999Z</time></trkpt><trkpt lat="41.1488218085823" lon="14.968476091861962"><ele>191.5</ele><time>2026-04-04T12:46:15.999Z</time></trkpt><trkpt lat="41.14883269007614" lon="14.968279642466499"><ele>192.0</ele><time>2026-04-04T12:46:16.999Z</time></trkpt><trkpt lat="41.148840737073975" lon="14.968095955487591"><ele>192.5</ele><time>2026-04-04T12:46:17.999Z</time></trkpt><trkpt lat="41.14884886339655" lon="14.967908924177703"><ele>193.0</ele><time>2026-04-04T12:46:18.999Z</time></trkpt><trkpt lat="41.14885906716251" lon="14.967719637385917"><ele>192.66666666666666</ele><time>2026-04-04T12:46:19.999Z</time></trkpt><trkpt lat="41.14886885769652" lon="14.967521262551523"><ele>192.33333333333331</ele><time>2026-04-04T12:46:20.999Z</time></trkpt><trkpt lat="41.148884356910315" lon="14.96730118155711"><ele>192.0</ele><time>2026-04-04T12:46:21.999Z</time></trkpt><trkpt lat="41.14890026364259" lon="14.967052639519105"><ele>192.0</ele><time>2026-04-04T12:46:22.999Z</time></trkpt><trkpt lat="41.148914411386684" lon="14.966789926025967"><ele>192.0</ele><time>2026-04-04T12:46:23.999Z</time></trkpt><trkpt lat="41.148925292035265" lon="14.966560008635014"><ele>192.0</ele><time>2026-04-04T12:46:24.999Z</time></trkpt><trkpt lat="41.148894503099584" lon="14.966165345257625"><ele>190.66666666666666</ele><time>2026-04-04T12:46:26.999Z</time></trkpt><trkpt lat="41.148833078308776" lon="14.965997517045125"><ele>189.33333333333331</ele><time>2026-04-04T12:46:27.999Z</time></trkpt><trkpt lat="41.14872834199639" lon="14.965847557164482"><ele>188.0</ele><time>2026-04-04T12:46:28.999Z</time></trkpt><trkpt lat="41.14859418840283" lon="14.965709516813433"><ele>186.33333333333331</ele><time>2026-04-04T12:46:29.999Z</time></trkpt><trkpt lat="41.14843941755544" lon="14.96556994830309"><ele>184.66666666666666</ele><time>2026-04-04T12:46:30.999Z</time></trkpt><trkpt lat="41.14829365772591" lon="14.965407298124747"><ele>183.0</ele><time>2026-04-04T12:46:31.999Z</time></trkpt><trkpt lat="41.148155923479365" lon="14.965272163974637"><ele>186.0</ele><time>2026-04-04T12:46:32.999Z</time></trkpt><trkpt lat="41.148026771006876" lon="14.965147716576524"><ele>189.0</ele><time>2026-04-04T12:46:33.999Z</time></trkpt><trkpt lat="41.14788885653963" lon="14.965011125109283"><ele>192.0</ele><time>2026-04-04T12:46:34.999Z</time></trkpt><trkpt lat="41.1477545647959" lon="14.964885143522677"><ele>192.0</ele><time>2026-04-04T12:46:35.999Z</time></trkpt><trkpt lat="41.14763992003666" lon="14.964718787323251"><ele>192.0</ele><time>2026-04-04T12:46:36.999Z</time></trkpt><trkpt lat="41.14753897168164" lon="14.964539441140245"><ele>192.0</ele><time>2026-04-04T12:46:37.999Z</time></trkpt><trkpt lat="41.1474529751169" lon="14.964346807580183"><ele>189.0</ele><time>2026-04-04T12:46:38.999Z</time></trkpt><trkpt lat="41.147383935850165" lon="14.964118519200193"><ele>186.0</ele><time>2026-04-04T12:46:39.999Z</time></trkpt><trkpt lat="41.14732327467433" lon="14.96385687291337"><ele>183.0</ele><time>2026-04-04T12:46:40.999Z</time></trkpt><trkpt lat="41.147260671437046" lon="14.963596709762339"><ele>187.33333333333331</ele><time>2026-04-04T12:46:41.999Z</time></trkpt><trkpt lat="41.14718826007748" lon="14.963340791963331"><ele>191.66666666666666</ele><time>2026-04-04T12:46:42.999Z</time></trkpt><trkpt lat="41.14711426688898" lon="14.963120768578548"><ele>196.0</ele><time>2026-04-04T12:46:43.999Z</time></trkpt><trkpt lat="41.147049439900826" lon="14.9629077379039"><ele>196.0</ele><time>2026-04-04T12:46:44.999Z</time></trkpt><trkpt lat="41.147011174609595" lon="14.96270269769107"><ele>196.0</ele><time>2026-04-04T12:46:45.999Z</time></trkpt><trkpt lat="41.14700675209387" lon="14.96245116692591"><ele>196.0</ele><time>2026-04-04T12:46:46.998Z</time></trkpt><trkpt lat="41.147013706177574" lon="14.962147964405592"><ele>194.0</ele><time>2026-04-04T12:46:47.998Z</time></trkpt><trkpt lat="41.14701224081345" lon="14.961800280997407"><ele>192.0</ele><time>2026-04-04T12:46:48.998Z</time></trkpt><trkpt lat="41.14700970278556" lon="14.961427853045173"><ele>191.5</ele><time>2026-04-04T12:46:49.998Z</time></trkpt><trkpt lat="41.1470066813831" lon="14.961055854683723"><ele>191.0</ele><time>2026-04-04T12:46:50.998Z</time></trkpt><trkpt lat="41.14700028501241" lon="14.960712932321352"><ele>190.5</ele><time>2026-04-04T12:46:51.998Z</time></trkpt><trkpt lat="41.14699678422186" lon="14.960394150750911"><ele>190.0</ele><time>2026-04-04T12:46:52.998Z</time></trkpt><trkpt lat="41.14698908076332" lon="14.96008242765255"><ele>189.5</ele><time>2026-04-04T12:46:53.998Z</time></trkpt><trkpt lat="41.14696393215456" lon="14.959764680783518"><ele>189.0</ele><time>2026-04-04T12:46:54.998Z</time></trkpt><trkpt lat="41.14692146426339" lon="14.959453611399624"><ele>188.0</ele><time>2026-04-04T12:46:55.998Z</time></trkpt><trkpt lat="41.146875395985965" lon="14.95914525833948"><ele>187.0</ele><time>2026-04-04T12:46:56.998Z</time></trkpt><trkpt lat="41.14683610893129" lon="14.958833523149035"><ele>187.0</ele><time>2026-04-04T12:46:57.998Z</time></trkpt><trkpt lat="41.1468038742778" lon="14.958519738828254"><ele>187.0</ele><time>2026-04-04T12:46:58.998Z</time></trkpt><trkpt lat="41.146758567627266" lon="14.958216815866798"><ele>183.5</ele><time>2026-04-04T12:46:59.998Z</time></trkpt><trkpt lat="41.146701914453715" lon="14.957927228476661"><ele>180.0</ele><time>2026-04-04T12:47:00.998Z</time></trkpt><trkpt lat="41.14664298705278" lon="14.95762593206953"><ele>178.5</ele><time>2026-04-04T12:47:01.998Z</time></trkpt><trkpt lat="41.14657454561708" lon="14.957323115198232"><ele>177.0</ele><time>2026-04-04T12:47:02.998Z</time></trkpt><trkpt lat="41.14649566792135" lon="14.957022723262941"><ele>181.33333333333334</ele><time>2026-04-04T12:47:03.998Z</time></trkpt><trkpt lat="41.14642975772159" lon="14.95673380357793"><ele>185.66666666666669</ele><time>2026-04-04T12:47:04.998Z</time></trkpt><trkpt lat="41.14638159617625" lon="14.956461461982501"><ele>190.0</ele><time>2026-04-04T12:47:05.998Z</time></trkpt><trkpt lat="41.14636677081678" lon="14.956171956520654"><ele>189.0</ele><time>2026-04-04T12:47:06.998Z</time></trkpt><trkpt lat="41.14634872071424" lon="14.955859242291956"><ele>188.0</ele><time>2026-04-04T12:47:07.998Z</time></trkpt><trkpt lat="41.146322242117485" lon="14.95554124188145"><ele>188.0</ele><time>2026-04-04T12:47:08.998Z</time></trkpt><trkpt lat="41.14631232958993" lon="14.955262035138807"><ele>188.0</ele><time>2026-04-04T12:47:09.998Z</time></trkpt><trkpt lat="41.146293236448145" lon="14.95500406392862"><ele>188.0</ele><time>2026-04-04T12:47:10.998Z</time></trkpt><trkpt lat="41.14628138409655" lon="14.954753019728324"><ele>188.0</ele><time>2026-04-04T12:47:11.998Z</time></trkpt><trkpt lat="41.146271672348966" lon="14.954512312612515"><ele>188.0</ele><time>2026-04-04T12:47:12.998Z</time></trkpt><trkpt lat="41.146269267442406" lon="14.954269504838738"><ele>188.0</ele><time>2026-04-04T12:47:13.998Z</time></trkpt><trkpt lat="41.146290958020046" lon="14.954029616546523"><ele>189.5</ele><time>2026-04-04T12:47:14.998Z</time></trkpt><trkpt lat="41.14634641288094" lon="14.953763403074674"><ele>191.0</ele><time>2026-04-04T12:47:15.998Z</time></trkpt><trkpt lat="41.14644858859203" lon="14.95346621304482"><ele>183.0</ele><time>2026-04-04T12:47:16.998Z</time></trkpt><trkpt lat="41.14654971693263" lon="14.953152761783272"><ele>175.0</ele><time>2026-04-04T12:47:17.998Z</time></trkpt><trkpt lat="41.14660895197904" lon="14.952841374792888"><ele>176.0</ele><time>2026-04-04T12:47:18.998Z</time></trkpt><trkpt lat="41.14664861955716" lon="14.952514515030982"><ele>177.0</ele><time>2026-04-04T12:47:19.998Z</time></trkpt><trkpt lat="41.14668807384288" lon="14.952157050332838"><ele>177.0</ele><time>2026-04-04T12:47:20.998Z</time></trkpt><trkpt lat="41.146731362443866" lon="14.95179244509452"><ele>177.0</ele><time>2026-04-04T12:47:21.998Z</time></trkpt><trkpt lat="41.14677358012814" lon="14.951466970989191"><ele>177.5</ele><time>2026-04-04T12:47:22.998Z</time></trkpt><trkpt lat="41.146814184866514" lon="14.9511522039631"><ele>178.0</ele><time>2026-04-04T12:47:23.998Z</time></trkpt><trkpt lat="41.14685099689401" lon="14.950824367327925"><ele>178.0</ele><time>2026-04-04T12:47:24.998Z</time></trkpt><trkpt lat="41.14688577955479" lon="14.950499715909034"><ele>178.0</ele><time>2026-04-04T12:47:25.998Z</time></trkpt><trkpt lat="41.14692347583554" lon="14.950153045276114"><ele>179.0</ele><time>2026-04-04T12:47:26.998Z</time></trkpt><trkpt lat="41.14696531177143" lon="14.949785602681771"><ele>180.0</ele><time>2026-04-04T12:47:28Z</time></trkpt><trkpt lat="41.14700781170214" lon="14.949414991873818"><ele>179.0</ele><time>2026-04-04T12:47:29Z</time></trkpt><trkpt lat="41.14704766258406" lon="14.949082294162302"><ele>178.0</ele><time>2026-04-04T12:47:30Z</time></trkpt><trkpt lat="41.1470870434557" lon="14.948756481263262"><ele>178.0</ele><time>2026-04-04T12:47:31Z</time></trkpt><trkpt lat="41.14712173652846" lon="14.948446478116061"><ele>178.0</ele><time>2026-04-04T12:47:32Z</time></trkpt><trkpt lat="41.147160383543145" lon="14.948144533015906"><ele>177.33333333333334</ele><time>2026-04-04T12:47:33Z</time></trkpt><trkpt lat="41.14719249236255" lon="14.947843865105273"><ele>176.66666666666666</ele><time>2026-04-04T12:47:34Z</time></trkpt><trkpt lat="41.14720635061153" lon="14.947558828584537"><ele>176.0</ele><time>2026-04-04T12:47:35Z</time></trkpt><trkpt lat="41.147191237965984" lon="14.947267830775893"><ele>175.5</ele><time>2026-04-04T12:47:36Z</time></trkpt><trkpt lat="41.147150699952675" lon="14.946957200728507"><ele>175.0</ele><time>2026-04-04T12:47:37Z</time></trkpt><trkpt lat="41.147082010144224" lon="14.946632454822527"><ele>175.0</ele><time>2026-04-04T12:47:38Z</time></trkpt><trkpt lat="41.147008576434054" lon="14.94629495819975"><ele>175.0</ele><time>2026-04-04T12:47:39Z</time></trkpt><trkpt lat="41.146936528949624" lon="14.94594998593164"><ele>175.0</ele><time>2026-04-04T12:47:40Z</time></trkpt><trkpt lat="41.14687012610139" lon="14.945604957910424"><ele>175.0</ele><time>2026-04-04T12:47:41Z</time></trkpt><trkpt lat="41.14680550227635" lon="14.94527874902061"><ele>173.0</ele><time>2026-04-04T12:47:42Z</time></trkpt><trkpt lat="41.146741778196734" lon="14.944984713824116"><ele>171.0</ele><time>2026-04-04T12:47:43Z</time></trkpt><trkpt lat="41.14668670735125" lon="14.944698002043065"><ele>171.0</ele><time>2026-04-04T12:47:44Z</time></trkpt><trkpt lat="41.14663282710823" lon="14.944422199783729"><ele>171.0</ele><time>2026-04-04T12:47:45Z</time></trkpt><trkpt lat="41.14657841695816" lon="14.944160691102573"><ele>171.0</ele><time>2026-04-04T12:47:46Z</time></trkpt><trkpt lat="41.146522273854586" lon="14.943916736947399"><ele>177.66666666666666</ele><time>2026-04-04T12:47:47Z</time></trkpt><trkpt lat="41.146476129396184" lon="14.943706998330834"><ele>184.33333333333331</ele><time>2026-04-04T12:47:48Z</time></trkpt><trkpt lat="41.146462123959644" lon="14.94351456655387"><ele>191.0</ele><time>2026-04-04T12:47:49Z</time></trkpt><trkpt lat="41.1464772689288" lon="14.94332644033754"><ele>185.0</ele><time>2026-04-04T12:47:50Z</time></trkpt><trkpt lat="41.146529903937854" lon="14.943134357470829"><ele>179.0</ele><time>2026-04-04T12:47:51Z</time></trkpt><trkpt lat="41.14662143719439" lon="14.942968996786046"><ele>173.0</ele><time>2026-04-04T12:47:52Z</time></trkpt><trkpt lat="41.14674978219539" lon="14.942785226917303"><ele>173.0</ele><time>2026-04-04T12:47:53Z</time></trkpt><trkpt lat="41.14690659443417" lon="14.942647742024443"><ele>173.0</ele><time>2026-04-04T12:47:54Z</time></trkpt><trkpt lat="41.14707098377002" lon="14.942511172656632"><ele>173.0</ele><time>2026-04-04T12:47:55Z</time></trkpt><trkpt lat="41.14723932951864" lon="14.942366455233769"><ele>171.33333333333331</ele><time>2026-04-04T12:47:56Z</time></trkpt><trkpt lat="41.14739591045494" lon="14.942226630250307"><ele>169.66666666666666</ele><time>2026-04-04T12:47:57Z</time></trkpt><trkpt lat="41.14752922218839" lon="14.942091259321403"><ele>168.0</ele><time>2026-04-04T12:47:58Z</time></trkpt><trkpt lat="41.1476284231541" lon="14.941933633810113"><ele>168.0</ele><time>2026-04-04T12:47:59Z</time></trkpt><trkpt lat="41.14771835119565" lon="14.941717876805978"><ele>168.0</ele><time>2026-04-04T12:48:00Z</time></trkpt><trkpt lat="41.14776922185818" lon="14.941484820020692"><ele>168.0</ele><time>2026-04-04T12:48:01Z</time></trkpt><trkpt lat="41.14778043570263" lon="14.941223745318593"><ele>170.0</ele><time>2026-04-04T12:48:02Z</time></trkpt><trkpt lat="41.14777645630952" lon="14.94093743377085"><ele>172.0</ele><time>2026-04-04T12:48:03Z</time></trkpt><trkpt lat="41.14776281212205" lon="14.940639160254001"><ele>174.0</ele><time>2026-04-04T12:48:04Z</time></trkpt><trkpt lat="41.14775456973559" lon="14.940313257835118"><ele>178.5</ele><time>2026-04-04T12:48:05Z</time></trkpt><trkpt lat="41.14774677926011" lon="14.939977696582531"><ele>183.0</ele><time>2026-04-04T12:48:05.999Z</time></trkpt><trkpt lat="41.14773886782192" lon="14.939684260028086"><ele>183.0</ele><time>2026-04-04T12:48:06.999Z</time></trkpt><trkpt lat="41.14773424196332" lon="14.939414650843773"><ele>183.0</ele><time>2026-04-04T12:48:07.999Z</time></trkpt><trkpt lat="41.14773102173749" lon="14.939180102950749"><ele>183.0</ele><time>2026-04-04T12:48:08.999Z</time></trkpt><trkpt lat="41.14772758680875" lon="14.93898401590593"><ele>184.25</ele><time>2026-04-04T12:48:09.999Z</time></trkpt><trkpt lat="41.14771887355261" lon="14.938805489555119"><ele>185.5</ele><time>2026-04-04T12:48:10.999Z</time></trkpt><trkpt lat="41.14768764987454" lon="14.938644603982388"><ele>186.75</ele><time>2026-04-04T12:48:11.999Z</time></trkpt><trkpt lat="41.14762141858267" lon="14.93850349508128"><ele>188.0</ele><time>2026-04-04T12:48:12.999Z</time></trkpt><trkpt lat="41.14752584074634" lon="14.938389941080665"><ele>187.66666666666666</ele><time>2026-04-04T12:48:13.999Z</time></trkpt><trkpt lat="41.14740712157249" lon="14.938325692714919"><ele>187.33333333333334</ele><time>2026-04-04T12:48:14.999Z</time></trkpt><trkpt lat="41.14725292098716" lon="14.938277402071808"><ele>187.0</ele><time>2026-04-04T12:48:15.999Z</time></trkpt><trkpt lat="41.14709520314418" lon="14.938212920879826"><ele>187.0</ele><time>2026-04-04T12:48:16.999Z</time></trkpt><trkpt lat="41.14691617294315" lon="14.938111710304529"><ele>187.0</ele><time>2026-04-04T12:48:17.999Z</time></trkpt><trkpt lat="41.14672254444559" lon="14.937974459381772"><ele>187.0</ele><time>2026-04-04T12:48:18.999Z</time></trkpt><trkpt lat="41.146537033057264" lon="14.937817174839083"><ele>187.66666666666669</ele><time>2026-04-04T12:48:19.999Z</time></trkpt><trkpt lat="41.14635610269478" lon="14.937661972842125"><ele>188.33333333333334</ele><time>2026-04-04T12:48:20.999Z</time></trkpt><trkpt lat="41.14618452602708" lon="14.937518923682891"><ele>189.0</ele><time>2026-04-04T12:48:21.999Z</time></trkpt><trkpt lat="41.14602143332529" lon="14.937386112946621"><ele>189.0</ele><time>2026-04-04T12:48:22.999Z</time></trkpt><trkpt lat="41.14588792776652" lon="14.937231872638147"><ele>189.0</ele><time>2026-04-04T12:48:23.999Z</time></trkpt><trkpt lat="41.14578585712707" lon="14.93703632696182"><ele>189.0</ele><time>2026-04-04T12:48:24.999Z</time></trkpt><trkpt lat="41.14573479641979" lon="14.936825887554498"><ele>186.33333333333334</ele><time>2026-04-04T12:48:25.999Z</time></trkpt><trkpt lat="41.14572488101139" lon="14.936614906783085"><ele>183.66666666666669</ele><time>2026-04-04T12:48:26.999Z</time></trkpt><trkpt lat="41.14573500577983" lon="14.936347442220365"><ele>181.0</ele><time>2026-04-04T12:48:27.999Z</time></trkpt><trkpt lat="41.14572839117999" lon="14.936042337140487"><ele>187.5</ele><time>2026-04-04T12:48:28.999Z</time></trkpt><trkpt lat="41.14570527797225" lon="14.935730622483359"><ele>194.0</ele><time>2026-04-04T12:48:29.999Z</time></trkpt><trkpt lat="41.14567440179503" lon="14.93543397296808"><ele>194.0</ele><time>2026-04-04T12:48:30.999Z</time></trkpt><trkpt lat="41.1456479712331" lon="14.935149245754213"><ele>194.0</ele><time>2026-04-04T12:48:31.999Z</time></trkpt><trkpt lat="41.14561334805614" lon="14.934878853466785"><ele>194.0</ele><time>2026-04-04T12:48:32.999Z</time></trkpt><trkpt lat="41.14555225059053" lon="14.934616283039668"><ele>191.33333333333334</ele><time>2026-04-04T12:48:33.999Z</time></trkpt><trkpt lat="41.14545581078258" lon="14.934361714195337"><ele>188.66666666666669</ele><time>2026-04-04T12:48:34.999Z</time></trkpt><trkpt lat="41.1453389884333" lon="14.934103941431816"><ele>186.0</ele><time>2026-04-04T12:48:35.999Z</time></trkpt><trkpt lat="41.14522373496652" lon="14.93386911959195"><ele>183.0</ele><time>2026-04-04T12:48:36.999Z</time></trkpt><trkpt lat="41.14513943715504" lon="14.933646392430804"><ele>180.0</ele><time>2026-04-04T12:48:37.999Z</time></trkpt><trkpt lat="41.145051255826495" lon="14.933462191409687"><ele>177.0</ele><time>2026-04-04T12:48:38.999Z</time></trkpt><trkpt lat="41.144942563405365" lon="14.933301116476263"><ele>176.66666666666666</ele><time>2026-04-04T12:48:39.999Z</time></trkpt><trkpt lat="41.144816073795575" lon="14.933164793553292"><ele>176.33333333333331</ele><time>2026-04-04T12:48:40.999Z</time></trkpt><trkpt lat="41.14466822447678" lon="14.933058339308916"><ele>176.0</ele><time>2026-04-04T12:48:41.999Z</time></trkpt><trkpt lat="41.14451954304586" lon="14.932933997086852"><ele>176.0</ele><time>2026-04-04T12:48:42.999Z</time></trkpt><trkpt lat="41.14440351355308" lon="14.932776338848504"><ele>176.0</ele><time>2026-04-04T12:48:43.999Z</time></trkpt><trkpt lat="41.144335800778656" lon="14.932589611711094"><ele>176.0</ele><time>2026-04-04T12:48:44.999Z</time></trkpt><trkpt lat="41.144288938811556" lon="14.932378696537663"><ele>174.0</ele><time>2026-04-04T12:48:45.999Z</time></trkpt><trkpt lat="41.144255754932495" lon="14.932148031976306"><ele>172.0</ele><time>2026-04-04T12:48:46.999Z</time></trkpt><trkpt lat="41.144224921672" lon="14.931958974267793"><ele>170.0</ele><time>2026-04-04T12:48:47.999Z</time></trkpt><trkpt lat="41.144204106409795" lon="14.93177016491463"><ele>171.0</ele><time>2026-04-04T12:48:48.999Z</time></trkpt><trkpt lat="41.14416521826336" lon="14.931565806886423"><ele>172.0</ele><time>2026-04-04T12:48:49.999Z</time></trkpt><trkpt lat="41.144099663108044" lon="14.931365047691793"><ele>173.0</ele><time>2026-04-04T12:48:50.999Z</time></trkpt><trkpt lat="41.14401066122383" lon="14.931162484734486"><ele>173.0</ele><time>2026-04-04T12:48:51.999Z</time></trkpt><trkpt lat="41.14388808242348" lon="14.930966906592843"><ele>173.0</ele><time>2026-04-04T12:48:52.999Z</time></trkpt><trkpt lat="41.14374438880833" lon="14.930792857164397"><ele>173.0</ele><time>2026-04-04T12:48:53.999Z</time></trkpt><trkpt lat="41.14357542644333" lon="14.9306443680591"><ele>170.33333333333331</ele><time>2026-04-04T12:48:54.999Z</time></trkpt><trkpt lat="41.143411012552136" lon="14.930478096026732"><ele>167.66666666666666</ele><time>2026-04-04T12:48:55.999Z</time></trkpt><trkpt lat="41.14322903196564" lon="14.930343530174962"><ele>165.0</ele><time>2026-04-04T12:48:56.999Z</time></trkpt><trkpt lat="41.14305939329324" lon="14.930201890989558"><ele>165.0</ele><time>2026-04-04T12:48:57.999Z</time></trkpt><trkpt lat="41.142886904065655" lon="14.930070832032987"><ele>165.0</ele><time>2026-04-04T12:48:58.999Z</time></trkpt><trkpt lat="41.142697235109154" lon="14.929948910716774"><ele>165.0</ele><time>2026-04-04T12:48:59.999Z</time></trkpt><trkpt lat="41.14249068686633" lon="14.929841519916241"><ele>164.0</ele><time>2026-04-04T12:49:00.999Z</time></trkpt><trkpt lat="41.14227738295526" lon="14.929757460306972"><ele>163.0</ele><time>2026-04-04T12:49:01.999Z</time></trkpt><trkpt lat="41.142068373140795" lon="14.929651078678859"><ele>162.0</ele><time>2026-04-04T12:49:02.999Z</time></trkpt><trkpt lat="41.14185231149775" lon="14.9295629506753"><ele>162.0</ele><time>2026-04-04T12:49:03.999Z</time></trkpt><trkpt lat="41.14163546272705" lon="14.929474500117639"><ele>162.0</ele><time>2026-04-04T12:49:04.999Z</time></trkpt><trkpt lat="41.141418886082754" lon="14.929386354166448"><ele>161.0</ele><time>2026-04-04T12:49:05.998Z</time></trkpt><trkpt lat="41.141206522510636" lon="14.929301122888203"><ele>160.0</ele><time>2026-04-04T12:49:06.998Z</time></trkpt><trkpt lat="41.140993911289854" lon="14.929215792187236"><ele>159.0</ele><time>2026-04-04T12:49:07.998Z</time></trkpt><trkpt lat="41.14078745577625" lon="14.929132129518893"><ele>159.66666666666666</ele><time>2026-04-04T12:49:08.998Z</time></trkpt><trkpt lat="41.140578932577256" lon="14.92904670397804"><ele>160.33333333333331</ele><time>2026-04-04T12:49:09.998Z</time></trkpt><trkpt lat="41.14036658452434" lon="14.928984033145342"><ele>161.0</ele><time>2026-04-04T12:49:10.998Z</time></trkpt><trkpt lat="41.140146043712214" lon="14.92889602459616"><ele>161.0</ele><time>2026-04-04T12:49:11.998Z</time></trkpt><trkpt lat="41.13993013857606" lon="14.928808564854048"><ele>161.0</ele><time>2026-04-04T12:49:12.998Z</time></trkpt><trkpt lat="41.13971104316618" lon="14.928719080574313"><ele>162.0</ele><time>2026-04-04T12:49:13.998Z</time></trkpt><trkpt lat="41.139504334735406" lon="14.928636434641971"><ele>163.0</ele><time>2026-04-04T12:49:14.998Z</time></trkpt><trkpt lat="41.13931385961274" lon="14.928557548299782"><ele>164.0</ele><time>2026-04-04T12:49:15.998Z</time></trkpt><trkpt lat="41.13913062209404" lon="14.928483377328442"><ele>164.0</ele><time>2026-04-04T12:49:16.998Z</time></trkpt><trkpt lat="41.13895350696686" lon="14.928406794267925"><ele>164.0</ele><time>2026-04-04T12:49:17.998Z</time></trkpt><trkpt lat="41.13879137709164" lon="14.928298959542545"><ele>164.0</ele><time>2026-04-04T12:49:18.998Z</time></trkpt><trkpt lat="41.13862617211881" lon="14.928210100291492"><ele>164.0</ele><time>2026-04-04T12:49:19.998Z</time></trkpt><trkpt lat="41.1384864513796" lon="14.928070295383408"><ele>164.0</ele><time>2026-04-04T12:49:20.998Z</time></trkpt><trkpt lat="41.13832244336437" lon="14.927900463496007"><ele>164.0</ele><time>2026-04-04T12:49:21.998Z</time></trkpt><trkpt lat="41.138185133019654" lon="14.927722009162052"><ele>164.33333333333331</ele><time>2026-04-04T12:49:22.998Z</time></trkpt><trkpt lat="41.13804237994853" lon="14.9275438966173"><ele>164.66666666666666</ele><time>2026-04-04T12:49:23.998Z</time></trkpt><trkpt lat="41.13793849266646" lon="14.927362613578252"><ele>165.0</ele><time>2026-04-04T12:49:24.998Z</time></trkpt><trkpt lat="41.13784466907967" lon="14.92722446400638"><ele>165.0</ele><time>2026-04-04T12:49:25.998Z</time></trkpt><trkpt lat="41.1377689586728" lon="14.927080079348398"><ele>165.0</ele><time>2026-04-04T12:49:26.998Z</time></trkpt><trkpt lat="41.13769188721001" lon="14.926951992382254"><ele>165.0</ele><time>2026-04-04T12:49:27.998Z</time></trkpt><trkpt lat="41.137630383185524" lon="14.92683484511873"><ele>165.0</ele><time>2026-04-04T12:49:28.998Z</time></trkpt><trkpt lat="41.13756843989929" lon="14.926707591932836"><ele>164.75</ele><time>2026-04-04T12:49:29.998Z</time></trkpt><trkpt lat="41.137493887927796" lon="14.92657516678084"><ele>164.5</ele><time>2026-04-04T12:49:30.998Z</time></trkpt><trkpt lat="41.13740613711214" lon="14.92643229084334"><ele>164.25</ele><time>2026-04-04T12:49:31.998Z</time></trkpt><trkpt lat="41.13732175765797" lon="14.926292237604242"><ele>164.0</ele><time>2026-04-04T12:49:32.998Z</time></trkpt><trkpt lat="41.137248930428854" lon="14.92617463345292"><ele>164.0</ele><time>2026-04-04T12:49:34Z</time></trkpt><trkpt lat="41.13716827291925" lon="14.926055346892959"><ele>164.0</ele><time>2026-04-04T12:49:35Z</time></trkpt><trkpt lat="41.13709428255642" lon="14.925920649977757"><ele>164.0</ele><time>2026-04-04T12:49:36Z</time></trkpt><trkpt lat="41.13698664073836" lon="14.925797571699611"><ele>164.0</ele><time>2026-04-04T12:49:37Z</time></trkpt><trkpt lat="41.13685778109111" lon="14.925636905262131"><ele>163.66666666666666</ele><time>2026-04-04T12:49:38Z</time></trkpt><trkpt lat="41.13671554216693" lon="14.925467525315053"><ele>163.33333333333334</ele><time>2026-04-04T12:49:39Z</time></trkpt><trkpt lat="41.13656869863879" lon="14.92528224550947"><ele>163.0</ele><time>2026-04-04T12:49:40Z</time></trkpt><trkpt lat="41.13642075350887" lon="14.92510748685852"><ele>164.33333333333334</ele><time>2026-04-04T12:49:41Z</time></trkpt><trkpt lat="41.136291596772644" lon="14.924957337596716"><ele>165.66666666666666</ele><time>2026-04-04T12:49:42Z</time></trkpt><trkpt lat="41.13617497841199" lon="14.92483087200443"><ele>167.0</ele><time>2026-04-04T12:49:43Z</time></trkpt><trkpt lat="41.136070364161355" lon="14.92472031153889"><ele>167.0</ele><time>2026-04-04T12:49:44Z</time></trkpt><trkpt lat="41.13596050012625" lon="14.924654935414544"><ele>167.0</ele><time>2026-04-04T12:49:45Z</time></trkpt><trkpt lat="41.135836104737436" lon="14.92463500012154"><ele>167.0</ele><time>2026-04-04T12:49:46Z</time></trkpt><trkpt lat="41.13571831756133" lon="14.924660403029362"><ele>167.0</ele><time>2026-04-04T12:49:47Z</time></trkpt><trkpt lat="41.135617641688356" lon="14.924693199456634"><ele>167.8</ele><time>2026-04-04T12:49:48Z</time></trkpt><trkpt lat="41.13551514789861" lon="14.924731265620098"><ele>168.6</ele><time>2026-04-04T12:49:49Z</time></trkpt><trkpt lat="41.13542448020971" lon="14.924798183951518"><ele>169.4</ele><time>2026-04-04T12:49:50Z</time></trkpt><trkpt lat="41.13533282481951" lon="14.924881228620462"><ele>170.20000000000002</ele><time>2026-04-04T12:49:51Z</time></trkpt><trkpt lat="41.13526601763319" lon="14.924948060856343"><ele>171.0</ele><time>2026-04-04T12:49:52Z</time></trkpt><trkpt lat="41.135192121824254" lon="14.925014961451845"><ele>171.5</ele><time>2026-04-04T12:49:53Z</time></trkpt><trkpt lat="41.13511755646552" lon="14.925082785944909"><ele>172.0</ele><time>2026-04-04T12:49:54Z</time></trkpt><trkpt lat="41.135044787976724" lon="14.925147739090932"><ele>172.5</ele><time>2026-04-04T12:49:55Z</time></trkpt><trkpt lat="41.13497332439173" lon="14.925201239722178"><ele>173.0</ele><time>2026-04-04T12:49:56Z</time></trkpt><trkpt lat="41.134889406904485" lon="14.925237970379737"><ele>173.5</ele><time>2026-04-04T12:49:57Z</time></trkpt><trkpt lat="41.13479574749434" lon="14.925252095073953"><ele>174.0</ele><time>2026-04-04T12:49:58Z</time></trkpt><trkpt lat="41.13468815703103" lon="14.925268229113827"><ele>174.0</ele><time>2026-04-04T12:49:59Z</time></trkpt><trkpt lat="41.134582490964945" lon="14.925276619204505"><ele>174.0</ele><time>2026-04-04T12:50:00Z</time></trkpt><trkpt lat="41.13447669263677" lon="14.925286774303094"><ele>174.0</ele><time>2026-04-04T12:50:01Z</time></trkpt><trkpt lat="41.13437091150468" lon="14.925304383856698"><ele>174.0</ele><time>2026-04-04T12:50:02Z</time></trkpt><trkpt lat="41.13426162418131" lon="14.925323446254138"><ele>174.0</ele><time>2026-04-04T12:50:03Z</time></trkpt><trkpt lat="41.13415575777024" lon="14.92533767229215"><ele>172.6</ele><time>2026-04-04T12:50:04Z</time></trkpt><trkpt lat="41.13405331453806" lon="14.925358741598878"><ele>171.2</ele><time>2026-04-04T12:50:05Z</time></trkpt><trkpt lat="41.13394437210223" lon="14.925376591626165"><ele>169.79999999999998</ele><time>2026-04-04T12:50:06Z</time></trkpt><trkpt lat="41.13384177266943" lon="14.9253983318806"><ele>168.39999999999998</ele><time>2026-04-04T12:50:07Z</time></trkpt><trkpt lat="41.133745306935005" lon="14.925418640608958"><ele>167.0</ele><time>2026-04-04T12:50:08Z</time></trkpt><trkpt lat="41.13364976815521" lon="14.925425824091644"><ele>167.0</ele><time>2026-04-04T12:50:09Z</time></trkpt><trkpt lat="41.13355965237729" lon="14.925393212666483"><ele>167.0</ele><time>2026-04-04T12:50:10Z</time></trkpt><trkpt lat="41.13348381062165" lon="14.92531464122833"><ele>167.0</ele><time>2026-04-04T12:50:11Z</time></trkpt><trkpt lat="41.13344348158407" lon="14.925209510681631"><ele>167.0</ele><time>2026-04-04T12:50:12Z</time></trkpt><trkpt lat="41.13341084122685" lon="14.925091543754496"><ele>167.0</ele><time>2026-04-04T12:50:13Z</time></trkpt><trkpt lat="41.133376766332454" lon="14.924959648808166"><ele>165.0</ele><time>2026-04-04T12:50:14Z</time></trkpt><trkpt lat="41.13333796134449" lon="14.924821276503549"><ele>163.0</ele><time>2026-04-04T12:50:15Z</time></trkpt><trkpt lat="41.13329473103073" lon="14.924673592142359"><ele>161.0</ele><time>2026-04-04T12:50:16Z</time></trkpt><trkpt lat="41.133251950784064" lon="14.924517926347704"><ele>159.0</ele><time>2026-04-04T12:50:17Z</time></trkpt><trkpt lat="41.133208684755616" lon="14.924364213347793"><ele>159.6</ele><time>2026-04-04T12:50:18Z</time></trkpt><trkpt lat="41.133167155396066" lon="14.924207408180983"><ele>160.2</ele><time>2026-04-04T12:50:18.999Z</time></trkpt><trkpt lat="41.133130010798816" lon="14.9240613985255"><ele>160.79999999999998</ele><time>2026-04-04T12:50:19.999Z</time></trkpt><trkpt lat="41.133094001625736" lon="14.923940143995877"><ele>161.4</ele><time>2026-04-04T12:50:20.999Z</time></trkpt><trkpt lat="41.133064865106256" lon="14.923831314305547"><ele>162.0</ele><time>2026-04-04T12:50:21.999Z</time></trkpt><trkpt lat="41.13303679178175" lon="14.923726398375056"><ele>162.0</ele><time>2026-04-04T12:50:22.999Z</time></trkpt><trkpt lat="41.13300671333598" lon="14.923626536515359"><ele>162.0</ele><time>2026-04-04T12:50:23.999Z</time></trkpt><trkpt lat="41.13296505818852" lon="14.92349941345736"><ele>162.0</ele><time>2026-04-04T12:50:25.999Z</time></trkpt><trkpt lat="41.132955210997906" lon="14.923410836188065"><ele>162.0</ele><time>2026-04-04T12:50:26.999Z</time></trkpt><trkpt lat="41.13296883863049" lon="14.923316377197608"><ele>162.0</ele><time>2026-04-04T12:50:27.999Z</time></trkpt><trkpt lat="41.13300763327242" lon="14.923222735312022"><ele>162.0</ele><time>2026-04-04T12:50:28.999Z</time></trkpt><trkpt lat="41.13306402766146" lon="14.923130524771846"><ele>160.6</ele><time>2026-04-04T12:50:29.999Z</time></trkpt><trkpt lat="41.13314934991438" lon="14.923022049808626"><ele>159.2</ele><time>2026-04-04T12:50:30.999Z</time></trkpt><trkpt lat="41.13324486151601" lon="14.92290568223492"><ele>157.8</ele><time>2026-04-04T12:50:31.999Z</time></trkpt><trkpt lat="41.13332226164997" lon="14.92282166177297"><ele>156.4</ele><time>2026-04-04T12:50:32.999Z</time></trkpt><trkpt lat="41.13338335272654" lon="14.922730412101757"><ele>155.0</ele><time>2026-04-04T12:50:33.999Z</time></trkpt><trkpt lat="41.13344852222837" lon="14.922626796005448"><ele>157.8</ele><time>2026-04-04T12:50:34.999Z</time></trkpt><trkpt lat="41.133512749606496" lon="14.922512311627354"><ele>160.6</ele><time>2026-04-04T12:50:35.999Z</time></trkpt><trkpt lat="41.13357935205291" lon="14.922385204222778"><ele>163.39999999999998</ele><time>2026-04-04T12:50:36.999Z</time></trkpt><trkpt lat="41.1336367883597" lon="14.922262514901057"><ele>166.2</ele><time>2026-04-04T12:50:37.999Z</time></trkpt><trkpt lat="41.13368176000483" lon="14.922160827061893"><ele>169.0</ele><time>2026-04-04T12:50:38.999Z</time></trkpt><trkpt lat="41.133719913200224" lon="14.922074600772053"><ele>169.0</ele><time>2026-04-04T12:50:39.999Z</time></trkpt><trkpt lat="41.13375434278403" lon="14.92199126088761"><ele>169.0</ele><time>2026-04-04T12:50:40.999Z</time></trkpt><trkpt lat="41.13378154546385" lon="14.921903110987762"><ele>169.0</ele><time>2026-04-04T12:50:41.999Z</time></trkpt><trkpt lat="41.13379838080886" lon="14.92180569185506"><ele>169.0</ele><time>2026-04-04T12:50:42.999Z</time></trkpt><trkpt lat="41.13381596938404" lon="14.921699614182307"><ele>169.0</ele><time>2026-04-04T12:50:43.999Z</time></trkpt><trkpt lat="41.13382765052153" lon="14.921603956298982"><ele>169.0</ele><time>2026-04-04T12:50:44.999Z</time></trkpt><trkpt lat="41.13385654194938" lon="14.921488897736735"><ele>169.0</ele><time>2026-04-04T12:50:46.999Z</time></trkpt><trkpt lat="41.13367235851158" lon="14.921474129875294"><ele>169.0</ele><time>2026-04-04T12:50:49.999Z</time></trkpt><trkpt lat="41.13361211245526" lon="14.921557575911166"><ele>169.0</ele><time>2026-04-04T12:50:50.999Z</time></trkpt><trkpt lat="41.13355125108661" lon="14.921644292567285"><ele>169.0</ele><time>2026-04-04T12:50:51.999Z</time></trkpt><trkpt lat="41.133475963489474" lon="14.921751243870734"><ele>169.0</ele><time>2026-04-04T12:50:52.999Z</time></trkpt><trkpt lat="41.133367750940614" lon="14.921904372511294"><ele>169.0</ele><time>2026-04-04T12:50:53.999Z</time></trkpt><trkpt lat="41.13324919622607" lon="14.922059897891586"><ele>169.0</ele><time>2026-04-04T12:50:54.999Z</time></trkpt><trkpt lat="41.13308998712108" lon="14.922221237816723"><ele>170.66666666666669</ele><time>2026-04-04T12:50:55.999Z</time></trkpt><trkpt lat="41.132893667686766" lon="14.922374688129315"><ele>172.33333333333334</ele><time>2026-04-04T12:50:56.999Z</time></trkpt><trkpt lat="41.13282427832953" lon="14.922421824272847"><ele>174.0</ele><time>2026-04-04T12:50:57.999Z</time></trkpt><trkpt lat="41.13263621894428" lon="14.922621426171201"><ele>174.0</ele><time>2026-04-04T12:50:58.999Z</time></trkpt><trkpt lat="41.13244197686812" lon="14.92281026852222"><ele>174.0</ele><time>2026-04-04T12:50:59.999Z</time></trkpt><trkpt lat="41.13227425698805" lon="14.923001983299443"><ele>177.66666666666666</ele><time>2026-04-04T12:51:00.999Z</time></trkpt><trkpt lat="41.13211416155975" lon="14.923179931919176"><ele>181.33333333333331</ele><time>2026-04-04T12:51:01.999Z</time></trkpt><trkpt lat="41.131955300097005" lon="14.923341608334248"><ele>185.0</ele><time>2026-04-04T12:51:02.999Z</time></trkpt><trkpt lat="41.13180209102407" lon="14.923497499224931"><ele>185.0</ele><time>2026-04-04T12:51:03.999Z</time></trkpt><trkpt lat="41.13163322274943" lon="14.923663464800072"><ele>185.0</ele><time>2026-04-04T12:51:04.999Z</time></trkpt><trkpt lat="41.13147548282947" lon="14.923823850399996"><ele>185.0</ele><time>2026-04-04T12:51:05.999Z</time></trkpt><trkpt lat="41.131327410155016" lon="14.923990425155031"><ele>187.0</ele><time>2026-04-04T12:51:06.999Z</time></trkpt><trkpt lat="41.13118402013137" lon="14.924176835166612"><ele>189.0</ele><time>2026-04-04T12:51:07.999Z</time></trkpt><trkpt lat="41.131050404690335" lon="14.924372148415678"><ele>191.0</ele><time>2026-04-04T12:51:08.999Z</time></trkpt><trkpt lat="41.13094819977139" lon="14.92457623622417"><ele>191.0</ele><time>2026-04-04T12:51:09.999Z</time></trkpt><trkpt lat="41.13088010098599" lon="14.924816970662842"><ele>191.0</ele><time>2026-04-04T12:51:10.999Z</time></trkpt><trkpt lat="41.13083279242414" lon="14.925048324676094"><ele>191.0</ele><time>2026-04-04T12:51:11.999Z</time></trkpt><trkpt lat="41.13080380293432" lon="14.925263217219566"><ele>193.0</ele><time>2026-04-04T12:51:12.999Z</time></trkpt><trkpt lat="41.1307302295722" lon="14.925494710256963"><ele>195.0</ele><time>2026-04-04T12:51:13.998Z</time></trkpt><trkpt lat="41.13066937379534" lon="14.92569464745625"><ele>197.0</ele><time>2026-04-04T12:51:14.998Z</time></trkpt><trkpt lat="41.13057040913648" lon="14.925901185070781"><ele>191.0</ele><time>2026-04-04T12:51:15.998Z</time></trkpt><trkpt lat="41.13045888154204" lon="14.92609599777764"><ele>185.0</ele><time>2026-04-04T12:51:16.998Z</time></trkpt><trkpt lat="41.13031816601142" lon="14.926280318378048"><ele>179.0</ele><time>2026-04-04T12:51:17.998Z</time></trkpt><trkpt lat="41.1301531145435" lon="14.926387694298613"><ele>179.0</ele><time>2026-04-04T12:51:18.998Z</time></trkpt><trkpt lat="41.13000127385872" lon="14.926518583281995"><ele>179.0</ele><time>2026-04-04T12:51:19.998Z</time></trkpt><trkpt lat="41.12985578657176" lon="14.92661015641794"><ele>179.0</ele><time>2026-04-04T12:51:20.998Z</time></trkpt><trkpt lat="41.12966219121746" lon="14.92668014804144"><ele>179.33333333333331</ele><time>2026-04-04T12:51:21.998Z</time></trkpt><trkpt lat="41.12948468805742" lon="14.92670071127776"><ele>179.66666666666666</ele><time>2026-04-04T12:51:22.998Z</time></trkpt><trkpt lat="41.129279262419956" lon="14.926701638316741"><ele>180.0</ele><time>2026-04-04T12:51:23.998Z</time></trkpt><trkpt lat="41.12908775802243" lon="14.926659597858674"><ele>175.33333333333334</ele><time>2026-04-04T12:51:24.998Z</time></trkpt><trkpt lat="41.12894307182049" lon="14.926568641567897"><ele>170.66666666666669</ele><time>2026-04-04T12:51:25.998Z</time></trkpt><trkpt lat="41.128768054525466" lon="14.926440810108906"><ele>166.0</ele><time>2026-04-04T12:51:26.998Z</time></trkpt><trkpt lat="41.128562511409434" lon="14.926281082530242"><ele>166.0</ele><time>2026-04-04T12:51:27.998Z</time></trkpt><trkpt lat="41.12832947714061" lon="14.92610143949508"><ele>166.0</ele><time>2026-04-04T12:51:28.998Z</time></trkpt><trkpt lat="41.12810344894392" lon="14.925930094558232"><ele>166.33333333333334</ele><time>2026-04-04T12:51:29.998Z</time></trkpt><trkpt lat="41.127906991656204" lon="14.925784486298626"><ele>166.66666666666666</ele><time>2026-04-04T12:51:30.998Z</time></trkpt><trkpt lat="41.127716059829794" lon="14.925651556688987"><ele>167.0</ele><time>2026-04-04T12:51:31.998Z</time></trkpt><trkpt lat="41.12754110633415" lon="14.925536785600386"><ele>164.66666666666666</ele><time>2026-04-04T12:51:32.998Z</time></trkpt><trkpt lat="41.127380178744396" lon="14.925423359251452"><ele>162.33333333333334</ele><time>2026-04-04T12:51:33.998Z</time></trkpt><trkpt lat="41.12722872640098" lon="14.925280796162486"><ele>160.0</ele><time>2026-04-04T12:51:34.998Z</time></trkpt><trkpt lat="41.127082029900635" lon="14.925099137101043"><ele>159.5</ele><time>2026-04-04T12:51:35.998Z</time></trkpt><trkpt lat="41.12694451264598" lon="14.924866833593688"><ele>159.0</ele><time>2026-04-04T12:51:36.998Z</time></trkpt><trkpt lat="41.12681433315313" lon="14.924598608819544"><ele>159.0</ele><time>2026-04-04T12:51:37.998Z</time></trkpt><trkpt lat="41.12668783723432" lon="14.924288527850074"><ele>159.0</ele><time>2026-04-04T12:51:38.998Z</time></trkpt><trkpt lat="41.1265661255579" lon="14.923987303289088"><ele>159.66666666666666</ele><time>2026-04-04T12:51:40Z</time></trkpt><trkpt lat="41.126443173348655" lon="14.923734070167534"><ele>160.33333333333331</ele><time>2026-04-04T12:51:41Z</time></trkpt><trkpt lat="41.12634559677949" lon="14.923473034429762"><ele>161.0</ele><time>2026-04-04T12:51:42Z</time></trkpt><trkpt lat="41.12620331991082" lon="14.923242546659052"><ele>162.0</ele><time>2026-04-04T12:51:43Z</time></trkpt><trkpt lat="41.126010219165245" lon="14.923016894894591"><ele>163.0</ele><time>2026-04-04T12:51:44Z</time></trkpt><trkpt lat="41.12582285717661" lon="14.922805772203425"><ele>160.5</ele><time>2026-04-04T12:51:45Z</time></trkpt><trkpt lat="41.12558671921679" lon="14.922661734269148"><ele>158.0</ele><time>2026-04-04T12:51:46Z</time></trkpt><trkpt lat="41.1253333743739" lon="14.92255242467786"><ele>161.5</ele><time>2026-04-04T12:51:47Z</time></trkpt><trkpt lat="41.125100126715786" lon="14.922487538919444"><ele>165.0</ele><time>2026-04-04T12:51:48Z</time></trkpt><trkpt lat="41.124885252434694" lon="14.922434861465156"><ele>165.0</ele><time>2026-04-04T12:51:49Z</time></trkpt><trkpt lat="41.12468913142431" lon="14.922372869398213"><ele>165.0</ele><time>2026-04-04T12:51:50Z</time></trkpt><trkpt lat="41.12446893131501" lon="14.922312216221517"><ele>165.0</ele><time>2026-04-04T12:51:51Z</time></trkpt><trkpt lat="41.12423532629458" lon="14.922284920216454"><ele>165.5</ele><time>2026-04-04T12:51:52Z</time></trkpt><trkpt lat="41.123991769667015" lon="14.922284446609492"><ele>166.0</ele><time>2026-04-04T12:51:53Z</time></trkpt><trkpt lat="41.123756451916414" lon="14.922319230222785"><ele>166.0</ele><time>2026-04-04T12:51:54Z</time></trkpt><trkpt lat="41.12352057946553" lon="14.922391964116615"><ele>166.0</ele><time>2026-04-04T12:51:55Z</time></trkpt><trkpt lat="41.12328603272183" lon="14.922488559755902"><ele>163.0</ele><time>2026-04-04T12:51:56Z</time></trkpt><trkpt lat="41.12304941242932" lon="14.92263389233476"><ele>160.0</ele><time>2026-04-04T12:51:57Z</time></trkpt><trkpt lat="41.12281209408818" lon="14.92280472290791"><ele>160.0</ele><time>2026-04-04T12:51:58Z</time></trkpt><trkpt lat="41.122571203655085" lon="14.922992761068187"><ele>160.0</ele><time>2026-04-04T12:51:59Z</time></trkpt><trkpt lat="41.12233436707689" lon="14.923181478760476"><ele>160.5</ele><time>2026-04-04T12:52:00Z</time></trkpt><trkpt lat="41.122094876100476" lon="14.923371203460821"><ele>161.0</ele><time>2026-04-04T12:52:01Z</time></trkpt><trkpt lat="41.1218530239379" lon="14.923555263051686"><ele>161.0</ele><time>2026-04-04T12:52:02Z</time></trkpt><trkpt lat="41.12161063569003" lon="14.923732871651836"><ele>161.0</ele><time>2026-04-04T12:52:03Z</time></trkpt><trkpt lat="41.1213766326099" lon="14.923916263591597"><ele>162.5</ele><time>2026-04-04T12:52:04Z</time></trkpt><trkpt lat="41.121137295047056" lon="14.924090891150035"><ele>164.0</ele><time>2026-04-04T12:52:05Z</time></trkpt><trkpt lat="41.120904135936016" lon="14.924267682154566"><ele>164.5</ele><time>2026-04-04T12:52:06Z</time></trkpt><trkpt lat="41.12065384712509" lon="14.924447194045657"><ele>165.0</ele><time>2026-04-04T12:52:07Z</time></trkpt><trkpt lat="41.12013797323544" lon="14.924838159001027"><ele>166.0</ele><time>2026-04-04T12:52:09Z</time></trkpt><trkpt lat="41.11985569742018" lon="14.925051245605822"><ele>167.0</ele><time>2026-04-04T12:52:10Z</time></trkpt><trkpt lat="41.119593778075405" lon="14.925248136604452"><ele>167.0</ele><time>2026-04-04T12:52:11Z</time></trkpt><trkpt lat="41.11936233644518" lon="14.92542750650414"><ele>167.0</ele><time>2026-04-04T12:52:12Z</time></trkpt><trkpt lat="41.11915506986535" lon="14.925578782539398"><ele>167.66666666666666</ele><time>2026-04-04T12:52:13Z</time></trkpt><trkpt lat="41.11896198728893" lon="14.92572386718716"><ele>168.33333333333334</ele><time>2026-04-04T12:52:14Z</time></trkpt><trkpt lat="41.118774243886556" lon="14.925860820286626"><ele>169.0</ele><time>2026-04-04T12:52:15Z</time></trkpt><trkpt lat="41.11861379911355" lon="14.925978212960658"><ele>169.0</ele><time>2026-04-04T12:52:16Z</time></trkpt><trkpt lat="41.118475837115625" lon="14.926069631730028"><ele>169.0</ele><time>2026-04-04T12:52:17Z</time></trkpt><trkpt lat="41.118345738760524" lon="14.926131223493535"><ele>169.0</ele><time>2026-04-04T12:52:18Z</time></trkpt><trkpt lat="41.11822259119108" lon="14.92616458033285"><ele>169.0</ele><time>2026-04-04T12:52:19Z</time></trkpt><trkpt lat="41.118051332704766" lon="14.926125474617251"><ele>170.0</ele><time>2026-04-04T12:52:21Z</time></trkpt><trkpt lat="41.11797840269753" lon="14.926094785838957"><ele>171.0</ele><time>2026-04-04T12:52:23Z</time></trkpt><trkpt lat="41.1178861090955" lon="14.926104566008018"><ele>172.0</ele><time>2026-04-04T12:52:25Z</time></trkpt><trkpt lat="41.117790761351635" lon="14.926144500766931"><ele>173.0</ele><time>2026-04-04T12:52:26Z</time></trkpt><trkpt lat="41.11768958508688" lon="14.926199306556382"><ele>174.0</ele><time>2026-04-04T12:52:27Z</time></trkpt><trkpt lat="41.117576598653315" lon="14.926211084325747"><ele>174.0</ele><time>2026-04-04T12:52:28Z</time></trkpt><trkpt lat="41.11745225003517" lon="14.926201443497032"><ele>174.0</ele><time>2026-04-04T12:52:29Z</time></trkpt><trkpt lat="41.11728092694905" lon="14.92619377740821"><ele>174.0</ele><time>2026-04-04T12:52:29.999Z</time></trkpt><trkpt lat="41.11711560035713" lon="14.92618850769403"><ele>175.66666666666666</ele><time>2026-04-04T12:52:30.999Z</time></trkpt><trkpt lat="41.116947364919724" lon="14.926183138123086"><ele>177.33333333333331</ele><time>2026-04-04T12:52:31.999Z</time></trkpt><trkpt lat="41.11677595744766" lon="14.92617562732273"><ele>179.0</ele><time>2026-04-04T12:52:32.999Z</time></trkpt><trkpt lat="41.11660158397094" lon="14.926163220674479"><ele>178.66666666666666</ele><time>2026-04-04T12:52:33.999Z</time></trkpt><trkpt lat="41.11642333142346" lon="14.92614377922237"><ele>178.33333333333334</ele><time>2026-04-04T12:52:34.999Z</time></trkpt><trkpt lat="41.116241074531814" lon="14.926093595960104"><ele>178.0</ele><time>2026-04-04T12:52:35.999Z</time></trkpt><trkpt lat="41.11604005251953" lon="14.926011948154244"><ele>178.0</ele><time>2026-04-04T12:52:36.999Z</time></trkpt><trkpt lat="41.11583533321043" lon="14.925916133225567"><ele>178.0</ele><time>2026-04-04T12:52:37.999Z</time></trkpt><trkpt lat="41.11564445440221" lon="14.925840022562637"><ele>178.0</ele><time>2026-04-04T12:52:38.999Z</time></trkpt><trkpt lat="41.11547424575278" lon="14.925783805041172"><ele>184.0</ele><time>2026-04-04T12:52:39.999Z</time></trkpt><trkpt lat="41.11532416962188" lon="14.925729048176947"><ele>190.0</ele><time>2026-04-04T12:52:40.999Z</time></trkpt><trkpt lat="41.115162208215814" lon="14.925719210935684"><ele>196.0</ele><time>2026-04-04T12:52:41.999Z</time></trkpt><trkpt lat="41.11500116987236" lon="14.925767543733624"><ele>197.0</ele><time>2026-04-04T12:52:42.999Z</time></trkpt><trkpt lat="41.114833333502084" lon="14.925878436586318"><ele>198.0</ele><time>2026-04-04T12:52:43.999Z</time></trkpt><trkpt lat="41.11464843668887" lon="14.926018559923165"><ele>199.0</ele><time>2026-04-04T12:52:44.999Z</time></trkpt><trkpt lat="41.114466394680285" lon="14.926158700786678"><ele>199.0</ele><time>2026-04-04T12:52:45.999Z</time></trkpt><trkpt lat="41.114286255384634" lon="14.926291404630408"><ele>199.0</ele><time>2026-04-04T12:52:46.999Z</time></trkpt><trkpt lat="41.11409615258973" lon="14.926411232943469"><ele>199.0</ele><time>2026-04-04T12:52:47.999Z</time></trkpt><trkpt lat="41.11388741946293" lon="14.926524517472817"><ele>203.0</ele><time>2026-04-04T12:52:48.999Z</time></trkpt><trkpt lat="41.113664718310744" lon="14.926628097514559"><ele>207.0</ele><time>2026-04-04T12:52:49.999Z</time></trkpt><trkpt lat="41.11344259685093" lon="14.926699668805083"><ele>206.66666666666669</ele><time>2026-04-04T12:52:50.999Z</time></trkpt><trkpt lat="41.11322567253007" lon="14.926769882504933"><ele>206.33333333333334</ele><time>2026-04-04T12:52:51.999Z</time></trkpt><trkpt lat="41.11302552259299" lon="14.926823447163596"><ele>206.0</ele><time>2026-04-04T12:52:52.999Z</time></trkpt><trkpt lat="41.11283995607295" lon="14.926871281403997"><ele>206.0</ele><time>2026-04-04T12:52:53.999Z</time></trkpt><trkpt lat="41.11266703556284" lon="14.926919784476906"><ele>206.0</ele><time>2026-04-04T12:52:54.999Z</time></trkpt><trkpt lat="41.11249973088692" lon="14.926980795119269"><ele>206.0</ele><time>2026-04-04T12:52:55.999Z</time></trkpt><trkpt lat="41.1123338674007" lon="14.927067093358394"><ele>210.66666666666669</ele><time>2026-04-04T12:52:56.999Z</time></trkpt><trkpt lat="41.11217706911956" lon="14.927195972661753"><ele>215.33333333333331</ele><time>2026-04-04T12:52:57.999Z</time></trkpt><trkpt lat="41.11203121680384" lon="14.927347968482964"><ele>220.0</ele><time>2026-04-04T12:52:58.999Z</time></trkpt><trkpt lat="41.111887033284795" lon="14.92752859249728"><ele>218.33333333333331</ele><time>2026-04-04T12:52:59.999Z</time></trkpt><trkpt lat="41.111759421292255" lon="14.927709435329035"><ele>216.66666666666669</ele><time>2026-04-04T12:53:00.999Z</time></trkpt><trkpt lat="41.11163638078753" lon="14.9278496060404"><ele>215.0</ele><time>2026-04-04T12:53:01.999Z</time></trkpt><trkpt lat="41.111504227433485" lon="14.927944716335702"><ele>215.0</ele><time>2026-04-04T12:53:02.999Z</time></trkpt><trkpt lat="41.111355180659274" lon="14.927978266380187"><ele>215.0</ele><time>2026-04-04T12:53:03.999Z</time></trkpt><trkpt lat="41.11118664952828" lon="14.927978810590032"><ele>215.0</ele><time>2026-04-04T12:53:04.999Z</time></trkpt><trkpt lat="41.11100267405973" lon="14.927974745714764"><ele>215.0</ele><time>2026-04-04T12:53:05.999Z</time></trkpt><trkpt lat="41.11083823877719" lon="14.927973301511457"><ele>215.0</ele><time>2026-04-04T12:53:06.999Z</time></trkpt><trkpt lat="41.11070653601225" lon="14.927951951705255"><ele>215.0</ele><time>2026-04-04T12:53:07.999Z</time></trkpt><trkpt lat="41.11057828523167" lon="14.927876166350348"><ele>215.0</ele><time>2026-04-04T12:53:08.999Z</time></trkpt><trkpt lat="41.11045593404637" lon="14.927733597872786"><ele>216.0</ele><time>2026-04-04T12:53:09.999Z</time></trkpt><trkpt lat="41.110360181127625" lon="14.927557283402503"><ele>217.0</ele><time>2026-04-04T12:53:10.999Z</time></trkpt><trkpt lat="41.110296837465164" lon="14.927354140147843"><ele>218.0</ele><time>2026-04-04T12:53:11.999Z</time></trkpt><trkpt lat="41.110248787489354" lon="14.927135860678485"><ele>218.0</ele><time>2026-04-04T12:53:12.999Z</time></trkpt><trkpt lat="41.11017551249252" lon="14.926898205626673"><ele>218.0</ele><time>2026-04-04T12:53:13.999Z</time></trkpt><trkpt lat="41.110107988306446" lon="14.926690289476829"><ele>218.0</ele><time>2026-04-04T12:53:14.999Z</time></trkpt><trkpt lat="41.110031429169425" lon="14.92651713489885"><ele>219.66666666666669</ele><time>2026-04-04T12:53:15.999Z</time></trkpt><trkpt lat="41.10992907247672" lon="14.926363669276169"><ele>221.33333333333331</ele><time>2026-04-04T12:53:16.999Z</time></trkpt><trkpt lat="41.1097873139639" lon="14.926235835504013"><ele>223.0</ele><time>2026-04-04T12:53:17.999Z</time></trkpt><trkpt lat="41.1096015586585" lon="14.926144693152516"><ele>223.0</ele><time>2026-04-04T12:53:18.999Z</time></trkpt><trkpt lat="41.109394133529946" lon="14.926040637926757"><ele>223.0</ele><time>2026-04-04T12:53:19.999Z</time></trkpt><trkpt lat="41.10921057514173" lon="14.925916107003113"><ele>223.0</ele><time>2026-04-04T12:53:20.999Z</time></trkpt><trkpt lat="41.10905230015645" lon="14.925842815488162"><ele>225.66666666666666</ele><time>2026-04-04T12:53:21.999Z</time></trkpt><trkpt lat="41.108897624965984" lon="14.925723011813965"><ele>228.33333333333331</ele><time>2026-04-04T12:53:22.998Z</time></trkpt><trkpt lat="41.10873929311726" lon="14.925595363420628"><ele>231.0</ele><time>2026-04-04T12:53:23.998Z</time></trkpt><trkpt lat="41.10860427036126" lon="14.925443180551756"><ele>231.0</ele><time>2026-04-04T12:53:24.998Z</time></trkpt><trkpt lat="41.108476233306504" lon="14.9252620457511"><ele>231.0</ele><time>2026-04-04T12:53:25.998Z</time></trkpt><trkpt lat="41.108339689462426" lon="14.925067530787366"><ele>231.0</ele><time>2026-04-04T12:53:26.998Z</time></trkpt><trkpt lat="41.10821416728891" lon="14.92488813074817"><ele>233.5</ele><time>2026-04-04T12:53:27.998Z</time></trkpt><trkpt lat="41.108113356714874" lon="14.924750758688754"><ele>236.0</ele><time>2026-04-04T12:53:28.998Z</time></trkpt><trkpt lat="41.10801276682407" lon="14.924612532695862"><ele>238.5</ele><time>2026-04-04T12:53:29.998Z</time></trkpt><trkpt lat="41.10791249540798" lon="14.92450038717083"><ele>241.0</ele><time>2026-04-04T12:53:30.998Z</time></trkpt><trkpt lat="41.107797497743476" lon="14.924458611997823"><ele>241.0</ele><time>2026-04-04T12:53:31.998Z</time></trkpt><trkpt lat="41.10767353701138" lon="14.924464426052074"><ele>241.0</ele><time>2026-04-04T12:53:32.998Z</time></trkpt><trkpt lat="41.10754602534317" lon="14.924574094489223"><ele>241.0</ele><time>2026-04-04T12:53:33.998Z</time></trkpt><trkpt lat="41.107409117377124" lon="14.924707468921193"><ele>241.0</ele><time>2026-04-04T12:53:34.998Z</time></trkpt><trkpt lat="41.10724995163684" lon="14.924821416228356"><ele>242.0</ele><time>2026-04-04T12:53:35.998Z</time></trkpt><trkpt lat="41.1071006942249" lon="14.924946531265315"><ele>243.0</ele><time>2026-04-04T12:53:36.998Z</time></trkpt><trkpt lat="41.106943177106" lon="14.92506839546106"><ele>244.0</ele><time>2026-04-04T12:53:37.998Z</time></trkpt><trkpt lat="41.10678610314669" lon="14.925168241915747"><ele>244.0</ele><time>2026-04-04T12:53:38.998Z</time></trkpt><trkpt lat="41.106618557137864" lon="14.925233087951593"><ele>244.0</ele><time>2026-04-04T12:53:39.998Z</time></trkpt><trkpt lat="41.10642558108386" lon="14.92525797220387"><ele>244.0</ele><time>2026-04-04T12:53:40.998Z</time></trkpt><trkpt lat="41.106236005577756" lon="14.925320202264999"><ele>246.0</ele><time>2026-04-04T12:53:41.998Z</time></trkpt><trkpt lat="41.10606899304388" lon="14.925330818758743"><ele>248.0</ele><time>2026-04-04T12:53:42.998Z</time></trkpt><trkpt lat="41.10590945787676" lon="14.925331080516829"><ele>250.0</ele><time>2026-04-04T12:53:43.998Z</time></trkpt><trkpt lat="41.105751186018836" lon="14.925286109437126"><ele>250.33333333333331</ele><time>2026-04-04T12:53:44.998Z</time></trkpt><trkpt lat="41.10563676278508" lon="14.925122217192948"><ele>250.66666666666669</ele><time>2026-04-04T12:53:46Z</time></trkpt><trkpt lat="41.105508932030745" lon="14.924971181560087"><ele>251.0</ele><time>2026-04-04T12:53:47Z</time></trkpt><trkpt lat="41.10536269280552" lon="14.92479900730301"><ele>252.33333333333334</ele><time>2026-04-04T12:53:48Z</time></trkpt><trkpt lat="41.10524648489761" lon="14.924640087040167"><ele>253.66666666666669</ele><time>2026-04-04T12:53:49Z</time></trkpt><trkpt lat="41.10511875109423" lon="14.924482068964718"><ele>255.0</ele><time>2026-04-04T12:53:50Z</time></trkpt><trkpt lat="41.105003907308316" lon="14.924321643816183"><ele>255.5</ele><time>2026-04-04T12:53:51Z</time></trkpt><trkpt lat="41.104897695051186" lon="14.924180107592543"><ele>256.0</ele><time>2026-04-04T12:53:52Z</time></trkpt><trkpt lat="41.10480489569473" lon="14.924099368772014"><ele>256.5</ele><time>2026-04-04T12:53:53Z</time></trkpt><trkpt lat="41.1047395991286" lon="14.924025891553871"><ele>257.0</ele><time>2026-04-04T12:53:55Z</time></trkpt><trkpt lat="41.104619152942384" lon="14.924207772201623"><ele>256.0</ele><time>2026-04-04T12:53:58Z</time></trkpt><trkpt lat="41.10452439716713" lon="14.924310873285787"><ele>255.0</ele><time>2026-04-04T12:53:59Z</time></trkpt><trkpt lat="41.10443335038845" lon="14.924427190392649"><ele>254.0</ele><time>2026-04-04T12:54:00Z</time></trkpt><trkpt lat="41.10432373154955" lon="14.924536964199818"><ele>253.0</ele><time>2026-04-04T12:54:01Z</time></trkpt><trkpt lat="41.10419483515924" lon="14.924630461044524"><ele>253.33333333333331</ele><time>2026-04-04T12:54:02Z</time></trkpt><trkpt lat="41.10405632313346" lon="14.924742141449157"><ele>253.66666666666669</ele><time>2026-04-04T12:54:03Z</time></trkpt><trkpt lat="41.10391750925873" lon="14.924869662618113"><ele>254.0</ele><time>2026-04-04T12:54:04Z</time></trkpt><trkpt lat="41.10374685079686" lon="14.924937068671262"><ele>254.0</ele><time>2026-04-04T12:54:05Z</time></trkpt><trkpt lat="41.10357136964524" lon="14.92504839370898"><ele>254.0</ele><time>2026-04-04T12:54:06Z</time></trkpt><trkpt lat="41.10338532947968" lon="14.925123287748951"><ele>254.0</ele><time>2026-04-04T12:54:07Z</time></trkpt><trkpt lat="41.10318685415847" lon="14.925205790653328"><ele>254.66666666666669</ele><time>2026-04-04T12:54:08Z</time></trkpt><trkpt lat="41.10298320959888" lon="14.925240684559864"><ele>255.33333333333331</ele><time>2026-04-04T12:54:09Z</time></trkpt><trkpt lat="41.10277090951547" lon="14.925265668080055"><ele>256.0</ele><time>2026-04-04T12:54:10Z</time></trkpt><trkpt lat="41.102570108378565" lon="14.925295118678141"><ele>256.0</ele><time>2026-04-04T12:54:11Z</time></trkpt><trkpt lat="41.10237125093295" lon="14.925309329555674"><ele>256.0</ele><time>2026-04-04T12:54:12Z</time></trkpt><trkpt lat="41.10217045894507" lon="14.925333059418925"><ele>256.0</ele><time>2026-04-04T12:54:13Z</time></trkpt><trkpt lat="41.101971856712865" lon="14.9253588432715"><ele>256.0</ele><time>2026-04-04T12:54:14Z</time></trkpt><trkpt lat="41.10177892873797" lon="14.925385798997118"><ele>256.0</ele><time>2026-04-04T12:54:15Z</time></trkpt><trkpt lat="41.101594291875195" lon="14.92541083934719"><ele>256.0</ele><time>2026-04-04T12:54:16Z</time></trkpt><trkpt lat="41.10142763115109" lon="14.92543315808196"><ele>255.33333333333331</ele><time>2026-04-04T12:54:17Z</time></trkpt><trkpt lat="41.10126612263909" lon="14.925450498604885"><ele>254.66666666666669</ele><time>2026-04-04T12:54:18Z</time></trkpt><trkpt lat="41.10111143043148" lon="14.925457703540408"><ele>254.0</ele><time>2026-04-04T12:54:19Z</time></trkpt><trkpt lat="41.10096534241368" lon="14.925444480374692"><ele>254.0</ele><time>2026-04-04T12:54:20Z</time></trkpt><trkpt lat="41.10081037045894" lon="14.925421481960466"><ele>254.0</ele><time>2026-04-04T12:54:21Z</time></trkpt><trkpt lat="41.10065934837422" lon="14.925389798801021"><ele>254.0</ele><time>2026-04-04T12:54:22Z</time></trkpt><trkpt lat="41.10052225221947" lon="14.92533816463936"><ele>253.0</ele><time>2026-04-04T12:54:23Z</time></trkpt><trkpt lat="41.10039596773867" lon="14.925254737696955"><ele>252.0</ele><time>2026-04-04T12:54:24Z</time></trkpt><trkpt lat="41.10027572742846" lon="14.925143460111288"><ele>251.0</ele><time>2026-04-04T12:54:25Z</time></trkpt><trkpt lat="41.100152000550246" lon="14.925022458157958"><ele>250.0</ele><time>2026-04-04T12:54:26Z</time></trkpt><trkpt lat="41.10003126022292" lon="14.924897473726086"><ele>248.25</ele><time>2026-04-04T12:54:27Z</time></trkpt><trkpt lat="41.099916771178016" lon="14.924781520027745"><ele>246.5</ele><time>2026-04-04T12:54:28Z</time></trkpt><trkpt lat="41.09979035962995" lon="14.924687160355322"><ele>244.75</ele><time>2026-04-04T12:54:29Z</time></trkpt><trkpt lat="41.09964643071671" lon="14.92461986926441"><ele>243.0</ele><time>2026-04-04T12:54:29.999Z</time></trkpt><trkpt lat="41.099490479233694" lon="14.924580237891185"><ele>243.0</ele><time>2026-04-04T12:54:30.999Z</time></trkpt><trkpt lat="41.099333030651145" lon="14.924550267639706"><ele>243.0</ele><time>2026-04-04T12:54:31.999Z</time></trkpt><trkpt lat="41.09917259126187" lon="14.924538367549298"><ele>243.0</ele><time>2026-04-04T12:54:32.999Z</time></trkpt><trkpt lat="41.099007113711885" lon="14.924530397174129"><ele>240.33333333333331</ele><time>2026-04-04T12:54:33.999Z</time></trkpt><trkpt lat="41.09883378013437" lon="14.92451227971669"><ele>237.66666666666666</ele><time>2026-04-04T12:54:34.999Z</time></trkpt><trkpt lat="41.09867537036402" lon="14.924493511216616"><ele>235.0</ele><time>2026-04-04T12:54:35.999Z</time></trkpt><trkpt lat="41.09848536055467" lon="14.92445094056262"><ele>235.0</ele><time>2026-04-04T12:54:36.999Z</time></trkpt><trkpt lat="41.09826643288011" lon="14.924425901714214"><ele>235.0</ele><time>2026-04-04T12:54:37.999Z</time></trkpt><trkpt lat="41.098048084507894" lon="14.924396173246693"><ele>235.0</ele><time>2026-04-04T12:54:38.999Z</time></trkpt><trkpt lat="41.09783303562059" lon="14.92432410075589"><ele>233.0</ele><time>2026-04-04T12:54:39.999Z</time></trkpt><trkpt lat="41.09762471058736" lon="14.924192182030865"><ele>231.0</ele><time>2026-04-04T12:54:40.999Z</time></trkpt><trkpt lat="41.09741272581215" lon="14.924053444679457"><ele>229.5</ele><time>2026-04-04T12:54:41.999Z</time></trkpt><trkpt lat="41.097194501745385" lon="14.92395295141922"><ele>228.0</ele><time>2026-04-04T12:54:42.999Z</time></trkpt><trkpt lat="41.09697005626488" lon="14.923857466865945"><ele>228.0</ele><time>2026-04-04T12:54:43.999Z</time></trkpt><trkpt lat="41.096738466268796" lon="14.923779022907599"><ele>228.0</ele><time>2026-04-04T12:54:44.999Z</time></trkpt><trkpt lat="41.09650005886176" lon="14.92371470378732"><ele>228.0</ele><time>2026-04-04T12:54:45.999Z</time></trkpt><trkpt lat="41.09628243462456" lon="14.923657353524392"><ele>228.0</ele><time>2026-04-04T12:54:46.999Z</time></trkpt><trkpt lat="41.096077051613726" lon="14.92359721545105"><ele>228.0</ele><time>2026-04-04T12:54:47.999Z</time></trkpt><trkpt lat="41.09588771850518" lon="14.923533452155151"><ele>228.0</ele><time>2026-04-04T12:54:48.999Z</time></trkpt><trkpt lat="41.0957094160559" lon="14.923438300664694"><ele>228.0</ele><time>2026-04-04T12:54:49.999Z</time></trkpt><trkpt lat="41.0955169360159" lon="14.923381683624038"><ele>228.0</ele><time>2026-04-04T12:54:50.999Z</time></trkpt><trkpt lat="41.09532671034935" lon="14.923290929007715"><ele>228.66666666666669</ele><time>2026-04-04T12:54:51.999Z</time></trkpt><trkpt lat="41.09513814034699" lon="14.923201071486375"><ele>229.33333333333334</ele><time>2026-04-04T12:54:52.999Z</time></trkpt><trkpt lat="41.09494885477891" lon="14.923111497435686"><ele>230.0</ele><time>2026-04-04T12:54:53.999Z</time></trkpt><trkpt lat="41.09476143656531" lon="14.922998217216938"><ele>228.0</ele><time>2026-04-04T12:54:54.999Z</time></trkpt><trkpt lat="41.09457298566527" lon="14.922903704197218"><ele>226.0</ele><time>2026-04-04T12:54:55.999Z</time></trkpt><trkpt lat="41.09438752464972" lon="14.922834509963959"><ele>224.0</ele><time>2026-04-04T12:54:56.999Z</time></trkpt><trkpt lat="41.09420424094167" lon="14.922740319648744"><ele>221.66666666666669</ele><time>2026-04-04T12:54:57.999Z</time></trkpt><trkpt lat="41.0940212675009" lon="14.922647023055685"><ele>219.33333333333331</ele><time>2026-04-04T12:54:58.999Z</time></trkpt><trkpt lat="41.09383615736346" lon="14.922547498711186"><ele>217.0</ele><time>2026-04-04T12:54:59.999Z</time></trkpt><trkpt lat="41.093662252827045" lon="14.92241423021403"><ele>217.0</ele><time>2026-04-04T12:55:00.999Z</time></trkpt><trkpt lat="41.09349093950774" lon="14.922279957971613"><ele>217.0</ele><time>2026-04-04T12:55:01.999Z</time></trkpt><trkpt lat="41.09332617078775" lon="14.922131450888374"><ele>217.0</ele><time>2026-04-04T12:55:02.999Z</time></trkpt><trkpt lat="41.09316826508745" lon="14.921968577366968"><ele>216.33333333333331</ele><time>2026-04-04T12:55:03.999Z</time></trkpt><trkpt lat="41.09301583382092" lon="14.921829869778438"><ele>215.66666666666669</ele><time>2026-04-04T12:55:04.999Z</time></trkpt><trkpt lat="41.092883390514736" lon="14.921672655410045"><ele>215.0</ele><time>2026-04-04T12:55:05.999Z</time></trkpt><trkpt lat="41.09275701854688" lon="14.92153087911484"><ele>215.0</ele><time>2026-04-04T12:55:06.999Z</time></trkpt><trkpt lat="41.092645143700004" lon="14.921393947004532"><ele>215.0</ele><time>2026-04-04T12:55:07.999Z</time></trkpt><trkpt lat="41.092509095156636" lon="14.921333313507404"><ele>215.0</ele><time>2026-04-04T12:55:08.999Z</time></trkpt><trkpt lat="41.09236263545799" lon="14.921304503838332"><ele>215.0</ele><time>2026-04-04T12:55:09.999Z</time></trkpt><trkpt lat="41.09219149768893" lon="14.921318268950426"><ele>215.0</ele><time>2026-04-04T12:55:10.999Z</time></trkpt><trkpt lat="41.09200193047557" lon="14.921375820555175"><ele>215.0</ele><time>2026-04-04T12:55:11.999Z</time></trkpt><trkpt lat="41.09181701659255" lon="14.921406939740082"><ele>215.0</ele><time>2026-04-04T12:55:12.999Z</time></trkpt><trkpt lat="41.091623754815075" lon="14.921416101978997"><ele>216.0</ele><time>2026-04-04T12:55:13.999Z</time></trkpt><trkpt lat="41.09144217487687" lon="14.921469495901626"><ele>217.0</ele><time>2026-04-04T12:55:14.999Z</time></trkpt><trkpt lat="41.091241718576825" lon="14.921482425337121"><ele>218.0</ele><time>2026-04-04T12:55:15.999Z</time></trkpt><trkpt lat="41.091039295533506" lon="14.92147180310904"><ele>218.0</ele><time>2026-04-04T12:55:16.999Z</time></trkpt><trkpt lat="41.0908243267935" lon="14.921423983496853"><ele>218.0</ele><time>2026-04-04T12:55:17.999Z</time></trkpt><trkpt lat="41.09059823330455" lon="14.9213990933175"><ele>218.0</ele><time>2026-04-04T12:55:18.999Z</time></trkpt><trkpt lat="41.090387411154026" lon="14.921367462945824"><ele>218.0</ele><time>2026-04-04T12:55:19.998Z</time></trkpt><trkpt lat="41.090195515785844" lon="14.921322951410103"><ele>218.0</ele><time>2026-04-04T12:55:20.998Z</time></trkpt><trkpt lat="41.090011269976195" lon="14.921277733383674"><ele>218.0</ele><time>2026-04-04T12:55:21.998Z</time></trkpt><trkpt lat="41.08983018613786" lon="14.921229603494575"><ele>217.66666666666669</ele><time>2026-04-04T12:55:22.998Z</time></trkpt><trkpt lat="41.08965788465467" lon="14.921154144338443"><ele>217.33333333333331</ele><time>2026-04-04T12:55:23.998Z</time></trkpt><trkpt lat="41.08946941301507" lon="14.92103706048736"><ele>217.0</ele><time>2026-04-04T12:55:24.998Z</time></trkpt><trkpt lat="41.08926814701882" lon="14.920904518207006"><ele>217.66666666666666</ele><time>2026-04-04T12:55:25.998Z</time></trkpt><trkpt lat="41.089068687297704" lon="14.920795640214683"><ele>218.33333333333331</ele><time>2026-04-04T12:55:26.998Z</time></trkpt><trkpt lat="41.088865965384585" lon="14.920652290246068"><ele>219.0</ele><time>2026-04-04T12:55:27.998Z</time></trkpt><trkpt lat="41.08866210800491" lon="14.920520787354475"><ele>219.0</ele><time>2026-04-04T12:55:28.998Z</time></trkpt><trkpt lat="41.08844654380378" lon="14.920402948115093"><ele>219.0</ele><time>2026-04-04T12:55:29.998Z</time></trkpt><trkpt lat="41.08821950678827" lon="14.92029638155132"><ele>221.5</ele><time>2026-04-04T12:55:30.998Z</time></trkpt><trkpt lat="41.08797339522996" lon="14.920223265936986"><ele>224.0</ele><time>2026-04-04T12:55:31.998Z</time></trkpt><trkpt lat="41.08771511640093" lon="14.920169066301526"><ele>224.0</ele><time>2026-04-04T12:55:32.998Z</time></trkpt><trkpt lat="41.0874622913294" lon="14.920094439175116"><ele>224.0</ele><time>2026-04-04T12:55:33.998Z</time></trkpt><trkpt lat="41.087191866806194" lon="14.920121098152437"><ele>225.5</ele><time>2026-04-04T12:55:34.998Z</time></trkpt><trkpt lat="41.08692817713328" lon="14.92015199118322"><ele>227.0</ele><time>2026-04-04T12:55:35.998Z</time></trkpt><trkpt lat="41.086682118981635" lon="14.92016761582878"><ele>228.5</ele><time>2026-04-04T12:55:36.998Z</time></trkpt><trkpt lat="41.086439274735284" lon="14.920193419967353"><ele>230.0</ele><time>2026-04-04T12:55:37.998Z</time></trkpt><trkpt lat="41.086210816366" lon="14.920185950010609"><ele>230.0</ele><time>2026-04-04T12:55:38.998Z</time></trkpt><trkpt lat="41.085961873692376" lon="14.920142084791264"><ele>230.0</ele><time>2026-04-04T12:55:39.998Z</time></trkpt><trkpt lat="41.08569158112516" lon="14.920057871093244"><ele>231.5</ele><time>2026-04-04T12:55:40.998Z</time></trkpt><trkpt lat="41.08542835543396" lon="14.919969317419547"><ele>233.0</ele><time>2026-04-04T12:55:41.998Z</time></trkpt><trkpt lat="41.08518853540674" lon="14.919909396570457"><ele>233.0</ele><time>2026-04-04T12:55:42.998Z</time></trkpt><trkpt lat="41.08496185081201" lon="14.919832082464962"><ele>233.0</ele><time>2026-04-04T12:55:43.998Z</time></trkpt><trkpt lat="41.08474915267434" lon="14.919764332540499"><ele>233.66666666666669</ele><time>2026-04-04T12:55:44.998Z</time></trkpt><trkpt lat="41.08453622908157" lon="14.91969833300007"><ele>234.33333333333331</ele><time>2026-04-04T12:55:45.998Z</time></trkpt><trkpt lat="41.08431678613495" lon="14.919650636651312"><ele>235.0</ele><time>2026-04-04T12:55:46.998Z</time></trkpt><trkpt lat="41.08408888699004" lon="14.919633032880224"><ele>235.0</ele><time>2026-04-04T12:55:47.998Z</time></trkpt><trkpt lat="41.083860227463326" lon="14.919639752266537"><ele>235.0</ele><time>2026-04-04T12:55:48.998Z</time></trkpt><trkpt lat="41.08363524643547" lon="14.91964950579107"><ele>235.0</ele><time>2026-04-04T12:55:49.998Z</time></trkpt><trkpt lat="41.08341522408206" lon="14.91965387456079"><ele>235.0</ele><time>2026-04-04T12:55:50.998Z</time></trkpt><trkpt lat="41.08319653408845" lon="14.919634169392616"><ele>235.0</ele><time>2026-04-04T12:55:52Z</time></trkpt><trkpt lat="41.08297812040288" lon="14.919635837601806"><ele>233.0</ele><time>2026-04-04T12:55:53Z</time></trkpt><trkpt lat="41.08275709524363" lon="14.91965773828991"><ele>231.0</ele><time>2026-04-04T12:55:54Z</time></trkpt><trkpt lat="41.08253616347748" lon="14.919651638351374"><ele>229.0</ele><time>2026-04-04T12:55:55Z</time></trkpt><trkpt lat="41.08231773836397" lon="14.91964109510541"><ele>226.5</ele><time>2026-04-04T12:55:56Z</time></trkpt><trkpt lat="41.082095615839634" lon="14.919584192360853"><ele>224.0</ele><time>2026-04-04T12:55:57Z</time></trkpt><trkpt lat="41.08186746895976" lon="14.919538283939968"><ele>224.0</ele><time>2026-04-04T12:55:58Z</time></trkpt><trkpt lat="41.08163110258547" lon="14.919503541177367"><ele>224.0</ele><time>2026-04-04T12:55:59Z</time></trkpt><trkpt lat="41.08139568340718" lon="14.919425764471864"><ele>221.0</ele><time>2026-04-04T12:56:00Z</time></trkpt><trkpt lat="41.08115458539268" lon="14.919368197535952"><ele>218.0</ele><time>2026-04-04T12:56:01Z</time></trkpt><trkpt lat="41.08091781796562" lon="14.919311664482189"><ele>218.5</ele><time>2026-04-04T12:56:02Z</time></trkpt><trkpt lat="41.08067798034686" lon="14.919255843822873"><ele>219.0</ele><time>2026-04-04T12:56:03Z</time></trkpt><trkpt lat="41.080430264065285" lon="14.919227539603439"><ele>219.0</ele><time>2026-04-04T12:56:04Z</time></trkpt><trkpt lat="41.08018755237039" lon="14.919172393790747"><ele>219.0</ele><time>2026-04-04T12:56:05Z</time></trkpt><trkpt lat="41.0799459647354" lon="14.919119282060807"><ele>217.5</ele><time>2026-04-04T12:56:06Z</time></trkpt><trkpt lat="41.079720540994664" lon="14.91906113338003"><ele>216.0</ele><time>2026-04-04T12:56:07Z</time></trkpt><trkpt lat="41.07947311871937" lon="14.919001804307774"><ele>216.0</ele><time>2026-04-04T12:56:08Z</time></trkpt><trkpt lat="41.07924175874657" lon="14.918941397570924"><ele>216.0</ele><time>2026-04-04T12:56:09Z</time></trkpt><trkpt lat="41.079005631803554" lon="14.918873948774449"><ele>213.5</ele><time>2026-04-04T12:56:10Z</time></trkpt><trkpt lat="41.07878667100414" lon="14.918772193497386"><ele>211.0</ele><time>2026-04-04T12:56:11Z</time></trkpt><trkpt lat="41.07855231943916" lon="14.918622137543586"><ele>211.0</ele><time>2026-04-04T12:56:12Z</time></trkpt><trkpt lat="41.07833404303722" lon="14.918456660635282"><ele>211.0</ele><time>2026-04-04T12:56:13Z</time></trkpt><trkpt lat="41.07812101864809" lon="14.918286272358198"><ele>214.0</ele><time>2026-04-04T12:56:14Z</time></trkpt><trkpt lat="41.07789048656272" lon="14.918131529059826"><ele>217.0</ele><time>2026-04-04T12:56:15Z</time></trkpt><trkpt lat="41.07767281574122" lon="14.917974263233766"><ele>217.0</ele><time>2026-04-04T12:56:16Z</time></trkpt><trkpt lat="41.07746624019096" lon="14.917796944137685"><ele>217.0</ele><time>2026-04-04T12:56:17Z</time></trkpt><trkpt lat="41.07726256709117" lon="14.917605155625363"><ele>216.5</ele><time>2026-04-04T12:56:18Z</time></trkpt><trkpt lat="41.07705853211744" lon="14.917404467334961"><ele>216.0</ele><time>2026-04-04T12:56:19Z</time></trkpt><trkpt lat="41.07685117919637" lon="14.917212281664167"><ele>216.0</ele><time>2026-04-04T12:56:20Z</time></trkpt><trkpt lat="41.0766357831403" lon="14.91702416560379"><ele>216.0</ele><time>2026-04-04T12:56:21Z</time></trkpt><trkpt lat="41.076430596309784" lon="14.9168492726729"><ele>216.66666666666669</ele><time>2026-04-04T12:56:22Z</time></trkpt><trkpt lat="41.076238995901335" lon="14.916681886338102"><ele>217.33333333333334</ele><time>2026-04-04T12:56:23Z</time></trkpt><trkpt lat="41.07605851945924" lon="14.91653127777514"><ele>218.0</ele><time>2026-04-04T12:56:24Z</time></trkpt><trkpt lat="41.075887540117485" lon="14.916390458382683"><ele>217.0</ele><time>2026-04-04T12:56:25Z</time></trkpt><trkpt lat="41.075738123664195" lon="14.916252040890177"><ele>216.0</ele><time>2026-04-04T12:56:26Z</time></trkpt><trkpt lat="41.075589500571056" lon="14.916121018945327"><ele>215.0</ele><time>2026-04-04T12:56:27Z</time></trkpt><trkpt lat="41.07543942632979" lon="14.915987151849604"><ele>216.33333333333334</ele><time>2026-04-04T12:56:28Z</time></trkpt><trkpt lat="41.07528060679443" lon="14.915860683022933"><ele>217.66666666666669</ele><time>2026-04-04T12:56:29Z</time></trkpt><trkpt lat="41.07511203259938" lon="14.915749355037706"><ele>219.0</ele><time>2026-04-04T12:56:30Z</time></trkpt><trkpt lat="41.07493922977211" lon="14.915645094384496"><ele>218.0</ele><time>2026-04-04T12:56:31Z</time></trkpt><trkpt lat="41.07477668268864" lon="14.915542336911622"><ele>217.0</ele><time>2026-04-04T12:56:32Z</time></trkpt><trkpt lat="41.074627618050684" lon="14.91543180341767"><ele>216.0</ele><time>2026-04-04T12:56:33Z</time></trkpt><trkpt lat="41.074490863861634" lon="14.91533839709594"><ele>216.0</ele><time>2026-04-04T12:56:34Z</time></trkpt><trkpt lat="41.074364566698236" lon="14.915263295810963"><ele>216.0</ele><time>2026-04-04T12:56:35Z</time></trkpt><trkpt lat="41.07424669433653" lon="14.915180711060572"><ele>216.0</ele><time>2026-04-04T12:56:35.999Z</time></trkpt><trkpt lat="41.07413717266581" lon="14.915105765477058"><ele>216.0</ele><time>2026-04-04T12:56:36.999Z</time></trkpt><trkpt lat="41.074039415098255" lon="14.91503632000415"><ele>216.60000000000002</ele><time>2026-04-04T12:56:37.999Z</time></trkpt><trkpt lat="41.073961400097424" lon="14.914982527023874"><ele>217.20000000000002</ele><time>2026-04-04T12:56:38.999Z</time></trkpt><trkpt lat="41.07390594805704" lon="14.914916710248708"><ele>217.79999999999998</ele><time>2026-04-04T12:56:39.999Z</time></trkpt><trkpt lat="41.073849846628384" lon="14.914877247159787"><ele>218.39999999999998</ele><time>2026-04-04T12:56:41.999Z</time></trkpt><trkpt lat="41.07368704606979" lon="14.914956887868223"><ele>219.0</ele><time>2026-04-04T12:56:43.999Z</time></trkpt><trkpt lat="41.07358039904113" lon="14.915010508624711"><ele>219.0</ele><time>2026-04-04T12:56:44.999Z</time></trkpt><trkpt lat="41.07345875864865" lon="14.915070123519568"><ele>219.0</ele><time>2026-04-04T12:56:45.999Z</time></trkpt><trkpt lat="41.073322461026" lon="14.915124087326866"><ele>219.0</ele><time>2026-04-04T12:56:46.999Z</time></trkpt><trkpt lat="41.07317060858176" lon="14.915178702846287"><ele>219.0</ele><time>2026-04-04T12:56:47.999Z</time></trkpt><trkpt lat="41.07300571668488" lon="14.915236824323381"><ele>219.33333333333331</ele><time>2026-04-04T12:56:48.999Z</time></trkpt><trkpt lat="41.07283605417457" lon="14.915301957986491"><ele>219.66666666666666</ele><time>2026-04-04T12:56:49.999Z</time></trkpt><trkpt lat="41.072662835042635" lon="14.915367517171891"><ele>220.0</ele><time>2026-04-04T12:56:50.999Z</time></trkpt><trkpt lat="41.07251246105534" lon="14.915421455644319"><ele>221.5</ele><time>2026-04-04T12:56:51.999Z</time></trkpt><trkpt lat="41.07237715077358" lon="14.915478470989658"><ele>223.0</ele><time>2026-04-04T12:56:52.999Z</time></trkpt><trkpt lat="41.0722608661452" lon="14.915560257824625"><ele>224.5</ele><time>2026-04-04T12:56:53.999Z</time></trkpt><trkpt lat="41.072163101308206" lon="14.915693091728716"><ele>226.0</ele><time>2026-04-04T12:56:54.999Z</time></trkpt><trkpt lat="41.07210936735699" lon="14.915877726334518"><ele>226.5</ele><time>2026-04-04T12:56:55.999Z</time></trkpt><trkpt lat="41.072089074687455" lon="14.916088847241172"><ele>227.0</ele><time>2026-04-04T12:56:56.999Z</time></trkpt><trkpt lat="41.07207119692068" lon="14.916287931973901"><ele>227.5</ele><time>2026-04-04T12:56:57.999Z</time></trkpt><trkpt lat="41.07206178538677" lon="14.916457404150623"><ele>228.0</ele><time>2026-04-04T12:56:58.999Z</time></trkpt><trkpt lat="41.072049240203" lon="14.9166044300629"><ele>229.0</ele><time>2026-04-04T12:56:59.999Z</time></trkpt><trkpt lat="41.07203525844118" lon="14.916759472073196"><ele>230.0</ele><time>2026-04-04T12:57:00.999Z</time></trkpt><trkpt lat="41.07201567027832" lon="14.91690738375764"><ele>231.0</ele><time>2026-04-04T12:57:01.999Z</time></trkpt><trkpt lat="41.07199813500563" lon="14.917054185309588"><ele>232.0</ele><time>2026-04-04T12:57:02.999Z</time></trkpt><trkpt lat="41.07198204131023" lon="14.917208273145182"><ele>232.0</ele><time>2026-04-04T12:57:03.999Z</time></trkpt><trkpt lat="41.071966991928335" lon="14.91734510349799"><ele>232.0</ele><time>2026-04-04T12:57:04.999Z</time></trkpt><trkpt lat="41.07195423612251" lon="14.917490751880392"><ele>232.0</ele><time>2026-04-04T12:57:05.999Z</time></trkpt><trkpt lat="41.07194040521605" lon="14.917636830674644"><ele>232.0</ele><time>2026-04-04T12:57:06.999Z</time></trkpt><trkpt lat="41.07192794482756" lon="14.917785308771386"><ele>232.0</ele><time>2026-04-04T12:57:07.999Z</time></trkpt><trkpt lat="41.071903090630165" lon="14.917935068721691"><ele>232.25</ele><time>2026-04-04T12:57:08.999Z</time></trkpt><trkpt lat="41.07185848130864" lon="14.91807707922468"><ele>232.5</ele><time>2026-04-04T12:57:09.999Z</time></trkpt><trkpt lat="41.07178858856018" lon="14.91819748432867"><ele>232.75</ele><time>2026-04-04T12:57:10.999Z</time></trkpt><trkpt lat="41.071704107957494" lon="14.918289891939196"><ele>233.0</ele><time>2026-04-04T12:57:11.999Z</time></trkpt><trkpt lat="41.071597466999954" lon="14.918350211364093"><ele>234.75</ele><time>2026-04-04T12:57:12.999Z</time></trkpt><trkpt lat="41.071469325790005" lon="14.918377082239799"><ele>236.5</ele><time>2026-04-04T12:57:13.999Z</time></trkpt><trkpt lat="41.07133093827547" lon="14.918386417343319"><ele>238.25</ele><time>2026-04-04T12:57:14.999Z</time></trkpt><trkpt lat="41.07118803539033" lon="14.918387887195687"><ele>240.0</ele><time>2026-04-04T12:57:15.999Z</time></trkpt><trkpt lat="41.071040077555445" lon="14.91839238231259"><ele>240.0</ele><time>2026-04-04T12:57:16.999Z</time></trkpt><trkpt lat="41.07088320322012" lon="14.918391309070563"><ele>240.0</ele><time>2026-04-04T12:57:17.999Z</time></trkpt><trkpt lat="41.07071817710638" lon="14.918393519689138"><ele>240.0</ele><time>2026-04-04T12:57:18.999Z</time></trkpt><trkpt lat="41.07055347679918" lon="14.918399484586987"><ele>242.0</ele><time>2026-04-04T12:57:19.999Z</time></trkpt><trkpt lat="41.07037018457332" lon="14.918407257788232"><ele>244.0</ele><time>2026-04-04T12:57:20.999Z</time></trkpt><trkpt lat="41.07016773961894" lon="14.918394789112266"><ele>246.0</ele><time>2026-04-04T12:57:21.999Z</time></trkpt><trkpt lat="41.06996582883975" lon="14.91834205879783"><ele>247.0</ele><time>2026-04-04T12:57:22.999Z</time></trkpt><trkpt lat="41.069778728586854" lon="14.918259837452581"><ele>248.0</ele><time>2026-04-04T12:57:23.999Z</time></trkpt><trkpt lat="41.06961888521761" lon="14.918125259687827"><ele>249.0</ele><time>2026-04-04T12:57:24.999Z</time></trkpt><trkpt lat="41.069470784539234" lon="14.917954768672288"><ele>249.0</ele><time>2026-04-04T12:57:25.998Z</time></trkpt><trkpt lat="41.069351991647345" lon="14.917745116864376"><ele>249.0</ele><time>2026-04-04T12:57:26.998Z</time></trkpt><trkpt lat="41.06925004435309" lon="14.917509826628487"><ele>249.0</ele><time>2026-04-04T12:57:27.998Z</time></trkpt><trkpt lat="41.069142711467066" lon="14.917272111220639"><ele>250.66666666666669</ele><time>2026-04-04T12:57:28.998Z</time></trkpt><trkpt lat="41.06902741977261" lon="14.917029026182485"><ele>252.33333333333334</ele><time>2026-04-04T12:57:29.998Z</time></trkpt><trkpt lat="41.06890103726958" lon="14.916786795187615"><ele>254.0</ele><time>2026-04-04T12:57:30.998Z</time></trkpt><trkpt lat="41.06876474157777" lon="14.916547242974113"><ele>255.5</ele><time>2026-04-04T12:57:31.998Z</time></trkpt><trkpt lat="41.068610923330276" lon="14.916312525619151"><ele>257.0</ele><time>2026-04-04T12:57:32.998Z</time></trkpt><trkpt lat="41.06844820322318" lon="14.916078723690205"><ele>256.5</ele><time>2026-04-04T12:57:33.998Z</time></trkpt><trkpt lat="41.06827837666654" lon="14.915846945368303"><ele>256.0</ele><time>2026-04-04T12:57:34.998Z</time></trkpt><trkpt lat="41.068103843893006" lon="14.91561896634871"><ele>259.0</ele><time>2026-04-04T12:57:35.998Z</time></trkpt><trkpt lat="41.06791717552498" lon="14.915393453432092"><ele>262.0</ele><time>2026-04-04T12:57:36.998Z</time></trkpt><trkpt lat="41.067720114999645" lon="14.915172626234131"><ele>262.0</ele><time>2026-04-04T12:57:37.998Z</time></trkpt><trkpt lat="41.06753157688891" lon="14.914969973476756"><ele>262.0</ele><time>2026-04-04T12:57:38.998Z</time></trkpt><trkpt lat="41.06734272762045" lon="14.914771166957994"><ele>264.0</ele><time>2026-04-04T12:57:39.998Z</time></trkpt><trkpt lat="41.067144205571466" lon="14.914589485511303"><ele>266.0</ele><time>2026-04-04T12:57:40.998Z</time></trkpt><trkpt lat="41.066946840702755" lon="14.914417673158749"><ele>266.0</ele><time>2026-04-04T12:57:41.998Z</time></trkpt><trkpt lat="41.06675011721238" lon="14.914271538596273"><ele>266.0</ele><time>2026-04-04T12:57:42.998Z</time></trkpt><trkpt lat="41.06654701321177" lon="14.91412329392215"><ele>268.0</ele><time>2026-04-04T12:57:43.998Z</time></trkpt><trkpt lat="41.06633046523228" lon="14.91399270270674"><ele>270.0</ele><time>2026-04-04T12:57:44.998Z</time></trkpt><trkpt lat="41.066127896734415" lon="14.913831557523231"><ele>270.0</ele><time>2026-04-04T12:57:45.998Z</time></trkpt><trkpt lat="41.06593054308057" lon="14.913657706801807"><ele>270.0</ele><time>2026-04-04T12:57:46.998Z</time></trkpt><trkpt lat="41.065743935084065" lon="14.913480460719558"><ele>271.0</ele><time>2026-04-04T12:57:47.998Z</time></trkpt><trkpt lat="41.06556543761592" lon="14.913274015473839"><ele>272.0</ele><time>2026-04-04T12:57:48.998Z</time></trkpt><trkpt lat="41.06536738973939" lon="14.913086462565015"><ele>272.0</ele><time>2026-04-04T12:57:49.998Z</time></trkpt><trkpt lat="41.06518394549979" lon="14.912867929647154"><ele>272.0</ele><time>2026-04-04T12:57:50.998Z</time></trkpt><trkpt lat="41.06500663668073" lon="14.91264159894677"><ele>271.5</ele><time>2026-04-04T12:57:51.998Z</time></trkpt><trkpt lat="41.064834190564696" lon="14.912398112640043"><ele>271.0</ele><time>2026-04-04T12:57:52.998Z</time></trkpt><trkpt lat="41.06463295062927" lon="14.912205602431825"><ele>271.0</ele><time>2026-04-04T12:57:53.998Z</time></trkpt><trkpt lat="41.06444547151059" lon="14.91199296520588"><ele>271.0</ele><time>2026-04-04T12:57:54.998Z</time></trkpt><trkpt lat="41.0642857543301" lon="14.911748194345932"><ele>272.5</ele><time>2026-04-04T12:57:55.998Z</time></trkpt><trkpt lat="41.06412437585034" lon="14.911495854688086"><ele>274.0</ele><time>2026-04-04T12:57:56.998Z</time></trkpt><trkpt lat="41.063952461861334" lon="14.911252424086122"><ele>274.0</ele><time>2026-04-04T12:57:58Z</time></trkpt><trkpt lat="41.06376507735219" lon="14.911027095452189"><ele>274.0</ele><time>2026-04-04T12:57:59Z</time></trkpt><trkpt lat="41.063549400653784" lon="14.910852075136782"><ele>278.5</ele><time>2026-04-04T12:58:00Z</time></trkpt><trkpt lat="41.06334513928168" lon="14.910672402910539"><ele>283.0</ele><time>2026-04-04T12:58:01Z</time></trkpt><trkpt lat="41.06314365702486" lon="14.910503261915697"><ele>283.0</ele><time>2026-04-04T12:58:02Z</time></trkpt><trkpt lat="41.062959465971616" lon="14.910347314916585"><ele>283.0</ele><time>2026-04-04T12:58:03Z</time></trkpt><trkpt lat="41.06280316982932" lon="14.910219082412786"><ele>283.0</ele><time>2026-04-04T12:58:04Z</time></trkpt><trkpt lat="41.06266532315734" lon="14.910118883135436"><ele>286.3333333333333</ele><time>2026-04-04T12:58:05Z</time></trkpt><trkpt lat="41.06252635784941" lon="14.910022249432103"><ele>289.6666666666667</ele><time>2026-04-04T12:58:06Z</time></trkpt><trkpt lat="41.06238065810392" lon="14.9099421511351"><ele>293.0</ele><time>2026-04-04T12:58:07Z</time></trkpt><trkpt lat="41.06222581050255" lon="14.909884171627263"><ele>294.33333333333337</ele><time>2026-04-04T12:58:08Z</time></trkpt><trkpt lat="41.06204932274849" lon="14.909863086135195"><ele>295.6666666666667</ele><time>2026-04-04T12:58:09Z</time></trkpt><trkpt lat="41.0618454975534" lon="14.909872826997251"><ele>297.0</ele><time>2026-04-04T12:58:10Z</time></trkpt><trkpt lat="41.06163023859856" lon="14.90988944481306"><ele>297.6666666666667</ele><time>2026-04-04T12:58:11Z</time></trkpt><trkpt lat="41.06141723723777" lon="14.909891904471822"><ele>298.33333333333337</ele><time>2026-04-04T12:58:12Z</time></trkpt><trkpt lat="41.061195547775284" lon="14.909870598230322"><ele>299.0</ele><time>2026-04-04T12:58:13Z</time></trkpt><trkpt lat="41.06097259546581" lon="14.909835497361271"><ele>299.6666666666667</ele><time>2026-04-04T12:58:14Z</time></trkpt><trkpt lat="41.060752111408554" lon="14.90978499907256"><ele>300.3333333333333</ele><time>2026-04-04T12:58:15Z</time></trkpt><trkpt lat="41.06054698087969" lon="14.909730848806916"><ele>301.0</ele><time>2026-04-04T12:58:16Z</time></trkpt><trkpt lat="41.060354627514485" lon="14.909676734096074"><ele>301.0</ele><time>2026-04-04T12:58:17Z</time></trkpt><trkpt lat="41.06016554822219" lon="14.909624748342727"><ele>301.0</ele><time>2026-04-04T12:58:18Z</time></trkpt><trkpt lat="41.05997221358056" lon="14.909577590429025"><ele>301.0</ele><time>2026-04-04T12:58:19Z</time></trkpt><trkpt lat="41.05978508822873" lon="14.909523520574966"><ele>302.3333333333333</ele><time>2026-04-04T12:58:20Z</time></trkpt><trkpt lat="41.05959030146992" lon="14.909491401822544"><ele>303.6666666666667</ele><time>2026-04-04T12:58:21Z</time></trkpt><trkpt lat="41.05939504770225" lon="14.909491803596598"><ele>305.0</ele><time>2026-04-04T12:58:22Z</time></trkpt><trkpt lat="41.05919979922504" lon="14.909550596502067"><ele>306.0</ele><time>2026-04-04T12:58:23Z</time></trkpt><trkpt lat="41.05899579998821" lon="14.909615936045359"><ele>307.0</ele><time>2026-04-04T12:58:24Z</time></trkpt><trkpt lat="41.05878881526451" lon="14.909670486872104"><ele>308.0</ele><time>2026-04-04T12:58:25Z</time></trkpt><trkpt lat="41.05857758057655" lon="14.909689860306337"><ele>308.0</ele><time>2026-04-04T12:58:26Z</time></trkpt><trkpt lat="41.05836410819003" lon="14.909670491875227"><ele>308.0</ele><time>2026-04-04T12:58:27Z</time></trkpt><trkpt lat="41.058150991231656" lon="14.909629959280243"><ele>308.0</ele><time>2026-04-04T12:58:28Z</time></trkpt><trkpt lat="41.0579371789499" lon="14.909584182311294"><ele>310.6666666666667</ele><time>2026-04-04T12:58:29Z</time></trkpt><trkpt lat="41.05772396990981" lon="14.909529497537568"><ele>313.3333333333333</ele><time>2026-04-04T12:58:30Z</time></trkpt><trkpt lat="41.0575089073881" lon="14.909458625427197"><ele>316.0</ele><time>2026-04-04T12:58:31Z</time></trkpt><trkpt lat="41.05728544603575" lon="14.909377357965587"><ele>319.5</ele><time>2026-04-04T12:58:32Z</time></trkpt><trkpt lat="41.057057995955" lon="14.909298512143597"><ele>323.0</ele><time>2026-04-04T12:58:33Z</time></trkpt><trkpt lat="41.0568435475055" lon="14.90924706237307"><ele>324.0</ele><time>2026-04-04T12:58:34Z</time></trkpt><trkpt lat="41.05663652259011" lon="14.909208501558066"><ele>325.0</ele><time>2026-04-04T12:58:35Z</time></trkpt><trkpt lat="41.05643208108762" lon="14.909163127394757"><ele>326.0</ele><time>2026-04-04T12:58:36Z</time></trkpt><trkpt lat="41.05622645336605" lon="14.90912582639634"><ele>327.33333333333337</ele><time>2026-04-04T12:58:37Z</time></trkpt><trkpt lat="41.05601931226744" lon="14.909081190529811"><ele>328.6666666666667</ele><time>2026-04-04T12:58:38Z</time></trkpt><trkpt lat="41.055809742924446" lon="14.909035011878204"><ele>330.0</ele><time>2026-04-04T12:58:39Z</time></trkpt><trkpt lat="41.055597273241915" lon="14.90898999217608"><ele>331.0</ele><time>2026-04-04T12:58:40Z</time></trkpt><trkpt lat="41.05538552941784" lon="14.908957775490679"><ele>332.0</ele><time>2026-04-04T12:58:40.999Z</time></trkpt><trkpt lat="41.0551763261851" lon="14.908913537621086"><ele>333.0</ele><time>2026-04-04T12:58:41.999Z</time></trkpt><trkpt lat="41.05497112716801" lon="14.90886017640961"><ele>335.3333333333333</ele><time>2026-04-04T12:58:42.999Z</time></trkpt><trkpt lat="41.05477161998195" lon="14.908787899744132"><ele>337.66666666666663</ele><time>2026-04-04T12:58:43.999Z</time></trkpt><trkpt lat="41.05457801887154" lon="14.90871035403858"><ele>340.0</ele><time>2026-04-04T12:58:44.999Z</time></trkpt><trkpt lat="41.054375090979725" lon="14.908635081952008"><ele>340.0</ele><time>2026-04-04T12:58:45.999Z</time></trkpt><trkpt lat="41.05417044178919" lon="14.908564076888489"><ele>340.0</ele><time>2026-04-04T12:58:46.999Z</time></trkpt><trkpt lat="41.053988311802655" lon="14.90851491183375"><ele>340.0</ele><time>2026-04-04T12:58:47.999Z</time></trkpt><trkpt lat="41.05381566553388" lon="14.908460296938127"><ele>340.3333333333333</ele><time>2026-04-04T12:58:48.999Z</time></trkpt><trkpt lat="41.053655451340916" lon="14.908418856432048"><ele>340.6666666666667</ele><time>2026-04-04T12:58:49.999Z</time></trkpt><trkpt lat="41.05350102686774" lon="14.908383830030104"><ele>341.0</ele><time>2026-04-04T12:58:50.999Z</time></trkpt><trkpt lat="41.053346260168404" lon="14.908359753873986"><ele>341.6666666666667</ele><time>2026-04-04T12:58:51.999Z</time></trkpt><trkpt lat="41.053072506187945" lon="14.908320062303932"><ele>342.3333333333333</ele><time>2026-04-04T12:58:53.999Z</time></trkpt><trkpt lat="41.05295088470638" lon="14.90830388921677"><ele>343.0</ele><time>2026-04-04T12:58:54.999Z</time></trkpt><trkpt lat="41.05282222172879" lon="14.90828700552699"><ele>343.0</ele><time>2026-04-04T12:58:55.999Z</time></trkpt><trkpt lat="41.05269312974508" lon="14.90826681404617"><ele>343.0</ele><time>2026-04-04T12:58:56.999Z</time></trkpt><trkpt lat="41.0525770070981" lon="14.908246384732253"><ele>343.0</ele><time>2026-04-04T12:58:57.999Z</time></trkpt><trkpt lat="41.05247915071089" lon="14.908219982628308"><ele>343.0</ele><time>2026-04-04T12:58:58.999Z</time></trkpt><trkpt lat="41.05240266139547" lon="14.90818946860687"><ele>343.0</ele><time>2026-04-04T12:58:59.999Z</time></trkpt><trkpt lat="41.052344765091114" lon="14.908149836602563"><ele>343.0</ele><time>2026-04-04T12:59:00.999Z</time></trkpt><trkpt lat="41.05226213452863" lon="14.908117855319162"><ele>343.0</ele><time>2026-04-04T12:59:02.999Z</time></trkpt><trkpt lat="41.05227900967256" lon="14.908246593558628"><ele>343.0</ele><time>2026-04-04T12:59:05.999Z</time></trkpt><trkpt lat="41.05238568142926" lon="14.908292470794555"><ele>343.0</ele><time>2026-04-04T12:59:06.999Z</time></trkpt><trkpt lat="41.052503370381324" lon="14.90829490661691"><ele>343.0</ele><time>2026-04-04T12:59:07.999Z</time></trkpt><trkpt lat="41.05265317409563" lon="14.908326275130614"><ele>343.0</ele><time>2026-04-04T12:59:08.999Z</time></trkpt><trkpt lat="41.05281622372798" lon="14.908369685413357"><ele>343.0</ele><time>2026-04-04T12:59:09.999Z</time></trkpt><trkpt lat="41.052981623820806" lon="14.90840914510535"><ele>343.0</ele><time>2026-04-04T12:59:10.999Z</time></trkpt><trkpt lat="41.05316208202346" lon="14.908452654435626"><ele>344.0</ele><time>2026-04-04T12:59:11.999Z</time></trkpt><trkpt lat="41.05333349690037" lon="14.908509330243634"><ele>345.0</ele><time>2026-04-04T12:59:12.999Z</time></trkpt><trkpt lat="41.05349058210331" lon="14.90857011383027"><ele>346.0</ele><time>2026-04-04T12:59:13.999Z</time></trkpt><trkpt lat="41.05363115991232" lon="14.908627681563269"><ele>346.0</ele><time>2026-04-04T12:59:14.999Z</time></trkpt><trkpt lat="41.053762417475156" lon="14.908677268125672"><ele>346.0</ele><time>2026-04-04T12:59:15.999Z</time></trkpt><trkpt lat="41.05389732590244" lon="14.908712970379012"><ele>346.0</ele><time>2026-04-04T12:59:16.999Z</time></trkpt><trkpt lat="41.05404403262614" lon="14.908756838440818"><ele>346.0</ele><time>2026-04-04T12:59:17.999Z</time></trkpt><trkpt lat="41.054193912560834" lon="14.908796636264183"><ele>344.5</ele><time>2026-04-04T12:59:18.999Z</time></trkpt><trkpt lat="41.05433073822981" lon="14.908832469945812"><ele>343.0</ele><time>2026-04-04T12:59:19.999Z</time></trkpt><trkpt lat="41.0544534720758" lon="14.908863462336171"><ele>341.5</ele><time>2026-04-04T12:59:20.999Z</time></trkpt><trkpt lat="41.05456596591993" lon="14.908899682356598"><ele>340.0</ele><time>2026-04-04T12:59:21.999Z</time></trkpt><trkpt lat="41.05467327673158" lon="14.908935603624755"><ele>340.0</ele><time>2026-04-04T12:59:22.999Z</time></trkpt><trkpt lat="41.05477443344872" lon="14.908966353965145"><ele>340.0</ele><time>2026-04-04T12:59:23.999Z</time></trkpt><trkpt lat="41.05486906665917" lon="14.90899883044922"><ele>340.0</ele><time>2026-04-04T12:59:24.999Z</time></trkpt><trkpt lat="41.05495559169339" lon="14.909021255789986"><ele>340.0</ele><time>2026-04-04T12:59:25.999Z</time></trkpt><trkpt lat="41.05504081173295" lon="14.909038018686877"><ele>340.0</ele><time>2026-04-04T12:59:26.999Z</time></trkpt><trkpt lat="41.055116808009416" lon="14.909061436431658"><ele>338.6</ele><time>2026-04-04T12:59:27.999Z</time></trkpt><trkpt lat="41.05518444228171" lon="14.908989919316253"><ele>337.2</ele><time>2026-04-04T12:59:28.999Z</time></trkpt><trkpt lat="41.05512071686859" lon="14.90920596204548"><ele>335.79999999999995</ele><time>2026-04-04T12:59:29.998Z</time></trkpt><trkpt lat="41.05512754245021" lon="14.909323773002285"><ele>334.4</ele><time>2026-04-04T12:59:30.998Z</time></trkpt><trkpt lat="41.0551275424492" lon="14.909446325197466"><ele>333.0</ele><time>2026-04-04T12:59:31.998Z</time></trkpt><trkpt lat="41.05517291015105" lon="14.909542072670039"><ele>333.0</ele><time>2026-04-04T12:59:32.998Z</time></trkpt><trkpt lat="41.05514861681379" lon="14.909676139145402"><ele>333.0</ele><time>2026-04-04T12:59:36.998Z</time></trkpt></trkseg><trkseg><trkpt lat="41.0552146850906" lon="14.90962013297194"><ele>333.0</ele><time>2026-04-04T13:11:39.999Z</time></trkpt><trkpt lat="41.05532265876255" lon="14.909553999363542"><ele>333.0</ele><time>2026-04-04T13:11:41.999Z</time></trkpt><trkpt lat="41.05540564307315" lon="14.90945236017647"><ele>333.0</ele><time>2026-04-04T13:11:43.999Z</time></trkpt><trkpt lat="41.05545467643134" lon="14.90935025343433"><ele>333.0</ele><time>2026-04-04T13:11:45.999Z</time></trkpt><trkpt lat="41.05547221864827" lon="14.909243719516061"><ele>333.0</ele><time>2026-04-04T13:11:47.999Z</time></trkpt><trkpt lat="41.055503342868434" lon="14.909169766296072"><ele>333.0</ele><time>2026-04-04T13:11:50.999Z</time></trkpt><trkpt lat="41.05556568040037" lon="14.909140337811882"><ele>333.0</ele><time>2026-04-04T13:11:52.999Z</time></trkpt><trkpt lat="41.05563494984342" lon="14.909140430127959"><ele>333.0</ele><time>2026-04-04T13:11:53.999Z</time></trkpt><trkpt lat="41.05572368124216" lon="14.909156837063767"><ele>333.0</ele><time>2026-04-04T13:11:54.999Z</time></trkpt><trkpt lat="41.055816913329494" lon="14.90917562216769"><ele>333.0</ele><time>2026-04-04T13:11:55.999Z</time></trkpt><trkpt lat="41.055927446327715" lon="14.909198443591038"><ele>333.0</ele><time>2026-04-04T13:11:56.999Z</time></trkpt><trkpt lat="41.05604482274685" lon="14.909217077677145"><ele>332.25</ele><time>2026-04-04T13:11:57.999Z</time></trkpt><trkpt lat="41.056166132704654" lon="14.90923500446569"><ele>331.5</ele><time>2026-04-04T13:11:58.999Z</time></trkpt><trkpt lat="41.05628147663985" lon="14.909254842608306"><ele>330.75</ele><time>2026-04-04T13:11:59.999Z</time></trkpt><trkpt lat="41.056390983599506" lon="14.909279304623213"><ele>330.0</ele><time>2026-04-04T13:12:00.999Z</time></trkpt><trkpt lat="41.056497864734744" lon="14.909302868348954"><ele>329.5</ele><time>2026-04-04T13:12:01.999Z</time></trkpt><trkpt lat="41.05659845227376" lon="14.90932247500129"><ele>329.0</ele><time>2026-04-04T13:12:02.999Z</time></trkpt><trkpt lat="41.05669249276756" lon="14.909339513045087"><ele>328.5</ele><time>2026-04-04T13:12:03.999Z</time></trkpt><trkpt lat="41.056769185282015" lon="14.909355741104864"><ele>328.0</ele><time>2026-04-04T13:12:04.999Z</time></trkpt><trkpt lat="41.05685296585548" lon="14.909377168001708"><ele>327.5</ele><time>2026-04-04T13:12:06.999Z</time></trkpt><trkpt lat="41.05679228712877" lon="14.909325973827006"><ele>327.0</ele><time>2026-04-04T13:12:10.998Z</time></trkpt><trkpt lat="41.05671483500793" lon="14.909201815346213"><ele>327.75</ele><time>2026-04-04T13:12:11.998Z</time></trkpt><trkpt lat="41.05661247584918" lon="14.909186196592577"><ele>328.5</ele><time>2026-04-04T13:12:12.998Z</time></trkpt><trkpt lat="41.05649143684281" lon="14.909160147181215"><ele>329.25</ele><time>2026-04-04T13:12:13.998Z</time></trkpt><trkpt lat="41.056367975992565" lon="14.909137681162171"><ele>330.0</ele><time>2026-04-04T13:12:14.998Z</time></trkpt><trkpt lat="41.05623983354183" lon="14.90910044413857"><ele>330.0</ele><time>2026-04-04T13:12:15.998Z</time></trkpt><trkpt lat="41.05611359902242" lon="14.909072115750696"><ele>330.0</ele><time>2026-04-04T13:12:16.998Z</time></trkpt><trkpt lat="41.0560056786254" lon="14.909049749988961"><ele>330.0</ele><time>2026-04-04T13:12:17.998Z</time></trkpt><trkpt lat="41.055903141063666" lon="14.909026840678106"><ele>330.0</ele><time>2026-04-04T13:12:18.998Z</time></trkpt><trkpt lat="41.05579422559862" lon="14.909005461792368"><ele>330.6</ele><time>2026-04-04T13:12:19.998Z</time></trkpt><trkpt lat="41.05569009005226" lon="14.908981037084782"><ele>331.2</ele><time>2026-04-04T13:12:20.998Z</time></trkpt><trkpt lat="41.05559130694259" lon="14.908965747946786"><ele>331.79999999999995</ele><time>2026-04-04T13:12:21.998Z</time></trkpt><trkpt lat="41.055496028536275" lon="14.908951395761047"><ele>332.4</ele><time>2026-04-04T13:12:22.998Z</time></trkpt><trkpt lat="41.05537637660507" lon="14.908932250017967"><ele>333.0</ele><time>2026-04-04T13:12:23.998Z</time></trkpt><trkpt lat="41.055236954863695" lon="14.908899423530382"><ele>333.0</ele><time>2026-04-04T13:12:24.998Z</time></trkpt><trkpt lat="41.055052434427694" lon="14.908855110561195"><ele>333.0</ele><time>2026-04-04T13:12:25.998Z</time></trkpt><trkpt lat="41.05486212055313" lon="14.90880272163249"><ele>333.0</ele><time>2026-04-04T13:12:26.998Z</time></trkpt><trkpt lat="41.054648045682086" lon="14.908726015778642"><ele>335.3333333333333</ele><time>2026-04-04T13:12:27.998Z</time></trkpt><trkpt lat="41.054438079204104" lon="14.90865129422984"><ele>337.66666666666663</ele><time>2026-04-04T13:12:28.998Z</time></trkpt><trkpt lat="41.0542231789547" lon="14.908569729153898"><ele>340.0</ele><time>2026-04-04T13:12:29.998Z</time></trkpt><trkpt lat="41.05402165190219" lon="14.908503834322392"><ele>340.3333333333333</ele><time>2026-04-04T13:12:30.998Z</time></trkpt><trkpt lat="41.05383584954031" lon="14.908450016555559"><ele>340.6666666666667</ele><time>2026-04-04T13:12:31.998Z</time></trkpt><trkpt lat="41.05364351084022" lon="14.908407069714066"><ele>341.0</ele><time>2026-04-04T13:12:32.998Z</time></trkpt><trkpt lat="41.05343573661667" lon="14.90836613618431"><ele>342.0</ele><time>2026-04-04T13:12:33.998Z</time></trkpt><trkpt lat="41.05321409363901" lon="14.908329919040076"><ele>343.0</ele><time>2026-04-04T13:12:34.998Z</time></trkpt><trkpt lat="41.05296231384137" lon="14.908299242096852"><ele>343.0</ele><time>2026-04-04T13:12:35.998Z</time></trkpt><trkpt lat="41.05269653468369" lon="14.908265125424963"><ele>343.0</ele><time>2026-04-04T13:12:36.998Z</time></trkpt><trkpt lat="41.05243556135492" lon="14.908222520412147"><ele>345.5</ele><time>2026-04-04T13:12:37.998Z</time></trkpt><trkpt lat="41.05218001615772" lon="14.908170711094854"><ele>348.0</ele><time>2026-04-04T13:12:38.998Z</time></trkpt><trkpt lat="41.05195126921532" lon="14.908123235964013"><ele>348.0</ele><time>2026-04-04T13:12:39.998Z</time></trkpt><trkpt lat="41.051746772297726" lon="14.908079596061306"><ele>348.0</ele><time>2026-04-04T13:12:40.998Z</time></trkpt><trkpt lat="41.051572989323326" lon="14.908043590578044"><ele>348.0</ele><time>2026-04-04T13:12:41.998Z</time></trkpt><trkpt lat="41.05142983218342" lon="14.908004831706004"><ele>349.0</ele><time>2026-04-04T13:12:42.998Z</time></trkpt><trkpt lat="41.05131950155035" lon="14.907961548846918"><ele>350.0</ele><time>2026-04-04T13:12:43.998Z</time></trkpt><trkpt lat="41.051229437528804" lon="14.907896183596433"><ele>351.0</ele><time>2026-04-04T13:12:44.998Z</time></trkpt><trkpt lat="41.05115164041692" lon="14.907812386484457"><ele>352.0</ele><time>2026-04-04T13:12:45.998Z</time></trkpt><trkpt lat="41.05103880327119" lon="14.907725870266468"><ele>353.0</ele><time>2026-04-04T13:12:46.998Z</time></trkpt><trkpt lat="41.05090597460778" lon="14.907648117812276"><ele>353.6666666666667</ele><time>2026-04-04T13:12:47.998Z</time></trkpt><trkpt lat="41.05074887406061" lon="14.907571966967138"><ele>354.3333333333333</ele><time>2026-04-04T13:12:49Z</time></trkpt><trkpt lat="41.050611520883535" lon="14.907458267984904"><ele>355.0</ele><time>2026-04-04T13:12:50Z</time></trkpt><trkpt lat="41.050454998332604" lon="14.90732981466127"><ele>355.0</ele><time>2026-04-04T13:12:51Z</time></trkpt><trkpt lat="41.05031201426422" lon="14.907238658421846"><ele>355.0</ele><time>2026-04-04T13:12:52Z</time></trkpt><trkpt lat="41.05018254136022" lon="14.907135420097624"><ele>355.0</ele><time>2026-04-04T13:12:53Z</time></trkpt><trkpt lat="41.050045576544974" lon="14.907059832171615"><ele>355.0</ele><time>2026-04-04T13:12:54Z</time></trkpt><trkpt lat="41.04992294075054" lon="14.906909984479077"><ele>355.0</ele><time>2026-04-04T13:12:55Z</time></trkpt><trkpt lat="41.049795430992475" lon="14.906750797586225"><ele>355.0</ele><time>2026-04-04T13:12:56Z</time></trkpt><trkpt lat="41.04965486081016" lon="14.906587188043606"><ele>353.66666666666663</ele><time>2026-04-04T13:12:57Z</time></trkpt><trkpt lat="41.04953933589841" lon="14.906422435974667"><ele>352.3333333333333</ele><time>2026-04-04T13:12:58Z</time></trkpt><trkpt lat="41.049424389776846" lon="14.906275854303665"><ele>351.0</ele><time>2026-04-04T13:12:59Z</time></trkpt><trkpt lat="41.04925461745537" lon="14.906221394401419"><ele>350.0</ele><time>2026-04-04T13:13:00Z</time></trkpt><trkpt lat="41.04908684650798" lon="14.906173531894384"><ele>349.0</ele><time>2026-04-04T13:13:01Z</time></trkpt><trkpt lat="41.04891801167236" lon="14.90615764251072"><ele>348.0</ele><time>2026-04-04T13:13:02Z</time></trkpt><trkpt lat="41.04876210196712" lon="14.90614048822987"><ele>348.0</ele><time>2026-04-04T13:13:03Z</time></trkpt><trkpt lat="41.048625535345096" lon="14.906122318299706"><ele>348.0</ele><time>2026-04-04T13:13:04Z</time></trkpt><trkpt lat="41.0484981093469" lon="14.906099403922699"><ele>348.0</ele><time>2026-04-04T13:13:05Z</time></trkpt><trkpt lat="41.04839681386391" lon="14.906086968960018"><ele>348.0</ele><time>2026-04-04T13:13:06Z</time></trkpt><trkpt lat="41.04831923086993" lon="14.906083864882818"><ele>348.0</ele><time>2026-04-04T13:13:07Z</time></trkpt><trkpt lat="41.04825537625475" lon="14.906059513135421"><ele>344.6666666666667</ele><time>2026-04-04T13:13:08Z</time></trkpt><trkpt lat="41.048189033983356" lon="14.906047687664959"><ele>341.33333333333337</ele><time>2026-04-04T13:13:09Z</time></trkpt><trkpt lat="41.04811593125838" lon="14.906359534121327"><ele>338.0</ele><time>2026-04-04T13:13:10Z</time></trkpt><trkpt lat="41.0480454666775" lon="14.906574640448886"><ele>338.6666666666667</ele><time>2026-04-04T13:13:10.999Z</time></trkpt><trkpt lat="41.0479520656298" lon="14.906785688224552"><ele>339.3333333333333</ele><time>2026-04-04T13:13:11.999Z</time></trkpt><trkpt lat="41.04785493516269" lon="14.906962614927757"><ele>340.0</ele><time>2026-04-04T13:13:12.999Z</time></trkpt><trkpt lat="41.04776106946832" lon="14.907115787739704"><ele>340.0</ele><time>2026-04-04T13:13:13.999Z</time></trkpt><trkpt lat="41.04764835700887" lon="14.907266641521396"><ele>340.0</ele><time>2026-04-04T13:13:14.999Z</time></trkpt><trkpt lat="41.047509086399124" lon="14.907415613646675"><ele>340.0</ele><time>2026-04-04T13:13:15.999Z</time></trkpt><trkpt lat="41.047351912650576" lon="14.907548890322335"><ele>339.66666666666663</ele><time>2026-04-04T13:13:16.999Z</time></trkpt><trkpt lat="41.047167827872734" lon="14.907652578236021"><ele>339.3333333333333</ele><time>2026-04-04T13:13:17.999Z</time></trkpt><trkpt lat="41.046988182087766" lon="14.907727061096622"><ele>339.0</ele><time>2026-04-04T13:13:18.999Z</time></trkpt><trkpt lat="41.046794197620265" lon="14.907795529998612"><ele>338.6666666666667</ele><time>2026-04-04T13:13:19.999Z</time></trkpt><trkpt lat="41.046591864997694" lon="14.907869586458052"><ele>338.33333333333337</ele><time>2026-04-04T13:13:20.999Z</time></trkpt><trkpt lat="41.04641638921674" lon="14.907935272884064"><ele>338.0</ele><time>2026-04-04T13:13:21.999Z</time></trkpt><trkpt lat="41.04625842053119" lon="14.907992170654666"><ele>338.0</ele><time>2026-04-04T13:13:22.999Z</time></trkpt><trkpt lat="41.04611300036471" lon="14.908039723175012"><ele>338.0</ele><time>2026-04-04T13:13:23.999Z</time></trkpt><trkpt lat="41.045979029980046" lon="14.908087442190782"><ele>338.0</ele><time>2026-04-04T13:13:24.999Z</time></trkpt><trkpt lat="41.045859620117746" lon="14.908132929590943"><ele>338.0</ele><time>2026-04-04T13:13:25.999Z</time></trkpt><trkpt lat="41.04575352452933" lon="14.908170944119737"><ele>337.2</ele><time>2026-04-04T13:13:26.999Z</time></trkpt><trkpt lat="41.04565222887879" lon="14.908189858515778"><ele>336.4</ele><time>2026-04-04T13:13:27.999Z</time></trkpt><trkpt lat="41.04556178822111" lon="14.90818533308945"><ele>335.59999999999997</ele><time>2026-04-04T13:13:28.999Z</time></trkpt><trkpt lat="41.04547444533582" lon="14.908178996414177"><ele>334.79999999999995</ele><time>2026-04-04T13:13:29.999Z</time></trkpt><trkpt lat="41.04538708233751" lon="14.908199610889842"><ele>334.0</ele><time>2026-04-04T13:13:30.999Z</time></trkpt><trkpt lat="41.045278749849146" lon="14.908283969148226"><ele>334.0</ele><time>2026-04-04T13:13:31.999Z</time></trkpt><trkpt lat="41.0451465469263" lon="14.908408709929276"><ele>334.0</ele><time>2026-04-04T13:13:32.999Z</time></trkpt><trkpt lat="41.04501647796799" lon="14.908487104112211"><ele>334.0</ele><time>2026-04-04T13:13:33.999Z</time></trkpt><trkpt lat="41.044888359438765" lon="14.908522863083352"><ele>334.0</ele><time>2026-04-04T13:13:34.999Z</time></trkpt><trkpt lat="41.044780291630694" lon="14.908559630355287"><ele>333.8333333333333</ele><time>2026-04-04T13:13:35.999Z</time></trkpt><trkpt lat="41.04468650557089" lon="14.908607783277525"><ele>333.66666666666663</ele><time>2026-04-04T13:13:36.999Z</time></trkpt><trkpt lat="41.04460398656097" lon="14.90864524451528"><ele>333.5</ele><time>2026-04-04T13:13:37.999Z</time></trkpt><trkpt lat="41.044523305039654" lon="14.908677729971378"><ele>333.3333333333333</ele><time>2026-04-04T13:13:38.999Z</time></trkpt><trkpt lat="41.04444832718549" lon="14.908697146831555"><ele>333.1666666666667</ele><time>2026-04-04T13:13:39.999Z</time></trkpt><trkpt lat="41.04438448772858" lon="14.90870271033325"><ele>333.0</ele><time>2026-04-04T13:13:40.999Z</time></trkpt><trkpt lat="41.04431753334745" lon="14.908728952028634"><ele>333.0</ele><time>2026-04-04T13:13:42.999Z</time></trkpt><trkpt lat="41.04439198072629" lon="14.908766542936464"><ele>333.0</ele><time>2026-04-04T13:13:43.999Z</time></trkpt><trkpt lat="41.044515237375236" lon="14.908782512471833"><ele>333.0</ele><time>2026-04-04T13:13:47.999Z</time></trkpt><trkpt lat="41.04460044977929" lon="14.90874846621379"><ele>333.0</ele><time>2026-04-04T13:13:48.999Z</time></trkpt><trkpt lat="41.04468914248322" lon="14.908683973190564"><ele>333.0</ele><time>2026-04-04T13:13:49.999Z</time></trkpt><trkpt lat="41.04479189965363" lon="14.908628895422446"><ele>333.0</ele><time>2026-04-04T13:13:50.999Z</time></trkpt><trkpt lat="41.04491262168445" lon="14.908565556881836"><ele>333.0</ele><time>2026-04-04T13:13:51.999Z</time></trkpt><trkpt lat="41.04502208373104" lon="14.908515604241495"><ele>333.0</ele><time>2026-04-04T13:13:52.999Z</time></trkpt><trkpt lat="41.0451289276217" lon="14.908473467812916"><ele>333.0</ele><time>2026-04-04T13:13:53.999Z</time></trkpt><trkpt lat="41.045218471055165" lon="14.908453926665873"><ele>333.0</ele><time>2026-04-04T13:13:54.999Z</time></trkpt><trkpt lat="41.045307039522626" lon="14.908464488774527"><ele>333.2</ele><time>2026-04-04T13:13:56.999Z</time></trkpt><trkpt lat="41.04550307043231" lon="14.90842146757714"><ele>333.4</ele><time>2026-04-04T13:13:59.999Z</time></trkpt><trkpt lat="41.04553721183356" lon="14.908337278305945"><ele>333.59999999999997</ele><time>2026-04-04T13:14:00.999Z</time></trkpt><trkpt lat="41.04552617873058" lon="14.908242077069668"><ele>333.79999999999995</ele><time>2026-04-04T13:14:01.998Z</time></trkpt><trkpt lat="41.045470681087686" lon="14.908143220860422"><ele>334.0</ele><time>2026-04-04T13:14:02.998Z</time></trkpt><trkpt lat="41.04539795911908" lon="14.908057589171582"><ele>334.0</ele><time>2026-04-04T13:14:03.998Z</time></trkpt><trkpt lat="41.045338978686125" lon="14.907960596928053"><ele>334.0</ele><time>2026-04-04T13:14:04.998Z</time></trkpt><trkpt lat="41.04530991010075" lon="14.907825340746786"><ele>334.0</ele><time>2026-04-04T13:14:05.998Z</time></trkpt><trkpt lat="41.045268780171355" lon="14.907672174718124"><ele>334.0</ele><time>2026-04-04T13:14:06.998Z</time></trkpt><trkpt lat="41.04521803120432" lon="14.90750359123776"><ele>332.66666666666663</ele><time>2026-04-04T13:14:07.998Z</time></trkpt><trkpt lat="41.045168951229414" lon="14.907311136435801"><ele>331.3333333333333</ele><time>2026-04-04T13:14:08.998Z</time></trkpt><trkpt lat="41.04511071300157" lon="14.907105788589764"><ele>330.0</ele><time>2026-04-04T13:14:09.998Z</time></trkpt><trkpt lat="41.045051413828006" lon="14.906881314811226"><ele>329.3333333333333</ele><time>2026-04-04T13:14:10.998Z</time></trkpt><trkpt lat="41.044999355742156" lon="14.906640371470992"><ele>328.66666666666663</ele><time>2026-04-04T13:14:11.998Z</time></trkpt><trkpt lat="41.04492635633307" lon="14.906392293264698"><ele>328.0</ele><time>2026-04-04T13:14:12.998Z</time></trkpt><trkpt lat="41.04484949088689" lon="14.906136167189384"><ele>327.0</ele><time>2026-04-04T13:14:13.998Z</time></trkpt><trkpt lat="41.04478492229787" lon="14.905866940847387"><ele>326.0</ele><time>2026-04-04T13:14:14.998Z</time></trkpt><trkpt lat="41.04471180668628" lon="14.90559672494503"><ele>325.0</ele><time>2026-04-04T13:14:15.998Z</time></trkpt><trkpt lat="41.044641000544225" lon="14.905319659575484"><ele>324.3333333333333</ele><time>2026-04-04T13:14:16.998Z</time></trkpt><trkpt lat="41.04457130175159" lon="14.905039570744211"><ele>323.6666666666667</ele><time>2026-04-04T13:14:17.998Z</time></trkpt><trkpt lat="41.04449414773594" lon="14.904767296259024"><ele>323.0</ele><time>2026-04-04T13:14:18.998Z</time></trkpt><trkpt lat="41.04442204844856" lon="14.90449662229657"><ele>322.0</ele><time>2026-04-04T13:14:19.998Z</time></trkpt><trkpt lat="41.044347120266615" lon="14.904231623108538"><ele>321.0</ele><time>2026-04-04T13:14:20.998Z</time></trkpt><trkpt lat="41.04427386820231" lon="14.90396538412774"><ele>320.0</ele><time>2026-04-04T13:14:21.998Z</time></trkpt><trkpt lat="41.04420117583157" lon="14.9037091437538"><ele>320.0</ele><time>2026-04-04T13:14:22.998Z</time></trkpt><trkpt lat="41.044125196881225" lon="14.903457009671454"><ele>320.0</ele><time>2026-04-04T13:14:23.998Z</time></trkpt><trkpt lat="41.0440458055433" lon="14.903208549185937"><ele>320.0</ele><time>2026-04-04T13:14:24.998Z</time></trkpt><trkpt lat="41.043965431548614" lon="14.902961017910597"><ele>320.0</ele><time>2026-04-04T13:14:25.998Z</time></trkpt><trkpt lat="41.04388692782164" lon="14.902709480136542"><ele>320.0</ele><time>2026-04-04T13:14:26.998Z</time></trkpt><trkpt lat="41.04381163678988" lon="14.902455968776335"><ele>320.0</ele><time>2026-04-04T13:14:27.998Z</time></trkpt><trkpt lat="41.04373479153552" lon="14.90220074406182"><ele>320.33333333333337</ele><time>2026-04-04T13:14:28.998Z</time></trkpt><trkpt lat="41.04365626236469" lon="14.901942623675673"><ele>320.6666666666667</ele><time>2026-04-04T13:14:29.998Z</time></trkpt><trkpt lat="41.043571895358966" lon="14.901684774594813"><ele>321.0</ele><time>2026-04-04T13:14:30.998Z</time></trkpt><trkpt lat="41.043483756929035" lon="14.9014254847445"><ele>321.0</ele><time>2026-04-04T13:14:31.998Z</time></trkpt><trkpt lat="41.04339164761133" lon="14.901161807410414"><ele>321.0</ele><time>2026-04-04T13:14:32.998Z</time></trkpt><trkpt lat="41.04328775143119" lon="14.90091980011648"><ele>321.0</ele><time>2026-04-04T13:14:33.998Z</time></trkpt><trkpt lat="41.04317792330342" lon="14.90067241492179"><ele>321.0</ele><time>2026-04-04T13:14:34.998Z</time></trkpt><trkpt lat="41.04306759722686" lon="14.900430930264672"><ele>321.0</ele><time>2026-04-04T13:14:35.998Z</time></trkpt><trkpt lat="41.04295659170728" lon="14.900189190041283"><ele>321.0</ele><time>2026-04-04T13:14:36.998Z</time></trkpt><trkpt lat="41.04283826753122" lon="14.899963701856372"><ele>322.0</ele><time>2026-04-04T13:14:37.998Z</time></trkpt><trkpt lat="41.04271866178845" lon="14.899730038462444"><ele>323.0</ele><time>2026-04-04T13:14:38.998Z</time></trkpt><trkpt lat="41.04259542401927" lon="14.899504646842157"><ele>324.0</ele><time>2026-04-04T13:14:39.998Z</time></trkpt><trkpt lat="41.042475729827345" lon="14.899271138909572"><ele>325.6666666666667</ele><time>2026-04-04T13:14:40.998Z</time></trkpt><trkpt lat="41.042362679782116" lon="14.899035813949597"><ele>327.33333333333337</ele><time>2026-04-04T13:14:41.998Z</time></trkpt><trkpt lat="41.04225158071884" lon="14.898805687473853"><ele>329.0</ele><time>2026-04-04T13:14:42.998Z</time></trkpt><trkpt lat="41.042139405232405" lon="14.898585044098656"><ele>329.6666666666667</ele><time>2026-04-04T13:14:43.998Z</time></trkpt><trkpt lat="41.0420333608579" lon="14.898375630377496"><ele>330.3333333333333</ele><time>2026-04-04T13:14:44.998Z</time></trkpt><trkpt lat="41.041919359819794" lon="14.898166114243331"><ele>331.0</ele><time>2026-04-04T13:14:45.998Z</time></trkpt><trkpt lat="41.041810450935365" lon="14.897961952409583"><ele>331.0</ele><time>2026-04-04T13:14:46.998Z</time></trkpt><trkpt lat="41.041708235219545" lon="14.897765176691784"><ele>331.0</ele><time>2026-04-04T13:14:47.998Z</time></trkpt><trkpt lat="41.04160713079496" lon="14.897584118308592"><ele>331.0</ele><time>2026-04-04T13:14:48.997Z</time></trkpt><trkpt lat="41.041506689631646" lon="14.897417694768473"><ele>333.3333333333333</ele><time>2026-04-04T13:14:49.997Z</time></trkpt><trkpt lat="41.041399745208444" lon="14.897265397129791"><ele>335.6666666666667</ele><time>2026-04-04T13:14:50.997Z</time></trkpt><trkpt lat="41.04127774370824" lon="14.897146765973396"><ele>338.0</ele><time>2026-04-04T13:14:51.997Z</time></trkpt><trkpt lat="41.04112140176931" lon="14.897096513392267"><ele>338.0</ele><time>2026-04-04T13:14:52.997Z</time></trkpt><trkpt lat="41.04095064345418" lon="14.897086737687376"><ele>338.0</ele><time>2026-04-04T13:14:53.997Z</time></trkpt><trkpt lat="41.04076856786229" lon="14.897079329802384"><ele>338.0</ele><time>2026-04-04T13:14:54.999Z</time></trkpt><trkpt lat="41.04057566266531" lon="14.897050945112882"><ele>340.0</ele><time>2026-04-04T13:14:55.999Z</time></trkpt><trkpt lat="41.04038105593124" lon="14.897016513697137"><ele>342.0</ele><time>2026-04-04T13:14:56.999Z</time></trkpt><trkpt lat="41.040191334016235" lon="14.896985680298412"><ele>344.0</ele><time>2026-04-04T13:14:57.999Z</time></trkpt><trkpt lat="41.040009051169434" lon="14.896950703874978"><ele>346.33333333333337</ele><time>2026-04-04T13:14:58.999Z</time></trkpt><trkpt lat="41.03982854122641" lon="14.89691911542602"><ele>348.6666666666667</ele><time>2026-04-04T13:14:59.999Z</time></trkpt><trkpt lat="41.03964929306803" lon="14.896886719005725"><ele>351.0</ele><time>2026-04-04T13:15:00.999Z</time></trkpt><trkpt lat="41.03947878422126" lon="14.896861274822571"><ele>351.0</ele><time>2026-04-04T13:15:01.999Z</time></trkpt><trkpt lat="41.039307045862316" lon="14.896823243371486"><ele>351.0</ele><time>2026-04-04T13:15:02.999Z</time></trkpt><trkpt lat="41.03913512487218" lon="14.896799146119688"><ele>351.0</ele><time>2026-04-04T13:15:03.999Z</time></trkpt><trkpt lat="41.038948893918054" lon="14.896771460341263"><ele>353.6666666666667</ele><time>2026-04-04T13:15:04.999Z</time></trkpt><trkpt lat="41.03878492726077" lon="14.896753685390397"><ele>356.33333333333337</ele><time>2026-04-04T13:15:05.999Z</time></trkpt><trkpt lat="41.0386222678886" lon="14.896727100564876"><ele>359.0</ele><time>2026-04-04T13:15:06.999Z</time></trkpt><trkpt lat="41.038470748158" lon="14.896700021802193"><ele>360.5</ele><time>2026-04-04T13:15:07.999Z</time></trkpt><trkpt lat="41.03833561833168" lon="14.896649284732678"><ele>362.0</ele><time>2026-04-04T13:15:08.999Z</time></trkpt><trkpt lat="41.038216850581286" lon="14.896563611881657"><ele>363.5</ele><time>2026-04-04T13:15:09.999Z</time></trkpt><trkpt lat="41.03813106596537" lon="14.896429566418828"><ele>365.0</ele><time>2026-04-04T13:15:10.999Z</time></trkpt><trkpt lat="41.03804093970517" lon="14.89626980715458"><ele>366.0</ele><time>2026-04-04T13:15:11.999Z</time></trkpt><trkpt lat="41.03794227464015" lon="14.89610773580153"><ele>367.0</ele><time>2026-04-04T13:15:12.999Z</time></trkpt><trkpt lat="41.037843798683696" lon="14.895947744751194"><ele>368.0</ele><time>2026-04-04T13:15:13.999Z</time></trkpt><trkpt lat="41.03774704085942" lon="14.895796420082842"><ele>369.25</ele><time>2026-04-04T13:15:14.999Z</time></trkpt><trkpt lat="41.03765435699127" lon="14.895636770253299"><ele>370.5</ele><time>2026-04-04T13:15:15.999Z</time></trkpt><trkpt lat="41.03755962579205" lon="14.895487188348522"><ele>371.75</ele><time>2026-04-04T13:15:16.999Z</time></trkpt><trkpt lat="41.03747444902166" lon="14.8953514651092"><ele>373.0</ele><time>2026-04-04T13:15:17.999Z</time></trkpt><trkpt lat="41.0373944011092" lon="14.895223891793938"><ele>373.4</ele><time>2026-04-04T13:15:18.999Z</time></trkpt><trkpt lat="41.037334393007484" lon="14.895128256213786"><ele>373.79999999999995</ele><time>2026-04-04T13:15:19.999Z</time></trkpt><trkpt lat="41.037284494716125" lon="14.895050414828564"><ele>374.2</ele><time>2026-04-04T13:15:20.999Z</time></trkpt><trkpt lat="41.03723758323462" lon="14.89497841702206"><ele>374.6</ele><time>2026-04-04T13:15:21.999Z</time></trkpt><trkpt lat="41.03717406257516" lon="14.894880928232508"><ele>375.0</ele><time>2026-04-04T13:15:22.999Z</time></trkpt><trkpt lat="41.03709369722184" lon="14.894781870936512"><ele>376.25</ele><time>2026-04-04T13:15:23.999Z</time></trkpt><trkpt lat="41.037031046407115" lon="14.894638182845135"><ele>377.5</ele><time>2026-04-04T13:15:24.999Z</time></trkpt><trkpt lat="41.03694167917456" lon="14.894496195934519"><ele>378.75</ele><time>2026-04-04T13:15:25.999Z</time></trkpt><trkpt lat="41.03685767810598" lon="14.89435773202801"><ele>380.0</ele><time>2026-04-04T13:15:26.999Z</time></trkpt><trkpt lat="41.03679364695171" lon="14.894264533745078"><ele>381.0</ele><time>2026-04-04T13:15:27.999Z</time></trkpt><trkpt lat="41.03672141562136" lon="14.894138777618338"><ele>382.0</ele><time>2026-04-04T13:15:28.999Z</time></trkpt><trkpt lat="41.036653341185065" lon="14.89402583697588"><ele>383.0</ele><time>2026-04-04T13:15:29.999Z</time></trkpt><trkpt lat="41.036554038234755" lon="14.893926033616935"><ele>384.0</ele><time>2026-04-04T13:15:30.999Z</time></trkpt><trkpt lat="41.03648538454282" lon="14.89380092524369"><ele>385.5</ele><time>2026-04-04T13:15:31.999Z</time></trkpt><trkpt lat="41.03641564842221" lon="14.893659474017703"><ele>387.0</ele><time>2026-04-04T13:15:32.999Z</time></trkpt><trkpt lat="41.036341141991315" lon="14.893535535560137"><ele>388.5</ele><time>2026-04-04T13:15:33.999Z</time></trkpt><trkpt lat="41.03626842448157" lon="14.893413841079022"><ele>390.0</ele><time>2026-04-04T13:15:34.999Z</time></trkpt><trkpt lat="41.03619793148778" lon="14.893296265046425"><ele>391.25</ele><time>2026-04-04T13:15:35.999Z</time></trkpt><trkpt lat="41.03612399604854" lon="14.893184626768303"><ele>392.5</ele><time>2026-04-04T13:15:36.999Z</time></trkpt><trkpt lat="41.03604233887263" lon="14.893064614342018"><ele>393.75</ele><time>2026-04-04T13:15:37.999Z</time></trkpt><trkpt lat="41.03595679903282" lon="14.892924316935511"><ele>395.0</ele><time>2026-04-04T13:15:38.999Z</time></trkpt><trkpt lat="41.03588526422214" lon="14.892794553893001"><ele>397.0</ele><time>2026-04-04T13:15:39.999Z</time></trkpt><trkpt lat="41.0358011909196" lon="14.892662110533559"><ele>399.0</ele><time>2026-04-04T13:15:40.999Z</time></trkpt><trkpt lat="41.03572190158781" lon="14.89252423479096"><ele>401.0</ele><time>2026-04-04T13:15:41.999Z</time></trkpt><trkpt lat="41.035653120973" lon="14.892388496665085"><ele>403.0</ele><time>2026-04-04T13:15:42.999Z</time></trkpt><trkpt lat="41.03557915813896" lon="14.89224715717633"><ele>404.25</ele><time>2026-04-04T13:15:43.999Z</time></trkpt><trkpt lat="41.03550521010587" lon="14.892078581443165"><ele>405.5</ele><time>2026-04-04T13:15:44.999Z</time></trkpt><trkpt lat="41.03543385651733" lon="14.891918368414231"><ele>406.75</ele><time>2026-04-04T13:15:45.999Z</time></trkpt><trkpt lat="41.03536410766301" lon="14.891786023168116"><ele>408.0</ele><time>2026-04-04T13:15:46.999Z</time></trkpt><trkpt lat="41.03529499484106" lon="14.891654909164776"><ele>409.5</ele><time>2026-04-04T13:15:47.999Z</time></trkpt><trkpt lat="41.03522972050654" lon="14.891531095213715"><ele>411.0</ele><time>2026-04-04T13:15:48.999Z</time></trkpt><trkpt lat="41.03512429158496" lon="14.891335290902552"><ele>412.5</ele><time>2026-04-04T13:15:49.999Z</time></trkpt><trkpt lat="41.0350479465636" lon="14.891194980545865"><ele>414.0</ele><time>2026-04-04T13:15:50.999Z</time></trkpt><trkpt lat="41.03497458787246" lon="14.891038459455016"><ele>416.25</ele><time>2026-04-04T13:15:51.999Z</time></trkpt><trkpt lat="41.034901787551405" lon="14.89090132440632"><ele>418.5</ele><time>2026-04-04T13:15:52.999Z</time></trkpt><trkpt lat="41.03482590899313" lon="14.890747150866797"><ele>420.75</ele><time>2026-04-04T13:15:53.999Z</time></trkpt><trkpt lat="41.03472841345866" lon="14.890589146411761"><ele>423.0</ele><time>2026-04-04T13:15:54.999Z</time></trkpt><trkpt lat="41.03465386795023" lon="14.890427871950473"><ele>423.0</ele><time>2026-04-04T13:15:55.999Z</time></trkpt><trkpt lat="41.034574471941724" lon="14.890276396775056"><ele>423.0</ele><time>2026-04-04T13:15:56.999Z</time></trkpt><trkpt lat="41.03449555976633" lon="14.890123247262052"><ele>423.0</ele><time>2026-04-04T13:15:57.999Z</time></trkpt><trkpt lat="41.0344054444748" lon="14.889966979120791"><ele>423.0</ele><time>2026-04-04T13:15:58.999Z</time></trkpt><trkpt lat="41.034319538958535" lon="14.889807543538621"><ele>423.0</ele><time>2026-04-04T13:15:59.999Z</time></trkpt><trkpt lat="41.034225741370015" lon="14.889648118178458"><ele>423.0</ele><time>2026-04-04T13:16:00.999Z</time></trkpt><trkpt lat="41.034129483052524" lon="14.889482849686548"><ele>423.0</ele><time>2026-04-04T13:16:01.999Z</time></trkpt><trkpt lat="41.0340382052806" lon="14.889323234568062"><ele>426.75</ele><time>2026-04-04T13:16:02.999Z</time></trkpt><trkpt lat="41.03396572359223" lon="14.889173925986615"><ele>430.5</ele><time>2026-04-04T13:16:03.999Z</time></trkpt><trkpt lat="41.03387893722147" lon="14.889017744170935"><ele>434.25</ele><time>2026-04-04T13:16:04.999Z</time></trkpt><trkpt lat="41.033787161215926" lon="14.888867622249336"><ele>438.0</ele><time>2026-04-04T13:16:05.998Z</time></trkpt><trkpt lat="41.0336656178074" lon="14.888759212119824"><ele>438.0</ele><time>2026-04-04T13:16:06.998Z</time></trkpt><trkpt lat="41.03354170306152" lon="14.888667093666667"><ele>438.0</ele><time>2026-04-04T13:16:07.998Z</time></trkpt><trkpt lat="41.03336120117441" lon="14.888623712931798"><ele>438.0</ele><time>2026-04-04T13:16:08.998Z</time></trkpt><trkpt lat="41.03317416624528" lon="14.888563118031849"><ele>441.33333333333337</ele><time>2026-04-04T13:16:09.998Z</time></trkpt><trkpt lat="41.03297020329061" lon="14.888530494341074"><ele>444.6666666666667</ele><time>2026-04-04T13:16:10.998Z</time></trkpt><trkpt lat="41.03279512665907" lon="14.888473835551416"><ele>448.0</ele><time>2026-04-04T13:16:11.998Z</time></trkpt><trkpt lat="41.032623849604114" lon="14.888423617407359"><ele>453.33333333333337</ele><time>2026-04-04T13:16:12.998Z</time></trkpt><trkpt lat="41.03245422018706" lon="14.888380666439646"><ele>458.66666666666663</ele><time>2026-04-04T13:16:13.998Z</time></trkpt><trkpt lat="41.032282923566825" lon="14.888324164047862"><ele>464.0</ele><time>2026-04-04T13:16:14.998Z</time></trkpt><trkpt lat="41.032128920684734" lon="14.88827089213945"><ele>464.0</ele><time>2026-04-04T13:16:15.998Z</time></trkpt><trkpt lat="41.03198855349255" lon="14.888188101091641"><ele>464.0</ele><time>2026-04-04T13:16:16.998Z</time></trkpt><trkpt lat="41.03185649360182" lon="14.888124593619274"><ele>464.0</ele><time>2026-04-04T13:16:17.998Z</time></trkpt><trkpt lat="41.031715135417265" lon="14.888095365542346"><ele>464.0</ele><time>2026-04-04T13:16:18.998Z</time></trkpt><trkpt lat="41.03158228425956" lon="14.888115739800027"><ele>466.25</ele><time>2026-04-04T13:16:19.998Z</time></trkpt><trkpt lat="41.03147300773681" lon="14.888202920543517"><ele>468.5</ele><time>2026-04-04T13:16:20.998Z</time></trkpt><trkpt lat="41.03137111035473" lon="14.888340873053995"><ele>470.75</ele><time>2026-04-04T13:16:21.998Z</time></trkpt><trkpt lat="41.03126136879564" lon="14.888489562822624"><ele>473.0</ele><time>2026-04-04T13:16:22.998Z</time></trkpt><trkpt lat="41.03114114683021" lon="14.888609234181416"><ele>473.0</ele><time>2026-04-04T13:16:23.998Z</time></trkpt><trkpt lat="41.0310119159027" lon="14.88869136730358"><ele>473.0</ele><time>2026-04-04T13:16:24.998Z</time></trkpt><trkpt lat="41.030859425977994" lon="14.88874327780847"><ele>473.0</ele><time>2026-04-04T13:16:25.998Z</time></trkpt><trkpt lat="41.03068605423961" lon="14.888775771077986"><ele>476.0</ele><time>2026-04-04T13:16:26.998Z</time></trkpt><trkpt lat="41.03049579384255" lon="14.888811933877308"><ele>479.0</ele><time>2026-04-04T13:16:27.998Z</time></trkpt><trkpt lat="41.030297278235444" lon="14.888845422846726"><ele>482.0</ele><time>2026-04-04T13:16:28.998Z</time></trkpt><trkpt lat="41.03010348521179" lon="14.888885840853288"><ele>485.0</ele><time>2026-04-04T13:16:29.998Z</time></trkpt><trkpt lat="41.02990219472655" lon="14.888930579135891"><ele>488.0</ele><time>2026-04-04T13:16:30.998Z</time></trkpt><trkpt lat="41.02969988145232" lon="14.888980603068445"><ele>491.0</ele><time>2026-04-04T13:16:31.998Z</time></trkpt><trkpt lat="41.029521570045226" lon="14.889014790391393"><ele>491.0</ele><time>2026-04-04T13:16:32.998Z</time></trkpt><trkpt lat="41.029366821317225" lon="14.889046147455444"><ele>491.0</ele><time>2026-04-04T13:16:33.998Z</time></trkpt><trkpt lat="41.029232721301675" lon="14.88907263627109"><ele>491.0</ele><time>2026-04-04T13:16:34.998Z</time></trkpt><trkpt lat="41.02911250303617" lon="14.889057707218287"><ele>491.0</ele><time>2026-04-04T13:16:35.998Z</time></trkpt><trkpt lat="41.02901957490116" lon="14.888986759673893"><ele>492.0</ele><time>2026-04-04T13:16:36.998Z</time></trkpt><trkpt lat="41.028997936235015" lon="14.88883732744352"><ele>493.0</ele><time>2026-04-04T13:16:37.998Z</time></trkpt><trkpt lat="41.0290225494259" lon="14.888696529476242"><ele>494.0</ele><time>2026-04-04T13:16:38.998Z</time></trkpt><trkpt lat="41.02902705698021" lon="14.888539718174147"><ele>495.0</ele><time>2026-04-04T13:16:39.998Z</time></trkpt><trkpt lat="41.0290630316984" lon="14.888384656047435"><ele>496.25</ele><time>2026-04-04T13:16:40.998Z</time></trkpt><trkpt lat="41.029090577339964" lon="14.888228784409275"><ele>497.5</ele><time>2026-04-04T13:16:41.998Z</time></trkpt><trkpt lat="41.02911524541229" lon="14.888054825645424"><ele>498.75</ele><time>2026-04-04T13:16:42.998Z</time></trkpt><trkpt lat="41.02914507140782" lon="14.887854921433439"><ele>500.0</ele><time>2026-04-04T13:16:43.998Z</time></trkpt><trkpt lat="41.029176693519815" lon="14.887664438421256"><ele>502.66666666666663</ele><time>2026-04-04T13:16:44.998Z</time></trkpt><trkpt lat="41.02920657102679" lon="14.887460660031618"><ele>505.33333333333337</ele><time>2026-04-04T13:16:45.998Z</time></trkpt><trkpt lat="41.029239799907046" lon="14.887247241346198"><ele>508.0</ele><time>2026-04-04T13:16:46.998Z</time></trkpt><trkpt lat="41.02928531165494" lon="14.88698006106213"><ele>511.33333333333337</ele><time>2026-04-04T13:16:47.998Z</time></trkpt><trkpt lat="41.02931967127677" lon="14.886741526520536"><ele>514.6666666666666</ele><time>2026-04-04T13:16:48.998Z</time></trkpt><trkpt lat="41.02934230807835" lon="14.8865387139611"><ele>518.0</ele><time>2026-04-04T13:16:49.998Z</time></trkpt><trkpt lat="41.02935180400597" lon="14.88635072087305"><ele>518.0</ele><time>2026-04-04T13:16:50.998Z</time></trkpt><trkpt lat="41.02933557051658" lon="14.886201325135385"><ele>518.0</ele><time>2026-04-04T13:16:51.998Z</time></trkpt><trkpt lat="41.02927339640114" lon="14.886083270465539"><ele>518.0</ele><time>2026-04-04T13:16:52.998Z</time></trkpt><trkpt lat="41.029166741966556" lon="14.886014240613667"><ele>518.0</ele><time>2026-04-04T13:16:53.998Z</time></trkpt><trkpt lat="41.02903951200162" lon="14.88596254812354"><ele>521.3333333333333</ele><time>2026-04-04T13:16:54.998Z</time></trkpt><trkpt lat="41.0288933392977" lon="14.885938682088073"><ele>524.6666666666666</ele><time>2026-04-04T13:16:55.998Z</time></trkpt><trkpt lat="41.02873165146421" lon="14.885920169149303"><ele>528.0</ele><time>2026-04-04T13:16:56.998Z</time></trkpt><trkpt lat="41.0285330558053" lon="14.885900866150209"><ele>531.6666666666666</ele><time>2026-04-04T13:16:57.998Z</time></trkpt><trkpt lat="41.0283020720633" lon="14.885884129102436"><ele>535.3333333333333</ele><time>2026-04-04T13:16:58.998Z</time></trkpt><trkpt lat="41.028090459948565" lon="14.885892033422861"><ele>539.0</ele><time>2026-04-04T13:16:59.998Z</time></trkpt><trkpt lat="41.027915870146934" lon="14.885866382540915"><ele>539.0</ele><time>2026-04-04T13:17:00.999Z</time></trkpt><trkpt lat="41.027761518513366" lon="14.885816471426853"><ele>539.0</ele><time>2026-04-04T13:17:01.999Z</time></trkpt><trkpt lat="41.02763760998236" lon="14.88571236367573"><ele>539.0</ele><time>2026-04-04T13:17:02.999Z</time></trkpt><trkpt lat="41.02754821240098" lon="14.885541016934939"><ele>540.6666666666666</ele><time>2026-04-04T13:17:03.999Z</time></trkpt><trkpt lat="41.02746003361874" lon="14.885318528452151"><ele>542.3333333333334</ele><time>2026-04-04T13:17:04.999Z</time></trkpt><trkpt lat="41.02735292064842" lon="14.885074055494684"><ele>544.0</ele><time>2026-04-04T13:17:05.999Z</time></trkpt><trkpt lat="41.02723940376335" lon="14.88483477077944"><ele>546.6666666666667</ele><time>2026-04-04T13:17:06.999Z</time></trkpt><trkpt lat="41.02713181688242" lon="14.884603924785347"><ele>549.3333333333334</ele><time>2026-04-04T13:17:07.999Z</time></trkpt><trkpt lat="41.027020714148925" lon="14.884365887476033"><ele>552.0</ele><time>2026-04-04T13:17:08.999Z</time></trkpt><trkpt lat="41.0269072708939" lon="14.88412637227977"><ele>553.3333333333334</ele><time>2026-04-04T13:17:09.999Z</time></trkpt><trkpt lat="41.026791494830384" lon="14.883882798850244"><ele>554.6666666666667</ele><time>2026-04-04T13:17:10.999Z</time></trkpt><trkpt lat="41.02667859669193" lon="14.883639544737445"><ele>556.0</ele><time>2026-04-04T13:17:11.999Z</time></trkpt><trkpt lat="41.026565910448795" lon="14.883387803210685"><ele>562.5</ele><time>2026-04-04T13:17:12.999Z</time></trkpt><trkpt lat="41.02644510488266" lon="14.883119829747118"><ele>569.0</ele><time>2026-04-04T13:17:13.999Z</time></trkpt><trkpt lat="41.026328857074674" lon="14.882864787850167"><ele>569.0</ele><time>2026-04-04T13:17:14.999Z</time></trkpt><trkpt lat="41.026224135461426" lon="14.882644103520263"><ele>569.0</ele><time>2026-04-04T13:17:15.999Z</time></trkpt><trkpt lat="41.026133116650925" lon="14.882443458452423"><ele>569.0</ele><time>2026-04-04T13:17:16.999Z</time></trkpt><trkpt lat="41.02606150806026" lon="14.882242339164748"><ele>569.75</ele><time>2026-04-04T13:17:17.999Z</time></trkpt><trkpt lat="41.02598423128665" lon="14.882071397331371"><ele>570.5</ele><time>2026-04-04T13:17:18.999Z</time></trkpt><trkpt lat="41.02591037927817" lon="14.881908031490642"><ele>571.25</ele><time>2026-04-04T13:17:19.999Z</time></trkpt><trkpt lat="41.02583880354057" lon="14.881749700609681"><ele>572.0</ele><time>2026-04-04T13:17:20.999Z</time></trkpt><trkpt lat="41.025761601156105" lon="14.881620479383898"><ele>574.6</ele><time>2026-04-04T13:17:21.999Z</time></trkpt><trkpt lat="41.025711652786434" lon="14.88149122624637"><ele>577.2</ele><time>2026-04-04T13:17:22.999Z</time></trkpt><trkpt lat="41.02565547098846" lon="14.881371771079213"><ele>579.8</ele><time>2026-04-04T13:17:23.999Z</time></trkpt><trkpt lat="41.025602564508006" lon="14.881258401753186"><ele>582.4</ele><time>2026-04-04T13:17:24.999Z</time></trkpt><trkpt lat="41.025557931028885" lon="14.881147306021095"><ele>585.0</ele><time>2026-04-04T13:17:25.999Z</time></trkpt><trkpt lat="41.02550840983846" lon="14.881036868571266"><ele>585.0</ele><time>2026-04-04T13:17:26.999Z</time></trkpt><trkpt lat="41.0254660014801" lon="14.880943384012836"><ele>585.0</ele><time>2026-04-04T13:17:27.999Z</time></trkpt><trkpt lat="41.02542151073583" lon="14.880856644270017"><ele>585.0</ele><time>2026-04-04T13:17:28.999Z</time></trkpt><trkpt lat="41.02538335486674" lon="14.880782545551828"><ele>585.0</ele><time>2026-04-04T13:17:29.999Z</time></trkpt><trkpt lat="41.02534957161156" lon="14.880702448713166"><ele>585.0</ele><time>2026-04-04T13:17:30.999Z</time></trkpt><trkpt lat="41.025304940699115" lon="14.880633537715955"><ele>585.0</ele><time>2026-04-04T13:17:31.999Z</time></trkpt><trkpt lat="41.02526132746204" lon="14.880569241561723"><ele>585.0</ele><time>2026-04-04T13:17:32.999Z</time></trkpt><trkpt lat="41.02521989479959" lon="14.880501428490094"><ele>585.0</ele><time>2026-04-04T13:17:33.999Z</time></trkpt><trkpt lat="41.025145412968364" lon="14.880455337608993"><ele>585.0</ele><time>2026-04-04T13:17:35.999Z</time></trkpt><trkpt lat="41.02502668449208" lon="14.880392365395547"><ele>585.0</ele><time>2026-04-04T13:17:37.999Z</time></trkpt><trkpt lat="41.02494701534817" lon="14.880382076914259"><ele>585.0</ele><time>2026-04-04T13:17:38.999Z</time></trkpt><trkpt lat="41.02486960942371" lon="14.880390271747679"><ele>585.0</ele><time>2026-04-04T13:17:39.999Z</time></trkpt><trkpt lat="41.02477477862395" lon="14.880417526980025"><ele>585.0</ele><time>2026-04-04T13:17:40.999Z</time></trkpt><trkpt lat="41.02465995049802" lon="14.880454456958756"><ele>585.0</ele><time>2026-04-04T13:17:41.999Z</time></trkpt><trkpt lat="41.024533902989795" lon="14.880489882591393"><ele>585.0</ele><time>2026-04-04T13:17:42.999Z</time></trkpt><trkpt lat="41.02439726899397" lon="14.880523041777813"><ele>585.0</ele><time>2026-04-04T13:17:43.999Z</time></trkpt><trkpt lat="41.02424987083244" lon="14.880568940263961"><ele>582.6666666666666</ele><time>2026-04-04T13:17:44.999Z</time></trkpt><trkpt lat="41.024123735667345" lon="14.880627169110742"><ele>580.3333333333333</ele><time>2026-04-04T13:17:45.999Z</time></trkpt><trkpt lat="41.023971035423486" lon="14.880677625344626"><ele>578.0</ele><time>2026-04-04T13:17:46.999Z</time></trkpt><trkpt lat="41.023805678660175" lon="14.88071794332613"><ele>578.0</ele><time>2026-04-04T13:17:47.999Z</time></trkpt><trkpt lat="41.02362962275814" lon="14.880763585988255"><ele>578.0</ele><time>2026-04-04T13:17:48.999Z</time></trkpt><trkpt lat="41.0234404928421" lon="14.88082224313649"><ele>578.0</ele><time>2026-04-04T13:17:49.999Z</time></trkpt><trkpt lat="41.02325552720372" lon="14.880881443521123"><ele>580.3333333333333</ele><time>2026-04-04T13:17:50.999Z</time></trkpt><trkpt lat="41.02306699070655" lon="14.8809369841113"><ele>582.6666666666666</ele><time>2026-04-04T13:17:51.999Z</time></trkpt><trkpt lat="41.022885514811534" lon="14.880974812427455"><ele>585.0</ele><time>2026-04-04T13:17:52.999Z</time></trkpt><trkpt lat="41.02270782788958" lon="14.880955188462897"><ele>582.3333333333334</ele><time>2026-04-04T13:17:53.999Z</time></trkpt><trkpt lat="41.022514258376994" lon="14.880868323680636"><ele>579.6666666666667</ele><time>2026-04-04T13:17:54.999Z</time></trkpt><trkpt lat="41.022324933281034" lon="14.880734988243502"><ele>577.0</ele><time>2026-04-04T13:17:55.999Z</time></trkpt><trkpt lat="41.02215309162654" lon="14.880605181175772"><ele>577.3333333333334</ele><time>2026-04-04T13:17:56.999Z</time></trkpt><trkpt lat="41.021972498571046" lon="14.880492419687846"><ele>577.6666666666666</ele><time>2026-04-04T13:17:57.999Z</time></trkpt><trkpt lat="41.02179258215951" lon="14.880381616391931"><ele>578.0</ele><time>2026-04-04T13:17:58.999Z</time></trkpt><trkpt lat="41.02160777568965" lon="14.880264968231241"><ele>578.0</ele><time>2026-04-04T13:17:59.999Z</time></trkpt><trkpt lat="41.02142568058613" lon="14.880149676751785"><ele>578.0</ele><time>2026-04-04T13:18:00.999Z</time></trkpt><trkpt lat="41.02125336196406" lon="14.880042241374"><ele>578.0</ele><time>2026-04-04T13:18:01.999Z</time></trkpt><trkpt lat="41.02109292516883" lon="14.879941417419396"><ele>575.3333333333333</ele><time>2026-04-04T13:18:02.999Z</time></trkpt><trkpt lat="41.020940950431964" lon="14.87984704997076"><ele>572.6666666666666</ele><time>2026-04-04T13:18:03.999Z</time></trkpt><trkpt lat="41.02078813306184" lon="14.879761564820527"><ele>570.0</ele><time>2026-04-04T13:18:04.999Z</time></trkpt><trkpt lat="41.02064459662717" lon="14.87967271063195"><ele>569.0</ele><time>2026-04-04T13:18:05.999Z</time></trkpt><trkpt lat="41.020476880390056" lon="14.879557388008381"><ele>568.0</ele><time>2026-04-04T13:18:06.999Z</time></trkpt><trkpt lat="41.02031753869529" lon="14.879463743630785"><ele>567.0</ele><time>2026-04-04T13:18:07.999Z</time></trkpt><trkpt lat="41.02014582885581" lon="14.879363766262697"><ele>562.3333333333334</ele><time>2026-04-04T13:18:08.999Z</time></trkpt><trkpt lat="41.01997976271164" lon="14.879262591742318"><ele>557.6666666666667</ele><time>2026-04-04T13:18:09.999Z</time></trkpt><trkpt lat="41.019818407287744" lon="14.879122314842817"><ele>553.0</ele><time>2026-04-04T13:18:10.999Z</time></trkpt><trkpt lat="41.019679428806185" lon="14.87897217678478"><ele>553.0</ele><time>2026-04-04T13:18:11.999Z</time></trkpt><trkpt lat="41.01953003845905" lon="14.878806320322573"><ele>553.0</ele><time>2026-04-04T13:18:12.999Z</time></trkpt><trkpt lat="41.01937430674614" lon="14.878620450378497"><ele>553.0</ele><time>2026-04-04T13:18:13.999Z</time></trkpt><trkpt lat="41.0192275519227" lon="14.878444002349662"><ele>549.0</ele><time>2026-04-04T13:18:14.999Z</time></trkpt><trkpt lat="41.019087399073925" lon="14.8782704763861"><ele>545.0</ele><time>2026-04-04T13:18:15.999Z</time></trkpt><trkpt lat="41.018937461224795" lon="14.878087266852946"><ele>541.0</ele><time>2026-04-04T13:18:16.999Z</time></trkpt><trkpt lat="41.018778390223915" lon="14.87791354036231"><ele>541.0</ele><time>2026-04-04T13:18:17.999Z</time></trkpt><trkpt lat="41.01861913859724" lon="14.877729830151676"><ele>541.0</ele><time>2026-04-04T13:18:18.999Z</time></trkpt><trkpt lat="41.01847108135414" lon="14.877547592315317"><ele>541.0</ele><time>2026-04-04T13:18:19.999Z</time></trkpt><trkpt lat="41.018319450930626" lon="14.877352069350138"><ele>538.0</ele><time>2026-04-04T13:18:20.999Z</time></trkpt><trkpt lat="41.01818209637032" lon="14.877164502156813"><ele>535.0</ele><time>2026-04-04T13:18:21.999Z</time></trkpt><trkpt lat="41.01805173964827" lon="14.876981459397962"><ele>532.0</ele><time>2026-04-04T13:18:22.998Z</time></trkpt><trkpt lat="41.01793176018345" lon="14.87680226751163"><ele>532.0</ele><time>2026-04-04T13:18:23.998Z</time></trkpt><trkpt lat="41.01782112876618" lon="14.876629200210454"><ele>532.0</ele><time>2026-04-04T13:18:24.998Z</time></trkpt><trkpt lat="41.01771330765057" lon="14.876453466097765"><ele>532.0</ele><time>2026-04-04T13:18:25.998Z</time></trkpt><trkpt lat="41.01759351144439" lon="14.876268285152777"><ele>530.0</ele><time>2026-04-04T13:18:26.998Z</time></trkpt><trkpt lat="41.01747943642615" lon="14.87609357851804"><ele>528.0</ele><time>2026-04-04T13:18:27.998Z</time></trkpt><trkpt lat="41.01737430965777" lon="14.875927253796478"><ele>526.0</ele><time>2026-04-04T13:18:28.998Z</time></trkpt><trkpt lat="41.01726552052191" lon="14.875759596975149"><ele>526.0</ele><time>2026-04-04T13:18:29.998Z</time></trkpt><trkpt lat="41.017154237268706" lon="14.87558908023878"><ele>526.0</ele><time>2026-04-04T13:18:30.998Z</time></trkpt><trkpt lat="41.01704865021298" lon="14.875414819155303"><ele>526.0</ele><time>2026-04-04T13:18:31.998Z</time></trkpt><trkpt lat="41.0169452472293" lon="14.875270195145712"><ele>526.0</ele><time>2026-04-04T13:18:32.998Z</time></trkpt><trkpt lat="41.01683929044393" lon="14.875123970649502"><ele>526.0</ele><time>2026-04-04T13:18:33.998Z</time></trkpt><trkpt lat="41.01673047087302" lon="14.874978860319374"><ele>526.0</ele><time>2026-04-04T13:18:34.998Z</time></trkpt><trkpt lat="41.016601191802316" lon="14.874860964983853"><ele>522.6666666666667</ele><time>2026-04-04T13:18:35.998Z</time></trkpt><trkpt lat="41.01646720143344" lon="14.874773456217143"><ele>519.3333333333334</ele><time>2026-04-04T13:18:36.998Z</time></trkpt><trkpt lat="41.01630744069343" lon="14.874677059488924"><ele>516.0</ele><time>2026-04-04T13:18:37.998Z</time></trkpt><trkpt lat="41.01614066217817" lon="14.874609382180362"><ele>516.0</ele><time>2026-04-04T13:18:38.998Z</time></trkpt><trkpt lat="41.01597141456224" lon="14.874545946287418"><ele>516.0</ele><time>2026-04-04T13:18:39.998Z</time></trkpt><trkpt lat="41.0157974706798" lon="14.874489681500602"><ele>516.0</ele><time>2026-04-04T13:18:40.998Z</time></trkpt><trkpt lat="41.015620383788" lon="14.874423204635866"><ele>513.6666666666666</ele><time>2026-04-04T13:18:41.998Z</time></trkpt><trkpt lat="41.01545163402227" lon="14.874332485377161"><ele>511.3333333333333</ele><time>2026-04-04T13:18:42.998Z</time></trkpt><trkpt lat="41.01527517886418" lon="14.874230935298097"><ele>509.0</ele><time>2026-04-04T13:18:43.998Z</time></trkpt><trkpt lat="41.01511017032619" lon="14.87412483179246"><ele>505.66666666666663</ele><time>2026-04-04T13:18:44.998Z</time></trkpt><trkpt lat="41.0149450463455" lon="14.873998285005165"><ele>502.33333333333337</ele><time>2026-04-04T13:18:45.998Z</time></trkpt><trkpt lat="41.014786049403334" lon="14.873853123970862"><ele>499.0</ele><time>2026-04-04T13:18:46.998Z</time></trkpt><trkpt lat="41.014620866430725" lon="14.873720028738738"><ele>499.0</ele><time>2026-04-04T13:18:47.998Z</time></trkpt><trkpt lat="41.014452342471195" lon="14.873588049895252"><ele>499.0</ele><time>2026-04-04T13:18:48.998Z</time></trkpt><trkpt lat="41.01428157354448" lon="14.87346732102887"><ele>499.0</ele><time>2026-04-04T13:18:49.998Z</time></trkpt><trkpt lat="41.01410839547978" lon="14.873350479234558"><ele>494.33333333333337</ele><time>2026-04-04T13:18:50.998Z</time></trkpt><trkpt lat="41.013930865544374" lon="14.873243401010985"><ele>489.66666666666663</ele><time>2026-04-04T13:18:51.998Z</time></trkpt><trkpt lat="41.01374958457993" lon="14.873138369559145"><ele>485.0</ele><time>2026-04-04T13:18:52.998Z</time></trkpt><trkpt lat="41.013570267078464" lon="14.873029325320674"><ele>485.0</ele><time>2026-04-04T13:18:53.998Z</time></trkpt><trkpt lat="41.013388949567144" lon="14.87292341258626"><ele>485.0</ele><time>2026-04-04T13:18:54.998Z</time></trkpt><trkpt lat="41.01320647798518" lon="14.87282273213402"><ele>485.0</ele><time>2026-04-04T13:18:55.998Z</time></trkpt><trkpt lat="41.01303000111501" lon="14.872725958196794"><ele>481.0</ele><time>2026-04-04T13:18:56.998Z</time></trkpt><trkpt lat="41.012852696047226" lon="14.872629828695798"><ele>477.0</ele><time>2026-04-04T13:18:57.998Z</time></trkpt><trkpt lat="41.0126720062596" lon="14.872548514857813"><ele>473.0</ele><time>2026-04-04T13:18:58.998Z</time></trkpt><trkpt lat="41.01248987946127" lon="14.872485653928587"><ele>470.0</ele><time>2026-04-04T13:18:59.998Z</time></trkpt><trkpt lat="41.01231388259545" lon="14.872432988636033"><ele>467.0</ele><time>2026-04-04T13:19:00.998Z</time></trkpt><trkpt lat="41.01213872186149" lon="14.872381239170474"><ele>464.0</ele><time>2026-04-04T13:19:01.998Z</time></trkpt><trkpt lat="41.0119764147149" lon="14.872332972266182"><ele>464.0</ele><time>2026-04-04T13:19:02.998Z</time></trkpt><trkpt lat="41.01182214633637" lon="14.872257336013224"><ele>464.0</ele><time>2026-04-04T13:19:03.998Z</time></trkpt><trkpt lat="41.01166428952197" lon="14.872127388108458"><ele>464.0</ele><time>2026-04-04T13:19:04.998Z</time></trkpt><trkpt lat="41.0115342745014" lon="14.871963768261113"><ele>460.3333333333333</ele><time>2026-04-04T13:19:05.998Z</time></trkpt><trkpt lat="41.01141365189488" lon="14.87177802439825"><ele>456.66666666666663</ele><time>2026-04-04T13:19:06.999Z</time></trkpt><trkpt lat="41.011287868212015" lon="14.871585409744815"><ele>453.0</ele><time>2026-04-04T13:19:07.999Z</time></trkpt><trkpt lat="41.01116267504587" lon="14.871411330658143"><ele>452.66666666666663</ele><time>2026-04-04T13:19:08.999Z</time></trkpt><trkpt lat="41.01104706943308" lon="14.87124564161757"><ele>452.3333333333333</ele><time>2026-04-04T13:19:09.999Z</time></trkpt><trkpt lat="41.01093697396953" lon="14.871079711682324"><ele>452.0</ele><time>2026-04-04T13:19:10.999Z</time></trkpt><trkpt lat="41.01082427781471" lon="14.870904920547643"><ele>448.0</ele><time>2026-04-04T13:19:11.999Z</time></trkpt><trkpt lat="41.01071696382116" lon="14.870721281788654"><ele>444.0</ele><time>2026-04-04T13:19:12.999Z</time></trkpt><trkpt lat="41.01062012685447" lon="14.870506060815613"><ele>440.0</ele><time>2026-04-04T13:19:13.999Z</time></trkpt><trkpt lat="41.010533970378525" lon="14.870284179124694"><ele>439.66666666666663</ele><time>2026-04-04T13:19:14.999Z</time></trkpt><trkpt lat="41.01045405477261" lon="14.870073381260974"><ele>439.33333333333337</ele><time>2026-04-04T13:19:15.999Z</time></trkpt><trkpt lat="41.010372855537746" lon="14.869865357484366"><ele>439.0</ele><time>2026-04-04T13:19:16.999Z</time></trkpt><trkpt lat="41.01029060204763" lon="14.869653157581112"><ele>439.0</ele><time>2026-04-04T13:19:17.999Z</time></trkpt><trkpt lat="41.010209258040234" lon="14.869441911800743"><ele>439.0</ele><time>2026-04-04T13:19:18.999Z</time></trkpt><trkpt lat="41.01012616226452" lon="14.869218379674889"><ele>439.0</ele><time>2026-04-04T13:19:20Z</time></trkpt><trkpt lat="41.010053685237445" lon="14.869006866245254"><ele>438.6666666666667</ele><time>2026-04-04T13:19:21Z</time></trkpt><trkpt lat="41.010000221079736" lon="14.868801921703096"><ele>438.33333333333337</ele><time>2026-04-04T13:19:22Z</time></trkpt><trkpt lat="41.0099611956883" lon="14.868593400772284"><ele>438.0</ele><time>2026-04-04T13:19:23Z</time></trkpt><trkpt lat="41.00990546676898" lon="14.868398534275387"><ele>435.66666666666663</ele><time>2026-04-04T13:19:24Z</time></trkpt><trkpt lat="41.00980954273885" lon="14.868221971978754"><ele>433.3333333333333</ele><time>2026-04-04T13:19:25Z</time></trkpt><trkpt lat="41.00968576171266" lon="14.86808799952861"><ele>431.0</ele><time>2026-04-04T13:19:26Z</time></trkpt><trkpt lat="41.00954058115439" lon="14.867994951627493"><ele>431.0</ele><time>2026-04-04T13:19:27Z</time></trkpt><trkpt lat="41.00937036131638" lon="14.867932963191354"><ele>431.0</ele><time>2026-04-04T13:19:28Z</time></trkpt><trkpt lat="41.009193175234685" lon="14.8678825015342"><ele>431.0</ele><time>2026-04-04T13:19:29Z</time></trkpt><trkpt lat="41.00903410446326" lon="14.867825198796169"><ele>426.0</ele><time>2026-04-04T13:19:30Z</time></trkpt><trkpt lat="41.008878095616105" lon="14.867762457147766"><ele>421.0</ele><time>2026-04-04T13:19:31Z</time></trkpt><trkpt lat="41.008728367226986" lon="14.867720571292267"><ele>416.0</ele><time>2026-04-04T13:19:32Z</time></trkpt><trkpt lat="41.008579595998626" lon="14.867725053935471"><ele>416.0</ele><time>2026-04-04T13:19:33Z</time></trkpt><trkpt lat="41.008425643536604" lon="14.867769611552555"><ele>416.0</ele><time>2026-04-04T13:19:34Z</time></trkpt><trkpt lat="41.008295640257195" lon="14.86787624357874"><ele>416.0</ele><time>2026-04-04T13:19:35Z</time></trkpt><trkpt lat="41.00816450300905" lon="14.868045585711771"><ele>412.0</ele><time>2026-04-04T13:19:36Z</time></trkpt><trkpt lat="41.00803645187686" lon="14.86819860676617"><ele>408.0</ele><time>2026-04-04T13:19:37Z</time></trkpt><trkpt lat="41.00792513436704" lon="14.86832919414768"><ele>404.0</ele><time>2026-04-04T13:19:38Z</time></trkpt><trkpt lat="41.00781289430138" lon="14.868460486153186"><ele>404.0</ele><time>2026-04-04T13:19:38.999Z</time></trkpt><trkpt lat="41.00771333634326" lon="14.868610300078165"><ele>404.0</ele><time>2026-04-04T13:19:39.999Z</time></trkpt><trkpt lat="41.0076002323368" lon="14.868698057531729"><ele>404.0</ele><time>2026-04-04T13:19:40.999Z</time></trkpt><trkpt lat="41.00749603626851" lon="14.86876195425344"><ele>404.0</ele><time>2026-04-04T13:19:41.999Z</time></trkpt><trkpt lat="41.00737544621663" lon="14.868745390514016"><ele>400.66666666666663</ele><time>2026-04-04T13:19:42.999Z</time></trkpt><trkpt lat="41.007245196466776" lon="14.8686672687178"><ele>397.33333333333337</ele><time>2026-04-04T13:19:43.999Z</time></trkpt><trkpt lat="41.0070880350097" lon="14.868570464994058"><ele>394.0</ele><time>2026-04-04T13:19:44.999Z</time></trkpt><trkpt lat="41.00692872186381" lon="14.868443122692165"><ele>393.33333333333337</ele><time>2026-04-04T13:19:45.999Z</time></trkpt><trkpt lat="41.00675388798118" lon="14.868302135594913"><ele>392.66666666666663</ele><time>2026-04-04T13:19:46.999Z</time></trkpt><trkpt lat="41.00658846796231" lon="14.868127617968504"><ele>392.0</ele><time>2026-04-04T13:19:47.999Z</time></trkpt><trkpt lat="41.00641306261352" lon="14.867950156724067"><ele>388.0</ele><time>2026-04-04T13:19:48.999Z</time></trkpt><trkpt lat="41.00624169658424" lon="14.867789584322697"><ele>384.0</ele><time>2026-04-04T13:19:49.999Z</time></trkpt><trkpt lat="41.0060802362895" lon="14.867639863127081"><ele>380.0</ele><time>2026-04-04T13:19:50.999Z</time></trkpt><trkpt lat="41.00591786728482" lon="14.867481639708648"><ele>374.33333333333337</ele><time>2026-04-04T13:19:51.999Z</time></trkpt><trkpt lat="41.00575852710116" lon="14.867329346740556"><ele>368.6666666666667</ele><time>2026-04-04T13:19:52.999Z</time></trkpt><trkpt lat="41.005603825806745" lon="14.867192566994794"><ele>363.0</ele><time>2026-04-04T13:19:53.999Z</time></trkpt><trkpt lat="41.00546390804637" lon="14.867053159701475"><ele>363.0</ele><time>2026-04-04T13:19:54.999Z</time></trkpt><trkpt lat="41.00535566440522" lon="14.866873067394925"><ele>363.0</ele><time>2026-04-04T13:19:55.999Z</time></trkpt><trkpt lat="41.005309620184995" lon="14.866655113641565"><ele>363.0</ele><time>2026-04-04T13:19:56.999Z</time></trkpt><trkpt lat="41.005258375195325" lon="14.86644536156301"><ele>362.0</ele><time>2026-04-04T13:19:57.999Z</time></trkpt><trkpt lat="41.00521938933115" lon="14.866257717281353"><ele>361.0</ele><time>2026-04-04T13:19:58.999Z</time></trkpt><trkpt lat="41.00515840451117" lon="14.86610430509401"><ele>360.0</ele><time>2026-04-04T13:19:59.999Z</time></trkpt><trkpt lat="41.00505855213756" lon="14.865989165863652"><ele>359.0</ele><time>2026-04-04T13:20:00.999Z</time></trkpt><trkpt lat="41.0049365354986" lon="14.865923438877909"><ele>356.25</ele><time>2026-04-04T13:20:01.999Z</time></trkpt><trkpt lat="41.00479520631217" lon="14.86587401928263"><ele>353.5</ele><time>2026-04-04T13:20:02.999Z</time></trkpt><trkpt lat="41.00465721880753" lon="14.865817950516883"><ele>350.75</ele><time>2026-04-04T13:20:03.999Z</time></trkpt><trkpt lat="41.004518230991415" lon="14.865763306527306"><ele>348.0</ele><time>2026-04-04T13:20:04.999Z</time></trkpt><trkpt lat="41.00437140454881" lon="14.86570769043357"><ele>348.0</ele><time>2026-04-04T13:20:05.999Z</time></trkpt><trkpt lat="41.004221568647715" lon="14.8656468461498"><ele>348.0</ele><time>2026-04-04T13:20:06.999Z</time></trkpt><trkpt lat="41.00407756407902" lon="14.865590906794798"><ele>348.0</ele><time>2026-04-04T13:20:07.999Z</time></trkpt><trkpt lat="41.00393935414842" lon="14.865529797622422"><ele>344.2</ele><time>2026-04-04T13:20:08.999Z</time></trkpt><trkpt lat="41.00381130626" lon="14.865478747143214"><ele>340.4</ele><time>2026-04-04T13:20:09.999Z</time></trkpt><trkpt lat="41.00372240706939" lon="14.865416297905695"><ele>336.59999999999997</ele><time>2026-04-04T13:20:10.999Z</time></trkpt><trkpt lat="41.00367080892185" lon="14.865341283121646"><ele>332.79999999999995</ele><time>2026-04-04T13:20:11.999Z</time></trkpt><trkpt lat="41.003675259041344" lon="14.865232426758629"><ele>329.0</ele><time>2026-04-04T13:20:12.999Z</time></trkpt><trkpt lat="41.0037460569399" lon="14.865136873806797"><ele>330.0</ele><time>2026-04-04T13:20:13.999Z</time></trkpt><trkpt lat="41.00387269999625" lon="14.865073528585002"><ele>331.0</ele><time>2026-04-04T13:20:14.999Z</time></trkpt><trkpt lat="41.00398404300208" lon="14.865014696545723"><ele>332.0</ele><time>2026-04-04T13:20:15.999Z</time></trkpt><trkpt lat="41.004052733798744" lon="14.86491120514602"><ele>333.0</ele><time>2026-04-04T13:20:16.999Z</time></trkpt><trkpt lat="41.00407822357448" lon="14.864783779760241"><ele>333.0</ele><time>2026-04-04T13:20:17.999Z</time></trkpt><trkpt lat="41.00405518280141" lon="14.864640377809986"><ele>333.0</ele><time>2026-04-04T13:20:18.999Z</time></trkpt><trkpt lat="41.00398987792621" lon="14.864482434650233"><ele>333.0</ele><time>2026-04-04T13:20:19.999Z</time></trkpt><trkpt lat="41.0039302037318" lon="14.864294242713775"><ele>333.0</ele><time>2026-04-04T13:20:20.999Z</time></trkpt><trkpt lat="41.00385527967015" lon="14.864101452124892"><ele>332.0</ele><time>2026-04-04T13:20:21.999Z</time></trkpt><trkpt lat="41.00378956248704" lon="14.863930581945406"><ele>331.0</ele><time>2026-04-04T13:20:22.999Z</time></trkpt><trkpt lat="41.00371044421724" lon="14.863773048581672"><ele>330.0</ele><time>2026-04-04T13:20:23.999Z</time></trkpt><trkpt lat="41.00365194687305" lon="14.863616214040789"><ele>329.0</ele><time>2026-04-04T13:20:24.999Z</time></trkpt><trkpt lat="41.00359749720674" lon="14.863475080786516"><ele>328.75</ele><time>2026-04-04T13:20:25.999Z</time></trkpt><trkpt lat="41.00355295855411" lon="14.863338683029685"><ele>328.5</ele><time>2026-04-04T13:20:26.999Z</time></trkpt><trkpt lat="41.00353155448431" lon="14.863179706045148"><ele>328.25</ele><time>2026-04-04T13:20:27.999Z</time></trkpt><trkpt lat="41.00354707695722" lon="14.863024968049954"><ele>328.0</ele><time>2026-04-04T13:20:28.999Z</time></trkpt><trkpt lat="41.0036049414474" lon="14.862894985744422"><ele>328.0</ele><time>2026-04-04T13:20:29.999Z</time></trkpt><trkpt lat="41.00371178181632" lon="14.862786815509335"><ele>328.0</ele><time>2026-04-04T13:20:30.999Z</time></trkpt><trkpt lat="41.00385498190059" lon="14.862667197455329"><ele>328.0</ele><time>2026-04-04T13:20:31.999Z</time></trkpt><trkpt lat="41.00399727824737" lon="14.862536322146912"><ele>327.3333333333333</ele><time>2026-04-04T13:20:32.999Z</time></trkpt><trkpt lat="41.00411831276637" lon="14.862378135845312"><ele>326.6666666666667</ele><time>2026-04-04T13:20:33.999Z</time></trkpt><trkpt lat="41.00421655357677" lon="14.862210425813755"><ele>326.0</ele><time>2026-04-04T13:20:34.999Z</time></trkpt><trkpt lat="41.00430027239954" lon="14.86203810354029"><ele>326.0</ele><time>2026-04-04T13:20:35.999Z</time></trkpt><trkpt lat="41.0043843420431" lon="14.86188846205945"><ele>326.0</ele><time>2026-04-04T13:20:36.999Z</time></trkpt><trkpt lat="41.00444712814716" lon="14.861748825354553"><ele>326.0</ele><time>2026-04-04T13:20:37.999Z</time></trkpt><trkpt lat="41.00451028075552" lon="14.861643906767817"><ele>326.0</ele><time>2026-04-04T13:20:38.999Z</time></trkpt><trkpt lat="41.004579510163715" lon="14.861566741477926"><ele>326.0</ele><time>2026-04-04T13:20:39.999Z</time></trkpt><trkpt lat="41.00467825845808" lon="14.861559982243836"><ele>326.0</ele><time>2026-04-04T13:20:40.999Z</time></trkpt><trkpt lat="41.00476547623129" lon="14.861620071603081"><ele>326.0</ele><time>2026-04-04T13:20:41.999Z</time></trkpt><trkpt lat="41.00482609966592" lon="14.861738872146098"><ele>326.0</ele><time>2026-04-04T13:20:42.999Z</time></trkpt><trkpt lat="41.00488856631185" lon="14.861873403817684"><ele>326.0</ele><time>2026-04-04T13:20:43.999Z</time></trkpt><trkpt lat="41.00498647801943" lon="14.861984405990356"><ele>326.0</ele><time>2026-04-04T13:20:44.999Z</time></trkpt><trkpt lat="41.00511517995885" lon="14.86206964903656"><ele>326.0</ele><time>2026-04-04T13:20:45.999Z</time></trkpt><trkpt lat="41.005263303369865" lon="14.862136958195014"><ele>326.0</ele><time>2026-04-04T13:20:46.999Z</time></trkpt><trkpt lat="41.00539845102978" lon="14.862186946593225"><ele>326.0</ele><time>2026-04-04T13:20:47.999Z</time></trkpt><trkpt lat="41.00552627941526" lon="14.862218013856893"><ele>326.0</ele><time>2026-04-04T13:20:48.999Z</time></trkpt><trkpt lat="41.00563185638639" lon="14.862259117783356"><ele>326.0</ele><time>2026-04-04T13:20:49.999Z</time></trkpt><trkpt lat="41.00573540092844" lon="14.862278824036432"><ele>326.0</ele><time>2026-04-04T13:20:50.999Z</time></trkpt><trkpt lat="41.00583269162034" lon="14.862255943667963"><ele>326.0</ele><time>2026-04-04T13:20:51.999Z</time></trkpt><trkpt lat="41.00591031769797" lon="14.862182387517374"><ele>326.0</ele><time>2026-04-04T13:20:52.999Z</time></trkpt><trkpt lat="41.00594823192731" lon="14.862067630473886"><ele>324.75</ele><time>2026-04-04T13:20:53.999Z</time></trkpt><trkpt lat="41.00592654572858" lon="14.861942645610464"><ele>323.5</ele><time>2026-04-04T13:20:54.999Z</time></trkpt><trkpt lat="41.0058502564311" lon="14.861831558931971"><ele>322.25</ele><time>2026-04-04T13:20:55.999Z</time></trkpt><trkpt lat="41.00573850320417" lon="14.861731391452398"><ele>321.0</ele><time>2026-04-04T13:20:56.999Z</time></trkpt><trkpt lat="41.00560099264396" lon="14.861652354330735"><ele>319.3333333333333</ele><time>2026-04-04T13:20:57.999Z</time></trkpt><trkpt lat="41.00546944768191" lon="14.861565886846765"><ele>317.66666666666663</ele><time>2026-04-04T13:20:58.999Z</time></trkpt><trkpt lat="41.00534000700849" lon="14.861455065527322"><ele>316.0</ele><time>2026-04-04T13:20:59.999Z</time></trkpt><trkpt lat="41.0052377159247" lon="14.861304404134568"><ele>316.0</ele><time>2026-04-04T13:21:00.999Z</time></trkpt><trkpt lat="41.00513402845561" lon="14.861136793459908"><ele>316.0</ele><time>2026-04-04T13:21:01.999Z</time></trkpt><trkpt lat="41.00501235714499" lon="14.860972813814845"><ele>316.0</ele><time>2026-04-04T13:21:02.998Z</time></trkpt><trkpt lat="41.0049040385103" lon="14.860797198753763"><ele>313.66666666666663</ele><time>2026-04-04T13:21:03.998Z</time></trkpt><trkpt lat="41.00479181274586" lon="14.860647147462505"><ele>311.3333333333333</ele><time>2026-04-04T13:21:04.998Z</time></trkpt><trkpt lat="41.00467136765067" lon="14.860507166124963"><ele>309.0</ele><time>2026-04-04T13:21:05.998Z</time></trkpt><trkpt lat="41.00454274406544" lon="14.860376303688962"><ele>309.0</ele><time>2026-04-04T13:21:06.998Z</time></trkpt><trkpt lat="41.00440197776147" lon="14.860264528582825"><ele>309.0</ele><time>2026-04-04T13:21:07.998Z</time></trkpt><trkpt lat="41.004253609148236" lon="14.8601776899741"><ele>309.0</ele><time>2026-04-04T13:21:08.998Z</time></trkpt><trkpt lat="41.00411118432534" lon="14.860096124439188"><ele>304.6666666666667</ele><time>2026-04-04T13:21:09.998Z</time></trkpt><trkpt lat="41.003973301558815" lon="14.860017019732567"><ele>300.33333333333337</ele><time>2026-04-04T13:21:10.998Z</time></trkpt><trkpt lat="41.003824862464676" lon="14.85992924896226"><ele>296.0</ele><time>2026-04-04T13:21:11.998Z</time></trkpt><trkpt lat="41.003677800399345" lon="14.859859279880139"><ele>296.0</ele><time>2026-04-04T13:21:13Z</time></trkpt><trkpt lat="41.00353020934094" lon="14.85982549294826"><ele>296.0</ele><time>2026-04-04T13:21:14Z</time></trkpt><trkpt lat="41.003399996624836" lon="14.859840817651513"><ele>296.0</ele><time>2026-04-04T13:21:15Z</time></trkpt><trkpt lat="41.00329252222241" lon="14.859895728301714"><ele>296.0</ele><time>2026-04-04T13:21:16Z</time></trkpt><trkpt lat="41.00317850854501" lon="14.859950536811072"><ele>294.25</ele><time>2026-04-04T13:21:17Z</time></trkpt><trkpt lat="41.00306722617285" lon="14.859975120231399"><ele>292.5</ele><time>2026-04-04T13:21:18Z</time></trkpt><trkpt lat="41.00295318396813" lon="14.859941965973553"><ele>290.75</ele><time>2026-04-04T13:21:19Z</time></trkpt><trkpt lat="41.00286653046075" lon="14.859841042243703"><ele>289.0</ele><time>2026-04-04T13:21:20Z</time></trkpt><trkpt lat="41.00282032684303" lon="14.859702878232719"><ele>289.0</ele><time>2026-04-04T13:21:21Z</time></trkpt><trkpt lat="41.00278310927964" lon="14.85954883038492"><ele>289.0</ele><time>2026-04-04T13:21:22Z</time></trkpt><trkpt lat="41.002762814035556" lon="14.859404929120528"><ele>289.0</ele><time>2026-04-04T13:21:23Z</time></trkpt><trkpt lat="41.00274668693692" lon="14.859277141931825"><ele>289.0</ele><time>2026-04-04T13:21:24Z</time></trkpt><trkpt lat="41.00268714670367" lon="14.859173019226208"><ele>289.0</ele><time>2026-04-04T13:21:25Z</time></trkpt><trkpt lat="41.00260697477532" lon="14.859097749418298"><ele>291.75</ele><time>2026-04-04T13:21:26Z</time></trkpt><trkpt lat="41.002492466533525" lon="14.85905042337493"><ele>294.5</ele><time>2026-04-04T13:21:27Z</time></trkpt><trkpt lat="41.00236520968063" lon="14.859060196204684"><ele>297.25</ele><time>2026-04-04T13:21:28Z</time></trkpt><trkpt lat="41.00222664466592" lon="14.859085879040329"><ele>300.0</ele><time>2026-04-04T13:21:29Z</time></trkpt><trkpt lat="41.002078909207086" lon="14.859109327464859"><ele>300.0</ele><time>2026-04-04T13:21:30Z</time></trkpt><trkpt lat="41.001918794957234" lon="14.859120455996065"><ele>300.0</ele><time>2026-04-04T13:21:31Z</time></trkpt><trkpt lat="41.00175247646175" lon="14.859133138025308"><ele>300.0</ele><time>2026-04-04T13:21:32Z</time></trkpt><trkpt lat="41.00156403083335" lon="14.859141800648443"><ele>302.3333333333333</ele><time>2026-04-04T13:21:33Z</time></trkpt><trkpt lat="41.00134745384245" lon="14.859178457007756"><ele>304.66666666666663</ele><time>2026-04-04T13:21:34Z</time></trkpt><trkpt lat="41.00114187618673" lon="14.85922834492388"><ele>307.0</ele><time>2026-04-04T13:21:35Z</time></trkpt><trkpt lat="41.000954896422535" lon="14.8592747033971"><ele>303.66666666666663</ele><time>2026-04-04T13:21:36Z</time></trkpt><trkpt lat="41.00077907451197" lon="14.859340253975178"><ele>300.3333333333333</ele><time>2026-04-04T13:21:37Z</time></trkpt><trkpt lat="41.0006279509033" lon="14.859412883357576"><ele>297.0</ele><time>2026-04-04T13:21:38Z</time></trkpt><trkpt lat="41.000490082253236" lon="14.859470459220686"><ele>297.0</ele><time>2026-04-04T13:21:39Z</time></trkpt><trkpt lat="41.000355371134255" lon="14.859503370843482"><ele>297.0</ele><time>2026-04-04T13:21:40Z</time></trkpt><trkpt lat="41.000205038068174" lon="14.859500836990335"><ele>297.0</ele><time>2026-04-04T13:21:41Z</time></trkpt><trkpt lat="41.00004194143982" lon="14.859469699745173"><ele>297.0</ele><time>2026-04-04T13:21:42Z</time></trkpt><trkpt lat="40.99989627714089" lon="14.859426361135597"><ele>297.0</ele><time>2026-04-04T13:21:43Z</time></trkpt><trkpt lat="40.99974753461969" lon="14.859379175732679"><ele>297.0</ele><time>2026-04-04T13:21:44Z</time></trkpt><trkpt lat="40.99959833011138" lon="14.859338678454897"><ele>301.0</ele><time>2026-04-04T13:21:45Z</time></trkpt><trkpt lat="40.99944343237055" lon="14.859278256642822"><ele>305.0</ele><time>2026-04-04T13:21:46Z</time></trkpt><trkpt lat="40.99927771972428" lon="14.859232705701132"><ele>309.0</ele><time>2026-04-04T13:21:47Z</time></trkpt><trkpt lat="40.99912097907375" lon="14.859189945420868"><ele>309.0</ele><time>2026-04-04T13:21:48Z</time></trkpt><trkpt lat="40.999024681268736" lon="14.859163674510839"><ele>309.0</ele><time>2026-04-04T13:21:49Z</time></trkpt><trkpt lat="40.99894568312724" lon="14.859144467739418"><ele>309.0</ele><time>2026-04-04T13:21:51Z</time></trkpt><trkpt lat="40.998999302223794" lon="14.859087493050328"><ele>309.0</ele><time>2026-04-04T13:21:53Z</time></trkpt><trkpt lat="40.999067603615806" lon="14.859119253768416"><ele>309.0</ele><time>2026-04-04T13:21:54Z</time></trkpt><trkpt lat="40.99921413174727" lon="14.859050787041763"><ele>309.6666666666667</ele><time>2026-04-04T13:21:55Z</time></trkpt><trkpt lat="40.9993580666243" lon="14.859010319889457"><ele>310.33333333333337</ele><time>2026-04-04T13:21:56Z</time></trkpt><trkpt lat="40.999504940063346" lon="14.858995168255579"><ele>311.0</ele><time>2026-04-04T13:21:57Z</time></trkpt><trkpt lat="40.99966583857628" lon="14.858984817973012"><ele>311.0</ele><time>2026-04-04T13:21:58Z</time></trkpt><trkpt lat="40.99983091129331" lon="14.85898536048918"><ele>311.0</ele><time>2026-04-04T13:21:59Z</time></trkpt><trkpt lat="40.99997666990287" lon="14.858985755235274"><ele>311.0</ele><time>2026-04-04T13:22:00Z</time></trkpt><trkpt lat="41.00010705894039" lon="14.858945623824056"><ele>311.0</ele><time>2026-04-04T13:22:01Z</time></trkpt><trkpt lat="41.000237516492575" lon="14.858863666061115"><ele>311.0</ele><time>2026-04-04T13:22:02Z</time></trkpt><trkpt lat="41.00037080263653" lon="14.858748353526197"><ele>311.0</ele><time>2026-04-04T13:22:03Z</time></trkpt><trkpt lat="41.000487234491594" lon="14.858614560068125"><ele>311.0</ele><time>2026-04-04T13:22:04Z</time></trkpt><trkpt lat="41.00058463074302" lon="14.858503618314392"><ele>311.0</ele><time>2026-04-04T13:22:05Z</time></trkpt><trkpt lat="41.000687842936955" lon="14.858398466137027"><ele>310.0</ele><time>2026-04-04T13:22:06Z</time></trkpt><trkpt lat="41.000815153000346" lon="14.858362968093726"><ele>309.0</ele><time>2026-04-04T13:22:07Z</time></trkpt><trkpt lat="41.00093340980458" lon="14.858366717540118"><ele>308.0</ele><time>2026-04-04T13:22:08Z</time></trkpt><trkpt lat="41.00106479843636" lon="14.858410226308512"><ele>307.0</ele><time>2026-04-04T13:22:08.999Z</time></trkpt><trkpt lat="41.00119002678472" lon="14.85847866237649"><ele>307.0</ele><time>2026-04-04T13:22:09.999Z</time></trkpt><trkpt lat="41.00127374586024" lon="14.858522467822343"><ele>307.0</ele><time>2026-04-04T13:22:10.999Z</time></trkpt><trkpt lat="41.00135298042486" lon="14.858499763479493"><ele>307.0</ele><time>2026-04-04T13:22:11.999Z</time></trkpt><trkpt lat="41.001420038495034" lon="14.85839873498728"><ele>307.0</ele><time>2026-04-04T13:22:12.999Z</time></trkpt><trkpt lat="41.001441778758156" lon="14.858235143947189"><ele>307.0</ele><time>2026-04-04T13:22:13.999Z</time></trkpt><trkpt lat="41.00144153051249" lon="14.858050503810658"><ele>313.3333333333333</ele><time>2026-04-04T13:22:14.999Z</time></trkpt><trkpt lat="41.0013958947032" lon="14.857836123988953"><ele>319.6666666666667</ele><time>2026-04-04T13:22:15.999Z</time></trkpt><trkpt lat="41.00133666675452" lon="14.857640259374723"><ele>326.0</ele><time>2026-04-04T13:22:16.999Z</time></trkpt><trkpt lat="41.001245962379194" lon="14.857458415485874"><ele>331.0</ele><time>2026-04-04T13:22:17.999Z</time></trkpt><trkpt lat="41.001128579984844" lon="14.85727721978353"><ele>336.0</ele><time>2026-04-04T13:22:18.999Z</time></trkpt><trkpt lat="41.00105281680537" lon="14.857079587935168"><ele>341.0</ele><time>2026-04-04T13:22:19.999Z</time></trkpt><trkpt lat="41.00095931533624" lon="14.856919332345058"><ele>341.0</ele><time>2026-04-04T13:22:20.999Z</time></trkpt><trkpt lat="41.00088889041687" lon="14.85673427680878"><ele>341.0</ele><time>2026-04-04T13:22:21.999Z</time></trkpt><trkpt lat="41.000817584094094" lon="14.856576629386858"><ele>341.0</ele><time>2026-04-04T13:22:22.999Z</time></trkpt><trkpt lat="41.00078763866925" lon="14.856431218085671"><ele>341.0</ele><time>2026-04-04T13:22:23.999Z</time></trkpt><trkpt lat="41.0007937749725" lon="14.856285197686228"><ele>341.0</ele><time>2026-04-04T13:22:24.999Z</time></trkpt><trkpt lat="41.00082856284516" lon="14.856149022959618"><ele>341.0</ele><time>2026-04-04T13:22:25.999Z</time></trkpt><trkpt lat="41.000896316837355" lon="14.856028982535507"><ele>341.0</ele><time>2026-04-04T13:22:26.999Z</time></trkpt><trkpt lat="41.000957164001925" lon="14.855935218732384"><ele>341.0</ele><time>2026-04-04T13:22:27.999Z</time></trkpt><trkpt lat="41.00104407887708" lon="14.855846528751892"><ele>341.0</ele><time>2026-04-04T13:22:28.999Z</time></trkpt><trkpt lat="41.001135296978944" lon="14.855783564353596"><ele>341.20000000000005</ele><time>2026-04-04T13:22:29.999Z</time></trkpt><trkpt lat="41.001241656996925" lon="14.855747428680072"><ele>341.40000000000003</ele><time>2026-04-04T13:22:30.999Z</time></trkpt><trkpt lat="41.00134410720075" lon="14.855735949870331"><ele>341.6</ele><time>2026-04-04T13:22:31.999Z</time></trkpt><trkpt lat="41.0014517941732" lon="14.85570551417652"><ele>341.8</ele><time>2026-04-04T13:22:32.999Z</time></trkpt><trkpt lat="41.001557066967536" lon="14.855663288402214"><ele>342.0</ele><time>2026-04-04T13:22:33.999Z</time></trkpt><trkpt lat="41.00165568834299" lon="14.855591370674299"><ele>340.0</ele><time>2026-04-04T13:22:34.999Z</time></trkpt><trkpt lat="41.00175131678957" lon="14.855495997906658"><ele>338.0</ele><time>2026-04-04T13:22:35.999Z</time></trkpt><trkpt lat="41.0018369740326" lon="14.85537992852932"><ele>336.0</ele><time>2026-04-04T13:22:36.999Z</time></trkpt><trkpt lat="41.00192554013078" lon="14.855266328419685"><ele>334.0</ele><time>2026-04-04T13:22:37.999Z</time></trkpt><trkpt lat="41.0020300400732" lon="14.855169726114475"><ele>337.5</ele><time>2026-04-04T13:22:38.999Z</time></trkpt><trkpt lat="41.002148191841194" lon="14.855114682977126"><ele>341.0</ele><time>2026-04-04T13:22:39.999Z</time></trkpt><trkpt lat="41.00228056691255" lon="14.855089924882272"><ele>344.5</ele><time>2026-04-04T13:22:40.999Z</time></trkpt><trkpt lat="41.002410256741115" lon="14.855074439112524"><ele>348.0</ele><time>2026-04-04T13:22:41.999Z</time></trkpt><trkpt lat="41.00254348252637" lon="14.855043888923133"><ele>348.0</ele><time>2026-04-04T13:22:42.999Z</time></trkpt><trkpt lat="41.00267494297423" lon="14.854996982130638"><ele>348.0</ele><time>2026-04-04T13:22:43.999Z</time></trkpt><trkpt lat="41.002809385004646" lon="14.854947489266278"><ele>348.0</ele><time>2026-04-04T13:22:44.999Z</time></trkpt><trkpt lat="41.0029394051917" lon="14.854903221791893"><ele>348.0</ele><time>2026-04-04T13:22:45.999Z</time></trkpt><trkpt lat="41.00306111331803" lon="14.85484695391663"><ele>348.0</ele><time>2026-04-04T13:22:46.999Z</time></trkpt><trkpt lat="41.00317408156006" lon="14.85477167206632"><ele>348.0</ele><time>2026-04-04T13:22:47.999Z</time></trkpt><trkpt lat="41.003276605066866" lon="14.854673717365314"><ele>348.0</ele><time>2026-04-04T13:22:48.999Z</time></trkpt><trkpt lat="41.00337430960144" lon="14.854564972262194"><ele>348.0</ele><time>2026-04-04T13:22:49.999Z</time></trkpt><trkpt lat="41.003473397155894" lon="14.854461713961916"><ele>347.79999999999995</ele><time>2026-04-04T13:22:50.999Z</time></trkpt><trkpt lat="41.0035713404482" lon="14.854359676399168"><ele>347.6</ele><time>2026-04-04T13:22:51.999Z</time></trkpt><trkpt lat="41.003672213748004" lon="14.854259926228314"><ele>347.4</ele><time>2026-04-04T13:22:52.999Z</time></trkpt><trkpt lat="41.00374435575346" lon="14.854184389632087"><ele>347.20000000000005</ele><time>2026-04-04T13:22:53.999Z</time></trkpt><trkpt lat="41.0038320529978" lon="14.854126605222888"><ele>347.0</ele><time>2026-04-04T13:22:54.999Z</time></trkpt><trkpt lat="41.00392661896154" lon="14.854110115658976"><ele>348.8</ele><time>2026-04-04T13:22:55.999Z</time></trkpt><trkpt lat="41.004027840185444" lon="14.854131752496953"><ele>350.6</ele><time>2026-04-04T13:22:56.999Z</time></trkpt><trkpt lat="41.00412925061736" lon="14.854175202576563"><ele>352.40000000000003</ele><time>2026-04-04T13:22:57.999Z</time></trkpt><trkpt lat="41.004238611205" lon="14.854199855180722"><ele>354.20000000000005</ele><time>2026-04-04T13:22:58.999Z</time></trkpt><trkpt lat="41.0043567044414" lon="14.854177088767656"><ele>356.0</ele><time>2026-04-04T13:22:59.999Z</time></trkpt><trkpt lat="41.00447511678375" lon="14.854115216634327"><ele>356.0</ele><time>2026-04-04T13:23:00.999Z</time></trkpt><trkpt lat="41.00459204683032" lon="14.854048421548729"><ele>356.0</ele><time>2026-04-04T13:23:01.999Z</time></trkpt><trkpt lat="41.00471242336099" lon="14.853977381405583"><ele>356.0</ele><time>2026-04-04T13:23:02.999Z</time></trkpt><trkpt lat="41.00482900947924" lon="14.853912433447636"><ele>356.0</ele><time>2026-04-04T13:23:03.999Z</time></trkpt><trkpt lat="41.00494439302015" lon="14.8538504879915"><ele>355.25</ele><time>2026-04-04T13:23:04.999Z</time></trkpt><trkpt lat="41.00504847641175" lon="14.853796060845012"><ele>354.5</ele><time>2026-04-04T13:23:05.999Z</time></trkpt><trkpt lat="41.00515990737075" lon="14.853728379086162"><ele>353.75</ele><time>2026-04-04T13:23:06.999Z</time></trkpt><trkpt lat="41.00526917482541" lon="14.853645753959723"><ele>353.0</ele><time>2026-04-04T13:23:07.999Z</time></trkpt><trkpt lat="41.005383247950384" lon="14.853566570322872"><ele>354.25</ele><time>2026-04-04T13:23:08.999Z</time></trkpt><trkpt lat="41.00546667363253" lon="14.85345403144819"><ele>355.5</ele><time>2026-04-04T13:23:09.999Z</time></trkpt><trkpt lat="41.00555452670215" lon="14.853354790986971"><ele>356.75</ele><time>2026-04-04T13:23:10.999Z</time></trkpt><trkpt lat="41.00564718966987" lon="14.853246825944273"><ele>358.0</ele><time>2026-04-04T13:23:11.999Z</time></trkpt><trkpt lat="41.005744410340945" lon="14.853129793402859"><ele>358.0</ele><time>2026-04-04T13:23:12.999Z</time></trkpt><trkpt lat="41.00582806583281" lon="14.853004200068616"><ele>358.0</ele><time>2026-04-04T13:23:13.999Z</time></trkpt><trkpt lat="41.005904787106154" lon="14.85286550973412"><ele>358.0</ele><time>2026-04-04T13:23:14.999Z</time></trkpt><trkpt lat="41.00597802779856" lon="14.85271820175412"><ele>358.0</ele><time>2026-04-04T13:23:15.999Z</time></trkpt><trkpt lat="41.00604049732682" lon="14.8525648027693"><ele>358.79999999999995</ele><time>2026-04-04T13:23:16.999Z</time></trkpt><trkpt lat="41.0060952983621" lon="14.852414459042551"><ele>359.6</ele><time>2026-04-04T13:23:17.999Z</time></trkpt><trkpt lat="41.006137885720534" lon="14.852290287379725"><ele>360.4</ele><time>2026-04-04T13:23:19Z</time></trkpt><trkpt lat="41.00615323690981" lon="14.852176753161999"><ele>361.20000000000005</ele><time>2026-04-04T13:23:20Z</time></trkpt><trkpt lat="41.00612724921659" lon="14.85204730978647"><ele>362.0</ele><time>2026-04-04T13:23:21Z</time></trkpt><trkpt lat="41.00607440356143" lon="14.851896990847473"><ele>363.33333333333337</ele><time>2026-04-04T13:23:22Z</time></trkpt><trkpt lat="41.00601938018002" lon="14.85173095913794"><ele>364.6666666666667</ele><time>2026-04-04T13:23:23Z</time></trkpt><trkpt lat="41.005988129448035" lon="14.851531007869545"><ele>366.0</ele><time>2026-04-04T13:23:24Z</time></trkpt><trkpt lat="41.00597209065672" lon="14.851315065892466"><ele>366.0</ele><time>2026-04-04T13:23:25Z</time></trkpt><trkpt lat="41.00596376812535" lon="14.8511049170264"><ele>366.0</ele><time>2026-04-04T13:23:26Z</time></trkpt><trkpt lat="41.00596426180554" lon="14.850895786823997"><ele>366.0</ele><time>2026-04-04T13:23:27Z</time></trkpt><trkpt lat="41.00598753316202" lon="14.850680576465152"><ele>367.6666666666667</ele><time>2026-04-04T13:23:28Z</time></trkpt><trkpt lat="41.006029770078015" lon="14.850436587019432"><ele>369.33333333333337</ele><time>2026-04-04T13:23:29Z</time></trkpt><trkpt lat="41.00606661126439" lon="14.850222060001906"><ele>371.0</ele><time>2026-04-04T13:23:30Z</time></trkpt><trkpt lat="41.00609408570971" lon="14.850027445202535"><ele>372.25</ele><time>2026-04-04T13:23:31Z</time></trkpt><trkpt lat="41.0061169938584" lon="14.849864696040989"><ele>373.5</ele><time>2026-04-04T13:23:32Z</time></trkpt><trkpt lat="41.006099980490944" lon="14.849733258316327"><ele>374.75</ele><time>2026-04-04T13:23:33Z</time></trkpt><trkpt lat="41.006027670241316" lon="14.849626091654155"><ele>376.0</ele><time>2026-04-04T13:23:34Z</time></trkpt><trkpt lat="41.00590868881986" lon="14.849538693100875"><ele>377.0</ele><time>2026-04-04T13:23:35Z</time></trkpt><trkpt lat="41.00577843539374" lon="14.849468389614797"><ele>378.0</ele><time>2026-04-04T13:23:36Z</time></trkpt><trkpt lat="41.00563849433196" lon="14.849406412567285"><ele>379.0</ele><time>2026-04-04T13:23:37Z</time></trkpt><trkpt lat="41.00551302586886" lon="14.849347303688145"><ele>380.0</ele><time>2026-04-04T13:23:38Z</time></trkpt><trkpt lat="41.00540115888193" lon="14.84924066053697"><ele>380.0</ele><time>2026-04-04T13:23:39Z</time></trkpt><trkpt lat="41.0053296199834" lon="14.849090081584654"><ele>380.0</ele><time>2026-04-04T13:23:40Z</time></trkpt><trkpt lat="41.005275591877265" lon="14.848903914014947"><ele>380.0</ele><time>2026-04-04T13:23:41Z</time></trkpt><trkpt lat="41.005246567389065" lon="14.84870660055507"><ele>380.0</ele><time>2026-04-04T13:23:42Z</time></trkpt><trkpt lat="41.00524400000458" lon="14.848503612276158"><ele>382.0</ele><time>2026-04-04T13:23:43Z</time></trkpt><trkpt lat="41.005235412459875" lon="14.848295966103096"><ele>384.0</ele><time>2026-04-04T13:23:44Z</time></trkpt><trkpt lat="41.00520502782649" lon="14.848117904588308"><ele>386.0</ele><time>2026-04-04T13:23:45Z</time></trkpt><trkpt lat="41.00516513343356" lon="14.847941855111092"><ele>388.0</ele><time>2026-04-04T13:23:46Z</time></trkpt><trkpt lat="41.005121445880796" lon="14.847781160796876"><ele>390.0</ele><time>2026-04-04T13:23:47Z</time></trkpt><trkpt lat="41.0050847022655" lon="14.847626536165194"><ele>392.0</ele><time>2026-04-04T13:23:48Z</time></trkpt><trkpt lat="41.005055321056716" lon="14.847457860462127"><ele>394.0</ele><time>2026-04-04T13:23:49Z</time></trkpt><trkpt lat="41.00502996884627" lon="14.84729798535065"><ele>396.0</ele><time>2026-04-04T13:23:50Z</time></trkpt><trkpt lat="41.00500745083795" lon="14.847156557876819"><ele>395.5</ele><time>2026-04-04T13:23:51Z</time></trkpt><trkpt lat="41.00497982365773" lon="14.847020787176339"><ele>395.0</ele><time>2026-04-04T13:23:52Z</time></trkpt><trkpt lat="41.00493528520192" lon="14.846902592165359"><ele>394.5</ele><time>2026-04-04T13:23:53Z</time></trkpt><trkpt lat="41.00485860389343" lon="14.846798028029717"><ele>394.0</ele><time>2026-04-04T13:23:54Z</time></trkpt><trkpt lat="41.00478234607062" lon="14.846608392283994"><ele>394.0</ele><time>2026-04-04T13:23:55Z</time></trkpt><trkpt lat="41.00467922959561" lon="14.84639507804001"><ele>394.0</ele><time>2026-04-04T13:23:56Z</time></trkpt><trkpt lat="41.0045979754253" lon="14.84622065995453"><ele>394.0</ele><time>2026-04-04T13:23:57Z</time></trkpt><trkpt lat="41.00452505872348" lon="14.846080044049401"><ele>394.0</ele><time>2026-04-04T13:23:58Z</time></trkpt><trkpt lat="41.00446897903125" lon="14.845962373900699"><ele>394.0</ele><time>2026-04-04T13:23:59Z</time></trkpt><trkpt lat="41.00442621755123" lon="14.845862399011473"><ele>394.0</ele><time>2026-04-04T13:24:00Z</time></trkpt><trkpt lat="41.00444639451636" lon="14.845754507159336"><ele>394.0</ele><time>2026-04-04T13:24:02Z</time></trkpt><trkpt lat="41.00459427162162" lon="14.84577281661212"><ele>394.0</ele><time>2026-04-04T13:24:03Z</time></trkpt><trkpt lat="41.004716434669874" lon="14.845819161305043"><ele>397.6666666666667</ele><time>2026-04-04T13:24:04Z</time></trkpt><trkpt lat="41.00487785168464" lon="14.84588731976372"><ele>401.33333333333337</ele><time>2026-04-04T13:24:05Z</time></trkpt><trkpt lat="41.00502338055717" lon="14.845934674655302"><ele>405.0</ele><time>2026-04-04T13:24:06Z</time></trkpt><trkpt lat="41.00517133779322" lon="14.845964275428503"><ele>405.0</ele><time>2026-04-04T13:24:07Z</time></trkpt><trkpt lat="41.00531784540055" lon="14.845989699495798"><ele>405.0</ele><time>2026-04-04T13:24:08Z</time></trkpt><trkpt lat="41.00546120214804" lon="14.846017313664836"><ele>405.0</ele><time>2026-04-04T13:24:09Z</time></trkpt><trkpt lat="41.005600068173685" lon="14.84605568527064"><ele>405.0</ele><time>2026-04-04T13:24:10Z</time></trkpt><trkpt lat="41.00574278093731" lon="14.84607717445833"><ele>407.25</ele><time>2026-04-04T13:24:11Z</time></trkpt><trkpt lat="41.00587737704435" lon="14.84612893944805"><ele>409.5</ele><time>2026-04-04T13:24:12Z</time></trkpt><trkpt lat="41.006005140385284" lon="14.846208294571415"><ele>411.75</ele><time>2026-04-04T13:24:13Z</time></trkpt><trkpt lat="41.006143312366966" lon="14.84629453325164"><ele>414.0</ele><time>2026-04-04T13:24:14Z</time></trkpt><trkpt lat="41.00627092090373" lon="14.846361849645664"><ele>414.0</ele><time>2026-04-04T13:24:15Z</time></trkpt><trkpt lat="41.00640393043767" lon="14.846419926807721"><ele>414.0</ele><time>2026-04-04T13:24:16Z</time></trkpt><trkpt lat="41.00653401807478" lon="14.84646823029313"><ele>414.0</ele><time>2026-04-04T13:24:17Z</time></trkpt><trkpt lat="41.00666574706527" lon="14.846522040344766"><ele>414.0</ele><time>2026-04-04T13:24:17.999Z</time></trkpt><trkpt lat="41.00679087324063" lon="14.846589427889143"><ele>416.75</ele><time>2026-04-04T13:24:18.999Z</time></trkpt><trkpt lat="41.00691252241787" lon="14.84665229762152"><ele>419.5</ele><time>2026-04-04T13:24:19.999Z</time></trkpt><trkpt lat="41.007034366363136" lon="14.846689861357394"><ele>422.25</ele><time>2026-04-04T13:24:20.999Z</time></trkpt><trkpt lat="41.00714342220042" lon="14.846705705132905"><ele>425.0</ele><time>2026-04-04T13:24:21.999Z</time></trkpt><trkpt lat="41.007235693163985" lon="14.84672016303584"><ele>425.0</ele><time>2026-04-04T13:24:22.999Z</time></trkpt><trkpt lat="41.00737620199063" lon="14.846734402511428"><ele>425.0</ele><time>2026-04-04T13:24:24.999Z</time></trkpt><trkpt lat="41.007400411646955" lon="14.846590339801287"><ele>425.0</ele><time>2026-04-04T13:24:28.999Z</time></trkpt><trkpt lat="41.00733150697814" lon="14.84647339843263"><ele>425.0</ele><time>2026-04-04T13:24:29.999Z</time></trkpt><trkpt lat="41.007269885086544" lon="14.846383628480929"><ele>425.0</ele><time>2026-04-04T13:24:30.999Z</time></trkpt><trkpt lat="41.00720974790505" lon="14.846290235778731"><ele>425.0</ele><time>2026-04-04T13:24:31.999Z</time></trkpt><trkpt lat="41.00718571683758" lon="14.846160882522922"><ele>425.0</ele><time>2026-04-04T13:24:32.999Z</time></trkpt><trkpt lat="41.00717590151572" lon="14.846047868529295"><ele>425.0</ele><time>2026-04-04T13:24:33.999Z</time></trkpt><trkpt lat="41.00714366408645" lon="14.845930198649905"><ele>425.0</ele><time>2026-04-04T13:24:34.999Z</time></trkpt><trkpt lat="41.00714074238962" lon="14.845800499140553"><ele>426.3333333333333</ele><time>2026-04-04T13:24:35.999Z</time></trkpt><trkpt lat="41.00713880689245" lon="14.845688072002933"><ele>427.66666666666663</ele><time>2026-04-04T13:24:36.999Z</time></trkpt><trkpt lat="41.00714271520892" lon="14.845566750484144"><ele>429.0</ele><time>2026-04-04T13:24:37.999Z</time></trkpt><trkpt lat="41.007146512012724" lon="14.845451994381117"><ele>430.33333333333337</ele><time>2026-04-04T13:24:38.999Z</time></trkpt><trkpt lat="41.007135088657286" lon="14.845346075207496"><ele>431.6666666666667</ele><time>2026-04-04T13:24:39.999Z</time></trkpt><trkpt lat="41.00712137633237" lon="14.845220533433832"><ele>433.0</ele><time>2026-04-04T13:24:40.999Z</time></trkpt><trkpt lat="41.00709677920253" lon="14.845084686840256"><ele>435.0</ele><time>2026-04-04T13:24:41.999Z</time></trkpt><trkpt lat="41.007075053376546" lon="14.844967607311137"><ele>436.99999999999994</ele><time>2026-04-04T13:24:42.999Z</time></trkpt><trkpt lat="41.007058400495694" lon="14.844854008398482"><ele>438.99999999999994</ele><time>2026-04-04T13:24:43.999Z</time></trkpt><trkpt lat="41.007067881497406" lon="14.844715491927072"><ele>441.0</ele><time>2026-04-04T13:24:44.999Z</time></trkpt><trkpt lat="41.00704647359997" lon="14.844588160036881"><ele>443.0</ele><time>2026-04-04T13:24:45.999Z</time></trkpt><trkpt lat="41.00703792985525" lon="14.844471933520595"><ele>443.0</ele><time>2026-04-04T13:24:46.999Z</time></trkpt><trkpt lat="41.00702391275926" lon="14.844351372646027"><ele>442.99999999999994</ele><time>2026-04-04T13:24:47.999Z</time></trkpt><trkpt lat="41.00703439429766" lon="14.844229460855212"><ele>442.99999999999994</ele><time>2026-04-04T13:24:48.999Z</time></trkpt><trkpt lat="41.00705505029419" lon="14.844122016235161"><ele>443.0</ele><time>2026-04-04T13:24:49.999Z</time></trkpt><trkpt lat="41.00710530733722" lon="14.844002442909414"><ele>443.0</ele><time>2026-04-04T13:24:50.999Z</time></trkpt><trkpt lat="41.00714128467896" lon="14.84388240571715"><ele>442.79999999999995</ele><time>2026-04-04T13:24:51.999Z</time></trkpt><trkpt lat="41.007183381361536" lon="14.84376716262117"><ele>442.59999999999997</ele><time>2026-04-04T13:24:52.999Z</time></trkpt><trkpt lat="41.007229048308574" lon="14.843642698545672"><ele>442.40000000000003</ele><time>2026-04-04T13:24:53.999Z</time></trkpt><trkpt lat="41.00728241974837" lon="14.843531957921744"><ele>442.20000000000005</ele><time>2026-04-04T13:24:54.999Z</time></trkpt><trkpt lat="41.00732690407025" lon="14.843394321983082"><ele>442.0</ele><time>2026-04-04T13:24:55.999Z</time></trkpt><trkpt lat="41.00737160027573" lon="14.843260551725715"><ele>442.0</ele><time>2026-04-04T13:24:56.999Z</time></trkpt><trkpt lat="41.00741348099954" lon="14.843131087534262"><ele>442.00000000000006</ele><time>2026-04-04T13:24:57.999Z</time></trkpt><trkpt lat="41.00745160254575" lon="14.84300314645816"><ele>442.00000000000006</ele><time>2026-04-04T13:24:58.999Z</time></trkpt><trkpt lat="41.00747874611126" lon="14.842865052638524"><ele>442.0</ele><time>2026-04-04T13:24:59.999Z</time></trkpt><trkpt lat="41.00749407293892" lon="14.84273848144046"><ele>442.0</ele><time>2026-04-04T13:25:00.999Z</time></trkpt><trkpt lat="41.007506496150235" lon="14.842615709931456"><ele>440.8</ele><time>2026-04-04T13:25:01.999Z</time></trkpt><trkpt lat="41.007527178296364" lon="14.842484009242252"><ele>439.6</ele><time>2026-04-04T13:25:02.999Z</time></trkpt><trkpt lat="41.00754638755032" lon="14.842363878227422"><ele>438.40000000000003</ele><time>2026-04-04T13:25:03.999Z</time></trkpt><trkpt lat="41.00755706441986" lon="14.842243183790332"><ele>437.20000000000005</ele><time>2026-04-04T13:25:04.999Z</time></trkpt><trkpt lat="41.00756185423665" lon="14.842109700179432"><ele>436.0</ele><time>2026-04-04T13:25:05.999Z</time></trkpt><trkpt lat="41.00754127642141" lon="14.841960205642383"><ele>436.0</ele><time>2026-04-04T13:25:06.999Z</time></trkpt><trkpt lat="41.00752413642621" lon="14.841802754108137"><ele>436.0</ele><time>2026-04-04T13:25:07.999Z</time></trkpt><trkpt lat="41.00751931127287" lon="14.841647617259493"><ele>436.0</ele><time>2026-04-04T13:25:08.999Z</time></trkpt><trkpt lat="41.007546841278575" lon="14.841494789264868"><ele>436.0</ele><time>2026-04-04T13:25:09.999Z</time></trkpt><trkpt lat="41.007597529660174" lon="14.841350210452829"><ele>434.20000000000005</ele><time>2026-04-04T13:25:10.999Z</time></trkpt><trkpt lat="41.007666331477886" lon="14.84123178347952"><ele>432.40000000000003</ele><time>2026-04-04T13:25:11.999Z</time></trkpt><trkpt lat="41.00773224705056" lon="14.841126218306275"><ele>430.6</ele><time>2026-04-04T13:25:12.999Z</time></trkpt><trkpt lat="41.0077865448001" lon="14.841037844011003"><ele>428.8</ele><time>2026-04-04T13:25:13.999Z</time></trkpt><trkpt lat="41.00780164067576" lon="14.840915531674645"><ele>427.0</ele><time>2026-04-04T13:25:14.999Z</time></trkpt><trkpt lat="41.0077899142608" lon="14.840789979410527"><ele>424.40000000000003</ele><time>2026-04-04T13:25:15.999Z</time></trkpt><trkpt lat="41.00777223269837" lon="14.840654384324802"><ele>421.80000000000007</ele><time>2026-04-04T13:25:16.999Z</time></trkpt><trkpt lat="41.007784961473746" lon="14.84052521360252"><ele>419.2</ele><time>2026-04-04T13:25:17.999Z</time></trkpt><trkpt lat="41.00781665911559" lon="14.84040783392069"><ele>416.6</ele><time>2026-04-04T13:25:18.999Z</time></trkpt><trkpt lat="41.007867658081544" lon="14.840280689325429"><ele>414.0</ele><time>2026-04-04T13:25:19.999Z</time></trkpt><trkpt lat="41.00792437050192" lon="14.840149965983437"><ele>412.0</ele><time>2026-04-04T13:25:20.999Z</time></trkpt><trkpt lat="41.007979587739584" lon="14.840021154000476"><ele>410.0</ele><time>2026-04-04T13:25:21.999Z</time></trkpt><trkpt lat="41.008027455339175" lon="14.839908652465487"><ele>408.0</ele><time>2026-04-04T13:25:22.999Z</time></trkpt><trkpt lat="41.008086398753385" lon="14.839787483058746"><ele>406.0</ele><time>2026-04-04T13:25:23.999Z</time></trkpt><trkpt lat="41.008161695401185" lon="14.83967210835086"><ele>404.0</ele><time>2026-04-04T13:25:25Z</time></trkpt><trkpt lat="41.00823125806772" lon="14.839542794079128"><ele>404.0</ele><time>2026-04-04T13:25:26Z</time></trkpt><trkpt lat="41.008281641538076" lon="14.83939516467066"><ele>404.0</ele><time>2026-04-04T13:25:27Z</time></trkpt><trkpt lat="41.00831873342165" lon="14.839232382213101"><ele>404.0</ele><time>2026-04-04T13:25:28Z</time></trkpt><trkpt lat="41.00833651658702" lon="14.839076594481188"><ele>404.0</ele><time>2026-04-04T13:25:29Z</time></trkpt><trkpt lat="41.00835226650536" lon="14.838921697728273"><ele>404.25</ele><time>2026-04-04T13:25:30Z</time></trkpt><trkpt lat="41.008358316143756" lon="14.838774649716711"><ele>404.5</ele><time>2026-04-04T13:25:31Z</time></trkpt><trkpt lat="41.008355200491266" lon="14.83862429026847"><ele>404.75</ele><time>2026-04-04T13:25:32Z</time></trkpt><trkpt lat="41.008341453528764" lon="14.838470099972898"><ele>405.0</ele><time>2026-04-04T13:25:33Z</time></trkpt><trkpt lat="41.00833478261891" lon="14.83831426829588"><ele>402.25</ele><time>2026-04-04T13:25:34Z</time></trkpt><trkpt lat="41.00834697694133" lon="14.83814806799818"><ele>399.5</ele><time>2026-04-04T13:25:35Z</time></trkpt><trkpt lat="41.00837672829897" lon="14.837983641787604"><ele>396.75</ele><time>2026-04-04T13:25:36Z</time></trkpt><trkpt lat="41.008407808873436" lon="14.837834532180626"><ele>394.0</ele><time>2026-04-04T13:25:37Z</time></trkpt><trkpt lat="41.00841799524132" lon="14.83767629442122"><ele>392.25</ele><time>2026-04-04T13:25:38Z</time></trkpt><trkpt lat="41.00840799551849" lon="14.837512320069655"><ele>390.5</ele><time>2026-04-04T13:25:39Z</time></trkpt><trkpt lat="41.00839986605361" lon="14.837340876872904"><ele>388.75</ele><time>2026-04-04T13:25:40Z</time></trkpt><trkpt lat="41.00839578637732" lon="14.83716671440872"><ele>387.0</ele><time>2026-04-04T13:25:41Z</time></trkpt><trkpt lat="41.00840827909215" lon="14.836995688795817"><ele>387.0</ele><time>2026-04-04T13:25:42Z</time></trkpt><trkpt lat="41.008441398912346" lon="14.836842291109528"><ele>387.0</ele><time>2026-04-04T13:25:43Z</time></trkpt><trkpt lat="41.00848784236756" lon="14.8366970483313"><ele>387.0</ele><time>2026-04-04T13:25:44Z</time></trkpt><trkpt lat="41.008511351338385" lon="14.83658874786005"><ele>387.0</ele><time>2026-04-04T13:25:45Z</time></trkpt><trkpt lat="41.008497946682525" lon="14.836485067691331"><ele>387.0</ele><time>2026-04-04T13:25:46Z</time></trkpt><trkpt lat="41.008454954943446" lon="14.836373189648075"><ele>385.8</ele><time>2026-04-04T13:25:47Z</time></trkpt><trkpt lat="41.0083983954576" lon="14.836272673730175"><ele>384.6</ele><time>2026-04-04T13:25:48Z</time></trkpt><trkpt lat="41.00834914181976" lon="14.836161448668353"><ele>383.40000000000003</ele><time>2026-04-04T13:25:49Z</time></trkpt><trkpt lat="41.00827701524439" lon="14.836071510169232"><ele>382.20000000000005</ele><time>2026-04-04T13:25:50Z</time></trkpt><trkpt lat="41.00825219573738" lon="14.835960170188983"><ele>381.0</ele><time>2026-04-04T13:25:51Z</time></trkpt><trkpt lat="41.008262168227105" lon="14.83583485131236"><ele>378.6</ele><time>2026-04-04T13:25:52Z</time></trkpt><trkpt lat="41.0082966214939" lon="14.835699340529601"><ele>376.20000000000005</ele><time>2026-04-04T13:25:53Z</time></trkpt><trkpt lat="41.00834596637135" lon="14.835567884407231"><ele>373.79999999999995</ele><time>2026-04-04T13:25:54Z</time></trkpt><trkpt lat="41.00839783333906" lon="14.835441481779043"><ele>371.4</ele><time>2026-04-04T13:25:55Z</time></trkpt><trkpt lat="41.008449991071714" lon="14.83532332263055"><ele>369.0</ele><time>2026-04-04T13:25:56Z</time></trkpt><trkpt lat="41.00850677435506" lon="14.835225392463535"><ele>366.79999999999995</ele><time>2026-04-04T13:25:57Z</time></trkpt><trkpt lat="41.00857733139511" lon="14.835119252064104"><ele>364.59999999999997</ele><time>2026-04-04T13:25:58Z</time></trkpt><trkpt lat="41.00865166664853" lon="14.835014759403943"><ele>362.4</ele><time>2026-04-04T13:25:59Z</time></trkpt><trkpt lat="41.00870411453608" lon="14.834921940621284"><ele>360.2</ele><time>2026-04-04T13:26:00Z</time></trkpt><trkpt lat="41.008740842813" lon="14.834842225894336"><ele>358.0</ele><time>2026-04-04T13:26:01Z</time></trkpt><trkpt lat="41.00878654903089" lon="14.83473717831592"><ele>358.0</ele><time>2026-04-04T13:26:03Z</time></trkpt><trkpt lat="41.008821391361984" lon="14.834627087567092"><ele>358.0</ele><time>2026-04-04T13:26:13Z</time></trkpt><trkpt lat="41.00887806899341" lon="14.834510827403093"><ele>358.0</ele><time>2026-04-04T13:26:14Z</time></trkpt><trkpt lat="41.00894737206941" lon="14.834380933662816"><ele>358.0</ele><time>2026-04-04T13:26:15Z</time></trkpt><trkpt lat="41.00901468990315" lon="14.834261919272935"><ele>358.0</ele><time>2026-04-04T13:26:16Z</time></trkpt><trkpt lat="41.009080151399594" lon="14.834154859011875"><ele>357.75</ele><time>2026-04-04T13:26:17Z</time></trkpt><trkpt lat="41.009140166441384" lon="14.834023335878847"><ele>357.5</ele><time>2026-04-04T13:26:18Z</time></trkpt><trkpt lat="41.00919344280516" lon="14.833867933013268"><ele>357.25</ele><time>2026-04-04T13:26:19Z</time></trkpt><trkpt lat="41.00923947523914" lon="14.833669160058225"><ele>357.0</ele><time>2026-04-04T13:26:20Z</time></trkpt><trkpt lat="41.009287540420935" lon="14.83346622210895"><ele>353.75</ele><time>2026-04-04T13:26:20.999Z</time></trkpt><trkpt lat="41.00933455870576" lon="14.83329379412143"><ele>350.5</ele><time>2026-04-04T13:26:21.999Z</time></trkpt><trkpt lat="41.00936342195531" lon="14.833129809377088"><ele>347.25</ele><time>2026-04-04T13:26:22.999Z</time></trkpt><trkpt lat="41.009377701478684" lon="14.8329660131792"><ele>344.0</ele><time>2026-04-04T13:26:23.999Z</time></trkpt><trkpt lat="41.00938713158813" lon="14.832808380790889"><ele>344.0</ele><time>2026-04-04T13:26:24.999Z</time></trkpt><trkpt lat="41.00940759581258" lon="14.83267197286844"><ele>344.0</ele><time>2026-04-04T13:26:25.999Z</time></trkpt><trkpt lat="41.00946385059608" lon="14.832554772481949"><ele>344.0</ele><time>2026-04-04T13:26:26.999Z</time></trkpt><trkpt lat="41.009529138777395" lon="14.832467715967006"><ele>344.0</ele><time>2026-04-04T13:26:27.999Z</time></trkpt><trkpt lat="41.009632845210916" lon="14.832410494124852"><ele>344.0</ele><time>2026-04-04T13:26:28.999Z</time></trkpt><trkpt lat="41.009753361277056" lon="14.83236927763904"><ele>340.4</ele><time>2026-04-04T13:26:29.999Z</time></trkpt><trkpt lat="41.00986847241882" lon="14.832358516644806"><ele>336.79999999999995</ele><time>2026-04-04T13:26:30.999Z</time></trkpt><trkpt lat="41.00998224769741" lon="14.832360905450013"><ele>333.20000000000005</ele><time>2026-04-04T13:26:31.999Z</time></trkpt><trkpt lat="41.010080633263975" lon="14.832327796274964"><ele>329.6</ele><time>2026-04-04T13:26:32.999Z</time></trkpt><trkpt lat="41.01016730585894" lon="14.832259153259765"><ele>326.0</ele><time>2026-04-04T13:26:33.999Z</time></trkpt><trkpt lat="41.010245821183176" lon="14.832155218975318"><ele>326.0</ele><time>2026-04-04T13:26:34.999Z</time></trkpt><trkpt lat="41.010312059868355" lon="14.832053489305219"><ele>326.0</ele><time>2026-04-04T13:26:35.999Z</time></trkpt><trkpt lat="41.010343517264204" lon="14.831942545257231"><ele>326.0</ele><time>2026-04-04T13:26:36.999Z</time></trkpt><trkpt lat="41.01035379073765" lon="14.831812050906688"><ele>326.0</ele><time>2026-04-04T13:26:37.999Z</time></trkpt><trkpt lat="41.010337161843594" lon="14.831676119713688"><ele>326.0</ele><time>2026-04-04T13:26:38.999Z</time></trkpt><trkpt lat="41.010313890201466" lon="14.831541505628273"><ele>324.0</ele><time>2026-04-04T13:26:39.999Z</time></trkpt><trkpt lat="41.01029597980485" lon="14.831424190633282"><ele>322.0</ele><time>2026-04-04T13:26:40.999Z</time></trkpt><trkpt lat="41.010236776307046" lon="14.831320486433537"><ele>320.0</ele><time>2026-04-04T13:26:41.999Z</time></trkpt><trkpt lat="41.010205493140035" lon="14.831183478521202"><ele>318.0</ele><time>2026-04-04T13:26:42.999Z</time></trkpt><trkpt lat="41.0101610292515" lon="14.831059793146206"><ele>316.0</ele><time>2026-04-04T13:26:43.999Z</time></trkpt><trkpt lat="41.01011420720863" lon="14.830927960255343"><ele>316.0</ele><time>2026-04-04T13:26:44.999Z</time></trkpt><trkpt lat="41.01007002066671" lon="14.830805991047345"><ele>316.0</ele><time>2026-04-04T13:26:45.999Z</time></trkpt><trkpt lat="41.0100418193976" lon="14.830682141088836"><ele>316.0</ele><time>2026-04-04T13:26:46.999Z</time></trkpt><trkpt lat="41.0100332202635" lon="14.830561859694228"><ele>316.0</ele><time>2026-04-04T13:26:47.999Z</time></trkpt><trkpt lat="41.01004050863196" lon="14.830436947808682"><ele>316.0</ele><time>2026-04-04T13:26:48.999Z</time></trkpt><trkpt lat="41.01005750295963" lon="14.830265915035556"><ele>314.75</ele><time>2026-04-04T13:26:49.999Z</time></trkpt><trkpt lat="41.01006470991024" lon="14.83007025649703"><ele>313.5</ele><time>2026-04-04T13:26:50.999Z</time></trkpt><trkpt lat="41.010083170227524" lon="14.829891715581743"><ele>312.25</ele><time>2026-04-04T13:26:51.999Z</time></trkpt><trkpt lat="41.01011948575007" lon="14.829733015532337"><ele>311.0</ele><time>2026-04-04T13:26:52.999Z</time></trkpt><trkpt lat="41.010177720306984" lon="14.829572299075151"><ele>311.0</ele><time>2026-04-04T13:26:53.999Z</time></trkpt><trkpt lat="41.01027394050644" lon="14.829395942857206"><ele>311.0</ele><time>2026-04-04T13:26:54.999Z</time></trkpt><trkpt lat="41.01036328700738" lon="14.829196926526485"><ele>311.0</ele><time>2026-04-04T13:26:55.999Z</time></trkpt><trkpt lat="41.01042092686118" lon="14.828978448241317"><ele>309.0</ele><time>2026-04-04T13:26:56.999Z</time></trkpt><trkpt lat="41.010479734402004" lon="14.828788539017173"><ele>307.0</ele><time>2026-04-04T13:26:57.999Z</time></trkpt><trkpt lat="41.01051190986075" lon="14.828642813477796"><ele>305.0</ele><time>2026-04-04T13:26:58.999Z</time></trkpt><trkpt lat="41.01054406512275" lon="14.828491964537259"><ele>303.0</ele><time>2026-04-04T13:26:59.999Z</time></trkpt><trkpt lat="41.01057653630721" lon="14.828324132849248"><ele>302.4</ele><time>2026-04-04T13:27:00.999Z</time></trkpt><trkpt lat="41.010608054005246" lon="14.828167022440544"><ele>301.8</ele><time>2026-04-04T13:27:01.999Z</time></trkpt><trkpt lat="41.01063927864644" lon="14.828044892977651"><ele>301.2</ele><time>2026-04-04T13:27:02.999Z</time></trkpt><trkpt lat="41.010667270881314" lon="14.827941978151772"><ele>300.6</ele><time>2026-04-04T13:27:03.999Z</time></trkpt><trkpt lat="41.0106998526853" lon="14.827848323770473"><ele>300.0</ele><time>2026-04-04T13:27:04.999Z</time></trkpt><trkpt lat="41.01072798109841" lon="14.827752354634926"><ele>300.0</ele><time>2026-04-04T13:27:06.999Z</time></trkpt><trkpt lat="41.01055300416084" lon="14.827669472165951"><ele>300.0</ele><time>2026-04-04T13:27:10.999Z</time></trkpt><trkpt lat="41.01047660599488" lon="14.827612354404105"><ele>300.0</ele><time>2026-04-04T13:27:11.999Z</time></trkpt><trkpt lat="41.010410120520504" lon="14.82754630116816"><ele>300.0</ele><time>2026-04-04T13:27:12.999Z</time></trkpt><trkpt lat="41.010348321374586" lon="14.827474533581226"><ele>300.0</ele><time>2026-04-04T13:27:13.999Z</time></trkpt><trkpt lat="41.010296879007" lon="14.827363477038617"><ele>300.0</ele><time>2026-04-04T13:27:14.999Z</time></trkpt><trkpt lat="41.01027563029655" lon="14.827247296714036"><ele>300.0</ele><time>2026-04-04T13:27:15.999Z</time></trkpt><trkpt lat="41.01029601240822" lon="14.827125849375841"><ele>300.0</ele><time>2026-04-04T13:27:16.999Z</time></trkpt><trkpt lat="41.01032065515663" lon="14.826994514773897"><ele>300.0</ele><time>2026-04-04T13:27:17.999Z</time></trkpt><trkpt lat="41.01034911714804" lon="14.826850164280998"><ele>300.0</ele><time>2026-04-04T13:27:18.999Z</time></trkpt><trkpt lat="41.01036234495897" lon="14.826689981860294"><ele>300.0</ele><time>2026-04-04T13:27:19.999Z</time></trkpt><trkpt lat="41.010384033945904" lon="14.826534992942678"><ele>300.0</ele><time>2026-04-04T13:27:20.999Z</time></trkpt><trkpt lat="41.01042539116961" lon="14.826376648563876"><ele>300.0</ele><time>2026-04-04T13:27:21.999Z</time></trkpt><trkpt lat="41.01046638313867" lon="14.826218074445979"><ele>300.0</ele><time>2026-04-04T13:27:22.999Z</time></trkpt><trkpt lat="41.01051577023331" lon="14.826049951193284"><ele>298.75</ele><time>2026-04-04T13:27:23.999Z</time></trkpt><trkpt lat="41.01056783502106" lon="14.825894332524461"><ele>297.5</ele><time>2026-04-04T13:27:24.999Z</time></trkpt><trkpt lat="41.01061589615753" lon="14.825753151275972"><ele>296.25</ele><time>2026-04-04T13:27:25.999Z</time></trkpt><trkpt lat="41.01066454686201" lon="14.825578384480108"><ele>295.0</ele><time>2026-04-04T13:27:26.999Z</time></trkpt><trkpt lat="41.01071080550751" lon="14.825421315792871"><ele>295.0</ele><time>2026-04-04T13:27:27.999Z</time></trkpt><trkpt lat="41.010759287894594" lon="14.825266327248956"><ele>295.0</ele><time>2026-04-04T13:27:28.999Z</time></trkpt><trkpt lat="41.01080538414221" lon="14.825121595841114"><ele>295.0</ele><time>2026-04-04T13:27:29.999Z</time></trkpt><trkpt lat="41.01084154959946" lon="14.824983430093685"><ele>295.0</ele><time>2026-04-04T13:27:31Z</time></trkpt><trkpt lat="41.01082929193329" lon="14.824737824665526"><ele>292.6</ele><time>2026-04-04T13:27:33Z</time></trkpt><trkpt lat="41.01076303086405" lon="14.82464757443649"><ele>290.2</ele><time>2026-04-04T13:27:34Z</time></trkpt><trkpt lat="41.010682104288705" lon="14.824594319661093"><ele>287.8</ele><time>2026-04-04T13:27:35Z</time></trkpt><trkpt lat="41.01056850696133" lon="14.824602804297397"><ele>285.4</ele><time>2026-04-04T13:27:36Z</time></trkpt><trkpt lat="41.01043406154528" lon="14.824656944688735"><ele>283.0</ele><time>2026-04-04T13:27:37Z</time></trkpt><trkpt lat="41.010327852942694" lon="14.824748149466217"><ele>283.0</ele><time>2026-04-04T13:27:38Z</time></trkpt><trkpt lat="41.010232465327775" lon="14.82481038704208"><ele>283.0</ele><time>2026-04-04T13:27:39Z</time></trkpt><trkpt lat="41.010147409109955" lon="14.824915018439235"><ele>283.0</ele><time>2026-04-04T13:27:40Z</time></trkpt><trkpt lat="41.010060535641784" lon="14.825072804248007"><ele>283.0</ele><time>2026-04-04T13:27:41Z</time></trkpt><trkpt lat="41.009976157028646" lon="14.825226289621595"><ele>279.8</ele><time>2026-04-04T13:27:42Z</time></trkpt><trkpt lat="41.00990446819139" lon="14.825328396474783"><ele>276.6</ele><time>2026-04-04T13:27:43Z</time></trkpt><trkpt lat="41.00985040571614" lon="14.825399143416279"><ele>273.4</ele><time>2026-04-04T13:27:44Z</time></trkpt><trkpt lat="41.009780692949036" lon="14.82540958351417"><ele>270.2</ele><time>2026-04-04T13:27:46Z</time></trkpt><trkpt lat="41.00975021341645" lon="14.825267398171558"><ele>267.0</ele><time>2026-04-04T13:27:47Z</time></trkpt><trkpt lat="41.00976762915344" lon="14.825136810660089"><ele>263.0</ele><time>2026-04-04T13:27:48Z</time></trkpt><trkpt lat="41.009818290630456" lon="14.824995937509222"><ele>259.0</ele><time>2026-04-04T13:27:49Z</time></trkpt><trkpt lat="41.00990262458017" lon="14.82482856985662"><ele>255.0</ele><time>2026-04-04T13:27:50Z</time></trkpt><trkpt lat="41.0099799720777" lon="14.82468957473038"><ele>251.0</ele><time>2026-04-04T13:27:51Z</time></trkpt><trkpt lat="41.010036079772846" lon="14.824557026948657"><ele>254.0</ele><time>2026-04-04T13:27:52Z</time></trkpt><trkpt lat="41.01009536230113" lon="14.824438098134177"><ele>257.0</ele><time>2026-04-04T13:27:53Z</time></trkpt><trkpt lat="41.01014788187906" lon="14.824309015197422"><ele>260.0</ele><time>2026-04-04T13:27:54Z</time></trkpt><trkpt lat="41.01018932698268" lon="14.824200397106388"><ele>263.0</ele><time>2026-04-04T13:27:55Z</time></trkpt><trkpt lat="41.010246343930206" lon="14.824080675092098"><ele>266.0</ele><time>2026-04-04T13:27:56Z</time></trkpt><trkpt lat="41.010296977744474" lon="14.823957479955661"><ele>266.0</ele><time>2026-04-04T13:27:57Z</time></trkpt><trkpt lat="41.010348952260756" lon="14.823855393549147"><ele>266.0</ele><time>2026-04-04T13:27:58Z</time></trkpt><trkpt lat="41.01040381386285" lon="14.823764138611157"><ele>266.0</ele><time>2026-04-04T13:27:59Z</time></trkpt><trkpt lat="41.01046108019349" lon="14.823683848257117"><ele>266.0</ele><time>2026-04-04T13:28:00Z</time></trkpt><trkpt lat="41.01051659367066" lon="14.823597325151884"><ele>266.0</ele><time>2026-04-04T13:28:01Z</time></trkpt><trkpt lat="41.01054182701651" lon="14.823501916363718"><ele>266.0</ele><time>2026-04-04T13:28:02Z</time></trkpt><trkpt lat="41.01055976880176" lon="14.823411014410055"><ele>266.0</ele><time>2026-04-04T13:28:03Z</time></trkpt><trkpt lat="41.01049215642668" lon="14.823303023189359"><ele>266.0</ele><time>2026-04-04T13:28:05Z</time></trkpt><trkpt lat="41.01038303753337" lon="14.823385777179286"><ele>266.0</ele><time>2026-04-04T13:28:07Z</time></trkpt><trkpt lat="41.01034499803729" lon="14.823508519809891"><ele>266.0</ele><time>2026-04-04T13:28:08Z</time></trkpt><trkpt lat="41.010283096396996" lon="14.823637855364533"><ele>266.0</ele><time>2026-04-04T13:28:09Z</time></trkpt><trkpt lat="41.01017608371641" lon="14.823751078412414"><ele>266.0</ele><time>2026-04-04T13:28:10Z</time></trkpt><trkpt lat="41.01010302063668" lon="14.823888795261553"><ele>266.0</ele><time>2026-04-04T13:28:11Z</time></trkpt><trkpt lat="41.01002109104764" lon="14.823998023586851"><ele>266.0</ele><time>2026-04-04T13:28:12Z</time></trkpt><trkpt lat="41.009939437833054" lon="14.824116714149685"><ele>266.0</ele><time>2026-04-04T13:28:13Z</time></trkpt><trkpt lat="41.00986682439376" lon="14.824222264486119"><ele>263.0</ele><time>2026-04-04T13:28:14Z</time></trkpt><trkpt lat="41.009790399943135" lon="14.82433490654419"><ele>260.0</ele><time>2026-04-04T13:28:15Z</time></trkpt><trkpt lat="41.00973664165353" lon="14.824440204025823"><ele>257.0</ele><time>2026-04-04T13:28:16Z</time></trkpt><trkpt lat="41.00968570687942" lon="14.824518679839638"><ele>254.0</ele><time>2026-04-04T13:28:16.999Z</time></trkpt><trkpt lat="41.009629926728216" lon="14.824595420874967"><ele>251.0</ele><time>2026-04-04T13:28:17.999Z</time></trkpt><trkpt lat="41.00956531974187" lon="14.82471474931048"><ele>251.0</ele><time>2026-04-04T13:28:19.999Z</time></trkpt><trkpt lat="41.009589047331154" lon="14.824633392459488"><ele>251.00000000000003</ele><time>2026-04-04T13:28:24.999Z</time></trkpt><trkpt lat="41.009632988790635" lon="14.824551774084243"><ele>251.00000000000003</ele><time>2026-04-04T13:28:25.999Z</time></trkpt><trkpt lat="41.00969976087231" lon="14.82442775016913"><ele>251.0</ele><time>2026-04-04T13:28:26.999Z</time></trkpt><trkpt lat="41.00976631923822" lon="14.824333706226911"><ele>251.0</ele><time>2026-04-04T13:28:27.999Z</time></trkpt><trkpt lat="41.00984431879271" lon="14.824219384023506"><ele>247.25</ele><time>2026-04-04T13:28:28.999Z</time></trkpt><trkpt lat="41.009875307499534" lon="14.824044948708847"><ele>243.5</ele><time>2026-04-04T13:28:29.999Z</time></trkpt><trkpt lat="41.00992905802685" lon="14.823927475316191"><ele>239.75</ele><time>2026-04-04T13:28:30.999Z</time></trkpt><trkpt lat="41.01001496183265" lon="14.82381807739659"><ele>236.0</ele><time>2026-04-04T13:28:31.999Z</time></trkpt><trkpt lat="41.009998694399485" lon="14.823672672974968"><ele>240.0</ele><time>2026-04-04T13:28:32.999Z</time></trkpt><trkpt lat="41.01003481952829" lon="14.82353223968146"><ele>244.00000000000003</ele><time>2026-04-04T13:28:33.999Z</time></trkpt><trkpt lat="41.01005289071089" lon="14.82339512158908"><ele>248.00000000000003</ele><time>2026-04-04T13:28:34.999Z</time></trkpt><trkpt lat="41.01006707808845" lon="14.823263680370967"><ele>252.0</ele><time>2026-04-04T13:28:35.999Z</time></trkpt><trkpt lat="41.01006959989812" lon="14.823114989758006"><ele>256.0</ele><time>2026-04-04T13:28:36.999Z</time></trkpt><trkpt lat="41.010061270948256" lon="14.822971485862194"><ele>256.0</ele><time>2026-04-04T13:28:37.999Z</time></trkpt><trkpt lat="41.01006030774426" lon="14.82283009293592"><ele>256.0</ele><time>2026-04-04T13:28:38.999Z</time></trkpt><trkpt lat="41.01008582024736" lon="14.822680419270203"><ele>256.0</ele><time>2026-04-04T13:28:39.999Z</time></trkpt><trkpt lat="41.01010833292022" lon="14.822499663408427"><ele>256.0</ele><time>2026-04-04T13:28:40.999Z</time></trkpt><trkpt lat="41.010124204197965" lon="14.822343803544387"><ele>254.5</ele><time>2026-04-04T13:28:41.999Z</time></trkpt><trkpt lat="41.01014137778842" lon="14.822202616816867"><ele>253.0</ele><time>2026-04-04T13:28:42.999Z</time></trkpt><trkpt lat="41.01015184469538" lon="14.822045193098996"><ele>251.5</ele><time>2026-04-04T13:28:43.999Z</time></trkpt><trkpt lat="41.010152700488696" lon="14.821877202363128"><ele>250.0</ele><time>2026-04-04T13:28:44.999Z</time></trkpt><trkpt lat="41.01014055892147" lon="14.821725025823214"><ele>249.0</ele><time>2026-04-04T13:28:45.999Z</time></trkpt><trkpt lat="41.01012344310647" lon="14.82159091350852"><ele>248.0</ele><time>2026-04-04T13:28:46.999Z</time></trkpt><trkpt lat="41.01011818007954" lon="14.821457342054783"><ele>247.0</ele><time>2026-04-04T13:28:47.999Z</time></trkpt><trkpt lat="41.01013789119343" lon="14.821291833302185"><ele>246.0</ele><time>2026-04-04T13:28:48.999Z</time></trkpt><trkpt lat="41.01016676620615" lon="14.821133845285027"><ele>245.25</ele><time>2026-04-04T13:28:49.999Z</time></trkpt><trkpt lat="41.01018348345915" lon="14.8209719383024"><ele>244.5</ele><time>2026-04-04T13:28:50.999Z</time></trkpt><trkpt lat="41.010193071286544" lon="14.820798221944937"><ele>243.75</ele><time>2026-04-04T13:28:51.999Z</time></trkpt><trkpt lat="41.01020785333638" lon="14.820639860132843"><ele>243.0</ele><time>2026-04-04T13:28:52.999Z</time></trkpt><trkpt lat="41.01021131414425" lon="14.820503139015393"><ele>243.0</ele><time>2026-04-04T13:28:53.999Z</time></trkpt><trkpt lat="41.0102198293558" lon="14.820391211457137"><ele>243.0</ele><time>2026-04-04T13:28:54.999Z</time></trkpt><trkpt lat="41.010242519919764" lon="14.820292709598991"><ele>243.0</ele><time>2026-04-04T13:28:55.999Z</time></trkpt><trkpt lat="41.01027773581826" lon="14.820218976357193"><ele>243.0</ele><time>2026-04-04T13:28:56.999Z</time></trkpt><trkpt lat="41.01035471398702" lon="14.820179073618702"><ele>243.0</ele><time>2026-04-04T13:28:57.999Z</time></trkpt><trkpt lat="41.010442338381665" lon="14.820134501989628"><ele>243.0</ele><time>2026-04-04T13:28:58.999Z</time></trkpt><trkpt lat="41.01052348652554" lon="14.820087860886057"><ele>243.0</ele><time>2026-04-04T13:28:59.999Z</time></trkpt><trkpt lat="41.01057886955971" lon="14.820017658834548"><ele>243.0</ele><time>2026-04-04T13:29:00.999Z</time></trkpt><trkpt lat="41.01067319372091" lon="14.820040777641923"><ele>243.0</ele><time>2026-04-04T13:29:02.999Z</time></trkpt><trkpt lat="41.0107096030924" lon="14.820143384065934"><ele>243.0</ele><time>2026-04-04T13:29:03.999Z</time></trkpt><trkpt lat="41.01078902201914" lon="14.820245251299111"><ele>243.0</ele><time>2026-04-04T13:29:04.999Z</time></trkpt><trkpt lat="41.01085164801458" lon="14.820378614724582"><ele>247.0</ele><time>2026-04-04T13:29:05.999Z</time></trkpt><trkpt lat="41.01091474898982" lon="14.820503658595891"><ele>251.0</ele><time>2026-04-04T13:29:06.999Z</time></trkpt><trkpt lat="41.01099087811428" lon="14.820622762034924"><ele>255.0</ele><time>2026-04-04T13:29:07.999Z</time></trkpt><trkpt lat="41.011060846754404" lon="14.820735895773698"><ele>259.0</ele><time>2026-04-04T13:29:08.999Z</time></trkpt><trkpt lat="41.01114549208089" lon="14.820828685531987"><ele>259.0</ele><time>2026-04-04T13:29:09.999Z</time></trkpt><trkpt lat="41.01123366234657" lon="14.820888262081024"><ele>259.0</ele><time>2026-04-04T13:29:10.999Z</time></trkpt><trkpt lat="41.01132242828085" lon="14.820922421712202"><ele>259.0</ele><time>2026-04-04T13:29:11.999Z</time></trkpt><trkpt lat="41.0114028652638" lon="14.820931250064817"><ele>259.0</ele><time>2026-04-04T13:29:12.999Z</time></trkpt><trkpt lat="41.01146909437044" lon="14.820908310685633"><ele>259.0</ele><time>2026-04-04T13:29:13.999Z</time></trkpt><trkpt lat="41.01153857974369" lon="14.820879408617493"><ele>259.0</ele><time>2026-04-04T13:29:14.999Z</time></trkpt><trkpt lat="41.011607952234506" lon="14.820853010384605"><ele>259.0</ele><time>2026-04-04T13:29:15.999Z</time></trkpt><trkpt lat="41.01167134990245" lon="14.820792486612032"><ele>259.0</ele><time>2026-04-04T13:29:16.999Z</time></trkpt><trkpt lat="41.01166727058542" lon="14.820693350576187"><ele>259.0</ele><time>2026-04-04T13:29:17.999Z</time></trkpt><trkpt lat="41.01165159153839" lon="14.820601585914549"><ele>259.0</ele><time>2026-04-04T13:29:18.999Z</time></trkpt><trkpt lat="41.0116205636992" lon="14.820491584597109"><ele>259.0</ele><time>2026-04-04T13:29:19.999Z</time></trkpt><trkpt lat="41.011572412708844" lon="14.820383721280031"><ele>259.0</ele><time>2026-04-04T13:29:20.999Z</time></trkpt><trkpt lat="41.011547860519144" lon="14.820257550824293"><ele>255.79999999999998</ele><time>2026-04-04T13:29:21.999Z</time></trkpt><trkpt lat="41.01151177706447" lon="14.820125703284125"><ele>252.59999999999997</ele><time>2026-04-04T13:29:22.999Z</time></trkpt><trkpt lat="41.01147611957402" lon="14.819986324950833"><ele>249.4</ele><time>2026-04-04T13:29:23.999Z</time></trkpt><trkpt lat="41.01145186770068" lon="14.81986785807068"><ele>246.2</ele><time>2026-04-04T13:29:24.999Z</time></trkpt><trkpt lat="41.01142471203123" lon="14.819751309692686"><ele>243.0</ele><time>2026-04-04T13:29:25.999Z</time></trkpt><trkpt lat="41.0114397871852" lon="14.819626114347553"><ele>243.0</ele><time>2026-04-04T13:29:26.999Z</time></trkpt><trkpt lat="41.011462212009256" lon="14.819533989374243"><ele>243.0</ele><time>2026-04-04T13:29:27.999Z</time></trkpt><trkpt lat="41.01152732305794" lon="14.819483071912542"><ele>243.0</ele><time>2026-04-04T13:29:28.999Z</time></trkpt><trkpt lat="41.011613856762644" lon="14.819456671277816"><ele>243.0</ele><time>2026-04-04T13:29:29.999Z</time></trkpt><trkpt lat="41.01170060105096" lon="14.819422086004062"><ele>243.0</ele><time>2026-04-04T13:29:30.999Z</time></trkpt><trkpt lat="41.01181932868898" lon="14.819410783127788"><ele>243.0</ele><time>2026-04-04T13:29:31.999Z</time></trkpt><trkpt lat="41.011918305362855" lon="14.819379795161723"><ele>240.25</ele><time>2026-04-04T13:29:32.999Z</time></trkpt><trkpt lat="41.012097037900986" lon="14.81927441737032"><ele>237.5</ele><time>2026-04-04T13:29:34.998Z</time></trkpt><trkpt lat="41.01218185240551" lon="14.819146313841655"><ele>234.75</ele><time>2026-04-04T13:29:35.998Z</time></trkpt><trkpt lat="41.01224632953889" lon="14.819015034143572"><ele>232.0</ele><time>2026-04-04T13:29:36.999Z</time></trkpt><trkpt lat="41.01230186784097" lon="14.8188843464211"><ele>232.0</ele><time>2026-04-04T13:29:37.999Z</time></trkpt><trkpt lat="41.01235947374855" lon="14.818785416313563"><ele>232.0</ele><time>2026-04-04T13:29:38.999Z</time></trkpt><trkpt lat="41.01240597539939" lon="14.818660606168317"><ele>232.0</ele><time>2026-04-04T13:29:39.999Z</time></trkpt><trkpt lat="41.01246325922564" lon="14.81854809481487"><ele>232.0</ele><time>2026-04-04T13:29:40.999Z</time></trkpt><trkpt lat="41.01253245714651" lon="14.818443206025984"><ele>232.0</ele><time>2026-04-04T13:29:41.999Z</time></trkpt><trkpt lat="41.01263048051652" lon="14.818368081297349"><ele>232.0</ele><time>2026-04-04T13:29:42.999Z</time></trkpt><trkpt lat="41.01276264297151" lon="14.818300410344792"><ele>232.0</ele><time>2026-04-04T13:29:43.999Z</time></trkpt><trkpt lat="41.0129099798972" lon="14.818238343884609"><ele>232.0</ele><time>2026-04-04T13:29:44.999Z</time></trkpt><trkpt lat="41.01305833488904" lon="14.818136352532694"><ele>232.0</ele><time>2026-04-04T13:29:45.999Z</time></trkpt><trkpt lat="41.013212334666655" lon="14.818039308500532"><ele>232.0</ele><time>2026-04-04T13:29:46.999Z</time></trkpt><trkpt lat="41.01336251507777" lon="14.8179174350849"><ele>232.0</ele><time>2026-04-04T13:29:48Z</time></trkpt><trkpt lat="41.01349620806223" lon="14.81780359635017"><ele>231.0</ele><time>2026-04-04T13:29:49Z</time></trkpt><trkpt lat="41.01361044422398" lon="14.817692705648172"><ele>230.0</ele><time>2026-04-04T13:29:50Z</time></trkpt><trkpt lat="41.01371486669947" lon="14.817553573356404"><ele>229.0</ele><time>2026-04-04T13:29:51Z</time></trkpt><trkpt lat="41.013822424028426" lon="14.817389490912436"><ele>229.0</ele><time>2026-04-04T13:29:52Z</time></trkpt><trkpt lat="41.01392031158949" lon="14.81722110302651"><ele>229.0</ele><time>2026-04-04T13:29:53Z</time></trkpt><trkpt lat="41.01403660722231" lon="14.817072072647477"><ele>229.0</ele><time>2026-04-04T13:29:54Z</time></trkpt><trkpt lat="41.01413517422409" lon="14.816931259582315"><ele>232.0</ele><time>2026-04-04T13:29:55Z</time></trkpt><trkpt lat="41.014209520224526" lon="14.816768888014796"><ele>235.0</ele><time>2026-04-04T13:29:56Z</time></trkpt><trkpt lat="41.014256991528526" lon="14.816570271227752"><ele>238.0</ele><time>2026-04-04T13:29:57Z</time></trkpt><trkpt lat="41.01431314249954" lon="14.816354413891911"><ele>238.0</ele><time>2026-04-04T13:29:58Z</time></trkpt><trkpt lat="41.01437699738927" lon="14.816117148635787"><ele>238.0</ele><time>2026-04-04T13:29:59Z</time></trkpt><trkpt lat="41.01445459149708" lon="14.815862832732899"><ele>238.0</ele><time>2026-04-04T13:30:00Z</time></trkpt><trkpt lat="41.01451225363338" lon="14.81560560432956"><ele>235.0</ele><time>2026-04-04T13:30:01Z</time></trkpt><trkpt lat="41.014553665401024" lon="14.81532347274288"><ele>232.0</ele><time>2026-04-04T13:30:02Z</time></trkpt><trkpt lat="41.014572767031076" lon="14.815028807067373"><ele>229.0</ele><time>2026-04-04T13:30:03Z</time></trkpt><trkpt lat="41.014576257932475" lon="14.814771100127544"><ele>229.0</ele><time>2026-04-04T13:30:04Z</time></trkpt><trkpt lat="41.014564113409314" lon="14.814527727491209"><ele>229.0</ele><time>2026-04-04T13:30:05Z</time></trkpt><trkpt lat="41.01457656273743" lon="14.81430602976483"><ele>229.0</ele><time>2026-04-04T13:30:06Z</time></trkpt><trkpt lat="41.01462507339123" lon="14.814098141782916"><ele>228.66666666666666</ele><time>2026-04-04T13:30:07Z</time></trkpt><trkpt lat="41.01470522808654" lon="14.813888146285947"><ele>228.33333333333331</ele><time>2026-04-04T13:30:08Z</time></trkpt><trkpt lat="41.01480282832188" lon="14.81369207046749"><ele>228.0</ele><time>2026-04-04T13:30:09Z</time></trkpt><trkpt lat="41.01488485374375" lon="14.813508756782753"><ele>227.33333333333331</ele><time>2026-04-04T13:30:10Z</time></trkpt><trkpt lat="41.01491514637504" lon="14.813339866295959"><ele>226.66666666666666</ele><time>2026-04-04T13:30:11Z</time></trkpt><trkpt lat="41.014928302652386" lon="14.813129559760643"><ele>226.0</ele><time>2026-04-04T13:30:12Z</time></trkpt><trkpt lat="41.01493769158973" lon="14.812855270245503"><ele>226.0</ele><time>2026-04-04T13:30:13Z</time></trkpt><trkpt lat="41.01493772885735" lon="14.812632132336127"><ele>226.0</ele><time>2026-04-04T13:30:14Z</time></trkpt><trkpt lat="41.01494962731716" lon="14.812443104342755"><ele>226.0</ele><time>2026-04-04T13:30:15Z</time></trkpt><trkpt lat="41.01499861011401" lon="14.812294169709887"><ele>226.0</ele><time>2026-04-04T13:30:16Z</time></trkpt><trkpt lat="41.015075404176585" lon="14.812158246403945"><ele>230.75</ele><time>2026-04-04T13:30:16.999Z</time></trkpt><trkpt lat="41.01516238851916" lon="14.812089113381916"><ele>235.5</ele><time>2026-04-04T13:30:17.999Z</time></trkpt><trkpt lat="41.01523849203031" lon="14.812091643275563"><ele>240.25</ele><time>2026-04-04T13:30:18.999Z</time></trkpt><trkpt lat="41.015374379042676" lon="14.812106932886806"><ele>245.0</ele><time>2026-04-04T13:30:19.999Z</time></trkpt><trkpt lat="41.01556140204727" lon="14.81212751406485"><ele>245.0</ele><time>2026-04-04T13:30:20.999Z</time></trkpt><trkpt lat="41.01572952863142" lon="14.812122966083985"><ele>245.0</ele><time>2026-04-04T13:30:21.999Z</time></trkpt><trkpt lat="41.01588039490895" lon="14.812137982267279"><ele>245.0</ele><time>2026-04-04T13:30:22.999Z</time></trkpt><trkpt lat="41.016005417674116" lon="14.812146652364984"><ele>245.0</ele><time>2026-04-04T13:30:23.999Z</time></trkpt><trkpt lat="41.01612446477466" lon="14.812107070193893"><ele>245.6</ele><time>2026-04-04T13:30:24.999Z</time></trkpt><trkpt lat="41.0162204834476" lon="14.812035230609222"><ele>246.2</ele><time>2026-04-04T13:30:25.999Z</time></trkpt><trkpt lat="41.01625731450969" lon="14.811918066634824"><ele>246.8</ele><time>2026-04-04T13:30:26.999Z</time></trkpt><trkpt lat="41.01624974351408" lon="14.81180014621585"><ele>247.4</ele><time>2026-04-04T13:30:27.999Z</time></trkpt><trkpt lat="41.01620465440964" lon="14.811673315771175"><ele>248.0</ele><time>2026-04-04T13:30:28.999Z</time></trkpt><trkpt lat="41.016159027569714" lon="14.81154428155296"><ele>248.0</ele><time>2026-04-04T13:30:29.999Z</time></trkpt><trkpt lat="41.01612634998807" lon="14.811392692413229"><ele>248.0</ele><time>2026-04-04T13:30:30.999Z</time></trkpt><trkpt lat="41.01609118693881" lon="14.811240369367376"><ele>248.0</ele><time>2026-04-04T13:30:31.999Z</time></trkpt><trkpt lat="41.016044864529974" lon="14.811101219182541"><ele>248.0</ele><time>2026-04-04T13:30:32.999Z</time></trkpt><trkpt lat="41.01603459244247" lon="14.810934645089212"><ele>249.33333333333334</ele><time>2026-04-04T13:30:33.999Z</time></trkpt><trkpt lat="41.0158665320136" lon="14.810901723416215"><ele>250.66666666666669</ele><time>2026-04-04T13:30:34.999Z</time></trkpt><trkpt lat="41.01572166806996" lon="14.810821241790709"><ele>252.0</ele><time>2026-04-04T13:30:35.999Z</time></trkpt><trkpt lat="41.015597445149645" lon="14.810747564786311"><ele>248.8</ele><time>2026-04-04T13:30:36.999Z</time></trkpt><trkpt lat="41.01549122174389" lon="14.810669149503376"><ele>245.6</ele><time>2026-04-04T13:30:37.999Z</time></trkpt><trkpt lat="41.015402478931996" lon="14.810585394091706"><ele>242.40000000000003</ele><time>2026-04-04T13:30:38.999Z</time></trkpt><trkpt lat="41.01534172561733" lon="14.81046471686267"><ele>239.20000000000002</ele><time>2026-04-04T13:30:39.999Z</time></trkpt><trkpt lat="41.01533325142668" lon="14.810326054254151"><ele>236.0</ele><time>2026-04-04T13:30:40.999Z</time></trkpt><trkpt lat="41.015378564322646" lon="14.810163261959088"><ele>236.25</ele><time>2026-04-04T13:30:41.999Z</time></trkpt><trkpt lat="41.01539651421415" lon="14.809988460599945"><ele>236.5</ele><time>2026-04-04T13:30:42.999Z</time></trkpt><trkpt lat="41.015439272820224" lon="14.809807679695824"><ele>236.75</ele><time>2026-04-04T13:30:43.999Z</time></trkpt><trkpt lat="41.01548863474418" lon="14.80964472833789"><ele>237.0</ele><time>2026-04-04T13:30:44.999Z</time></trkpt><trkpt lat="41.01554080843021" lon="14.809471379713491"><ele>235.0</ele><time>2026-04-04T13:30:45.999Z</time></trkpt><trkpt lat="41.015599154481365" lon="14.809300140941863"><ele>233.0</ele><time>2026-04-04T13:30:46.999Z</time></trkpt><trkpt lat="41.01566087648802" lon="14.809142192356052"><ele>231.0</ele><time>2026-04-04T13:30:47.999Z</time></trkpt><trkpt lat="41.01573887564455" lon="14.808995525633138"><ele>229.0</ele><time>2026-04-04T13:30:48.999Z</time></trkpt><trkpt lat="41.01582021168158" lon="14.808870805651827"><ele>232.0</ele><time>2026-04-04T13:30:49.999Z</time></trkpt><trkpt lat="41.01588950737619" lon="14.808753868869637"><ele>235.0</ele><time>2026-04-04T13:30:50.999Z</time></trkpt><trkpt lat="41.01595156943297" lon="14.808620537915687"><ele>238.0</ele><time>2026-04-04T13:30:51.999Z</time></trkpt><trkpt lat="41.0159759970164" lon="14.808449616182806"><ele>241.0</ele><time>2026-04-04T13:30:52.999Z</time></trkpt><trkpt lat="41.015977941400884" lon="14.808264359324683"><ele>241.0</ele><time>2026-04-04T13:30:53.999Z</time></trkpt><trkpt lat="41.01594493799893" lon="14.808060713798413"><ele>241.0</ele><time>2026-04-04T13:30:54.999Z</time></trkpt><trkpt lat="41.01591940645266" lon="14.807840552908587"><ele>241.0</ele><time>2026-04-04T13:30:55.999Z</time></trkpt><trkpt lat="41.01590283130527" lon="14.807626654449827"><ele>239.0</ele><time>2026-04-04T13:30:56.999Z</time></trkpt><trkpt lat="41.01593714822349" lon="14.807409339056118"><ele>237.0</ele><time>2026-04-04T13:30:57.999Z</time></trkpt><trkpt lat="41.01598344956266" lon="14.807151628249185"><ele>235.0</ele><time>2026-04-04T13:30:58.999Z</time></trkpt><trkpt lat="41.01603341685868" lon="14.806907076324636"><ele>232.66666666666666</ele><time>2026-04-04T13:30:59.999Z</time></trkpt><trkpt lat="41.01607704485739" lon="14.806654469099932"><ele>230.33333333333331</ele><time>2026-04-04T13:31:00.999Z</time></trkpt><trkpt lat="41.01613333103335" lon="14.806395649434037"><ele>228.0</ele><time>2026-04-04T13:31:01.999Z</time></trkpt><trkpt lat="41.01618250143806" lon="14.806125736359714"><ele>226.66666666666669</ele><time>2026-04-04T13:31:02.999Z</time></trkpt><trkpt lat="41.01622785100733" lon="14.805850201622457"><ele>225.33333333333334</ele><time>2026-04-04T13:31:03.999Z</time></trkpt><trkpt lat="41.016277972716026" lon="14.805579690704567"><ele>224.0</ele><time>2026-04-04T13:31:04.999Z</time></trkpt><trkpt lat="41.01633036031118" lon="14.805308425971091"><ele>223.0</ele><time>2026-04-04T13:31:05.999Z</time></trkpt><trkpt lat="41.016380894907755" lon="14.805027336491776"><ele>222.0</ele><time>2026-04-04T13:31:06.999Z</time></trkpt><trkpt lat="41.01643706834577" lon="14.80474418125877"><ele>221.0</ele><time>2026-04-04T13:31:07.999Z</time></trkpt><trkpt lat="41.016492295049964" lon="14.80451248822763"><ele>220.0</ele><time>2026-04-04T13:31:08.999Z</time></trkpt><trkpt lat="41.01656974307935" lon="14.80425255672533"><ele>219.0</ele><time>2026-04-04T13:31:09.999Z</time></trkpt><trkpt lat="41.01666478832952" lon="14.80400596304984"><ele>218.0</ele><time>2026-04-04T13:31:10.999Z</time></trkpt><trkpt lat="41.01677679725029" lon="14.803752226897666"><ele>221.66666666666669</ele><time>2026-04-04T13:31:11.999Z</time></trkpt><trkpt lat="41.0168761393475" lon="14.80350221120147"><ele>225.33333333333331</ele><time>2026-04-04T13:31:12.999Z</time></trkpt><trkpt lat="41.01696480257385" lon="14.80328116491908"><ele>229.0</ele><time>2026-04-04T13:31:13.999Z</time></trkpt><trkpt lat="41.01706933639983" lon="14.803031700788273"><ele>229.0</ele><time>2026-04-04T13:31:14.999Z</time></trkpt><trkpt lat="41.017162779428425" lon="14.802778172592864"><ele>229.0</ele><time>2026-04-04T13:31:15.999Z</time></trkpt><trkpt lat="41.017236042128744" lon="14.802515681357843"><ele>229.0</ele><time>2026-04-04T13:31:16.999Z</time></trkpt><trkpt lat="41.01729929787946" lon="14.802280219067532"><ele>225.33333333333331</ele><time>2026-04-04T13:31:17.999Z</time></trkpt><trkpt lat="41.017357292495426" lon="14.802073264020452"><ele>221.66666666666669</ele><time>2026-04-04T13:31:18.999Z</time></trkpt><trkpt lat="41.01741029164108" lon="14.801844857241603"><ele>218.0</ele><time>2026-04-04T13:31:19.999Z</time></trkpt><trkpt lat="41.0174281001392" lon="14.80159502956571"><ele>217.66666666666669</ele><time>2026-04-04T13:31:20.999Z</time></trkpt><trkpt lat="41.017403892546255" lon="14.801336526447695"><ele>217.33333333333331</ele><time>2026-04-04T13:31:21.999Z</time></trkpt><trkpt lat="41.01730038351033" lon="14.801089432173896"><ele>217.0</ele><time>2026-04-04T13:31:22.999Z</time></trkpt><trkpt lat="41.01712494215369" lon="14.800954019401065"><ele>218.33333333333331</ele><time>2026-04-04T13:31:23.999Z</time></trkpt><trkpt lat="41.01732430794584" lon="14.800994450652944"><ele>219.66666666666669</ele><time>2026-04-04T13:31:24.999Z</time></trkpt><trkpt lat="41.017211094067136" lon="14.800921421552552"><ele>221.0</ele><time>2026-04-04T13:31:25.999Z</time></trkpt><trkpt lat="41.01708619152603" lon="14.800854251452522"><ele>221.0</ele><time>2026-04-04T13:31:26.999Z</time></trkpt><trkpt lat="41.01697943930663" lon="14.8007880187303"><ele>221.0</ele><time>2026-04-04T13:31:27.999Z</time></trkpt><trkpt lat="41.016870187642176" lon="14.800686113470965"><ele>221.0</ele><time>2026-04-04T13:31:28.999Z</time></trkpt><trkpt lat="41.01683590749693" lon="14.800514842241212"><ele>221.0</ele><time>2026-04-04T13:31:29.999Z</time></trkpt><trkpt lat="41.01685194758386" lon="14.800345690133668"><ele>221.0</ele><time>2026-04-04T13:31:30.999Z</time></trkpt><trkpt lat="41.01690071247311" lon="14.800174978111722"><ele>221.0</ele><time>2026-04-04T13:31:31.999Z</time></trkpt><trkpt lat="41.01693292756776" lon="14.799985690276435"><ele>221.0</ele><time>2026-04-04T13:31:32.999Z</time></trkpt><trkpt lat="41.016916178087946" lon="14.799812757930964"><ele>221.0</ele><time>2026-04-04T13:31:33.999Z</time></trkpt><trkpt lat="41.01690952945392" lon="14.799647377285089"><ele>221.25</ele><time>2026-04-04T13:31:34.999Z</time></trkpt><trkpt lat="41.01694173558345" lon="14.799506938031833"><ele>221.5</ele><time>2026-04-04T13:31:35.999Z</time></trkpt><trkpt lat="41.017069413027855" lon="14.7994559768853"><ele>221.75</ele><time>2026-04-04T13:31:36.999Z</time></trkpt><trkpt lat="41.0171791975556" lon="14.799335355465956"><ele>222.0</ele><time>2026-04-04T13:31:37.999Z</time></trkpt><trkpt lat="41.01724062701873" lon="14.799195312668934"><ele>220.75</ele><time>2026-04-04T13:31:38.999Z</time></trkpt><trkpt lat="41.01729077198476" lon="14.799024898579606"><ele>219.5</ele><time>2026-04-04T13:31:39.999Z</time></trkpt><trkpt lat="41.01728670338928" lon="14.798828891813075"><ele>218.25</ele><time>2026-04-04T13:31:40.999Z</time></trkpt><trkpt lat="41.017244973505704" lon="14.798620686410299"><ele>217.0</ele><time>2026-04-04T13:31:41.999Z</time></trkpt><trkpt lat="41.01721058023196" lon="14.798383637012195"><ele>216.0</ele><time>2026-04-04T13:31:43Z</time></trkpt><trkpt lat="41.01720530905123" lon="14.798152833411322"><ele>215.0</ele><time>2026-04-04T13:31:44Z</time></trkpt><trkpt lat="41.0172434653193" lon="14.797936697753043"><ele>214.0</ele><time>2026-04-04T13:31:45Z</time></trkpt><trkpt lat="41.017296668313946" lon="14.79769528315458"><ele>213.66666666666666</ele><time>2026-04-04T13:31:46Z</time></trkpt><trkpt lat="41.0173049910307" lon="14.797451699790404"><ele>213.33333333333331</ele><time>2026-04-04T13:31:47Z</time></trkpt><trkpt lat="41.017321667452904" lon="14.797157967392787"><ele>213.0</ele><time>2026-04-04T13:31:48Z</time></trkpt><trkpt lat="41.01733474686672" lon="14.796900001881786"><ele>212.66666666666669</ele><time>2026-04-04T13:31:49Z</time></trkpt><trkpt lat="41.01736426239627" lon="14.79665407374721"><ele>212.33333333333334</ele><time>2026-04-04T13:31:50Z</time></trkpt><trkpt lat="41.01740478976671" lon="14.79639426270165"><ele>212.0</ele><time>2026-04-04T13:31:51Z</time></trkpt><trkpt lat="41.017454012543176" lon="14.796104519701519"><ele>212.0</ele><time>2026-04-04T13:31:52Z</time></trkpt><trkpt lat="41.01741879838595" lon="14.79577672497631"><ele>212.0</ele><time>2026-04-04T13:31:53Z</time></trkpt><trkpt lat="41.01742005302707" lon="14.79548022697097"><ele>212.0</ele><time>2026-04-04T13:31:54Z</time></trkpt><trkpt lat="41.01742821834744" lon="14.79522379673356"><ele>212.0</ele><time>2026-04-04T13:31:55Z</time></trkpt><trkpt lat="41.01742223427785" lon="14.794979385792068"><ele>212.0</ele><time>2026-04-04T13:31:56Z</time></trkpt><trkpt lat="41.01738101160354" lon="14.794773143480354"><ele>212.0</ele><time>2026-04-04T13:31:57Z</time></trkpt><trkpt lat="41.01730464476219" lon="14.794562945641577"><ele>212.0</ele><time>2026-04-04T13:31:58Z</time></trkpt><trkpt lat="41.017194895126416" lon="14.794323835319988"><ele>212.0</ele><time>2026-04-04T13:31:59Z</time></trkpt><trkpt lat="41.01708948184785" lon="14.794125108893537"><ele>212.5</ele><time>2026-04-04T13:32:00Z</time></trkpt><trkpt lat="41.01700121619641" lon="14.79395993955155"><ele>213.0</ele><time>2026-04-04T13:32:01Z</time></trkpt><trkpt lat="41.016908393811576" lon="14.79380945642787"><ele>213.5</ele><time>2026-04-04T13:32:02Z</time></trkpt><trkpt lat="41.01681282498441" lon="14.793673143784282"><ele>214.0</ele><time>2026-04-04T13:32:03Z</time></trkpt><trkpt lat="41.016730504544206" lon="14.793542684594279"><ele>213.5</ele><time>2026-04-04T13:32:04Z</time></trkpt><trkpt lat="41.016646078079646" lon="14.793427448218374"><ele>213.0</ele><time>2026-04-04T13:32:05Z</time></trkpt><trkpt lat="41.01656370779233" lon="14.793293026160491"><ele>212.5</ele><time>2026-04-04T13:32:06Z</time></trkpt><trkpt lat="41.016559212037855" lon="14.793103503450107"><ele>212.0</ele><time>2026-04-04T13:32:07Z</time></trkpt><trkpt lat="41.01653700417158" lon="14.792896677994676"><ele>212.0</ele><time>2026-04-04T13:32:08Z</time></trkpt><trkpt lat="41.016483465207266" lon="14.792695601500087"><ele>212.0</ele><time>2026-04-04T13:32:09Z</time></trkpt><trkpt lat="41.01639408244196" lon="14.792499447045593"><ele>212.0</ele><time>2026-04-04T13:32:10Z</time></trkpt><trkpt lat="41.01625277399339" lon="14.792314868313827"><ele>212.0</ele><time>2026-04-04T13:32:11Z</time></trkpt><trkpt lat="41.01615571916073" lon="14.792120026675272"><ele>212.0</ele><time>2026-04-04T13:32:12Z</time></trkpt><trkpt lat="41.01605956833542" lon="14.791963507312326"><ele>212.0</ele><time>2026-04-04T13:32:13Z</time></trkpt><trkpt lat="41.016013716220606" lon="14.791771044569382"><ele>212.66666666666669</ele><time>2026-04-04T13:32:14Z</time></trkpt><trkpt lat="41.01602766880559" lon="14.791593936209502"><ele>213.33333333333331</ele><time>2026-04-04T13:32:15Z</time></trkpt><trkpt lat="41.016055334988806" lon="14.79138710092268"><ele>214.0</ele><time>2026-04-04T13:32:16Z</time></trkpt><trkpt lat="41.01611910435623" lon="14.791144509996863"><ele>213.33333333333331</ele><time>2026-04-04T13:32:17Z</time></trkpt><trkpt lat="41.01619534808654" lon="14.790868460197872"><ele>212.66666666666669</ele><time>2026-04-04T13:32:18Z</time></trkpt><trkpt lat="41.01627090356722" lon="14.79059278194351"><ele>212.0</ele><time>2026-04-04T13:32:19Z</time></trkpt><trkpt lat="41.0163475418195" lon="14.790339104497548"><ele>211.0</ele><time>2026-04-04T13:32:20Z</time></trkpt><trkpt lat="41.016460364603745" lon="14.790078295075682"><ele>210.0</ele><time>2026-04-04T13:32:21Z</time></trkpt><trkpt lat="41.01655754074589" lon="14.789847917781913"><ele>209.0</ele><time>2026-04-04T13:32:22Z</time></trkpt><trkpt lat="41.01664092228548" lon="14.789673035997634"><ele>211.0</ele><time>2026-04-04T13:32:23Z</time></trkpt><trkpt lat="41.01675122254168" lon="14.789525696980201"><ele>213.0</ele><time>2026-04-04T13:32:24Z</time></trkpt><trkpt lat="41.016885308473626" lon="14.789368436817421"><ele>215.0</ele><time>2026-04-04T13:32:25Z</time></trkpt><trkpt lat="41.01702326871271" lon="14.789182627758253"><ele>215.0</ele><time>2026-04-04T13:32:26Z</time></trkpt><trkpt lat="41.01716671011584" lon="14.788953911231875"><ele>215.0</ele><time>2026-04-04T13:32:27Z</time></trkpt><trkpt lat="41.01732466380644" lon="14.788718157366606"><ele>218.0</ele><time>2026-04-04T13:32:28Z</time></trkpt><trkpt lat="41.01748689158271" lon="14.788499631810998"><ele>221.0</ele><time>2026-04-04T13:32:29Z</time></trkpt><trkpt lat="41.01761194155453" lon="14.788275347092295"><ele>224.0</ele><time>2026-04-04T13:32:30Z</time></trkpt><trkpt lat="41.01770990067949" lon="14.788019042305992"><ele>224.0</ele><time>2026-04-04T13:32:31Z</time></trkpt><trkpt lat="41.0178045586963" lon="14.787763116272393"><ele>224.0</ele><time>2026-04-04T13:32:32Z</time></trkpt><trkpt lat="41.01785588552385" lon="14.787436121977606"><ele>219.0</ele><time>2026-04-04T13:32:33Z</time></trkpt><trkpt lat="41.01789548717954" lon="14.787123847860363"><ele>214.0</ele><time>2026-04-04T13:32:34Z</time></trkpt><trkpt lat="41.01791118699197" lon="14.786796318668134"><ele>213.33333333333331</ele><time>2026-04-04T13:32:35Z</time></trkpt><trkpt lat="41.01793194436482" lon="14.786510999257294"><ele>212.66666666666669</ele><time>2026-04-04T13:32:36Z</time></trkpt><trkpt lat="41.01795480774124" lon="14.786252075480473"><ele>212.0</ele><time>2026-04-04T13:32:37Z</time></trkpt><trkpt lat="41.01797470130163" lon="14.786030339917133"><ele>213.33333333333334</ele><time>2026-04-04T13:32:38Z</time></trkpt><trkpt lat="41.01800210749986" lon="14.78581463250464"><ele>214.66666666666669</ele><time>2026-04-04T13:32:39Z</time></trkpt><trkpt lat="41.0180187951678" lon="14.785611339212156"><ele>216.0</ele><time>2026-04-04T13:32:40Z</time></trkpt><trkpt lat="41.01801946006973" lon="14.785407014876666"><ele>216.0</ele><time>2026-04-04T13:32:41Z</time></trkpt><trkpt lat="41.01796294646955" lon="14.785201202545844"><ele>216.0</ele><time>2026-04-04T13:32:41.999Z</time></trkpt><trkpt lat="41.0179022059745" lon="14.784949741896316"><ele>216.0</ele><time>2026-04-04T13:32:42.999Z</time></trkpt><trkpt lat="41.01781815397883" lon="14.784724864148751"><ele>219.0</ele><time>2026-04-04T13:32:43.999Z</time></trkpt><trkpt lat="41.0177316017844" lon="14.784436435235177"><ele>222.0</ele><time>2026-04-04T13:32:44.999Z</time></trkpt><trkpt lat="41.017659447686285" lon="14.784186442220747"><ele>225.0</ele><time>2026-04-04T13:32:45.999Z</time></trkpt><trkpt lat="41.0175778606108" lon="14.78396340119723"><ele>226.33333333333331</ele><time>2026-04-04T13:32:46.999Z</time></trkpt><trkpt lat="41.01747413342749" lon="14.7837715466486"><ele>227.66666666666666</ele><time>2026-04-04T13:32:47.999Z</time></trkpt><trkpt lat="41.01740246752519" lon="14.783566227964396"><ele>229.0</ele><time>2026-04-04T13:32:48.999Z</time></trkpt><trkpt lat="41.017338175133034" lon="14.783369206218563"><ele>225.0</ele><time>2026-04-04T13:32:49.999Z</time></trkpt><trkpt lat="41.01729300553246" lon="14.783207477404984"><ele>221.0</ele><time>2026-04-04T13:32:50.999Z</time></trkpt><trkpt lat="41.0172074956333" lon="14.783113372593618"><ele>217.0</ele><time>2026-04-04T13:32:51.999Z</time></trkpt><trkpt lat="41.01711918953729" lon="14.783065071590137"><ele>213.0</ele><time>2026-04-04T13:32:52.999Z</time></trkpt><trkpt lat="41.016998767602516" lon="14.783110793062523"><ele>213.0</ele><time>2026-04-04T13:32:53.999Z</time></trkpt><trkpt lat="41.01683336784053" lon="14.7831690297326"><ele>213.0</ele><time>2026-04-04T13:32:54.999Z</time></trkpt><trkpt lat="41.01669341084864" lon="14.78326569107367"><ele>213.0</ele><time>2026-04-04T13:32:55.999Z</time></trkpt><trkpt lat="41.0165749554474" lon="14.783384025505985"><ele>212.25</ele><time>2026-04-04T13:32:56.999Z</time></trkpt><trkpt lat="41.01647625057832" lon="14.783526070809412"><ele>211.5</ele><time>2026-04-04T13:32:57.999Z</time></trkpt><trkpt lat="41.016408006928046" lon="14.783670831837886"><ele>210.75</ele><time>2026-04-04T13:32:58.999Z</time></trkpt><trkpt lat="41.016366383157525" lon="14.783807555946495"><ele>210.0</ele><time>2026-04-04T13:32:59.999Z</time></trkpt><trkpt lat="41.0162928121648" lon="14.783920996543"><ele>210.0</ele><time>2026-04-04T13:33:00.999Z</time></trkpt><trkpt lat="41.0162227089758" lon="14.783989235055868"><ele>210.0</ele><time>2026-04-04T13:33:01.999Z</time></trkpt><trkpt lat="41.01614522742464" lon="14.784022017914138"><ele>210.0</ele><time>2026-04-04T13:33:02.999Z</time></trkpt><trkpt lat="41.01606308322477" lon="14.783962556164335"><ele>210.0</ele><time>2026-04-04T13:33:03.999Z</time></trkpt><trkpt lat="41.01599241054924" lon="14.783944408890083"><ele>210.0</ele><time>2026-04-04T13:33:04.999Z</time></trkpt><trkpt lat="41.01587725616293" lon="14.78390934036916"><ele>211.6</ele><time>2026-04-04T13:33:05.999Z</time></trkpt><trkpt lat="41.01577758806894" lon="14.78388610623821"><ele>213.2</ele><time>2026-04-04T13:33:06.999Z</time></trkpt><trkpt lat="41.01568289636297" lon="14.78386902542423"><ele>214.8</ele><time>2026-04-04T13:33:07.999Z</time></trkpt><trkpt lat="41.015598919727175" lon="14.783848891204926"><ele>216.4</ele><time>2026-04-04T13:33:08.999Z</time></trkpt><trkpt lat="41.015531525626834" lon="14.783783165973444"><ele>218.0</ele><time>2026-04-04T13:33:09.999Z</time></trkpt><trkpt lat="41.01548881823521" lon="14.783659457906145"><ele>217.66666666666669</ele><time>2026-04-04T13:33:10.999Z</time></trkpt><trkpt lat="41.01550565573881" lon="14.783487032801903"><ele>217.33333333333331</ele><time>2026-04-04T13:33:11.999Z</time></trkpt><trkpt lat="41.01549072448302" lon="14.783264796364433"><ele>217.0</ele><time>2026-04-04T13:33:12.999Z</time></trkpt><trkpt lat="41.01548902599423" lon="14.78302884865012"><ele>217.0</ele><time>2026-04-04T13:33:13.999Z</time></trkpt><trkpt lat="41.01554027405839" lon="14.782825963458576"><ele>217.0</ele><time>2026-04-04T13:33:14.999Z</time></trkpt><trkpt lat="41.01561067280718" lon="14.78260571525146"><ele>217.0</ele><time>2026-04-04T13:33:15.999Z</time></trkpt><trkpt lat="41.01567865480981" lon="14.782367128067698"><ele>217.5</ele><time>2026-04-04T13:33:16.999Z</time></trkpt><trkpt lat="41.01575729046104" lon="14.782155995965333"><ele>218.0</ele><time>2026-04-04T13:33:17.999Z</time></trkpt><trkpt lat="41.015817754299846" lon="14.781970908204686"><ele>218.5</ele><time>2026-04-04T13:33:18.999Z</time></trkpt><trkpt lat="41.01586077579275" lon="14.781835622704323"><ele>219.0</ele><time>2026-04-04T13:33:19.999Z</time></trkpt><trkpt lat="41.01584952025521" lon="14.781689927070918"><ele>219.5</ele><time>2026-04-04T13:33:20.999Z</time></trkpt><trkpt lat="41.01581259143163" lon="14.78156823269799"><ele>220.0</ele><time>2026-04-04T13:33:21.999Z</time></trkpt><trkpt lat="41.015745481985604" lon="14.781462278073183"><ele>220.5</ele><time>2026-04-04T13:33:22.999Z</time></trkpt><trkpt lat="41.01569861181744" lon="14.781350840672081"><ele>221.0</ele><time>2026-04-04T13:33:24.999Z</time></trkpt><trkpt lat="41.01552344422103" lon="14.78129568757267"><ele>221.0</ele><time>2026-04-04T13:33:27.999Z</time></trkpt><trkpt lat="41.01542746170935" lon="14.781290748966535"><ele>221.00000000000003</ele><time>2026-04-04T13:33:28.999Z</time></trkpt><trkpt lat="41.015344609867924" lon="14.781270514340365"><ele>221.00000000000003</ele><time>2026-04-04T13:33:29.999Z</time></trkpt><trkpt lat="41.01524678384889" lon="14.781204820897127"><ele>221.0</ele><time>2026-04-04T13:33:30.999Z</time></trkpt><trkpt lat="41.01513725459714" lon="14.781126126798654"><ele>221.0</ele><time>2026-04-04T13:33:31.999Z</time></trkpt><trkpt lat="41.015061976601224" lon="14.781055685821574"><ele>219.60000000000002</ele><time>2026-04-04T13:33:32.999Z</time></trkpt><trkpt lat="41.01501032317723" lon="14.780974584261337"><ele>218.20000000000002</ele><time>2026-04-04T13:33:33.999Z</time></trkpt><trkpt lat="41.014955468870276" lon="14.78089407556047"><ele>216.79999999999998</ele><time>2026-04-04T13:33:34.999Z</time></trkpt><trkpt lat="41.014884774328046" lon="14.78078570462428"><ele>215.39999999999998</ele><time>2026-04-04T13:33:35.999Z</time></trkpt><trkpt lat="41.01480029442691" lon="14.780660980265312"><ele>214.0</ele><time>2026-04-04T13:33:36.999Z</time></trkpt><trkpt lat="41.01473824162373" lon="14.780569687163656"><ele>215.75</ele><time>2026-04-04T13:33:37.999Z</time></trkpt><trkpt lat="41.01463845434549" lon="14.780450596477623"><ele>217.5</ele><time>2026-04-04T13:33:38.999Z</time></trkpt><trkpt lat="41.01454286168135" lon="14.780301571114075"><ele>219.25</ele><time>2026-04-04T13:33:39.999Z</time></trkpt><trkpt lat="41.014436457782935" lon="14.78013150962736"><ele>221.0</ele><time>2026-04-04T13:33:40.999Z</time></trkpt><trkpt lat="41.01432575560085" lon="14.779961876716595"><ele>221.0</ele><time>2026-04-04T13:33:41.999Z</time></trkpt><trkpt lat="41.014213235382655" lon="14.77977196951367"><ele>221.0</ele><time>2026-04-04T13:33:42.999Z</time></trkpt><trkpt lat="41.01410497378528" lon="14.779589260568732"><ele>221.0</ele><time>2026-04-04T13:33:43.999Z</time></trkpt><trkpt lat="41.013997842626566" lon="14.779392892472648"><ele>225.66666666666669</ele><time>2026-04-04T13:33:44.999Z</time></trkpt><trkpt lat="41.013858597822555" lon="14.779154621247883"><ele>230.33333333333331</ele><time>2026-04-04T13:33:45.999Z</time></trkpt><trkpt lat="41.01373245736321" lon="14.778925648068533"><ele>235.0</ele><time>2026-04-04T13:33:46.999Z</time></trkpt><trkpt lat="41.01361654122668" lon="14.778700793862683"><ele>232.0</ele><time>2026-04-04T13:33:47.999Z</time></trkpt><trkpt lat="41.013512631711585" lon="14.77849185954177"><ele>229.0</ele><time>2026-04-04T13:33:49Z</time></trkpt><trkpt lat="41.01340979669357" lon="14.778297038672452"><ele>226.0</ele><time>2026-04-04T13:33:50Z</time></trkpt><trkpt lat="41.013307718781" lon="14.778109368665746"><ele>231.66666666666666</ele><time>2026-04-04T13:33:51Z</time></trkpt><trkpt lat="41.013196771421654" lon="14.777912571101684"><ele>237.33333333333331</ele><time>2026-04-04T13:33:52Z</time></trkpt><trkpt lat="41.01305382454095" lon="14.777720101134612"><ele>243.0</ele><time>2026-04-04T13:33:53Z</time></trkpt><trkpt lat="41.012929184906724" lon="14.7775276316887"><ele>243.0</ele><time>2026-04-04T13:33:54Z</time></trkpt><trkpt lat="41.01284423137704" lon="14.777279731229838"><ele>243.0</ele><time>2026-04-04T13:33:55Z</time></trkpt><trkpt lat="41.01273940129833" lon="14.777004988155639"><ele>243.0</ele><time>2026-04-04T13:33:56Z</time></trkpt><trkpt lat="41.01261700852953" lon="14.776724454567523"><ele>246.5</ele><time>2026-04-04T13:33:57Z</time></trkpt><trkpt lat="41.01245603569244" lon="14.7764467223196"><ele>250.0</ele><time>2026-04-04T13:33:58Z</time></trkpt><trkpt lat="41.012308990655946" lon="14.7761963537524"><ele>248.66666666666666</ele><time>2026-04-04T13:33:59Z</time></trkpt><trkpt lat="41.01218718849533" lon="14.775973170924633"><ele>247.33333333333331</ele><time>2026-04-04T13:34:00Z</time></trkpt><trkpt lat="41.012102817456714" lon="14.775745214307275"><ele>246.0</ele><time>2026-04-04T13:34:01Z</time></trkpt><trkpt lat="41.012027700446936" lon="14.775510586322664"><ele>246.0</ele><time>2026-04-04T13:34:02Z</time></trkpt><trkpt lat="41.01199768609406" lon="14.775257122722742"><ele>246.0</ele><time>2026-04-04T13:34:03Z</time></trkpt><trkpt lat="41.011972697836555" lon="14.775031616719096"><ele>246.0</ele><time>2026-04-04T13:34:04Z</time></trkpt><trkpt lat="41.011961741922875" lon="14.774808730923812"><ele>244.66666666666669</ele><time>2026-04-04T13:34:05Z</time></trkpt><trkpt lat="41.0119106026373" lon="14.774602262817385"><ele>243.33333333333334</ele><time>2026-04-04T13:34:06Z</time></trkpt><trkpt lat="41.01181362678585" lon="14.774410352576263"><ele>242.0</ele><time>2026-04-04T13:34:07Z</time></trkpt><trkpt lat="41.011682511414" lon="14.774220033376393"><ele>243.33333333333334</ele><time>2026-04-04T13:34:08Z</time></trkpt><trkpt lat="41.011554069915604" lon="14.774052813314219"><ele>244.66666666666669</ele><time>2026-04-04T13:34:09Z</time></trkpt><trkpt lat="41.01144474113873" lon="14.773926239098293"><ele>246.0</ele><time>2026-04-04T13:34:10Z</time></trkpt><trkpt lat="41.01131507225418" lon="14.773837089921571"><ele>246.0</ele><time>2026-04-04T13:34:11Z</time></trkpt><trkpt lat="41.01116379583538" lon="14.77379845954963"><ele>246.0</ele><time>2026-04-04T13:34:12Z</time></trkpt><trkpt lat="41.010969919196256" lon="14.773796914192793"><ele>246.0</ele><time>2026-04-04T13:34:13Z</time></trkpt><trkpt lat="41.01080211766946" lon="14.773789458079111"><ele>247.5</ele><time>2026-04-04T13:34:14Z</time></trkpt><trkpt lat="41.0106758455147" lon="14.773768253616154"><ele>249.0</ele><time>2026-04-04T13:34:15Z</time></trkpt><trkpt lat="41.01056283435384" lon="14.773681463955098"><ele>250.5</ele><time>2026-04-04T13:34:16Z</time></trkpt><trkpt lat="41.01045964219484" lon="14.773510210148354"><ele>252.0</ele><time>2026-04-04T13:34:17Z</time></trkpt><trkpt lat="41.01032656958827" lon="14.773289445148162"><ele>252.0</ele><time>2026-04-04T13:34:18Z</time></trkpt><trkpt lat="41.010209136526065" lon="14.77309938602497"><ele>252.0</ele><time>2026-04-04T13:34:19Z</time></trkpt><trkpt lat="41.01009452758787" lon="14.772935357100106"><ele>252.0</ele><time>2026-04-04T13:34:20Z</time></trkpt><trkpt lat="41.009992897438515" lon="14.77278416843035"><ele>252.5</ele><time>2026-04-04T13:34:21Z</time></trkpt><trkpt lat="41.009936949057014" lon="14.772623384759038"><ele>253.0</ele><time>2026-04-04T13:34:22Z</time></trkpt><trkpt lat="41.00992910343561" lon="14.772448239477098"><ele>253.5</ele><time>2026-04-04T13:34:23Z</time></trkpt><trkpt lat="41.00988557204141" lon="14.772282620706646"><ele>254.0</ele><time>2026-04-04T13:34:24Z</time></trkpt><trkpt lat="41.00979135437768" lon="14.772113772448975"><ele>254.0</ele><time>2026-04-04T13:34:25Z</time></trkpt><trkpt lat="41.0096433149034" lon="14.77196825936197"><ele>254.0</ele><time>2026-04-04T13:34:26Z</time></trkpt><trkpt lat="41.00945596306231" lon="14.771816134326277"><ele>254.0</ele><time>2026-04-04T13:34:27Z</time></trkpt><trkpt lat="41.00926535374519" lon="14.771654914659756"><ele>254.0</ele><time>2026-04-04T13:34:28Z</time></trkpt><trkpt lat="41.00907045133416" lon="14.771501527511743"><ele>254.0</ele><time>2026-04-04T13:34:29Z</time></trkpt><trkpt lat="41.00889346040053" lon="14.771350792785917"><ele>254.0</ele><time>2026-04-04T13:34:30Z</time></trkpt><trkpt lat="41.008728149935536" lon="14.77120331671452"><ele>247.66666666666669</ele><time>2026-04-04T13:34:31Z</time></trkpt><trkpt lat="41.00857609969626" lon="14.771016664795527"><ele>241.33333333333331</ele><time>2026-04-04T13:34:32Z</time></trkpt><trkpt lat="41.00844645967348" lon="14.770815320457965"><ele>235.0</ele><time>2026-04-04T13:34:33Z</time></trkpt><trkpt lat="41.00835339135308" lon="14.770599126776256"><ele>237.66666666666666</ele><time>2026-04-04T13:34:34Z</time></trkpt><trkpt lat="41.00829218536054" lon="14.770401800887193"><ele>240.33333333333331</ele><time>2026-04-04T13:34:35Z</time></trkpt><trkpt lat="41.00824985221027" lon="14.770194794991326"><ele>243.0</ele><time>2026-04-04T13:34:36Z</time></trkpt><trkpt lat="41.00822627169935" lon="14.769997904361642"><ele>243.0</ele><time>2026-04-04T13:34:37Z</time></trkpt><trkpt lat="41.00816702092198" lon="14.769821897792895"><ele>243.0</ele><time>2026-04-04T13:34:38Z</time></trkpt><trkpt lat="41.00807441917783" lon="14.769660601390123"><ele>243.0</ele><time>2026-04-04T13:34:39Z</time></trkpt><trkpt lat="41.00795065127754" lon="14.769501220974366"><ele>239.0</ele><time>2026-04-04T13:34:40Z</time></trkpt><trkpt lat="41.007825309202666" lon="14.769342104552173"><ele>235.0</ele><time>2026-04-04T13:34:41Z</time></trkpt><trkpt lat="41.00773449287781" lon="14.769189925303612"><ele>231.0</ele><time>2026-04-04T13:34:42Z</time></trkpt><trkpt lat="41.00768819263844" lon="14.769010540572953"><ele>231.0</ele><time>2026-04-04T13:34:43Z</time></trkpt><trkpt lat="41.00769905797104" lon="14.768837494994722"><ele>231.0</ele><time>2026-04-04T13:34:44Z</time></trkpt><trkpt lat="41.00774649328988" lon="14.76874272413194"><ele>231.0</ele><time>2026-04-04T13:34:45Z</time></trkpt><trkpt lat="41.00783022226984" lon="14.768685167810462"><ele>231.0</ele><time>2026-04-04T13:34:46Z</time></trkpt><trkpt lat="41.00795179444796" lon="14.768592361228013"><ele>228.33333333333331</ele><time>2026-04-04T13:34:47Z</time></trkpt><trkpt lat="41.00810225192726" lon="14.768519916051282"><ele>225.66666666666666</ele><time>2026-04-04T13:34:48Z</time></trkpt><trkpt lat="41.0082684549362" lon="14.768470946017192"><ele>223.0</ele><time>2026-04-04T13:34:49Z</time></trkpt><trkpt lat="41.00845567240894" lon="14.768437828577136"><ele>222.66666666666666</ele><time>2026-04-04T13:34:50Z</time></trkpt><trkpt lat="41.00864436106796" lon="14.768427390633097"><ele>222.33333333333331</ele><time>2026-04-04T13:34:51Z</time></trkpt><trkpt lat="41.00884804331751" lon="14.768409573255127"><ele>222.0</ele><time>2026-04-04T13:34:51.999Z</time></trkpt><trkpt lat="41.009016511271845" lon="14.768430354782359"><ele>221.66666666666669</ele><time>2026-04-04T13:34:52.999Z</time></trkpt><trkpt lat="41.009165276501825" lon="14.76842442413334"><ele>221.33333333333334</ele><time>2026-04-04T13:34:53.999Z</time></trkpt><trkpt lat="41.00932343157861" lon="14.768410285018312"><ele>221.0</ele><time>2026-04-04T13:34:54.999Z</time></trkpt><trkpt lat="41.00946741898738" lon="14.768321377861533"><ele>221.0</ele><time>2026-04-04T13:34:55.999Z</time></trkpt><trkpt lat="41.00960496280937" lon="14.768172237158849"><ele>221.0</ele><time>2026-04-04T13:34:56.999Z</time></trkpt><trkpt lat="41.00972642172262" lon="14.767976143108909"><ele>221.0</ele><time>2026-04-04T13:34:57.999Z</time></trkpt><trkpt lat="41.00985714983082" lon="14.76773938369168"><ele>219.66666666666669</ele><time>2026-04-04T13:34:58.999Z</time></trkpt><trkpt lat="41.00997645021517" lon="14.767503618657498"><ele>218.33333333333331</ele><time>2026-04-04T13:34:59.999Z</time></trkpt><trkpt lat="41.010073352110226" lon="14.767248984180684"><ele>217.0</ele><time>2026-04-04T13:35:00.999Z</time></trkpt><trkpt lat="41.0101937371621" lon="14.767016989609404"><ele>217.66666666666666</ele><time>2026-04-04T13:35:01.999Z</time></trkpt><trkpt lat="41.01030475586678" lon="14.766771119841561"><ele>218.33333333333331</ele><time>2026-04-04T13:35:02.999Z</time></trkpt><trkpt lat="41.01041609046515" lon="14.766535133327928"><ele>219.0</ele><time>2026-04-04T13:35:03.999Z</time></trkpt><trkpt lat="41.01051750983923" lon="14.766297561693763"><ele>219.0</ele><time>2026-04-04T13:35:04.999Z</time></trkpt><trkpt lat="41.01062634445107" lon="14.766072976068841"><ele>219.0</ele><time>2026-04-04T13:35:05.999Z</time></trkpt><trkpt lat="41.010720156068444" lon="14.765829007492178"><ele>219.0</ele><time>2026-04-04T13:35:06.999Z</time></trkpt><trkpt lat="41.010791194432166" lon="14.765567388096104"><ele>219.0</ele><time>2026-04-04T13:35:07.999Z</time></trkpt><trkpt lat="41.01087720992619" lon="14.765308459450692"><ele>219.0</ele><time>2026-04-04T13:35:08.999Z</time></trkpt><trkpt lat="41.01095926146376" lon="14.765037763313558"><ele>219.0</ele><time>2026-04-04T13:35:09.999Z</time></trkpt><trkpt lat="41.01102467098286" lon="14.764761869781964"><ele>219.0</ele><time>2026-04-04T13:35:10.999Z</time></trkpt><trkpt lat="41.0110813498153" lon="14.764479031461285"><ele>219.0</ele><time>2026-04-04T13:35:11.999Z</time></trkpt><trkpt lat="41.01112875208341" lon="14.764185939685031"><ele>219.0</ele><time>2026-04-04T13:35:12.999Z</time></trkpt><trkpt lat="41.01118135055248" lon="14.763860773012258"><ele>220.0</ele><time>2026-04-04T13:35:13.999Z</time></trkpt><trkpt lat="41.011221302208554" lon="14.76356429235778"><ele>221.0</ele><time>2026-04-04T13:35:14.999Z</time></trkpt><trkpt lat="41.01124283521018" lon="14.763249900684068"><ele>222.0</ele><time>2026-04-04T13:35:15.999Z</time></trkpt><trkpt lat="41.01126192286252" lon="14.762944422524445"><ele>223.0</ele><time>2026-04-04T13:35:16.999Z</time></trkpt><trkpt lat="41.01125928111383" lon="14.762639110593948"><ele>223.66666666666666</ele><time>2026-04-04T13:35:17.999Z</time></trkpt><trkpt lat="41.01125015146375" lon="14.762340155137563"><ele>224.33333333333331</ele><time>2026-04-04T13:35:18.999Z</time></trkpt><trkpt lat="41.011236439112594" lon="14.762044315708152"><ele>225.0</ele><time>2026-04-04T13:35:19.999Z</time></trkpt><trkpt lat="41.01121345786566" lon="14.761761435973174"><ele>225.5</ele><time>2026-04-04T13:35:20.999Z</time></trkpt><trkpt lat="41.011177575839525" lon="14.761465721659205"><ele>226.0</ele><time>2026-04-04T13:35:21.999Z</time></trkpt><trkpt lat="41.01113586175241" lon="14.761147988508005"><ele>226.5</ele><time>2026-04-04T13:35:22.999Z</time></trkpt><trkpt lat="41.01106919173521" lon="14.760805635143797"><ele>227.0</ele><time>2026-04-04T13:35:23.999Z</time></trkpt><trkpt lat="41.01101816518477" lon="14.760461191743513"><ele>229.0</ele><time>2026-04-04T13:35:24.999Z</time></trkpt><trkpt lat="41.01096643905336" lon="14.760134683262221"><ele>231.0</ele><time>2026-04-04T13:35:25.999Z</time></trkpt><trkpt lat="41.01091126802204" lon="14.759828042514119"><ele>231.0</ele><time>2026-04-04T13:35:26.999Z</time></trkpt><trkpt lat="41.0108534739475" lon="14.759511864253671"><ele>231.0</ele><time>2026-04-04T13:35:27.999Z</time></trkpt><trkpt lat="41.01080173371198" lon="14.759192370824293"><ele>230.0</ele><time>2026-04-04T13:35:28.999Z</time></trkpt><trkpt lat="41.01074374701655" lon="14.758891326408882"><ele>229.0</ele><time>2026-04-04T13:35:29.999Z</time></trkpt><trkpt lat="41.010696424285484" lon="14.758585753369147"><ele>229.5</ele><time>2026-04-04T13:35:30.999Z</time></trkpt><trkpt lat="41.0106403981635" lon="14.758255863405177"><ele>230.0</ele><time>2026-04-04T13:35:31.999Z</time></trkpt><trkpt lat="41.01058918966367" lon="14.757916339925059"><ele>231.0</ele><time>2026-04-04T13:35:32.999Z</time></trkpt><trkpt lat="41.01055298090443" lon="14.757617537976584"><ele>232.0</ele><time>2026-04-04T13:35:33.999Z</time></trkpt><trkpt lat="41.01051125331241" lon="14.757338433294452"><ele>233.0</ele><time>2026-04-04T13:35:34.999Z</time></trkpt><trkpt lat="41.01048387227657" lon="14.757073362601304"><ele>234.66666666666669</ele><time>2026-04-04T13:35:35.999Z</time></trkpt><trkpt lat="41.01046680456642" lon="14.75680020517066"><ele>236.33333333333331</ele><time>2026-04-04T13:35:36.999Z</time></trkpt><trkpt lat="41.01046282756548" lon="14.7565253564672"><ele>238.0</ele><time>2026-04-04T13:35:37.999Z</time></trkpt><trkpt lat="41.01048138149902" lon="14.756255449317207"><ele>238.33333333333331</ele><time>2026-04-04T13:35:38.999Z</time></trkpt><trkpt lat="41.010516705999414" lon="14.755947010581307"><ele>238.66666666666669</ele><time>2026-04-04T13:35:39.999Z</time></trkpt><trkpt lat="41.010581155940535" lon="14.755699017231223"><ele>239.0</ele><time>2026-04-04T13:35:40.999Z</time></trkpt><trkpt lat="41.01063855870484" lon="14.755480871382895"><ele>239.0</ele><time>2026-04-04T13:35:41.999Z</time></trkpt><trkpt lat="41.010697795946214" lon="14.755303893799843"><ele>239.0</ele><time>2026-04-04T13:35:42.999Z</time></trkpt><trkpt lat="41.01078256500844" lon="14.75517678947883"><ele>239.0</ele><time>2026-04-04T13:35:43.999Z</time></trkpt><trkpt lat="41.01089840005194" lon="14.755077868780884"><ele>239.0</ele><time>2026-04-04T13:35:44.999Z</time></trkpt><trkpt lat="41.01103542859882" lon="14.754996685342721"><ele>242.0</ele><time>2026-04-04T13:35:45.999Z</time></trkpt><trkpt lat="41.011188145470136" lon="14.754909421134766"><ele>245.0</ele><time>2026-04-04T13:35:46.999Z</time></trkpt><trkpt lat="41.01131450317668" lon="14.754828325853017"><ele>248.0</ele><time>2026-04-04T13:35:47.999Z</time></trkpt><trkpt lat="41.01141336109419" lon="14.754728735131588"><ele>251.0</ele><time>2026-04-04T13:35:48.999Z</time></trkpt><trkpt lat="41.0114730583428" lon="14.754595841308495"><ele>251.0</ele><time>2026-04-04T13:35:49.999Z</time></trkpt><trkpt lat="41.0114817350315" lon="14.75449499094177"><ele>251.0</ele><time>2026-04-04T13:35:50.999Z</time></trkpt><trkpt lat="41.01151815672696" lon="14.754390903336288"><ele>251.0</ele><time>2026-04-04T13:35:51.999Z</time></trkpt><trkpt lat="41.011552038046" lon="14.75427631985301"><ele>251.0</ele><time>2026-04-04T13:35:52.999Z</time></trkpt><trkpt lat="41.011248156133014" lon="14.753975374894939"><ele>251.33333333333334</ele><time>2026-04-04T13:35:53.999Z</time></trkpt><trkpt lat="41.01117944770219" lon="14.753824245176622"><ele>251.66666666666669</ele><time>2026-04-04T13:35:55Z</time></trkpt><trkpt lat="41.01115545307735" lon="14.7536287232154"><ele>252.0</ele><time>2026-04-04T13:35:56Z</time></trkpt><trkpt lat="41.011163076296434" lon="14.753387194303887"><ele>253.66666666666669</ele><time>2026-04-04T13:35:57Z</time></trkpt><trkpt lat="41.011185292461406" lon="14.753145245227625"><ele>255.33333333333334</ele><time>2026-04-04T13:35:58Z</time></trkpt><trkpt lat="41.01122180126321" lon="14.752888025388163"><ele>257.0</ele><time>2026-04-04T13:35:59Z</time></trkpt><trkpt lat="41.011267643866425" lon="14.7526174808224"><ele>258.0</ele><time>2026-04-04T13:36:00Z</time></trkpt><trkpt lat="41.011320473796175" lon="14.752358206018883"><ele>259.0</ele><time>2026-04-04T13:36:01Z</time></trkpt><trkpt lat="41.011379438376835" lon="14.752102879026614"><ele>260.0</ele><time>2026-04-04T13:36:02Z</time></trkpt><trkpt lat="41.011460850996656" lon="14.751830176803564"><ele>260.0</ele><time>2026-04-04T13:36:03Z</time></trkpt><trkpt lat="41.0115627409883" lon="14.751548079112897"><ele>260.0</ele><time>2026-04-04T13:36:04Z</time></trkpt><trkpt lat="41.01169476296258" lon="14.751257302901287"><ele>266.5</ele><time>2026-04-04T13:36:05Z</time></trkpt><trkpt lat="41.01182198689698" lon="14.750999704537817"><ele>273.0</ele><time>2026-04-04T13:36:06Z</time></trkpt><trkpt lat="41.01194901059805" lon="14.750750913812025"><ele>273.0</ele><time>2026-04-04T13:36:07Z</time></trkpt><trkpt lat="41.01206631179943" lon="14.750498063619817"><ele>273.0</ele><time>2026-04-04T13:36:08Z</time></trkpt><trkpt lat="41.012176805786055" lon="14.750246775786826"><ele>273.0</ele><time>2026-04-04T13:36:09Z</time></trkpt><trkpt lat="41.01227096019166" lon="14.750022680071854"><ele>272.6666666666667</ele><time>2026-04-04T13:36:10Z</time></trkpt><trkpt lat="41.01234773070408" lon="14.749815561374131"><ele>272.33333333333337</ele><time>2026-04-04T13:36:11Z</time></trkpt><trkpt lat="41.0124188897762" lon="14.749622060813632"><ele>272.0</ele><time>2026-04-04T13:36:12Z</time></trkpt><trkpt lat="41.012491447156336" lon="14.749430404857575"><ele>271.75</ele><time>2026-04-04T13:36:13Z</time></trkpt><trkpt lat="41.012529208231236" lon="14.749248724404145"><ele>271.5</ele><time>2026-04-04T13:36:14Z</time></trkpt><trkpt lat="41.0125346742704" lon="14.749062599340048"><ele>271.25</ele><time>2026-04-04T13:36:15Z</time></trkpt><trkpt lat="41.012511894750865" lon="14.748862547317101"><ele>271.0</ele><time>2026-04-04T13:36:16Z</time></trkpt><trkpt lat="41.01247392548489" lon="14.748628815217668"><ele>274.0</ele><time>2026-04-04T13:36:17Z</time></trkpt><trkpt lat="41.012439287878436" lon="14.748386978329266"><ele>277.0</ele><time>2026-04-04T13:36:18Z</time></trkpt><trkpt lat="41.012418969555384" lon="14.748170540847703"><ele>280.0</ele><time>2026-04-04T13:36:19Z</time></trkpt><trkpt lat="41.0124215316445" lon="14.747959959308663"><ele>280.0</ele><time>2026-04-04T13:36:20Z</time></trkpt><trkpt lat="41.012450424229534" lon="14.747756246549427"><ele>280.0</ele><time>2026-04-04T13:36:21Z</time></trkpt><trkpt lat="41.01250378546669" lon="14.747566317800265"><ele>280.0</ele><time>2026-04-04T13:36:22Z</time></trkpt><trkpt lat="41.01257959713966" lon="14.747415064684018"><ele>280.0</ele><time>2026-04-04T13:36:23Z</time></trkpt><trkpt lat="41.012696443764526" lon="14.747258154190787"><ele>284.0</ele><time>2026-04-04T13:36:24Z</time></trkpt><trkpt lat="41.01283012553898" lon="14.74709722033204"><ele>288.0</ele><time>2026-04-04T13:36:25Z</time></trkpt><trkpt lat="41.012955701612405" lon="14.746935868350457"><ele>292.0</ele><time>2026-04-04T13:36:26Z</time></trkpt><trkpt lat="41.01304179329499" lon="14.746755076875276"><ele>292.66666666666663</ele><time>2026-04-04T13:36:27Z</time></trkpt><trkpt lat="41.01309805359664" lon="14.746545746071376"><ele>293.3333333333333</ele><time>2026-04-04T13:36:28Z</time></trkpt><trkpt lat="41.01312231097801" lon="14.746295129535431"><ele>294.0</ele><time>2026-04-04T13:36:29Z</time></trkpt><trkpt lat="41.0131261294864" lon="14.746065419553467"><ele>296.0</ele><time>2026-04-04T13:36:30Z</time></trkpt><trkpt lat="41.013119395888396" lon="14.745874392476752"><ele>298.0</ele><time>2026-04-04T13:36:31Z</time></trkpt><trkpt lat="41.013100002029034" lon="14.74569383385196"><ele>300.0</ele><time>2026-04-04T13:36:32Z</time></trkpt><trkpt lat="41.01304363795816" lon="14.74553592131996"><ele>302.0</ele><time>2026-04-04T13:36:33Z</time></trkpt><trkpt lat="41.012954301340756" lon="14.745425465607449"><ele>302.0</ele><time>2026-04-04T13:36:34Z</time></trkpt><trkpt lat="41.01283414267498" lon="14.745351337588701"><ele>302.0</ele><time>2026-04-04T13:36:35Z</time></trkpt><trkpt lat="41.01269131463245" lon="14.745331612751801"><ele>302.0</ele><time>2026-04-04T13:36:36Z</time></trkpt><trkpt lat="41.012530428558556" lon="14.745358086502032"><ele>302.0</ele><time>2026-04-04T13:36:37Z</time></trkpt><trkpt lat="41.01235512500559" lon="14.74541337752977"><ele>301.6666666666667</ele><time>2026-04-04T13:36:38Z</time></trkpt><trkpt lat="41.01216592630313" lon="14.745484197148407"><ele>301.3333333333333</ele><time>2026-04-04T13:36:39Z</time></trkpt><trkpt lat="41.01197613588248" lon="14.745540395999887"><ele>301.0</ele><time>2026-04-04T13:36:40Z</time></trkpt><trkpt lat="41.01181024105367" lon="14.745567542046837"><ele>301.0</ele><time>2026-04-04T13:36:41Z</time></trkpt><trkpt lat="41.01166527374659" lon="14.745566113861353"><ele>301.0</ele><time>2026-04-04T13:36:42Z</time></trkpt><trkpt lat="41.01152559675985" lon="14.745529306070855"><ele>301.0</ele><time>2026-04-04T13:36:43Z</time></trkpt><trkpt lat="41.01138222657537" lon="14.74543260232675"><ele>301.0</ele><time>2026-04-04T13:36:44Z</time></trkpt><trkpt lat="41.011214161635195" lon="14.745320862403917"><ele>299.66666666666663</ele><time>2026-04-04T13:36:45Z</time></trkpt><trkpt lat="41.011024670497925" lon="14.74515941085445"><ele>298.3333333333333</ele><time>2026-04-04T13:36:46Z</time></trkpt><trkpt lat="41.01085072598335" lon="14.745002550433231"><ele>297.0</ele><time>2026-04-04T13:36:47Z</time></trkpt><trkpt lat="41.0107033227991" lon="14.74487640941087"><ele>297.0</ele><time>2026-04-04T13:36:48Z</time></trkpt><trkpt lat="41.010575212458726" lon="14.744749347082536"><ele>297.0</ele><time>2026-04-04T13:36:49Z</time></trkpt><trkpt lat="41.010476087141164" lon="14.744600421079058"><ele>297.0</ele><time>2026-04-04T13:36:50Z</time></trkpt><trkpt lat="41.010407433756264" lon="14.744429952673384"><ele>300.25</ele><time>2026-04-04T13:36:51Z</time></trkpt><trkpt lat="41.01036834000306" lon="14.744268818764262"><ele>303.5</ele><time>2026-04-04T13:36:52Z</time></trkpt><trkpt lat="41.0103560096551" lon="14.744119119112073"><ele>306.75</ele><time>2026-04-04T13:36:53Z</time></trkpt><trkpt lat="41.01038724001061" lon="14.743973128690484"><ele>310.0</ele><time>2026-04-04T13:36:54Z</time></trkpt><trkpt lat="41.010472840927875" lon="14.743816422905658"><ele>310.0</ele><time>2026-04-04T13:36:55Z</time></trkpt><trkpt lat="41.01058686109047" lon="14.743629704934515"><ele>310.0</ele><time>2026-04-04T13:36:56Z</time></trkpt><trkpt lat="41.010700327337425" lon="14.74345321491246"><ele>310.0</ele><time>2026-04-04T13:36:57Z</time></trkpt><trkpt lat="41.010807611110344" lon="14.743273328091325"><ele>315.66666666666663</ele><time>2026-04-04T13:36:58Z</time></trkpt><trkpt lat="41.010848608306766" lon="14.743085829348223"><ele>321.3333333333333</ele><time>2026-04-04T13:36:59Z</time></trkpt><trkpt lat="41.01087063294292" lon="14.742876289036849"><ele>327.0</ele><time>2026-04-04T13:37:00Z</time></trkpt><trkpt lat="41.01086965606683" lon="14.742665386741143"><ele>323.6666666666667</ele><time>2026-04-04T13:37:01Z</time></trkpt><trkpt lat="41.01081810725106" lon="14.742450327411902"><ele>320.33333333333337</ele><time>2026-04-04T13:37:02Z</time></trkpt><trkpt lat="41.01074101212085" lon="14.742229336010437"><ele>317.0</ele><time>2026-04-04T13:37:03Z</time></trkpt><trkpt lat="41.010653957779496" lon="14.742020568739212"><ele>321.0</ele><time>2026-04-04T13:37:03.999Z</time></trkpt><trkpt lat="41.01056637985593" lon="14.7418583467517"><ele>325.0</ele><time>2026-04-04T13:37:04.999Z</time></trkpt><trkpt lat="41.01044026396282" lon="14.741734180638103"><ele>329.0</ele><time>2026-04-04T13:37:05.999Z</time></trkpt><trkpt lat="41.010278548723846" lon="14.741607792726173"><ele>329.0</ele><time>2026-04-04T13:37:06.999Z</time></trkpt><trkpt lat="41.01013451658486" lon="14.741466882688085"><ele>329.0</ele><time>2026-04-04T13:37:07.999Z</time></trkpt><trkpt lat="41.010005164955004" lon="14.74136383755992"><ele>329.0</ele><time>2026-04-04T13:37:08.999Z</time></trkpt><trkpt lat="41.00991509295184" lon="14.74127032071309"><ele>329.0</ele><time>2026-04-04T13:37:09.999Z</time></trkpt><trkpt lat="41.00987240334492" lon="14.741168543130001"><ele>329.4</ele><time>2026-04-04T13:37:10.999Z</time></trkpt><trkpt lat="41.00988607238129" lon="14.741066553277616"><ele>329.79999999999995</ele><time>2026-04-04T13:37:11.999Z</time></trkpt><trkpt lat="41.009936280731395" lon="14.740950977342179"><ele>330.20000000000005</ele><time>2026-04-04T13:37:12.999Z</time></trkpt><trkpt lat="41.01005746778356" lon="14.740881758570113"><ele>330.6</ele><time>2026-04-04T13:37:13.999Z</time></trkpt><trkpt lat="41.010174971176674" lon="14.7408663889424"><ele>331.0</ele><time>2026-04-04T13:37:14.999Z</time></trkpt><trkpt lat="41.010322089973165" lon="14.740936884790525"><ele>330.3333333333333</ele><time>2026-04-04T13:37:15.999Z</time></trkpt><trkpt lat="41.01048933214236" lon="14.741004624703152"><ele>329.6666666666667</ele><time>2026-04-04T13:37:16.999Z</time></trkpt><trkpt lat="41.01065475818472" lon="14.741140758948974"><ele>329.0</ele><time>2026-04-04T13:37:17.999Z</time></trkpt><trkpt lat="41.0108410948897" lon="14.74129405679844"><ele>331.0</ele><time>2026-04-04T13:37:18.999Z</time></trkpt><trkpt lat="41.011030996917846" lon="14.741435221276895"><ele>333.0</ele><time>2026-04-04T13:37:19.999Z</time></trkpt><trkpt lat="41.0112393401401" lon="14.741533271952198"><ele>335.0</ele><time>2026-04-04T13:37:20.999Z</time></trkpt><trkpt lat="41.01141303483538" lon="14.741620402858933"><ele>335.0</ele><time>2026-04-04T13:37:21.999Z</time></trkpt><trkpt lat="41.011525430185124" lon="14.741765294913876"><ele>335.0</ele><time>2026-04-04T13:37:22.999Z</time></trkpt><trkpt lat="41.01163086226914" lon="14.741960076023773"><ele>335.0</ele><time>2026-04-04T13:37:23.999Z</time></trkpt><trkpt lat="41.01173289918259" lon="14.74217223683148"><ele>338.0</ele><time>2026-04-04T13:37:24.999Z</time></trkpt><trkpt lat="41.011847197253545" lon="14.742381710442626"><ele>341.0</ele><time>2026-04-04T13:37:25.999Z</time></trkpt><trkpt lat="41.011933226617764" lon="14.742573924349545"><ele>344.0</ele><time>2026-04-04T13:37:26.999Z</time></trkpt><trkpt lat="41.01200672372309" lon="14.74269937579203"><ele>344.0</ele><time>2026-04-04T13:37:27.999Z</time></trkpt><trkpt lat="41.012147891752846" lon="14.742741902589838"><ele>344.0</ele><time>2026-04-04T13:37:28.999Z</time></trkpt><trkpt lat="41.012310640574675" lon="14.742777424747267"><ele>344.0</ele><time>2026-04-04T13:37:29.999Z</time></trkpt><trkpt lat="41.01250836326848" lon="14.742775070958755"><ele>344.5</ele><time>2026-04-04T13:37:30.999Z</time></trkpt><trkpt lat="41.012721705124775" lon="14.742768533680822"><ele>345.0</ele><time>2026-04-04T13:37:31.999Z</time></trkpt><trkpt lat="41.012957952610414" lon="14.742749630446546"><ele>345.0</ele><time>2026-04-04T13:37:32.999Z</time></trkpt><trkpt lat="41.01318871403152" lon="14.742722063240052"><ele>345.0</ele><time>2026-04-04T13:37:33.999Z</time></trkpt><trkpt lat="41.01340157108888" lon="14.742661184167076"><ele>345.0</ele><time>2026-04-04T13:37:34.999Z</time></trkpt><trkpt lat="41.01361810516066" lon="14.742575334791646"><ele>350.3333333333333</ele><time>2026-04-04T13:37:35.999Z</time></trkpt><trkpt lat="41.01380301970347" lon="14.74248694766822"><ele>355.66666666666663</ele><time>2026-04-04T13:37:36.999Z</time></trkpt><trkpt lat="41.013976606539174" lon="14.742429764618993"><ele>361.0</ele><time>2026-04-04T13:37:37.999Z</time></trkpt><trkpt lat="41.01411016426815" lon="14.742374383320374"><ele>361.75</ele><time>2026-04-04T13:37:38.999Z</time></trkpt><trkpt lat="41.01422658492994" lon="14.742366034562991"><ele>362.5</ele><time>2026-04-04T13:37:39.999Z</time></trkpt><trkpt lat="41.014336842143486" lon="14.742391099605594"><ele>363.25</ele><time>2026-04-04T13:37:40.999Z</time></trkpt><trkpt lat="41.014428427204706" lon="14.742515394296074"><ele>364.0</ele><time>2026-04-04T13:37:41.999Z</time></trkpt><trkpt lat="41.014446609477396" lon="14.742652711903085"><ele>361.66666666666663</ele><time>2026-04-04T13:37:42.999Z</time></trkpt><trkpt lat="41.01441396863042" lon="14.742862015212408"><ele>359.3333333333333</ele><time>2026-04-04T13:37:43.999Z</time></trkpt><trkpt lat="41.014403620038834" lon="14.743119824555176"><ele>357.0</ele><time>2026-04-04T13:37:44.999Z</time></trkpt><trkpt lat="41.01438430641557" lon="14.743353911142316"><ele>357.0</ele><time>2026-04-04T13:37:45.999Z</time></trkpt><trkpt lat="41.01438053570605" lon="14.74354441826994"><ele>357.0</ele><time>2026-04-04T13:37:46.999Z</time></trkpt><trkpt lat="41.01438433570588" lon="14.743703431325429"><ele>357.0</ele><time>2026-04-04T13:37:47.999Z</time></trkpt><trkpt lat="41.01441371034683" lon="14.743843525613299"><ele>357.0</ele><time>2026-04-04T13:37:48.999Z</time></trkpt><trkpt lat="41.014495801556194" lon="14.743957085974788"><ele>354.0</ele><time>2026-04-04T13:37:49.999Z</time></trkpt><trkpt lat="41.01461391842233" lon="14.744005942133535"><ele>351.0</ele><time>2026-04-04T13:37:50.999Z</time></trkpt><trkpt lat="41.014735359922696" lon="14.743989719962224"><ele>348.0</ele><time>2026-04-04T13:37:51.999Z</time></trkpt><trkpt lat="41.01485777113473" lon="14.7439098382267"><ele>345.0</ele><time>2026-04-04T13:37:52.999Z</time></trkpt><trkpt lat="41.01493436331065" lon="14.743763102048586"><ele>348.6666666666667</ele><time>2026-04-04T13:37:53.999Z</time></trkpt><trkpt lat="41.01500093101186" lon="14.743593783201135"><ele>352.33333333333337</ele><time>2026-04-04T13:37:54.999Z</time></trkpt><trkpt lat="41.015065643793726" lon="14.743371054297588"><ele>356.0</ele><time>2026-04-04T13:37:55.999Z</time></trkpt><trkpt lat="41.01513675724802" lon="14.743143076048087"><ele>361.33333333333337</ele><time>2026-04-04T13:37:56.999Z</time></trkpt><trkpt lat="41.01521251433252" lon="14.742904114507693"><ele>366.6666666666667</ele><time>2026-04-04T13:37:57.999Z</time></trkpt><trkpt lat="41.01528288097242" lon="14.742639375406156"><ele>372.0</ele><time>2026-04-04T13:37:58.999Z</time></trkpt><trkpt lat="41.015350420957525" lon="14.74242262674812"><ele>373.0</ele><time>2026-04-04T13:37:59.999Z</time></trkpt><trkpt lat="41.015412762887884" lon="14.74216279300554"><ele>374.0</ele><time>2026-04-04T13:38:01Z</time></trkpt><trkpt lat="41.015466758705166" lon="14.741949324862707"><ele>375.0</ele><time>2026-04-04T13:38:02Z</time></trkpt><trkpt lat="41.015502648545116" lon="14.741770058071834"><ele>376.25</ele><time>2026-04-04T13:38:03Z</time></trkpt><trkpt lat="41.0155070597879" lon="14.741591827008367"><ele>377.5</ele><time>2026-04-04T13:38:04Z</time></trkpt><trkpt lat="41.01545451432477" lon="14.74141307545566"><ele>378.75</ele><time>2026-04-04T13:38:05Z</time></trkpt><trkpt lat="41.01534246254496" lon="14.741251991261224"><ele>380.0</ele><time>2026-04-04T13:38:06Z</time></trkpt><trkpt lat="41.015226070268426" lon="14.74107848846293"><ele>382.6666666666667</ele><time>2026-04-04T13:38:07Z</time></trkpt><trkpt lat="41.01507680252965" lon="14.740948300728437"><ele>385.33333333333337</ele><time>2026-04-04T13:38:08Z</time></trkpt><trkpt lat="41.0149194609142" lon="14.74081989824819"><ele>388.0</ele><time>2026-04-04T13:38:09Z</time></trkpt><trkpt lat="41.0147844655383" lon="14.74070999435713"><ele>388.0</ele><time>2026-04-04T13:38:10Z</time></trkpt><trkpt lat="41.01466901192131" lon="14.740614373320124"><ele>388.0</ele><time>2026-04-04T13:38:11Z</time></trkpt><trkpt lat="41.0145548297039" lon="14.740544655715862"><ele>388.0</ele><time>2026-04-04T13:38:12Z</time></trkpt><trkpt lat="41.01441888534908" lon="14.740500767925823"><ele>388.0</ele><time>2026-04-04T13:38:13Z</time></trkpt><trkpt lat="41.01426649204258" lon="14.740478009911117"><ele>386.33333333333337</ele><time>2026-04-04T13:38:14Z</time></trkpt><trkpt lat="41.014104872599745" lon="14.740465605916166"><ele>384.6666666666667</ele><time>2026-04-04T13:38:15Z</time></trkpt><trkpt lat="41.01395727351735" lon="14.740432558356598"><ele>383.0</ele><time>2026-04-04T13:38:16Z</time></trkpt><trkpt lat="41.013816336768066" lon="14.740379321097162"><ele>383.0</ele><time>2026-04-04T13:38:17Z</time></trkpt><trkpt lat="41.01371499496288" lon="14.740276441470098"><ele>383.0</ele><time>2026-04-04T13:38:18Z</time></trkpt><trkpt lat="41.01361798135049" lon="14.74015569626832"><ele>383.0</ele><time>2026-04-04T13:38:19Z</time></trkpt><trkpt lat="41.01359273845646" lon="14.740010659971686"><ele>383.0</ele><time>2026-04-04T13:38:20Z</time></trkpt><trkpt lat="41.013573031162444" lon="14.739856989540144"><ele>385.0</ele><time>2026-04-04T13:38:21Z</time></trkpt><trkpt lat="41.01362870587157" lon="14.739738388326547"><ele>387.0</ele><time>2026-04-04T13:38:22Z</time></trkpt><trkpt lat="41.01367355992249" lon="14.739538661373023"><ele>389.0</ele><time>2026-04-04T13:38:23Z</time></trkpt><trkpt lat="41.013740345767566" lon="14.739342259068305"><ele>391.0</ele><time>2026-04-04T13:38:24Z</time></trkpt><trkpt lat="41.01379222527617" lon="14.739135655108662"><ele>391.6666666666667</ele><time>2026-04-04T13:38:25Z</time></trkpt><trkpt lat="41.013802386510086" lon="14.73892518848538"><ele>392.33333333333337</ele><time>2026-04-04T13:38:26Z</time></trkpt><trkpt lat="41.01376588937542" lon="14.738701557527929"><ele>393.0</ele><time>2026-04-04T13:38:27Z</time></trkpt><trkpt lat="41.013699694012004" lon="14.738444314874055"><ele>394.66666666666663</ele><time>2026-04-04T13:38:28Z</time></trkpt><trkpt lat="41.01361549525603" lon="14.738172805077767"><ele>396.3333333333333</ele><time>2026-04-04T13:38:29Z</time></trkpt><trkpt lat="41.01352407369007" lon="14.737901159477259"><ele>398.0</ele><time>2026-04-04T13:38:30Z</time></trkpt><trkpt lat="41.01343580967642" lon="14.737661735827404"><ele>399.0</ele><time>2026-04-04T13:38:31Z</time></trkpt><trkpt lat="41.013350407865104" lon="14.73745570493848"><ele>400.0</ele><time>2026-04-04T13:38:32Z</time></trkpt><trkpt lat="41.01326047640752" lon="14.737274126245108"><ele>401.0</ele><time>2026-04-04T13:38:33Z</time></trkpt><trkpt lat="41.01316060663424" lon="14.737099063773682"><ele>401.0</ele><time>2026-04-04T13:38:34Z</time></trkpt><trkpt lat="41.01305000956086" lon="14.736933640900723"><ele>401.0</ele><time>2026-04-04T13:38:35Z</time></trkpt><trkpt lat="41.01293381536015" lon="14.736788187265054"><ele>401.0</ele><time>2026-04-04T13:38:36Z</time></trkpt><trkpt lat="41.01280401121028" lon="14.736663447413374"><ele>403.0</ele><time>2026-04-04T13:38:37Z</time></trkpt><trkpt lat="41.01265996825802" lon="14.736570087340711"><ele>405.0</ele><time>2026-04-04T13:38:38Z</time></trkpt><trkpt lat="41.01249770201825" lon="14.736528153562235"><ele>407.0</ele><time>2026-04-04T13:38:39Z</time></trkpt><trkpt lat="41.0122988158834" lon="14.736502297447977"><ele>407.0</ele><time>2026-04-04T13:38:40Z</time></trkpt><trkpt lat="41.012124275944856" lon="14.736467165432476"><ele>407.0</ele><time>2026-04-04T13:38:41Z</time></trkpt><trkpt lat="41.01199224070673" lon="14.736403425127834"><ele>407.0</ele><time>2026-04-04T13:38:42Z</time></trkpt><trkpt lat="41.011911356245605" lon="14.736364622549285"><ele>407.0</ele><time>2026-04-04T13:38:43Z</time></trkpt><trkpt lat="41.01184829170873" lon="14.736292473938617"><ele>407.0</ele><time>2026-04-04T13:38:44Z</time></trkpt><trkpt lat="41.01181886404068" lon="14.736179163567078"><ele>407.0</ele><time>2026-04-04T13:38:45Z</time></trkpt><trkpt lat="41.01185152159466" lon="14.736045934248528"><ele>407.0</ele><time>2026-04-04T13:38:46Z</time></trkpt><trkpt lat="41.011945405231465" lon="14.735964700739402"><ele>407.0</ele><time>2026-04-04T13:38:47Z</time></trkpt><trkpt lat="41.012071384333694" lon="14.735934477749357"><ele>407.0</ele><time>2026-04-04T13:38:48Z</time></trkpt><trkpt lat="41.01223264161775" lon="14.735938982496881"><ele>409.3333333333333</ele><time>2026-04-04T13:38:49Z</time></trkpt><trkpt lat="41.01238117411332" lon="14.735940488273464"><ele>411.66666666666663</ele><time>2026-04-04T13:38:50Z</time></trkpt><trkpt lat="41.01254164947687" lon="14.73599185495521"><ele>414.0</ele><time>2026-04-04T13:38:51Z</time></trkpt><trkpt lat="41.01272614798154" lon="14.736059500767887"><ele>414.0</ele><time>2026-04-04T13:38:52Z</time></trkpt><trkpt lat="41.012906270667365" lon="14.736138301823532"><ele>414.0</ele><time>2026-04-04T13:38:53Z</time></trkpt><trkpt lat="41.0130855391323" lon="14.73620902676008"><ele>414.0</ele><time>2026-04-04T13:38:54Z</time></trkpt><trkpt lat="41.01327171514368" lon="14.736282515074166"><ele>416.0</ele><time>2026-04-04T13:38:55Z</time></trkpt><trkpt lat="41.013436098465576" lon="14.73634460856999"><ele>418.0</ele><time>2026-04-04T13:38:56Z</time></trkpt><trkpt lat="41.01357676005575" lon="14.73639657684699"><ele>420.0</ele><time>2026-04-04T13:38:57Z</time></trkpt><trkpt lat="41.013692326311784" lon="14.736437947861614"><ele>422.0</ele><time>2026-04-04T13:38:58Z</time></trkpt><trkpt lat="41.01378154175635" lon="14.736434365540976"><ele>422.0</ele><time>2026-04-04T13:38:59Z</time></trkpt><trkpt lat="41.01383881513653" lon="14.736360180135048"><ele>422.0</ele><time>2026-04-04T13:39:00Z</time></trkpt><trkpt lat="41.01387077409059" lon="14.736242275362669"><ele>422.0</ele><time>2026-04-04T13:39:01Z</time></trkpt><trkpt lat="41.0138566990436" lon="14.736116572541471"><ele>422.0</ele><time>2026-04-04T13:39:02Z</time></trkpt><trkpt lat="41.01379563872211" lon="14.736011882722783"><ele>422.0</ele><time>2026-04-04T13:39:03Z</time></trkpt><trkpt lat="41.01369106910632" lon="14.735906553972145"><ele>424.0</ele><time>2026-04-04T13:39:04Z</time></trkpt><trkpt lat="41.01354658464578" lon="14.735772000375896"><ele>426.0</ele><time>2026-04-04T13:39:05Z</time></trkpt><trkpt lat="41.013401572637456" lon="14.735654513507823"><ele>428.0</ele><time>2026-04-04T13:39:06Z</time></trkpt><trkpt lat="41.01326788435755" lon="14.73555974268348"><ele>428.0</ele><time>2026-04-04T13:39:07Z</time></trkpt><trkpt lat="41.01312158000787" lon="14.735472109141403"><ele>428.0</ele><time>2026-04-04T13:39:07.999Z</time></trkpt><trkpt lat="41.01297833553952" lon="14.735393130589724"><ele>428.0</ele><time>2026-04-04T13:39:08.999Z</time></trkpt><trkpt lat="41.012839308178506" lon="14.73531565059035"><ele>428.0</ele><time>2026-04-04T13:39:09.999Z</time></trkpt><trkpt lat="41.01271862844727" lon="14.735233720494383"><ele>428.0</ele><time>2026-04-04T13:39:10.999Z</time></trkpt><trkpt lat="41.01261148070333" lon="14.73515684450252"><ele>428.0</ele><time>2026-04-04T13:39:11.999Z</time></trkpt><trkpt lat="41.01252743088607" lon="14.735070088472487"><ele>428.0</ele><time>2026-04-04T13:39:12.999Z</time></trkpt><trkpt lat="41.01244331934587" lon="14.734977935366954"><ele>429.75</ele><time>2026-04-04T13:39:13.999Z</time></trkpt><trkpt lat="41.01237266481901" lon="14.734857538722698"><ele>431.5</ele><time>2026-04-04T13:39:14.999Z</time></trkpt><trkpt lat="41.01230566616583" lon="14.734730206179245"><ele>433.25</ele><time>2026-04-04T13:39:15.999Z</time></trkpt><trkpt lat="41.01224711309164" lon="14.73459842671613"><ele>435.0</ele><time>2026-04-04T13:39:16.999Z</time></trkpt><trkpt lat="41.012197497516915" lon="14.73446662138718"><ele>438.0</ele><time>2026-04-04T13:39:17.999Z</time></trkpt><trkpt lat="41.01215127088838" lon="14.734329351920547"><ele>441.0</ele><time>2026-04-04T13:39:18.999Z</time></trkpt><trkpt lat="41.01211818408554" lon="14.734189177019182"><ele>444.0</ele><time>2026-04-04T13:39:19.999Z</time></trkpt><trkpt lat="41.012079826745705" lon="14.734012853986876"><ele>447.0</ele><time>2026-04-04T13:39:20.999Z</time></trkpt><trkpt lat="41.01203833602207" lon="14.733827790556708"><ele>447.0</ele><time>2026-04-04T13:39:21.999Z</time></trkpt><trkpt lat="41.01199857808004" lon="14.733622458980921"><ele>447.0</ele><time>2026-04-04T13:39:22.999Z</time></trkpt><trkpt lat="41.011957055217266" lon="14.733422413977417"><ele>447.0</ele><time>2026-04-04T13:39:23.999Z</time></trkpt><trkpt lat="41.01191474041621" lon="14.733187165686648"><ele>447.33333333333337</ele><time>2026-04-04T13:39:24.999Z</time></trkpt><trkpt lat="41.01185633825553" lon="14.732985439559691"><ele>447.6666666666667</ele><time>2026-04-04T13:39:25.999Z</time></trkpt><trkpt lat="41.01180326402722" lon="14.732759104111214"><ele>448.0</ele><time>2026-04-04T13:39:26.999Z</time></trkpt><trkpt lat="41.011764991120145" lon="14.732551518697282"><ele>448.0</ele><time>2026-04-04T13:39:27.999Z</time></trkpt><trkpt lat="41.01172610797511" lon="14.732357449018567"><ele>448.0</ele><time>2026-04-04T13:39:28.999Z</time></trkpt><trkpt lat="41.01169972779928" lon="14.732158445889599"><ele>448.0</ele><time>2026-04-04T13:39:29.999Z</time></trkpt><trkpt lat="41.01169029174986" lon="14.731947455261361"><ele>448.25</ele><time>2026-04-04T13:39:30.999Z</time></trkpt><trkpt lat="41.01171465370527" lon="14.731745230877706"><ele>448.5</ele><time>2026-04-04T13:39:31.999Z</time></trkpt><trkpt lat="41.01177139387196" lon="14.731575031979675"><ele>448.75</ele><time>2026-04-04T13:39:32.999Z</time></trkpt><trkpt lat="41.01184922268102" lon="14.731421458924183"><ele>449.0</ele><time>2026-04-04T13:39:33.999Z</time></trkpt><trkpt lat="41.01189824569342" lon="14.731269670237078"><ele>449.0</ele><time>2026-04-04T13:39:34.999Z</time></trkpt><trkpt lat="41.01209885564848" lon="14.731264561181474"><ele>449.0</ele><time>2026-04-04T13:39:35.999Z</time></trkpt><trkpt lat="41.012247837569035" lon="14.731259784701516"><ele>449.0</ele><time>2026-04-04T13:39:36.999Z</time></trkpt><trkpt lat="41.01240763889873" lon="14.731280969368505"><ele>445.3333333333333</ele><time>2026-04-04T13:39:37.999Z</time></trkpt><trkpt lat="41.012573874785815" lon="14.731318019798687"><ele>441.66666666666663</ele><time>2026-04-04T13:39:38.999Z</time></trkpt><trkpt lat="41.012728518241595" lon="14.731407307996696"><ele>438.0</ele><time>2026-04-04T13:39:39.999Z</time></trkpt><trkpt lat="41.012873031445615" lon="14.731498878413499"><ele>438.0</ele><time>2026-04-04T13:39:40.999Z</time></trkpt><trkpt lat="41.01300850455574" lon="14.73160938455878"><ele>438.0</ele><time>2026-04-04T13:39:41.999Z</time></trkpt><trkpt lat="41.01314959205133" lon="14.731722965947096"><ele>438.0</ele><time>2026-04-04T13:39:42.999Z</time></trkpt><trkpt lat="41.013290132061485" lon="14.731831705279735"><ele>436.5</ele><time>2026-04-04T13:39:43.999Z</time></trkpt><trkpt lat="41.01342234410664" lon="14.731910972013331"><ele>435.0</ele><time>2026-04-04T13:39:44.999Z</time></trkpt><trkpt lat="41.013549942005625" lon="14.731957861158127"><ele>433.5</ele><time>2026-04-04T13:39:45.999Z</time></trkpt><trkpt lat="41.013660435598005" lon="14.731964339069496"><ele>432.0</ele><time>2026-04-04T13:39:46.999Z</time></trkpt><trkpt lat="41.01376315024719" lon="14.731930846192306"><ele>432.0</ele><time>2026-04-04T13:39:47.999Z</time></trkpt><trkpt lat="41.01386401670389" lon="14.731841356380967"><ele>432.0</ele><time>2026-04-04T13:39:48.999Z</time></trkpt><trkpt lat="41.0139488339059" lon="14.731699666463758"><ele>432.0</ele><time>2026-04-04T13:39:49.999Z</time></trkpt><trkpt lat="41.01404498870948" lon="14.73151442829806"><ele>432.0</ele><time>2026-04-04T13:39:50.999Z</time></trkpt><trkpt lat="41.014181302935974" lon="14.731346582579903"><ele>432.0</ele><time>2026-04-04T13:39:51.999Z</time></trkpt><trkpt lat="41.01430165471045" lon="14.73116704845127"><ele>432.0</ele><time>2026-04-04T13:39:52.999Z</time></trkpt><trkpt lat="41.0144144807509" lon="14.730970098230324"><ele>432.0</ele><time>2026-04-04T13:39:53.999Z</time></trkpt><trkpt lat="41.014528324168836" lon="14.730799088653017"><ele>433.0</ele><time>2026-04-04T13:39:54.999Z</time></trkpt><trkpt lat="41.01463612875718" lon="14.73063975389506"><ele>434.0</ele><time>2026-04-04T13:39:55.999Z</time></trkpt><trkpt lat="41.01475814161085" lon="14.730494061604746"><ele>435.0</ele><time>2026-04-04T13:39:56.999Z</time></trkpt><trkpt lat="41.01486839432834" lon="14.730341874996526"><ele>435.75</ele><time>2026-04-04T13:39:57.999Z</time></trkpt><trkpt lat="41.01497380981903" lon="14.730199168529868"><ele>436.5</ele><time>2026-04-04T13:39:58.999Z</time></trkpt><trkpt lat="41.015085836234654" lon="14.730095211734389"><ele>437.25</ele><time>2026-04-04T13:39:59.999Z</time></trkpt><trkpt lat="41.01520699133481" lon="14.730044846876677"><ele>438.0</ele><time>2026-04-04T13:40:00.999Z</time></trkpt><trkpt lat="41.01536154584724" lon="14.730036187903856"><ele>434.33333333333337</ele><time>2026-04-04T13:40:01.999Z</time></trkpt><trkpt lat="41.01554227036564" lon="14.730078783394648"><ele>430.6666666666667</ele><time>2026-04-04T13:40:02.999Z</time></trkpt><trkpt lat="41.01574297187414" lon="14.730132949242037"><ele>427.0</ele><time>2026-04-04T13:40:03.999Z</time></trkpt><trkpt lat="41.01594011647125" lon="14.730175765780404"><ele>426.33333333333337</ele><time>2026-04-04T13:40:04.999Z</time></trkpt><trkpt lat="41.01610305281735" lon="14.73020091508055"><ele>425.66666666666663</ele><time>2026-04-04T13:40:05.999Z</time></trkpt><trkpt lat="41.01628249144099" lon="14.730219362960511"><ele>425.0</ele><time>2026-04-04T13:40:07Z</time></trkpt><trkpt lat="41.016465654366385" lon="14.730233646882196"><ele>422.66666666666663</ele><time>2026-04-04T13:40:08Z</time></trkpt><trkpt lat="41.0166418321631" lon="14.730240509637927"><ele>420.33333333333337</ele><time>2026-04-04T13:40:09Z</time></trkpt><trkpt lat="41.016805247991556" lon="14.730238180730169"><ele>418.0</ele><time>2026-04-04T13:40:10Z</time></trkpt><trkpt lat="41.016973200742896" lon="14.730235597760998"><ele>418.0</ele><time>2026-04-04T13:40:11Z</time></trkpt><trkpt lat="41.01714854264111" lon="14.730233583613705"><ele>418.0</ele><time>2026-04-04T13:40:12Z</time></trkpt><trkpt lat="41.01733079883778" lon="14.730218528163613"><ele>418.0</ele><time>2026-04-04T13:40:13Z</time></trkpt><trkpt lat="41.017508782438874" lon="14.730167577064531"><ele>417.33333333333337</ele><time>2026-04-04T13:40:14Z</time></trkpt><trkpt lat="41.01767370186067" lon="14.73009484989639"><ele>416.66666666666663</ele><time>2026-04-04T13:40:15Z</time></trkpt><trkpt lat="41.017823425957744" lon="14.730018049438591"><ele>416.0</ele><time>2026-04-04T13:40:16Z</time></trkpt><trkpt lat="41.01795826877837" lon="14.729929954563238"><ele>416.0</ele><time>2026-04-04T13:40:17Z</time></trkpt><trkpt lat="41.01808311730348" lon="14.729819033555119"><ele>416.0</ele><time>2026-04-04T13:40:18Z</time></trkpt><trkpt lat="41.01819683233974" lon="14.72970356463605"><ele>416.0</ele><time>2026-04-04T13:40:19Z</time></trkpt><trkpt lat="41.01829792047569" lon="14.729583942185066"><ele>416.0</ele><time>2026-04-04T13:40:20Z</time></trkpt><trkpt lat="41.018387557826" lon="14.729461620756627"><ele>414.25</ele><time>2026-04-04T13:40:21Z</time></trkpt><trkpt lat="41.01845372647295" lon="14.729319574868024"><ele>412.5</ele><time>2026-04-04T13:40:22Z</time></trkpt><trkpt lat="41.01850044957901" lon="14.729167479419633"><ele>410.75</ele><time>2026-04-04T13:40:23Z</time></trkpt><trkpt lat="41.018514673637306" lon="14.729018102221712"><ele>409.0</ele><time>2026-04-04T13:40:24Z</time></trkpt><trkpt lat="41.018508905108185" lon="14.728869965040472"><ele>409.0</ele><time>2026-04-04T13:40:25Z</time></trkpt><trkpt lat="41.018465589441284" lon="14.728731898885137"><ele>409.0</ele><time>2026-04-04T13:40:26Z</time></trkpt><trkpt lat="41.01838949864281" lon="14.728606159973122"><ele>409.0</ele><time>2026-04-04T13:40:27Z</time></trkpt><trkpt lat="41.01834108415199" lon="14.728450627176287"><ele>409.0</ele><time>2026-04-04T13:40:28Z</time></trkpt><trkpt lat="41.01831832138038" lon="14.728301730655934"><ele>408.25</ele><time>2026-04-04T13:40:29Z</time></trkpt><trkpt lat="41.01831511995942" lon="14.728133459926738"><ele>407.5</ele><time>2026-04-04T13:40:30Z</time></trkpt><trkpt lat="41.018356285102854" lon="14.727974697843743"><ele>406.75</ele><time>2026-04-04T13:40:31Z</time></trkpt><trkpt lat="41.0184106742568" lon="14.727798425761161"><ele>406.0</ele><time>2026-04-04T13:40:32Z</time></trkpt><trkpt lat="41.01847840051278" lon="14.727621674135289"><ele>406.0</ele><time>2026-04-04T13:40:33Z</time></trkpt><trkpt lat="41.01856513472703" lon="14.727444642353555"><ele>406.0</ele><time>2026-04-04T13:40:34Z</time></trkpt><trkpt lat="41.01865126747805" lon="14.727307185020853"><ele>406.0</ele><time>2026-04-04T13:40:35Z</time></trkpt><trkpt lat="41.01873163955053" lon="14.72715020286796"><ele>406.0</ele><time>2026-04-04T13:40:36Z</time></trkpt><trkpt lat="41.01884011673913" lon="14.726938326027248"><ele>409.0</ele><time>2026-04-04T13:40:37Z</time></trkpt><trkpt lat="41.018951492141895" lon="14.726729184218877"><ele>412.0</ele><time>2026-04-04T13:40:38Z</time></trkpt><trkpt lat="41.01905842644955" lon="14.726531799594612"><ele>415.0</ele><time>2026-04-04T13:40:39Z</time></trkpt><trkpt lat="41.01916606065166" lon="14.72633350330026"><ele>411.0</ele><time>2026-04-04T13:40:40Z</time></trkpt><trkpt lat="41.01926058126404" lon="14.726127557934706"><ele>407.0</ele><time>2026-04-04T13:40:41Z</time></trkpt><trkpt lat="41.01936638711533" lon="14.725973341110185"><ele>403.0</ele><time>2026-04-04T13:40:42Z</time></trkpt><trkpt lat="41.019452863489704" lon="14.725799170218647"><ele>403.0</ele><time>2026-04-04T13:40:43Z</time></trkpt><trkpt lat="41.01956181340204" lon="14.725644050584014"><ele>403.0</ele><time>2026-04-04T13:40:44Z</time></trkpt><trkpt lat="41.0196809742565" lon="14.725456959033004"><ele>403.0</ele><time>2026-04-04T13:40:45Z</time></trkpt><trkpt lat="41.019795644860054" lon="14.725290312907443"><ele>399.0</ele><time>2026-04-04T13:40:46Z</time></trkpt><trkpt lat="41.01989819402298" lon="14.725099919866778"><ele>395.0</ele><time>2026-04-04T13:40:47Z</time></trkpt><trkpt lat="41.02000144170179" lon="14.72492646726047"><ele>391.0</ele><time>2026-04-04T13:40:48Z</time></trkpt><trkpt lat="41.02010966008993" lon="14.724758481665354"><ele>391.0</ele><time>2026-04-04T13:40:49Z</time></trkpt><trkpt lat="41.020222565701" lon="14.724603202794839"><ele>391.0</ele><time>2026-04-04T13:40:50Z</time></trkpt><trkpt lat="41.02034252700559" lon="14.724452286216811"><ele>391.0</ele><time>2026-04-04T13:40:51Z</time></trkpt><trkpt lat="41.020472439971755" lon="14.724305814485813"><ele>394.33333333333337</ele><time>2026-04-04T13:40:52Z</time></trkpt><trkpt lat="41.02060877534889" lon="14.724168723396959"><ele>397.66666666666663</ele><time>2026-04-04T13:40:53Z</time></trkpt><trkpt lat="41.02075152278567" lon="14.724039089832644"><ele>401.0</ele><time>2026-04-04T13:40:54Z</time></trkpt><trkpt lat="41.020875901289756" lon="14.723904430913604"><ele>397.0</ele><time>2026-04-04T13:40:55Z</time></trkpt><trkpt lat="41.02099161494039" lon="14.723774635372134"><ele>393.0</ele><time>2026-04-04T13:40:56Z</time></trkpt><trkpt lat="41.02110732537955" lon="14.723636257315603"><ele>389.0</ele><time>2026-04-04T13:40:57Z</time></trkpt><trkpt lat="41.021221921110175" lon="14.72348133969155"><ele>389.0</ele><time>2026-04-04T13:40:58Z</time></trkpt><trkpt lat="41.02134397200748" lon="14.723327628471347"><ele>389.0</ele><time>2026-04-04T13:40:59Z</time></trkpt><trkpt lat="41.021448073245175" lon="14.723152187752246"><ele>389.0</ele><time>2026-04-04T13:41:00Z</time></trkpt><trkpt lat="41.02155108669717" lon="14.722968304140567"><ele>389.0</ele><time>2026-04-04T13:41:01Z</time></trkpt><trkpt lat="41.02163564472905" lon="14.722787468809734"><ele>389.0</ele><time>2026-04-04T13:41:02Z</time></trkpt><trkpt lat="41.021707393753275" lon="14.722600498398863"><ele>389.0</ele><time>2026-04-04T13:41:02.999Z</time></trkpt><trkpt lat="41.021764529647506" lon="14.722419720775136"><ele>385.3333333333333</ele><time>2026-04-04T13:41:03.999Z</time></trkpt><trkpt lat="41.0218005685514" lon="14.722221611702636"><ele>381.66666666666663</ele><time>2026-04-04T13:41:04.999Z</time></trkpt><trkpt lat="41.02180708699389" lon="14.722011669880088"><ele>378.0</ele><time>2026-04-04T13:41:05.999Z</time></trkpt><trkpt lat="41.02180486331066" lon="14.721794986559427"><ele>378.0</ele><time>2026-04-04T13:41:06.999Z</time></trkpt><trkpt lat="41.021787813283346" lon="14.721590026580147"><ele>378.0</ele><time>2026-04-04T13:41:07.999Z</time></trkpt><trkpt lat="41.02172948953023" lon="14.721406944059524"><ele>378.0</ele><time>2026-04-04T13:41:08.999Z</time></trkpt><trkpt lat="41.02170302338635" lon="14.72124239573988"><ele>378.0</ele><time>2026-04-04T13:41:09.999Z</time></trkpt><trkpt lat="41.02168744342057" lon="14.72111690136278"><ele>376.79999999999995</ele><time>2026-04-04T13:41:10.999Z</time></trkpt><trkpt lat="41.02167620099292" lon="14.721031558860984"><ele>375.6</ele><time>2026-04-04T13:41:11.999Z</time></trkpt><trkpt lat="41.02167148344661" lon="14.720884384699293"><ele>374.4</ele><time>2026-04-04T13:41:13.999Z</time></trkpt><trkpt lat="41.02166742201702" lon="14.720772467236953"><ele>373.20000000000005</ele><time>2026-04-04T13:41:14.999Z</time></trkpt><trkpt lat="41.02166188639703" lon="14.720624473993496"><ele>372.0</ele><time>2026-04-04T13:41:15.999Z</time></trkpt><trkpt lat="41.02164366165667" lon="14.72047046761135"><ele>376.25</ele><time>2026-04-04T13:41:16.999Z</time></trkpt><trkpt lat="41.021618207921925" lon="14.72030376085378"><ele>380.5</ele><time>2026-04-04T13:41:17.999Z</time></trkpt><trkpt lat="41.02157710451844" lon="14.720129269444016"><ele>384.75</ele><time>2026-04-04T13:41:18.999Z</time></trkpt><trkpt lat="41.021552577437774" lon="14.719932830513278"><ele>389.0</ele><time>2026-04-04T13:41:19.999Z</time></trkpt><trkpt lat="41.021526006043885" lon="14.71972812590091"><ele>389.0</ele><time>2026-04-04T13:41:20.999Z</time></trkpt><trkpt lat="41.02148371276292" lon="14.71950686157554"><ele>389.0</ele><time>2026-04-04T13:41:21.999Z</time></trkpt><trkpt lat="41.0214486803738" lon="14.71928915398849"><ele>389.0</ele><time>2026-04-04T13:41:22.999Z</time></trkpt><trkpt lat="41.02141023282819" lon="14.719090695648948"><ele>386.75</ele><time>2026-04-04T13:41:23.999Z</time></trkpt><trkpt lat="41.021368894134724" lon="14.718914773958222"><ele>384.5</ele><time>2026-04-04T13:41:24.999Z</time></trkpt><trkpt lat="41.02133022361381" lon="14.718753137477004"><ele>382.25</ele><time>2026-04-04T13:41:25.999Z</time></trkpt><trkpt lat="41.021301787677785" lon="14.718610096750025"><ele>380.0</ele><time>2026-04-04T13:41:26.999Z</time></trkpt><trkpt lat="41.021288945535076" lon="14.718469555190445"><ele>377.8</ele><time>2026-04-04T13:41:27.999Z</time></trkpt><trkpt lat="41.021295375580806" lon="14.718341982638583"><ele>375.6</ele><time>2026-04-04T13:41:28.999Z</time></trkpt><trkpt lat="41.02132794224054" lon="14.718227513121551"><ele>373.4</ele><time>2026-04-04T13:41:29.999Z</time></trkpt><trkpt lat="41.02135956134088" lon="14.718129354674508"><ele>371.2</ele><time>2026-04-04T13:41:30.999Z</time></trkpt><trkpt lat="41.02138533579851" lon="14.717995353579209"><ele>369.0</ele><time>2026-04-04T13:41:31.999Z</time></trkpt><trkpt lat="41.021394039424145" lon="14.717842313808886"><ele>368.0</ele><time>2026-04-04T13:41:32.999Z</time></trkpt><trkpt lat="41.021417992768626" lon="14.717658229188912"><ele>367.0</ele><time>2026-04-04T13:41:33.999Z</time></trkpt><trkpt lat="41.021481326175596" lon="14.717453917508834"><ele>366.0</ele><time>2026-04-04T13:41:34.999Z</time></trkpt><trkpt lat="41.02156937085082" lon="14.71724599447548"><ele>363.0</ele><time>2026-04-04T13:41:35.999Z</time></trkpt><trkpt lat="41.02165887936627" lon="14.717057034692441"><ele>360.0</ele><time>2026-04-04T13:41:36.999Z</time></trkpt><trkpt lat="41.021766413011065" lon="14.716861641480778"><ele>357.0</ele><time>2026-04-04T13:41:37.999Z</time></trkpt><trkpt lat="41.02186704285946" lon="14.716680112645816"><ele>357.0</ele><time>2026-04-04T13:41:38.999Z</time></trkpt><trkpt lat="41.02193680325487" lon="14.71651867676756"><ele>357.0</ele><time>2026-04-04T13:41:39.999Z</time></trkpt><trkpt lat="41.021986141223366" lon="14.716353317696948"><ele>357.0</ele><time>2026-04-04T13:41:40.999Z</time></trkpt><trkpt lat="41.02199501851579" lon="14.71618787956377"><ele>357.0</ele><time>2026-04-04T13:41:41.999Z</time></trkpt><trkpt lat="41.02195836356386" lon="14.716003432937047"><ele>356.6666666666667</ele><time>2026-04-04T13:41:42.999Z</time></trkpt><trkpt lat="41.02186957066881" lon="14.715826524528815"><ele>356.33333333333337</ele><time>2026-04-04T13:41:43.999Z</time></trkpt><trkpt lat="41.0217600922362" lon="14.715661138248713"><ele>356.0</ele><time>2026-04-04T13:41:44.999Z</time></trkpt><trkpt lat="41.02166043600607" lon="14.715498068483768"><ele>357.33333333333337</ele><time>2026-04-04T13:41:45.999Z</time></trkpt><trkpt lat="41.02156604530848" lon="14.715334565745295"><ele>358.6666666666667</ele><time>2026-04-04T13:41:46.999Z</time></trkpt><trkpt lat="41.02147476941676" lon="14.71516737525094"><ele>360.0</ele><time>2026-04-04T13:41:47.999Z</time></trkpt><trkpt lat="41.02138871352456" lon="14.714999184670011"><ele>360.0</ele><time>2026-04-04T13:41:48.999Z</time></trkpt><trkpt lat="41.021288963102634" lon="14.714832934529978"><ele>360.0</ele><time>2026-04-04T13:41:49.999Z</time></trkpt><trkpt lat="41.021188295777215" lon="14.714661708100682"><ele>360.0</ele><time>2026-04-04T13:41:50.999Z</time></trkpt><trkpt lat="41.02107953636956" lon="14.714491744452895"><ele>359.3333333333333</ele><time>2026-04-04T13:41:51.999Z</time></trkpt><trkpt lat="41.02096727808174" lon="14.71431432643797"><ele>358.66666666666663</ele><time>2026-04-04T13:41:52.999Z</time></trkpt><trkpt lat="41.0208499105571" lon="14.714124339166734"><ele>358.0</ele><time>2026-04-04T13:41:53.999Z</time></trkpt><trkpt lat="41.02073594983302" lon="14.71394674349352"><ele>358.0</ele><time>2026-04-04T13:41:54.999Z</time></trkpt><trkpt lat="41.02061233892861" lon="14.713766821445331"><ele>358.0</ele><time>2026-04-04T13:41:55.999Z</time></trkpt><trkpt lat="41.02049361977598" lon="14.713582927591908"><ele>358.0</ele><time>2026-04-04T13:41:56.999Z</time></trkpt><trkpt lat="41.02037304563915" lon="14.713411721153175"><ele>354.3333333333333</ele><time>2026-04-04T13:41:57.999Z</time></trkpt><trkpt lat="41.020250290139515" lon="14.713239337593889"><ele>350.6666666666667</ele><time>2026-04-04T13:41:58.999Z</time></trkpt><trkpt lat="41.0201328452484" lon="14.713066382788982"><ele>347.0</ele><time>2026-04-04T13:41:59.999Z</time></trkpt><trkpt lat="41.02001196660636" lon="14.712887501174206"><ele>346.33333333333337</ele><time>2026-04-04T13:42:00.999Z</time></trkpt><trkpt lat="41.01989057260036" lon="14.712708802267972"><ele>345.6666666666667</ele><time>2026-04-04T13:42:01.999Z</time></trkpt><trkpt lat="41.019762501636286" lon="14.71253632311249"><ele>345.0</ele><time>2026-04-04T13:42:02.999Z</time></trkpt><trkpt lat="41.01963963229018" lon="14.712366538298411"><ele>345.0</ele><time>2026-04-04T13:42:03.999Z</time></trkpt><trkpt lat="41.01952328302411" lon="14.712205751865362"><ele>345.0</ele><time>2026-04-04T13:42:04.999Z</time></trkpt><trkpt lat="41.01940548462875" lon="14.712045334055212"><ele>345.0</ele><time>2026-04-04T13:42:05.999Z</time></trkpt><trkpt lat="41.019301159548036" lon="14.71188444151431"><ele>345.3333333333333</ele><time>2026-04-04T13:42:06.999Z</time></trkpt><trkpt lat="41.01920567084375" lon="14.711704533623104"><ele>345.66666666666663</ele><time>2026-04-04T13:42:07.999Z</time></trkpt><trkpt lat="41.01915075203045" lon="14.711501044313007"><ele>346.0</ele><time>2026-04-04T13:42:08.999Z</time></trkpt><trkpt lat="41.019127241915186" lon="14.711280807623075"><ele>344.66666666666663</ele><time>2026-04-04T13:42:09.999Z</time></trkpt><trkpt lat="41.019138851966616" lon="14.711044527834414"><ele>343.3333333333333</ele><time>2026-04-04T13:42:10.999Z</time></trkpt><trkpt lat="41.019175677438064" lon="14.710822220664268"><ele>342.0</ele><time>2026-04-04T13:42:11.999Z</time></trkpt><trkpt lat="41.01922552027921" lon="14.710602214252956"><ele>338.6666666666667</ele><time>2026-04-04T13:42:13Z</time></trkpt><trkpt lat="41.019281521969056" lon="14.710377528645058"><ele>335.33333333333337</ele><time>2026-04-04T13:42:14Z</time></trkpt><trkpt lat="41.019329480991324" lon="14.710166246053014"><ele>332.0</ele><time>2026-04-04T13:42:15Z</time></trkpt><trkpt lat="41.019381839669656" lon="14.709951957258875"><ele>331.33333333333337</ele><time>2026-04-04T13:42:16Z</time></trkpt><trkpt lat="41.01942041453804" lon="14.709750836734527"><ele>330.6666666666667</ele><time>2026-04-04T13:42:17Z</time></trkpt><trkpt lat="41.01945647527515" lon="14.709541394770506"><ele>330.0</ele><time>2026-04-04T13:42:18Z</time></trkpt><trkpt lat="41.019461504876254" lon="14.709335843714292"><ele>328.3333333333333</ele><time>2026-04-04T13:42:19Z</time></trkpt><trkpt lat="41.019419796481806" lon="14.70912817276441"><ele>326.66666666666663</ele><time>2026-04-04T13:42:20Z</time></trkpt><trkpt lat="41.019353165618114" lon="14.708912283290491"><ele>325.0</ele><time>2026-04-04T13:42:21Z</time></trkpt><trkpt lat="41.019263459901346" lon="14.708705031205092"><ele>323.66666666666663</ele><time>2026-04-04T13:42:22Z</time></trkpt><trkpt lat="41.019161038692104" lon="14.708509479208216"><ele>322.3333333333333</ele><time>2026-04-04T13:42:23Z</time></trkpt><trkpt lat="41.0190614678951" lon="14.708336081507005"><ele>321.0</ele><time>2026-04-04T13:42:24Z</time></trkpt><trkpt lat="41.01896341118724" lon="14.708188370386953"><ele>323.5</ele><time>2026-04-04T13:42:25Z</time></trkpt><trkpt lat="41.018885536397505" lon="14.708033155435132"><ele>326.0</ele><time>2026-04-04T13:42:26Z</time></trkpt><trkpt lat="41.01878645811042" lon="14.707925426021088"><ele>328.5</ele><time>2026-04-04T13:42:27Z</time></trkpt><trkpt lat="41.01865063235219" lon="14.707837955867895"><ele>331.0</ele><time>2026-04-04T13:42:28Z</time></trkpt><trkpt lat="41.01846339223652" lon="14.707767430879304"><ele>327.66666666666663</ele><time>2026-04-04T13:42:29Z</time></trkpt><trkpt lat="41.01829524889105" lon="14.70769322558324"><ele>324.3333333333333</ele><time>2026-04-04T13:42:30Z</time></trkpt><trkpt lat="41.018102552842365" lon="14.707598226069416"><ele>321.0</ele><time>2026-04-04T13:42:31Z</time></trkpt><trkpt lat="41.01789009635483" lon="14.707518022540437"><ele>321.0</ele><time>2026-04-04T13:42:32Z</time></trkpt><trkpt lat="41.01770319354622" lon="14.707440092523846"><ele>321.0</ele><time>2026-04-04T13:42:33Z</time></trkpt><trkpt lat="41.01752826271692" lon="14.707379038327288"><ele>321.0</ele><time>2026-04-04T13:42:34Z</time></trkpt><trkpt lat="41.01735808572902" lon="14.707329208911219"><ele>321.0</ele><time>2026-04-04T13:42:35Z</time></trkpt><trkpt lat="41.0171957158241" lon="14.707295653299623"><ele>321.0</ele><time>2026-04-04T13:42:36Z</time></trkpt><trkpt lat="41.01705524691114" lon="14.707249421693971"><ele>321.0</ele><time>2026-04-04T13:42:37Z</time></trkpt><trkpt lat="41.01690386617565" lon="14.707228705027068"><ele>321.0</ele><time>2026-04-04T13:42:38Z</time></trkpt><trkpt lat="41.016766124123755" lon="14.707236749767315"><ele>321.0</ele><time>2026-04-04T13:42:39Z</time></trkpt><trkpt lat="41.016638485389684" lon="14.707260515605496"><ele>321.0</ele><time>2026-04-04T13:42:40Z</time></trkpt><trkpt lat="41.016506661841234" lon="14.707252873764295"><ele>321.0</ele><time>2026-04-04T13:42:41Z</time></trkpt><trkpt lat="41.01637345302536" lon="14.707258301605531"><ele>321.25</ele><time>2026-04-04T13:42:42Z</time></trkpt><trkpt lat="41.01624895331707" lon="14.707270013242526"><ele>321.5</ele><time>2026-04-04T13:42:43Z</time></trkpt><trkpt lat="41.01613601291933" lon="14.707234298413862"><ele>321.75</ele><time>2026-04-04T13:42:44Z</time></trkpt><trkpt lat="41.01603500579257" lon="14.707164013982881"><ele>322.0</ele><time>2026-04-04T13:42:45Z</time></trkpt><trkpt lat="41.015954130036526" lon="14.707038876626264"><ele>323.3333333333333</ele><time>2026-04-04T13:42:46Z</time></trkpt><trkpt lat="41.01587326012743" lon="14.706887141085849"><ele>324.6666666666667</ele><time>2026-04-04T13:42:47Z</time></trkpt><trkpt lat="41.015785222227244" lon="14.706713257286312"><ele>326.0</ele><time>2026-04-04T13:42:48Z</time></trkpt><trkpt lat="41.015713944313546" lon="14.706521760834054"><ele>326.0</ele><time>2026-04-04T13:42:49Z</time></trkpt><trkpt lat="41.01564038453689" lon="14.706348391281443"><ele>326.0</ele><time>2026-04-04T13:42:50Z</time></trkpt><trkpt lat="41.01557684057933" lon="14.706181286560424"><ele>326.0</ele><time>2026-04-04T13:42:51Z</time></trkpt><trkpt lat="41.01550829803596" lon="14.706011962286311"><ele>326.0</ele><time>2026-04-04T13:42:52Z</time></trkpt><trkpt lat="41.01542375343336" lon="14.705843905310589"><ele>323.25</ele><time>2026-04-04T13:42:53Z</time></trkpt><trkpt lat="41.01532240494138" lon="14.705686640470354"><ele>320.5</ele><time>2026-04-04T13:42:54Z</time></trkpt><trkpt lat="41.01523857272719" lon="14.705549952847836"><ele>317.75</ele><time>2026-04-04T13:42:55Z</time></trkpt><trkpt lat="41.01514965830864" lon="14.705410629244858"><ele>315.0</ele><time>2026-04-04T13:42:56Z</time></trkpt><trkpt lat="41.015085230786944" lon="14.705271853018122"><ele>313.0</ele><time>2026-04-04T13:42:57Z</time></trkpt><trkpt lat="41.01505298123945" lon="14.705100370486837"><ele>311.0</ele><time>2026-04-04T13:42:58Z</time></trkpt><trkpt lat="41.015030912368914" lon="14.70492584195608"><ele>309.0</ele><time>2026-04-04T13:42:59Z</time></trkpt><trkpt lat="41.015018264628196" lon="14.70475904471187"><ele>307.0</ele><time>2026-04-04T13:43:00Z</time></trkpt><trkpt lat="41.015024456578075" lon="14.704609026605134"><ele>307.0</ele><time>2026-04-04T13:43:01Z</time></trkpt><trkpt lat="41.01506365447697" lon="14.704468180888522"><ele>307.0</ele><time>2026-04-04T13:43:02Z</time></trkpt><trkpt lat="41.01512714269303" lon="14.704347921298933"><ele>307.0</ele><time>2026-04-04T13:43:03Z</time></trkpt><trkpt lat="41.01521878079665" lon="14.704250202018347"><ele>307.0</ele><time>2026-04-04T13:43:04Z</time></trkpt><trkpt lat="41.015333876244625" lon="14.704175869715078"><ele>307.75</ele><time>2026-04-04T13:43:05Z</time></trkpt><trkpt lat="41.01546299683601" lon="14.7041329656386"><ele>308.5</ele><time>2026-04-04T13:43:06Z</time></trkpt><trkpt lat="41.01559997593297" lon="14.704095304440456"><ele>309.25</ele><time>2026-04-04T13:43:07Z</time></trkpt><trkpt lat="41.0157461715447" lon="14.704067318381798"><ele>310.0</ele><time>2026-04-04T13:43:07.999Z</time></trkpt><trkpt lat="41.01589749118068" lon="14.704056038625124"><ele>310.0</ele><time>2026-04-04T13:43:08.999Z</time></trkpt><trkpt lat="41.0160322776342" lon="14.704068880700351"><ele>310.0</ele><time>2026-04-04T13:43:09.999Z</time></trkpt><trkpt lat="41.01617240703308" lon="14.704073720861624"><ele>310.0</ele><time>2026-04-04T13:43:10.999Z</time></trkpt><trkpt lat="41.0163142284465" lon="14.70409486238809"><ele>310.0</ele><time>2026-04-04T13:43:11.999Z</time></trkpt><trkpt lat="41.01644462406686" lon="14.704089297006572"><ele>310.0</ele><time>2026-04-04T13:43:12.999Z</time></trkpt><trkpt lat="41.016587117424905" lon="14.704066066489357"><ele>310.0</ele><time>2026-04-04T13:43:13.999Z</time></trkpt><trkpt lat="41.016735075936836" lon="14.704031213166244"><ele>310.0</ele><time>2026-04-04T13:43:14.999Z</time></trkpt><trkpt lat="41.01689490297664" lon="14.703990774839136"><ele>308.66666666666663</ele><time>2026-04-04T13:43:15.999Z</time></trkpt><trkpt lat="41.01706935838964" lon="14.70398979047735"><ele>307.3333333333333</ele><time>2026-04-04T13:43:16.999Z</time></trkpt><trkpt lat="41.0172797614845" lon="14.703986280306028"><ele>306.0</ele><time>2026-04-04T13:43:17.999Z</time></trkpt><trkpt lat="41.0175142754581" lon="14.703998242459328"><ele>301.0</ele><time>2026-04-04T13:43:18.999Z</time></trkpt><trkpt lat="41.01774201606478" lon="14.70403400829579"><ele>296.0</ele><time>2026-04-04T13:43:19.999Z</time></trkpt><trkpt lat="41.01797062596315" lon="14.704068046757088"><ele>296.0</ele><time>2026-04-04T13:43:20.999Z</time></trkpt><trkpt lat="41.01817978312192" lon="14.704105148874772"><ele>296.0</ele><time>2026-04-04T13:43:21.999Z</time></trkpt><trkpt lat="41.01837604747417" lon="14.704142991215381"><ele>296.0</ele><time>2026-04-04T13:43:22.999Z</time></trkpt><trkpt lat="41.01856803093341" lon="14.704204558873391"><ele>295.0</ele><time>2026-04-04T13:43:23.999Z</time></trkpt><trkpt lat="41.01875945407825" lon="14.70429590647074"><ele>294.0</ele><time>2026-04-04T13:43:24.999Z</time></trkpt><trkpt lat="41.01894486332352" lon="14.704389597288701"><ele>293.0</ele><time>2026-04-04T13:43:25.999Z</time></trkpt><trkpt lat="41.01912025879558" lon="14.704472850331959"><ele>289.0</ele><time>2026-04-04T13:43:26.999Z</time></trkpt><trkpt lat="41.019289592511534" lon="14.704517453316365"><ele>285.0</ele><time>2026-04-04T13:43:27.999Z</time></trkpt><trkpt lat="41.01946883958195" lon="14.70455778293732"><ele>281.0</ele><time>2026-04-04T13:43:28.999Z</time></trkpt><trkpt lat="41.019656898751585" lon="14.704553612753426"><ele>281.0</ele><time>2026-04-04T13:43:29.999Z</time></trkpt><trkpt lat="41.019835741039905" lon="14.704543560417218"><ele>281.0</ele><time>2026-04-04T13:43:30.999Z</time></trkpt><trkpt lat="41.02001466386822" lon="14.704539535354789"><ele>281.0</ele><time>2026-04-04T13:43:31.999Z</time></trkpt><trkpt lat="41.02018194965269" lon="14.704535374467012"><ele>280.33333333333337</ele><time>2026-04-04T13:43:32.999Z</time></trkpt><trkpt lat="41.02034414731714" lon="14.70449202853231"><ele>279.6666666666667</ele><time>2026-04-04T13:43:33.999Z</time></trkpt><trkpt lat="41.02051198611011" lon="14.704381601046583"><ele>279.0</ele><time>2026-04-04T13:43:34.999Z</time></trkpt><trkpt lat="41.02069363624605" lon="14.704246545260888"><ele>279.6666666666667</ele><time>2026-04-04T13:43:35.999Z</time></trkpt><trkpt lat="41.02088791908559" lon="14.704125356921601"><ele>280.33333333333337</ele><time>2026-04-04T13:43:36.999Z</time></trkpt><trkpt lat="41.02108756887447" lon="14.703996783440493"><ele>281.0</ele><time>2026-04-04T13:43:37.999Z</time></trkpt><trkpt lat="41.021294795541614" lon="14.703902651274747"><ele>281.0</ele><time>2026-04-04T13:43:38.999Z</time></trkpt><trkpt lat="41.02149250287382" lon="14.703818357380593"><ele>281.0</ele><time>2026-04-04T13:43:39.999Z</time></trkpt><trkpt lat="41.021704236795" lon="14.703744160623161"><ele>281.0</ele><time>2026-04-04T13:43:40.999Z</time></trkpt><trkpt lat="41.02192012880804" lon="14.70368184581771"><ele>280.0</ele><time>2026-04-04T13:43:41.999Z</time></trkpt><trkpt lat="41.022133380224474" lon="14.70360447003085"><ele>279.0</ele><time>2026-04-04T13:43:42.999Z</time></trkpt><trkpt lat="41.022353028699584" lon="14.70354324287185"><ele>278.0</ele><time>2026-04-04T13:43:43.999Z</time></trkpt><trkpt lat="41.02257150716585" lon="14.703478976613592"><ele>278.0</ele><time>2026-04-04T13:43:44.999Z</time></trkpt><trkpt lat="41.02280687778677" lon="14.7034385330887"><ele>278.0</ele><time>2026-04-04T13:43:45.999Z</time></trkpt><trkpt lat="41.02302311071192" lon="14.703374730523533"><ele>278.0</ele><time>2026-04-04T13:43:46.999Z</time></trkpt><trkpt lat="41.023245597515434" lon="14.703334846400244"><ele>278.0</ele><time>2026-04-04T13:43:47.999Z</time></trkpt><trkpt lat="41.02346433337638" lon="14.703314465334447"><ele>278.0</ele><time>2026-04-04T13:43:48.999Z</time></trkpt><trkpt lat="41.02367381774591" lon="14.703297024374146"><ele>277.6666666666667</ele><time>2026-04-04T13:43:49.999Z</time></trkpt><trkpt lat="41.023865335439616" lon="14.703286722207233"><ele>277.3333333333333</ele><time>2026-04-04T13:43:50.999Z</time></trkpt><trkpt lat="41.0240418609496" lon="14.703268544627926"><ele>277.0</ele><time>2026-04-04T13:43:51.999Z</time></trkpt><trkpt lat="41.02422633597449" lon="14.703253566369698"><ele>274.66666666666663</ele><time>2026-04-04T13:43:52.999Z</time></trkpt><trkpt lat="41.02439666671397" lon="14.703215984562496"><ele>272.3333333333333</ele><time>2026-04-04T13:43:53.999Z</time></trkpt><trkpt lat="41.02455619506827" lon="14.703142717139785"><ele>270.0</ele><time>2026-04-04T13:43:54.999Z</time></trkpt><trkpt lat="41.0246907422298" lon="14.703027259328856"><ele>270.0</ele><time>2026-04-04T13:43:55.999Z</time></trkpt><trkpt lat="41.02481509158108" lon="14.702863176142898"><ele>270.0</ele><time>2026-04-04T13:43:56.999Z</time></trkpt><trkpt lat="41.02493710713228" lon="14.702670455282957"><ele>270.0</ele><time>2026-04-04T13:43:57.999Z</time></trkpt><trkpt lat="41.02507367527182" lon="14.702463652915828"><ele>268.0</ele><time>2026-04-04T13:43:58.999Z</time></trkpt><trkpt lat="41.02522293752695" lon="14.702234267461726"><ele>266.0</ele><time>2026-04-04T13:43:59.999Z</time></trkpt><trkpt lat="41.02536371664214" lon="14.701981817044459"><ele>270.6666666666667</ele><time>2026-04-04T13:44:00.999Z</time></trkpt><trkpt lat="41.02547962977045" lon="14.701745220799836"><ele>275.3333333333333</ele><time>2026-04-04T13:44:01.999Z</time></trkpt><trkpt lat="41.02557000560848" lon="14.701513378761298"><ele>280.0</ele><time>2026-04-04T13:44:02.999Z</time></trkpt><trkpt lat="41.02566546018394" lon="14.701273880006267"><ele>281.3333333333333</ele><time>2026-04-04T13:44:03.999Z</time></trkpt><trkpt lat="41.02580319051547" lon="14.701060177218844"><ele>282.6666666666667</ele><time>2026-04-04T13:44:04.999Z</time></trkpt><trkpt lat="41.02595422538525" lon="14.70082967600503"><ele>284.0</ele><time>2026-04-04T13:44:05.999Z</time></trkpt><trkpt lat="41.02610973449318" lon="14.70059834339029"><ele>281.33333333333337</ele><time>2026-04-04T13:44:06.999Z</time></trkpt><trkpt lat="41.02623006775541" lon="14.700354214071048"><ele>278.6666666666667</ele><time>2026-04-04T13:44:07.999Z</time></trkpt><trkpt lat="41.0263461269457" lon="14.700141648486442"><ele>276.0</ele><time>2026-04-04T13:44:08.999Z</time></trkpt><trkpt lat="41.02647102655059" lon="14.69997366270475"><ele>276.0</ele><time>2026-04-04T13:44:09.999Z</time></trkpt><trkpt lat="41.02658892174178" lon="14.699800502273117"><ele>276.0</ele><time>2026-04-04T13:44:10.999Z</time></trkpt><trkpt lat="41.02670278923927" lon="14.699630405936523"><ele>276.0</ele><time>2026-04-04T13:44:11.999Z</time></trkpt><trkpt lat="41.02680703758671" lon="14.699475472522257"><ele>275.25</ele><time>2026-04-04T13:44:12.999Z</time></trkpt><trkpt lat="41.02689628656853" lon="14.699346112222567"><ele>274.5</ele><time>2026-04-04T13:44:13.999Z</time></trkpt><trkpt lat="41.02699574030558" lon="14.699199836122673"><ele>273.75</ele><time>2026-04-04T13:44:14.999Z</time></trkpt><trkpt lat="41.02712963635836" lon="14.699083343075811"><ele>273.0</ele><time>2026-04-04T13:44:15.999Z</time></trkpt><trkpt lat="41.027270521891325" lon="14.69898631986354"><ele>273.0</ele><time>2026-04-04T13:44:16.999Z</time></trkpt><trkpt lat="41.02743242092467" lon="14.698904540986264"><ele>273.0</ele><time>2026-04-04T13:44:17.999Z</time></trkpt><trkpt lat="41.02761357210282" lon="14.698851356774831"><ele>273.0</ele><time>2026-04-04T13:44:19Z</time></trkpt><trkpt lat="41.02777796463002" lon="14.698826369070792"><ele>268.0</ele><time>2026-04-04T13:44:20Z</time></trkpt><trkpt lat="41.027928271050854" lon="14.699115033438593"><ele>263.0</ele><time>2026-04-04T13:44:21Z</time></trkpt><trkpt lat="41.02810263283654" lon="14.699141465656043"><ele>258.0</ele><time>2026-04-04T13:44:22Z</time></trkpt><trkpt lat="41.02825258218115" lon="14.69916423714964"><ele>257.0</ele><time>2026-04-04T13:44:23Z</time></trkpt><trkpt lat="41.02839508694882" lon="14.699186053838392"><ele>256.0</ele><time>2026-04-04T13:44:24Z</time></trkpt><trkpt lat="41.02853605748278" lon="14.699211620931635"><ele>255.0</ele><time>2026-04-04T13:44:25Z</time></trkpt><trkpt lat="41.02868736579966" lon="14.699240925107935"><ele>254.0</ele><time>2026-04-04T13:44:26Z</time></trkpt><trkpt lat="41.028828097419165" lon="14.69926818069016"><ele>254.0</ele><time>2026-04-04T13:44:27Z</time></trkpt><trkpt lat="41.02896037183822" lon="14.699278523667996"><ele>254.0</ele><time>2026-04-04T13:44:28Z</time></trkpt><trkpt lat="41.029164913375304" lon="14.698566410840513"><ele>256.6666666666667</ele><time>2026-04-04T13:44:29Z</time></trkpt><trkpt lat="41.02931122017078" lon="14.698423562375291"><ele>259.3333333333333</ele><time>2026-04-04T13:44:30Z</time></trkpt><trkpt lat="41.02944104703787" lon="14.698290042669102"><ele>262.0</ele><time>2026-04-04T13:44:31Z</time></trkpt><trkpt lat="41.029564029413464" lon="14.698164374603959"><ele>262.0</ele><time>2026-04-04T13:44:32Z</time></trkpt><trkpt lat="41.029684543881196" lon="14.698029554726105"><ele>262.0</ele><time>2026-04-04T13:44:33Z</time></trkpt><trkpt lat="41.02980572959737" lon="14.697909770636977"><ele>262.0</ele><time>2026-04-04T13:44:34Z</time></trkpt><trkpt lat="41.029921067352426" lon="14.697784594260904"><ele>261.25</ele><time>2026-04-04T13:44:35Z</time></trkpt><trkpt lat="41.03003126421105" lon="14.697656883099953"><ele>260.5</ele><time>2026-04-04T13:44:36Z</time></trkpt><trkpt lat="41.03012982486097" lon="14.69753424968784"><ele>259.75</ele><time>2026-04-04T13:44:37Z</time></trkpt><trkpt lat="41.03022370475416" lon="14.697408102872968"><ele>259.0</ele><time>2026-04-04T13:44:38Z</time></trkpt><trkpt lat="41.03031599015082" lon="14.697277157184216"><ele>259.0</ele><time>2026-04-04T13:44:39Z</time></trkpt><trkpt lat="41.03039644797345" lon="14.697134606587014"><ele>259.0</ele><time>2026-04-04T13:44:40Z</time></trkpt><trkpt lat="41.030465601424034" lon="14.697001286470522"><ele>259.0</ele><time>2026-04-04T13:44:41Z</time></trkpt><trkpt lat="41.030525084929245" lon="14.696858377045439"><ele>259.0</ele><time>2026-04-04T13:44:42Z</time></trkpt><trkpt lat="41.03058923960521" lon="14.696699658036595"><ele>259.5</ele><time>2026-04-04T13:44:43Z</time></trkpt><trkpt lat="41.0306318888729" lon="14.696548786364577"><ele>260.0</ele><time>2026-04-04T13:44:44Z</time></trkpt><trkpt lat="41.030637293961725" lon="14.696368611033584"><ele>260.5</ele><time>2026-04-04T13:44:45Z</time></trkpt><trkpt lat="41.03061237083657" lon="14.696192843577178"><ele>261.0</ele><time>2026-04-04T13:44:46Z</time></trkpt><trkpt lat="41.03055242103704" lon="14.696036425537052"><ele>258.0</ele><time>2026-04-04T13:44:47Z</time></trkpt><trkpt lat="41.0304852878646" lon="14.695884961892359"><ele>255.0</ele><time>2026-04-04T13:44:48Z</time></trkpt><trkpt lat="41.03042114590843" lon="14.695753468503016"><ele>252.0</ele><time>2026-04-04T13:44:49Z</time></trkpt><trkpt lat="41.03032805560013" lon="14.695679579153603"><ele>249.0</ele><time>2026-04-04T13:44:50Z</time></trkpt><trkpt lat="41.0302019770627" lon="14.69561360290352"><ele>249.0</ele><time>2026-04-04T13:44:51Z</time></trkpt><trkpt lat="41.03005776205415" lon="14.695609164300473"><ele>249.0</ele><time>2026-04-04T13:44:52Z</time></trkpt><trkpt lat="41.02994182077759" lon="14.695587538992951"><ele>249.0</ele><time>2026-04-04T13:44:53Z</time></trkpt><trkpt lat="41.029831596678434" lon="14.695554108564396"><ele>249.0</ele><time>2026-04-04T13:44:54Z</time></trkpt><trkpt lat="41.02970159248261" lon="14.695497549434236"><ele>249.0</ele><time>2026-04-04T13:44:55Z</time></trkpt><trkpt lat="41.02957868188947" lon="14.695407811202653"><ele>249.0</ele><time>2026-04-04T13:44:56Z</time></trkpt><trkpt lat="41.02947417608666" lon="14.695292435701838"><ele>249.0</ele><time>2026-04-04T13:44:57Z</time></trkpt><trkpt lat="41.02940239225466" lon="14.695154854270307"><ele>249.0</ele><time>2026-04-04T13:44:58Z</time></trkpt><trkpt lat="41.02935663927856" lon="14.694997529556222"><ele>249.0</ele><time>2026-04-04T13:44:59Z</time></trkpt><trkpt lat="41.029335872968474" lon="14.694824500666506"><ele>249.0</ele><time>2026-04-04T13:45:00Z</time></trkpt><trkpt lat="41.029355480996415" lon="14.694644364477963"><ele>249.0</ele><time>2026-04-04T13:45:01Z</time></trkpt><trkpt lat="41.02934801386182" lon="14.694475582812718"><ele>249.0</ele><time>2026-04-04T13:45:02Z</time></trkpt><trkpt lat="41.02930576591687" lon="14.694326376383252"><ele>247.5</ele><time>2026-04-04T13:45:03Z</time></trkpt><trkpt lat="41.02922365564891" lon="14.694200501585728"><ele>246.0</ele><time>2026-04-04T13:45:04Z</time></trkpt><trkpt lat="41.029135045765535" lon="14.694078282336628"><ele>244.5</ele><time>2026-04-04T13:45:05Z</time></trkpt><trkpt lat="41.029052319351806" lon="14.693939027489822"><ele>243.0</ele><time>2026-04-04T13:45:06Z</time></trkpt><trkpt lat="41.02900120337009" lon="14.693762781523462"><ele>241.5</ele><time>2026-04-04T13:45:07Z</time></trkpt><trkpt lat="41.028983138281134" lon="14.693587283783128"><ele>240.0</ele><time>2026-04-04T13:45:08Z</time></trkpt><trkpt lat="41.028982637211925" lon="14.693408264519263"><ele>238.5</ele><time>2026-04-04T13:45:09Z</time></trkpt><trkpt lat="41.02900282603185" lon="14.693225897834996"><ele>237.0</ele><time>2026-04-04T13:45:10Z</time></trkpt><trkpt lat="41.02905381723505" lon="14.69304540539745"><ele>237.0</ele><time>2026-04-04T13:45:11Z</time></trkpt><trkpt lat="41.02914069250507" lon="14.692885946665458"><ele>237.0</ele><time>2026-04-04T13:45:12Z</time></trkpt><trkpt lat="41.029240933957844" lon="14.692723029155534"><ele>237.0</ele><time>2026-04-04T13:45:13Z</time></trkpt><trkpt lat="41.029349145543954" lon="14.69260821185918"><ele>237.0</ele><time>2026-04-04T13:45:14Z</time></trkpt><trkpt lat="41.02942906492327" lon="14.692469204209434"><ele>237.75</ele><time>2026-04-04T13:45:15Z</time></trkpt><trkpt lat="41.029512925085925" lon="14.692333294008348"><ele>238.5</ele><time>2026-04-04T13:45:15.999Z</time></trkpt><trkpt lat="41.029578364529435" lon="14.692203500453706"><ele>239.25</ele><time>2026-04-04T13:45:16.999Z</time></trkpt><trkpt lat="41.02964143250937" lon="14.692043616416232"><ele>240.0</ele><time>2026-04-04T13:45:17.999Z</time></trkpt><trkpt lat="41.02972185223605" lon="14.691832826620326"><ele>242.5</ele><time>2026-04-04T13:45:18.999Z</time></trkpt><trkpt lat="41.02979648231033" lon="14.691558279194991"><ele>245.0</ele><time>2026-04-04T13:45:19.999Z</time></trkpt><trkpt lat="41.0298418988099" lon="14.691252541180129"><ele>247.5</ele><time>2026-04-04T13:45:20.999Z</time></trkpt><trkpt lat="41.029867515646316" lon="14.690918356782204"><ele>250.0</ele><time>2026-04-04T13:45:21.999Z</time></trkpt><trkpt lat="41.02989433322963" lon="14.690596712321517"><ele>250.0</ele><time>2026-04-04T13:45:22.999Z</time></trkpt><trkpt lat="41.02991568796718" lon="14.69029576626776"><ele>250.0</ele><time>2026-04-04T13:45:23.999Z</time></trkpt><trkpt lat="41.02993780493337" lon="14.690023730841062"><ele>250.0</ele><time>2026-04-04T13:45:24.999Z</time></trkpt><trkpt lat="41.029935684698074" lon="14.68969416933418"><ele>255.0</ele><time>2026-04-04T13:45:25.999Z</time></trkpt><trkpt lat="41.02991232147369" lon="14.689321383720822"><ele>260.0</ele><time>2026-04-04T13:45:26.999Z</time></trkpt><trkpt lat="41.029883599824885" lon="14.688936135221516"><ele>259.5</ele><time>2026-04-04T13:45:27.999Z</time></trkpt><trkpt lat="41.02985668623996" lon="14.688562000566357"><ele>259.0</ele><time>2026-04-04T13:45:28.999Z</time></trkpt><trkpt lat="41.029822746908955" lon="14.688163569424303"><ele>256.5</ele><time>2026-04-04T13:45:29.999Z</time></trkpt><trkpt lat="41.02978183333563" lon="14.687747273645812"><ele>254.0</ele><time>2026-04-04T13:45:30.999Z</time></trkpt><trkpt lat="41.029732840822916" lon="14.687350914522025"><ele>254.0</ele><time>2026-04-04T13:45:31.999Z</time></trkpt><trkpt lat="41.029699964287126" lon="14.686954385445922"><ele>254.0</ele><time>2026-04-04T13:45:32.999Z</time></trkpt><trkpt lat="41.02964378152602" lon="14.68655082180251"><ele>253.5</ele><time>2026-04-04T13:45:33.999Z</time></trkpt><trkpt lat="41.02961031384848" lon="14.68613438087255"><ele>253.0</ele><time>2026-04-04T13:45:34.999Z</time></trkpt><trkpt lat="41.02955454694669" lon="14.68576693203776"><ele>254.5</ele><time>2026-04-04T13:45:35.999Z</time></trkpt><trkpt lat="41.029497040982925" lon="14.685418040310765"><ele>256.0</ele><time>2026-04-04T13:45:36.999Z</time></trkpt><trkpt lat="41.02943566347172" lon="14.685072190830745"><ele>256.0</ele><time>2026-04-04T13:45:37.999Z</time></trkpt><trkpt lat="41.02936359153096" lon="14.684723314955603"><ele>256.0</ele><time>2026-04-04T13:45:38.999Z</time></trkpt><trkpt lat="41.02927446198003" lon="14.68437802441297"><ele>257.5</ele><time>2026-04-04T13:45:39.999Z</time></trkpt><trkpt lat="41.02918308531824" lon="14.684054505377622"><ele>259.0</ele><time>2026-04-04T13:45:40.999Z</time></trkpt><trkpt lat="41.0290954955258" lon="14.683781301448757"><ele>261.0</ele><time>2026-04-04T13:45:41.999Z</time></trkpt><trkpt lat="41.02901147190577" lon="14.683516852153147"><ele>263.0</ele><time>2026-04-04T13:45:42.999Z</time></trkpt><trkpt lat="41.0289333749185" lon="14.683271054628714"><ele>265.0</ele><time>2026-04-04T13:45:43.999Z</time></trkpt><trkpt lat="41.02885841778852" lon="14.683025683705603"><ele>265.0</ele><time>2026-04-04T13:45:44.999Z</time></trkpt><trkpt lat="41.028791657208615" lon="14.682789111409663"><ele>265.0</ele><time>2026-04-04T13:45:45.999Z</time></trkpt><trkpt lat="41.02873518876176" lon="14.682545179759256"><ele>265.0</ele><time>2026-04-04T13:45:46.999Z</time></trkpt><trkpt lat="41.02868513149921" lon="14.682293982272483"><ele>263.75</ele><time>2026-04-04T13:45:47.999Z</time></trkpt><trkpt lat="41.02866149853415" lon="14.682214014936449"><ele>262.5</ele><time>2026-04-04T13:45:48.999Z</time></trkpt><trkpt lat="41.02863744844385" lon="14.681976604650364"><ele>261.25</ele><time>2026-04-04T13:45:49.999Z</time></trkpt><trkpt lat="41.028609777140844" lon="14.681727736656898"><ele>260.0</ele><time>2026-04-04T13:45:50.999Z</time></trkpt><trkpt lat="41.02860898724298" lon="14.68148840417118"><ele>259.6666666666667</ele><time>2026-04-04T13:45:51.999Z</time></trkpt><trkpt lat="41.02864134327011" lon="14.6812942458879"><ele>259.3333333333333</ele><time>2026-04-04T13:45:52.999Z</time></trkpt><trkpt lat="41.028704541496495" lon="14.681092044415612"><ele>259.0</ele><time>2026-04-04T13:45:53.999Z</time></trkpt><trkpt lat="41.028813018225485" lon="14.680882221158296"><ele>259.66666666666663</ele><time>2026-04-04T13:45:54.999Z</time></trkpt><trkpt lat="41.02895383775879" lon="14.680636147396578"><ele>260.3333333333333</ele><time>2026-04-04T13:45:55.999Z</time></trkpt><trkpt lat="41.02907276239693" lon="14.68039771265596"><ele>261.0</ele><time>2026-04-04T13:45:56.999Z</time></trkpt><trkpt lat="41.0291516928467" lon="14.68016434631773"><ele>261.0</ele><time>2026-04-04T13:45:57.999Z</time></trkpt><trkpt lat="41.02922279599721" lon="14.679907357874344"><ele>261.0</ele><time>2026-04-04T13:45:58.999Z</time></trkpt><trkpt lat="41.029269609644025" lon="14.679638591069034"><ele>261.0</ele><time>2026-04-04T13:45:59.999Z</time></trkpt><trkpt lat="41.02930594038189" lon="14.67935340200685"><ele>261.6666666666667</ele><time>2026-04-04T13:46:00.999Z</time></trkpt><trkpt lat="41.029339851599886" lon="14.679080253092547"><ele>262.33333333333337</ele><time>2026-04-04T13:46:01.999Z</time></trkpt><trkpt lat="41.02935191290317" lon="14.678777070016773"><ele>263.0</ele><time>2026-04-04T13:46:02.999Z</time></trkpt><trkpt lat="41.02939501643928" lon="14.678518285965495"><ele>264.0</ele><time>2026-04-04T13:46:03.999Z</time></trkpt><trkpt lat="41.02940922722438" lon="14.678204365776553"><ele>265.0</ele><time>2026-04-04T13:46:04.999Z</time></trkpt><trkpt lat="41.02942847186515" lon="14.677899671026251"><ele>265.5</ele><time>2026-04-04T13:46:05.999Z</time></trkpt><trkpt lat="41.02944090243558" lon="14.677582695109894"><ele>266.0</ele><time>2026-04-04T13:46:06.999Z</time></trkpt><trkpt lat="41.02944868922488" lon="14.677247990337086"><ele>267.0</ele><time>2026-04-04T13:46:07.999Z</time></trkpt><trkpt lat="41.02944109266549" lon="14.67690987517908"><ele>268.0</ele><time>2026-04-04T13:46:08.999Z</time></trkpt><trkpt lat="41.02941511309357" lon="14.676578821489771"><ele>268.0</ele><time>2026-04-04T13:46:09.999Z</time></trkpt><trkpt lat="41.02938283204917" lon="14.67623139465083"><ele>268.0</ele><time>2026-04-04T13:46:10.999Z</time></trkpt><trkpt lat="41.02930774482564" lon="14.675881018014698"><ele>269.0</ele><time>2026-04-04T13:46:11.999Z</time></trkpt><trkpt lat="41.02924810758693" lon="14.675553500606615"><ele>270.0</ele><time>2026-04-04T13:46:12.999Z</time></trkpt><trkpt lat="41.029207055017345" lon="14.6752996858705"><ele>271.25</ele><time>2026-04-04T13:46:13.999Z</time></trkpt><trkpt lat="41.029158751243756" lon="14.67507513899142"><ele>272.5</ele><time>2026-04-04T13:46:14.999Z</time></trkpt><trkpt lat="41.029132486996616" lon="14.67491802611349"><ele>273.75</ele><time>2026-04-04T13:46:15.999Z</time></trkpt><trkpt lat="41.02911884278377" lon="14.674770998888889"><ele>275.0</ele><time>2026-04-04T13:46:16.999Z</time></trkpt><trkpt lat="41.02909447914497" lon="14.674623482398895"><ele>276.75</ele><time>2026-04-04T13:46:17.999Z</time></trkpt><trkpt lat="41.02906681892778" lon="14.674455953231009"><ele>278.5</ele><time>2026-04-04T13:46:18.999Z</time></trkpt><trkpt lat="41.02902003666992" lon="14.674278868448297"><ele>280.25</ele><time>2026-04-04T13:46:19.999Z</time></trkpt><trkpt lat="41.02898966268077" lon="14.674051211052783"><ele>282.0</ele><time>2026-04-04T13:46:20.999Z</time></trkpt><trkpt lat="41.0289460382624" lon="14.673851857197597"><ele>282.0</ele><time>2026-04-04T13:46:21.999Z</time></trkpt><trkpt lat="41.02890210852042" lon="14.673661049590068"><ele>282.0</ele><time>2026-04-04T13:46:22.999Z</time></trkpt><trkpt lat="41.02885964273432" lon="14.6734499126797"><ele>282.0</ele><time>2026-04-04T13:46:23.999Z</time></trkpt><trkpt lat="41.028823881040864" lon="14.67325148637027"><ele>281.5</ele><time>2026-04-04T13:46:25Z</time></trkpt><trkpt lat="41.028786737768954" lon="14.673064693307978"><ele>281.0</ele><time>2026-04-04T13:46:26Z</time></trkpt><trkpt lat="41.02875018300751" lon="14.672887229736"><ele>280.5</ele><time>2026-04-04T13:46:27Z</time></trkpt><trkpt lat="41.02872474586586" lon="14.672701255157124"><ele>280.0</ele><time>2026-04-04T13:46:28Z</time></trkpt><trkpt lat="41.02869106582194" lon="14.672523481850877"><ele>280.0</ele><time>2026-04-04T13:46:29Z</time></trkpt><trkpt lat="41.02865701173535" lon="14.672340942693664"><ele>280.0</ele><time>2026-04-04T13:46:30Z</time></trkpt><trkpt lat="41.02862617750422" lon="14.672160826638011"><ele>280.0</ele><time>2026-04-04T13:46:31Z</time></trkpt><trkpt lat="41.028598691799054" lon="14.671981866605025"><ele>280.0</ele><time>2026-04-04T13:46:32Z</time></trkpt><trkpt lat="41.028564461231994" lon="14.671806645908452"><ele>280.25</ele><time>2026-04-04T13:46:33Z</time></trkpt><trkpt lat="41.028526686217205" lon="14.671634555801779"><ele>280.5</ele><time>2026-04-04T13:46:34Z</time></trkpt><trkpt lat="41.02848672396442" lon="14.671455557395083"><ele>280.75</ele><time>2026-04-04T13:46:35Z</time></trkpt><trkpt lat="41.02845067396783" lon="14.671283601769177"><ele>281.0</ele><time>2026-04-04T13:46:36Z</time></trkpt><trkpt lat="41.02841011527855" lon="14.671112346266252"><ele>282.0</ele><time>2026-04-04T13:46:37Z</time></trkpt><trkpt lat="41.02837431093555" lon="14.670944235550241"><ele>283.0</ele><time>2026-04-04T13:46:38Z</time></trkpt><trkpt lat="41.02834259584346" lon="14.670765102101042"><ele>284.0</ele><time>2026-04-04T13:46:39Z</time></trkpt><trkpt lat="41.028301630261815" lon="14.670591617588066"><ele>285.0</ele><time>2026-04-04T13:46:40Z</time></trkpt><trkpt lat="41.028266139108496" lon="14.670419796039225"><ele>285.25</ele><time>2026-04-04T13:46:41Z</time></trkpt><trkpt lat="41.02822918679335" lon="14.670236059486406"><ele>285.5</ele><time>2026-04-04T13:46:42Z</time></trkpt><trkpt lat="41.02819309837063" lon="14.670059377476033"><ele>285.75</ele><time>2026-04-04T13:46:43Z</time></trkpt><trkpt lat="41.02815868020556" lon="14.669878182056074"><ele>286.0</ele><time>2026-04-04T13:46:44Z</time></trkpt><trkpt lat="41.028122251906694" lon="14.669689546422607"><ele>286.0</ele><time>2026-04-04T13:46:45Z</time></trkpt><trkpt lat="41.02808486012178" lon="14.669493027299808"><ele>286.0</ele><time>2026-04-04T13:46:46Z</time></trkpt><trkpt lat="41.028044726394626" lon="14.669293812316726"><ele>286.0</ele><time>2026-04-04T13:46:47Z</time></trkpt><trkpt lat="41.02800474713228" lon="14.669096377547344"><ele>287.3333333333333</ele><time>2026-04-04T13:46:48Z</time></trkpt><trkpt lat="41.02795850992681" lon="14.668899742088394"><ele>288.6666666666667</ele><time>2026-04-04T13:46:49Z</time></trkpt><trkpt lat="41.02792510619465" lon="14.668694398719515"><ele>290.0</ele><time>2026-04-04T13:46:50Z</time></trkpt><trkpt lat="41.02787743363607" lon="14.668480447711303"><ele>291.0</ele><time>2026-04-04T13:46:51Z</time></trkpt><trkpt lat="41.02783731220377" lon="14.668246803969438"><ele>292.0</ele><time>2026-04-04T13:46:52Z</time></trkpt><trkpt lat="41.02780922905596" lon="14.668040572522939"><ele>293.0</ele><time>2026-04-04T13:46:53Z</time></trkpt><trkpt lat="41.02775014367578" lon="14.66784979175575"><ele>293.33333333333337</ele><time>2026-04-04T13:46:54Z</time></trkpt><trkpt lat="41.02771370228718" lon="14.667632158110539"><ele>293.6666666666667</ele><time>2026-04-04T13:46:55Z</time></trkpt><trkpt lat="41.027663726456936" lon="14.667446416392298"><ele>294.0</ele><time>2026-04-04T13:46:56Z</time></trkpt><trkpt lat="41.027598683450975" lon="14.667284531452566"><ele>294.0</ele><time>2026-04-04T13:46:57Z</time></trkpt><trkpt lat="41.027596108494585" lon="14.667091959156414"><ele>294.0</ele><time>2026-04-04T13:46:58Z</time></trkpt><trkpt lat="41.0275512252505" lon="14.666929351495876"><ele>294.0</ele><time>2026-04-04T13:46:59Z</time></trkpt><trkpt lat="41.02752747314219" lon="14.666738956121154"><ele>294.0</ele><time>2026-04-04T13:47:00Z</time></trkpt><trkpt lat="41.02748778254552" lon="14.666568272335127"><ele>294.5</ele><time>2026-04-04T13:47:01Z</time></trkpt><trkpt lat="41.027441550693695" lon="14.66639103190044"><ele>295.0</ele><time>2026-04-04T13:47:02Z</time></trkpt><trkpt lat="41.027402378463485" lon="14.666214302478974"><ele>295.5</ele><time>2026-04-04T13:47:03Z</time></trkpt><trkpt lat="41.0273591962613" lon="14.666040469282978"><ele>296.0</ele><time>2026-04-04T13:47:04Z</time></trkpt><trkpt lat="41.02730382570528" lon="14.665880321506082"><ele>296.8</ele><time>2026-04-04T13:47:05Z</time></trkpt><trkpt lat="41.02725638233113" lon="14.665744385683949"><ele>297.6</ele><time>2026-04-04T13:47:06Z</time></trkpt><trkpt lat="41.02721523588978" lon="14.665630351093334"><ele>298.4</ele><time>2026-04-04T13:47:07Z</time></trkpt><trkpt lat="41.02717723026511" lon="14.665500551658024"><ele>299.2</ele><time>2026-04-04T13:47:08Z</time></trkpt><trkpt lat="41.02716983086304" lon="14.665360802957153"><ele>300.0</ele><time>2026-04-04T13:47:09Z</time></trkpt><trkpt lat="41.02713274598663" lon="14.665231809070223"><ele>301.25</ele><time>2026-04-04T13:47:10Z</time></trkpt><trkpt lat="41.02706790551732" lon="14.665100745618979"><ele>302.5</ele><time>2026-04-04T13:47:11Z</time></trkpt><trkpt lat="41.02701118239591" lon="14.664995385541527"><ele>303.75</ele><time>2026-04-04T13:47:12Z</time></trkpt><trkpt lat="41.026959230310645" lon="14.664867394647029"><ele>305.0</ele><time>2026-04-04T13:47:13Z</time></trkpt><trkpt lat="41.026940850703696" lon="14.664687449312211"><ele>305.0</ele><time>2026-04-04T13:47:14Z</time></trkpt><trkpt lat="41.026885598105416" lon="14.664573393394088"><ele>305.0</ele><time>2026-04-04T13:47:15Z</time></trkpt><trkpt lat="41.02683677010668" lon="14.664429389155865"><ele>305.0</ele><time>2026-04-04T13:47:16Z</time></trkpt><trkpt lat="41.02678379062908" lon="14.66429278999099"><ele>305.0</ele><time>2026-04-04T13:47:17Z</time></trkpt><trkpt lat="41.026735966302155" lon="14.664142458780422"><ele>305.75</ele><time>2026-04-04T13:47:18Z</time></trkpt><trkpt lat="41.026694034563306" lon="14.663994713373466"><ele>306.5</ele><time>2026-04-04T13:47:19Z</time></trkpt><trkpt lat="41.02663527542042" lon="14.663842880652131"><ele>307.25</ele><time>2026-04-04T13:47:20Z</time></trkpt><trkpt lat="41.02658982839528" lon="14.663694242981066"><ele>308.0</ele><time>2026-04-04T13:47:21Z</time></trkpt><trkpt lat="41.02657560678606" lon="14.663544474085148"><ele>308.0</ele><time>2026-04-04T13:47:22Z</time></trkpt><trkpt lat="41.026537697573545" lon="14.663401451700961"><ele>308.0</ele><time>2026-04-04T13:47:23Z</time></trkpt><trkpt lat="41.026490130511775" lon="14.663295302406521"><ele>308.0</ele><time>2026-04-04T13:47:23.999Z</time></trkpt><trkpt lat="41.02647094139785" lon="14.6632020283591"><ele>308.0</ele><time>2026-04-04T13:47:24.999Z</time></trkpt><trkpt lat="41.02642449903832" lon="14.663107552283154"><ele>308.0</ele><time>2026-04-04T13:47:27.999Z</time></trkpt><trkpt lat="41.02639885756433" lon="14.663023699157929"><ele>308.0</ele><time>2026-04-04T13:47:28.999Z</time></trkpt><trkpt lat="41.02637528529459" lon="14.662933422379867"><ele>308.0</ele><time>2026-04-04T13:47:29.999Z</time></trkpt><trkpt lat="41.02636359649389" lon="14.662808592560534"><ele>308.0</ele><time>2026-04-04T13:47:30.999Z</time></trkpt><trkpt lat="41.02634636191632" lon="14.662681807939562"><ele>308.0</ele><time>2026-04-04T13:47:31.999Z</time></trkpt><trkpt lat="41.02634808569427" lon="14.662499520321708"><ele>308.0</ele><time>2026-04-04T13:47:32.999Z</time></trkpt><trkpt lat="41.02634523768941" lon="14.662336220488513"><ele>308.25</ele><time>2026-04-04T13:47:33.999Z</time></trkpt><trkpt lat="41.02633130420458" lon="14.662199010087567"><ele>308.5</ele><time>2026-04-04T13:47:34.999Z</time></trkpt><trkpt lat="41.02637249964085" lon="14.662052193309009"><ele>308.75</ele><time>2026-04-04T13:47:35.999Z</time></trkpt><trkpt lat="41.02641514547395" lon="14.661924912059249"><ele>309.0</ele><time>2026-04-04T13:47:36.999Z</time></trkpt><trkpt lat="41.02648917836947" lon="14.661792272951788"><ele>309.0</ele><time>2026-04-04T13:47:37.999Z</time></trkpt><trkpt lat="41.02660147902256" lon="14.661704026265127"><ele>309.0</ele><time>2026-04-04T13:47:38.999Z</time></trkpt><trkpt lat="41.026705774850804" lon="14.661614955433507"><ele>309.0</ele><time>2026-04-04T13:47:39.999Z</time></trkpt><trkpt lat="41.02678913835227" lon="14.661561136698019"><ele>309.0</ele><time>2026-04-04T13:47:40.999Z</time></trkpt><trkpt lat="41.02688688036717" lon="14.661474689446452"><ele>307.2</ele><time>2026-04-04T13:47:41.999Z</time></trkpt><trkpt lat="41.02696251272755" lon="14.661436548277264"><ele>305.4</ele><time>2026-04-04T13:47:42.999Z</time></trkpt><trkpt lat="41.02702633212104" lon="14.661401401390815"><ele>303.6</ele><time>2026-04-04T13:47:43.999Z</time></trkpt><trkpt lat="41.02708801570696" lon="14.661375246889826"><ele>301.8</ele><time>2026-04-04T13:47:44.999Z</time></trkpt><trkpt lat="41.02708913892921" lon="14.66119090845446"><ele>300.0</ele><time>2026-04-04T13:47:45.999Z</time></trkpt><trkpt lat="41.02712111167047" lon="14.661058091025033"><ele>300.0</ele><time>2026-04-04T13:47:46.999Z</time></trkpt><trkpt lat="41.02716489202782" lon="14.660915084289428"><ele>300.0</ele><time>2026-04-04T13:47:47.999Z</time></trkpt><trkpt lat="41.027240807073355" lon="14.660760368615392"><ele>300.0</ele><time>2026-04-04T13:47:48.999Z</time></trkpt><trkpt lat="41.027296833658916" lon="14.66058759439654"><ele>300.0</ele><time>2026-04-04T13:47:49.999Z</time></trkpt><trkpt lat="41.02735458884352" lon="14.660407463589529"><ele>300.0</ele><time>2026-04-04T13:47:50.999Z</time></trkpt><trkpt lat="41.02741422789905" lon="14.660220542054889"><ele>300.0</ele><time>2026-04-04T13:47:51.999Z</time></trkpt><trkpt lat="41.02747204426685" lon="14.660026210041837"><ele>300.0</ele><time>2026-04-04T13:47:52.999Z</time></trkpt><trkpt lat="41.02750992652321" lon="14.659822667639373"><ele>297.3333333333333</ele><time>2026-04-04T13:47:53.999Z</time></trkpt><trkpt lat="41.02754471940566" lon="14.659603433173627"><ele>294.66666666666663</ele><time>2026-04-04T13:47:54.999Z</time></trkpt><trkpt lat="41.02756533873557" lon="14.659364525148122"><ele>292.0</ele><time>2026-04-04T13:47:55.999Z</time></trkpt><trkpt lat="41.027586353838196" lon="14.659102955610411"><ele>292.0</ele><time>2026-04-04T13:47:56.999Z</time></trkpt><trkpt lat="41.02761688484245" lon="14.658828354822802"><ele>292.0</ele><time>2026-04-04T13:47:57.999Z</time></trkpt><trkpt lat="41.027641174803904" lon="14.658575398297943"><ele>292.0</ele><time>2026-04-04T13:47:58.999Z</time></trkpt><trkpt lat="41.02766019845735" lon="14.658340168830094"><ele>292.3333333333333</ele><time>2026-04-04T13:47:59.999Z</time></trkpt><trkpt lat="41.02765824631429" lon="14.658124496250977"><ele>292.6666666666667</ele><time>2026-04-04T13:48:00.999Z</time></trkpt><trkpt lat="41.027629997665876" lon="14.65792135287653"><ele>293.0</ele><time>2026-04-04T13:48:01.999Z</time></trkpt><trkpt lat="41.02761170458205" lon="14.657721253654895"><ele>293.33333333333337</ele><time>2026-04-04T13:48:02.999Z</time></trkpt><trkpt lat="41.02762361471968" lon="14.657515093386598"><ele>293.6666666666667</ele><time>2026-04-04T13:48:03.999Z</time></trkpt><trkpt lat="41.027693918590664" lon="14.657324702839512"><ele>294.0</ele><time>2026-04-04T13:48:04.999Z</time></trkpt><trkpt lat="41.027770369503905" lon="14.657120713726531"><ele>293.0</ele><time>2026-04-04T13:48:05.999Z</time></trkpt><trkpt lat="41.02786715822657" lon="14.656892505859448"><ele>292.0</ele><time>2026-04-04T13:48:06.999Z</time></trkpt><trkpt lat="41.02797117299467" lon="14.656656409697925"><ele>291.0</ele><time>2026-04-04T13:48:07.999Z</time></trkpt><trkpt lat="41.028083337922965" lon="14.65643024163228"><ele>291.0</ele><time>2026-04-04T13:48:08.999Z</time></trkpt><trkpt lat="41.02819608786896" lon="14.656210174053914"><ele>291.0</ele><time>2026-04-04T13:48:09.999Z</time></trkpt><trkpt lat="41.02831584388462" lon="14.6559850288209"><ele>291.0</ele><time>2026-04-04T13:48:10.999Z</time></trkpt><trkpt lat="41.02844168522203" lon="14.655752814621522"><ele>290.0</ele><time>2026-04-04T13:48:11.999Z</time></trkpt><trkpt lat="41.0285597887524" lon="14.655536669080549"><ele>289.0</ele><time>2026-04-04T13:48:12.999Z</time></trkpt><trkpt lat="41.02866503719045" lon="14.655316871066212"><ele>288.0</ele><time>2026-04-04T13:48:13.999Z</time></trkpt><trkpt lat="41.02877046943316" lon="14.655097015118596"><ele>287.6666666666667</ele><time>2026-04-04T13:48:14.999Z</time></trkpt><trkpt lat="41.028870135976526" lon="14.654882712296963"><ele>287.33333333333337</ele><time>2026-04-04T13:48:15.999Z</time></trkpt><trkpt lat="41.02897619278563" lon="14.654671899738391"><ele>287.0</ele><time>2026-04-04T13:48:16.999Z</time></trkpt><trkpt lat="41.02910970965663" lon="14.65446496424035"><ele>286.6666666666667</ele><time>2026-04-04T13:48:17.999Z</time></trkpt><trkpt lat="41.02923383082889" lon="14.654271848712682"><ele>286.3333333333333</ele><time>2026-04-04T13:48:18.999Z</time></trkpt><trkpt lat="41.029357096695065" lon="14.654097069717523"><ele>286.0</ele><time>2026-04-04T13:48:19.999Z</time></trkpt><trkpt lat="41.02947010780817" lon="14.65393260496306"><ele>286.0</ele><time>2026-04-04T13:48:20.999Z</time></trkpt><trkpt lat="41.02955214288249" lon="14.653799836330311"><ele>286.0</ele><time>2026-04-04T13:48:21.999Z</time></trkpt><trkpt lat="41.029617095526646" lon="14.653683529104695"><ele>286.0</ele><time>2026-04-04T13:48:22.999Z</time></trkpt><trkpt lat="41.02967100346102" lon="14.653582184343298"><ele>286.0</ele><time>2026-04-04T13:48:23.999Z</time></trkpt><trkpt lat="41.02973890346375" lon="14.653497033792238"><ele>286.0</ele><time>2026-04-04T13:48:24.999Z</time></trkpt><trkpt lat="41.029842331692215" lon="14.653467333613113"><ele>286.0</ele><time>2026-04-04T13:48:25.999Z</time></trkpt><trkpt lat="41.0299676723971" lon="14.653406964140379"><ele>286.0</ele><time>2026-04-04T13:48:26.999Z</time></trkpt><trkpt lat="41.030111743609105" lon="14.653373006695277"><ele>286.0</ele><time>2026-04-04T13:48:27.999Z</time></trkpt><trkpt lat="41.030269545590436" lon="14.653313861053304"><ele>286.0</ele><time>2026-04-04T13:48:28.999Z</time></trkpt><trkpt lat="41.03043357696302" lon="14.653262013385666"><ele>286.0</ele><time>2026-04-04T13:48:29.999Z</time></trkpt><trkpt lat="41.03059113151659" lon="14.653201371986235"><ele>286.0</ele><time>2026-04-04T13:48:31Z</time></trkpt><trkpt lat="41.03074712720397" lon="14.653152865009188"><ele>286.0</ele><time>2026-04-04T13:48:32Z</time></trkpt><trkpt lat="41.03090660767997" lon="14.653125475217347"><ele>285.66666666666663</ele><time>2026-04-04T13:48:33Z</time></trkpt><trkpt lat="41.03107181512382" lon="14.653113214822081"><ele>285.3333333333333</ele><time>2026-04-04T13:48:34Z</time></trkpt><trkpt lat="41.03124984746231" lon="14.653114457063047"><ele>285.0</ele><time>2026-04-04T13:48:35Z</time></trkpt><trkpt lat="41.03142545420832" lon="14.653118976217641"><ele>285.0</ele><time>2026-04-04T13:48:36Z</time></trkpt><trkpt lat="41.03160175249908" lon="14.653129001849443"><ele>285.0</ele><time>2026-04-04T13:48:37Z</time></trkpt><trkpt lat="41.03178475459399" lon="14.653125355372078"><ele>285.0</ele><time>2026-04-04T13:48:38Z</time></trkpt><trkpt lat="41.03196799479762" lon="14.653120317306877"><ele>284.3333333333333</ele><time>2026-04-04T13:48:39Z</time></trkpt><trkpt lat="41.03214417586396" lon="14.653119083398158"><ele>283.66666666666663</ele><time>2026-04-04T13:48:40Z</time></trkpt><trkpt lat="41.032297041571034" lon="14.653125648034274"><ele>283.0</ele><time>2026-04-04T13:48:41Z</time></trkpt><trkpt lat="41.032437323259806" lon="14.65313411135621"><ele>282.6</ele><time>2026-04-04T13:48:42Z</time></trkpt><trkpt lat="41.03257057268684" lon="14.653135064567325"><ele>282.20000000000005</ele><time>2026-04-04T13:48:43Z</time></trkpt><trkpt lat="41.03268923544679" lon="14.653143659577733"><ele>281.8</ele><time>2026-04-04T13:48:44Z</time></trkpt><trkpt lat="41.032785740278676" lon="14.65315220072167"><ele>281.40000000000003</ele><time>2026-04-04T13:48:45Z</time></trkpt><trkpt lat="41.03285667593696" lon="14.653181576572578"><ele>281.0</ele><time>2026-04-04T13:48:47Z</time></trkpt><trkpt lat="41.03294553269538" lon="14.653017005592856"><ele>281.0</ele><time>2026-04-04T13:48:53Z</time></trkpt><trkpt lat="41.03298845791842" lon="14.652907823702314"><ele>281.0</ele><time>2026-04-04T13:48:54Z</time></trkpt><trkpt lat="41.033034232365495" lon="14.652761363895333"><ele>281.0</ele><time>2026-04-04T13:48:55Z</time></trkpt><trkpt lat="41.03308770173778" lon="14.652563578934044"><ele>281.0</ele><time>2026-04-04T13:48:56Z</time></trkpt><trkpt lat="41.03315455507082" lon="14.652334756491381"><ele>281.0</ele><time>2026-04-04T13:48:57Z</time></trkpt><trkpt lat="41.033222039270996" lon="14.652102775037097"><ele>281.0</ele><time>2026-04-04T13:48:58Z</time></trkpt><trkpt lat="41.03328919378698" lon="14.651882011720977"><ele>281.0</ele><time>2026-04-04T13:48:59Z</time></trkpt><trkpt lat="41.03335740227035" lon="14.651665760680638"><ele>281.0</ele><time>2026-04-04T13:49:00Z</time></trkpt><trkpt lat="41.03342104622496" lon="14.651456996339416"><ele>281.0</ele><time>2026-04-04T13:49:01Z</time></trkpt><trkpt lat="41.033482370383055" lon="14.651250273489477"><ele>281.0</ele><time>2026-04-04T13:49:02Z</time></trkpt><trkpt lat="41.03354515302858" lon="14.65103537545889"><ele>281.0</ele><time>2026-04-04T13:49:03Z</time></trkpt><trkpt lat="41.033597708935176" lon="14.650804914732179"><ele>281.0</ele><time>2026-04-04T13:49:04Z</time></trkpt><trkpt lat="41.03363361083992" lon="14.650564823347526"><ele>281.0</ele><time>2026-04-04T13:49:05Z</time></trkpt><trkpt lat="41.033649901076245" lon="14.650310627707816"><ele>280.0</ele><time>2026-04-04T13:49:06Z</time></trkpt><trkpt lat="41.03365762255868" lon="14.650042302918779"><ele>279.0</ele><time>2026-04-04T13:49:07Z</time></trkpt><trkpt lat="41.0336495019792" lon="14.649774829560632"><ele>278.0</ele><time>2026-04-04T13:49:08Z</time></trkpt><trkpt lat="41.03362344798021" lon="14.649509531898138"><ele>277.5</ele><time>2026-04-04T13:49:09Z</time></trkpt><trkpt lat="41.03356191118926" lon="14.649225392670534"><ele>277.0</ele><time>2026-04-04T13:49:10Z</time></trkpt><trkpt lat="41.033461619852915" lon="14.64893754746794"><ele>277.0</ele><time>2026-04-04T13:49:11Z</time></trkpt><trkpt lat="41.03336597700967" lon="14.64864089867719"><ele>277.0</ele><time>2026-04-04T13:49:12Z</time></trkpt><trkpt lat="41.033269226222295" lon="14.64833475011547"><ele>278.0</ele><time>2026-04-04T13:49:13Z</time></trkpt><trkpt lat="41.033169875215656" lon="14.64802003279515"><ele>279.0</ele><time>2026-04-04T13:49:14Z</time></trkpt><trkpt lat="41.03306984800165" lon="14.647706407557427"><ele>279.5</ele><time>2026-04-04T13:49:15Z</time></trkpt><trkpt lat="41.03297207870593" lon="14.647380858701744"><ele>280.0</ele><time>2026-04-04T13:49:16Z</time></trkpt><trkpt lat="41.03287299249038" lon="14.647056210169211"><ele>279.0</ele><time>2026-04-04T13:49:17Z</time></trkpt><trkpt lat="41.032775714036426" lon="14.646753241376613"><ele>278.0</ele><time>2026-04-04T13:49:18Z</time></trkpt><trkpt lat="41.03267972456996" lon="14.646446200610788"><ele>278.0</ele><time>2026-04-04T13:49:19Z</time></trkpt><trkpt lat="41.03258482589492" lon="14.64614198855944"><ele>278.0</ele><time>2026-04-04T13:49:20Z</time></trkpt><trkpt lat="41.032493587529444" lon="14.645841961467232"><ele>279.5</ele><time>2026-04-04T13:49:20.999Z</time></trkpt><trkpt lat="41.0323992497179" lon="14.645539713587402"><ele>281.0</ele><time>2026-04-04T13:49:21.999Z</time></trkpt><trkpt lat="41.0323058333466" lon="14.645241517766848"><ele>281.0</ele><time>2026-04-04T13:49:22.999Z</time></trkpt><trkpt lat="41.03221170509926" lon="14.644945615434944"><ele>281.0</ele><time>2026-04-04T13:49:23.999Z</time></trkpt><trkpt lat="41.0321175695692" lon="14.644648052770457"><ele>280.0</ele><time>2026-04-04T13:49:24.999Z</time></trkpt><trkpt lat="41.03202242891734" lon="14.644349300219675"><ele>279.0</ele><time>2026-04-04T13:49:25.999Z</time></trkpt><trkpt lat="41.03193479123541" lon="14.64405151173772"><ele>279.0</ele><time>2026-04-04T13:49:26.999Z</time></trkpt><trkpt lat="41.03184899795127" lon="14.643753199732982"><ele>279.0</ele><time>2026-04-04T13:49:27.999Z</time></trkpt><trkpt lat="41.03175248156703" lon="14.643455699922834"><ele>278.5</ele><time>2026-04-04T13:49:28.999Z</time></trkpt><trkpt lat="41.03165425110088" lon="14.643161614670541"><ele>278.0</ele><time>2026-04-04T13:49:29.999Z</time></trkpt><trkpt lat="41.031560898481004" lon="14.642864107084709"><ele>279.5</ele><time>2026-04-04T13:49:30.999Z</time></trkpt><trkpt lat="41.031467189837876" lon="14.642564127884011"><ele>281.0</ele><time>2026-04-04T13:49:31.999Z</time></trkpt><trkpt lat="41.03137834063104" lon="14.64227346004863"><ele>281.0</ele><time>2026-04-04T13:49:32.999Z</time></trkpt><trkpt lat="41.03128956803261" lon="14.641987660068951"><ele>281.0</ele><time>2026-04-04T13:49:33.999Z</time></trkpt><trkpt lat="41.031200549747155" lon="14.64170357560359"><ele>280.5</ele><time>2026-04-04T13:49:34.999Z</time></trkpt><trkpt lat="41.03111043507498" lon="14.6414161106064"><ele>280.0</ele><time>2026-04-04T13:49:35.999Z</time></trkpt><trkpt lat="41.03101618284538" lon="14.641117593283441"><ele>279.0</ele><time>2026-04-04T13:49:36.999Z</time></trkpt><trkpt lat="41.03092304443426" lon="14.64081282709351"><ele>278.0</ele><time>2026-04-04T13:49:37.999Z</time></trkpt><trkpt lat="41.03082600782382" lon="14.640506848238065"><ele>278.5</ele><time>2026-04-04T13:49:38.999Z</time></trkpt><trkpt lat="41.03073003035836" lon="14.64020474738867"><ele>279.0</ele><time>2026-04-04T13:49:39.999Z</time></trkpt><trkpt lat="41.03063531554634" lon="14.639891663898803"><ele>279.0</ele><time>2026-04-04T13:49:40.999Z</time></trkpt><trkpt lat="41.03053898134302" lon="14.639572279910947"><ele>279.0</ele><time>2026-04-04T13:49:41.999Z</time></trkpt><trkpt lat="41.030444582185524" lon="14.63926871394206"><ele>279.0</ele><time>2026-04-04T13:49:42.999Z</time></trkpt><trkpt lat="41.03035182540942" lon="14.6389739628756"><ele>279.0</ele><time>2026-04-04T13:49:43.999Z</time></trkpt><trkpt lat="41.03026026888733" lon="14.6386929059382"><ele>279.3333333333333</ele><time>2026-04-04T13:49:44.999Z</time></trkpt><trkpt lat="41.03017617263267" lon="14.638426557737755"><ele>279.66666666666663</ele><time>2026-04-04T13:49:45.999Z</time></trkpt><trkpt lat="41.03010004578272" lon="14.638174713994895"><ele>280.0</ele><time>2026-04-04T13:49:46.999Z</time></trkpt><trkpt lat="41.03002039187885" lon="14.637919292031832"><ele>281.3333333333333</ele><time>2026-04-04T13:49:47.999Z</time></trkpt><trkpt lat="41.029945219705795" lon="14.63766876869522"><ele>282.6666666666667</ele><time>2026-04-04T13:49:48.999Z</time></trkpt><trkpt lat="41.029869112943885" lon="14.637435225363863"><ele>284.0</ele><time>2026-04-04T13:49:49.999Z</time></trkpt><trkpt lat="41.029800165990316" lon="14.637222810388499"><ele>284.0</ele><time>2026-04-04T13:49:50.999Z</time></trkpt><trkpt lat="41.0297352793909" lon="14.63701316630126"><ele>284.0</ele><time>2026-04-04T13:49:51.999Z</time></trkpt><trkpt lat="41.029674168740684" lon="14.636815590326677"><ele>284.0</ele><time>2026-04-04T13:49:52.999Z</time></trkpt><trkpt lat="41.02961327581611" lon="14.63662768854792"><ele>282.75</ele><time>2026-04-04T13:49:53.999Z</time></trkpt><trkpt lat="41.02955245972817" lon="14.63645892456383"><ele>281.5</ele><time>2026-04-04T13:49:54.999Z</time></trkpt><trkpt lat="41.02949238377118" lon="14.636304346200374"><ele>280.25</ele><time>2026-04-04T13:49:55.999Z</time></trkpt><trkpt lat="41.02943413022" lon="14.636151697338839"><ele>279.0</ele><time>2026-04-04T13:49:56.999Z</time></trkpt><trkpt lat="41.029393036317785" lon="14.63603699717341"><ele>278.6666666666667</ele><time>2026-04-04T13:49:57.999Z</time></trkpt><trkpt lat="41.02935881617222" lon="14.635947360328867"><ele>278.3333333333333</ele><time>2026-04-04T13:49:58.999Z</time></trkpt><trkpt lat="41.02931619127198" lon="14.635855214509784"><ele>278.0</ele><time>2026-04-04T13:50:01.999Z</time></trkpt><trkpt lat="41.02930234392582" lon="14.635745327371112"><ele>277.66666666666663</ele><time>2026-04-04T13:50:05.999Z</time></trkpt><trkpt lat="41.0292493337017" lon="14.635592746242912"><ele>277.3333333333333</ele><time>2026-04-04T13:50:07.999Z</time></trkpt><trkpt lat="41.02920905775016" lon="14.635517308023198"><ele>277.0</ele><time>2026-04-04T13:50:08.999Z</time></trkpt><trkpt lat="41.02916711851363" lon="14.635417235456938"><ele>276.66666666666663</ele><time>2026-04-04T13:50:09.999Z</time></trkpt><trkpt lat="41.02911828363866" lon="14.635310982862775"><ele>276.3333333333333</ele><time>2026-04-04T13:50:10.999Z</time></trkpt><trkpt lat="41.02907488149741" lon="14.635219000118651"><ele>276.0</ele><time>2026-04-04T13:50:11.999Z</time></trkpt><trkpt lat="41.029039092388565" lon="14.635143183856055"><ele>275.6666666666667</ele><time>2026-04-04T13:50:12.999Z</time></trkpt><trkpt lat="41.02898950936114" lon="14.635043162689861"><ele>275.33333333333337</ele><time>2026-04-04T13:50:14.999Z</time></trkpt><trkpt lat="41.02892444368097" lon="14.634940014823535"><ele>275.0</ele><time>2026-04-04T13:50:46Z</time></trkpt><trkpt lat="41.02886263037341" lon="14.634827340952373"><ele>275.0</ele><time>2026-04-04T13:50:48Z</time></trkpt><trkpt lat="41.02878636943132" lon="14.63468984991397"><ele>275.0</ele><time>2026-04-04T13:50:50Z</time></trkpt><trkpt lat="41.02872060738374" lon="14.634571298753313"><ele>275.0</ele><time>2026-04-04T13:50:51Z</time></trkpt><trkpt lat="41.028656071930925" lon="14.634452180019604"><ele>275.0</ele><time>2026-04-04T13:50:52Z</time></trkpt><trkpt lat="41.02858601118454" lon="14.634318945539954"><ele>275.0</ele><time>2026-04-04T13:50:53Z</time></trkpt><trkpt lat="41.028509030443814" lon="14.634170742037908"><ele>275.0</ele><time>2026-04-04T13:50:54Z</time></trkpt><trkpt lat="41.02842729012437" lon="14.634018972087993"><ele>275.0</ele><time>2026-04-04T13:50:55Z</time></trkpt><trkpt lat="41.02833991962652" lon="14.633863842118542"><ele>275.0</ele><time>2026-04-04T13:50:56Z</time></trkpt><trkpt lat="41.02824832951288" lon="14.633697224449616"><ele>274.33333333333337</ele><time>2026-04-04T13:50:57Z</time></trkpt><trkpt lat="41.02815882842948" lon="14.633521210576896"><ele>273.6666666666667</ele><time>2026-04-04T13:50:58Z</time></trkpt><trkpt lat="41.028065199820205" lon="14.633333869248858"><ele>273.0</ele><time>2026-04-04T13:50:59Z</time></trkpt><trkpt lat="41.02796786759618" lon="14.633144626555318"><ele>273.0</ele><time>2026-04-04T13:51:00Z</time></trkpt><trkpt lat="41.02786476277112" lon="14.63295776440337"><ele>273.0</ele><time>2026-04-04T13:51:01Z</time></trkpt><trkpt lat="41.02775772898015" lon="14.632759225215745"><ele>273.0</ele><time>2026-04-04T13:51:02Z</time></trkpt><trkpt lat="41.027649393466035" lon="14.63254204420588"><ele>273.6666666666667</ele><time>2026-04-04T13:51:03Z</time></trkpt><trkpt lat="41.02753585755859" lon="14.632323609135932"><ele>274.33333333333337</ele><time>2026-04-04T13:51:04Z</time></trkpt><trkpt lat="41.02743490112342" lon="14.632134670096441"><ele>275.0</ele><time>2026-04-04T13:51:05Z</time></trkpt><trkpt lat="41.0273391336096" lon="14.631951683244846"><ele>275.6666666666667</ele><time>2026-04-04T13:51:06Z</time></trkpt><trkpt lat="41.027249519978085" lon="14.631780572853726"><ele>276.3333333333333</ele><time>2026-04-04T13:51:07Z</time></trkpt><trkpt lat="41.02715519553582" lon="14.63160027558216"><ele>277.0</ele><time>2026-04-04T13:51:08Z</time></trkpt><trkpt lat="41.027061722940694" lon="14.631415371394114"><ele>277.0</ele><time>2026-04-04T13:51:09Z</time></trkpt><trkpt lat="41.026967632431855" lon="14.631228325100277"><ele>277.0</ele><time>2026-04-04T13:51:10Z</time></trkpt><trkpt lat="41.026869842639705" lon="14.631039661584943"><ele>277.0</ele><time>2026-04-04T13:51:11Z</time></trkpt><trkpt lat="41.02677321771781" lon="14.63084809287699"><ele>276.66666666666663</ele><time>2026-04-04T13:51:12Z</time></trkpt><trkpt lat="41.026673027744316" lon="14.630654472979899"><ele>276.3333333333333</ele><time>2026-04-04T13:51:13Z</time></trkpt><trkpt lat="41.02657073334971" lon="14.630463295188022"><ele>276.0</ele><time>2026-04-04T13:51:14Z</time></trkpt><trkpt lat="41.02646956814446" lon="14.63026885627278"><ele>276.0</ele><time>2026-04-04T13:51:15Z</time></trkpt><trkpt lat="41.0263679609506" lon="14.630069101057012"><ele>276.0</ele><time>2026-04-04T13:51:16Z</time></trkpt><trkpt lat="41.02626745415769" lon="14.629868547355006"><ele>276.0</ele><time>2026-04-04T13:51:17Z</time></trkpt><trkpt lat="41.026161855912214" lon="14.62966878283097"><ele>276.3333333333333</ele><time>2026-04-04T13:51:18Z</time></trkpt><trkpt lat="41.026054656038966" lon="14.629466658186352"><ele>276.66666666666663</ele><time>2026-04-04T13:51:19Z</time></trkpt><trkpt lat="41.02595024034712" lon="14.629267629868714"><ele>277.0</ele><time>2026-04-04T13:51:20Z</time></trkpt><trkpt lat="41.025847300853336" lon="14.629070887702076"><ele>277.0</ele><time>2026-04-04T13:51:21Z</time></trkpt><trkpt lat="41.0257547640766" lon="14.628881404216473"><ele>277.0</ele><time>2026-04-04T13:51:22Z</time></trkpt><trkpt lat="41.02566019164718" lon="14.628689382207371"><ele>277.0</ele><time>2026-04-04T13:51:23Z</time></trkpt><trkpt lat="41.02556306110186" lon="14.628501925206944"><ele>276.66666666666663</ele><time>2026-04-04T13:51:23.999Z</time></trkpt><trkpt lat="41.02545964373832" lon="14.628315018452758"><ele>276.3333333333333</ele><time>2026-04-04T13:51:24.999Z</time></trkpt><trkpt lat="41.025356214910396" lon="14.628131352974949"><ele>276.0</ele><time>2026-04-04T13:51:25.999Z</time></trkpt><trkpt lat="41.02525643897312" lon="14.627951098230685"><ele>276.3333333333333</ele><time>2026-04-04T13:51:26.999Z</time></trkpt><trkpt lat="41.02515695508117" lon="14.627764783884539"><ele>276.66666666666663</ele><time>2026-04-04T13:51:27.999Z</time></trkpt><trkpt lat="41.02506732508387" lon="14.6275764112667"><ele>277.0</ele><time>2026-04-04T13:51:28.999Z</time></trkpt><trkpt lat="41.02497578450389" lon="14.627387480396852"><ele>277.3333333333333</ele><time>2026-04-04T13:51:29.999Z</time></trkpt><trkpt lat="41.024881114384755" lon="14.627199664607382"><ele>277.6666666666667</ele><time>2026-04-04T13:51:30.999Z</time></trkpt><trkpt lat="41.02478174154287" lon="14.627009556030007"><ele>278.0</ele><time>2026-04-04T13:51:31.999Z</time></trkpt><trkpt lat="41.024685980195095" lon="14.626823063069605"><ele>278.0</ele><time>2026-04-04T13:51:32.999Z</time></trkpt><trkpt lat="41.02459633435842" lon="14.62664313648051"><ele>278.0</ele><time>2026-04-04T13:51:33.999Z</time></trkpt><trkpt lat="41.024509360384855" lon="14.626478078331042"><ele>278.0</ele><time>2026-04-04T13:51:34.999Z</time></trkpt><trkpt lat="41.024417759527076" lon="14.62631083846001"><ele>278.0</ele><time>2026-04-04T13:51:35.999Z</time></trkpt><trkpt lat="41.02433037879542" lon="14.626146069447252"><ele>278.0</ele><time>2026-04-04T13:51:36.999Z</time></trkpt><trkpt lat="41.024255117777365" lon="14.625995000447542"><ele>278.0</ele><time>2026-04-04T13:51:37.999Z</time></trkpt><trkpt lat="41.02417974655638" lon="14.625849336741851"><ele>278.0</ele><time>2026-04-04T13:51:38.999Z</time></trkpt><trkpt lat="41.024100057512854" lon="14.625696461334021"><ele>278.5</ele><time>2026-04-04T13:51:39.999Z</time></trkpt><trkpt lat="41.0240267228491" lon="14.62555775137936"><ele>279.0</ele><time>2026-04-04T13:51:40.999Z</time></trkpt><trkpt lat="41.023948138115564" lon="14.625415895803874"><ele>279.5</ele><time>2026-04-04T13:51:41.999Z</time></trkpt><trkpt lat="41.02387722222036" lon="14.625278973605221"><ele>280.0</ele><time>2026-04-04T13:51:42.999Z</time></trkpt><trkpt lat="41.02380605468432" lon="14.625137746826619"><ele>280.25</ele><time>2026-04-04T13:51:43.999Z</time></trkpt><trkpt lat="41.02373285481041" lon="14.62499645469948"><ele>280.5</ele><time>2026-04-04T13:51:44.999Z</time></trkpt><trkpt lat="41.02366162914604" lon="14.624859448346117"><ele>280.75</ele><time>2026-04-04T13:51:45.999Z</time></trkpt><trkpt lat="41.02359580514137" lon="14.624740137383776"><ele>281.0</ele><time>2026-04-04T13:51:46.999Z</time></trkpt><trkpt lat="41.023531732974" lon="14.62461852982019"><ele>281.0</ele><time>2026-04-04T13:51:47.999Z</time></trkpt><trkpt lat="41.02346824071184" lon="14.624493062825676"><ele>281.0</ele><time>2026-04-04T13:51:48.999Z</time></trkpt><trkpt lat="41.02340340716071" lon="14.62437126889038"><ele>281.0</ele><time>2026-04-04T13:51:49.999Z</time></trkpt><trkpt lat="41.02333882316322" lon="14.624247920286216"><ele>281.0</ele><time>2026-04-04T13:51:50.999Z</time></trkpt><trkpt lat="41.02327536466516" lon="14.62412101823593"><ele>281.2</ele><time>2026-04-04T13:51:51.999Z</time></trkpt><trkpt lat="41.02321478874504" lon="14.624001751507096"><ele>281.40000000000003</ele><time>2026-04-04T13:51:52.999Z</time></trkpt><trkpt lat="41.02315310424883" lon="14.623883469286671"><ele>281.6</ele><time>2026-04-04T13:51:53.999Z</time></trkpt><trkpt lat="41.02308705549132" lon="14.623759748115074"><ele>281.8</ele><time>2026-04-04T13:51:54.999Z</time></trkpt><trkpt lat="41.02302060456521" lon="14.623637391031242"><ele>282.0</ele><time>2026-04-04T13:51:55.999Z</time></trkpt><trkpt lat="41.02296073100629" lon="14.623523382828495"><ele>282.0</ele><time>2026-04-04T13:51:56.999Z</time></trkpt><trkpt lat="41.02290045847984" lon="14.623406555014036"><ele>282.0</ele><time>2026-04-04T13:51:57.999Z</time></trkpt><trkpt lat="41.02284381125017" lon="14.623291435616652"><ele>282.0</ele><time>2026-04-04T13:51:58.999Z</time></trkpt><trkpt lat="41.022783635590805" lon="14.623182543018629"><ele>282.0</ele><time>2026-04-04T13:51:59.999Z</time></trkpt><trkpt lat="41.02273139648224" lon="14.623084865601136"><ele>282.0</ele><time>2026-04-04T13:52:00.999Z</time></trkpt><trkpt lat="41.02267226251173" lon="14.6229714223003"><ele>282.0</ele><time>2026-04-04T13:52:01.999Z</time></trkpt><trkpt lat="41.02261904175161" lon="14.622870338802889"><ele>282.0</ele><time>2026-04-04T13:52:02.999Z</time></trkpt><trkpt lat="41.02257171260922" lon="14.622775718214735"><ele>282.0</ele><time>2026-04-04T13:52:03.999Z</time></trkpt><trkpt lat="41.022530756559895" lon="14.622686230483529"><ele>282.0</ele><time>2026-04-04T13:52:04.999Z</time></trkpt><trkpt lat="41.02247263566524" lon="14.622601985426208"><ele>282.0</ele><time>2026-04-04T13:52:05.999Z</time></trkpt><trkpt lat="41.02241082026036" lon="14.622529134427056"><ele>282.0</ele><time>2026-04-04T13:52:06.999Z</time></trkpt><trkpt lat="41.02234783153426" lon="14.622443302831757"><ele>282.1666666666667</ele><time>2026-04-04T13:52:07.999Z</time></trkpt><trkpt lat="41.022295445838736" lon="14.622357194617228"><ele>282.3333333333333</ele><time>2026-04-04T13:52:08.999Z</time></trkpt><trkpt lat="41.02224752523456" lon="14.622277570493262"><ele>282.5</ele><time>2026-04-04T13:52:09.999Z</time></trkpt><trkpt lat="41.02220397071595" lon="14.622206966310237"><ele>282.66666666666663</ele><time>2026-04-04T13:52:10.999Z</time></trkpt><trkpt lat="41.02215940488216" lon="14.622126788393073"><ele>282.8333333333333</ele><time>2026-04-04T13:52:11.999Z</time></trkpt><trkpt lat="41.02211125507518" lon="14.622044708103092"><ele>283.0</ele><time>2026-04-04T13:52:12.999Z</time></trkpt><trkpt lat="41.02206538377079" lon="14.621961939669502"><ele>283.0</ele><time>2026-04-04T13:52:13.999Z</time></trkpt><trkpt lat="41.02201517780134" lon="14.62188103484182"><ele>283.0</ele><time>2026-04-04T13:52:14.999Z</time></trkpt><trkpt lat="41.02196046880105" lon="14.62180194274481"><ele>283.0</ele><time>2026-04-04T13:52:15.999Z</time></trkpt><trkpt lat="41.02190063714552" lon="14.62171677813159"><ele>283.0</ele><time>2026-04-04T13:52:16.999Z</time></trkpt><trkpt lat="41.021838379746235" lon="14.621623292414831"><ele>283.0</ele><time>2026-04-04T13:52:17.999Z</time></trkpt><trkpt lat="41.02177801763758" lon="14.621529718716449"><ele>283.0</ele><time>2026-04-04T13:52:18.999Z</time></trkpt><trkpt lat="41.02171769660087" lon="14.621432963845962"><ele>283.0</ele><time>2026-04-04T13:52:19.999Z</time></trkpt><trkpt lat="41.021659870641805" lon="14.621341553776544"><ele>283.0</ele><time>2026-04-04T13:52:20.999Z</time></trkpt><trkpt lat="41.021600755277156" lon="14.621249022585074"><ele>283.0</ele><time>2026-04-04T13:52:21.999Z</time></trkpt><trkpt lat="41.021537946300825" lon="14.621152460504733"><ele>283.0</ele><time>2026-04-04T13:52:22.999Z</time></trkpt><trkpt lat="41.021472082589696" lon="14.621056283890509"><ele>283.0</ele><time>2026-04-04T13:52:23.999Z</time></trkpt><trkpt lat="41.021398336537665" lon="14.620933514229588"><ele>283.8</ele><time>2026-04-04T13:52:24.999Z</time></trkpt><trkpt lat="41.0213239855451" lon="14.620815238140697"><ele>284.6</ele><time>2026-04-04T13:52:25.999Z</time></trkpt><trkpt lat="41.02125923311481" lon="14.62069967152002"><ele>285.4</ele><time>2026-04-04T13:52:26.999Z</time></trkpt><trkpt lat="41.02120456103081" lon="14.620584799068"><ele>286.2</ele><time>2026-04-04T13:52:27.999Z</time></trkpt><trkpt lat="41.021164507396364" lon="14.620461664701198"><ele>287.0</ele><time>2026-04-04T13:52:28.999Z</time></trkpt><trkpt lat="41.021128069339795" lon="14.620350455670248"><ele>286.83333333333337</ele><time>2026-04-04T13:52:29.999Z</time></trkpt><trkpt lat="41.02109545018095" lon="14.620234285337736"><ele>286.6666666666667</ele><time>2026-04-04T13:52:30.998Z</time></trkpt><trkpt lat="41.02108058455497" lon="14.620099578272878"><ele>286.5</ele><time>2026-04-04T13:52:31.998Z</time></trkpt><trkpt lat="41.02107808812691" lon="14.619981749451254"><ele>286.3333333333333</ele><time>2026-04-04T13:52:32.998Z</time></trkpt><trkpt lat="41.02107260532038" lon="14.619874492974292"><ele>286.16666666666663</ele><time>2026-04-04T13:52:33.998Z</time></trkpt><trkpt lat="41.02106593064927" lon="14.619773690805584"><ele>286.0</ele><time>2026-04-04T13:52:34.998Z</time></trkpt><trkpt lat="41.021073876485104" lon="14.619676672479603"><ele>286.0</ele><time>2026-04-04T13:52:35.998Z</time></trkpt><trkpt lat="41.02109134114937" lon="14.619552864613661"><ele>286.0</ele><time>2026-04-04T13:52:36.998Z</time></trkpt><trkpt lat="41.02111657481784" lon="14.61943133081857"><ele>286.0</ele><time>2026-04-04T13:52:37.998Z</time></trkpt><trkpt lat="41.02115616063485" lon="14.619319581397125"><ele>286.0</ele><time>2026-04-04T13:52:38.998Z</time></trkpt><trkpt lat="41.021186280381656" lon="14.61922292184878"><ele>286.0</ele><time>2026-04-04T13:52:39.998Z</time></trkpt><trkpt lat="41.021217019498295" lon="14.619138826445933"><ele>286.0</ele><time>2026-04-04T13:52:40.998Z</time></trkpt><trkpt lat="41.0212484882024" lon="14.619040690513579"><ele>286.0</ele><time>2026-04-04T13:52:41.998Z</time></trkpt><trkpt lat="41.02128798698883" lon="14.618933717408728"><ele>286.0</ele><time>2026-04-04T13:52:43Z</time></trkpt><trkpt lat="41.021326420050144" lon="14.618817201103932"><ele>286.0</ele><time>2026-04-04T13:52:44Z</time></trkpt><trkpt lat="41.02136134069182" lon="14.618704001660497"><ele>286.0</ele><time>2026-04-04T13:52:45Z</time></trkpt><trkpt lat="41.021395137764756" lon="14.618590167997974"><ele>286.0</ele><time>2026-04-04T13:52:46Z</time></trkpt><trkpt lat="41.02142818160846" lon="14.618475285201736"><ele>286.0</ele><time>2026-04-04T13:52:47Z</time></trkpt><trkpt lat="41.02146441405245" lon="14.618361250049581"><ele>286.0</ele><time>2026-04-04T13:52:48Z</time></trkpt><trkpt lat="41.021496832214375" lon="14.618261455523196"><ele>286.0</ele><time>2026-04-04T13:52:49Z</time></trkpt><trkpt lat="41.02153572033371" lon="14.618151077285457"><ele>286.0</ele><time>2026-04-04T13:52:50Z</time></trkpt><trkpt lat="41.021561954337514" lon="14.61803508081432"><ele>286.0</ele><time>2026-04-04T13:52:51Z</time></trkpt><trkpt lat="41.02160288751409" lon="14.617928336817366"><ele>286.0</ele><time>2026-04-04T13:52:52Z</time></trkpt><trkpt lat="41.0216427157529" lon="14.617813337745083"><ele>285.66666666666663</ele><time>2026-04-04T13:52:53Z</time></trkpt><trkpt lat="41.02168237217251" lon="14.61770311003116"><ele>285.3333333333333</ele><time>2026-04-04T13:52:54Z</time></trkpt><trkpt lat="41.02172239188938" lon="14.617593894928659"><ele>285.0</ele><time>2026-04-04T13:52:55Z</time></trkpt><trkpt lat="41.021751292264966" lon="14.61750117055633"><ele>284.6666666666667</ele><time>2026-04-04T13:52:56Z</time></trkpt><trkpt lat="41.02178250336027" lon="14.617417751718605"><ele>284.33333333333337</ele><time>2026-04-04T13:52:57Z</time></trkpt><trkpt lat="41.021808507121825" lon="14.617338796351463"><ele>284.0</ele><time>2026-04-04T13:52:58Z</time></trkpt><trkpt lat="41.02183370200063" lon="14.617259727816078"><ele>284.0</ele><time>2026-04-04T13:52:59Z</time></trkpt><trkpt lat="41.02185915128105" lon="14.61712003766735"><ele>284.0</ele><time>2026-04-04T13:53:01Z</time></trkpt><trkpt lat="41.02186570819209" lon="14.617026875793599"><ele>284.0</ele><time>2026-04-04T13:53:03Z</time></trkpt><trkpt lat="41.021869993476166" lon="14.616923613191757"><ele>284.0</ele><time>2026-04-04T13:53:05Z</time></trkpt><trkpt lat="41.021876491360224" lon="14.616785786912141"><ele>284.0</ele><time>2026-04-04T13:53:10Z</time></trkpt><trkpt lat="41.0218820296428" lon="14.616680153515405"><ele>284.0</ele><time>2026-04-04T13:53:13Z</time></trkpt><trkpt lat="41.02188338775951" lon="14.616595898818288"><ele>284.4</ele><time>2026-04-04T13:53:16Z</time></trkpt><trkpt lat="41.021977830859754" lon="14.616582504325368"><ele>284.79999999999995</ele><time>2026-04-04T13:53:19Z</time></trkpt><trkpt lat="41.022076495899825" lon="14.616564429417748"><ele>285.20000000000005</ele><time>2026-04-04T13:53:21Z</time></trkpt><trkpt lat="41.022164675733436" lon="14.616569401183678"><ele>285.6</ele><time>2026-04-04T13:53:22Z</time></trkpt><trkpt lat="41.02229038898444" lon="14.616538727821636"><ele>286.0</ele><time>2026-04-04T13:53:23Z</time></trkpt><trkpt lat="41.022402324602645" lon="14.616548799851603"><ele>285.0</ele><time>2026-04-04T13:53:24Z</time></trkpt><trkpt lat="41.0225365990074" lon="14.616563757162222"><ele>284.0</ele><time>2026-04-04T13:53:25Z</time></trkpt><trkpt lat="41.02267390508287" lon="14.61656133548114"><ele>283.0</ele><time>2026-04-04T13:53:26Z</time></trkpt><trkpt lat="41.02280936372948" lon="14.616525607714772"><ele>282.0</ele><time>2026-04-04T13:53:27Z</time></trkpt><trkpt lat="41.022929142603026" lon="14.616508218245007"><ele>282.0</ele><time>2026-04-04T13:53:28Z</time></trkpt><trkpt lat="41.023042291875385" lon="14.616483489477044"><ele>282.0</ele><time>2026-04-04T13:53:28.999Z</time></trkpt><trkpt lat="41.02322322959704" lon="14.616442616216576"><ele>282.0</ele><time>2026-04-04T13:53:30.999Z</time></trkpt><trkpt lat="41.0232979593174" lon="14.616426404227958"><ele>282.0</ele><time>2026-04-04T13:53:31.999Z</time></trkpt><trkpt lat="41.02335924194021" lon="14.616386592345389"><ele>282.0</ele><time>2026-04-04T13:53:33.999Z</time></trkpt><trkpt lat="41.02330799582002" lon="14.61608213185069"><ele>282.4</ele><time>2026-04-04T13:53:36.999Z</time></trkpt><trkpt lat="41.02328940252049" lon="14.615946619877278"><ele>282.79999999999995</ele><time>2026-04-04T13:53:37.999Z</time></trkpt><trkpt lat="41.02324955213368" lon="14.615824067813282"><ele>283.2</ele><time>2026-04-04T13:53:38.999Z</time></trkpt><trkpt lat="41.023212628594706" lon="14.615710376297935"><ele>283.59999999999997</ele><time>2026-04-04T13:53:39.999Z</time></trkpt><trkpt lat="41.0231734083205" lon="14.615592093852301"><ele>284.0</ele><time>2026-04-04T13:53:40.999Z</time></trkpt><trkpt lat="41.023104058299836" lon="14.615479695440602"><ele>284.0</ele><time>2026-04-04T13:53:41.999Z</time></trkpt><trkpt lat="41.02300466986184" lon="14.615332685147154"><ele>284.0</ele><time>2026-04-04T13:53:42.999Z</time></trkpt><trkpt lat="41.02290816972117" lon="14.615182220877507"><ele>284.0</ele><time>2026-04-04T13:53:43.999Z</time></trkpt><trkpt lat="41.02280735310695" lon="14.61503054322005"><ele>283.5</ele><time>2026-04-04T13:53:44.999Z</time></trkpt><trkpt lat="41.02271674769515" lon="14.614899109424394"><ele>283.0</ele><time>2026-04-04T13:53:45.999Z</time></trkpt><trkpt lat="41.022627044672625" lon="14.614775546231115"><ele>282.5</ele><time>2026-04-04T13:53:46.999Z</time></trkpt><trkpt lat="41.022523979277096" lon="14.614661624171337"><ele>282.0</ele><time>2026-04-04T13:53:47.999Z</time></trkpt><trkpt lat="41.02240761137948" lon="14.614546695832802"><ele>283.0</ele><time>2026-04-04T13:53:48.999Z</time></trkpt><trkpt lat="41.02230071630755" lon="14.614456448708573"><ele>284.0</ele><time>2026-04-04T13:53:49.999Z</time></trkpt><trkpt lat="41.022215052976435" lon="14.61437372100569"><ele>285.0</ele><time>2026-04-04T13:53:50.999Z</time></trkpt><trkpt lat="41.02213166477181" lon="14.614306553064743"><ele>286.0</ele><time>2026-04-04T13:53:51.999Z</time></trkpt><trkpt lat="41.02206621393477" lon="14.614229189742524"><ele>287.0</ele><time>2026-04-04T13:53:52.999Z</time></trkpt><trkpt lat="41.021978251738645" lon="14.614124480040704"><ele>287.0</ele><time>2026-04-04T13:53:54.999Z</time></trkpt><trkpt lat="41.02192144698779" lon="14.614050986446866"><ele>287.0</ele><time>2026-04-04T13:54:15.999Z</time></trkpt><trkpt lat="41.02186884984782" lon="14.613986396077276"><ele>287.0</ele><time>2026-04-04T13:54:17.999Z</time></trkpt><trkpt lat="41.02178765126122" lon="14.61400904574783"><ele>287.0</ele><time>2026-04-04T13:54:19.999Z</time></trkpt><trkpt lat="41.021714377018206" lon="14.61396631750447"><ele>287.0</ele><time>2026-04-04T13:54:20.999Z</time></trkpt><trkpt lat="41.02163120485111" lon="14.61391781753297"><ele>287.0</ele><time>2026-04-04T13:54:21.999Z</time></trkpt><trkpt lat="41.02158936250271" lon="14.613693089898401"><ele>287.5</ele><time>2026-04-04T13:54:22.999Z</time></trkpt><trkpt lat="41.021467056560546" lon="14.613688590006065"><ele>288.0</ele><time>2026-04-04T13:54:23.999Z</time></trkpt><trkpt lat="41.02135195186642" lon="14.613680510784784"><ele>288.5</ele><time>2026-04-04T13:54:24.999Z</time></trkpt><trkpt lat="41.021225022000884" lon="14.613662072431904"><ele>289.0</ele><time>2026-04-04T13:54:25.999Z</time></trkpt><trkpt lat="41.021115451445574" lon="14.613659564501477"><ele>289.0</ele><time>2026-04-04T13:54:26.999Z</time></trkpt><trkpt lat="41.02100229387676" lon="14.61365948421324"><ele>289.0</ele><time>2026-04-04T13:54:27.999Z</time></trkpt><trkpt lat="41.020907742746616" lon="14.61365497617392"><ele>289.0</ele><time>2026-04-04T13:54:28.999Z</time></trkpt><trkpt lat="41.02081540517696" lon="14.613659825629925"><ele>289.0</ele><time>2026-04-04T13:54:29.999Z</time></trkpt><trkpt lat="41.0207055054001" lon="14.613615517445362"><ele>289.0</ele><time>2026-04-04T13:54:31.999Z</time></trkpt><trkpt lat="41.020628316108485" lon="14.613619342456039"><ele>290.0</ele><time>2026-04-04T13:54:33.999Z</time></trkpt><trkpt lat="41.0206500917719" lon="14.613436781519658"><ele>291.0</ele><time>2026-04-04T13:54:34.999Z</time></trkpt><trkpt lat="41.020672478583165" lon="14.613326293853994"><ele>292.0</ele><time>2026-04-04T13:54:35.999Z</time></trkpt><trkpt lat="41.02066669705969" lon="14.61321626194069"><ele>293.0</ele><time>2026-04-04T13:54:36.999Z</time></trkpt><trkpt lat="41.02068795357656" lon="14.61309417492144"><ele>294.0</ele><time>2026-04-04T13:54:37.998Z</time></trkpt><trkpt lat="41.020694821651226" lon="14.612972801897081"><ele>294.0</ele><time>2026-04-04T13:54:38.998Z</time></trkpt><trkpt lat="41.02069043121342" lon="14.612883951185704"><ele>294.0</ele><time>2026-04-04T13:54:39.998Z</time></trkpt><trkpt lat="41.020701072252514" lon="14.612801379955473"><ele>294.0</ele><time>2026-04-04T13:54:40.998Z</time></trkpt><trkpt lat="41.02070613710216" lon="14.6126941011261"><ele>294.0</ele><time>2026-04-04T13:54:42.998Z</time></trkpt><trkpt lat="41.020699597855206" lon="14.612608046928479"><ele>294.0</ele><time>2026-04-04T13:54:46.998Z</time></trkpt><trkpt lat="41.020921779820696" lon="14.612588845385018"><ele>293.0</ele><time>2026-04-04T13:54:49Z</time></trkpt><trkpt lat="41.02102455024388" lon="14.612598915555097"><ele>292.0</ele><time>2026-04-04T13:54:50Z</time></trkpt><trkpt lat="41.02113799791398" lon="14.6126185246151"><ele>291.0</ele><time>2026-04-04T13:54:51Z</time></trkpt><trkpt lat="41.0212379483636" lon="14.612638971735397"><ele>290.0</ele><time>2026-04-04T13:54:52Z</time></trkpt><trkpt lat="41.021338075514635" lon="14.612644084260804"><ele>289.0</ele><time>2026-04-04T13:54:53Z</time></trkpt><trkpt lat="41.021427148005515" lon="14.612655080281803"><ele>289.0</ele><time>2026-04-04T13:54:54Z</time></trkpt><trkpt lat="41.02150710401963" lon="14.612654904245685"><ele>289.0</ele><time>2026-04-04T13:54:55Z</time></trkpt><trkpt lat="41.02157949765457" lon="14.612657437774525"><ele>289.0</ele><time>2026-04-04T13:54:56Z</time></trkpt><trkpt lat="41.021674181793124" lon="14.61267115969337"><ele>289.0</ele><time>2026-04-04T13:54:58Z</time></trkpt><trkpt lat="41.021752689669945" lon="14.612694726373299"><ele>289.0</ele><time>2026-04-04T13:55:00Z</time></trkpt><trkpt lat="41.02182507607384" lon="14.612683454415198"><ele>289.0</ele><time>2026-04-04T13:55:02Z</time></trkpt><trkpt lat="41.02189587810701" lon="14.6126890647078"><ele>288.4</ele><time>2026-04-04T13:55:06Z</time></trkpt><trkpt lat="41.02196805003073" lon="14.61269472605302"><ele>287.79999999999995</ele><time>2026-04-04T13:55:11Z</time></trkpt><trkpt lat="41.02202743097092" lon="14.612523145900786"><ele>287.20000000000005</ele><time>2026-04-04T13:55:14Z</time></trkpt><trkpt lat="41.02202107710573" lon="14.612394838265466"><ele>286.6</ele><time>2026-04-04T13:55:16Z</time></trkpt><trkpt lat="41.022038877654346" lon="14.612284058820297"><ele>286.0</ele><time>2026-04-04T13:55:19Z</time></trkpt><trkpt lat="41.022142545396555" lon="14.612253056161732"><ele>286.0</ele><time>2026-04-04T13:55:22Z</time></trkpt><trkpt lat="41.022209477854936" lon="14.612285222307698"><ele>286.0</ele><time>2026-04-04T13:55:24Z</time></trkpt><trkpt lat="41.022300683824426" lon="14.612304008885262"><ele>286.0</ele><time>2026-04-04T13:55:26Z</time></trkpt><trkpt lat="41.022429805968265" lon="14.612308590244554"><ele>286.0</ele><time>2026-04-04T13:55:27.999Z</time></trkpt><trkpt lat="41.02250390032712" lon="14.612309190006966"><ele>286.0</ele><time>2026-04-04T13:55:28.999Z</time></trkpt><trkpt lat="41.022586604690375" lon="14.612301343348829"><ele>285.0</ele><time>2026-04-04T13:55:29.999Z</time></trkpt><trkpt lat="41.022720650196355" lon="14.612295223290696"><ele>284.0</ele><time>2026-04-04T13:55:30.999Z</time></trkpt><trkpt lat="41.02286963435947" lon="14.612320878880606"><ele>283.0</ele><time>2026-04-04T13:55:31.999Z</time></trkpt><trkpt lat="41.023000315379484" lon="14.612345040076917"><ele>282.0</ele><time>2026-04-04T13:55:32.999Z</time></trkpt><trkpt lat="41.02314095405" lon="14.612345658195645"><ele>282.0</ele><time>2026-04-04T13:55:33.999Z</time></trkpt><trkpt lat="41.023285079873645" lon="14.612337212874012"><ele>282.0</ele><time>2026-04-04T13:55:34.999Z</time></trkpt><trkpt lat="41.02342770862661" lon="14.612331350944974"><ele>282.0</ele><time>2026-04-04T13:55:35.999Z</time></trkpt><trkpt lat="41.023540070477104" lon="14.612353946759937"><ele>282.0</ele><time>2026-04-04T13:55:36.999Z</time></trkpt><trkpt lat="41.02365219837506" lon="14.612370926788904"><ele>281.0</ele><time>2026-04-04T13:55:37.999Z</time></trkpt><trkpt lat="41.02376045188887" lon="14.612380771798994"><ele>280.0</ele><time>2026-04-04T13:55:38.999Z</time></trkpt><trkpt lat="41.02384167541649" lon="14.612369530127909"><ele>279.0</ele><time>2026-04-04T13:55:39.999Z</time></trkpt><trkpt lat="41.02390002667916" lon="14.61230760618284"><ele>278.0</ele><time>2026-04-04T13:55:40.999Z</time></trkpt><trkpt lat="41.023927332817514" lon="14.612023385183566"><ele>278.0</ele><time>2026-04-04T13:55:42.999Z</time></trkpt><trkpt lat="41.023975134651565" lon="14.611807841000306"><ele>278.0</ele><time>2026-04-04T13:55:43.999Z</time></trkpt><trkpt lat="41.02402811032928" lon="14.611555826938853"><ele>278.0</ele><time>2026-04-04T13:55:44.999Z</time></trkpt><trkpt lat="41.024068256691464" lon="14.611378532111447"><ele>278.0</ele><time>2026-04-04T13:55:45.999Z</time></trkpt><trkpt lat="41.02410179787688" lon="14.611222270877894"><ele>278.0</ele><time>2026-04-04T13:55:46.999Z</time></trkpt><trkpt lat="41.02412421538819" lon="14.611082286861013"><ele>278.0</ele><time>2026-04-04T13:55:47.999Z</time></trkpt><trkpt lat="41.02415802034328" lon="14.610972864155912"><ele>278.0</ele><time>2026-04-04T13:55:48.999Z</time></trkpt><trkpt lat="41.0241921559962" lon="14.61089490278036"><ele>278.0</ele><time>2026-04-04T13:55:49.999Z</time></trkpt><trkpt lat="41.02436959273643" lon="14.61094630296102"><ele>277.75</ele><time>2026-04-04T13:55:53.999Z</time></trkpt><trkpt lat="41.02449209148564" lon="14.61101131373924"><ele>277.5</ele><time>2026-04-04T13:55:54.999Z</time></trkpt><trkpt lat="41.02462595355451" lon="14.611064627632173"><ele>277.25</ele><time>2026-04-04T13:55:55.999Z</time></trkpt><trkpt lat="41.02476222266052" lon="14.61114099173736"><ele>277.0</ele><time>2026-04-04T13:55:56.999Z</time></trkpt><trkpt lat="41.02490642301584" lon="14.611220617524996"><ele>277.0</ele><time>2026-04-04T13:55:57.999Z</time></trkpt><trkpt lat="41.025049707540305" lon="14.611302688233131"><ele>277.0</ele><time>2026-04-04T13:55:58.999Z</time></trkpt><trkpt lat="41.02520631492521" lon="14.611387372955603"><ele>277.0</ele><time>2026-04-04T13:55:59.999Z</time></trkpt><trkpt lat="41.02537750030213" lon="14.61148294486294"><ele>277.0</ele><time>2026-04-04T13:56:00.999Z</time></trkpt><trkpt lat="41.025545110748396" lon="14.611595562520554"><ele>277.0</ele><time>2026-04-04T13:56:01.999Z</time></trkpt><trkpt lat="41.02571461394605" lon="14.611690240366913"><ele>277.0</ele><time>2026-04-04T13:56:02.999Z</time></trkpt><trkpt lat="41.0258878775904" lon="14.611766704734627"><ele>276.3333333333333</ele><time>2026-04-04T13:56:03.999Z</time></trkpt><trkpt lat="41.026036544441595" lon="14.611871963647133"><ele>275.6666666666667</ele><time>2026-04-04T13:56:04.999Z</time></trkpt><trkpt lat="41.026187080114596" lon="14.611940009009764"><ele>275.0</ele><time>2026-04-04T13:56:05.999Z</time></trkpt><trkpt lat="41.02631897036817" lon="14.612010211916028"><ele>275.0</ele><time>2026-04-04T13:56:06.999Z</time></trkpt><trkpt lat="41.02644027576532" lon="14.612091359817617"><ele>275.0</ele><time>2026-04-04T13:56:07.999Z</time></trkpt><trkpt lat="41.026554232803285" lon="14.612161472237597"><ele>275.0</ele><time>2026-04-04T13:56:08.999Z</time></trkpt><trkpt lat="41.02665296065653" lon="14.612217975673396"><ele>275.0</ele><time>2026-04-04T13:56:09.999Z</time></trkpt><trkpt lat="41.02673476567795" lon="14.612277518847915"><ele>274.6</ele><time>2026-04-04T13:56:10.999Z</time></trkpt><trkpt lat="41.02678717279322" lon="14.612331034328179"><ele>274.2</ele><time>2026-04-04T13:56:11.999Z</time></trkpt><trkpt lat="41.02684491225129" lon="14.612378004438478"><ele>273.8</ele><time>2026-04-04T13:56:12.999Z</time></trkpt><trkpt lat="41.02695509509555" lon="14.61231786646724"><ele>273.4</ele><time>2026-04-04T13:56:14.999Z</time></trkpt><trkpt lat="41.02707905175727" lon="14.612258301874673"><ele>273.0</ele><time>2026-04-04T13:56:15.999Z</time></trkpt><trkpt lat="41.02719681987978" lon="14.612142278905381"><ele>273.0</ele><time>2026-04-04T13:56:16.999Z</time></trkpt><trkpt lat="41.02732482711063" lon="14.612029168874635"><ele>273.0</ele><time>2026-04-04T13:56:17.999Z</time></trkpt><trkpt lat="41.02747322797128" lon="14.611921628324787"><ele>273.0</ele><time>2026-04-04T13:56:18.999Z</time></trkpt><trkpt lat="41.02762781983311" lon="14.61180644633113"><ele>272.6666666666667</ele><time>2026-04-04T13:56:19.999Z</time></trkpt><trkpt lat="41.02778678495641" lon="14.611699488169247"><ele>272.33333333333337</ele><time>2026-04-04T13:56:20.999Z</time></trkpt><trkpt lat="41.02792114006268" lon="14.611610189646282"><ele>272.0</ele><time>2026-04-04T13:56:21.999Z</time></trkpt><trkpt lat="41.0280504278049" lon="14.61153166912788"><ele>272.0</ele><time>2026-04-04T13:56:22.999Z</time></trkpt><trkpt lat="41.028186594737655" lon="14.611464036682419"><ele>272.0</ele><time>2026-04-04T13:56:23.999Z</time></trkpt><trkpt lat="41.02833521421595" lon="14.611414504659598"><ele>272.0</ele><time>2026-04-04T13:56:24.999Z</time></trkpt><trkpt lat="41.02848967718976" lon="14.611406630241033"><ele>272.0</ele><time>2026-04-04T13:56:25.999Z</time></trkpt><trkpt lat="41.028649448943504" lon="14.611431138006154"><ele>272.0</ele><time>2026-04-04T13:56:26.999Z</time></trkpt><trkpt lat="41.02882118263875" lon="14.611466277936762"><ele>272.0</ele><time>2026-04-04T13:56:27.999Z</time></trkpt><trkpt lat="41.02898711672916" lon="14.611492160633848"><ele>272.0</ele><time>2026-04-04T13:56:28.999Z</time></trkpt><trkpt lat="41.02912929706346" lon="14.61150606450633"><ele>272.0</ele><time>2026-04-04T13:56:29.999Z</time></trkpt><trkpt lat="41.029257105748734" lon="14.611526007645422"><ele>272.0</ele><time>2026-04-04T13:56:30.999Z</time></trkpt><trkpt lat="41.029389522180786" lon="14.611540864916435"><ele>272.0</ele><time>2026-04-04T13:56:31.999Z</time></trkpt><trkpt lat="41.02953170332095" lon="14.611558287720388"><ele>272.0</ele><time>2026-04-04T13:56:32.999Z</time></trkpt><trkpt lat="41.02968820936619" lon="14.611550765086372"><ele>272.0</ele><time>2026-04-04T13:56:33.999Z</time></trkpt><trkpt lat="41.02986892954615" lon="14.611505468807941"><ele>272.0</ele><time>2026-04-04T13:56:34.999Z</time></trkpt><trkpt lat="41.030045942481124" lon="14.611460889696078"><ele>272.0</ele><time>2026-04-04T13:56:35.999Z</time></trkpt><trkpt lat="41.0302193866379" lon="14.611420397061657"><ele>272.0</ele><time>2026-04-04T13:56:36.999Z</time></trkpt><trkpt lat="41.03039468434549" lon="14.611343690104668"><ele>272.0</ele><time>2026-04-04T13:56:37.998Z</time></trkpt><trkpt lat="41.03058180116513" lon="14.611260428705364"><ele>272.0</ele><time>2026-04-04T13:56:38.998Z</time></trkpt><trkpt lat="41.03079295881377" lon="14.611177645631372"><ele>272.0</ele><time>2026-04-04T13:56:39.998Z</time></trkpt><trkpt lat="41.030986284170105" lon="14.611090261408934"><ele>272.0</ele><time>2026-04-04T13:56:40.998Z</time></trkpt><trkpt lat="41.031171833204006" lon="14.611016829670927"><ele>271.6666666666667</ele><time>2026-04-04T13:56:41.998Z</time></trkpt><trkpt lat="41.031340564125465" lon="14.610964804197586"><ele>271.3333333333333</ele><time>2026-04-04T13:56:42.998Z</time></trkpt><trkpt lat="41.03152970407493" lon="14.610956665492456"><ele>271.0</ele><time>2026-04-04T13:56:43.998Z</time></trkpt><trkpt lat="41.03176838327034" lon="14.610983848250054"><ele>271.0</ele><time>2026-04-04T13:56:44.998Z</time></trkpt><trkpt lat="41.032011404963974" lon="14.61100658958314"><ele>271.0</ele><time>2026-04-04T13:56:45.998Z</time></trkpt><trkpt lat="41.03221722075025" lon="14.611031106463642"><ele>271.0</ele><time>2026-04-04T13:56:46.998Z</time></trkpt><trkpt lat="41.03240790491838" lon="14.611059088571473"><ele>271.0</ele><time>2026-04-04T13:56:47.998Z</time></trkpt><trkpt lat="41.032593926460734" lon="14.611114697143895"><ele>271.0</ele><time>2026-04-04T13:56:48.998Z</time></trkpt><trkpt lat="41.03277982538594" lon="14.611209135673434"><ele>270.3333333333333</ele><time>2026-04-04T13:56:49.998Z</time></trkpt><trkpt lat="41.03297085510476" lon="14.61133372666993"><ele>269.6666666666667</ele><time>2026-04-04T13:56:50.998Z</time></trkpt><trkpt lat="41.03314404405433" lon="14.61146293555917"><ele>269.0</ele><time>2026-04-04T13:56:51.998Z</time></trkpt><trkpt lat="41.03330422688713" lon="14.611564224359942"><ele>269.0</ele><time>2026-04-04T13:56:52.998Z</time></trkpt><trkpt lat="41.033476886813" lon="14.611624087556887"><ele>269.0</ele><time>2026-04-04T13:56:53.998Z</time></trkpt><trkpt lat="41.03367508945973" lon="14.611622943306825"><ele>269.0</ele><time>2026-04-04T13:56:55Z</time></trkpt><trkpt lat="41.033888446020335" lon="14.611594675239049"><ele>269.0</ele><time>2026-04-04T13:56:56Z</time></trkpt><trkpt lat="41.03410317654037" lon="14.611524882414445"><ele>269.0</ele><time>2026-04-04T13:56:57Z</time></trkpt><trkpt lat="41.0343093810295" lon="14.61144352273642"><ele>269.0</ele><time>2026-04-04T13:56:58Z</time></trkpt><trkpt lat="41.03450273786302" lon="14.611355125684096"><ele>269.0</ele><time>2026-04-04T13:56:59Z</time></trkpt><trkpt lat="41.034680321134154" lon="14.611274303640988"><ele>269.0</ele><time>2026-04-04T13:57:00Z</time></trkpt><trkpt lat="41.03485176154982" lon="14.61122007610305"><ele>269.0</ele><time>2026-04-04T13:57:01Z</time></trkpt><trkpt lat="41.03502732482376" lon="14.611151727871363"><ele>269.0</ele><time>2026-04-04T13:57:02Z</time></trkpt><trkpt lat="41.03521151019111" lon="14.611058181332186"><ele>269.0</ele><time>2026-04-04T13:57:03Z</time></trkpt><trkpt lat="41.03538100753498" lon="14.61099926218456"><ele>269.0</ele><time>2026-04-04T13:57:04Z</time></trkpt><trkpt lat="41.03553367402406" lon="14.610945150760484"><ele>269.0</ele><time>2026-04-04T13:57:05Z</time></trkpt><trkpt lat="41.035673548936444" lon="14.610889048162994"><ele>269.0</ele><time>2026-04-04T13:57:06Z</time></trkpt><trkpt lat="41.035820009332106" lon="14.610844047832567"><ele>269.0</ele><time>2026-04-04T13:57:07Z</time></trkpt><trkpt lat="41.03593776871374" lon="14.610797315674878"><ele>269.0</ele><time>2026-04-04T13:57:08Z</time></trkpt><trkpt lat="41.03601778815527" lon="14.61076979607745"><ele>268.8</ele><time>2026-04-04T13:57:09Z</time></trkpt><trkpt lat="41.03608388417956" lon="14.610748682235945"><ele>268.59999999999997</ele><time>2026-04-04T13:57:10Z</time></trkpt><trkpt lat="41.036190865425134" lon="14.61072093546983"><ele>268.4</ele><time>2026-04-04T13:57:12Z</time></trkpt><trkpt lat="41.036300744990974" lon="14.610760130994278"><ele>268.2</ele><time>2026-04-04T13:57:14Z</time></trkpt><trkpt lat="41.03638783868149" lon="14.61070980493558"><ele>268.0</ele><time>2026-04-04T13:57:16Z</time></trkpt><trkpt lat="41.03641847888069" lon="14.610606993532624"><ele>268.0</ele><time>2026-04-04T13:57:17Z</time></trkpt><trkpt lat="41.03642552860641" lon="14.610446176035882"><ele>268.0</ele><time>2026-04-04T13:57:18Z</time></trkpt><trkpt lat="41.03639482135404" lon="14.610237750022725"><ele>268.0</ele><time>2026-04-04T13:57:19Z</time></trkpt><trkpt lat="41.03636745801589" lon="14.610035039886153"><ele>268.0</ele><time>2026-04-04T13:57:20Z</time></trkpt><trkpt lat="41.03635044811493" lon="14.609805511424614"><ele>267.66666666666663</ele><time>2026-04-04T13:57:21Z</time></trkpt><trkpt lat="41.03632396944461" lon="14.60954656455588"><ele>267.3333333333333</ele><time>2026-04-04T13:57:22Z</time></trkpt><trkpt lat="41.036277103942226" lon="14.609304964938564"><ele>267.0</ele><time>2026-04-04T13:57:23Z</time></trkpt><trkpt lat="41.03621879547373" lon="14.609035017262196"><ele>268.0</ele><time>2026-04-04T13:57:24Z</time></trkpt><trkpt lat="41.03614693314746" lon="14.608750436011267"><ele>269.0</ele><time>2026-04-04T13:57:25Z</time></trkpt><trkpt lat="41.03608028430896" lon="14.608455611216895"><ele>269.0</ele><time>2026-04-04T13:57:26Z</time></trkpt><trkpt lat="41.03601273499565" lon="14.608159367312304"><ele>269.0</ele><time>2026-04-04T13:57:26.999Z</time></trkpt><trkpt lat="41.03595816018856" lon="14.607892689481218"><ele>269.0</ele><time>2026-04-04T13:57:27.999Z</time></trkpt><trkpt lat="41.035908544006915" lon="14.607635074900807"><ele>268.6666666666667</ele><time>2026-04-04T13:57:28.999Z</time></trkpt><trkpt lat="41.03587197348694" lon="14.607365238704924"><ele>268.3333333333333</ele><time>2026-04-04T13:57:29.999Z</time></trkpt><trkpt lat="41.035837624596525" lon="14.607111152923883"><ele>268.0</ele><time>2026-04-04T13:57:30.999Z</time></trkpt><trkpt lat="41.03583126103645" lon="14.606871775073227"><ele>267.66666666666663</ele><time>2026-04-04T13:57:31.999Z</time></trkpt><trkpt lat="41.03587973694903" lon="14.606651945398191"><ele>267.3333333333333</ele><time>2026-04-04T13:57:32.999Z</time></trkpt><trkpt lat="41.03596600478678" lon="14.606452707087401"><ele>267.0</ele><time>2026-04-04T13:57:33.999Z</time></trkpt><trkpt lat="41.03608565398677" lon="14.606249714377059"><ele>266.6666666666667</ele><time>2026-04-04T13:57:34.999Z</time></trkpt><trkpt lat="41.036182663588015" lon="14.606059591592214"><ele>266.33333333333337</ele><time>2026-04-04T13:57:35.999Z</time></trkpt><trkpt lat="41.03623808279689" lon="14.605856222293072"><ele>266.0</ele><time>2026-04-04T13:57:36.999Z</time></trkpt><trkpt lat="41.03625307664461" lon="14.60562813459609"><ele>266.0</ele><time>2026-04-04T13:57:37.999Z</time></trkpt><trkpt lat="41.036226555494714" lon="14.605381049116893"><ele>266.0</ele><time>2026-04-04T13:57:38.999Z</time></trkpt><trkpt lat="41.03619791765389" lon="14.605125414254012"><ele>266.0</ele><time>2026-04-04T13:57:39.999Z</time></trkpt><trkpt lat="41.036168059309404" lon="14.6048630846311"><ele>266.33333333333337</ele><time>2026-04-04T13:57:40.999Z</time></trkpt><trkpt lat="41.036159022151615" lon="14.604613999788127"><ele>266.6666666666667</ele><time>2026-04-04T13:57:41.999Z</time></trkpt><trkpt lat="41.036157820779486" lon="14.604362935362294"><ele>267.0</ele><time>2026-04-04T13:57:42.999Z</time></trkpt><trkpt lat="41.0361634026946" lon="14.604113341785391"><ele>266.3333333333333</ele><time>2026-04-04T13:57:43.999Z</time></trkpt><trkpt lat="41.03617873458022" lon="14.603890382653887"><ele>265.66666666666663</ele><time>2026-04-04T13:57:44.999Z</time></trkpt><trkpt lat="41.036186634317055" lon="14.6036758362999"><ele>265.0</ele><time>2026-04-04T13:57:45.999Z</time></trkpt><trkpt lat="41.03619979272459" lon="14.603476138120621"><ele>263.75</ele><time>2026-04-04T13:57:46.999Z</time></trkpt><trkpt lat="41.03619362065651" lon="14.603285329844885"><ele>262.5</ele><time>2026-04-04T13:57:47.999Z</time></trkpt><trkpt lat="41.036200897102695" lon="14.603147669640814"><ele>261.25</ele><time>2026-04-04T13:57:48.999Z</time></trkpt><trkpt lat="41.0362146353236" lon="14.603055757474213"><ele>260.0</ele><time>2026-04-04T13:57:49.999Z</time></trkpt><trkpt lat="41.036362602990735" lon="14.602979264259"><ele>260.0</ele><time>2026-04-04T13:57:51.999Z</time></trkpt><trkpt lat="41.03652187316537" lon="14.602935581722821"><ele>260.0</ele><time>2026-04-04T13:57:52.999Z</time></trkpt><trkpt lat="41.03670250933925" lon="14.602908882194745"><ele>260.0</ele><time>2026-04-04T13:57:53.999Z</time></trkpt><trkpt lat="41.03691572513209" lon="14.602935099266555"><ele>261.5</ele><time>2026-04-04T13:57:54.999Z</time></trkpt><trkpt lat="41.03715141805205" lon="14.602935393873986"><ele>263.0</ele><time>2026-04-04T13:57:55.999Z</time></trkpt><trkpt lat="41.03738021880224" lon="14.602929259003835"><ele>263.0</ele><time>2026-04-04T13:57:56.999Z</time></trkpt><trkpt lat="41.03758114042491" lon="14.60290059031585"><ele>263.0</ele><time>2026-04-04T13:57:57.999Z</time></trkpt><trkpt lat="41.037765379829764" lon="14.602850539528278"><ele>263.0</ele><time>2026-04-04T13:57:58.999Z</time></trkpt><trkpt lat="41.03793550974728" lon="14.602729894157333"><ele>263.0</ele><time>2026-04-04T13:57:59.999Z</time></trkpt><trkpt lat="41.03810819214972" lon="14.602592250941393"><ele>263.0</ele><time>2026-04-04T13:58:00.999Z</time></trkpt><trkpt lat="41.03826051218028" lon="14.602475778757798"><ele>263.0</ele><time>2026-04-04T13:58:01.999Z</time></trkpt><trkpt lat="41.03841897681764" lon="14.602413858552914"><ele>263.6666666666667</ele><time>2026-04-04T13:58:02.999Z</time></trkpt><trkpt lat="41.0385980988558" lon="14.602373025365479"><ele>264.3333333333333</ele><time>2026-04-04T13:58:03.999Z</time></trkpt><trkpt lat="41.03879329843482" lon="14.602364188545783"><ele>265.0</ele><time>2026-04-04T13:58:04.999Z</time></trkpt><trkpt lat="41.039016668449996" lon="14.602327588332344"><ele>264.0</ele><time>2026-04-04T13:58:05.999Z</time></trkpt><trkpt lat="41.03926290798734" lon="14.60230683444096"><ele>263.0</ele><time>2026-04-04T13:58:06.999Z</time></trkpt><trkpt lat="41.03952426751468" lon="14.602252360893472"><ele>263.0</ele><time>2026-04-04T13:58:07.999Z</time></trkpt><trkpt lat="41.03978762472544" lon="14.60217181663015"><ele>263.0</ele><time>2026-04-04T13:58:08.999Z</time></trkpt><trkpt lat="41.04004645447107" lon="14.602066900468406"><ele>263.5</ele><time>2026-04-04T13:58:09.999Z</time></trkpt><trkpt lat="41.04029775862671" lon="14.601967084801135"><ele>264.0</ele><time>2026-04-04T13:58:10.999Z</time></trkpt><trkpt lat="41.040529223386685" lon="14.601888691915672"><ele>264.0</ele><time>2026-04-04T13:58:11.999Z</time></trkpt><trkpt lat="41.040733118041054" lon="14.60183494438238"><ele>264.0</ele><time>2026-04-04T13:58:12.999Z</time></trkpt><trkpt lat="41.04093116736611" lon="14.601835200881194"><ele>264.0</ele><time>2026-04-04T13:58:13.999Z</time></trkpt><trkpt lat="41.041131363185045" lon="14.601849498533927"><ele>263.0</ele><time>2026-04-04T13:58:14.999Z</time></trkpt><trkpt lat="41.04135863006278" lon="14.601883527503993"><ele>262.0</ele><time>2026-04-04T13:58:15.999Z</time></trkpt><trkpt lat="41.04157906828872" lon="14.601999856588176"><ele>261.0</ele><time>2026-04-04T13:58:16.999Z</time></trkpt><trkpt lat="41.04181062221477" lon="14.602118535844447"><ele>260.0</ele><time>2026-04-04T13:58:17.999Z</time></trkpt><trkpt lat="41.04204383981855" lon="14.60221915800719"><ele>260.0</ele><time>2026-04-04T13:58:18.999Z</time></trkpt><trkpt lat="41.04228555970908" lon="14.602347107965848"><ele>260.0</ele><time>2026-04-04T13:58:19.999Z</time></trkpt><trkpt lat="41.042528174637404" lon="14.602474742339465"><ele>259.5</ele><time>2026-04-04T13:58:20.999Z</time></trkpt><trkpt lat="41.04274782336317" lon="14.602587041325004"><ele>259.0</ele><time>2026-04-04T13:58:21.999Z</time></trkpt><trkpt lat="41.042967667134214" lon="14.602702859106115"><ele>259.0</ele><time>2026-04-04T13:58:22.999Z</time></trkpt><trkpt lat="41.043189493174104" lon="14.602811766034643"><ele>259.0</ele><time>2026-04-04T13:58:23.999Z</time></trkpt><trkpt lat="41.043415616246804" lon="14.60292679323891"><ele>260.0</ele><time>2026-04-04T13:58:24.999Z</time></trkpt><trkpt lat="41.0436439143152" lon="14.603045844968335"><ele>261.0</ele><time>2026-04-04T13:58:25.999Z</time></trkpt><trkpt lat="41.043882395852094" lon="14.60316948147921"><ele>261.0</ele><time>2026-04-04T13:58:26.999Z</time></trkpt><trkpt lat="41.04412355467527" lon="14.603301855080403"><ele>261.0</ele><time>2026-04-04T13:58:27.999Z</time></trkpt><trkpt lat="41.04437599178319" lon="14.603452180087588"><ele>261.0</ele><time>2026-04-04T13:58:28.999Z</time></trkpt><trkpt lat="41.04460019287687" lon="14.603599298668424"><ele>261.0</ele><time>2026-04-04T13:58:29.999Z</time></trkpt><trkpt lat="41.044827794418225" lon="14.603735402701815"><ele>260.0</ele><time>2026-04-04T13:58:30.999Z</time></trkpt><trkpt lat="41.045061879003065" lon="14.603880627198926"><ele>259.0</ele><time>2026-04-04T13:58:31.999Z</time></trkpt><trkpt lat="41.04528880475511" lon="14.604047306354486"><ele>259.0</ele><time>2026-04-04T13:58:32.999Z</time></trkpt><trkpt lat="41.04549609749032" lon="14.60418144861314"><ele>259.0</ele><time>2026-04-04T13:58:33.999Z</time></trkpt><trkpt lat="41.04570786085284" lon="14.604287682711524"><ele>259.0</ele><time>2026-04-04T13:58:34.999Z</time></trkpt><trkpt lat="41.04591172097869" lon="14.604414271477669"><ele>259.0</ele><time>2026-04-04T13:58:35.999Z</time></trkpt><trkpt lat="41.04612035425191" lon="14.604542413814533"><ele>259.5</ele><time>2026-04-04T13:58:36.999Z</time></trkpt><trkpt lat="41.046329955651146" lon="14.604678600987508"><ele>260.0</ele><time>2026-04-04T13:58:37.999Z</time></trkpt><trkpt lat="41.04654901678598" lon="14.604819826450539"><ele>260.0</ele><time>2026-04-04T13:58:38.999Z</time></trkpt><trkpt lat="41.046786148530664" lon="14.604974142164364"><ele>260.0</ele><time>2026-04-04T13:58:39.999Z</time></trkpt><trkpt lat="41.047041871212436" lon="14.605128984420956"><ele>260.0</ele><time>2026-04-04T13:58:40.999Z</time></trkpt><trkpt lat="41.047292093485304" lon="14.605279134158074"><ele>260.0</ele><time>2026-04-04T13:58:41.999Z</time></trkpt><trkpt lat="41.04751976800808" lon="14.605417652532143"><ele>261.0</ele><time>2026-04-04T13:58:42.999Z</time></trkpt><trkpt lat="41.04773491004631" lon="14.60555270626082"><ele>262.0</ele><time>2026-04-04T13:58:43.999Z</time></trkpt><trkpt lat="41.04793009025714" lon="14.605676561619982"><ele>262.0</ele><time>2026-04-04T13:58:44.999Z</time></trkpt><trkpt lat="41.04811555811414" lon="14.605791394255734"><ele>262.0</ele><time>2026-04-04T13:58:45.999Z</time></trkpt><trkpt lat="41.04828758780189" lon="14.605896777711264"><ele>262.0</ele><time>2026-04-04T13:58:46.999Z</time></trkpt><trkpt lat="41.04845015414672" lon="14.60598909293341"><ele>263.0</ele><time>2026-04-04T13:58:47.998Z</time></trkpt><trkpt lat="41.04862982677243" lon="14.606045106133521"><ele>264.0</ele><time>2026-04-04T13:58:48.998Z</time></trkpt><trkpt lat="41.04883357497859" lon="14.606049008519257"><ele>265.0</ele><time>2026-04-04T13:58:49.998Z</time></trkpt><trkpt lat="41.04905504856119" lon="14.606008622670322"><ele>264.66666666666663</ele><time>2026-04-04T13:58:50.998Z</time></trkpt><trkpt lat="41.04928547696563" lon="14.605963914249326"><ele>264.3333333333333</ele><time>2026-04-04T13:58:51.998Z</time></trkpt><trkpt lat="41.04948373166798" lon="14.60592293497187"><ele>264.0</ele><time>2026-04-04T13:58:52.998Z</time></trkpt><trkpt lat="41.04967118140086" lon="14.60589330786322"><ele>264.0</ele><time>2026-04-04T13:58:53.998Z</time></trkpt><trkpt lat="41.04984493198495" lon="14.605867706073049"><ele>264.0</ele><time>2026-04-04T13:58:54.998Z</time></trkpt><trkpt lat="41.050008300648216" lon="14.605843039145963"><ele>264.0</ele><time>2026-04-04T13:58:55.998Z</time></trkpt><trkpt lat="41.0501660844625" lon="14.605814963532719"><ele>264.0</ele><time>2026-04-04T13:58:56.998Z</time></trkpt><trkpt lat="41.05030976132836" lon="14.605785255804355"><ele>264.0</ele><time>2026-04-04T13:58:57.998Z</time></trkpt><trkpt lat="41.050441580096255" lon="14.605759807726011"><ele>264.0</ele><time>2026-04-04T13:58:58.998Z</time></trkpt><trkpt lat="41.05056520889493" lon="14.605739173384594"><ele>264.0</ele><time>2026-04-04T13:58:59.998Z</time></trkpt><trkpt lat="41.05069247880664" lon="14.605726259574759"><ele>264.0</ele><time>2026-04-04T13:59:00.999Z</time></trkpt><trkpt lat="41.05078140195404" lon="14.605707879170232"><ele>264.0</ele><time>2026-04-04T13:59:01.999Z</time></trkpt><trkpt lat="41.0508711393737" lon="14.605687296085884"><ele>264.0</ele><time>2026-04-04T13:59:02.999Z</time></trkpt><trkpt lat="41.05095132023687" lon="14.605674061869172"><ele>264.0</ele><time>2026-04-04T13:59:03.999Z</time></trkpt><trkpt lat="41.05105962935348" lon="14.605655847644487"><ele>264.0</ele><time>2026-04-04T13:59:05.999Z</time></trkpt><trkpt lat="41.051124621310194" lon="14.60566223470904"><ele>264.0</ele><time>2026-04-04T13:59:25.999Z</time></trkpt><trkpt lat="41.051195340630734" lon="14.605641702423162"><ele>264.4</ele><time>2026-04-04T13:59:26.999Z</time></trkpt><trkpt lat="41.05125985202258" lon="14.605625710124484"><ele>264.79999999999995</ele><time>2026-04-04T13:59:41.999Z</time></trkpt><trkpt lat="41.051283870517935" lon="14.605485720921013"><ele>265.20000000000005</ele><time>2026-04-04T13:59:43.999Z</time></trkpt><trkpt lat="41.05124733059937" lon="14.605349836215538"><ele>265.6</ele><time>2026-04-04T13:59:44.999Z</time></trkpt><trkpt lat="41.05121789698682" lon="14.605215907572667"><ele>266.0</ele><time>2026-04-04T13:59:45.999Z</time></trkpt><trkpt lat="41.051179544527876" lon="14.605068976301366"><ele>266.25</ele><time>2026-04-04T13:59:46.999Z</time></trkpt><trkpt lat="41.05113537186777" lon="14.60488610670589"><ele>266.5</ele><time>2026-04-04T13:59:47.999Z</time></trkpt><trkpt lat="41.05109166711391" lon="14.604703177581895"><ele>266.75</ele><time>2026-04-04T13:59:48.999Z</time></trkpt><trkpt lat="41.05104464610761" lon="14.604512217512438"><ele>267.0</ele><time>2026-04-04T13:59:49.999Z</time></trkpt><trkpt lat="41.050994208201985" lon="14.60431475430124"><ele>267.0</ele><time>2026-04-04T13:59:50.999Z</time></trkpt><trkpt lat="41.05094235345957" lon="14.604108660488334"><ele>267.0</ele><time>2026-04-04T13:59:51.999Z</time></trkpt><trkpt lat="41.05089294591242" lon="14.603904183672483"><ele>267.0</ele><time>2026-04-04T13:59:52.999Z</time></trkpt><trkpt lat="41.05083769943783" lon="14.603694919185589"><ele>266.0</ele><time>2026-04-04T13:59:53.999Z</time></trkpt><trkpt lat="41.05078463209448" lon="14.603479318132154"><ele>265.0</ele><time>2026-04-04T13:59:54.999Z</time></trkpt><trkpt lat="41.05073696518283" lon="14.603269020403696"><ele>264.0</ele><time>2026-04-04T13:59:55.999Z</time></trkpt><trkpt lat="41.05069527668108" lon="14.603077208212753"><ele>264.0</ele><time>2026-04-04T13:59:56.999Z</time></trkpt><trkpt lat="41.05065366598828" lon="14.602906518779168"><ele>264.0</ele><time>2026-04-04T13:59:57.999Z</time></trkpt><trkpt lat="41.05060193534774" lon="14.602716432900822"><ele>264.0</ele><time>2026-04-04T13:59:58.999Z</time></trkpt><trkpt lat="41.050551360649315" lon="14.602515255155568"><ele>264.0</ele><time>2026-04-04T13:59:59.999Z</time></trkpt><trkpt lat="41.05049974966575" lon="14.602311463797566"><ele>264.5</ele><time>2026-04-04T14:00:00.999Z</time></trkpt><trkpt lat="41.05044795885322" lon="14.602101164294561"><ele>265.0</ele><time>2026-04-04T14:00:01.999Z</time></trkpt><trkpt lat="41.05040063770107" lon="14.601917048049062"><ele>265.5</ele><time>2026-04-04T14:00:02.999Z</time></trkpt><trkpt lat="41.05037671028093" lon="14.60180924900703"><ele>266.0</ele><time>2026-04-04T14:00:03.999Z</time></trkpt><trkpt lat="41.050351640821496" lon="14.601709904923956"><ele>266.0</ele><time>2026-04-04T14:00:05.999Z</time></trkpt><trkpt lat="41.050316560295606" lon="14.601598827840402"><ele>266.0</ele><time>2026-04-04T14:00:07.999Z</time></trkpt><trkpt lat="41.05024748252642" lon="14.601388883224132"><ele>266.0</ele><time>2026-04-04T14:00:09.999Z</time></trkpt><trkpt lat="41.0502031069755" lon="14.60122944394161"><ele>266.0</ele><time>2026-04-04T14:00:10.999Z</time></trkpt><trkpt lat="41.0501666446875" lon="14.601059212451267"><ele>265.75</ele><time>2026-04-04T14:00:11.999Z</time></trkpt><trkpt lat="41.05014339711469" lon="14.600904690701533"><ele>265.5</ele><time>2026-04-04T14:00:12.999Z</time></trkpt><trkpt lat="41.05010856432426" lon="14.60075119348601"><ele>265.25</ele><time>2026-04-04T14:00:13.999Z</time></trkpt><trkpt lat="41.05007150284463" lon="14.600593194125047"><ele>265.0</ele><time>2026-04-04T14:00:14.999Z</time></trkpt><trkpt lat="41.05002854936956" lon="14.60043059900629"><ele>265.0</ele><time>2026-04-04T14:00:15.999Z</time></trkpt><trkpt lat="41.049986608722904" lon="14.600262623118581"><ele>265.0</ele><time>2026-04-04T14:00:16.999Z</time></trkpt><trkpt lat="41.04994496776243" lon="14.600089497401543"><ele>265.0</ele><time>2026-04-04T14:00:17.999Z</time></trkpt><trkpt lat="41.049901340775655" lon="14.599911892833195"><ele>265.0</ele><time>2026-04-04T14:00:18.999Z</time></trkpt><trkpt lat="41.04985949990098" lon="14.599745983448269"><ele>264.75</ele><time>2026-04-04T14:00:19.999Z</time></trkpt><trkpt lat="41.049826019693256" lon="14.599586823275896"><ele>264.5</ele><time>2026-04-04T14:00:20.999Z</time></trkpt><trkpt lat="41.04978417191699" lon="14.599415534325793"><ele>264.25</ele><time>2026-04-04T14:00:21.999Z</time></trkpt><trkpt lat="41.04973243956065" lon="14.59924647979732"><ele>264.0</ele><time>2026-04-04T14:00:22.999Z</time></trkpt><trkpt lat="41.049689442573325" lon="14.599066575934538"><ele>264.0</ele><time>2026-04-04T14:00:23.999Z</time></trkpt><trkpt lat="41.04964698534902" lon="14.598889531052551"><ele>264.0</ele><time>2026-04-04T14:00:24.999Z</time></trkpt><trkpt lat="41.049601518833825" lon="14.598708943669017"><ele>264.0</ele><time>2026-04-04T14:00:25.999Z</time></trkpt><trkpt lat="41.049557203323424" lon="14.598525398822378"><ele>264.0</ele><time>2026-04-04T14:00:26.999Z</time></trkpt><trkpt lat="41.04951078902576" lon="14.598357850293002"><ele>264.0</ele><time>2026-04-04T14:00:27.999Z</time></trkpt><trkpt lat="41.04948093649677" lon="14.598204474316905"><ele>264.0</ele><time>2026-04-04T14:00:28.999Z</time></trkpt><trkpt lat="41.04944618605704" lon="14.598052099453657"><ele>264.0</ele><time>2026-04-04T14:00:29.999Z</time></trkpt><trkpt lat="41.049410507413825" lon="14.597900412314829"><ele>264.0</ele><time>2026-04-04T14:00:30.999Z</time></trkpt><trkpt lat="41.049368740910644" lon="14.597750757326438"><ele>264.25</ele><time>2026-04-04T14:00:31.999Z</time></trkpt><trkpt lat="41.04933447472168" lon="14.597606927894352"><ele>264.5</ele><time>2026-04-04T14:00:32.999Z</time></trkpt><trkpt lat="41.04929910439562" lon="14.597457627667893"><ele>264.75</ele><time>2026-04-04T14:00:33.999Z</time></trkpt><trkpt lat="41.049265291149574" lon="14.597301176651046"><ele>265.0</ele><time>2026-04-04T14:00:34.999Z</time></trkpt><trkpt lat="41.0492265621388" lon="14.59713855337642"><ele>265.0</ele><time>2026-04-04T14:00:35.999Z</time></trkpt><trkpt lat="41.049196512531495" lon="14.596974438703667"><ele>265.0</ele><time>2026-04-04T14:00:36.999Z</time></trkpt><trkpt lat="41.04920150737469" lon="14.596812489064773"><ele>265.0</ele><time>2026-04-04T14:00:37.999Z</time></trkpt><trkpt lat="41.04924955440309" lon="14.596664344574236"><ele>265.0</ele><time>2026-04-04T14:00:38.999Z</time></trkpt><trkpt lat="41.049330826602166" lon="14.596467795379912"><ele>265.0</ele><time>2026-04-04T14:00:39.999Z</time></trkpt><trkpt lat="41.04953124495965" lon="14.596330577490951"><ele>265.0</ele><time>2026-04-04T14:00:40.999Z</time></trkpt><trkpt lat="41.04965539094679" lon="14.596165965416544"><ele>265.0</ele><time>2026-04-04T14:00:41.999Z</time></trkpt><trkpt lat="41.049742140752656" lon="14.59594151656461"><ele>265.0</ele><time>2026-04-04T14:00:42.999Z</time></trkpt><trkpt lat="41.04980507783708" lon="14.595680298118031"><ele>265.0</ele><time>2026-04-04T14:00:43.999Z</time></trkpt><trkpt lat="41.04984623394343" lon="14.59539313437584"><ele>265.0</ele><time>2026-04-04T14:00:44.999Z</time></trkpt><trkpt lat="41.04987502706382" lon="14.595097845504647"><ele>265.0</ele><time>2026-04-04T14:00:45.999Z</time></trkpt><trkpt lat="41.049906314978784" lon="14.594828600433146"><ele>265.0</ele><time>2026-04-04T14:00:46.999Z</time></trkpt><trkpt lat="41.04993590399048" lon="14.594559078453887"><ele>265.0</ele><time>2026-04-04T14:00:47.999Z</time></trkpt><trkpt lat="41.04997993107105" lon="14.594283689701216"><ele>264.66666666666663</ele><time>2026-04-04T14:00:48.999Z</time></trkpt><trkpt lat="41.05002893393742" lon="14.594011800197114"><ele>264.3333333333333</ele><time>2026-04-04T14:00:49.999Z</time></trkpt><trkpt lat="41.05008117343181" lon="14.59374865943822"><ele>264.0</ele><time>2026-04-04T14:00:50.999Z</time></trkpt><trkpt lat="41.05014979645686" lon="14.593499873766927"><ele>263.0</ele><time>2026-04-04T14:00:51.999Z</time></trkpt><trkpt lat="41.050222052589696" lon="14.59327942271968"><ele>263.0</ele><time>2026-04-04T14:00:52.999Z</time></trkpt><trkpt lat="41.05028772602064" lon="14.59306130921692"><ele>263.0</ele><time>2026-04-04T14:00:53.999Z</time></trkpt></trkseg></trk></gpx>